<?xml version="1.0" encoding="UTF-8" standalone="no" ?>
<gpx xmlns="http://www.topografix.com/GPX/1/1" xmlns:xsi="http://www.w3.org/2001/XMLSchema-instance" xsi:schemaLocation="http://www.topografix.com/GPX/1/1 http://www.topografix.com/GPX/1/1/gpx.xsd" version="1.1" creator="VisuGPX - https://www.visugpx.com">
  <metadata>
    <name>2016-12-10 Bike ride-Amberieux en Dombes O via Monthieux</name>
    <desc><![CDATA[2016-12-10 Bike ride-Amberieux en Dombes O via Monthieux]]></desc>
  </metadata>
  <wpt lat="45.92456" lon="4.73707">
    <ele>174</ele>
    <name><![CDATA[2016-12-10 13:46 (Start)]]></name>
  </wpt>
  <wpt lat="45.92463" lon="4.73702">
    <ele>174</ele>
    <name><![CDATA[2016-12-10 13:46 (End)]]></name>
    <desc><![CDATA[Created by Google My Tracks on Android  Name: 2016-12-10 13:46 Activity type: biking Description: - Total distance: 45.93 km (28.5 mi) Total time: 2:29:02 Moving time: 2:21:43 Average speed: 18.49 km/h (11.5 mi/h) Average moving speed: 19.44 km/h (12.1 mi/h) Max speed: 46.78 km/h (29.1 mi/h) Average pace: 3:15 min/km (5:13 min/mi) Average moving pace: 3:05 min/km (4:58 min/mi) Fastest pace: 1:17 min/km (2:04 min/mi) Max elevation: 307 m (1007 ft) Min elevation: 157 m (515 ft) Elevation gain: 585 m (1919 ft) Max grade: 9 % Min grade: -8 % Recorded: 10/12/2016 13:46]]></desc>
  </wpt>
  <trk>
    <name><![CDATA[2016-12-10 13:46]]></name>
    <trkseg>
      <trkpt lat="45.92456" lon="4.73707">
        <ele>174</ele>
        <time>2016-12-10T12:46:37.262Z</time>
      </trkpt>
      <trkpt lat="45.92461" lon="4.73711">
        <ele>174</ele>
        <time>2016-12-10T12:49:33Z</time>
      </trkpt>
      <trkpt lat="45.92466" lon="4.73711">
        <ele>174</ele>
        <time>2016-12-10T12:49:34Z</time>
      </trkpt>
      <trkpt lat="45.92468" lon="4.73699">
        <ele>174</ele>
        <time>2016-12-10T12:49:40Z</time>
      </trkpt>
      <trkpt lat="45.92468" lon="4.73696">
        <ele>174</ele>
        <time>2016-12-10T12:49:41Z</time>
      </trkpt>
      <trkpt lat="45.92468" lon="4.73687">
        <ele>174</ele>
        <time>2016-12-10T12:49:44Z</time>
      </trkpt>
      <trkpt lat="45.92468" lon="4.73683">
        <ele>174</ele>
        <time>2016-12-10T12:49:45Z</time>
      </trkpt>
      <trkpt lat="45.92468" lon="4.73674">
        <ele>174</ele>
        <time>2016-12-10T12:49:47Z</time>
      </trkpt>
      <trkpt lat="45.92468" lon="4.73669">
        <ele>174</ele>
        <time>2016-12-10T12:49:48Z</time>
      </trkpt>
      <trkpt lat="45.9247" lon="4.7366">
        <ele>174</ele>
        <time>2016-12-10T12:49:50Z</time>
      </trkpt>
      <trkpt lat="45.92471" lon="4.73655">
        <ele>174</ele>
        <time>2016-12-10T12:49:51Z</time>
      </trkpt>
      <trkpt lat="45.92475" lon="4.73646">
        <ele>174</ele>
        <time>2016-12-10T12:49:53Z</time>
      </trkpt>
      <trkpt lat="45.92478" lon="4.73644">
        <ele>174</ele>
        <time>2016-12-10T12:49:54Z</time>
      </trkpt>
      <trkpt lat="45.92485" lon="4.73644">
        <ele>174</ele>
        <time>2016-12-10T12:49:56Z</time>
      </trkpt>
      <trkpt lat="45.92489" lon="4.73645">
        <ele>174</ele>
        <time>2016-12-10T12:49:57Z</time>
      </trkpt>
      <trkpt lat="45.92498" lon="4.73644">
        <ele>174</ele>
        <time>2016-12-10T12:49:59Z</time>
      </trkpt>
      <trkpt lat="45.92503" lon="4.73643">
        <ele>174</ele>
        <time>2016-12-10T12:50:00Z</time>
      </trkpt>
      <trkpt lat="45.92507" lon="4.73643">
        <ele>174</ele>
        <time>2016-12-10T12:50:01Z</time>
      </trkpt>
      <trkpt lat="45.92512" lon="4.73642">
        <ele>174</ele>
        <time>2016-12-10T12:50:02Z</time>
      </trkpt>
      <trkpt lat="45.92517" lon="4.73642">
        <ele>174</ele>
        <time>2016-12-10T12:50:03Z</time>
      </trkpt>
      <trkpt lat="45.92521" lon="4.73641">
        <ele>173</ele>
        <time>2016-12-10T12:50:04Z</time>
      </trkpt>
      <trkpt lat="45.92526" lon="4.7364">
        <ele>173</ele>
        <time>2016-12-10T12:50:05Z</time>
      </trkpt>
      <trkpt lat="45.92532" lon="4.7364">
        <ele>173</ele>
        <time>2016-12-10T12:50:06Z</time>
      </trkpt>
      <trkpt lat="45.92536" lon="4.73639">
        <ele>173</ele>
        <time>2016-12-10T12:50:07Z</time>
      </trkpt>
      <trkpt lat="45.92541" lon="4.73637">
        <ele>173</ele>
        <time>2016-12-10T12:50:08Z</time>
      </trkpt>
      <trkpt lat="45.92546" lon="4.73636">
        <ele>173</ele>
        <time>2016-12-10T12:50:09Z</time>
      </trkpt>
      <trkpt lat="45.92551" lon="4.73634">
        <ele>173</ele>
        <time>2016-12-10T12:50:10Z</time>
      </trkpt>
      <trkpt lat="45.92555" lon="4.73633">
        <ele>173</ele>
        <time>2016-12-10T12:50:11Z</time>
      </trkpt>
      <trkpt lat="45.9256" lon="4.73632">
        <ele>173</ele>
        <time>2016-12-10T12:50:12Z</time>
      </trkpt>
      <trkpt lat="45.92565" lon="4.73631">
        <ele>173</ele>
        <time>2016-12-10T12:50:13Z</time>
      </trkpt>
      <trkpt lat="45.9257" lon="4.7363">
        <ele>173</ele>
        <time>2016-12-10T12:50:14Z</time>
      </trkpt>
      <trkpt lat="45.92574" lon="4.73629">
        <ele>173</ele>
        <time>2016-12-10T12:50:15Z</time>
      </trkpt>
      <trkpt lat="45.9258" lon="4.73627">
        <ele>173</ele>
        <time>2016-12-10T12:50:16Z</time>
      </trkpt>
      <trkpt lat="45.92585" lon="4.73626">
        <ele>172</ele>
        <time>2016-12-10T12:50:17Z</time>
      </trkpt>
      <trkpt lat="45.9259" lon="4.73625">
        <ele>172</ele>
        <time>2016-12-10T12:50:18Z</time>
      </trkpt>
      <trkpt lat="45.92596" lon="4.73625">
        <ele>173</ele>
        <time>2016-12-10T12:50:19Z</time>
      </trkpt>
      <trkpt lat="45.92601" lon="4.73625">
        <ele>173</ele>
        <time>2016-12-10T12:50:20Z</time>
      </trkpt>
      <trkpt lat="45.92606" lon="4.73626">
        <ele>173</ele>
        <time>2016-12-10T12:50:21Z</time>
      </trkpt>
      <trkpt lat="45.92611" lon="4.73628">
        <ele>173</ele>
        <time>2016-12-10T12:50:22Z</time>
      </trkpt>
      <trkpt lat="45.92616" lon="4.73632">
        <ele>173</ele>
        <time>2016-12-10T12:50:23Z</time>
      </trkpt>
      <trkpt lat="45.9262" lon="4.73636">
        <ele>173</ele>
        <time>2016-12-10T12:50:24Z</time>
      </trkpt>
      <trkpt lat="45.92623" lon="4.73642">
        <ele>173</ele>
        <time>2016-12-10T12:50:25Z</time>
      </trkpt>
      <trkpt lat="45.92626" lon="4.73647">
        <ele>173</ele>
        <time>2016-12-10T12:50:26Z</time>
      </trkpt>
      <trkpt lat="45.9263" lon="4.73654">
        <ele>173</ele>
        <time>2016-12-10T12:50:27Z</time>
      </trkpt>
      <trkpt lat="45.92632" lon="4.7366">
        <ele>173</ele>
        <time>2016-12-10T12:50:28Z</time>
      </trkpt>
      <trkpt lat="45.92635" lon="4.73666">
        <ele>173</ele>
        <time>2016-12-10T12:50:29Z</time>
      </trkpt>
      <trkpt lat="45.92638" lon="4.73671">
        <ele>173</ele>
        <time>2016-12-10T12:50:30Z</time>
      </trkpt>
      <trkpt lat="45.92641" lon="4.73677">
        <ele>173</ele>
        <time>2016-12-10T12:50:31Z</time>
      </trkpt>
      <trkpt lat="45.92645" lon="4.73682">
        <ele>173</ele>
        <time>2016-12-10T12:50:32Z</time>
      </trkpt>
      <trkpt lat="45.92649" lon="4.73688">
        <ele>173</ele>
        <time>2016-12-10T12:50:33Z</time>
      </trkpt>
      <trkpt lat="45.92653" lon="4.73692">
        <ele>173</ele>
        <time>2016-12-10T12:50:34Z</time>
      </trkpt>
      <trkpt lat="45.92658" lon="4.73696">
        <ele>173</ele>
        <time>2016-12-10T12:50:35Z</time>
      </trkpt>
      <trkpt lat="45.92663" lon="4.737">
        <ele>173</ele>
        <time>2016-12-10T12:50:36Z</time>
      </trkpt>
      <trkpt lat="45.92668" lon="4.73702">
        <ele>174</ele>
        <time>2016-12-10T12:50:37Z</time>
      </trkpt>
      <trkpt lat="45.92673" lon="4.73704">
        <ele>174</ele>
        <time>2016-12-10T12:50:38Z</time>
      </trkpt>
      <trkpt lat="45.92678" lon="4.73706">
        <ele>173</ele>
        <time>2016-12-10T12:50:39Z</time>
      </trkpt>
      <trkpt lat="45.92684" lon="4.73708">
        <ele>173</ele>
        <time>2016-12-10T12:50:40Z</time>
      </trkpt>
      <trkpt lat="45.92689" lon="4.73709">
        <ele>173</ele>
        <time>2016-12-10T12:50:41Z</time>
      </trkpt>
      <trkpt lat="45.92695" lon="4.73711">
        <ele>173</ele>
        <time>2016-12-10T12:50:42Z</time>
      </trkpt>
      <trkpt lat="45.92701" lon="4.73712">
        <ele>173</ele>
        <time>2016-12-10T12:50:43Z</time>
      </trkpt>
      <trkpt lat="45.92707" lon="4.73714">
        <ele>173</ele>
        <time>2016-12-10T12:50:44Z</time>
      </trkpt>
      <trkpt lat="45.92712" lon="4.73715">
        <ele>173</ele>
        <time>2016-12-10T12:50:45Z</time>
      </trkpt>
      <trkpt lat="45.92718" lon="4.73716">
        <ele>173</ele>
        <time>2016-12-10T12:50:46Z</time>
      </trkpt>
      <trkpt lat="45.92723" lon="4.73718">
        <ele>173</ele>
        <time>2016-12-10T12:50:47Z</time>
      </trkpt>
      <trkpt lat="45.92728" lon="4.73719">
        <ele>173</ele>
        <time>2016-12-10T12:50:48Z</time>
      </trkpt>
      <trkpt lat="45.92733" lon="4.7372">
        <ele>173</ele>
        <time>2016-12-10T12:50:49Z</time>
      </trkpt>
      <trkpt lat="45.92739" lon="4.73722">
        <ele>173</ele>
        <time>2016-12-10T12:50:50Z</time>
      </trkpt>
      <trkpt lat="45.92744" lon="4.73723">
        <ele>173</ele>
        <time>2016-12-10T12:50:51Z</time>
      </trkpt>
      <trkpt lat="45.92748" lon="4.73724">
        <ele>173</ele>
        <time>2016-12-10T12:50:52Z</time>
      </trkpt>
      <trkpt lat="45.92753" lon="4.73725">
        <ele>172</ele>
        <time>2016-12-10T12:50:53Z</time>
      </trkpt>
      <trkpt lat="45.92758" lon="4.73727">
        <ele>172</ele>
        <time>2016-12-10T12:50:54Z</time>
      </trkpt>
      <trkpt lat="45.92763" lon="4.73728">
        <ele>172</ele>
        <time>2016-12-10T12:50:55Z</time>
      </trkpt>
      <trkpt lat="45.92767" lon="4.7373">
        <ele>172</ele>
        <time>2016-12-10T12:50:56Z</time>
      </trkpt>
      <trkpt lat="45.92775" lon="4.73732">
        <ele>172</ele>
        <time>2016-12-10T12:50:58Z</time>
      </trkpt>
      <trkpt lat="45.92779" lon="4.73732">
        <ele>172</ele>
        <time>2016-12-10T12:50:59Z</time>
      </trkpt>
      <trkpt lat="45.92784" lon="4.73727">
        <ele>172</ele>
        <time>2016-12-10T12:51:01Z</time>
      </trkpt>
      <trkpt lat="45.92785" lon="4.73723">
        <ele>172</ele>
        <time>2016-12-10T12:51:02Z</time>
      </trkpt>
      <trkpt lat="45.92787" lon="4.73712">
        <ele>172</ele>
        <time>2016-12-10T12:51:04Z</time>
      </trkpt>
      <trkpt lat="45.92788" lon="4.73707">
        <ele>172</ele>
        <time>2016-12-10T12:51:05Z</time>
      </trkpt>
      <trkpt lat="45.9279" lon="4.73694">
        <ele>172</ele>
        <time>2016-12-10T12:51:07Z</time>
      </trkpt>
      <trkpt lat="45.92792" lon="4.73688">
        <ele>172</ele>
        <time>2016-12-10T12:51:08Z</time>
      </trkpt>
      <trkpt lat="45.92796" lon="4.73679">
        <ele>172</ele>
        <time>2016-12-10T12:51:10Z</time>
      </trkpt>
      <trkpt lat="45.92798" lon="4.73674">
        <ele>172</ele>
        <time>2016-12-10T12:51:11Z</time>
      </trkpt>
      <trkpt lat="45.928" lon="4.73662">
        <ele>172</ele>
        <time>2016-12-10T12:51:13Z</time>
      </trkpt>
      <trkpt lat="45.92801" lon="4.73656">
        <ele>172</ele>
        <time>2016-12-10T12:51:14Z</time>
      </trkpt>
      <trkpt lat="45.92804" lon="4.73646">
        <ele>172</ele>
        <time>2016-12-10T12:51:16Z</time>
      </trkpt>
      <trkpt lat="45.92806" lon="4.73642">
        <ele>172</ele>
        <time>2016-12-10T12:51:17Z</time>
      </trkpt>
      <trkpt lat="45.92811" lon="4.73633">
        <ele>172</ele>
        <time>2016-12-10T12:51:33Z</time>
      </trkpt>
      <trkpt lat="45.92812" lon="4.73633">
        <ele>172</ele>
        <time>2016-12-10T12:51:34Z</time>
      </trkpt>
      <trkpt lat="45.92816" lon="4.73625">
        <ele>172</ele>
        <time>2016-12-10T12:51:38Z</time>
      </trkpt>
      <trkpt lat="45.92816" lon="4.73621">
        <ele>172</ele>
        <time>2016-12-10T12:51:39Z</time>
      </trkpt>
      <trkpt lat="45.92816" lon="4.7361">
        <ele>172</ele>
        <time>2016-12-10T12:51:41Z</time>
      </trkpt>
      <trkpt lat="45.92815" lon="4.73604">
        <ele>172</ele>
        <time>2016-12-10T12:51:42Z</time>
      </trkpt>
      <trkpt lat="45.92814" lon="4.73597">
        <ele>171</ele>
        <time>2016-12-10T12:51:43Z</time>
      </trkpt>
      <trkpt lat="45.92814" lon="4.73591">
        <ele>171</ele>
        <time>2016-12-10T12:51:44Z</time>
      </trkpt>
      <trkpt lat="45.92815" lon="4.73584">
        <ele>171</ele>
        <time>2016-12-10T12:51:45Z</time>
      </trkpt>
      <trkpt lat="45.92815" lon="4.73576">
        <ele>171</ele>
        <time>2016-12-10T12:51:46Z</time>
      </trkpt>
      <trkpt lat="45.92816" lon="4.73569">
        <ele>171</ele>
        <time>2016-12-10T12:51:47Z</time>
      </trkpt>
      <trkpt lat="45.92816" lon="4.73561">
        <ele>171</ele>
        <time>2016-12-10T12:51:48Z</time>
      </trkpt>
      <trkpt lat="45.92817" lon="4.73553">
        <ele>171</ele>
        <time>2016-12-10T12:51:49Z</time>
      </trkpt>
      <trkpt lat="45.92817" lon="4.73545">
        <ele>171</ele>
        <time>2016-12-10T12:51:50Z</time>
      </trkpt>
      <trkpt lat="45.92818" lon="4.73537">
        <ele>172</ele>
        <time>2016-12-10T12:51:51Z</time>
      </trkpt>
      <trkpt lat="45.92819" lon="4.73529">
        <ele>172</ele>
        <time>2016-12-10T12:51:52Z</time>
      </trkpt>
      <trkpt lat="45.9282" lon="4.73521">
        <ele>172</ele>
        <time>2016-12-10T12:51:53Z</time>
      </trkpt>
      <trkpt lat="45.92821" lon="4.73513">
        <ele>172</ele>
        <time>2016-12-10T12:51:54Z</time>
      </trkpt>
      <trkpt lat="45.92822" lon="4.73506">
        <ele>172</ele>
        <time>2016-12-10T12:51:55Z</time>
      </trkpt>
      <trkpt lat="45.92823" lon="4.73498">
        <ele>172</ele>
        <time>2016-12-10T12:51:56Z</time>
      </trkpt>
      <trkpt lat="45.92824" lon="4.73489">
        <ele>172</ele>
        <time>2016-12-10T12:51:57Z</time>
      </trkpt>
      <trkpt lat="45.92825" lon="4.73481">
        <ele>172</ele>
        <time>2016-12-10T12:51:58Z</time>
      </trkpt>
      <trkpt lat="45.92826" lon="4.73472">
        <ele>172</ele>
        <time>2016-12-10T12:51:59Z</time>
      </trkpt>
      <trkpt lat="45.92827" lon="4.73464">
        <ele>172</ele>
        <time>2016-12-10T12:52:00Z</time>
      </trkpt>
      <trkpt lat="45.92829" lon="4.73456">
        <ele>172</ele>
        <time>2016-12-10T12:52:01Z</time>
      </trkpt>
      <trkpt lat="45.9283" lon="4.73447">
        <ele>172</ele>
        <time>2016-12-10T12:52:02Z</time>
      </trkpt>
      <trkpt lat="45.92831" lon="4.73439">
        <ele>172</ele>
        <time>2016-12-10T12:52:03Z</time>
      </trkpt>
      <trkpt lat="45.92832" lon="4.73431">
        <ele>172</ele>
        <time>2016-12-10T12:52:04Z</time>
      </trkpt>
      <trkpt lat="45.92834" lon="4.73422">
        <ele>172</ele>
        <time>2016-12-10T12:52:05Z</time>
      </trkpt>
      <trkpt lat="45.92835" lon="4.73414">
        <ele>172</ele>
        <time>2016-12-10T12:52:06Z</time>
      </trkpt>
      <trkpt lat="45.92835" lon="4.73406">
        <ele>172</ele>
        <time>2016-12-10T12:52:07Z</time>
      </trkpt>
      <trkpt lat="45.92837" lon="4.73397">
        <ele>172</ele>
        <time>2016-12-10T12:52:08Z</time>
      </trkpt>
      <trkpt lat="45.92838" lon="4.73388">
        <ele>172</ele>
        <time>2016-12-10T12:52:09Z</time>
      </trkpt>
      <trkpt lat="45.92839" lon="4.7338">
        <ele>172</ele>
        <time>2016-12-10T12:52:10Z</time>
      </trkpt>
      <trkpt lat="45.9284" lon="4.73371">
        <ele>171</ele>
        <time>2016-12-10T12:52:11Z</time>
      </trkpt>
      <trkpt lat="45.92843" lon="4.73364">
        <ele>171</ele>
        <time>2016-12-10T12:52:12Z</time>
      </trkpt>
      <trkpt lat="45.92844" lon="4.73356">
        <ele>171</ele>
        <time>2016-12-10T12:52:13Z</time>
      </trkpt>
      <trkpt lat="45.92845" lon="4.73348">
        <ele>171</ele>
        <time>2016-12-10T12:52:14Z</time>
      </trkpt>
      <trkpt lat="45.92845" lon="4.73339">
        <ele>171</ele>
        <time>2016-12-10T12:52:15Z</time>
      </trkpt>
      <trkpt lat="45.92846" lon="4.7333">
        <ele>171</ele>
        <time>2016-12-10T12:52:16Z</time>
      </trkpt>
      <trkpt lat="45.92847" lon="4.7332">
        <ele>171</ele>
        <time>2016-12-10T12:52:17Z</time>
      </trkpt>
      <trkpt lat="45.92848" lon="4.73311">
        <ele>171</ele>
        <time>2016-12-10T12:52:18Z</time>
      </trkpt>
      <trkpt lat="45.92849" lon="4.73302">
        <ele>171</ele>
        <time>2016-12-10T12:52:19Z</time>
      </trkpt>
      <trkpt lat="45.9285" lon="4.73293">
        <ele>171</ele>
        <time>2016-12-10T12:52:20Z</time>
      </trkpt>
      <trkpt lat="45.92851" lon="4.73284">
        <ele>171</ele>
        <time>2016-12-10T12:52:21Z</time>
      </trkpt>
      <trkpt lat="45.92853" lon="4.73275">
        <ele>171</ele>
        <time>2016-12-10T12:52:22Z</time>
      </trkpt>
      <trkpt lat="45.92854" lon="4.73266">
        <ele>171</ele>
        <time>2016-12-10T12:52:23Z</time>
      </trkpt>
      <trkpt lat="45.92856" lon="4.73257">
        <ele>171</ele>
        <time>2016-12-10T12:52:24Z</time>
      </trkpt>
      <trkpt lat="45.92857" lon="4.73248">
        <ele>171</ele>
        <time>2016-12-10T12:52:25Z</time>
      </trkpt>
      <trkpt lat="45.92858" lon="4.73239">
        <ele>171</ele>
        <time>2016-12-10T12:52:26Z</time>
      </trkpt>
      <trkpt lat="45.92859" lon="4.73231">
        <ele>171</ele>
        <time>2016-12-10T12:52:27Z</time>
      </trkpt>
      <trkpt lat="45.9286" lon="4.73222">
        <ele>171</ele>
        <time>2016-12-10T12:52:28Z</time>
      </trkpt>
      <trkpt lat="45.92861" lon="4.73213">
        <ele>171</ele>
        <time>2016-12-10T12:52:29Z</time>
      </trkpt>
      <trkpt lat="45.92863" lon="4.73204">
        <ele>171</ele>
        <time>2016-12-10T12:52:30Z</time>
      </trkpt>
      <trkpt lat="45.92864" lon="4.73195">
        <ele>171</ele>
        <time>2016-12-10T12:52:31Z</time>
      </trkpt>
      <trkpt lat="45.92865" lon="4.73186">
        <ele>171</ele>
        <time>2016-12-10T12:52:32Z</time>
      </trkpt>
      <trkpt lat="45.92867" lon="4.73177">
        <ele>171</ele>
        <time>2016-12-10T12:52:33Z</time>
      </trkpt>
      <trkpt lat="45.92868" lon="4.73168">
        <ele>171</ele>
        <time>2016-12-10T12:52:34Z</time>
      </trkpt>
      <trkpt lat="45.92869" lon="4.73159">
        <ele>171</ele>
        <time>2016-12-10T12:52:35Z</time>
      </trkpt>
      <trkpt lat="45.9287" lon="4.7315">
        <ele>171</ele>
        <time>2016-12-10T12:52:36Z</time>
      </trkpt>
      <trkpt lat="45.92871" lon="4.73141">
        <ele>171</ele>
        <time>2016-12-10T12:52:37Z</time>
      </trkpt>
      <trkpt lat="45.92873" lon="4.73132">
        <ele>171</ele>
        <time>2016-12-10T12:52:38Z</time>
      </trkpt>
      <trkpt lat="45.92875" lon="4.73123">
        <ele>172</ele>
        <time>2016-12-10T12:52:39Z</time>
      </trkpt>
      <trkpt lat="45.92876" lon="4.73115">
        <ele>172</ele>
        <time>2016-12-10T12:52:40Z</time>
      </trkpt>
      <trkpt lat="45.92878" lon="4.73106">
        <ele>172</ele>
        <time>2016-12-10T12:52:41Z</time>
      </trkpt>
      <trkpt lat="45.92881" lon="4.73098">
        <ele>172</ele>
        <time>2016-12-10T12:52:42Z</time>
      </trkpt>
      <trkpt lat="45.92884" lon="4.7309">
        <ele>172</ele>
        <time>2016-12-10T12:52:43Z</time>
      </trkpt>
      <trkpt lat="45.92886" lon="4.73082">
        <ele>172</ele>
        <time>2016-12-10T12:52:44Z</time>
      </trkpt>
      <trkpt lat="45.92889" lon="4.73074">
        <ele>172</ele>
        <time>2016-12-10T12:52:45Z</time>
      </trkpt>
      <trkpt lat="45.92893" lon="4.73067">
        <ele>172</ele>
        <time>2016-12-10T12:52:46Z</time>
      </trkpt>
      <trkpt lat="45.92897" lon="4.7306">
        <ele>172</ele>
        <time>2016-12-10T12:52:47Z</time>
      </trkpt>
      <trkpt lat="45.92901" lon="4.73054">
        <ele>172</ele>
        <time>2016-12-10T12:52:48Z</time>
      </trkpt>
      <trkpt lat="45.92905" lon="4.73047">
        <ele>172</ele>
        <time>2016-12-10T12:52:49Z</time>
      </trkpt>
      <trkpt lat="45.9291" lon="4.73041">
        <ele>172</ele>
        <time>2016-12-10T12:52:50Z</time>
      </trkpt>
      <trkpt lat="45.92914" lon="4.73034">
        <ele>172</ele>
        <time>2016-12-10T12:52:51Z</time>
      </trkpt>
      <trkpt lat="45.92918" lon="4.73028">
        <ele>172</ele>
        <time>2016-12-10T12:52:52Z</time>
      </trkpt>
      <trkpt lat="45.92923" lon="4.73022">
        <ele>171</ele>
        <time>2016-12-10T12:52:53Z</time>
      </trkpt>
      <trkpt lat="45.92928" lon="4.73016">
        <ele>171</ele>
        <time>2016-12-10T12:52:54Z</time>
      </trkpt>
      <trkpt lat="45.92932" lon="4.7301">
        <ele>171</ele>
        <time>2016-12-10T12:52:55Z</time>
      </trkpt>
      <trkpt lat="45.92937" lon="4.73004">
        <ele>171</ele>
        <time>2016-12-10T12:52:56Z</time>
      </trkpt>
      <trkpt lat="45.92942" lon="4.72998">
        <ele>171</ele>
        <time>2016-12-10T12:52:57Z</time>
      </trkpt>
      <trkpt lat="45.92946" lon="4.72993">
        <ele>171</ele>
        <time>2016-12-10T12:52:58Z</time>
      </trkpt>
      <trkpt lat="45.92951" lon="4.72987">
        <ele>171</ele>
        <time>2016-12-10T12:52:59Z</time>
      </trkpt>
      <trkpt lat="45.92956" lon="4.72982">
        <ele>171</ele>
        <time>2016-12-10T12:53:00Z</time>
      </trkpt>
      <trkpt lat="45.92961" lon="4.72976">
        <ele>171</ele>
        <time>2016-12-10T12:53:01Z</time>
      </trkpt>
      <trkpt lat="45.92965" lon="4.7297">
        <ele>171</ele>
        <time>2016-12-10T12:53:02Z</time>
      </trkpt>
      <trkpt lat="45.9297" lon="4.72964">
        <ele>171</ele>
        <time>2016-12-10T12:53:03Z</time>
      </trkpt>
      <trkpt lat="45.92974" lon="4.72959">
        <ele>171</ele>
        <time>2016-12-10T12:53:04Z</time>
      </trkpt>
      <trkpt lat="45.92979" lon="4.72953">
        <ele>171</ele>
        <time>2016-12-10T12:53:05Z</time>
      </trkpt>
      <trkpt lat="45.92984" lon="4.72948">
        <ele>171</ele>
        <time>2016-12-10T12:53:06Z</time>
      </trkpt>
      <trkpt lat="45.92989" lon="4.72942">
        <ele>171</ele>
        <time>2016-12-10T12:53:07Z</time>
      </trkpt>
      <trkpt lat="45.92993" lon="4.72937">
        <ele>171</ele>
        <time>2016-12-10T12:53:08Z</time>
      </trkpt>
      <trkpt lat="45.92998" lon="4.72931">
        <ele>171</ele>
        <time>2016-12-10T12:53:09Z</time>
      </trkpt>
      <trkpt lat="45.93002" lon="4.72926">
        <ele>170</ele>
        <time>2016-12-10T12:53:10Z</time>
      </trkpt>
      <trkpt lat="45.93007" lon="4.7292">
        <ele>170</ele>
        <time>2016-12-10T12:53:11Z</time>
      </trkpt>
      <trkpt lat="45.93012" lon="4.72915">
        <ele>171</ele>
        <time>2016-12-10T12:53:12Z</time>
      </trkpt>
      <trkpt lat="45.93016" lon="4.7291">
        <ele>171</ele>
        <time>2016-12-10T12:53:13Z</time>
      </trkpt>
      <trkpt lat="45.9302" lon="4.72904">
        <ele>172</ele>
        <time>2016-12-10T12:53:14Z</time>
      </trkpt>
      <trkpt lat="45.93025" lon="4.72898">
        <ele>172</ele>
        <time>2016-12-10T12:53:15Z</time>
      </trkpt>
      <trkpt lat="45.93029" lon="4.72893">
        <ele>172</ele>
        <time>2016-12-10T12:53:16Z</time>
      </trkpt>
      <trkpt lat="45.93034" lon="4.72887">
        <ele>172</ele>
        <time>2016-12-10T12:53:17Z</time>
      </trkpt>
      <trkpt lat="45.93039" lon="4.72881">
        <ele>172</ele>
        <time>2016-12-10T12:53:18Z</time>
      </trkpt>
      <trkpt lat="45.93044" lon="4.72875">
        <ele>172</ele>
        <time>2016-12-10T12:53:19Z</time>
      </trkpt>
      <trkpt lat="45.93049" lon="4.7287">
        <ele>172</ele>
        <time>2016-12-10T12:53:20Z</time>
      </trkpt>
      <trkpt lat="45.93054" lon="4.72864">
        <ele>172</ele>
        <time>2016-12-10T12:53:21Z</time>
      </trkpt>
      <trkpt lat="45.93059" lon="4.72859">
        <ele>172</ele>
        <time>2016-12-10T12:53:22Z</time>
      </trkpt>
      <trkpt lat="45.93063" lon="4.72853">
        <ele>172</ele>
        <time>2016-12-10T12:53:23Z</time>
      </trkpt>
      <trkpt lat="45.93068" lon="4.72848">
        <ele>172</ele>
        <time>2016-12-10T12:53:24Z</time>
      </trkpt>
      <trkpt lat="45.93073" lon="4.72844">
        <ele>173</ele>
        <time>2016-12-10T12:53:25Z</time>
      </trkpt>
      <trkpt lat="45.93078" lon="4.72839">
        <ele>173</ele>
        <time>2016-12-10T12:53:26Z</time>
      </trkpt>
      <trkpt lat="45.93083" lon="4.72834">
        <ele>173</ele>
        <time>2016-12-10T12:53:27Z</time>
      </trkpt>
      <trkpt lat="45.93088" lon="4.7283">
        <ele>173</ele>
        <time>2016-12-10T12:53:28Z</time>
      </trkpt>
      <trkpt lat="45.93095" lon="4.72822">
        <ele>172</ele>
        <time>2016-12-10T12:53:29Z</time>
      </trkpt>
      <trkpt lat="45.93102" lon="4.72814">
        <ele>172</ele>
        <time>2016-12-10T12:53:30Z</time>
      </trkpt>
      <trkpt lat="45.93107" lon="4.72808">
        <ele>171</ele>
        <time>2016-12-10T12:53:31Z</time>
      </trkpt>
      <trkpt lat="45.93112" lon="4.72802">
        <ele>171</ele>
        <time>2016-12-10T12:53:32Z</time>
      </trkpt>
      <trkpt lat="45.93117" lon="4.72796">
        <ele>171</ele>
        <time>2016-12-10T12:53:33Z</time>
      </trkpt>
      <trkpt lat="45.93121" lon="4.7279">
        <ele>171</ele>
        <time>2016-12-10T12:53:34Z</time>
      </trkpt>
      <trkpt lat="45.93127" lon="4.72784">
        <ele>171</ele>
        <time>2016-12-10T12:53:35Z</time>
      </trkpt>
      <trkpt lat="45.93132" lon="4.72778">
        <ele>171</ele>
        <time>2016-12-10T12:53:36Z</time>
      </trkpt>
      <trkpt lat="45.93137" lon="4.72772">
        <ele>171</ele>
        <time>2016-12-10T12:53:37Z</time>
      </trkpt>
      <trkpt lat="45.93142" lon="4.72766">
        <ele>171</ele>
        <time>2016-12-10T12:53:38Z</time>
      </trkpt>
      <trkpt lat="45.93146" lon="4.7276">
        <ele>171</ele>
        <time>2016-12-10T12:53:39Z</time>
      </trkpt>
      <trkpt lat="45.93151" lon="4.72755">
        <ele>170</ele>
        <time>2016-12-10T12:53:40Z</time>
      </trkpt>
      <trkpt lat="45.93156" lon="4.72749">
        <ele>170</ele>
        <time>2016-12-10T12:53:41Z</time>
      </trkpt>
      <trkpt lat="45.9316" lon="4.72743">
        <ele>170</ele>
        <time>2016-12-10T12:53:42Z</time>
      </trkpt>
      <trkpt lat="45.93165" lon="4.72737">
        <ele>170</ele>
        <time>2016-12-10T12:53:43Z</time>
      </trkpt>
      <trkpt lat="45.9317" lon="4.72731">
        <ele>170</ele>
        <time>2016-12-10T12:53:44Z</time>
      </trkpt>
      <trkpt lat="45.93174" lon="4.72725">
        <ele>170</ele>
        <time>2016-12-10T12:53:45Z</time>
      </trkpt>
      <trkpt lat="45.93179" lon="4.7272">
        <ele>169</ele>
        <time>2016-12-10T12:53:46Z</time>
      </trkpt>
      <trkpt lat="45.93183" lon="4.72714">
        <ele>169</ele>
        <time>2016-12-10T12:53:47Z</time>
      </trkpt>
      <trkpt lat="45.93188" lon="4.72709">
        <ele>169</ele>
        <time>2016-12-10T12:53:48Z</time>
      </trkpt>
      <trkpt lat="45.93192" lon="4.72703">
        <ele>169</ele>
        <time>2016-12-10T12:53:49Z</time>
      </trkpt>
      <trkpt lat="45.93197" lon="4.72698">
        <ele>169</ele>
        <time>2016-12-10T12:53:50Z</time>
      </trkpt>
      <trkpt lat="45.93202" lon="4.72692">
        <ele>169</ele>
        <time>2016-12-10T12:53:51Z</time>
      </trkpt>
      <trkpt lat="45.93207" lon="4.72687">
        <ele>169</ele>
        <time>2016-12-10T12:53:52Z</time>
      </trkpt>
      <trkpt lat="45.93211" lon="4.72681">
        <ele>169</ele>
        <time>2016-12-10T12:53:53Z</time>
      </trkpt>
      <trkpt lat="45.93216" lon="4.72675">
        <ele>169</ele>
        <time>2016-12-10T12:53:54Z</time>
      </trkpt>
      <trkpt lat="45.9322" lon="4.7267">
        <ele>169</ele>
        <time>2016-12-10T12:53:55Z</time>
      </trkpt>
      <trkpt lat="45.93225" lon="4.72664">
        <ele>170</ele>
        <time>2016-12-10T12:53:56Z</time>
      </trkpt>
      <trkpt lat="45.9323" lon="4.72658">
        <ele>169</ele>
        <time>2016-12-10T12:53:57Z</time>
      </trkpt>
      <trkpt lat="45.93234" lon="4.72653">
        <ele>169</ele>
        <time>2016-12-10T12:53:58Z</time>
      </trkpt>
      <trkpt lat="45.93239" lon="4.72647">
        <ele>170</ele>
        <time>2016-12-10T12:53:59Z</time>
      </trkpt>
      <trkpt lat="45.93244" lon="4.72641">
        <ele>170</ele>
        <time>2016-12-10T12:54:00Z</time>
      </trkpt>
      <trkpt lat="45.93248" lon="4.72636">
        <ele>170</ele>
        <time>2016-12-10T12:54:01Z</time>
      </trkpt>
      <trkpt lat="45.93253" lon="4.7263">
        <ele>170</ele>
        <time>2016-12-10T12:54:02Z</time>
      </trkpt>
      <trkpt lat="45.93258" lon="4.72624">
        <ele>170</ele>
        <time>2016-12-10T12:54:03Z</time>
      </trkpt>
      <trkpt lat="45.93262" lon="4.72619">
        <ele>170</ele>
        <time>2016-12-10T12:54:04Z</time>
      </trkpt>
      <trkpt lat="45.93267" lon="4.72613">
        <ele>170</ele>
        <time>2016-12-10T12:54:05Z</time>
      </trkpt>
      <trkpt lat="45.93272" lon="4.72608">
        <ele>170</ele>
        <time>2016-12-10T12:54:06Z</time>
      </trkpt>
      <trkpt lat="45.93277" lon="4.72603">
        <ele>170</ele>
        <time>2016-12-10T12:54:07Z</time>
      </trkpt>
      <trkpt lat="45.93281" lon="4.72598">
        <ele>170</ele>
        <time>2016-12-10T12:54:08Z</time>
      </trkpt>
      <trkpt lat="45.93286" lon="4.72592">
        <ele>170</ele>
        <time>2016-12-10T12:54:09Z</time>
      </trkpt>
      <trkpt lat="45.9329" lon="4.72587">
        <ele>170</ele>
        <time>2016-12-10T12:54:10Z</time>
      </trkpt>
      <trkpt lat="45.93295" lon="4.72581">
        <ele>171</ele>
        <time>2016-12-10T12:54:11Z</time>
      </trkpt>
      <trkpt lat="45.93299" lon="4.72576">
        <ele>171</ele>
        <time>2016-12-10T12:54:12Z</time>
      </trkpt>
      <trkpt lat="45.93303" lon="4.72571">
        <ele>171</ele>
        <time>2016-12-10T12:54:13Z</time>
      </trkpt>
      <trkpt lat="45.93308" lon="4.72565">
        <ele>171</ele>
        <time>2016-12-10T12:54:14Z</time>
      </trkpt>
      <trkpt lat="45.93313" lon="4.7256">
        <ele>171</ele>
        <time>2016-12-10T12:54:15Z</time>
      </trkpt>
      <trkpt lat="45.93318" lon="4.72554">
        <ele>172</ele>
        <time>2016-12-10T12:54:16Z</time>
      </trkpt>
      <trkpt lat="45.93323" lon="4.72549">
        <ele>172</ele>
        <time>2016-12-10T12:54:17Z</time>
      </trkpt>
      <trkpt lat="45.93327" lon="4.72543">
        <ele>172</ele>
        <time>2016-12-10T12:54:18Z</time>
      </trkpt>
      <trkpt lat="45.93332" lon="4.72538">
        <ele>172</ele>
        <time>2016-12-10T12:54:19Z</time>
      </trkpt>
      <trkpt lat="45.93337" lon="4.72532">
        <ele>172</ele>
        <time>2016-12-10T12:54:20Z</time>
      </trkpt>
      <trkpt lat="45.93342" lon="4.72527">
        <ele>172</ele>
        <time>2016-12-10T12:54:21Z</time>
      </trkpt>
      <trkpt lat="45.93347" lon="4.72521">
        <ele>172</ele>
        <time>2016-12-10T12:54:22Z</time>
      </trkpt>
      <trkpt lat="45.93352" lon="4.72516">
        <ele>172</ele>
        <time>2016-12-10T12:54:23Z</time>
      </trkpt>
      <trkpt lat="45.93356" lon="4.7251">
        <ele>172</ele>
        <time>2016-12-10T12:54:24Z</time>
      </trkpt>
      <trkpt lat="45.93361" lon="4.72505">
        <ele>172</ele>
        <time>2016-12-10T12:54:25Z</time>
      </trkpt>
      <trkpt lat="45.93365" lon="4.725">
        <ele>173</ele>
        <time>2016-12-10T12:54:26Z</time>
      </trkpt>
      <trkpt lat="45.93369" lon="4.72495">
        <ele>173</ele>
        <time>2016-12-10T12:54:27Z</time>
      </trkpt>
      <trkpt lat="45.93374" lon="4.72489">
        <ele>173</ele>
        <time>2016-12-10T12:54:28Z</time>
      </trkpt>
      <trkpt lat="45.93378" lon="4.72484">
        <ele>173</ele>
        <time>2016-12-10T12:54:29Z</time>
      </trkpt>
      <trkpt lat="45.93383" lon="4.72479">
        <ele>173</ele>
        <time>2016-12-10T12:54:30Z</time>
      </trkpt>
      <trkpt lat="45.93387" lon="4.72474">
        <ele>173</ele>
        <time>2016-12-10T12:54:31Z</time>
      </trkpt>
      <trkpt lat="45.9339" lon="4.7247">
        <ele>173</ele>
        <time>2016-12-10T12:54:32Z</time>
      </trkpt>
      <trkpt lat="45.93393" lon="4.72462">
        <ele>173</ele>
        <time>2016-12-10T12:54:34Z</time>
      </trkpt>
      <trkpt lat="45.93394" lon="4.72458">
        <ele>173</ele>
        <time>2016-12-10T12:54:35Z</time>
      </trkpt>
      <trkpt lat="45.93397" lon="4.72447">
        <ele>173</ele>
        <time>2016-12-10T12:54:39Z</time>
      </trkpt>
      <trkpt lat="45.93398" lon="4.72443">
        <ele>173</ele>
        <time>2016-12-10T12:54:40Z</time>
      </trkpt>
      <trkpt lat="45.93401" lon="4.72436">
        <ele>173</ele>
        <time>2016-12-10T12:54:42Z</time>
      </trkpt>
      <trkpt lat="45.93404" lon="4.72432">
        <ele>173</ele>
        <time>2016-12-10T12:54:43Z</time>
      </trkpt>
      <trkpt lat="45.9341" lon="4.72423">
        <ele>174</ele>
        <time>2016-12-10T12:54:45Z</time>
      </trkpt>
      <trkpt lat="45.93414" lon="4.7242">
        <ele>174</ele>
        <time>2016-12-10T12:54:46Z</time>
      </trkpt>
      <trkpt lat="45.93419" lon="4.72417">
        <ele>174</ele>
        <time>2016-12-10T12:54:47Z</time>
      </trkpt>
      <trkpt lat="45.93424" lon="4.72414">
        <ele>174</ele>
        <time>2016-12-10T12:54:48Z</time>
      </trkpt>
      <trkpt lat="45.93428" lon="4.72411">
        <ele>174</ele>
        <time>2016-12-10T12:54:49Z</time>
      </trkpt>
      <trkpt lat="45.93434" lon="4.72408">
        <ele>174</ele>
        <time>2016-12-10T12:54:50Z</time>
      </trkpt>
      <trkpt lat="45.93439" lon="4.72405">
        <ele>174</ele>
        <time>2016-12-10T12:54:51Z</time>
      </trkpt>
      <trkpt lat="45.93444" lon="4.72402">
        <ele>173</ele>
        <time>2016-12-10T12:54:52Z</time>
      </trkpt>
      <trkpt lat="45.93449" lon="4.72398">
        <ele>173</ele>
        <time>2016-12-10T12:54:53Z</time>
      </trkpt>
      <trkpt lat="45.93454" lon="4.72394">
        <ele>173</ele>
        <time>2016-12-10T12:54:54Z</time>
      </trkpt>
      <trkpt lat="45.93459" lon="4.72389">
        <ele>173</ele>
        <time>2016-12-10T12:54:55Z</time>
      </trkpt>
      <trkpt lat="45.93463" lon="4.72384">
        <ele>173</ele>
        <time>2016-12-10T12:54:56Z</time>
      </trkpt>
      <trkpt lat="45.93468" lon="4.72378">
        <ele>173</ele>
        <time>2016-12-10T12:54:57Z</time>
      </trkpt>
      <trkpt lat="45.93472" lon="4.72372">
        <ele>173</ele>
        <time>2016-12-10T12:54:58Z</time>
      </trkpt>
      <trkpt lat="45.93476" lon="4.72366">
        <ele>173</ele>
        <time>2016-12-10T12:54:59Z</time>
      </trkpt>
      <trkpt lat="45.9348" lon="4.7236">
        <ele>173</ele>
        <time>2016-12-10T12:55:00Z</time>
      </trkpt>
      <trkpt lat="45.93485" lon="4.72354">
        <ele>173</ele>
        <time>2016-12-10T12:55:01Z</time>
      </trkpt>
      <trkpt lat="45.93489" lon="4.72349">
        <ele>173</ele>
        <time>2016-12-10T12:55:02Z</time>
      </trkpt>
      <trkpt lat="45.93493" lon="4.72344">
        <ele>173</ele>
        <time>2016-12-10T12:55:03Z</time>
      </trkpt>
      <trkpt lat="45.93497" lon="4.72338">
        <ele>173</ele>
        <time>2016-12-10T12:55:04Z</time>
      </trkpt>
      <trkpt lat="45.93501" lon="4.72332">
        <ele>173</ele>
        <time>2016-12-10T12:55:05Z</time>
      </trkpt>
      <trkpt lat="45.93505" lon="4.72327">
        <ele>173</ele>
        <time>2016-12-10T12:55:06Z</time>
      </trkpt>
      <trkpt lat="45.93509" lon="4.72322">
        <ele>173</ele>
        <time>2016-12-10T12:55:07Z</time>
      </trkpt>
      <trkpt lat="45.93513" lon="4.72316">
        <ele>173</ele>
        <time>2016-12-10T12:55:08Z</time>
      </trkpt>
      <trkpt lat="45.93517" lon="4.72311">
        <ele>173</ele>
        <time>2016-12-10T12:55:09Z</time>
      </trkpt>
      <trkpt lat="45.9352" lon="4.72305">
        <ele>173</ele>
        <time>2016-12-10T12:55:10Z</time>
      </trkpt>
      <trkpt lat="45.93523" lon="4.72298">
        <ele>172</ele>
        <time>2016-12-10T12:55:11Z</time>
      </trkpt>
      <trkpt lat="45.93526" lon="4.72292">
        <ele>172</ele>
        <time>2016-12-10T12:55:12Z</time>
      </trkpt>
      <trkpt lat="45.93529" lon="4.72285">
        <ele>172</ele>
        <time>2016-12-10T12:55:13Z</time>
      </trkpt>
      <trkpt lat="45.93531" lon="4.72279">
        <ele>172</ele>
        <time>2016-12-10T12:55:14Z</time>
      </trkpt>
      <trkpt lat="45.93534" lon="4.72273">
        <ele>172</ele>
        <time>2016-12-10T12:55:15Z</time>
      </trkpt>
      <trkpt lat="45.93537" lon="4.72267">
        <ele>172</ele>
        <time>2016-12-10T12:55:16Z</time>
      </trkpt>
      <trkpt lat="45.93539" lon="4.72261">
        <ele>172</ele>
        <time>2016-12-10T12:55:17Z</time>
      </trkpt>
      <trkpt lat="45.93541" lon="4.72255">
        <ele>172</ele>
        <time>2016-12-10T12:55:18Z</time>
      </trkpt>
      <trkpt lat="45.93544" lon="4.72249">
        <ele>172</ele>
        <time>2016-12-10T12:55:19Z</time>
      </trkpt>
      <trkpt lat="45.93547" lon="4.72242">
        <ele>172</ele>
        <time>2016-12-10T12:55:20Z</time>
      </trkpt>
      <trkpt lat="45.93549" lon="4.72236">
        <ele>172</ele>
        <time>2016-12-10T12:55:21Z</time>
      </trkpt>
      <trkpt lat="45.93553" lon="4.7223">
        <ele>173</ele>
        <time>2016-12-10T12:55:22Z</time>
      </trkpt>
      <trkpt lat="45.93557" lon="4.72227">
        <ele>173</ele>
        <time>2016-12-10T12:55:23Z</time>
      </trkpt>
      <trkpt lat="45.93562" lon="4.72225">
        <ele>173</ele>
        <time>2016-12-10T12:55:24Z</time>
      </trkpt>
      <trkpt lat="45.93567" lon="4.72226">
        <ele>173</ele>
        <time>2016-12-10T12:55:25Z</time>
      </trkpt>
      <trkpt lat="45.93571" lon="4.72229">
        <ele>173</ele>
        <time>2016-12-10T12:55:26Z</time>
      </trkpt>
      <trkpt lat="45.93575" lon="4.72234">
        <ele>173</ele>
        <time>2016-12-10T12:55:27Z</time>
      </trkpt>
      <trkpt lat="45.93579" lon="4.72238">
        <ele>173</ele>
        <time>2016-12-10T12:55:28Z</time>
      </trkpt>
      <trkpt lat="45.93582" lon="4.72242">
        <ele>173</ele>
        <time>2016-12-10T12:55:29Z</time>
      </trkpt>
      <trkpt lat="45.93586" lon="4.72247">
        <ele>173</ele>
        <time>2016-12-10T12:55:30Z</time>
      </trkpt>
      <trkpt lat="45.93589" lon="4.72251">
        <ele>173</ele>
        <time>2016-12-10T12:55:31Z</time>
      </trkpt>
      <trkpt lat="45.93593" lon="4.72255">
        <ele>173</ele>
        <time>2016-12-10T12:55:32Z</time>
      </trkpt>
      <trkpt lat="45.93597" lon="4.72259">
        <ele>173</ele>
        <time>2016-12-10T12:55:33Z</time>
      </trkpt>
      <trkpt lat="45.93601" lon="4.72263">
        <ele>173</ele>
        <time>2016-12-10T12:55:34Z</time>
      </trkpt>
      <trkpt lat="45.93605" lon="4.72268">
        <ele>173</ele>
        <time>2016-12-10T12:55:35Z</time>
      </trkpt>
      <trkpt lat="45.9361" lon="4.72271">
        <ele>172</ele>
        <time>2016-12-10T12:55:36Z</time>
      </trkpt>
      <trkpt lat="45.93614" lon="4.72275">
        <ele>172</ele>
        <time>2016-12-10T12:55:37Z</time>
      </trkpt>
      <trkpt lat="45.93618" lon="4.72279">
        <ele>172</ele>
        <time>2016-12-10T12:55:38Z</time>
      </trkpt>
      <trkpt lat="45.93622" lon="4.72283">
        <ele>172</ele>
        <time>2016-12-10T12:55:39Z</time>
      </trkpt>
      <trkpt lat="45.93626" lon="4.72287">
        <ele>172</ele>
        <time>2016-12-10T12:55:40Z</time>
      </trkpt>
      <trkpt lat="45.9363" lon="4.7229">
        <ele>172</ele>
        <time>2016-12-10T12:55:41Z</time>
      </trkpt>
      <trkpt lat="45.93634" lon="4.72294">
        <ele>172</ele>
        <time>2016-12-10T12:55:42Z</time>
      </trkpt>
      <trkpt lat="45.93637" lon="4.72298">
        <ele>172</ele>
        <time>2016-12-10T12:55:43Z</time>
      </trkpt>
      <trkpt lat="45.93641" lon="4.72302">
        <ele>172</ele>
        <time>2016-12-10T12:55:44Z</time>
      </trkpt>
      <trkpt lat="45.93646" lon="4.72306">
        <ele>172</ele>
        <time>2016-12-10T12:55:45Z</time>
      </trkpt>
      <trkpt lat="45.9365" lon="4.7231">
        <ele>172</ele>
        <time>2016-12-10T12:55:46Z</time>
      </trkpt>
      <trkpt lat="45.93655" lon="4.72314">
        <ele>172</ele>
        <time>2016-12-10T12:55:47Z</time>
      </trkpt>
      <trkpt lat="45.93659" lon="4.72318">
        <ele>172</ele>
        <time>2016-12-10T12:55:48Z</time>
      </trkpt>
      <trkpt lat="45.93664" lon="4.72325">
        <ele>171</ele>
        <time>2016-12-10T12:55:49Z</time>
      </trkpt>
      <trkpt lat="45.93668" lon="4.7233">
        <ele>171</ele>
        <time>2016-12-10T12:55:50Z</time>
      </trkpt>
      <trkpt lat="45.93672" lon="4.72334">
        <ele>171</ele>
        <time>2016-12-10T12:55:51Z</time>
      </trkpt>
      <trkpt lat="45.93677" lon="4.72339">
        <ele>171</ele>
        <time>2016-12-10T12:55:52Z</time>
      </trkpt>
      <trkpt lat="45.93682" lon="4.72342">
        <ele>171</ele>
        <time>2016-12-10T12:55:53Z</time>
      </trkpt>
      <trkpt lat="45.93686" lon="4.72345">
        <ele>171</ele>
        <time>2016-12-10T12:55:54Z</time>
      </trkpt>
      <trkpt lat="45.93693" lon="4.72351">
        <ele>171</ele>
        <time>2016-12-10T12:55:56Z</time>
      </trkpt>
      <trkpt lat="45.93696" lon="4.72354">
        <ele>171</ele>
        <time>2016-12-10T12:55:57Z</time>
      </trkpt>
      <trkpt lat="45.93704" lon="4.72357">
        <ele>171</ele>
        <time>2016-12-10T12:55:59Z</time>
      </trkpt>
      <trkpt lat="45.93708" lon="4.72357">
        <ele>171</ele>
        <time>2016-12-10T12:56:00Z</time>
      </trkpt>
      <trkpt lat="45.93716" lon="4.72351">
        <ele>172</ele>
        <time>2016-12-10T12:56:02Z</time>
      </trkpt>
      <trkpt lat="45.93719" lon="4.72346">
        <ele>172</ele>
        <time>2016-12-10T12:56:03Z</time>
      </trkpt>
      <trkpt lat="45.93723" lon="4.72341">
        <ele>172</ele>
        <time>2016-12-10T12:56:04Z</time>
      </trkpt>
      <trkpt lat="45.93727" lon="4.72335">
        <ele>172</ele>
        <time>2016-12-10T12:56:05Z</time>
      </trkpt>
      <trkpt lat="45.93731" lon="4.72329">
        <ele>172</ele>
        <time>2016-12-10T12:56:06Z</time>
      </trkpt>
      <trkpt lat="45.93735" lon="4.72324">
        <ele>172</ele>
        <time>2016-12-10T12:56:07Z</time>
      </trkpt>
      <trkpt lat="45.93739" lon="4.72317">
        <ele>172</ele>
        <time>2016-12-10T12:56:08Z</time>
      </trkpt>
      <trkpt lat="45.93742" lon="4.72312">
        <ele>172</ele>
        <time>2016-12-10T12:56:09Z</time>
      </trkpt>
      <trkpt lat="45.93746" lon="4.72306">
        <ele>172</ele>
        <time>2016-12-10T12:56:10Z</time>
      </trkpt>
      <trkpt lat="45.93749" lon="4.723">
        <ele>172</ele>
        <time>2016-12-10T12:56:11Z</time>
      </trkpt>
      <trkpt lat="45.93752" lon="4.72295">
        <ele>172</ele>
        <time>2016-12-10T12:56:12Z</time>
      </trkpt>
      <trkpt lat="45.93756" lon="4.72289">
        <ele>172</ele>
        <time>2016-12-10T12:56:13Z</time>
      </trkpt>
      <trkpt lat="45.9376" lon="4.72283">
        <ele>172</ele>
        <time>2016-12-10T12:56:14Z</time>
      </trkpt>
      <trkpt lat="45.93764" lon="4.72277">
        <ele>172</ele>
        <time>2016-12-10T12:56:15Z</time>
      </trkpt>
      <trkpt lat="45.93767" lon="4.72271">
        <ele>172</ele>
        <time>2016-12-10T12:56:16Z</time>
      </trkpt>
      <trkpt lat="45.93772" lon="4.72265">
        <ele>172</ele>
        <time>2016-12-10T12:56:17Z</time>
      </trkpt>
      <trkpt lat="45.93775" lon="4.7226">
        <ele>172</ele>
        <time>2016-12-10T12:56:18Z</time>
      </trkpt>
      <trkpt lat="45.93779" lon="4.72255">
        <ele>172</ele>
        <time>2016-12-10T12:56:19Z</time>
      </trkpt>
      <trkpt lat="45.93782" lon="4.72249">
        <ele>172</ele>
        <time>2016-12-10T12:56:20Z</time>
      </trkpt>
      <trkpt lat="45.93787" lon="4.72246">
        <ele>172</ele>
        <time>2016-12-10T12:56:21Z</time>
      </trkpt>
      <trkpt lat="45.9379" lon="4.7224">
        <ele>172</ele>
        <time>2016-12-10T12:56:22Z</time>
      </trkpt>
      <trkpt lat="45.93793" lon="4.72234">
        <ele>172</ele>
        <time>2016-12-10T12:56:23Z</time>
      </trkpt>
      <trkpt lat="45.93797" lon="4.72228">
        <ele>172</ele>
        <time>2016-12-10T12:56:24Z</time>
      </trkpt>
      <trkpt lat="45.938" lon="4.72222">
        <ele>172</ele>
        <time>2016-12-10T12:56:25Z</time>
      </trkpt>
      <trkpt lat="45.93803" lon="4.72216">
        <ele>172</ele>
        <time>2016-12-10T12:56:26Z</time>
      </trkpt>
      <trkpt lat="45.93808" lon="4.72209">
        <ele>172</ele>
        <time>2016-12-10T12:56:27Z</time>
      </trkpt>
      <trkpt lat="45.93811" lon="4.72203">
        <ele>172</ele>
        <time>2016-12-10T12:56:28Z</time>
      </trkpt>
      <trkpt lat="45.93813" lon="4.72196">
        <ele>172</ele>
        <time>2016-12-10T12:56:29Z</time>
      </trkpt>
      <trkpt lat="45.93815" lon="4.72189">
        <ele>172</ele>
        <time>2016-12-10T12:56:30Z</time>
      </trkpt>
      <trkpt lat="45.93817" lon="4.72184">
        <ele>172</ele>
        <time>2016-12-10T12:56:31Z</time>
      </trkpt>
      <trkpt lat="45.93822" lon="4.72178">
        <ele>172</ele>
        <time>2016-12-10T12:56:33Z</time>
      </trkpt>
      <trkpt lat="45.93825" lon="4.72175">
        <ele>172</ele>
        <time>2016-12-10T12:56:34Z</time>
      </trkpt>
      <trkpt lat="45.93829" lon="4.72167">
        <ele>171</ele>
        <time>2016-12-10T12:56:37Z</time>
      </trkpt>
      <trkpt lat="45.9383" lon="4.72164">
        <ele>171</ele>
        <time>2016-12-10T12:56:38Z</time>
      </trkpt>
      <trkpt lat="45.93835" lon="4.72157">
        <ele>171</ele>
        <time>2016-12-10T12:56:43Z</time>
      </trkpt>
      <trkpt lat="45.93836" lon="4.72154">
        <ele>171</ele>
        <time>2016-12-10T12:56:44Z</time>
      </trkpt>
      <trkpt lat="45.93842" lon="4.72144">
        <ele>172</ele>
        <time>2016-12-10T12:56:47Z</time>
      </trkpt>
      <trkpt lat="45.93844" lon="4.7214">
        <ele>172</ele>
        <time>2016-12-10T12:56:48Z</time>
      </trkpt>
      <trkpt lat="45.93849" lon="4.72131">
        <ele>172</ele>
        <time>2016-12-10T12:56:50Z</time>
      </trkpt>
      <trkpt lat="45.93852" lon="4.72127">
        <ele>172</ele>
        <time>2016-12-10T12:56:51Z</time>
      </trkpt>
      <trkpt lat="45.93857" lon="4.72119">
        <ele>172</ele>
        <time>2016-12-10T12:56:53Z</time>
      </trkpt>
      <trkpt lat="45.9386" lon="4.72115">
        <ele>172</ele>
        <time>2016-12-10T12:56:54Z</time>
      </trkpt>
      <trkpt lat="45.93865" lon="4.72107">
        <ele>172</ele>
        <time>2016-12-10T12:56:56Z</time>
      </trkpt>
      <trkpt lat="45.93868" lon="4.72104">
        <ele>172</ele>
        <time>2016-12-10T12:56:57Z</time>
      </trkpt>
      <trkpt lat="45.93875" lon="4.72097">
        <ele>172</ele>
        <time>2016-12-10T12:56:59Z</time>
      </trkpt>
      <trkpt lat="45.93878" lon="4.72093">
        <ele>172</ele>
        <time>2016-12-10T12:57:00Z</time>
      </trkpt>
      <trkpt lat="45.93884" lon="4.72085">
        <ele>172</ele>
        <time>2016-12-10T12:57:02Z</time>
      </trkpt>
      <trkpt lat="45.93887" lon="4.72082">
        <ele>172</ele>
        <time>2016-12-10T12:57:03Z</time>
      </trkpt>
      <trkpt lat="45.9389" lon="4.72078">
        <ele>172</ele>
        <time>2016-12-10T12:57:04Z</time>
      </trkpt>
      <trkpt lat="45.93894" lon="4.72075">
        <ele>172</ele>
        <time>2016-12-10T12:57:05Z</time>
      </trkpt>
      <trkpt lat="45.93899" lon="4.72072">
        <ele>172</ele>
        <time>2016-12-10T12:57:06Z</time>
      </trkpt>
      <trkpt lat="45.93903" lon="4.72069">
        <ele>172</ele>
        <time>2016-12-10T12:57:07Z</time>
      </trkpt>
      <trkpt lat="45.93908" lon="4.72064">
        <ele>172</ele>
        <time>2016-12-10T12:57:08Z</time>
      </trkpt>
      <trkpt lat="45.93912" lon="4.72059">
        <ele>172</ele>
        <time>2016-12-10T12:57:09Z</time>
      </trkpt>
      <trkpt lat="45.93917" lon="4.72053">
        <ele>172</ele>
        <time>2016-12-10T12:57:10Z</time>
      </trkpt>
      <trkpt lat="45.93921" lon="4.72048">
        <ele>172</ele>
        <time>2016-12-10T12:57:11Z</time>
      </trkpt>
      <trkpt lat="45.93924" lon="4.72042">
        <ele>172</ele>
        <time>2016-12-10T12:57:12Z</time>
      </trkpt>
      <trkpt lat="45.93928" lon="4.72037">
        <ele>172</ele>
        <time>2016-12-10T12:57:13Z</time>
      </trkpt>
      <trkpt lat="45.93932" lon="4.72032">
        <ele>172</ele>
        <time>2016-12-10T12:57:14Z</time>
      </trkpt>
      <trkpt lat="45.93936" lon="4.72027">
        <ele>172</ele>
        <time>2016-12-10T12:57:15Z</time>
      </trkpt>
      <trkpt lat="45.9394" lon="4.72023">
        <ele>172</ele>
        <time>2016-12-10T12:57:16Z</time>
      </trkpt>
      <trkpt lat="45.93944" lon="4.72019">
        <ele>172</ele>
        <time>2016-12-10T12:57:17Z</time>
      </trkpt>
      <trkpt lat="45.93949" lon="4.72015">
        <ele>172</ele>
        <time>2016-12-10T12:57:18Z</time>
      </trkpt>
      <trkpt lat="45.93953" lon="4.7201">
        <ele>172</ele>
        <time>2016-12-10T12:57:19Z</time>
      </trkpt>
      <trkpt lat="45.93958" lon="4.72006">
        <ele>172</ele>
        <time>2016-12-10T12:57:20Z</time>
      </trkpt>
      <trkpt lat="45.93962" lon="4.72001">
        <ele>172</ele>
        <time>2016-12-10T12:57:21Z</time>
      </trkpt>
      <trkpt lat="45.93966" lon="4.71995">
        <ele>173</ele>
        <time>2016-12-10T12:57:22Z</time>
      </trkpt>
      <trkpt lat="45.9397" lon="4.71989">
        <ele>173</ele>
        <time>2016-12-10T12:57:23Z</time>
      </trkpt>
      <trkpt lat="45.93974" lon="4.71983">
        <ele>173</ele>
        <time>2016-12-10T12:57:24Z</time>
      </trkpt>
      <trkpt lat="45.93978" lon="4.71977">
        <ele>173</ele>
        <time>2016-12-10T12:57:25Z</time>
      </trkpt>
      <trkpt lat="45.93982" lon="4.71973">
        <ele>173</ele>
        <time>2016-12-10T12:57:26Z</time>
      </trkpt>
      <trkpt lat="45.93986" lon="4.71969">
        <ele>173</ele>
        <time>2016-12-10T12:57:27Z</time>
      </trkpt>
      <trkpt lat="45.93995" lon="4.71969">
        <ele>173</ele>
        <time>2016-12-10T12:57:29Z</time>
      </trkpt>
      <trkpt lat="45.94" lon="4.71971">
        <ele>173</ele>
        <time>2016-12-10T12:57:30Z</time>
      </trkpt>
      <trkpt lat="45.94004" lon="4.71974">
        <ele>174</ele>
        <time>2016-12-10T12:57:31Z</time>
      </trkpt>
      <trkpt lat="45.94007" lon="4.71978">
        <ele>174</ele>
        <time>2016-12-10T12:57:32Z</time>
      </trkpt>
      <trkpt lat="45.9401" lon="4.71983">
        <ele>174</ele>
        <time>2016-12-10T12:57:33Z</time>
      </trkpt>
      <trkpt lat="45.94013" lon="4.71989">
        <ele>174</ele>
        <time>2016-12-10T12:57:34Z</time>
      </trkpt>
      <trkpt lat="45.94016" lon="4.71994">
        <ele>174</ele>
        <time>2016-12-10T12:57:35Z</time>
      </trkpt>
      <trkpt lat="45.9402" lon="4.72">
        <ele>174</ele>
        <time>2016-12-10T12:57:36Z</time>
      </trkpt>
      <trkpt lat="45.94023" lon="4.72006">
        <ele>173</ele>
        <time>2016-12-10T12:57:37Z</time>
      </trkpt>
      <trkpt lat="45.94026" lon="4.72011">
        <ele>173</ele>
        <time>2016-12-10T12:57:38Z</time>
      </trkpt>
      <trkpt lat="45.9403" lon="4.72016">
        <ele>173</ele>
        <time>2016-12-10T12:57:39Z</time>
      </trkpt>
      <trkpt lat="45.94033" lon="4.72021">
        <ele>173</ele>
        <time>2016-12-10T12:57:40Z</time>
      </trkpt>
      <trkpt lat="45.94039" lon="4.7203">
        <ele>173</ele>
        <time>2016-12-10T12:57:42Z</time>
      </trkpt>
      <trkpt lat="45.94042" lon="4.72033">
        <ele>173</ele>
        <time>2016-12-10T12:57:43Z</time>
      </trkpt>
      <trkpt lat="45.9405" lon="4.72035">
        <ele>173</ele>
        <time>2016-12-10T12:57:45Z</time>
      </trkpt>
      <trkpt lat="45.94054" lon="4.72033">
        <ele>173</ele>
        <time>2016-12-10T12:57:46Z</time>
      </trkpt>
      <trkpt lat="45.94058" lon="4.7203">
        <ele>174</ele>
        <time>2016-12-10T12:57:47Z</time>
      </trkpt>
      <trkpt lat="45.94062" lon="4.72026">
        <ele>174</ele>
        <time>2016-12-10T12:57:48Z</time>
      </trkpt>
      <trkpt lat="45.94066" lon="4.72021">
        <ele>174</ele>
        <time>2016-12-10T12:57:49Z</time>
      </trkpt>
      <trkpt lat="45.9407" lon="4.72016">
        <ele>174</ele>
        <time>2016-12-10T12:57:50Z</time>
      </trkpt>
      <trkpt lat="45.94074" lon="4.72012">
        <ele>174</ele>
        <time>2016-12-10T12:57:51Z</time>
      </trkpt>
      <trkpt lat="45.94078" lon="4.72007">
        <ele>174</ele>
        <time>2016-12-10T12:57:52Z</time>
      </trkpt>
      <trkpt lat="45.94083" lon="4.72002">
        <ele>175</ele>
        <time>2016-12-10T12:57:53Z</time>
      </trkpt>
      <trkpt lat="45.94087" lon="4.71998">
        <ele>175</ele>
        <time>2016-12-10T12:57:54Z</time>
      </trkpt>
      <trkpt lat="45.94092" lon="4.71993">
        <ele>175</ele>
        <time>2016-12-10T12:57:55Z</time>
      </trkpt>
      <trkpt lat="45.94096" lon="4.71988">
        <ele>174</ele>
        <time>2016-12-10T12:57:56Z</time>
      </trkpt>
      <trkpt lat="45.94101" lon="4.71983">
        <ele>174</ele>
        <time>2016-12-10T12:57:57Z</time>
      </trkpt>
      <trkpt lat="45.94106" lon="4.71978">
        <ele>174</ele>
        <time>2016-12-10T12:57:58Z</time>
      </trkpt>
      <trkpt lat="45.9411" lon="4.71973">
        <ele>174</ele>
        <time>2016-12-10T12:57:59Z</time>
      </trkpt>
      <trkpt lat="45.94114" lon="4.71969">
        <ele>174</ele>
        <time>2016-12-10T12:58:00Z</time>
      </trkpt>
      <trkpt lat="45.94122" lon="4.71964">
        <ele>174</ele>
        <time>2016-12-10T12:58:02Z</time>
      </trkpt>
      <trkpt lat="45.94126" lon="4.71964">
        <ele>174</ele>
        <time>2016-12-10T12:58:03Z</time>
      </trkpt>
      <trkpt lat="45.9413" lon="4.71966">
        <ele>174</ele>
        <time>2016-12-10T12:58:04Z</time>
      </trkpt>
      <trkpt lat="45.94135" lon="4.71969">
        <ele>174</ele>
        <time>2016-12-10T12:58:05Z</time>
      </trkpt>
      <trkpt lat="45.94139" lon="4.71973">
        <ele>174</ele>
        <time>2016-12-10T12:58:06Z</time>
      </trkpt>
      <trkpt lat="45.94142" lon="4.71977">
        <ele>174</ele>
        <time>2016-12-10T12:58:07Z</time>
      </trkpt>
      <trkpt lat="45.94147" lon="4.71987">
        <ele>173</ele>
        <time>2016-12-10T12:58:09Z</time>
      </trkpt>
      <trkpt lat="45.9415" lon="4.71992">
        <ele>173</ele>
        <time>2016-12-10T12:58:10Z</time>
      </trkpt>
      <trkpt lat="45.94154" lon="4.72002">
        <ele>173</ele>
        <time>2016-12-10T12:58:12Z</time>
      </trkpt>
      <trkpt lat="45.94156" lon="4.72007">
        <ele>173</ele>
        <time>2016-12-10T12:58:13Z</time>
      </trkpt>
      <trkpt lat="45.9416" lon="4.72016">
        <ele>173</ele>
        <time>2016-12-10T12:58:15Z</time>
      </trkpt>
      <trkpt lat="45.94163" lon="4.7202">
        <ele>173</ele>
        <time>2016-12-10T12:58:16Z</time>
      </trkpt>
      <trkpt lat="45.94167" lon="4.7203">
        <ele>173</ele>
        <time>2016-12-10T12:58:18Z</time>
      </trkpt>
      <trkpt lat="45.94169" lon="4.72034">
        <ele>173</ele>
        <time>2016-12-10T12:58:19Z</time>
      </trkpt>
      <trkpt lat="45.94174" lon="4.72044">
        <ele>173</ele>
        <time>2016-12-10T12:58:21Z</time>
      </trkpt>
      <trkpt lat="45.94175" lon="4.72048">
        <ele>173</ele>
        <time>2016-12-10T12:58:22Z</time>
      </trkpt>
      <trkpt lat="45.9418" lon="4.72058">
        <ele>173</ele>
        <time>2016-12-10T12:58:24Z</time>
      </trkpt>
      <trkpt lat="45.94182" lon="4.72063">
        <ele>173</ele>
        <time>2016-12-10T12:58:25Z</time>
      </trkpt>
      <trkpt lat="45.94187" lon="4.72073">
        <ele>173</ele>
        <time>2016-12-10T12:58:27Z</time>
      </trkpt>
      <trkpt lat="45.94189" lon="4.72079">
        <ele>173</ele>
        <time>2016-12-10T12:58:28Z</time>
      </trkpt>
      <trkpt lat="45.94191" lon="4.72084">
        <ele>172</ele>
        <time>2016-12-10T12:58:29Z</time>
      </trkpt>
      <trkpt lat="45.94194" lon="4.7209">
        <ele>172</ele>
        <time>2016-12-10T12:58:30Z</time>
      </trkpt>
      <trkpt lat="45.94197" lon="4.72096">
        <ele>172</ele>
        <time>2016-12-10T12:58:31Z</time>
      </trkpt>
      <trkpt lat="45.942" lon="4.72103">
        <ele>173</ele>
        <time>2016-12-10T12:58:32Z</time>
      </trkpt>
      <trkpt lat="45.94203" lon="4.72109">
        <ele>173</ele>
        <time>2016-12-10T12:58:33Z</time>
      </trkpt>
      <trkpt lat="45.94205" lon="4.72116">
        <ele>173</ele>
        <time>2016-12-10T12:58:34Z</time>
      </trkpt>
      <trkpt lat="45.94209" lon="4.72123">
        <ele>173</ele>
        <time>2016-12-10T12:58:35Z</time>
      </trkpt>
      <trkpt lat="45.94212" lon="4.72131">
        <ele>173</ele>
        <time>2016-12-10T12:58:36Z</time>
      </trkpt>
      <trkpt lat="45.94215" lon="4.72138">
        <ele>173</ele>
        <time>2016-12-10T12:58:37Z</time>
      </trkpt>
      <trkpt lat="45.94219" lon="4.72147">
        <ele>173</ele>
        <time>2016-12-10T12:58:38Z</time>
      </trkpt>
      <trkpt lat="45.94222" lon="4.72155">
        <ele>173</ele>
        <time>2016-12-10T12:58:39Z</time>
      </trkpt>
      <trkpt lat="45.94226" lon="4.72164">
        <ele>173</ele>
        <time>2016-12-10T12:58:40Z</time>
      </trkpt>
      <trkpt lat="45.94231" lon="4.72173">
        <ele>172</ele>
        <time>2016-12-10T12:58:41Z</time>
      </trkpt>
      <trkpt lat="45.94235" lon="4.72182">
        <ele>172</ele>
        <time>2016-12-10T12:58:42Z</time>
      </trkpt>
      <trkpt lat="45.94239" lon="4.72191">
        <ele>172</ele>
        <time>2016-12-10T12:58:43Z</time>
      </trkpt>
      <trkpt lat="45.94243" lon="4.72201">
        <ele>172</ele>
        <time>2016-12-10T12:58:44Z</time>
      </trkpt>
      <trkpt lat="45.94247" lon="4.7221">
        <ele>171</ele>
        <time>2016-12-10T12:58:45Z</time>
      </trkpt>
      <trkpt lat="45.94251" lon="4.72219">
        <ele>172</ele>
        <time>2016-12-10T12:58:46Z</time>
      </trkpt>
      <trkpt lat="45.94255" lon="4.72228">
        <ele>172</ele>
        <time>2016-12-10T12:58:47Z</time>
      </trkpt>
      <trkpt lat="45.94259" lon="4.72236">
        <ele>171</ele>
        <time>2016-12-10T12:58:48Z</time>
      </trkpt>
      <trkpt lat="45.94262" lon="4.72244">
        <ele>171</ele>
        <time>2016-12-10T12:58:49Z</time>
      </trkpt>
      <trkpt lat="45.94266" lon="4.72252">
        <ele>171</ele>
        <time>2016-12-10T12:58:50Z</time>
      </trkpt>
      <trkpt lat="45.94269" lon="4.72259">
        <ele>171</ele>
        <time>2016-12-10T12:58:51Z</time>
      </trkpt>
      <trkpt lat="45.94272" lon="4.72266">
        <ele>171</ele>
        <time>2016-12-10T12:58:52Z</time>
      </trkpt>
      <trkpt lat="45.94275" lon="4.72273">
        <ele>171</ele>
        <time>2016-12-10T12:58:53Z</time>
      </trkpt>
      <trkpt lat="45.94278" lon="4.7228">
        <ele>171</ele>
        <time>2016-12-10T12:58:54Z</time>
      </trkpt>
      <trkpt lat="45.9428" lon="4.72288">
        <ele>171</ele>
        <time>2016-12-10T12:58:55Z</time>
      </trkpt>
      <trkpt lat="45.94283" lon="4.72295">
        <ele>171</ele>
        <time>2016-12-10T12:58:56Z</time>
      </trkpt>
      <trkpt lat="45.94287" lon="4.72301">
        <ele>171</ele>
        <time>2016-12-10T12:58:57Z</time>
      </trkpt>
      <trkpt lat="45.9429" lon="4.72309">
        <ele>171</ele>
        <time>2016-12-10T12:58:58Z</time>
      </trkpt>
      <trkpt lat="45.94293" lon="4.72316">
        <ele>171</ele>
        <time>2016-12-10T12:58:59Z</time>
      </trkpt>
      <trkpt lat="45.94297" lon="4.72323">
        <ele>171</ele>
        <time>2016-12-10T12:59:00Z</time>
      </trkpt>
      <trkpt lat="45.943" lon="4.7233">
        <ele>171</ele>
        <time>2016-12-10T12:59:01Z</time>
      </trkpt>
      <trkpt lat="45.94303" lon="4.72337">
        <ele>172</ele>
        <time>2016-12-10T12:59:02Z</time>
      </trkpt>
      <trkpt lat="45.94306" lon="4.72344">
        <ele>172</ele>
        <time>2016-12-10T12:59:03Z</time>
      </trkpt>
      <trkpt lat="45.94309" lon="4.7235">
        <ele>172</ele>
        <time>2016-12-10T12:59:04Z</time>
      </trkpt>
      <trkpt lat="45.94311" lon="4.72356">
        <ele>172</ele>
        <time>2016-12-10T12:59:05Z</time>
      </trkpt>
      <trkpt lat="45.94314" lon="4.72362">
        <ele>172</ele>
        <time>2016-12-10T12:59:06Z</time>
      </trkpt>
      <trkpt lat="45.94317" lon="4.72368">
        <ele>172</ele>
        <time>2016-12-10T12:59:07Z</time>
      </trkpt>
      <trkpt lat="45.9432" lon="4.72375">
        <ele>172</ele>
        <time>2016-12-10T12:59:08Z</time>
      </trkpt>
      <trkpt lat="45.94324" lon="4.72381">
        <ele>172</ele>
        <time>2016-12-10T12:59:09Z</time>
      </trkpt>
      <trkpt lat="45.94326" lon="4.72388">
        <ele>172</ele>
        <time>2016-12-10T12:59:10Z</time>
      </trkpt>
      <trkpt lat="45.94329" lon="4.72395">
        <ele>172</ele>
        <time>2016-12-10T12:59:11Z</time>
      </trkpt>
      <trkpt lat="45.94332" lon="4.72402">
        <ele>173</ele>
        <time>2016-12-10T12:59:12Z</time>
      </trkpt>
      <trkpt lat="45.94335" lon="4.72409">
        <ele>173</ele>
        <time>2016-12-10T12:59:13Z</time>
      </trkpt>
      <trkpt lat="45.94339" lon="4.72416">
        <ele>173</ele>
        <time>2016-12-10T12:59:14Z</time>
      </trkpt>
      <trkpt lat="45.94341" lon="4.72422">
        <ele>173</ele>
        <time>2016-12-10T12:59:15Z</time>
      </trkpt>
      <trkpt lat="45.94344" lon="4.72429">
        <ele>173</ele>
        <time>2016-12-10T12:59:16Z</time>
      </trkpt>
      <trkpt lat="45.94347" lon="4.72435">
        <ele>173</ele>
        <time>2016-12-10T12:59:17Z</time>
      </trkpt>
      <trkpt lat="45.9435" lon="4.72441">
        <ele>173</ele>
        <time>2016-12-10T12:59:18Z</time>
      </trkpt>
      <trkpt lat="45.94353" lon="4.72448">
        <ele>173</ele>
        <time>2016-12-10T12:59:19Z</time>
      </trkpt>
      <trkpt lat="45.94355" lon="4.72454">
        <ele>173</ele>
        <time>2016-12-10T12:59:20Z</time>
      </trkpt>
      <trkpt lat="45.94358" lon="4.72461">
        <ele>173</ele>
        <time>2016-12-10T12:59:21Z</time>
      </trkpt>
      <trkpt lat="45.94361" lon="4.72467">
        <ele>173</ele>
        <time>2016-12-10T12:59:22Z</time>
      </trkpt>
      <trkpt lat="45.94363" lon="4.72473">
        <ele>173</ele>
        <time>2016-12-10T12:59:23Z</time>
      </trkpt>
      <trkpt lat="45.94366" lon="4.72479">
        <ele>173</ele>
        <time>2016-12-10T12:59:24Z</time>
      </trkpt>
      <trkpt lat="45.94369" lon="4.72486">
        <ele>173</ele>
        <time>2016-12-10T12:59:25Z</time>
      </trkpt>
      <trkpt lat="45.94371" lon="4.72493">
        <ele>173</ele>
        <time>2016-12-10T12:59:26Z</time>
      </trkpt>
      <trkpt lat="45.94374" lon="4.72499">
        <ele>173</ele>
        <time>2016-12-10T12:59:27Z</time>
      </trkpt>
      <trkpt lat="45.94376" lon="4.72505">
        <ele>174</ele>
        <time>2016-12-10T12:59:28Z</time>
      </trkpt>
      <trkpt lat="45.94378" lon="4.72512">
        <ele>174</ele>
        <time>2016-12-10T12:59:29Z</time>
      </trkpt>
      <trkpt lat="45.9438" lon="4.72518">
        <ele>174</ele>
        <time>2016-12-10T12:59:30Z</time>
      </trkpt>
      <trkpt lat="45.94382" lon="4.72525">
        <ele>174</ele>
        <time>2016-12-10T12:59:31Z</time>
      </trkpt>
      <trkpt lat="45.94384" lon="4.72532">
        <ele>174</ele>
        <time>2016-12-10T12:59:32Z</time>
      </trkpt>
      <trkpt lat="45.94386" lon="4.72544">
        <ele>173</ele>
        <time>2016-12-10T12:59:34Z</time>
      </trkpt>
      <trkpt lat="45.94387" lon="4.7255">
        <ele>173</ele>
        <time>2016-12-10T12:59:35Z</time>
      </trkpt>
      <trkpt lat="45.94388" lon="4.72557">
        <ele>173</ele>
        <time>2016-12-10T12:59:36Z</time>
      </trkpt>
      <trkpt lat="45.94389" lon="4.72565">
        <ele>173</ele>
        <time>2016-12-10T12:59:37Z</time>
      </trkpt>
      <trkpt lat="45.94391" lon="4.72572">
        <ele>173</ele>
        <time>2016-12-10T12:59:38Z</time>
      </trkpt>
      <trkpt lat="45.94392" lon="4.7258">
        <ele>173</ele>
        <time>2016-12-10T12:59:39Z</time>
      </trkpt>
      <trkpt lat="45.94393" lon="4.72588">
        <ele>173</ele>
        <time>2016-12-10T12:59:40Z</time>
      </trkpt>
      <trkpt lat="45.94394" lon="4.72597">
        <ele>173</ele>
        <time>2016-12-10T12:59:41Z</time>
      </trkpt>
      <trkpt lat="45.94395" lon="4.72605">
        <ele>173</ele>
        <time>2016-12-10T12:59:42Z</time>
      </trkpt>
      <trkpt lat="45.94396" lon="4.72613">
        <ele>173</ele>
        <time>2016-12-10T12:59:43Z</time>
      </trkpt>
      <trkpt lat="45.94397" lon="4.72621">
        <ele>173</ele>
        <time>2016-12-10T12:59:44Z</time>
      </trkpt>
      <trkpt lat="45.94398" lon="4.72628">
        <ele>174</ele>
        <time>2016-12-10T12:59:45Z</time>
      </trkpt>
      <trkpt lat="45.94399" lon="4.72636">
        <ele>174</ele>
        <time>2016-12-10T12:59:46Z</time>
      </trkpt>
      <trkpt lat="45.944" lon="4.72643">
        <ele>174</ele>
        <time>2016-12-10T12:59:47Z</time>
      </trkpt>
      <trkpt lat="45.94401" lon="4.72651">
        <ele>174</ele>
        <time>2016-12-10T12:59:48Z</time>
      </trkpt>
      <trkpt lat="45.94402" lon="4.72659">
        <ele>174</ele>
        <time>2016-12-10T12:59:49Z</time>
      </trkpt>
      <trkpt lat="45.94403" lon="4.72667">
        <ele>173</ele>
        <time>2016-12-10T12:59:50Z</time>
      </trkpt>
      <trkpt lat="45.94403" lon="4.72674">
        <ele>173</ele>
        <time>2016-12-10T12:59:51Z</time>
      </trkpt>
      <trkpt lat="45.94404" lon="4.72681">
        <ele>173</ele>
        <time>2016-12-10T12:59:52Z</time>
      </trkpt>
      <trkpt lat="45.94405" lon="4.72689">
        <ele>173</ele>
        <time>2016-12-10T12:59:53Z</time>
      </trkpt>
      <trkpt lat="45.94407" lon="4.72696">
        <ele>172</ele>
        <time>2016-12-10T12:59:54Z</time>
      </trkpt>
      <trkpt lat="45.94408" lon="4.72704">
        <ele>172</ele>
        <time>2016-12-10T12:59:55Z</time>
      </trkpt>
      <trkpt lat="45.94409" lon="4.72711">
        <ele>172</ele>
        <time>2016-12-10T12:59:56Z</time>
      </trkpt>
      <trkpt lat="45.9441" lon="4.72719">
        <ele>172</ele>
        <time>2016-12-10T12:59:57Z</time>
      </trkpt>
      <trkpt lat="45.94411" lon="4.72727">
        <ele>172</ele>
        <time>2016-12-10T12:59:58Z</time>
      </trkpt>
      <trkpt lat="45.94412" lon="4.72735">
        <ele>171</ele>
        <time>2016-12-10T12:59:59Z</time>
      </trkpt>
      <trkpt lat="45.94414" lon="4.72744">
        <ele>171</ele>
        <time>2016-12-10T13:00:00Z</time>
      </trkpt>
      <trkpt lat="45.94415" lon="4.72751">
        <ele>171</ele>
        <time>2016-12-10T13:00:01Z</time>
      </trkpt>
      <trkpt lat="45.94416" lon="4.72759">
        <ele>170</ele>
        <time>2016-12-10T13:00:02Z</time>
      </trkpt>
      <trkpt lat="45.94417" lon="4.72767">
        <ele>169</ele>
        <time>2016-12-10T13:00:03Z</time>
      </trkpt>
      <trkpt lat="45.94418" lon="4.72775">
        <ele>169</ele>
        <time>2016-12-10T13:00:04Z</time>
      </trkpt>
      <trkpt lat="45.94419" lon="4.72782">
        <ele>168</ele>
        <time>2016-12-10T13:00:05Z</time>
      </trkpt>
      <trkpt lat="45.9442" lon="4.72789">
        <ele>168</ele>
        <time>2016-12-10T13:00:06Z</time>
      </trkpt>
      <trkpt lat="45.94421" lon="4.72797">
        <ele>168</ele>
        <time>2016-12-10T13:00:07Z</time>
      </trkpt>
      <trkpt lat="45.94422" lon="4.72804">
        <ele>167</ele>
        <time>2016-12-10T13:00:08Z</time>
      </trkpt>
      <trkpt lat="45.94423" lon="4.72811">
        <ele>167</ele>
        <time>2016-12-10T13:00:09Z</time>
      </trkpt>
      <trkpt lat="45.94424" lon="4.72818">
        <ele>167</ele>
        <time>2016-12-10T13:00:10Z</time>
      </trkpt>
      <trkpt lat="45.94425" lon="4.72824">
        <ele>167</ele>
        <time>2016-12-10T13:00:11Z</time>
      </trkpt>
      <trkpt lat="45.94426" lon="4.72831">
        <ele>166</ele>
        <time>2016-12-10T13:00:12Z</time>
      </trkpt>
      <trkpt lat="45.94427" lon="4.72837">
        <ele>166</ele>
        <time>2016-12-10T13:00:13Z</time>
      </trkpt>
      <trkpt lat="45.94428" lon="4.72849">
        <ele>166</ele>
        <time>2016-12-10T13:00:15Z</time>
      </trkpt>
      <trkpt lat="45.94429" lon="4.72855">
        <ele>166</ele>
        <time>2016-12-10T13:00:16Z</time>
      </trkpt>
      <trkpt lat="45.94431" lon="4.72867">
        <ele>166</ele>
        <time>2016-12-10T13:00:18Z</time>
      </trkpt>
      <trkpt lat="45.94432" lon="4.72873">
        <ele>166</ele>
        <time>2016-12-10T13:00:19Z</time>
      </trkpt>
      <trkpt lat="45.94433" lon="4.72884">
        <ele>166</ele>
        <time>2016-12-10T13:00:21Z</time>
      </trkpt>
      <trkpt lat="45.94434" lon="4.7289">
        <ele>166</ele>
        <time>2016-12-10T13:00:22Z</time>
      </trkpt>
      <trkpt lat="45.94436" lon="4.72902">
        <ele>166</ele>
        <time>2016-12-10T13:00:24Z</time>
      </trkpt>
      <trkpt lat="45.94436" lon="4.72908">
        <ele>166</ele>
        <time>2016-12-10T13:00:25Z</time>
      </trkpt>
      <trkpt lat="45.94437" lon="4.72915">
        <ele>166</ele>
        <time>2016-12-10T13:00:26Z</time>
      </trkpt>
      <trkpt lat="45.94438" lon="4.72921">
        <ele>167</ele>
        <time>2016-12-10T13:00:27Z</time>
      </trkpt>
      <trkpt lat="45.94439" lon="4.72928">
        <ele>167</ele>
        <time>2016-12-10T13:00:28Z</time>
      </trkpt>
      <trkpt lat="45.9444" lon="4.72935">
        <ele>167</ele>
        <time>2016-12-10T13:00:29Z</time>
      </trkpt>
      <trkpt lat="45.94441" lon="4.72942">
        <ele>167</ele>
        <time>2016-12-10T13:00:30Z</time>
      </trkpt>
      <trkpt lat="45.94442" lon="4.72949">
        <ele>167</ele>
        <time>2016-12-10T13:00:31Z</time>
      </trkpt>
      <trkpt lat="45.94443" lon="4.72958">
        <ele>167</ele>
        <time>2016-12-10T13:00:32Z</time>
      </trkpt>
      <trkpt lat="45.94444" lon="4.72965">
        <ele>167</ele>
        <time>2016-12-10T13:00:33Z</time>
      </trkpt>
      <trkpt lat="45.94445" lon="4.72974">
        <ele>167</ele>
        <time>2016-12-10T13:00:34Z</time>
      </trkpt>
      <trkpt lat="45.94446" lon="4.72982">
        <ele>167</ele>
        <time>2016-12-10T13:00:35Z</time>
      </trkpt>
      <trkpt lat="45.94447" lon="4.72991">
        <ele>167</ele>
        <time>2016-12-10T13:00:36Z</time>
      </trkpt>
      <trkpt lat="45.94449" lon="4.72999">
        <ele>167</ele>
        <time>2016-12-10T13:00:37Z</time>
      </trkpt>
      <trkpt lat="45.9445" lon="4.73009">
        <ele>169</ele>
        <time>2016-12-10T13:00:38Z</time>
      </trkpt>
      <trkpt lat="45.94451" lon="4.73018">
        <ele>169</ele>
        <time>2016-12-10T13:00:39Z</time>
      </trkpt>
      <trkpt lat="45.94452" lon="4.73028">
        <ele>169</ele>
        <time>2016-12-10T13:00:40Z</time>
      </trkpt>
      <trkpt lat="45.94454" lon="4.73037">
        <ele>169</ele>
        <time>2016-12-10T13:00:41Z</time>
      </trkpt>
      <trkpt lat="45.94455" lon="4.73047">
        <ele>169</ele>
        <time>2016-12-10T13:00:42Z</time>
      </trkpt>
      <trkpt lat="45.94457" lon="4.73058">
        <ele>170</ele>
        <time>2016-12-10T13:00:43Z</time>
      </trkpt>
      <trkpt lat="45.94458" lon="4.73068">
        <ele>170</ele>
        <time>2016-12-10T13:00:44Z</time>
      </trkpt>
      <trkpt lat="45.94459" lon="4.73078">
        <ele>170</ele>
        <time>2016-12-10T13:00:45Z</time>
      </trkpt>
      <trkpt lat="45.9446" lon="4.73088">
        <ele>171</ele>
        <time>2016-12-10T13:00:46Z</time>
      </trkpt>
      <trkpt lat="45.94461" lon="4.73098">
        <ele>171</ele>
        <time>2016-12-10T13:00:47Z</time>
      </trkpt>
      <trkpt lat="45.94462" lon="4.73107">
        <ele>172</ele>
        <time>2016-12-10T13:00:48Z</time>
      </trkpt>
      <trkpt lat="45.94463" lon="4.73115">
        <ele>172</ele>
        <time>2016-12-10T13:00:49Z</time>
      </trkpt>
      <trkpt lat="45.94465" lon="4.73124">
        <ele>172</ele>
        <time>2016-12-10T13:00:50Z</time>
      </trkpt>
      <trkpt lat="45.94466" lon="4.73132">
        <ele>172</ele>
        <time>2016-12-10T13:00:51Z</time>
      </trkpt>
      <trkpt lat="45.94467" lon="4.7314">
        <ele>172</ele>
        <time>2016-12-10T13:00:52Z</time>
      </trkpt>
      <trkpt lat="45.94469" lon="4.73149">
        <ele>172</ele>
        <time>2016-12-10T13:00:53Z</time>
      </trkpt>
      <trkpt lat="45.9447" lon="4.73157">
        <ele>172</ele>
        <time>2016-12-10T13:00:54Z</time>
      </trkpt>
      <trkpt lat="45.94471" lon="4.73165">
        <ele>172</ele>
        <time>2016-12-10T13:00:55Z</time>
      </trkpt>
      <trkpt lat="45.94472" lon="4.73172">
        <ele>174</ele>
        <time>2016-12-10T13:00:56Z</time>
      </trkpt>
      <trkpt lat="45.94473" lon="4.7318">
        <ele>174</ele>
        <time>2016-12-10T13:00:57Z</time>
      </trkpt>
      <trkpt lat="45.94474" lon="4.73188">
        <ele>174</ele>
        <time>2016-12-10T13:00:58Z</time>
      </trkpt>
      <trkpt lat="45.94475" lon="4.73197">
        <ele>174</ele>
        <time>2016-12-10T13:00:59Z</time>
      </trkpt>
      <trkpt lat="45.94476" lon="4.73205">
        <ele>175</ele>
        <time>2016-12-10T13:01:00Z</time>
      </trkpt>
      <trkpt lat="45.94477" lon="4.73212">
        <ele>175</ele>
        <time>2016-12-10T13:01:01Z</time>
      </trkpt>
      <trkpt lat="45.94479" lon="4.73219">
        <ele>175</ele>
        <time>2016-12-10T13:01:02Z</time>
      </trkpt>
      <trkpt lat="45.9448" lon="4.73227">
        <ele>175</ele>
        <time>2016-12-10T13:01:03Z</time>
      </trkpt>
      <trkpt lat="45.94481" lon="4.73234">
        <ele>175</ele>
        <time>2016-12-10T13:01:04Z</time>
      </trkpt>
      <trkpt lat="45.94482" lon="4.7324">
        <ele>175</ele>
        <time>2016-12-10T13:01:05Z</time>
      </trkpt>
      <trkpt lat="45.94484" lon="4.73251">
        <ele>176</ele>
        <time>2016-12-10T13:01:07Z</time>
      </trkpt>
      <trkpt lat="45.94485" lon="4.73257">
        <ele>176</ele>
        <time>2016-12-10T13:01:08Z</time>
      </trkpt>
      <trkpt lat="45.94487" lon="4.73269">
        <ele>177</ele>
        <time>2016-12-10T13:01:10Z</time>
      </trkpt>
      <trkpt lat="45.94487" lon="4.73274">
        <ele>177</ele>
        <time>2016-12-10T13:01:11Z</time>
      </trkpt>
      <trkpt lat="45.94489" lon="4.73286">
        <ele>177</ele>
        <time>2016-12-10T13:01:13Z</time>
      </trkpt>
      <trkpt lat="45.94489" lon="4.73292">
        <ele>177</ele>
        <time>2016-12-10T13:01:14Z</time>
      </trkpt>
      <trkpt lat="45.94491" lon="4.73304">
        <ele>177</ele>
        <time>2016-12-10T13:01:16Z</time>
      </trkpt>
      <trkpt lat="45.94491" lon="4.7331">
        <ele>177</ele>
        <time>2016-12-10T13:01:17Z</time>
      </trkpt>
      <trkpt lat="45.94492" lon="4.73323">
        <ele>177</ele>
        <time>2016-12-10T13:01:19Z</time>
      </trkpt>
      <trkpt lat="45.94492" lon="4.7333">
        <ele>177</ele>
        <time>2016-12-10T13:01:20Z</time>
      </trkpt>
      <trkpt lat="45.94493" lon="4.73342">
        <ele>178</ele>
        <time>2016-12-10T13:01:22Z</time>
      </trkpt>
      <trkpt lat="45.94494" lon="4.73349">
        <ele>178</ele>
        <time>2016-12-10T13:01:23Z</time>
      </trkpt>
      <trkpt lat="45.94495" lon="4.7336">
        <ele>179</ele>
        <time>2016-12-10T13:01:25Z</time>
      </trkpt>
      <trkpt lat="45.94495" lon="4.73366">
        <ele>179</ele>
        <time>2016-12-10T13:01:26Z</time>
      </trkpt>
      <trkpt lat="45.94496" lon="4.73379">
        <ele>179</ele>
        <time>2016-12-10T13:01:28Z</time>
      </trkpt>
      <trkpt lat="45.94496" lon="4.73384">
        <ele>179</ele>
        <time>2016-12-10T13:01:29Z</time>
      </trkpt>
      <trkpt lat="45.94497" lon="4.73391">
        <ele>179</ele>
        <time>2016-12-10T13:01:30Z</time>
      </trkpt>
      <trkpt lat="45.94497" lon="4.73398">
        <ele>180</ele>
        <time>2016-12-10T13:01:31Z</time>
      </trkpt>
      <trkpt lat="45.94498" lon="4.73409">
        <ele>180</ele>
        <time>2016-12-10T13:01:33Z</time>
      </trkpt>
      <trkpt lat="45.94498" lon="4.73414">
        <ele>180</ele>
        <time>2016-12-10T13:01:34Z</time>
      </trkpt>
      <trkpt lat="45.94498" lon="4.73425">
        <ele>181</ele>
        <time>2016-12-10T13:01:36Z</time>
      </trkpt>
      <trkpt lat="45.94499" lon="4.7343">
        <ele>181</ele>
        <time>2016-12-10T13:01:37Z</time>
      </trkpt>
      <trkpt lat="45.945" lon="4.73443">
        <ele>181</ele>
        <time>2016-12-10T13:01:39Z</time>
      </trkpt>
      <trkpt lat="45.945" lon="4.73449">
        <ele>182</ele>
        <time>2016-12-10T13:01:40Z</time>
      </trkpt>
      <trkpt lat="45.945" lon="4.73461">
        <ele>182</ele>
        <time>2016-12-10T13:01:42Z</time>
      </trkpt>
      <trkpt lat="45.945" lon="4.73468">
        <ele>181</ele>
        <time>2016-12-10T13:01:43Z</time>
      </trkpt>
      <trkpt lat="45.94501" lon="4.7348">
        <ele>182</ele>
        <time>2016-12-10T13:01:45Z</time>
      </trkpt>
      <trkpt lat="45.94501" lon="4.73485">
        <ele>182</ele>
        <time>2016-12-10T13:01:46Z</time>
      </trkpt>
      <trkpt lat="45.945" lon="4.73497">
        <ele>183</ele>
        <time>2016-12-10T13:01:48Z</time>
      </trkpt>
      <trkpt lat="45.945" lon="4.73503">
        <ele>183</ele>
        <time>2016-12-10T13:01:49Z</time>
      </trkpt>
      <trkpt lat="45.945" lon="4.73514">
        <ele>183</ele>
        <time>2016-12-10T13:01:51Z</time>
      </trkpt>
      <trkpt lat="45.945" lon="4.7352">
        <ele>183</ele>
        <time>2016-12-10T13:01:52Z</time>
      </trkpt>
      <trkpt lat="45.945" lon="4.73531">
        <ele>183</ele>
        <time>2016-12-10T13:01:54Z</time>
      </trkpt>
      <trkpt lat="45.945" lon="4.73536">
        <ele>184</ele>
        <time>2016-12-10T13:01:55Z</time>
      </trkpt>
      <trkpt lat="45.94499" lon="4.73547">
        <ele>185</ele>
        <time>2016-12-10T13:01:57Z</time>
      </trkpt>
      <trkpt lat="45.94499" lon="4.73552">
        <ele>185</ele>
        <time>2016-12-10T13:01:58Z</time>
      </trkpt>
      <trkpt lat="45.94499" lon="4.73563">
        <ele>185</ele>
        <time>2016-12-10T13:02:00Z</time>
      </trkpt>
      <trkpt lat="45.94499" lon="4.73568">
        <ele>185</ele>
        <time>2016-12-10T13:02:01Z</time>
      </trkpt>
      <trkpt lat="45.94499" lon="4.73574">
        <ele>185</ele>
        <time>2016-12-10T13:02:02Z</time>
      </trkpt>
      <trkpt lat="45.94499" lon="4.73581">
        <ele>185</ele>
        <time>2016-12-10T13:02:03Z</time>
      </trkpt>
      <trkpt lat="45.945" lon="4.73594">
        <ele>185</ele>
        <time>2016-12-10T13:02:05Z</time>
      </trkpt>
      <trkpt lat="45.94499" lon="4.73599">
        <ele>185</ele>
        <time>2016-12-10T13:02:06Z</time>
      </trkpt>
      <trkpt lat="45.94499" lon="4.73612">
        <ele>186</ele>
        <time>2016-12-10T13:02:08Z</time>
      </trkpt>
      <trkpt lat="45.94499" lon="4.73618">
        <ele>186</ele>
        <time>2016-12-10T13:02:09Z</time>
      </trkpt>
      <trkpt lat="45.94498" lon="4.73624">
        <ele>186</ele>
        <time>2016-12-10T13:02:10Z</time>
      </trkpt>
      <trkpt lat="45.94497" lon="4.73631">
        <ele>186</ele>
        <time>2016-12-10T13:02:11Z</time>
      </trkpt>
      <trkpt lat="45.94496" lon="4.73644">
        <ele>186</ele>
        <time>2016-12-10T13:02:13Z</time>
      </trkpt>
      <trkpt lat="45.94495" lon="4.73649">
        <ele>185</ele>
        <time>2016-12-10T13:02:14Z</time>
      </trkpt>
      <trkpt lat="45.94493" lon="4.73662">
        <ele>185</ele>
        <time>2016-12-10T13:02:16Z</time>
      </trkpt>
      <trkpt lat="45.94492" lon="4.73668">
        <ele>185</ele>
        <time>2016-12-10T13:02:17Z</time>
      </trkpt>
      <trkpt lat="45.94491" lon="4.7368">
        <ele>186</ele>
        <time>2016-12-10T13:02:19Z</time>
      </trkpt>
      <trkpt lat="45.9449" lon="4.73687">
        <ele>186</ele>
        <time>2016-12-10T13:02:20Z</time>
      </trkpt>
      <trkpt lat="45.94489" lon="4.73694">
        <ele>186</ele>
        <time>2016-12-10T13:02:21Z</time>
      </trkpt>
      <trkpt lat="45.94488" lon="4.737">
        <ele>186</ele>
        <time>2016-12-10T13:02:22Z</time>
      </trkpt>
      <trkpt lat="45.94487" lon="4.73707">
        <ele>186</ele>
        <time>2016-12-10T13:02:23Z</time>
      </trkpt>
      <trkpt lat="45.94486" lon="4.73714">
        <ele>186</ele>
        <time>2016-12-10T13:02:24Z</time>
      </trkpt>
      <trkpt lat="45.94485" lon="4.7372">
        <ele>186</ele>
        <time>2016-12-10T13:02:25Z</time>
      </trkpt>
      <trkpt lat="45.94484" lon="4.73727">
        <ele>186</ele>
        <time>2016-12-10T13:02:26Z</time>
      </trkpt>
      <trkpt lat="45.94483" lon="4.73734">
        <ele>186</ele>
        <time>2016-12-10T13:02:27Z</time>
      </trkpt>
      <trkpt lat="45.94481" lon="4.7374">
        <ele>186</ele>
        <time>2016-12-10T13:02:28Z</time>
      </trkpt>
      <trkpt lat="45.9448" lon="4.73747">
        <ele>186</ele>
        <time>2016-12-10T13:02:29Z</time>
      </trkpt>
      <trkpt lat="45.94479" lon="4.73753">
        <ele>186</ele>
        <time>2016-12-10T13:02:30Z</time>
      </trkpt>
      <trkpt lat="45.94479" lon="4.7376">
        <ele>186</ele>
        <time>2016-12-10T13:02:31Z</time>
      </trkpt>
      <trkpt lat="45.94479" lon="4.73767">
        <ele>186</ele>
        <time>2016-12-10T13:02:32Z</time>
      </trkpt>
      <trkpt lat="45.94484" lon="4.73776">
        <ele>186</ele>
        <time>2016-12-10T13:02:34Z</time>
      </trkpt>
      <trkpt lat="45.94488" lon="4.73779">
        <ele>186</ele>
        <time>2016-12-10T13:02:35Z</time>
      </trkpt>
      <trkpt lat="45.94492" lon="4.73783">
        <ele>186</ele>
        <time>2016-12-10T13:02:36Z</time>
      </trkpt>
      <trkpt lat="45.94496" lon="4.73786">
        <ele>186</ele>
        <time>2016-12-10T13:02:37Z</time>
      </trkpt>
      <trkpt lat="45.945" lon="4.7379">
        <ele>186</ele>
        <time>2016-12-10T13:02:38Z</time>
      </trkpt>
      <trkpt lat="45.94504" lon="4.73793">
        <ele>186</ele>
        <time>2016-12-10T13:02:39Z</time>
      </trkpt>
      <trkpt lat="45.94508" lon="4.73797">
        <ele>186</ele>
        <time>2016-12-10T13:02:40Z</time>
      </trkpt>
      <trkpt lat="45.94512" lon="4.738">
        <ele>186</ele>
        <time>2016-12-10T13:02:41Z</time>
      </trkpt>
      <trkpt lat="45.94519" lon="4.73808">
        <ele>186</ele>
        <time>2016-12-10T13:02:43Z</time>
      </trkpt>
      <trkpt lat="45.94523" lon="4.73811">
        <ele>186</ele>
        <time>2016-12-10T13:02:44Z</time>
      </trkpt>
      <trkpt lat="45.94526" lon="4.73815">
        <ele>186</ele>
        <time>2016-12-10T13:02:45Z</time>
      </trkpt>
      <trkpt lat="45.9453" lon="4.73818">
        <ele>186</ele>
        <time>2016-12-10T13:02:46Z</time>
      </trkpt>
      <trkpt lat="45.94534" lon="4.73822">
        <ele>186</ele>
        <time>2016-12-10T13:02:47Z</time>
      </trkpt>
      <trkpt lat="45.94538" lon="4.73826">
        <ele>186</ele>
        <time>2016-12-10T13:02:48Z</time>
      </trkpt>
      <trkpt lat="45.94543" lon="4.73829">
        <ele>186</ele>
        <time>2016-12-10T13:02:49Z</time>
      </trkpt>
      <trkpt lat="45.94546" lon="4.73833">
        <ele>186</ele>
        <time>2016-12-10T13:02:50Z</time>
      </trkpt>
      <trkpt lat="45.9455" lon="4.73838">
        <ele>186</ele>
        <time>2016-12-10T13:02:51Z</time>
      </trkpt>
      <trkpt lat="45.94554" lon="4.73842">
        <ele>186</ele>
        <time>2016-12-10T13:02:52Z</time>
      </trkpt>
      <trkpt lat="45.94558" lon="4.73846">
        <ele>186</ele>
        <time>2016-12-10T13:02:53Z</time>
      </trkpt>
      <trkpt lat="45.94562" lon="4.7385">
        <ele>186</ele>
        <time>2016-12-10T13:02:54Z</time>
      </trkpt>
      <trkpt lat="45.94566" lon="4.73854">
        <ele>186</ele>
        <time>2016-12-10T13:02:55Z</time>
      </trkpt>
      <trkpt lat="45.94569" lon="4.73858">
        <ele>186</ele>
        <time>2016-12-10T13:02:56Z</time>
      </trkpt>
      <trkpt lat="45.94573" lon="4.73861">
        <ele>186</ele>
        <time>2016-12-10T13:02:57Z</time>
      </trkpt>
      <trkpt lat="45.94577" lon="4.73865">
        <ele>186</ele>
        <time>2016-12-10T13:02:58Z</time>
      </trkpt>
      <trkpt lat="45.94581" lon="4.73869">
        <ele>186</ele>
        <time>2016-12-10T13:02:59Z</time>
      </trkpt>
      <trkpt lat="45.94584" lon="4.73873">
        <ele>187</ele>
        <time>2016-12-10T13:03:00Z</time>
      </trkpt>
      <trkpt lat="45.94591" lon="4.73881">
        <ele>187</ele>
        <time>2016-12-10T13:03:02Z</time>
      </trkpt>
      <trkpt lat="45.94595" lon="4.73886">
        <ele>187</ele>
        <time>2016-12-10T13:03:03Z</time>
      </trkpt>
      <trkpt lat="45.94601" lon="4.73894">
        <ele>187</ele>
        <time>2016-12-10T13:03:05Z</time>
      </trkpt>
      <trkpt lat="45.94604" lon="4.73898">
        <ele>187</ele>
        <time>2016-12-10T13:03:06Z</time>
      </trkpt>
      <trkpt lat="45.94611" lon="4.73906">
        <ele>187</ele>
        <time>2016-12-10T13:03:08Z</time>
      </trkpt>
      <trkpt lat="45.94615" lon="4.7391">
        <ele>187</ele>
        <time>2016-12-10T13:03:09Z</time>
      </trkpt>
      <trkpt lat="45.94618" lon="4.73914">
        <ele>187</ele>
        <time>2016-12-10T13:03:10Z</time>
      </trkpt>
      <trkpt lat="45.94622" lon="4.73919">
        <ele>187</ele>
        <time>2016-12-10T13:03:11Z</time>
      </trkpt>
      <trkpt lat="45.94625" lon="4.73923">
        <ele>187</ele>
        <time>2016-12-10T13:03:12Z</time>
      </trkpt>
      <trkpt lat="45.94629" lon="4.73928">
        <ele>187</ele>
        <time>2016-12-10T13:03:13Z</time>
      </trkpt>
      <trkpt lat="45.94632" lon="4.73932">
        <ele>187</ele>
        <time>2016-12-10T13:03:14Z</time>
      </trkpt>
      <trkpt lat="45.94636" lon="4.73937">
        <ele>187</ele>
        <time>2016-12-10T13:03:15Z</time>
      </trkpt>
      <trkpt lat="45.94639" lon="4.73941">
        <ele>187</ele>
        <time>2016-12-10T13:03:16Z</time>
      </trkpt>
      <trkpt lat="45.94642" lon="4.73946">
        <ele>187</ele>
        <time>2016-12-10T13:03:17Z</time>
      </trkpt>
      <trkpt lat="45.94649" lon="4.73954">
        <ele>187</ele>
        <time>2016-12-10T13:03:19Z</time>
      </trkpt>
      <trkpt lat="45.94652" lon="4.73959">
        <ele>187</ele>
        <time>2016-12-10T13:03:20Z</time>
      </trkpt>
      <trkpt lat="45.94656" lon="4.73964">
        <ele>187</ele>
        <time>2016-12-10T13:03:21Z</time>
      </trkpt>
      <trkpt lat="45.94659" lon="4.73968">
        <ele>187</ele>
        <time>2016-12-10T13:03:22Z</time>
      </trkpt>
      <trkpt lat="45.94663" lon="4.73972">
        <ele>187</ele>
        <time>2016-12-10T13:03:23Z</time>
      </trkpt>
      <trkpt lat="45.94667" lon="4.73977">
        <ele>187</ele>
        <time>2016-12-10T13:03:24Z</time>
      </trkpt>
      <trkpt lat="45.9467" lon="4.73982">
        <ele>187</ele>
        <time>2016-12-10T13:03:25Z</time>
      </trkpt>
      <trkpt lat="45.94674" lon="4.73986">
        <ele>187</ele>
        <time>2016-12-10T13:03:26Z</time>
      </trkpt>
      <trkpt lat="45.94677" lon="4.73991">
        <ele>187</ele>
        <time>2016-12-10T13:03:27Z</time>
      </trkpt>
      <trkpt lat="45.9468" lon="4.73995">
        <ele>187</ele>
        <time>2016-12-10T13:03:28Z</time>
      </trkpt>
      <trkpt lat="45.94684" lon="4.74">
        <ele>187</ele>
        <time>2016-12-10T13:03:29Z</time>
      </trkpt>
      <trkpt lat="45.94687" lon="4.74005">
        <ele>187</ele>
        <time>2016-12-10T13:03:30Z</time>
      </trkpt>
      <trkpt lat="45.94691" lon="4.74009">
        <ele>187</ele>
        <time>2016-12-10T13:03:31Z</time>
      </trkpt>
      <trkpt lat="45.94694" lon="4.74014">
        <ele>187</ele>
        <time>2016-12-10T13:03:32Z</time>
      </trkpt>
      <trkpt lat="45.94697" lon="4.74018">
        <ele>187</ele>
        <time>2016-12-10T13:03:33Z</time>
      </trkpt>
      <trkpt lat="45.94701" lon="4.74023">
        <ele>187</ele>
        <time>2016-12-10T13:03:34Z</time>
      </trkpt>
      <trkpt lat="45.94707" lon="4.74031">
        <ele>187</ele>
        <time>2016-12-10T13:03:36Z</time>
      </trkpt>
      <trkpt lat="45.94711" lon="4.74035">
        <ele>187</ele>
        <time>2016-12-10T13:03:37Z</time>
      </trkpt>
      <trkpt lat="45.94714" lon="4.7404">
        <ele>187</ele>
        <time>2016-12-10T13:03:38Z</time>
      </trkpt>
      <trkpt lat="45.94717" lon="4.74045">
        <ele>187</ele>
        <time>2016-12-10T13:03:39Z</time>
      </trkpt>
      <trkpt lat="45.9472" lon="4.74049">
        <ele>187</ele>
        <time>2016-12-10T13:03:40Z</time>
      </trkpt>
      <trkpt lat="45.94724" lon="4.74054">
        <ele>188</ele>
        <time>2016-12-10T13:03:41Z</time>
      </trkpt>
      <trkpt lat="45.94727" lon="4.74058">
        <ele>188</ele>
        <time>2016-12-10T13:03:42Z</time>
      </trkpt>
      <trkpt lat="45.94731" lon="4.74063">
        <ele>188</ele>
        <time>2016-12-10T13:03:43Z</time>
      </trkpt>
      <trkpt lat="45.94735" lon="4.74068">
        <ele>188</ele>
        <time>2016-12-10T13:03:44Z</time>
      </trkpt>
      <trkpt lat="45.94738" lon="4.74073">
        <ele>188</ele>
        <time>2016-12-10T13:03:45Z</time>
      </trkpt>
      <trkpt lat="45.94742" lon="4.74078">
        <ele>188</ele>
        <time>2016-12-10T13:03:46Z</time>
      </trkpt>
      <trkpt lat="45.94745" lon="4.74082">
        <ele>189</ele>
        <time>2016-12-10T13:03:47Z</time>
      </trkpt>
      <trkpt lat="45.94749" lon="4.74087">
        <ele>189</ele>
        <time>2016-12-10T13:03:48Z</time>
      </trkpt>
      <trkpt lat="45.94752" lon="4.74091">
        <ele>189</ele>
        <time>2016-12-10T13:03:49Z</time>
      </trkpt>
      <trkpt lat="45.94755" lon="4.74096">
        <ele>189</ele>
        <time>2016-12-10T13:03:50Z</time>
      </trkpt>
      <trkpt lat="45.94759" lon="4.741">
        <ele>189</ele>
        <time>2016-12-10T13:03:51Z</time>
      </trkpt>
      <trkpt lat="45.94765" lon="4.74109">
        <ele>189</ele>
        <time>2016-12-10T13:03:53Z</time>
      </trkpt>
      <trkpt lat="45.94769" lon="4.74114">
        <ele>189</ele>
        <time>2016-12-10T13:03:54Z</time>
      </trkpt>
      <trkpt lat="45.94772" lon="4.74118">
        <ele>189</ele>
        <time>2016-12-10T13:03:55Z</time>
      </trkpt>
      <trkpt lat="45.94775" lon="4.74122">
        <ele>189</ele>
        <time>2016-12-10T13:03:56Z</time>
      </trkpt>
      <trkpt lat="45.94781" lon="4.74131">
        <ele>189</ele>
        <time>2016-12-10T13:03:58Z</time>
      </trkpt>
      <trkpt lat="45.94785" lon="4.74136">
        <ele>189</ele>
        <time>2016-12-10T13:03:59Z</time>
      </trkpt>
      <trkpt lat="45.94788" lon="4.74141">
        <ele>189</ele>
        <time>2016-12-10T13:04:00Z</time>
      </trkpt>
      <trkpt lat="45.94791" lon="4.74146">
        <ele>189</ele>
        <time>2016-12-10T13:04:01Z</time>
      </trkpt>
      <trkpt lat="45.94795" lon="4.7415">
        <ele>189</ele>
        <time>2016-12-10T13:04:02Z</time>
      </trkpt>
      <trkpt lat="45.94798" lon="4.74155">
        <ele>189</ele>
        <time>2016-12-10T13:04:03Z</time>
      </trkpt>
      <trkpt lat="45.948" lon="4.74161">
        <ele>189</ele>
        <time>2016-12-10T13:04:04Z</time>
      </trkpt>
      <trkpt lat="45.94803" lon="4.74166">
        <ele>189</ele>
        <time>2016-12-10T13:04:05Z</time>
      </trkpt>
      <trkpt lat="45.94807" lon="4.74171">
        <ele>189</ele>
        <time>2016-12-10T13:04:06Z</time>
      </trkpt>
      <trkpt lat="45.9481" lon="4.74176">
        <ele>189</ele>
        <time>2016-12-10T13:04:07Z</time>
      </trkpt>
      <trkpt lat="45.94812" lon="4.74181">
        <ele>189</ele>
        <time>2016-12-10T13:04:08Z</time>
      </trkpt>
      <trkpt lat="45.94815" lon="4.74187">
        <ele>189</ele>
        <time>2016-12-10T13:04:09Z</time>
      </trkpt>
      <trkpt lat="45.94818" lon="4.74192">
        <ele>189</ele>
        <time>2016-12-10T13:04:10Z</time>
      </trkpt>
      <trkpt lat="45.94821" lon="4.74197">
        <ele>189</ele>
        <time>2016-12-10T13:04:11Z</time>
      </trkpt>
      <trkpt lat="45.94824" lon="4.74203">
        <ele>189</ele>
        <time>2016-12-10T13:04:12Z</time>
      </trkpt>
      <trkpt lat="45.94827" lon="4.74208">
        <ele>189</ele>
        <time>2016-12-10T13:04:13Z</time>
      </trkpt>
      <trkpt lat="45.94829" lon="4.74214">
        <ele>188</ele>
        <time>2016-12-10T13:04:14Z</time>
      </trkpt>
      <trkpt lat="45.94832" lon="4.7422">
        <ele>188</ele>
        <time>2016-12-10T13:04:15Z</time>
      </trkpt>
      <trkpt lat="45.94835" lon="4.74225">
        <ele>190</ele>
        <time>2016-12-10T13:04:16Z</time>
      </trkpt>
      <trkpt lat="45.94838" lon="4.74231">
        <ele>190</ele>
        <time>2016-12-10T13:04:17Z</time>
      </trkpt>
      <trkpt lat="45.94841" lon="4.74236">
        <ele>190</ele>
        <time>2016-12-10T13:04:18Z</time>
      </trkpt>
      <trkpt lat="45.94844" lon="4.74242">
        <ele>190</ele>
        <time>2016-12-10T13:04:19Z</time>
      </trkpt>
      <trkpt lat="45.94847" lon="4.74248">
        <ele>190</ele>
        <time>2016-12-10T13:04:20Z</time>
      </trkpt>
      <trkpt lat="45.9485" lon="4.74253">
        <ele>190</ele>
        <time>2016-12-10T13:04:21Z</time>
      </trkpt>
      <trkpt lat="45.94853" lon="4.74258">
        <ele>190</ele>
        <time>2016-12-10T13:04:22Z</time>
      </trkpt>
      <trkpt lat="45.94856" lon="4.74263">
        <ele>190</ele>
        <time>2016-12-10T13:04:23Z</time>
      </trkpt>
      <trkpt lat="45.94859" lon="4.74269">
        <ele>190</ele>
        <time>2016-12-10T13:04:24Z</time>
      </trkpt>
      <trkpt lat="45.94862" lon="4.74274">
        <ele>190</ele>
        <time>2016-12-10T13:04:25Z</time>
      </trkpt>
      <trkpt lat="45.94865" lon="4.7428">
        <ele>191</ele>
        <time>2016-12-10T13:04:26Z</time>
      </trkpt>
      <trkpt lat="45.94868" lon="4.74285">
        <ele>191</ele>
        <time>2016-12-10T13:04:27Z</time>
      </trkpt>
      <trkpt lat="45.9487" lon="4.74291">
        <ele>191</ele>
        <time>2016-12-10T13:04:28Z</time>
      </trkpt>
      <trkpt lat="45.94873" lon="4.74296">
        <ele>191</ele>
        <time>2016-12-10T13:04:29Z</time>
      </trkpt>
      <trkpt lat="45.94875" lon="4.74302">
        <ele>191</ele>
        <time>2016-12-10T13:04:30Z</time>
      </trkpt>
      <trkpt lat="45.94878" lon="4.74307">
        <ele>191</ele>
        <time>2016-12-10T13:04:31Z</time>
      </trkpt>
      <trkpt lat="45.94883" lon="4.74318">
        <ele>191</ele>
        <time>2016-12-10T13:04:33Z</time>
      </trkpt>
      <trkpt lat="45.94886" lon="4.74323">
        <ele>191</ele>
        <time>2016-12-10T13:04:34Z</time>
      </trkpt>
      <trkpt lat="45.94889" lon="4.74329">
        <ele>191</ele>
        <time>2016-12-10T13:04:35Z</time>
      </trkpt>
      <trkpt lat="45.94891" lon="4.74335">
        <ele>191</ele>
        <time>2016-12-10T13:04:36Z</time>
      </trkpt>
      <trkpt lat="45.94893" lon="4.74341">
        <ele>191</ele>
        <time>2016-12-10T13:04:37Z</time>
      </trkpt>
      <trkpt lat="45.94896" lon="4.74347">
        <ele>191</ele>
        <time>2016-12-10T13:04:38Z</time>
      </trkpt>
      <trkpt lat="45.94899" lon="4.74353">
        <ele>191</ele>
        <time>2016-12-10T13:04:39Z</time>
      </trkpt>
      <trkpt lat="45.94902" lon="4.74359">
        <ele>191</ele>
        <time>2016-12-10T13:04:40Z</time>
      </trkpt>
      <trkpt lat="45.94905" lon="4.74365">
        <ele>191</ele>
        <time>2016-12-10T13:04:41Z</time>
      </trkpt>
      <trkpt lat="45.94908" lon="4.74371">
        <ele>191</ele>
        <time>2016-12-10T13:04:42Z</time>
      </trkpt>
      <trkpt lat="45.94911" lon="4.74377">
        <ele>191</ele>
        <time>2016-12-10T13:04:43Z</time>
      </trkpt>
      <trkpt lat="45.94914" lon="4.74383">
        <ele>191</ele>
        <time>2016-12-10T13:04:44Z</time>
      </trkpt>
      <trkpt lat="45.94917" lon="4.74388">
        <ele>192</ele>
        <time>2016-12-10T13:04:45Z</time>
      </trkpt>
      <trkpt lat="45.9492" lon="4.74394">
        <ele>192</ele>
        <time>2016-12-10T13:04:46Z</time>
      </trkpt>
      <trkpt lat="45.94923" lon="4.744">
        <ele>192</ele>
        <time>2016-12-10T13:04:47Z</time>
      </trkpt>
      <trkpt lat="45.94926" lon="4.74405">
        <ele>192</ele>
        <time>2016-12-10T13:04:48Z</time>
      </trkpt>
      <trkpt lat="45.94929" lon="4.74411">
        <ele>192</ele>
        <time>2016-12-10T13:04:49Z</time>
      </trkpt>
      <trkpt lat="45.94932" lon="4.74416">
        <ele>192</ele>
        <time>2016-12-10T13:04:50Z</time>
      </trkpt>
      <trkpt lat="45.94935" lon="4.74422">
        <ele>192</ele>
        <time>2016-12-10T13:04:51Z</time>
      </trkpt>
      <trkpt lat="45.94938" lon="4.74427">
        <ele>192</ele>
        <time>2016-12-10T13:04:52Z</time>
      </trkpt>
      <trkpt lat="45.94941" lon="4.74433">
        <ele>192</ele>
        <time>2016-12-10T13:04:53Z</time>
      </trkpt>
      <trkpt lat="45.94944" lon="4.74439">
        <ele>192</ele>
        <time>2016-12-10T13:04:54Z</time>
      </trkpt>
      <trkpt lat="45.94947" lon="4.74444">
        <ele>192</ele>
        <time>2016-12-10T13:04:55Z</time>
      </trkpt>
      <trkpt lat="45.9495" lon="4.7445">
        <ele>192</ele>
        <time>2016-12-10T13:04:56Z</time>
      </trkpt>
      <trkpt lat="45.94953" lon="4.74455">
        <ele>192</ele>
        <time>2016-12-10T13:04:57Z</time>
      </trkpt>
      <trkpt lat="45.94956" lon="4.7446">
        <ele>193</ele>
        <time>2016-12-10T13:04:58Z</time>
      </trkpt>
      <trkpt lat="45.94959" lon="4.74466">
        <ele>193</ele>
        <time>2016-12-10T13:04:59Z</time>
      </trkpt>
      <trkpt lat="45.94962" lon="4.74471">
        <ele>193</ele>
        <time>2016-12-10T13:05:00Z</time>
      </trkpt>
      <trkpt lat="45.94965" lon="4.74476">
        <ele>193</ele>
        <time>2016-12-10T13:05:01Z</time>
      </trkpt>
      <trkpt lat="45.94968" lon="4.74482">
        <ele>193</ele>
        <time>2016-12-10T13:05:02Z</time>
      </trkpt>
      <trkpt lat="45.9497" lon="4.74487">
        <ele>193</ele>
        <time>2016-12-10T13:05:03Z</time>
      </trkpt>
      <trkpt lat="45.94973" lon="4.74493">
        <ele>193</ele>
        <time>2016-12-10T13:05:04Z</time>
      </trkpt>
      <trkpt lat="45.94976" lon="4.74499">
        <ele>193</ele>
        <time>2016-12-10T13:05:05Z</time>
      </trkpt>
      <trkpt lat="45.94979" lon="4.74505">
        <ele>193</ele>
        <time>2016-12-10T13:05:06Z</time>
      </trkpt>
      <trkpt lat="45.94982" lon="4.7451">
        <ele>193</ele>
        <time>2016-12-10T13:05:07Z</time>
      </trkpt>
      <trkpt lat="45.94985" lon="4.74516">
        <ele>193</ele>
        <time>2016-12-10T13:05:08Z</time>
      </trkpt>
      <trkpt lat="45.94988" lon="4.74521">
        <ele>193</ele>
        <time>2016-12-10T13:05:09Z</time>
      </trkpt>
      <trkpt lat="45.94991" lon="4.74527">
        <ele>193</ele>
        <time>2016-12-10T13:05:10Z</time>
      </trkpt>
      <trkpt lat="45.94994" lon="4.74532">
        <ele>193</ele>
        <time>2016-12-10T13:05:11Z</time>
      </trkpt>
      <trkpt lat="45.94997" lon="4.74538">
        <ele>193</ele>
        <time>2016-12-10T13:05:12Z</time>
      </trkpt>
      <trkpt lat="45.94999" lon="4.74543">
        <ele>193</ele>
        <time>2016-12-10T13:05:13Z</time>
      </trkpt>
      <trkpt lat="45.95002" lon="4.74548">
        <ele>194</ele>
        <time>2016-12-10T13:05:14Z</time>
      </trkpt>
      <trkpt lat="45.95005" lon="4.74554">
        <ele>194</ele>
        <time>2016-12-10T13:05:15Z</time>
      </trkpt>
      <trkpt lat="45.95008" lon="4.74559">
        <ele>194</ele>
        <time>2016-12-10T13:05:16Z</time>
      </trkpt>
      <trkpt lat="45.9501" lon="4.74565">
        <ele>194</ele>
        <time>2016-12-10T13:05:17Z</time>
      </trkpt>
      <trkpt lat="45.95013" lon="4.7457">
        <ele>194</ele>
        <time>2016-12-10T13:05:18Z</time>
      </trkpt>
      <trkpt lat="45.95018" lon="4.7458">
        <ele>194</ele>
        <time>2016-12-10T13:05:20Z</time>
      </trkpt>
      <trkpt lat="45.95021" lon="4.74585">
        <ele>194</ele>
        <time>2016-12-10T13:05:21Z</time>
      </trkpt>
      <trkpt lat="45.95026" lon="4.74595">
        <ele>194</ele>
        <time>2016-12-10T13:05:23Z</time>
      </trkpt>
      <trkpt lat="45.95029" lon="4.746">
        <ele>194</ele>
        <time>2016-12-10T13:05:24Z</time>
      </trkpt>
      <trkpt lat="45.95032" lon="4.74605">
        <ele>194</ele>
        <time>2016-12-10T13:05:25Z</time>
      </trkpt>
      <trkpt lat="45.95035" lon="4.7461">
        <ele>194</ele>
        <time>2016-12-10T13:05:26Z</time>
      </trkpt>
      <trkpt lat="45.95037" lon="4.74615">
        <ele>194</ele>
        <time>2016-12-10T13:05:27Z</time>
      </trkpt>
      <trkpt lat="45.9504" lon="4.7462">
        <ele>194</ele>
        <time>2016-12-10T13:05:28Z</time>
      </trkpt>
      <trkpt lat="45.95043" lon="4.74626">
        <ele>194</ele>
        <time>2016-12-10T13:05:29Z</time>
      </trkpt>
      <trkpt lat="45.95046" lon="4.74632">
        <ele>194</ele>
        <time>2016-12-10T13:05:30Z</time>
      </trkpt>
      <trkpt lat="45.95048" lon="4.74637">
        <ele>194</ele>
        <time>2016-12-10T13:05:31Z</time>
      </trkpt>
      <trkpt lat="45.95052" lon="4.74643">
        <ele>194</ele>
        <time>2016-12-10T13:05:32Z</time>
      </trkpt>
      <trkpt lat="45.95055" lon="4.74649">
        <ele>194</ele>
        <time>2016-12-10T13:05:33Z</time>
      </trkpt>
      <trkpt lat="45.95058" lon="4.74655">
        <ele>194</ele>
        <time>2016-12-10T13:05:34Z</time>
      </trkpt>
      <trkpt lat="45.95061" lon="4.74661">
        <ele>195</ele>
        <time>2016-12-10T13:05:35Z</time>
      </trkpt>
      <trkpt lat="45.95064" lon="4.74667">
        <ele>195</ele>
        <time>2016-12-10T13:05:36Z</time>
      </trkpt>
      <trkpt lat="45.95068" lon="4.74673">
        <ele>194</ele>
        <time>2016-12-10T13:05:37Z</time>
      </trkpt>
      <trkpt lat="45.9507" lon="4.7468">
        <ele>194</ele>
        <time>2016-12-10T13:05:38Z</time>
      </trkpt>
      <trkpt lat="45.95074" lon="4.74686">
        <ele>194</ele>
        <time>2016-12-10T13:05:39Z</time>
      </trkpt>
      <trkpt lat="45.95078" lon="4.74692">
        <ele>194</ele>
        <time>2016-12-10T13:05:40Z</time>
      </trkpt>
      <trkpt lat="45.95081" lon="4.74697">
        <ele>194</ele>
        <time>2016-12-10T13:05:41Z</time>
      </trkpt>
      <trkpt lat="45.95085" lon="4.74703">
        <ele>194</ele>
        <time>2016-12-10T13:05:42Z</time>
      </trkpt>
      <trkpt lat="45.95088" lon="4.74709">
        <ele>194</ele>
        <time>2016-12-10T13:05:43Z</time>
      </trkpt>
      <trkpt lat="45.95091" lon="4.74714">
        <ele>194</ele>
        <time>2016-12-10T13:05:44Z</time>
      </trkpt>
      <trkpt lat="45.95094" lon="4.7472">
        <ele>194</ele>
        <time>2016-12-10T13:05:45Z</time>
      </trkpt>
      <trkpt lat="45.95097" lon="4.74725">
        <ele>194</ele>
        <time>2016-12-10T13:05:46Z</time>
      </trkpt>
      <trkpt lat="45.951" lon="4.7473">
        <ele>194</ele>
        <time>2016-12-10T13:05:47Z</time>
      </trkpt>
      <trkpt lat="45.95103" lon="4.74736">
        <ele>194</ele>
        <time>2016-12-10T13:05:48Z</time>
      </trkpt>
      <trkpt lat="45.95106" lon="4.74741">
        <ele>194</ele>
        <time>2016-12-10T13:05:49Z</time>
      </trkpt>
      <trkpt lat="45.9511" lon="4.74746">
        <ele>194</ele>
        <time>2016-12-10T13:05:50Z</time>
      </trkpt>
      <trkpt lat="45.95113" lon="4.74751">
        <ele>194</ele>
        <time>2016-12-10T13:05:51Z</time>
      </trkpt>
      <trkpt lat="45.95116" lon="4.74756">
        <ele>194</ele>
        <time>2016-12-10T13:05:52Z</time>
      </trkpt>
      <trkpt lat="45.95119" lon="4.74761">
        <ele>194</ele>
        <time>2016-12-10T13:05:53Z</time>
      </trkpt>
      <trkpt lat="45.95122" lon="4.74766">
        <ele>194</ele>
        <time>2016-12-10T13:05:54Z</time>
      </trkpt>
      <trkpt lat="45.95125" lon="4.74771">
        <ele>194</ele>
        <time>2016-12-10T13:05:55Z</time>
      </trkpt>
      <trkpt lat="45.95128" lon="4.74776">
        <ele>194</ele>
        <time>2016-12-10T13:05:56Z</time>
      </trkpt>
      <trkpt lat="45.95133" lon="4.74786">
        <ele>194</ele>
        <time>2016-12-10T13:05:58Z</time>
      </trkpt>
      <trkpt lat="45.95137" lon="4.74791">
        <ele>194</ele>
        <time>2016-12-10T13:05:59Z</time>
      </trkpt>
      <trkpt lat="45.9514" lon="4.74796">
        <ele>194</ele>
        <time>2016-12-10T13:06:00Z</time>
      </trkpt>
      <trkpt lat="45.95143" lon="4.74801">
        <ele>194</ele>
        <time>2016-12-10T13:06:01Z</time>
      </trkpt>
      <trkpt lat="45.95147" lon="4.74806">
        <ele>194</ele>
        <time>2016-12-10T13:06:02Z</time>
      </trkpt>
      <trkpt lat="45.9515" lon="4.7481">
        <ele>194</ele>
        <time>2016-12-10T13:06:03Z</time>
      </trkpt>
      <trkpt lat="45.95153" lon="4.74815">
        <ele>194</ele>
        <time>2016-12-10T13:06:04Z</time>
      </trkpt>
      <trkpt lat="45.95156" lon="4.74819">
        <ele>194</ele>
        <time>2016-12-10T13:06:05Z</time>
      </trkpt>
      <trkpt lat="45.9516" lon="4.74824">
        <ele>194</ele>
        <time>2016-12-10T13:06:06Z</time>
      </trkpt>
      <trkpt lat="45.95163" lon="4.74829">
        <ele>194</ele>
        <time>2016-12-10T13:06:07Z</time>
      </trkpt>
      <trkpt lat="45.95166" lon="4.74834">
        <ele>194</ele>
        <time>2016-12-10T13:06:08Z</time>
      </trkpt>
      <trkpt lat="45.95168" lon="4.7484">
        <ele>194</ele>
        <time>2016-12-10T13:06:09Z</time>
      </trkpt>
      <trkpt lat="45.95171" lon="4.74846">
        <ele>194</ele>
        <time>2016-12-10T13:06:10Z</time>
      </trkpt>
      <trkpt lat="45.95174" lon="4.74852">
        <ele>194</ele>
        <time>2016-12-10T13:06:11Z</time>
      </trkpt>
      <trkpt lat="45.95178" lon="4.74857">
        <ele>194</ele>
        <time>2016-12-10T13:06:12Z</time>
      </trkpt>
      <trkpt lat="45.95181" lon="4.74862">
        <ele>194</ele>
        <time>2016-12-10T13:06:13Z</time>
      </trkpt>
      <trkpt lat="45.95185" lon="4.74867">
        <ele>194</ele>
        <time>2016-12-10T13:06:14Z</time>
      </trkpt>
      <trkpt lat="45.95188" lon="4.74872">
        <ele>194</ele>
        <time>2016-12-10T13:06:15Z</time>
      </trkpt>
      <trkpt lat="45.95191" lon="4.74877">
        <ele>194</ele>
        <time>2016-12-10T13:06:16Z</time>
      </trkpt>
      <trkpt lat="45.95194" lon="4.74883">
        <ele>194</ele>
        <time>2016-12-10T13:06:17Z</time>
      </trkpt>
      <trkpt lat="45.95197" lon="4.74888">
        <ele>194</ele>
        <time>2016-12-10T13:06:18Z</time>
      </trkpt>
      <trkpt lat="45.95201" lon="4.74893">
        <ele>194</ele>
        <time>2016-12-10T13:06:19Z</time>
      </trkpt>
      <trkpt lat="45.95204" lon="4.74899">
        <ele>194</ele>
        <time>2016-12-10T13:06:20Z</time>
      </trkpt>
      <trkpt lat="45.95208" lon="4.74904">
        <ele>194</ele>
        <time>2016-12-10T13:06:21Z</time>
      </trkpt>
      <trkpt lat="45.95211" lon="4.74909">
        <ele>193</ele>
        <time>2016-12-10T13:06:22Z</time>
      </trkpt>
      <trkpt lat="45.95214" lon="4.74915">
        <ele>193</ele>
        <time>2016-12-10T13:06:23Z</time>
      </trkpt>
      <trkpt lat="45.95217" lon="4.7492">
        <ele>192</ele>
        <time>2016-12-10T13:06:24Z</time>
      </trkpt>
      <trkpt lat="45.95221" lon="4.74925">
        <ele>192</ele>
        <time>2016-12-10T13:06:25Z</time>
      </trkpt>
      <trkpt lat="45.95224" lon="4.7493">
        <ele>192</ele>
        <time>2016-12-10T13:06:26Z</time>
      </trkpt>
      <trkpt lat="45.95228" lon="4.74935">
        <ele>192</ele>
        <time>2016-12-10T13:06:27Z</time>
      </trkpt>
      <trkpt lat="45.95231" lon="4.7494">
        <ele>192</ele>
        <time>2016-12-10T13:06:28Z</time>
      </trkpt>
      <trkpt lat="45.95234" lon="4.74946">
        <ele>192</ele>
        <time>2016-12-10T13:06:29Z</time>
      </trkpt>
      <trkpt lat="45.95238" lon="4.74951">
        <ele>192</ele>
        <time>2016-12-10T13:06:30Z</time>
      </trkpt>
      <trkpt lat="45.95242" lon="4.74956">
        <ele>192</ele>
        <time>2016-12-10T13:06:31Z</time>
      </trkpt>
      <trkpt lat="45.95245" lon="4.74962">
        <ele>191</ele>
        <time>2016-12-10T13:06:32Z</time>
      </trkpt>
      <trkpt lat="45.95248" lon="4.74967">
        <ele>191</ele>
        <time>2016-12-10T13:06:33Z</time>
      </trkpt>
      <trkpt lat="45.95251" lon="4.74972">
        <ele>192</ele>
        <time>2016-12-10T13:06:34Z</time>
      </trkpt>
      <trkpt lat="45.95255" lon="4.74978">
        <ele>192</ele>
        <time>2016-12-10T13:06:35Z</time>
      </trkpt>
      <trkpt lat="45.95258" lon="4.74983">
        <ele>192</ele>
        <time>2016-12-10T13:06:36Z</time>
      </trkpt>
      <trkpt lat="45.95261" lon="4.74989">
        <ele>192</ele>
        <time>2016-12-10T13:06:37Z</time>
      </trkpt>
      <trkpt lat="45.95265" lon="4.74994">
        <ele>192</ele>
        <time>2016-12-10T13:06:38Z</time>
      </trkpt>
      <trkpt lat="45.95269" lon="4.75">
        <ele>191</ele>
        <time>2016-12-10T13:06:39Z</time>
      </trkpt>
      <trkpt lat="45.95272" lon="4.75006">
        <ele>191</ele>
        <time>2016-12-10T13:06:40Z</time>
      </trkpt>
      <trkpt lat="45.95276" lon="4.75012">
        <ele>191</ele>
        <time>2016-12-10T13:06:41Z</time>
      </trkpt>
      <trkpt lat="45.9528" lon="4.75018">
        <ele>191</ele>
        <time>2016-12-10T13:06:42Z</time>
      </trkpt>
      <trkpt lat="45.95284" lon="4.75024">
        <ele>191</ele>
        <time>2016-12-10T13:06:43Z</time>
      </trkpt>
      <trkpt lat="45.95288" lon="4.7503">
        <ele>191</ele>
        <time>2016-12-10T13:06:44Z</time>
      </trkpt>
      <trkpt lat="45.95293" lon="4.75036">
        <ele>191</ele>
        <time>2016-12-10T13:06:45Z</time>
      </trkpt>
      <trkpt lat="45.95297" lon="4.75041">
        <ele>191</ele>
        <time>2016-12-10T13:06:46Z</time>
      </trkpt>
      <trkpt lat="45.95301" lon="4.75047">
        <ele>191</ele>
        <time>2016-12-10T13:06:47Z</time>
      </trkpt>
      <trkpt lat="45.95304" lon="4.75053">
        <ele>191</ele>
        <time>2016-12-10T13:06:48Z</time>
      </trkpt>
      <trkpt lat="45.95308" lon="4.75059">
        <ele>192</ele>
        <time>2016-12-10T13:06:49Z</time>
      </trkpt>
      <trkpt lat="45.95312" lon="4.75065">
        <ele>192</ele>
        <time>2016-12-10T13:06:50Z</time>
      </trkpt>
      <trkpt lat="45.95316" lon="4.75071">
        <ele>192</ele>
        <time>2016-12-10T13:06:51Z</time>
      </trkpt>
      <trkpt lat="45.9532" lon="4.75077">
        <ele>192</ele>
        <time>2016-12-10T13:06:52Z</time>
      </trkpt>
      <trkpt lat="45.95324" lon="4.75083">
        <ele>192</ele>
        <time>2016-12-10T13:06:53Z</time>
      </trkpt>
      <trkpt lat="45.95328" lon="4.75089">
        <ele>192</ele>
        <time>2016-12-10T13:06:54Z</time>
      </trkpt>
      <trkpt lat="45.95332" lon="4.75095">
        <ele>191</ele>
        <time>2016-12-10T13:06:55Z</time>
      </trkpt>
      <trkpt lat="45.95336" lon="4.75101">
        <ele>192</ele>
        <time>2016-12-10T13:06:56Z</time>
      </trkpt>
      <trkpt lat="45.9534" lon="4.75108">
        <ele>192</ele>
        <time>2016-12-10T13:06:57Z</time>
      </trkpt>
      <trkpt lat="45.95343" lon="4.75113">
        <ele>192</ele>
        <time>2016-12-10T13:06:58Z</time>
      </trkpt>
      <trkpt lat="45.95347" lon="4.7512">
        <ele>191</ele>
        <time>2016-12-10T13:06:59Z</time>
      </trkpt>
      <trkpt lat="45.95351" lon="4.75126">
        <ele>191</ele>
        <time>2016-12-10T13:07:00Z</time>
      </trkpt>
      <trkpt lat="45.95355" lon="4.75131">
        <ele>191</ele>
        <time>2016-12-10T13:07:01Z</time>
      </trkpt>
      <trkpt lat="45.95359" lon="4.75137">
        <ele>191</ele>
        <time>2016-12-10T13:07:02Z</time>
      </trkpt>
      <trkpt lat="45.95363" lon="4.75144">
        <ele>191</ele>
        <time>2016-12-10T13:07:03Z</time>
      </trkpt>
      <trkpt lat="45.95367" lon="4.7515">
        <ele>191</ele>
        <time>2016-12-10T13:07:04Z</time>
      </trkpt>
      <trkpt lat="45.95371" lon="4.75157">
        <ele>191</ele>
        <time>2016-12-10T13:07:05Z</time>
      </trkpt>
      <trkpt lat="45.95375" lon="4.75163">
        <ele>191</ele>
        <time>2016-12-10T13:07:06Z</time>
      </trkpt>
      <trkpt lat="45.95379" lon="4.7517">
        <ele>189</ele>
        <time>2016-12-10T13:07:07Z</time>
      </trkpt>
      <trkpt lat="45.95383" lon="4.75177">
        <ele>189</ele>
        <time>2016-12-10T13:07:08Z</time>
      </trkpt>
      <trkpt lat="45.95387" lon="4.75183">
        <ele>189</ele>
        <time>2016-12-10T13:07:09Z</time>
      </trkpt>
      <trkpt lat="45.95391" lon="4.75189">
        <ele>189</ele>
        <time>2016-12-10T13:07:10Z</time>
      </trkpt>
      <trkpt lat="45.95395" lon="4.75196">
        <ele>189</ele>
        <time>2016-12-10T13:07:11Z</time>
      </trkpt>
      <trkpt lat="45.95399" lon="4.75202">
        <ele>189</ele>
        <time>2016-12-10T13:07:12Z</time>
      </trkpt>
      <trkpt lat="45.95402" lon="4.75209">
        <ele>189</ele>
        <time>2016-12-10T13:07:13Z</time>
      </trkpt>
      <trkpt lat="45.95406" lon="4.75215">
        <ele>189</ele>
        <time>2016-12-10T13:07:14Z</time>
      </trkpt>
      <trkpt lat="45.95409" lon="4.75221">
        <ele>189</ele>
        <time>2016-12-10T13:07:15Z</time>
      </trkpt>
      <trkpt lat="45.95413" lon="4.75228">
        <ele>189</ele>
        <time>2016-12-10T13:07:16Z</time>
      </trkpt>
      <trkpt lat="45.95417" lon="4.75235">
        <ele>189</ele>
        <time>2016-12-10T13:07:17Z</time>
      </trkpt>
      <trkpt lat="45.9542" lon="4.75242">
        <ele>190</ele>
        <time>2016-12-10T13:07:18Z</time>
      </trkpt>
      <trkpt lat="45.95423" lon="4.75248">
        <ele>190</ele>
        <time>2016-12-10T13:07:19Z</time>
      </trkpt>
      <trkpt lat="45.95427" lon="4.75255">
        <ele>189</ele>
        <time>2016-12-10T13:07:20Z</time>
      </trkpt>
      <trkpt lat="45.95431" lon="4.75262">
        <ele>189</ele>
        <time>2016-12-10T13:07:21Z</time>
      </trkpt>
      <trkpt lat="45.95435" lon="4.75269">
        <ele>189</ele>
        <time>2016-12-10T13:07:22Z</time>
      </trkpt>
      <trkpt lat="45.95438" lon="4.75277">
        <ele>188</ele>
        <time>2016-12-10T13:07:23Z</time>
      </trkpt>
      <trkpt lat="45.95442" lon="4.75284">
        <ele>188</ele>
        <time>2016-12-10T13:07:24Z</time>
      </trkpt>
      <trkpt lat="45.95446" lon="4.75291">
        <ele>188</ele>
        <time>2016-12-10T13:07:25Z</time>
      </trkpt>
      <trkpt lat="45.9545" lon="4.75298">
        <ele>188</ele>
        <time>2016-12-10T13:07:26Z</time>
      </trkpt>
      <trkpt lat="45.95453" lon="4.75305">
        <ele>188</ele>
        <time>2016-12-10T13:07:27Z</time>
      </trkpt>
      <trkpt lat="45.95457" lon="4.75312">
        <ele>188</ele>
        <time>2016-12-10T13:07:28Z</time>
      </trkpt>
      <trkpt lat="45.95461" lon="4.75319">
        <ele>188</ele>
        <time>2016-12-10T13:07:29Z</time>
      </trkpt>
      <trkpt lat="45.95465" lon="4.75326">
        <ele>188</ele>
        <time>2016-12-10T13:07:30Z</time>
      </trkpt>
      <trkpt lat="45.95469" lon="4.75333">
        <ele>188</ele>
        <time>2016-12-10T13:07:31Z</time>
      </trkpt>
      <trkpt lat="45.95473" lon="4.7534">
        <ele>186</ele>
        <time>2016-12-10T13:07:32Z</time>
      </trkpt>
      <trkpt lat="45.95476" lon="4.75347">
        <ele>186</ele>
        <time>2016-12-10T13:07:33Z</time>
      </trkpt>
      <trkpt lat="45.9548" lon="4.75354">
        <ele>186</ele>
        <time>2016-12-10T13:07:34Z</time>
      </trkpt>
      <trkpt lat="45.95483" lon="4.75362">
        <ele>186</ele>
        <time>2016-12-10T13:07:35Z</time>
      </trkpt>
      <trkpt lat="45.95487" lon="4.75369">
        <ele>185</ele>
        <time>2016-12-10T13:07:36Z</time>
      </trkpt>
      <trkpt lat="45.95491" lon="4.75376">
        <ele>185</ele>
        <time>2016-12-10T13:07:37Z</time>
      </trkpt>
      <trkpt lat="45.95494" lon="4.75384">
        <ele>185</ele>
        <time>2016-12-10T13:07:38Z</time>
      </trkpt>
      <trkpt lat="45.95498" lon="4.75391">
        <ele>185</ele>
        <time>2016-12-10T13:07:39Z</time>
      </trkpt>
      <trkpt lat="45.955" lon="4.75399">
        <ele>187</ele>
        <time>2016-12-10T13:07:40Z</time>
      </trkpt>
      <trkpt lat="45.95503" lon="4.75407">
        <ele>187</ele>
        <time>2016-12-10T13:07:41Z</time>
      </trkpt>
      <trkpt lat="45.95505" lon="4.75415">
        <ele>186</ele>
        <time>2016-12-10T13:07:42Z</time>
      </trkpt>
      <trkpt lat="45.95506" lon="4.75423">
        <ele>186</ele>
        <time>2016-12-10T13:07:43Z</time>
      </trkpt>
      <trkpt lat="45.95507" lon="4.75432">
        <ele>186</ele>
        <time>2016-12-10T13:07:44Z</time>
      </trkpt>
      <trkpt lat="45.95508" lon="4.75441">
        <ele>186</ele>
        <time>2016-12-10T13:07:45Z</time>
      </trkpt>
      <trkpt lat="45.95509" lon="4.7545">
        <ele>187</ele>
        <time>2016-12-10T13:07:46Z</time>
      </trkpt>
      <trkpt lat="45.95508" lon="4.75459">
        <ele>186</ele>
        <time>2016-12-10T13:07:47Z</time>
      </trkpt>
      <trkpt lat="45.95508" lon="4.75468">
        <ele>186</ele>
        <time>2016-12-10T13:07:48Z</time>
      </trkpt>
      <trkpt lat="45.95509" lon="4.75477">
        <ele>186</ele>
        <time>2016-12-10T13:07:49Z</time>
      </trkpt>
      <trkpt lat="45.95511" lon="4.75486">
        <ele>186</ele>
        <time>2016-12-10T13:07:50Z</time>
      </trkpt>
      <trkpt lat="45.95514" lon="4.75493">
        <ele>186</ele>
        <time>2016-12-10T13:07:51Z</time>
      </trkpt>
      <trkpt lat="45.95518" lon="4.75498">
        <ele>186</ele>
        <time>2016-12-10T13:07:52Z</time>
      </trkpt>
      <trkpt lat="45.95523" lon="4.75503">
        <ele>185</ele>
        <time>2016-12-10T13:07:53Z</time>
      </trkpt>
      <trkpt lat="45.95528" lon="4.75507">
        <ele>185</ele>
        <time>2016-12-10T13:07:54Z</time>
      </trkpt>
      <trkpt lat="45.95533" lon="4.75512">
        <ele>185</ele>
        <time>2016-12-10T13:07:55Z</time>
      </trkpt>
      <trkpt lat="45.95539" lon="4.75517">
        <ele>186</ele>
        <time>2016-12-10T13:07:56Z</time>
      </trkpt>
      <trkpt lat="45.95544" lon="4.75522">
        <ele>186</ele>
        <time>2016-12-10T13:07:57Z</time>
      </trkpt>
      <trkpt lat="45.95549" lon="4.75527">
        <ele>186</ele>
        <time>2016-12-10T13:07:58Z</time>
      </trkpt>
      <trkpt lat="45.95554" lon="4.75532">
        <ele>186</ele>
        <time>2016-12-10T13:07:59Z</time>
      </trkpt>
      <trkpt lat="45.95559" lon="4.75536">
        <ele>186</ele>
        <time>2016-12-10T13:08:00Z</time>
      </trkpt>
      <trkpt lat="45.95564" lon="4.7554">
        <ele>186</ele>
        <time>2016-12-10T13:08:01Z</time>
      </trkpt>
      <trkpt lat="45.95568" lon="4.75545">
        <ele>186</ele>
        <time>2016-12-10T13:08:02Z</time>
      </trkpt>
      <trkpt lat="45.95572" lon="4.75549">
        <ele>186</ele>
        <time>2016-12-10T13:08:03Z</time>
      </trkpt>
      <trkpt lat="45.95576" lon="4.75554">
        <ele>186</ele>
        <time>2016-12-10T13:08:04Z</time>
      </trkpt>
      <trkpt lat="45.9558" lon="4.75559">
        <ele>186</ele>
        <time>2016-12-10T13:08:05Z</time>
      </trkpt>
      <trkpt lat="45.95584" lon="4.75564">
        <ele>188</ele>
        <time>2016-12-10T13:08:06Z</time>
      </trkpt>
      <trkpt lat="45.95588" lon="4.7557">
        <ele>188</ele>
        <time>2016-12-10T13:08:07Z</time>
      </trkpt>
      <trkpt lat="45.95591" lon="4.75576">
        <ele>187</ele>
        <time>2016-12-10T13:08:08Z</time>
      </trkpt>
      <trkpt lat="45.95594" lon="4.75582">
        <ele>187</ele>
        <time>2016-12-10T13:08:09Z</time>
      </trkpt>
      <trkpt lat="45.95597" lon="4.75589">
        <ele>187</ele>
        <time>2016-12-10T13:08:10Z</time>
      </trkpt>
      <trkpt lat="45.956" lon="4.75596">
        <ele>187</ele>
        <time>2016-12-10T13:08:11Z</time>
      </trkpt>
      <trkpt lat="45.95603" lon="4.75603">
        <ele>187</ele>
        <time>2016-12-10T13:08:12Z</time>
      </trkpt>
      <trkpt lat="45.95605" lon="4.75609">
        <ele>187</ele>
        <time>2016-12-10T13:08:13Z</time>
      </trkpt>
      <trkpt lat="45.95608" lon="4.75616">
        <ele>188</ele>
        <time>2016-12-10T13:08:14Z</time>
      </trkpt>
      <trkpt lat="45.9561" lon="4.75623">
        <ele>188</ele>
        <time>2016-12-10T13:08:15Z</time>
      </trkpt>
      <trkpt lat="45.95612" lon="4.75629">
        <ele>188</ele>
        <time>2016-12-10T13:08:16Z</time>
      </trkpt>
      <trkpt lat="45.95614" lon="4.75636">
        <ele>188</ele>
        <time>2016-12-10T13:08:17Z</time>
      </trkpt>
      <trkpt lat="45.95616" lon="4.75643">
        <ele>188</ele>
        <time>2016-12-10T13:08:18Z</time>
      </trkpt>
      <trkpt lat="45.95617" lon="4.75651">
        <ele>188</ele>
        <time>2016-12-10T13:08:19Z</time>
      </trkpt>
      <trkpt lat="45.95618" lon="4.75658">
        <ele>188</ele>
        <time>2016-12-10T13:08:20Z</time>
      </trkpt>
      <trkpt lat="45.9562" lon="4.75665">
        <ele>188</ele>
        <time>2016-12-10T13:08:21Z</time>
      </trkpt>
      <trkpt lat="45.95621" lon="4.75673">
        <ele>187</ele>
        <time>2016-12-10T13:08:22Z</time>
      </trkpt>
      <trkpt lat="45.95622" lon="4.75681">
        <ele>187</ele>
        <time>2016-12-10T13:08:23Z</time>
      </trkpt>
      <trkpt lat="45.95623" lon="4.75688">
        <ele>187</ele>
        <time>2016-12-10T13:08:24Z</time>
      </trkpt>
      <trkpt lat="45.95624" lon="4.75696">
        <ele>187</ele>
        <time>2016-12-10T13:08:25Z</time>
      </trkpt>
      <trkpt lat="45.95625" lon="4.75704">
        <ele>187</ele>
        <time>2016-12-10T13:08:26Z</time>
      </trkpt>
      <trkpt lat="45.95626" lon="4.75711">
        <ele>187</ele>
        <time>2016-12-10T13:08:27Z</time>
      </trkpt>
      <trkpt lat="45.95627" lon="4.75719">
        <ele>187</ele>
        <time>2016-12-10T13:08:28Z</time>
      </trkpt>
      <trkpt lat="45.95628" lon="4.75727">
        <ele>187</ele>
        <time>2016-12-10T13:08:29Z</time>
      </trkpt>
      <trkpt lat="45.9563" lon="4.75734">
        <ele>187</ele>
        <time>2016-12-10T13:08:30Z</time>
      </trkpt>
      <trkpt lat="45.95631" lon="4.75742">
        <ele>187</ele>
        <time>2016-12-10T13:08:31Z</time>
      </trkpt>
      <trkpt lat="45.95632" lon="4.75749">
        <ele>187</ele>
        <time>2016-12-10T13:08:32Z</time>
      </trkpt>
      <trkpt lat="45.95633" lon="4.75757">
        <ele>186</ele>
        <time>2016-12-10T13:08:33Z</time>
      </trkpt>
      <trkpt lat="45.95634" lon="4.75765">
        <ele>186</ele>
        <time>2016-12-10T13:08:34Z</time>
      </trkpt>
      <trkpt lat="45.95635" lon="4.75773">
        <ele>186</ele>
        <time>2016-12-10T13:08:35Z</time>
      </trkpt>
      <trkpt lat="45.95637" lon="4.75781">
        <ele>185</ele>
        <time>2016-12-10T13:08:36Z</time>
      </trkpt>
      <trkpt lat="45.95638" lon="4.75789">
        <ele>185</ele>
        <time>2016-12-10T13:08:37Z</time>
      </trkpt>
      <trkpt lat="45.95639" lon="4.75797">
        <ele>185</ele>
        <time>2016-12-10T13:08:38Z</time>
      </trkpt>
      <trkpt lat="45.95641" lon="4.75805">
        <ele>185</ele>
        <time>2016-12-10T13:08:39Z</time>
      </trkpt>
      <trkpt lat="45.95642" lon="4.75813">
        <ele>185</ele>
        <time>2016-12-10T13:08:40Z</time>
      </trkpt>
      <trkpt lat="45.95644" lon="4.75821">
        <ele>185</ele>
        <time>2016-12-10T13:08:41Z</time>
      </trkpt>
      <trkpt lat="45.95646" lon="4.75829">
        <ele>185</ele>
        <time>2016-12-10T13:08:42Z</time>
      </trkpt>
      <trkpt lat="45.95648" lon="4.75837">
        <ele>185</ele>
        <time>2016-12-10T13:08:43Z</time>
      </trkpt>
      <trkpt lat="45.9565" lon="4.75846">
        <ele>185</ele>
        <time>2016-12-10T13:08:44Z</time>
      </trkpt>
      <trkpt lat="45.95652" lon="4.75854">
        <ele>184</ele>
        <time>2016-12-10T13:08:45Z</time>
      </trkpt>
      <trkpt lat="45.95655" lon="4.75861">
        <ele>184</ele>
        <time>2016-12-10T13:08:46Z</time>
      </trkpt>
      <trkpt lat="45.95657" lon="4.75869">
        <ele>184</ele>
        <time>2016-12-10T13:08:47Z</time>
      </trkpt>
      <trkpt lat="45.9566" lon="4.75877">
        <ele>184</ele>
        <time>2016-12-10T13:08:48Z</time>
      </trkpt>
      <trkpt lat="45.95663" lon="4.75885">
        <ele>184</ele>
        <time>2016-12-10T13:08:49Z</time>
      </trkpt>
      <trkpt lat="45.95665" lon="4.75893">
        <ele>184</ele>
        <time>2016-12-10T13:08:50Z</time>
      </trkpt>
      <trkpt lat="45.95668" lon="4.759">
        <ele>185</ele>
        <time>2016-12-10T13:08:51Z</time>
      </trkpt>
      <trkpt lat="45.95671" lon="4.75908">
        <ele>185</ele>
        <time>2016-12-10T13:08:52Z</time>
      </trkpt>
      <trkpt lat="45.95674" lon="4.75916">
        <ele>185</ele>
        <time>2016-12-10T13:08:53Z</time>
      </trkpt>
      <trkpt lat="45.95677" lon="4.75924">
        <ele>185</ele>
        <time>2016-12-10T13:08:54Z</time>
      </trkpt>
      <trkpt lat="45.9568" lon="4.75932">
        <ele>185</ele>
        <time>2016-12-10T13:08:55Z</time>
      </trkpt>
      <trkpt lat="45.95684" lon="4.75939">
        <ele>185</ele>
        <time>2016-12-10T13:08:56Z</time>
      </trkpt>
      <trkpt lat="45.95687" lon="4.75946">
        <ele>185</ele>
        <time>2016-12-10T13:08:57Z</time>
      </trkpt>
      <trkpt lat="45.9569" lon="4.75953">
        <ele>185</ele>
        <time>2016-12-10T13:08:58Z</time>
      </trkpt>
      <trkpt lat="45.95693" lon="4.7596">
        <ele>185</ele>
        <time>2016-12-10T13:08:59Z</time>
      </trkpt>
      <trkpt lat="45.95696" lon="4.75967">
        <ele>185</ele>
        <time>2016-12-10T13:09:00Z</time>
      </trkpt>
      <trkpt lat="45.95699" lon="4.75974">
        <ele>185</ele>
        <time>2016-12-10T13:09:01Z</time>
      </trkpt>
      <trkpt lat="45.95703" lon="4.75981">
        <ele>185</ele>
        <time>2016-12-10T13:09:02Z</time>
      </trkpt>
      <trkpt lat="45.95706" lon="4.75988">
        <ele>185</ele>
        <time>2016-12-10T13:09:03Z</time>
      </trkpt>
      <trkpt lat="45.95709" lon="4.75995">
        <ele>185</ele>
        <time>2016-12-10T13:09:04Z</time>
      </trkpt>
      <trkpt lat="45.95712" lon="4.76002">
        <ele>184</ele>
        <time>2016-12-10T13:09:05Z</time>
      </trkpt>
      <trkpt lat="45.95715" lon="4.76009">
        <ele>184</ele>
        <time>2016-12-10T13:09:06Z</time>
      </trkpt>
      <trkpt lat="45.95718" lon="4.76015">
        <ele>184</ele>
        <time>2016-12-10T13:09:07Z</time>
      </trkpt>
      <trkpt lat="45.95721" lon="4.76021">
        <ele>184</ele>
        <time>2016-12-10T13:09:08Z</time>
      </trkpt>
      <trkpt lat="45.95724" lon="4.76028">
        <ele>184</ele>
        <time>2016-12-10T13:09:09Z</time>
      </trkpt>
      <trkpt lat="45.95727" lon="4.76034">
        <ele>184</ele>
        <time>2016-12-10T13:09:10Z</time>
      </trkpt>
      <trkpt lat="45.9573" lon="4.76041">
        <ele>184</ele>
        <time>2016-12-10T13:09:11Z</time>
      </trkpt>
      <trkpt lat="45.95733" lon="4.76048">
        <ele>184</ele>
        <time>2016-12-10T13:09:12Z</time>
      </trkpt>
      <trkpt lat="45.95736" lon="4.76054">
        <ele>184</ele>
        <time>2016-12-10T13:09:13Z</time>
      </trkpt>
      <trkpt lat="45.95739" lon="4.7606">
        <ele>184</ele>
        <time>2016-12-10T13:09:14Z</time>
      </trkpt>
      <trkpt lat="45.95742" lon="4.76067">
        <ele>185</ele>
        <time>2016-12-10T13:09:15Z</time>
      </trkpt>
      <trkpt lat="45.95745" lon="4.76073">
        <ele>185</ele>
        <time>2016-12-10T13:09:16Z</time>
      </trkpt>
      <trkpt lat="45.95748" lon="4.76079">
        <ele>185</ele>
        <time>2016-12-10T13:09:17Z</time>
      </trkpt>
      <trkpt lat="45.9575" lon="4.76086">
        <ele>185</ele>
        <time>2016-12-10T13:09:18Z</time>
      </trkpt>
      <trkpt lat="45.95752" lon="4.76092">
        <ele>185</ele>
        <time>2016-12-10T13:09:19Z</time>
      </trkpt>
      <trkpt lat="45.95754" lon="4.76099">
        <ele>186</ele>
        <time>2016-12-10T13:09:20Z</time>
      </trkpt>
      <trkpt lat="45.95755" lon="4.76106">
        <ele>186</ele>
        <time>2016-12-10T13:09:21Z</time>
      </trkpt>
      <trkpt lat="45.95757" lon="4.76113">
        <ele>186</ele>
        <time>2016-12-10T13:09:22Z</time>
      </trkpt>
      <trkpt lat="45.95758" lon="4.7612">
        <ele>186</ele>
        <time>2016-12-10T13:09:23Z</time>
      </trkpt>
      <trkpt lat="45.95759" lon="4.76128">
        <ele>186</ele>
        <time>2016-12-10T13:09:24Z</time>
      </trkpt>
      <trkpt lat="45.9576" lon="4.76135">
        <ele>186</ele>
        <time>2016-12-10T13:09:25Z</time>
      </trkpt>
      <trkpt lat="45.95761" lon="4.76143">
        <ele>186</ele>
        <time>2016-12-10T13:09:26Z</time>
      </trkpt>
      <trkpt lat="45.95762" lon="4.76151">
        <ele>186</ele>
        <time>2016-12-10T13:09:27Z</time>
      </trkpt>
      <trkpt lat="45.95762" lon="4.7616">
        <ele>186</ele>
        <time>2016-12-10T13:09:28Z</time>
      </trkpt>
      <trkpt lat="45.95763" lon="4.76168">
        <ele>185</ele>
        <time>2016-12-10T13:09:29Z</time>
      </trkpt>
      <trkpt lat="45.95763" lon="4.76177">
        <ele>185</ele>
        <time>2016-12-10T13:09:30Z</time>
      </trkpt>
      <trkpt lat="45.95764" lon="4.76186">
        <ele>186</ele>
        <time>2016-12-10T13:09:31Z</time>
      </trkpt>
      <trkpt lat="45.95764" lon="4.76194">
        <ele>186</ele>
        <time>2016-12-10T13:09:32Z</time>
      </trkpt>
      <trkpt lat="45.95765" lon="4.76202">
        <ele>186</ele>
        <time>2016-12-10T13:09:33Z</time>
      </trkpt>
      <trkpt lat="45.95765" lon="4.7621">
        <ele>186</ele>
        <time>2016-12-10T13:09:34Z</time>
      </trkpt>
      <trkpt lat="45.95766" lon="4.76217">
        <ele>186</ele>
        <time>2016-12-10T13:09:35Z</time>
      </trkpt>
      <trkpt lat="45.95766" lon="4.76224">
        <ele>186</ele>
        <time>2016-12-10T13:09:36Z</time>
      </trkpt>
      <trkpt lat="45.95766" lon="4.76231">
        <ele>186</ele>
        <time>2016-12-10T13:09:37Z</time>
      </trkpt>
      <trkpt lat="45.95767" lon="4.76237">
        <ele>186</ele>
        <time>2016-12-10T13:09:38Z</time>
      </trkpt>
      <trkpt lat="45.95767" lon="4.76244">
        <ele>186</ele>
        <time>2016-12-10T13:09:39Z</time>
      </trkpt>
      <trkpt lat="45.95767" lon="4.76251">
        <ele>185</ele>
        <time>2016-12-10T13:09:40Z</time>
      </trkpt>
      <trkpt lat="45.95767" lon="4.76258">
        <ele>185</ele>
        <time>2016-12-10T13:09:41Z</time>
      </trkpt>
      <trkpt lat="45.95768" lon="4.76265">
        <ele>185</ele>
        <time>2016-12-10T13:09:42Z</time>
      </trkpt>
      <trkpt lat="45.95768" lon="4.76273">
        <ele>186</ele>
        <time>2016-12-10T13:09:43Z</time>
      </trkpt>
      <trkpt lat="45.95768" lon="4.7628">
        <ele>186</ele>
        <time>2016-12-10T13:09:44Z</time>
      </trkpt>
      <trkpt lat="45.95769" lon="4.76287">
        <ele>186</ele>
        <time>2016-12-10T13:09:45Z</time>
      </trkpt>
      <trkpt lat="45.9577" lon="4.76294">
        <ele>186</ele>
        <time>2016-12-10T13:09:46Z</time>
      </trkpt>
      <trkpt lat="45.9577" lon="4.76302">
        <ele>186</ele>
        <time>2016-12-10T13:09:47Z</time>
      </trkpt>
      <trkpt lat="45.95771" lon="4.76309">
        <ele>186</ele>
        <time>2016-12-10T13:09:48Z</time>
      </trkpt>
      <trkpt lat="45.95771" lon="4.76317">
        <ele>185</ele>
        <time>2016-12-10T13:09:49Z</time>
      </trkpt>
      <trkpt lat="45.95772" lon="4.76324">
        <ele>185</ele>
        <time>2016-12-10T13:09:50Z</time>
      </trkpt>
      <trkpt lat="45.95772" lon="4.76331">
        <ele>185</ele>
        <time>2016-12-10T13:09:51Z</time>
      </trkpt>
      <trkpt lat="45.95773" lon="4.76338">
        <ele>186</ele>
        <time>2016-12-10T13:09:52Z</time>
      </trkpt>
      <trkpt lat="45.95773" lon="4.76346">
        <ele>186</ele>
        <time>2016-12-10T13:09:53Z</time>
      </trkpt>
      <trkpt lat="45.95774" lon="4.76353">
        <ele>186</ele>
        <time>2016-12-10T13:09:54Z</time>
      </trkpt>
      <trkpt lat="45.95774" lon="4.7636">
        <ele>186</ele>
        <time>2016-12-10T13:09:55Z</time>
      </trkpt>
      <trkpt lat="45.95774" lon="4.76368">
        <ele>186</ele>
        <time>2016-12-10T13:09:56Z</time>
      </trkpt>
      <trkpt lat="45.95775" lon="4.76375">
        <ele>186</ele>
        <time>2016-12-10T13:09:57Z</time>
      </trkpt>
      <trkpt lat="45.95775" lon="4.76382">
        <ele>186</ele>
        <time>2016-12-10T13:09:58Z</time>
      </trkpt>
      <trkpt lat="45.95776" lon="4.7639">
        <ele>186</ele>
        <time>2016-12-10T13:09:59Z</time>
      </trkpt>
      <trkpt lat="45.95777" lon="4.76397">
        <ele>186</ele>
        <time>2016-12-10T13:10:00Z</time>
      </trkpt>
      <trkpt lat="45.95777" lon="4.76405">
        <ele>186</ele>
        <time>2016-12-10T13:10:01Z</time>
      </trkpt>
      <trkpt lat="45.95778" lon="4.76412">
        <ele>186</ele>
        <time>2016-12-10T13:10:02Z</time>
      </trkpt>
      <trkpt lat="45.95779" lon="4.7642">
        <ele>186</ele>
        <time>2016-12-10T13:10:03Z</time>
      </trkpt>
      <trkpt lat="45.95779" lon="4.76427">
        <ele>186</ele>
        <time>2016-12-10T13:10:04Z</time>
      </trkpt>
      <trkpt lat="45.9578" lon="4.76434">
        <ele>186</ele>
        <time>2016-12-10T13:10:05Z</time>
      </trkpt>
      <trkpt lat="45.95781" lon="4.76442">
        <ele>186</ele>
        <time>2016-12-10T13:10:06Z</time>
      </trkpt>
      <trkpt lat="45.95782" lon="4.76449">
        <ele>186</ele>
        <time>2016-12-10T13:10:07Z</time>
      </trkpt>
      <trkpt lat="45.95783" lon="4.76456">
        <ele>186</ele>
        <time>2016-12-10T13:10:08Z</time>
      </trkpt>
      <trkpt lat="45.95783" lon="4.76464">
        <ele>186</ele>
        <time>2016-12-10T13:10:09Z</time>
      </trkpt>
      <trkpt lat="45.95784" lon="4.76471">
        <ele>186</ele>
        <time>2016-12-10T13:10:10Z</time>
      </trkpt>
      <trkpt lat="45.95785" lon="4.76479">
        <ele>186</ele>
        <time>2016-12-10T13:10:11Z</time>
      </trkpt>
      <trkpt lat="45.95786" lon="4.76486">
        <ele>186</ele>
        <time>2016-12-10T13:10:12Z</time>
      </trkpt>
      <trkpt lat="45.95787" lon="4.76493">
        <ele>186</ele>
        <time>2016-12-10T13:10:13Z</time>
      </trkpt>
      <trkpt lat="45.95788" lon="4.76501">
        <ele>187</ele>
        <time>2016-12-10T13:10:14Z</time>
      </trkpt>
      <trkpt lat="45.95789" lon="4.76508">
        <ele>187</ele>
        <time>2016-12-10T13:10:15Z</time>
      </trkpt>
      <trkpt lat="45.9579" lon="4.76516">
        <ele>187</ele>
        <time>2016-12-10T13:10:16Z</time>
      </trkpt>
      <trkpt lat="45.95792" lon="4.76523">
        <ele>187</ele>
        <time>2016-12-10T13:10:17Z</time>
      </trkpt>
      <trkpt lat="45.95793" lon="4.7653">
        <ele>187</ele>
        <time>2016-12-10T13:10:18Z</time>
      </trkpt>
      <trkpt lat="45.95794" lon="4.76538">
        <ele>187</ele>
        <time>2016-12-10T13:10:19Z</time>
      </trkpt>
      <trkpt lat="45.95795" lon="4.76545">
        <ele>187</ele>
        <time>2016-12-10T13:10:20Z</time>
      </trkpt>
      <trkpt lat="45.95796" lon="4.76552">
        <ele>187</ele>
        <time>2016-12-10T13:10:21Z</time>
      </trkpt>
      <trkpt lat="45.95797" lon="4.76559">
        <ele>187</ele>
        <time>2016-12-10T13:10:22Z</time>
      </trkpt>
      <trkpt lat="45.95798" lon="4.76566">
        <ele>187</ele>
        <time>2016-12-10T13:10:23Z</time>
      </trkpt>
      <trkpt lat="45.95799" lon="4.76574">
        <ele>187</ele>
        <time>2016-12-10T13:10:24Z</time>
      </trkpt>
      <trkpt lat="45.958" lon="4.76581">
        <ele>187</ele>
        <time>2016-12-10T13:10:25Z</time>
      </trkpt>
      <trkpt lat="45.95801" lon="4.76588">
        <ele>187</ele>
        <time>2016-12-10T13:10:26Z</time>
      </trkpt>
      <trkpt lat="45.95802" lon="4.76595">
        <ele>187</ele>
        <time>2016-12-10T13:10:27Z</time>
      </trkpt>
      <trkpt lat="45.95803" lon="4.76603">
        <ele>188</ele>
        <time>2016-12-10T13:10:28Z</time>
      </trkpt>
      <trkpt lat="45.95804" lon="4.7661">
        <ele>188</ele>
        <time>2016-12-10T13:10:29Z</time>
      </trkpt>
      <trkpt lat="45.95806" lon="4.76617">
        <ele>188</ele>
        <time>2016-12-10T13:10:30Z</time>
      </trkpt>
      <trkpt lat="45.95807" lon="4.76624">
        <ele>188</ele>
        <time>2016-12-10T13:10:31Z</time>
      </trkpt>
      <trkpt lat="45.95808" lon="4.76631">
        <ele>188</ele>
        <time>2016-12-10T13:10:32Z</time>
      </trkpt>
      <trkpt lat="45.95809" lon="4.76639">
        <ele>188</ele>
        <time>2016-12-10T13:10:33Z</time>
      </trkpt>
      <trkpt lat="45.95809" lon="4.76646">
        <ele>188</ele>
        <time>2016-12-10T13:10:34Z</time>
      </trkpt>
      <trkpt lat="45.9581" lon="4.76653">
        <ele>188</ele>
        <time>2016-12-10T13:10:35Z</time>
      </trkpt>
      <trkpt lat="45.95811" lon="4.76661">
        <ele>188</ele>
        <time>2016-12-10T13:10:36Z</time>
      </trkpt>
      <trkpt lat="45.95812" lon="4.76668">
        <ele>189</ele>
        <time>2016-12-10T13:10:37Z</time>
      </trkpt>
      <trkpt lat="45.95813" lon="4.76675">
        <ele>189</ele>
        <time>2016-12-10T13:10:38Z</time>
      </trkpt>
      <trkpt lat="45.95815" lon="4.76681">
        <ele>189</ele>
        <time>2016-12-10T13:10:39Z</time>
      </trkpt>
      <trkpt lat="45.95816" lon="4.76688">
        <ele>189</ele>
        <time>2016-12-10T13:10:40Z</time>
      </trkpt>
      <trkpt lat="45.95817" lon="4.76695">
        <ele>189</ele>
        <time>2016-12-10T13:10:41Z</time>
      </trkpt>
      <trkpt lat="45.95818" lon="4.76702">
        <ele>189</ele>
        <time>2016-12-10T13:10:42Z</time>
      </trkpt>
      <trkpt lat="45.95819" lon="4.7671">
        <ele>189</ele>
        <time>2016-12-10T13:10:43Z</time>
      </trkpt>
      <trkpt lat="45.9582" lon="4.76718">
        <ele>189</ele>
        <time>2016-12-10T13:10:44Z</time>
      </trkpt>
      <trkpt lat="45.95821" lon="4.76725">
        <ele>190</ele>
        <time>2016-12-10T13:10:45Z</time>
      </trkpt>
      <trkpt lat="45.95822" lon="4.76732">
        <ele>190</ele>
        <time>2016-12-10T13:10:46Z</time>
      </trkpt>
      <trkpt lat="45.95823" lon="4.76739">
        <ele>190</ele>
        <time>2016-12-10T13:10:47Z</time>
      </trkpt>
      <trkpt lat="45.95823" lon="4.76746">
        <ele>190</ele>
        <time>2016-12-10T13:10:48Z</time>
      </trkpt>
      <trkpt lat="45.95825" lon="4.76753">
        <ele>191</ele>
        <time>2016-12-10T13:10:49Z</time>
      </trkpt>
      <trkpt lat="45.95826" lon="4.76761">
        <ele>190</ele>
        <time>2016-12-10T13:10:50Z</time>
      </trkpt>
      <trkpt lat="45.95827" lon="4.76768">
        <ele>190</ele>
        <time>2016-12-10T13:10:51Z</time>
      </trkpt>
      <trkpt lat="45.95829" lon="4.76775">
        <ele>190</ele>
        <time>2016-12-10T13:10:52Z</time>
      </trkpt>
      <trkpt lat="45.9583" lon="4.76782">
        <ele>190</ele>
        <time>2016-12-10T13:10:53Z</time>
      </trkpt>
      <trkpt lat="45.95831" lon="4.76789">
        <ele>190</ele>
        <time>2016-12-10T13:10:54Z</time>
      </trkpt>
      <trkpt lat="45.95832" lon="4.76797">
        <ele>190</ele>
        <time>2016-12-10T13:10:55Z</time>
      </trkpt>
      <trkpt lat="45.95832" lon="4.76805">
        <ele>190</ele>
        <time>2016-12-10T13:10:56Z</time>
      </trkpt>
      <trkpt lat="45.95832" lon="4.76813">
        <ele>190</ele>
        <time>2016-12-10T13:10:57Z</time>
      </trkpt>
      <trkpt lat="45.95831" lon="4.76821">
        <ele>190</ele>
        <time>2016-12-10T13:10:58Z</time>
      </trkpt>
      <trkpt lat="45.95829" lon="4.76829">
        <ele>190</ele>
        <time>2016-12-10T13:10:59Z</time>
      </trkpt>
      <trkpt lat="45.95828" lon="4.76836">
        <ele>190</ele>
        <time>2016-12-10T13:11:00Z</time>
      </trkpt>
      <trkpt lat="45.95826" lon="4.76844">
        <ele>190</ele>
        <time>2016-12-10T13:11:01Z</time>
      </trkpt>
      <trkpt lat="45.95825" lon="4.76852">
        <ele>190</ele>
        <time>2016-12-10T13:11:02Z</time>
      </trkpt>
      <trkpt lat="45.95823" lon="4.7686">
        <ele>189</ele>
        <time>2016-12-10T13:11:03Z</time>
      </trkpt>
      <trkpt lat="45.95822" lon="4.76867">
        <ele>189</ele>
        <time>2016-12-10T13:11:04Z</time>
      </trkpt>
      <trkpt lat="45.9582" lon="4.76875">
        <ele>189</ele>
        <time>2016-12-10T13:11:05Z</time>
      </trkpt>
      <trkpt lat="45.95819" lon="4.76883">
        <ele>189</ele>
        <time>2016-12-10T13:11:06Z</time>
      </trkpt>
      <trkpt lat="45.95817" lon="4.76891">
        <ele>189</ele>
        <time>2016-12-10T13:11:07Z</time>
      </trkpt>
      <trkpt lat="45.95816" lon="4.76899">
        <ele>189</ele>
        <time>2016-12-10T13:11:08Z</time>
      </trkpt>
      <trkpt lat="45.95815" lon="4.76906">
        <ele>189</ele>
        <time>2016-12-10T13:11:09Z</time>
      </trkpt>
      <trkpt lat="45.95813" lon="4.76914">
        <ele>189</ele>
        <time>2016-12-10T13:11:10Z</time>
      </trkpt>
      <trkpt lat="45.95811" lon="4.76922">
        <ele>189</ele>
        <time>2016-12-10T13:11:11Z</time>
      </trkpt>
      <trkpt lat="45.9581" lon="4.76929">
        <ele>189</ele>
        <time>2016-12-10T13:11:12Z</time>
      </trkpt>
      <trkpt lat="45.95808" lon="4.76937">
        <ele>189</ele>
        <time>2016-12-10T13:11:13Z</time>
      </trkpt>
      <trkpt lat="45.95806" lon="4.76945">
        <ele>189</ele>
        <time>2016-12-10T13:11:14Z</time>
      </trkpt>
      <trkpt lat="45.95805" lon="4.76953">
        <ele>189</ele>
        <time>2016-12-10T13:11:15Z</time>
      </trkpt>
      <trkpt lat="45.95803" lon="4.7696">
        <ele>189</ele>
        <time>2016-12-10T13:11:16Z</time>
      </trkpt>
      <trkpt lat="45.95802" lon="4.76968">
        <ele>189</ele>
        <time>2016-12-10T13:11:17Z</time>
      </trkpt>
      <trkpt lat="45.95802" lon="4.76976">
        <ele>189</ele>
        <time>2016-12-10T13:11:18Z</time>
      </trkpt>
      <trkpt lat="45.95801" lon="4.76983">
        <ele>189</ele>
        <time>2016-12-10T13:11:19Z</time>
      </trkpt>
      <trkpt lat="45.95802" lon="4.76991">
        <ele>189</ele>
        <time>2016-12-10T13:11:20Z</time>
      </trkpt>
      <trkpt lat="45.95802" lon="4.76998">
        <ele>189</ele>
        <time>2016-12-10T13:11:21Z</time>
      </trkpt>
      <trkpt lat="45.95803" lon="4.77006">
        <ele>190</ele>
        <time>2016-12-10T13:11:22Z</time>
      </trkpt>
      <trkpt lat="45.95804" lon="4.77013">
        <ele>190</ele>
        <time>2016-12-10T13:11:23Z</time>
      </trkpt>
      <trkpt lat="45.95806" lon="4.7702">
        <ele>190</ele>
        <time>2016-12-10T13:11:24Z</time>
      </trkpt>
      <trkpt lat="45.95808" lon="4.77027">
        <ele>190</ele>
        <time>2016-12-10T13:11:25Z</time>
      </trkpt>
      <trkpt lat="45.95811" lon="4.77033">
        <ele>190</ele>
        <time>2016-12-10T13:11:26Z</time>
      </trkpt>
      <trkpt lat="45.95814" lon="4.7704">
        <ele>190</ele>
        <time>2016-12-10T13:11:27Z</time>
      </trkpt>
      <trkpt lat="45.95817" lon="4.77046">
        <ele>190</ele>
        <time>2016-12-10T13:11:28Z</time>
      </trkpt>
      <trkpt lat="45.9582" lon="4.77052">
        <ele>190</ele>
        <time>2016-12-10T13:11:29Z</time>
      </trkpt>
      <trkpt lat="45.95823" lon="4.77059">
        <ele>190</ele>
        <time>2016-12-10T13:11:30Z</time>
      </trkpt>
      <trkpt lat="45.95825" lon="4.77065">
        <ele>191</ele>
        <time>2016-12-10T13:11:31Z</time>
      </trkpt>
      <trkpt lat="45.95828" lon="4.77072">
        <ele>191</ele>
        <time>2016-12-10T13:11:32Z</time>
      </trkpt>
      <trkpt lat="45.9583" lon="4.77079">
        <ele>191</ele>
        <time>2016-12-10T13:11:33Z</time>
      </trkpt>
      <trkpt lat="45.95833" lon="4.77085">
        <ele>192</ele>
        <time>2016-12-10T13:11:34Z</time>
      </trkpt>
      <trkpt lat="45.95835" lon="4.77092">
        <ele>192</ele>
        <time>2016-12-10T13:11:35Z</time>
      </trkpt>
      <trkpt lat="45.95837" lon="4.77099">
        <ele>193</ele>
        <time>2016-12-10T13:11:36Z</time>
      </trkpt>
      <trkpt lat="45.95839" lon="4.77105">
        <ele>193</ele>
        <time>2016-12-10T13:11:37Z</time>
      </trkpt>
      <trkpt lat="45.95841" lon="4.77112">
        <ele>193</ele>
        <time>2016-12-10T13:11:38Z</time>
      </trkpt>
      <trkpt lat="45.95843" lon="4.77118">
        <ele>193</ele>
        <time>2016-12-10T13:11:39Z</time>
      </trkpt>
      <trkpt lat="45.95845" lon="4.77125">
        <ele>193</ele>
        <time>2016-12-10T13:11:40Z</time>
      </trkpt>
      <trkpt lat="45.95847" lon="4.77131">
        <ele>193</ele>
        <time>2016-12-10T13:11:41Z</time>
      </trkpt>
      <trkpt lat="45.95849" lon="4.77138">
        <ele>193</ele>
        <time>2016-12-10T13:11:42Z</time>
      </trkpt>
      <trkpt lat="45.95851" lon="4.77145">
        <ele>193</ele>
        <time>2016-12-10T13:11:43Z</time>
      </trkpt>
      <trkpt lat="45.95853" lon="4.77151">
        <ele>192</ele>
        <time>2016-12-10T13:11:44Z</time>
      </trkpt>
      <trkpt lat="45.95854" lon="4.77158">
        <ele>192</ele>
        <time>2016-12-10T13:11:45Z</time>
      </trkpt>
      <trkpt lat="45.95856" lon="4.77165">
        <ele>192</ele>
        <time>2016-12-10T13:11:46Z</time>
      </trkpt>
      <trkpt lat="45.95858" lon="4.77172">
        <ele>192</ele>
        <time>2016-12-10T13:11:47Z</time>
      </trkpt>
      <trkpt lat="45.9586" lon="4.77178">
        <ele>192</ele>
        <time>2016-12-10T13:11:48Z</time>
      </trkpt>
      <trkpt lat="45.95862" lon="4.77185">
        <ele>192</ele>
        <time>2016-12-10T13:11:49Z</time>
      </trkpt>
      <trkpt lat="45.95864" lon="4.77192">
        <ele>193</ele>
        <time>2016-12-10T13:11:50Z</time>
      </trkpt>
      <trkpt lat="45.95866" lon="4.77199">
        <ele>193</ele>
        <time>2016-12-10T13:11:51Z</time>
      </trkpt>
      <trkpt lat="45.95867" lon="4.77206">
        <ele>193</ele>
        <time>2016-12-10T13:11:52Z</time>
      </trkpt>
      <trkpt lat="45.95869" lon="4.77213">
        <ele>193</ele>
        <time>2016-12-10T13:11:53Z</time>
      </trkpt>
      <trkpt lat="45.9587" lon="4.7722">
        <ele>193</ele>
        <time>2016-12-10T13:11:54Z</time>
      </trkpt>
      <trkpt lat="45.95872" lon="4.77226">
        <ele>193</ele>
        <time>2016-12-10T13:11:55Z</time>
      </trkpt>
      <trkpt lat="45.95873" lon="4.77233">
        <ele>193</ele>
        <time>2016-12-10T13:11:56Z</time>
      </trkpt>
      <trkpt lat="45.95875" lon="4.7724">
        <ele>193</ele>
        <time>2016-12-10T13:11:57Z</time>
      </trkpt>
      <trkpt lat="45.95876" lon="4.77247">
        <ele>193</ele>
        <time>2016-12-10T13:11:58Z</time>
      </trkpt>
      <trkpt lat="45.95878" lon="4.77253">
        <ele>193</ele>
        <time>2016-12-10T13:11:59Z</time>
      </trkpt>
      <trkpt lat="45.95879" lon="4.7726">
        <ele>193</ele>
        <time>2016-12-10T13:12:00Z</time>
      </trkpt>
      <trkpt lat="45.9588" lon="4.77267">
        <ele>193</ele>
        <time>2016-12-10T13:12:01Z</time>
      </trkpt>
      <trkpt lat="45.95882" lon="4.77273">
        <ele>193</ele>
        <time>2016-12-10T13:12:02Z</time>
      </trkpt>
      <trkpt lat="45.95883" lon="4.7728">
        <ele>193</ele>
        <time>2016-12-10T13:12:03Z</time>
      </trkpt>
      <trkpt lat="45.95885" lon="4.77287">
        <ele>193</ele>
        <time>2016-12-10T13:12:04Z</time>
      </trkpt>
      <trkpt lat="45.95886" lon="4.77294">
        <ele>193</ele>
        <time>2016-12-10T13:12:05Z</time>
      </trkpt>
      <trkpt lat="45.95888" lon="4.773">
        <ele>193</ele>
        <time>2016-12-10T13:12:06Z</time>
      </trkpt>
      <trkpt lat="45.9589" lon="4.77306">
        <ele>193</ele>
        <time>2016-12-10T13:12:07Z</time>
      </trkpt>
      <trkpt lat="45.95892" lon="4.77313">
        <ele>193</ele>
        <time>2016-12-10T13:12:08Z</time>
      </trkpt>
      <trkpt lat="45.95894" lon="4.77319">
        <ele>193</ele>
        <time>2016-12-10T13:12:09Z</time>
      </trkpt>
      <trkpt lat="45.95896" lon="4.77326">
        <ele>193</ele>
        <time>2016-12-10T13:12:10Z</time>
      </trkpt>
      <trkpt lat="45.95898" lon="4.77333">
        <ele>194</ele>
        <time>2016-12-10T13:12:11Z</time>
      </trkpt>
      <trkpt lat="45.959" lon="4.7734">
        <ele>193</ele>
        <time>2016-12-10T13:12:12Z</time>
      </trkpt>
      <trkpt lat="45.95902" lon="4.77346">
        <ele>193</ele>
        <time>2016-12-10T13:12:13Z</time>
      </trkpt>
      <trkpt lat="45.95904" lon="4.77352">
        <ele>193</ele>
        <time>2016-12-10T13:12:14Z</time>
      </trkpt>
      <trkpt lat="45.95905" lon="4.77359">
        <ele>193</ele>
        <time>2016-12-10T13:12:15Z</time>
      </trkpt>
      <trkpt lat="45.95907" lon="4.77365">
        <ele>193</ele>
        <time>2016-12-10T13:12:16Z</time>
      </trkpt>
      <trkpt lat="45.9591" lon="4.77371">
        <ele>193</ele>
        <time>2016-12-10T13:12:17Z</time>
      </trkpt>
      <trkpt lat="45.95912" lon="4.77378">
        <ele>193</ele>
        <time>2016-12-10T13:12:18Z</time>
      </trkpt>
      <trkpt lat="45.95914" lon="4.77384">
        <ele>193</ele>
        <time>2016-12-10T13:12:19Z</time>
      </trkpt>
      <trkpt lat="45.95916" lon="4.77391">
        <ele>193</ele>
        <time>2016-12-10T13:12:20Z</time>
      </trkpt>
      <trkpt lat="45.95918" lon="4.77397">
        <ele>196</ele>
        <time>2016-12-10T13:12:21Z</time>
      </trkpt>
      <trkpt lat="45.95921" lon="4.77404">
        <ele>195</ele>
        <time>2016-12-10T13:12:22Z</time>
      </trkpt>
      <trkpt lat="45.95924" lon="4.7741">
        <ele>195</ele>
        <time>2016-12-10T13:12:23Z</time>
      </trkpt>
      <trkpt lat="45.95926" lon="4.77416">
        <ele>195</ele>
        <time>2016-12-10T13:12:24Z</time>
      </trkpt>
      <trkpt lat="45.95928" lon="4.77422">
        <ele>195</ele>
        <time>2016-12-10T13:12:25Z</time>
      </trkpt>
      <trkpt lat="45.9593" lon="4.77428">
        <ele>195</ele>
        <time>2016-12-10T13:12:26Z</time>
      </trkpt>
      <trkpt lat="45.95932" lon="4.77434">
        <ele>195</ele>
        <time>2016-12-10T13:12:27Z</time>
      </trkpt>
      <trkpt lat="45.95934" lon="4.7744">
        <ele>195</ele>
        <time>2016-12-10T13:12:28Z</time>
      </trkpt>
      <trkpt lat="45.95936" lon="4.77446">
        <ele>195</ele>
        <time>2016-12-10T13:12:29Z</time>
      </trkpt>
      <trkpt lat="45.95938" lon="4.77453">
        <ele>195</ele>
        <time>2016-12-10T13:12:30Z</time>
      </trkpt>
      <trkpt lat="45.95941" lon="4.77459">
        <ele>195</ele>
        <time>2016-12-10T13:12:31Z</time>
      </trkpt>
      <trkpt lat="45.95943" lon="4.77465">
        <ele>195</ele>
        <time>2016-12-10T13:12:32Z</time>
      </trkpt>
      <trkpt lat="45.95945" lon="4.77471">
        <ele>195</ele>
        <time>2016-12-10T13:12:33Z</time>
      </trkpt>
      <trkpt lat="45.95949" lon="4.77482">
        <ele>195</ele>
        <time>2016-12-10T13:12:35Z</time>
      </trkpt>
      <trkpt lat="45.95951" lon="4.77488">
        <ele>195</ele>
        <time>2016-12-10T13:12:36Z</time>
      </trkpt>
      <trkpt lat="45.95955" lon="4.77499">
        <ele>196</ele>
        <time>2016-12-10T13:12:38Z</time>
      </trkpt>
      <trkpt lat="45.95957" lon="4.77504">
        <ele>195</ele>
        <time>2016-12-10T13:12:39Z</time>
      </trkpt>
      <trkpt lat="45.95961" lon="4.77513">
        <ele>195</ele>
        <time>2016-12-10T13:12:41Z</time>
      </trkpt>
      <trkpt lat="45.95964" lon="4.77518">
        <ele>195</ele>
        <time>2016-12-10T13:12:42Z</time>
      </trkpt>
      <trkpt lat="45.95968" lon="4.77528">
        <ele>195</ele>
        <time>2016-12-10T13:12:44Z</time>
      </trkpt>
      <trkpt lat="45.9597" lon="4.77532">
        <ele>195</ele>
        <time>2016-12-10T13:12:45Z</time>
      </trkpt>
      <trkpt lat="45.95973" lon="4.7754">
        <ele>195</ele>
        <time>2016-12-10T13:12:47Z</time>
      </trkpt>
      <trkpt lat="45.95975" lon="4.77543">
        <ele>195</ele>
        <time>2016-12-10T13:12:48Z</time>
      </trkpt>
      <trkpt lat="45.95979" lon="4.77552">
        <ele>195</ele>
        <time>2016-12-10T13:12:50Z</time>
      </trkpt>
      <trkpt lat="45.95981" lon="4.77556">
        <ele>196</ele>
        <time>2016-12-10T13:12:51Z</time>
      </trkpt>
      <trkpt lat="45.95985" lon="4.77564">
        <ele>196</ele>
        <time>2016-12-10T13:12:53Z</time>
      </trkpt>
      <trkpt lat="45.95986" lon="4.77571">
        <ele>196</ele>
        <time>2016-12-10T13:12:54Z</time>
      </trkpt>
      <trkpt lat="45.95988" lon="4.77578">
        <ele>196</ele>
        <time>2016-12-10T13:12:55Z</time>
      </trkpt>
      <trkpt lat="45.9599" lon="4.77584">
        <ele>196</ele>
        <time>2016-12-10T13:12:56Z</time>
      </trkpt>
      <trkpt lat="45.95994" lon="4.77589">
        <ele>196</ele>
        <time>2016-12-10T13:12:57Z</time>
      </trkpt>
      <trkpt lat="45.95998" lon="4.77593">
        <ele>196</ele>
        <time>2016-12-10T13:12:58Z</time>
      </trkpt>
      <trkpt lat="45.96002" lon="4.77597">
        <ele>198</ele>
        <time>2016-12-10T13:12:59Z</time>
      </trkpt>
      <trkpt lat="45.96006" lon="4.77601">
        <ele>198</ele>
        <time>2016-12-10T13:13:00Z</time>
      </trkpt>
      <trkpt lat="45.96009" lon="4.77606">
        <ele>199</ele>
        <time>2016-12-10T13:13:01Z</time>
      </trkpt>
      <trkpt lat="45.96013" lon="4.7761">
        <ele>199</ele>
        <time>2016-12-10T13:13:02Z</time>
      </trkpt>
      <trkpt lat="45.96016" lon="4.77614">
        <ele>199</ele>
        <time>2016-12-10T13:13:03Z</time>
      </trkpt>
      <trkpt lat="45.9602" lon="4.77619">
        <ele>199</ele>
        <time>2016-12-10T13:13:04Z</time>
      </trkpt>
      <trkpt lat="45.96023" lon="4.77623">
        <ele>199</ele>
        <time>2016-12-10T13:13:05Z</time>
      </trkpt>
      <trkpt lat="45.96027" lon="4.77627">
        <ele>199</ele>
        <time>2016-12-10T13:13:06Z</time>
      </trkpt>
      <trkpt lat="45.96031" lon="4.77631">
        <ele>199</ele>
        <time>2016-12-10T13:13:07Z</time>
      </trkpt>
      <trkpt lat="45.96034" lon="4.77635">
        <ele>199</ele>
        <time>2016-12-10T13:13:08Z</time>
      </trkpt>
      <trkpt lat="45.96038" lon="4.7764">
        <ele>199</ele>
        <time>2016-12-10T13:13:09Z</time>
      </trkpt>
      <trkpt lat="45.96041" lon="4.77645">
        <ele>199</ele>
        <time>2016-12-10T13:13:10Z</time>
      </trkpt>
      <trkpt lat="45.96047" lon="4.77653">
        <ele>200</ele>
        <time>2016-12-10T13:13:12Z</time>
      </trkpt>
      <trkpt lat="45.9605" lon="4.77657">
        <ele>200</ele>
        <time>2016-12-10T13:13:13Z</time>
      </trkpt>
      <trkpt lat="45.96054" lon="4.77662">
        <ele>200</ele>
        <time>2016-12-10T13:13:14Z</time>
      </trkpt>
      <trkpt lat="45.96057" lon="4.77667">
        <ele>198</ele>
        <time>2016-12-10T13:13:15Z</time>
      </trkpt>
      <trkpt lat="45.9606" lon="4.77672">
        <ele>198</ele>
        <time>2016-12-10T13:13:16Z</time>
      </trkpt>
      <trkpt lat="45.96063" lon="4.77676">
        <ele>198</ele>
        <time>2016-12-10T13:13:17Z</time>
      </trkpt>
      <trkpt lat="45.9607" lon="4.77685">
        <ele>198</ele>
        <time>2016-12-10T13:13:19Z</time>
      </trkpt>
      <trkpt lat="45.96073" lon="4.7769">
        <ele>198</ele>
        <time>2016-12-10T13:13:20Z</time>
      </trkpt>
      <trkpt lat="45.96076" lon="4.77695">
        <ele>197</ele>
        <time>2016-12-10T13:13:21Z</time>
      </trkpt>
      <trkpt lat="45.96079" lon="4.777">
        <ele>197</ele>
        <time>2016-12-10T13:13:22Z</time>
      </trkpt>
      <trkpt lat="45.96082" lon="4.77706">
        <ele>197</ele>
        <time>2016-12-10T13:13:23Z</time>
      </trkpt>
      <trkpt lat="45.96085" lon="4.77711">
        <ele>200</ele>
        <time>2016-12-10T13:13:24Z</time>
      </trkpt>
      <trkpt lat="45.96088" lon="4.77715">
        <ele>199</ele>
        <time>2016-12-10T13:13:25Z</time>
      </trkpt>
      <trkpt lat="45.96091" lon="4.7772">
        <ele>199</ele>
        <time>2016-12-10T13:13:26Z</time>
      </trkpt>
      <trkpt lat="45.96097" lon="4.77729">
        <ele>199</ele>
        <time>2016-12-10T13:13:28Z</time>
      </trkpt>
      <trkpt lat="45.96099" lon="4.77734">
        <ele>199</ele>
        <time>2016-12-10T13:13:29Z</time>
      </trkpt>
      <trkpt lat="45.96105" lon="4.77743">
        <ele>198</ele>
        <time>2016-12-10T13:13:31Z</time>
      </trkpt>
      <trkpt lat="45.96108" lon="4.77748">
        <ele>199</ele>
        <time>2016-12-10T13:13:32Z</time>
      </trkpt>
      <trkpt lat="45.96113" lon="4.77757">
        <ele>197</ele>
        <time>2016-12-10T13:13:34Z</time>
      </trkpt>
      <trkpt lat="45.96116" lon="4.77761">
        <ele>197</ele>
        <time>2016-12-10T13:13:35Z</time>
      </trkpt>
      <trkpt lat="45.96122" lon="4.7777">
        <ele>197</ele>
        <time>2016-12-10T13:13:37Z</time>
      </trkpt>
      <trkpt lat="45.96124" lon="4.77775">
        <ele>197</ele>
        <time>2016-12-10T13:13:38Z</time>
      </trkpt>
      <trkpt lat="45.9613" lon="4.77784">
        <ele>198</ele>
        <time>2016-12-10T13:13:40Z</time>
      </trkpt>
      <trkpt lat="45.96133" lon="4.77789">
        <ele>198</ele>
        <time>2016-12-10T13:13:41Z</time>
      </trkpt>
      <trkpt lat="45.96136" lon="4.77794">
        <ele>198</ele>
        <time>2016-12-10T13:13:42Z</time>
      </trkpt>
      <trkpt lat="45.96139" lon="4.77799">
        <ele>198</ele>
        <time>2016-12-10T13:13:43Z</time>
      </trkpt>
      <trkpt lat="45.96142" lon="4.77804">
        <ele>198</ele>
        <time>2016-12-10T13:13:44Z</time>
      </trkpt>
      <trkpt lat="45.96145" lon="4.77809">
        <ele>198</ele>
        <time>2016-12-10T13:13:45Z</time>
      </trkpt>
      <trkpt lat="45.9615" lon="4.77818">
        <ele>198</ele>
        <time>2016-12-10T13:13:47Z</time>
      </trkpt>
      <trkpt lat="45.96153" lon="4.77822">
        <ele>198</ele>
        <time>2016-12-10T13:13:48Z</time>
      </trkpt>
      <trkpt lat="45.96156" lon="4.77827">
        <ele>198</ele>
        <time>2016-12-10T13:13:49Z</time>
      </trkpt>
      <trkpt lat="45.96159" lon="4.77832">
        <ele>199</ele>
        <time>2016-12-10T13:13:50Z</time>
      </trkpt>
      <trkpt lat="45.96162" lon="4.77837">
        <ele>198</ele>
        <time>2016-12-10T13:13:51Z</time>
      </trkpt>
      <trkpt lat="45.96165" lon="4.77842">
        <ele>198</ele>
        <time>2016-12-10T13:13:52Z</time>
      </trkpt>
      <trkpt lat="45.96168" lon="4.77847">
        <ele>200</ele>
        <time>2016-12-10T13:13:53Z</time>
      </trkpt>
      <trkpt lat="45.96172" lon="4.77853">
        <ele>201</ele>
        <time>2016-12-10T13:13:54Z</time>
      </trkpt>
      <trkpt lat="45.96175" lon="4.77858">
        <ele>201</ele>
        <time>2016-12-10T13:13:55Z</time>
      </trkpt>
      <trkpt lat="45.96177" lon="4.77864">
        <ele>201</ele>
        <time>2016-12-10T13:13:56Z</time>
      </trkpt>
      <trkpt lat="45.9618" lon="4.77869">
        <ele>201</ele>
        <time>2016-12-10T13:13:57Z</time>
      </trkpt>
      <trkpt lat="45.96183" lon="4.77874">
        <ele>201</ele>
        <time>2016-12-10T13:13:58Z</time>
      </trkpt>
      <trkpt lat="45.96186" lon="4.77879">
        <ele>201</ele>
        <time>2016-12-10T13:13:59Z</time>
      </trkpt>
      <trkpt lat="45.9619" lon="4.77884">
        <ele>201</ele>
        <time>2016-12-10T13:14:00Z</time>
      </trkpt>
      <trkpt lat="45.96193" lon="4.77889">
        <ele>201</ele>
        <time>2016-12-10T13:14:01Z</time>
      </trkpt>
      <trkpt lat="45.96196" lon="4.77893">
        <ele>201</ele>
        <time>2016-12-10T13:14:02Z</time>
      </trkpt>
      <trkpt lat="45.96202" lon="4.77903">
        <ele>202</ele>
        <time>2016-12-10T13:14:04Z</time>
      </trkpt>
      <trkpt lat="45.96205" lon="4.77908">
        <ele>202</ele>
        <time>2016-12-10T13:14:05Z</time>
      </trkpt>
      <trkpt lat="45.96208" lon="4.77913">
        <ele>202</ele>
        <time>2016-12-10T13:14:06Z</time>
      </trkpt>
      <trkpt lat="45.96212" lon="4.77919">
        <ele>199</ele>
        <time>2016-12-10T13:14:07Z</time>
      </trkpt>
      <trkpt lat="45.96215" lon="4.77923">
        <ele>200</ele>
        <time>2016-12-10T13:14:08Z</time>
      </trkpt>
      <trkpt lat="45.96218" lon="4.77928">
        <ele>200</ele>
        <time>2016-12-10T13:14:09Z</time>
      </trkpt>
      <trkpt lat="45.96222" lon="4.77933">
        <ele>200</ele>
        <time>2016-12-10T13:14:10Z</time>
      </trkpt>
      <trkpt lat="45.96225" lon="4.77938">
        <ele>200</ele>
        <time>2016-12-10T13:14:11Z</time>
      </trkpt>
      <trkpt lat="45.96229" lon="4.77942">
        <ele>200</ele>
        <time>2016-12-10T13:14:12Z</time>
      </trkpt>
      <trkpt lat="45.96233" lon="4.77945">
        <ele>200</ele>
        <time>2016-12-10T13:14:13Z</time>
      </trkpt>
      <trkpt lat="45.96241" lon="4.77952">
        <ele>200</ele>
        <time>2016-12-10T13:14:15Z</time>
      </trkpt>
      <trkpt lat="45.96245" lon="4.77956">
        <ele>199</ele>
        <time>2016-12-10T13:14:16Z</time>
      </trkpt>
      <trkpt lat="45.96249" lon="4.77961">
        <ele>199</ele>
        <time>2016-12-10T13:14:17Z</time>
      </trkpt>
      <trkpt lat="45.96254" lon="4.77965">
        <ele>204</ele>
        <time>2016-12-10T13:14:18Z</time>
      </trkpt>
      <trkpt lat="45.96258" lon="4.7797">
        <ele>204</ele>
        <time>2016-12-10T13:14:19Z</time>
      </trkpt>
      <trkpt lat="45.96263" lon="4.77973">
        <ele>203</ele>
        <time>2016-12-10T13:14:20Z</time>
      </trkpt>
      <trkpt lat="45.96267" lon="4.77977">
        <ele>203</ele>
        <time>2016-12-10T13:14:21Z</time>
      </trkpt>
      <trkpt lat="45.96271" lon="4.77981">
        <ele>203</ele>
        <time>2016-12-10T13:14:22Z</time>
      </trkpt>
      <trkpt lat="45.96276" lon="4.77985">
        <ele>203</ele>
        <time>2016-12-10T13:14:23Z</time>
      </trkpt>
      <trkpt lat="45.9628" lon="4.77989">
        <ele>203</ele>
        <time>2016-12-10T13:14:24Z</time>
      </trkpt>
      <trkpt lat="45.96285" lon="4.77995">
        <ele>204</ele>
        <time>2016-12-10T13:14:25Z</time>
      </trkpt>
      <trkpt lat="45.9629" lon="4.77999">
        <ele>204</ele>
        <time>2016-12-10T13:14:26Z</time>
      </trkpt>
      <trkpt lat="45.96295" lon="4.78003">
        <ele>199</ele>
        <time>2016-12-10T13:14:27Z</time>
      </trkpt>
      <trkpt lat="45.96299" lon="4.78007">
        <ele>200</ele>
        <time>2016-12-10T13:14:28Z</time>
      </trkpt>
      <trkpt lat="45.96303" lon="4.78011">
        <ele>200</ele>
        <time>2016-12-10T13:14:29Z</time>
      </trkpt>
      <trkpt lat="45.96307" lon="4.78015">
        <ele>200</ele>
        <time>2016-12-10T13:14:30Z</time>
      </trkpt>
      <trkpt lat="45.96312" lon="4.7802">
        <ele>200</ele>
        <time>2016-12-10T13:14:31Z</time>
      </trkpt>
      <trkpt lat="45.96316" lon="4.78025">
        <ele>200</ele>
        <time>2016-12-10T13:14:32Z</time>
      </trkpt>
      <trkpt lat="45.9632" lon="4.7803">
        <ele>200</ele>
        <time>2016-12-10T13:14:33Z</time>
      </trkpt>
      <trkpt lat="45.96323" lon="4.78035">
        <ele>200</ele>
        <time>2016-12-10T13:14:34Z</time>
      </trkpt>
      <trkpt lat="45.9633" lon="4.78043">
        <ele>199</ele>
        <time>2016-12-10T13:14:36Z</time>
      </trkpt>
      <trkpt lat="45.96333" lon="4.78048">
        <ele>199</ele>
        <time>2016-12-10T13:14:37Z</time>
      </trkpt>
      <trkpt lat="45.96337" lon="4.78053">
        <ele>202</ele>
        <time>2016-12-10T13:14:38Z</time>
      </trkpt>
      <trkpt lat="45.9634" lon="4.78057">
        <ele>202</ele>
        <time>2016-12-10T13:14:39Z</time>
      </trkpt>
      <trkpt lat="45.96344" lon="4.78062">
        <ele>202</ele>
        <time>2016-12-10T13:14:40Z</time>
      </trkpt>
      <trkpt lat="45.96347" lon="4.78067">
        <ele>202</ele>
        <time>2016-12-10T13:14:41Z</time>
      </trkpt>
      <trkpt lat="45.96351" lon="4.78072">
        <ele>201</ele>
        <time>2016-12-10T13:14:42Z</time>
      </trkpt>
      <trkpt lat="45.96354" lon="4.78077">
        <ele>201</ele>
        <time>2016-12-10T13:14:43Z</time>
      </trkpt>
      <trkpt lat="45.96358" lon="4.78082">
        <ele>202</ele>
        <time>2016-12-10T13:14:44Z</time>
      </trkpt>
      <trkpt lat="45.96362" lon="4.78086">
        <ele>199</ele>
        <time>2016-12-10T13:14:45Z</time>
      </trkpt>
      <trkpt lat="45.96366" lon="4.78091">
        <ele>199</ele>
        <time>2016-12-10T13:14:46Z</time>
      </trkpt>
      <trkpt lat="45.9637" lon="4.78094">
        <ele>199</ele>
        <time>2016-12-10T13:14:47Z</time>
      </trkpt>
      <trkpt lat="45.96377" lon="4.781">
        <ele>200</ele>
        <time>2016-12-10T13:14:49Z</time>
      </trkpt>
      <trkpt lat="45.96382" lon="4.78104">
        <ele>200</ele>
        <time>2016-12-10T13:14:50Z</time>
      </trkpt>
      <trkpt lat="45.96385" lon="4.78108">
        <ele>200</ele>
        <time>2016-12-10T13:14:51Z</time>
      </trkpt>
      <trkpt lat="45.96389" lon="4.78112">
        <ele>200</ele>
        <time>2016-12-10T13:14:52Z</time>
      </trkpt>
      <trkpt lat="45.96394" lon="4.78117">
        <ele>200</ele>
        <time>2016-12-10T13:14:53Z</time>
      </trkpt>
      <trkpt lat="45.96398" lon="4.7812">
        <ele>200</ele>
        <time>2016-12-10T13:14:54Z</time>
      </trkpt>
      <trkpt lat="45.96402" lon="4.78123">
        <ele>200</ele>
        <time>2016-12-10T13:14:55Z</time>
      </trkpt>
      <trkpt lat="45.96407" lon="4.78126">
        <ele>200</ele>
        <time>2016-12-10T13:14:56Z</time>
      </trkpt>
      <trkpt lat="45.96411" lon="4.78131">
        <ele>199</ele>
        <time>2016-12-10T13:14:57Z</time>
      </trkpt>
      <trkpt lat="45.96415" lon="4.78135">
        <ele>199</ele>
        <time>2016-12-10T13:14:58Z</time>
      </trkpt>
      <trkpt lat="45.96418" lon="4.78138">
        <ele>203</ele>
        <time>2016-12-10T13:14:59Z</time>
      </trkpt>
      <trkpt lat="45.96422" lon="4.78143">
        <ele>203</ele>
        <time>2016-12-10T13:15:00Z</time>
      </trkpt>
      <trkpt lat="45.96426" lon="4.78147">
        <ele>202</ele>
        <time>2016-12-10T13:15:01Z</time>
      </trkpt>
      <trkpt lat="45.96431" lon="4.78151">
        <ele>202</ele>
        <time>2016-12-10T13:15:02Z</time>
      </trkpt>
      <trkpt lat="45.96435" lon="4.78155">
        <ele>202</ele>
        <time>2016-12-10T13:15:03Z</time>
      </trkpt>
      <trkpt lat="45.9644" lon="4.7816">
        <ele>203</ele>
        <time>2016-12-10T13:15:04Z</time>
      </trkpt>
      <trkpt lat="45.96444" lon="4.78164">
        <ele>203</ele>
        <time>2016-12-10T13:15:05Z</time>
      </trkpt>
      <trkpt lat="45.96449" lon="4.78167">
        <ele>199</ele>
        <time>2016-12-10T13:15:06Z</time>
      </trkpt>
      <trkpt lat="45.96453" lon="4.78172">
        <ele>200</ele>
        <time>2016-12-10T13:15:07Z</time>
      </trkpt>
      <trkpt lat="45.96457" lon="4.78176">
        <ele>200</ele>
        <time>2016-12-10T13:15:08Z</time>
      </trkpt>
      <trkpt lat="45.96461" lon="4.7818">
        <ele>200</ele>
        <time>2016-12-10T13:15:09Z</time>
      </trkpt>
      <trkpt lat="45.96466" lon="4.78183">
        <ele>200</ele>
        <time>2016-12-10T13:15:10Z</time>
      </trkpt>
      <trkpt lat="45.9647" lon="4.78186">
        <ele>200</ele>
        <time>2016-12-10T13:15:11Z</time>
      </trkpt>
      <trkpt lat="45.96475" lon="4.78188">
        <ele>200</ele>
        <time>2016-12-10T13:15:12Z</time>
      </trkpt>
      <trkpt lat="45.9648" lon="4.78191">
        <ele>201</ele>
        <time>2016-12-10T13:15:13Z</time>
      </trkpt>
      <trkpt lat="45.96484" lon="4.78193">
        <ele>201</ele>
        <time>2016-12-10T13:15:14Z</time>
      </trkpt>
      <trkpt lat="45.96489" lon="4.78195">
        <ele>201</ele>
        <time>2016-12-10T13:15:15Z</time>
      </trkpt>
      <trkpt lat="45.96493" lon="4.78199">
        <ele>200</ele>
        <time>2016-12-10T13:15:16Z</time>
      </trkpt>
      <trkpt lat="45.96499" lon="4.78205">
        <ele>200</ele>
        <time>2016-12-10T13:15:18Z</time>
      </trkpt>
      <trkpt lat="45.96502" lon="4.7821">
        <ele>205</ele>
        <time>2016-12-10T13:15:19Z</time>
      </trkpt>
      <trkpt lat="45.96508" lon="4.78219">
        <ele>204</ele>
        <time>2016-12-10T13:15:21Z</time>
      </trkpt>
      <trkpt lat="45.96511" lon="4.78223">
        <ele>204</ele>
        <time>2016-12-10T13:15:22Z</time>
      </trkpt>
      <trkpt lat="45.96516" lon="4.78233">
        <ele>203</ele>
        <time>2016-12-10T13:15:24Z</time>
      </trkpt>
      <trkpt lat="45.96519" lon="4.78236">
        <ele>203</ele>
        <time>2016-12-10T13:15:25Z</time>
      </trkpt>
      <trkpt lat="45.96524" lon="4.78246">
        <ele>203</ele>
        <time>2016-12-10T13:15:27Z</time>
      </trkpt>
      <trkpt lat="45.96527" lon="4.78251">
        <ele>200</ele>
        <time>2016-12-10T13:15:28Z</time>
      </trkpt>
      <trkpt lat="45.9653" lon="4.78256">
        <ele>200</ele>
        <time>2016-12-10T13:15:29Z</time>
      </trkpt>
      <trkpt lat="45.96534" lon="4.78261">
        <ele>200</ele>
        <time>2016-12-10T13:15:30Z</time>
      </trkpt>
      <trkpt lat="45.96538" lon="4.78266">
        <ele>200</ele>
        <time>2016-12-10T13:15:31Z</time>
      </trkpt>
      <trkpt lat="45.96541" lon="4.78271">
        <ele>200</ele>
        <time>2016-12-10T13:15:32Z</time>
      </trkpt>
      <trkpt lat="45.96548" lon="4.78279">
        <ele>200</ele>
        <time>2016-12-10T13:15:34Z</time>
      </trkpt>
      <trkpt lat="45.96551" lon="4.78283">
        <ele>200</ele>
        <time>2016-12-10T13:15:35Z</time>
      </trkpt>
      <trkpt lat="45.96557" lon="4.78291">
        <ele>200</ele>
        <time>2016-12-10T13:15:37Z</time>
      </trkpt>
      <trkpt lat="45.9656" lon="4.78294">
        <ele>200</ele>
        <time>2016-12-10T13:15:38Z</time>
      </trkpt>
      <trkpt lat="45.96566" lon="4.78302">
        <ele>200</ele>
        <time>2016-12-10T13:15:40Z</time>
      </trkpt>
      <trkpt lat="45.96569" lon="4.78305">
        <ele>200</ele>
        <time>2016-12-10T13:15:41Z</time>
      </trkpt>
      <trkpt lat="45.96573" lon="4.78309">
        <ele>200</ele>
        <time>2016-12-10T13:15:42Z</time>
      </trkpt>
      <trkpt lat="45.96577" lon="4.78313">
        <ele>199</ele>
        <time>2016-12-10T13:15:43Z</time>
      </trkpt>
      <trkpt lat="45.96581" lon="4.78316">
        <ele>199</ele>
        <time>2016-12-10T13:15:44Z</time>
      </trkpt>
      <trkpt lat="45.96585" lon="4.7832">
        <ele>202</ele>
        <time>2016-12-10T13:15:45Z</time>
      </trkpt>
      <trkpt lat="45.96589" lon="4.78324">
        <ele>201</ele>
        <time>2016-12-10T13:15:46Z</time>
      </trkpt>
      <trkpt lat="45.96593" lon="4.78329">
        <ele>201</ele>
        <time>2016-12-10T13:15:47Z</time>
      </trkpt>
      <trkpt lat="45.96598" lon="4.78333">
        <ele>202</ele>
        <time>2016-12-10T13:15:48Z</time>
      </trkpt>
      <trkpt lat="45.96602" lon="4.78336">
        <ele>200</ele>
        <time>2016-12-10T13:15:49Z</time>
      </trkpt>
      <trkpt lat="45.96609" lon="4.78343">
        <ele>200</ele>
        <time>2016-12-10T13:15:51Z</time>
      </trkpt>
      <trkpt lat="45.96613" lon="4.78346">
        <ele>200</ele>
        <time>2016-12-10T13:15:52Z</time>
      </trkpt>
      <trkpt lat="45.96618" lon="4.78352">
        <ele>201</ele>
        <time>2016-12-10T13:15:54Z</time>
      </trkpt>
      <trkpt lat="45.96621" lon="4.78355">
        <ele>201</ele>
        <time>2016-12-10T13:15:55Z</time>
      </trkpt>
      <trkpt lat="45.96628" lon="4.78361">
        <ele>201</ele>
        <time>2016-12-10T13:15:57Z</time>
      </trkpt>
      <trkpt lat="45.96632" lon="4.78365">
        <ele>201</ele>
        <time>2016-12-10T13:15:58Z</time>
      </trkpt>
      <trkpt lat="45.96636" lon="4.78369">
        <ele>201</ele>
        <time>2016-12-10T13:15:59Z</time>
      </trkpt>
      <trkpt lat="45.9664" lon="4.78373">
        <ele>201</ele>
        <time>2016-12-10T13:16:00Z</time>
      </trkpt>
      <trkpt lat="45.96645" lon="4.78377">
        <ele>201</ele>
        <time>2016-12-10T13:16:01Z</time>
      </trkpt>
      <trkpt lat="45.96649" lon="4.78381">
        <ele>201</ele>
        <time>2016-12-10T13:16:02Z</time>
      </trkpt>
      <trkpt lat="45.96653" lon="4.78385">
        <ele>201</ele>
        <time>2016-12-10T13:16:03Z</time>
      </trkpt>
      <trkpt lat="45.96657" lon="4.7839">
        <ele>201</ele>
        <time>2016-12-10T13:16:04Z</time>
      </trkpt>
      <trkpt lat="45.96661" lon="4.78394">
        <ele>201</ele>
        <time>2016-12-10T13:16:05Z</time>
      </trkpt>
      <trkpt lat="45.96666" lon="4.78398">
        <ele>201</ele>
        <time>2016-12-10T13:16:06Z</time>
      </trkpt>
      <trkpt lat="45.9667" lon="4.78402">
        <ele>203</ele>
        <time>2016-12-10T13:16:07Z</time>
      </trkpt>
      <trkpt lat="45.96673" lon="4.78406">
        <ele>203</ele>
        <time>2016-12-10T13:16:08Z</time>
      </trkpt>
      <trkpt lat="45.9668" lon="4.78412">
        <ele>203</ele>
        <time>2016-12-10T13:16:10Z</time>
      </trkpt>
      <trkpt lat="45.96683" lon="4.78415">
        <ele>204</ele>
        <time>2016-12-10T13:16:11Z</time>
      </trkpt>
      <trkpt lat="45.9669" lon="4.78422">
        <ele>202</ele>
        <time>2016-12-10T13:16:13Z</time>
      </trkpt>
      <trkpt lat="45.96693" lon="4.78425">
        <ele>202</ele>
        <time>2016-12-10T13:16:14Z</time>
      </trkpt>
      <trkpt lat="45.96699" lon="4.78434">
        <ele>203</ele>
        <time>2016-12-10T13:16:16Z</time>
      </trkpt>
      <trkpt lat="45.96703" lon="4.78438">
        <ele>203</ele>
        <time>2016-12-10T13:16:17Z</time>
      </trkpt>
      <trkpt lat="45.9671" lon="4.78445">
        <ele>203</ele>
        <time>2016-12-10T13:16:19Z</time>
      </trkpt>
      <trkpt lat="45.96715" lon="4.7845">
        <ele>203</ele>
        <time>2016-12-10T13:16:20Z</time>
      </trkpt>
      <trkpt lat="45.96719" lon="4.78454">
        <ele>203</ele>
        <time>2016-12-10T13:16:21Z</time>
      </trkpt>
      <trkpt lat="45.96724" lon="4.78458">
        <ele>203</ele>
        <time>2016-12-10T13:16:22Z</time>
      </trkpt>
      <trkpt lat="45.96729" lon="4.78462">
        <ele>203</ele>
        <time>2016-12-10T13:16:23Z</time>
      </trkpt>
      <trkpt lat="45.96733" lon="4.78466">
        <ele>203</ele>
        <time>2016-12-10T13:16:24Z</time>
      </trkpt>
      <trkpt lat="45.96738" lon="4.7847">
        <ele>203</ele>
        <time>2016-12-10T13:16:25Z</time>
      </trkpt>
      <trkpt lat="45.96743" lon="4.78473">
        <ele>203</ele>
        <time>2016-12-10T13:16:26Z</time>
      </trkpt>
      <trkpt lat="45.96748" lon="4.78476">
        <ele>203</ele>
        <time>2016-12-10T13:16:27Z</time>
      </trkpt>
      <trkpt lat="45.96753" lon="4.78481">
        <ele>205</ele>
        <time>2016-12-10T13:16:28Z</time>
      </trkpt>
      <trkpt lat="45.96757" lon="4.78486">
        <ele>205</ele>
        <time>2016-12-10T13:16:29Z</time>
      </trkpt>
      <trkpt lat="45.96762" lon="4.78491">
        <ele>204</ele>
        <time>2016-12-10T13:16:30Z</time>
      </trkpt>
      <trkpt lat="45.96765" lon="4.78496">
        <ele>205</ele>
        <time>2016-12-10T13:16:31Z</time>
      </trkpt>
      <trkpt lat="45.96769" lon="4.78501">
        <ele>203</ele>
        <time>2016-12-10T13:16:32Z</time>
      </trkpt>
      <trkpt lat="45.96772" lon="4.78506">
        <ele>203</ele>
        <time>2016-12-10T13:16:33Z</time>
      </trkpt>
      <trkpt lat="45.96776" lon="4.78511">
        <ele>203</ele>
        <time>2016-12-10T13:16:34Z</time>
      </trkpt>
      <trkpt lat="45.96779" lon="4.78516">
        <ele>203</ele>
        <time>2016-12-10T13:16:35Z</time>
      </trkpt>
      <trkpt lat="45.96783" lon="4.78521">
        <ele>203</ele>
        <time>2016-12-10T13:16:36Z</time>
      </trkpt>
      <trkpt lat="45.96786" lon="4.78526">
        <ele>203</ele>
        <time>2016-12-10T13:16:37Z</time>
      </trkpt>
      <trkpt lat="45.9679" lon="4.78532">
        <ele>203</ele>
        <time>2016-12-10T13:16:38Z</time>
      </trkpt>
      <trkpt lat="45.96793" lon="4.78537">
        <ele>203</ele>
        <time>2016-12-10T13:16:39Z</time>
      </trkpt>
      <trkpt lat="45.96797" lon="4.78543">
        <ele>203</ele>
        <time>2016-12-10T13:16:40Z</time>
      </trkpt>
      <trkpt lat="45.968" lon="4.78548">
        <ele>203</ele>
        <time>2016-12-10T13:16:41Z</time>
      </trkpt>
      <trkpt lat="45.96804" lon="4.78554">
        <ele>203</ele>
        <time>2016-12-10T13:16:42Z</time>
      </trkpt>
      <trkpt lat="45.96807" lon="4.7856">
        <ele>203</ele>
        <time>2016-12-10T13:16:43Z</time>
      </trkpt>
      <trkpt lat="45.96811" lon="4.78565">
        <ele>203</ele>
        <time>2016-12-10T13:16:44Z</time>
      </trkpt>
      <trkpt lat="45.96814" lon="4.7857">
        <ele>203</ele>
        <time>2016-12-10T13:16:45Z</time>
      </trkpt>
      <trkpt lat="45.96817" lon="4.78574">
        <ele>203</ele>
        <time>2016-12-10T13:16:46Z</time>
      </trkpt>
      <trkpt lat="45.96822" lon="4.78584">
        <ele>202</ele>
        <time>2016-12-10T13:16:48Z</time>
      </trkpt>
      <trkpt lat="45.96824" lon="4.78591">
        <ele>202</ele>
        <time>2016-12-10T13:16:49Z</time>
      </trkpt>
      <trkpt lat="45.96826" lon="4.78597">
        <ele>202</ele>
        <time>2016-12-10T13:16:50Z</time>
      </trkpt>
      <trkpt lat="45.96829" lon="4.78605">
        <ele>202</ele>
        <time>2016-12-10T13:16:51Z</time>
      </trkpt>
      <trkpt lat="45.96831" lon="4.78611">
        <ele>202</ele>
        <time>2016-12-10T13:16:52Z</time>
      </trkpt>
      <trkpt lat="45.96834" lon="4.78618">
        <ele>203</ele>
        <time>2016-12-10T13:16:53Z</time>
      </trkpt>
      <trkpt lat="45.96837" lon="4.78625">
        <ele>203</ele>
        <time>2016-12-10T13:16:54Z</time>
      </trkpt>
      <trkpt lat="45.96839" lon="4.78632">
        <ele>203</ele>
        <time>2016-12-10T13:16:55Z</time>
      </trkpt>
      <trkpt lat="45.96842" lon="4.78639">
        <ele>203</ele>
        <time>2016-12-10T13:16:56Z</time>
      </trkpt>
      <trkpt lat="45.96845" lon="4.78645">
        <ele>203</ele>
        <time>2016-12-10T13:16:57Z</time>
      </trkpt>
      <trkpt lat="45.96848" lon="4.78651">
        <ele>203</ele>
        <time>2016-12-10T13:16:58Z</time>
      </trkpt>
      <trkpt lat="45.96851" lon="4.78657">
        <ele>203</ele>
        <time>2016-12-10T13:16:59Z</time>
      </trkpt>
      <trkpt lat="45.96854" lon="4.78662">
        <ele>203</ele>
        <time>2016-12-10T13:17:00Z</time>
      </trkpt>
      <trkpt lat="45.96856" lon="4.78668">
        <ele>202</ele>
        <time>2016-12-10T13:17:01Z</time>
      </trkpt>
      <trkpt lat="45.96859" lon="4.78674">
        <ele>202</ele>
        <time>2016-12-10T13:17:02Z</time>
      </trkpt>
      <trkpt lat="45.96862" lon="4.78681">
        <ele>202</ele>
        <time>2016-12-10T13:17:03Z</time>
      </trkpt>
      <trkpt lat="45.96865" lon="4.78686">
        <ele>202</ele>
        <time>2016-12-10T13:17:04Z</time>
      </trkpt>
      <trkpt lat="45.96868" lon="4.78692">
        <ele>202</ele>
        <time>2016-12-10T13:17:05Z</time>
      </trkpt>
      <trkpt lat="45.96871" lon="4.78698">
        <ele>202</ele>
        <time>2016-12-10T13:17:06Z</time>
      </trkpt>
      <trkpt lat="45.96874" lon="4.78704">
        <ele>202</ele>
        <time>2016-12-10T13:17:07Z</time>
      </trkpt>
      <trkpt lat="45.96877" lon="4.78711">
        <ele>202</ele>
        <time>2016-12-10T13:17:08Z</time>
      </trkpt>
      <trkpt lat="45.9688" lon="4.78718">
        <ele>202</ele>
        <time>2016-12-10T13:17:09Z</time>
      </trkpt>
      <trkpt lat="45.96882" lon="4.78724">
        <ele>202</ele>
        <time>2016-12-10T13:17:10Z</time>
      </trkpt>
      <trkpt lat="45.96885" lon="4.7873">
        <ele>202</ele>
        <time>2016-12-10T13:17:11Z</time>
      </trkpt>
      <trkpt lat="45.96887" lon="4.78735">
        <ele>202</ele>
        <time>2016-12-10T13:17:12Z</time>
      </trkpt>
      <trkpt lat="45.9689" lon="4.78741">
        <ele>202</ele>
        <time>2016-12-10T13:17:13Z</time>
      </trkpt>
      <trkpt lat="45.96893" lon="4.78746">
        <ele>202</ele>
        <time>2016-12-10T13:17:14Z</time>
      </trkpt>
      <trkpt lat="45.96895" lon="4.78752">
        <ele>201</ele>
        <time>2016-12-10T13:17:15Z</time>
      </trkpt>
      <trkpt lat="45.96898" lon="4.78757">
        <ele>201</ele>
        <time>2016-12-10T13:17:16Z</time>
      </trkpt>
      <trkpt lat="45.969" lon="4.78763">
        <ele>201</ele>
        <time>2016-12-10T13:17:17Z</time>
      </trkpt>
      <trkpt lat="45.96903" lon="4.78768">
        <ele>201</ele>
        <time>2016-12-10T13:17:18Z</time>
      </trkpt>
      <trkpt lat="45.96905" lon="4.78774">
        <ele>201</ele>
        <time>2016-12-10T13:17:19Z</time>
      </trkpt>
      <trkpt lat="45.96907" lon="4.7878">
        <ele>201</ele>
        <time>2016-12-10T13:17:20Z</time>
      </trkpt>
      <trkpt lat="45.9691" lon="4.78786">
        <ele>201</ele>
        <time>2016-12-10T13:17:21Z</time>
      </trkpt>
      <trkpt lat="45.96912" lon="4.78792">
        <ele>201</ele>
        <time>2016-12-10T13:17:22Z</time>
      </trkpt>
      <trkpt lat="45.96915" lon="4.78798">
        <ele>201</ele>
        <time>2016-12-10T13:17:23Z</time>
      </trkpt>
      <trkpt lat="45.96919" lon="4.78803">
        <ele>203</ele>
        <time>2016-12-10T13:17:24Z</time>
      </trkpt>
      <trkpt lat="45.96922" lon="4.78808">
        <ele>203</ele>
        <time>2016-12-10T13:17:25Z</time>
      </trkpt>
      <trkpt lat="45.96926" lon="4.78814">
        <ele>202</ele>
        <time>2016-12-10T13:17:26Z</time>
      </trkpt>
      <trkpt lat="45.96929" lon="4.78819">
        <ele>202</ele>
        <time>2016-12-10T13:17:27Z</time>
      </trkpt>
      <trkpt lat="45.96933" lon="4.78824">
        <ele>202</ele>
        <time>2016-12-10T13:17:28Z</time>
      </trkpt>
      <trkpt lat="45.96936" lon="4.78829">
        <ele>202</ele>
        <time>2016-12-10T13:17:29Z</time>
      </trkpt>
      <trkpt lat="45.9694" lon="4.78833">
        <ele>203</ele>
        <time>2016-12-10T13:17:30Z</time>
      </trkpt>
      <trkpt lat="45.96944" lon="4.78838">
        <ele>202</ele>
        <time>2016-12-10T13:17:31Z</time>
      </trkpt>
      <trkpt lat="45.96948" lon="4.78843">
        <ele>202</ele>
        <time>2016-12-10T13:17:32Z</time>
      </trkpt>
      <trkpt lat="45.96952" lon="4.78847">
        <ele>203</ele>
        <time>2016-12-10T13:17:33Z</time>
      </trkpt>
      <trkpt lat="45.96956" lon="4.78852">
        <ele>203</ele>
        <time>2016-12-10T13:17:34Z</time>
      </trkpt>
      <trkpt lat="45.9696" lon="4.78856">
        <ele>203</ele>
        <time>2016-12-10T13:17:35Z</time>
      </trkpt>
      <trkpt lat="45.96964" lon="4.7886">
        <ele>203</ele>
        <time>2016-12-10T13:17:36Z</time>
      </trkpt>
      <trkpt lat="45.96968" lon="4.78864">
        <ele>203</ele>
        <time>2016-12-10T13:17:37Z</time>
      </trkpt>
      <trkpt lat="45.96972" lon="4.78869">
        <ele>203</ele>
        <time>2016-12-10T13:17:38Z</time>
      </trkpt>
      <trkpt lat="45.96975" lon="4.78873">
        <ele>203</ele>
        <time>2016-12-10T13:17:39Z</time>
      </trkpt>
      <trkpt lat="45.96979" lon="4.78877">
        <ele>203</ele>
        <time>2016-12-10T13:17:40Z</time>
      </trkpt>
      <trkpt lat="45.96983" lon="4.78882">
        <ele>203</ele>
        <time>2016-12-10T13:17:41Z</time>
      </trkpt>
      <trkpt lat="45.96987" lon="4.78886">
        <ele>203</ele>
        <time>2016-12-10T13:17:42Z</time>
      </trkpt>
      <trkpt lat="45.9699" lon="4.78891">
        <ele>203</ele>
        <time>2016-12-10T13:17:43Z</time>
      </trkpt>
      <trkpt lat="45.96994" lon="4.78895">
        <ele>203</ele>
        <time>2016-12-10T13:17:44Z</time>
      </trkpt>
      <trkpt lat="45.96997" lon="4.789">
        <ele>204</ele>
        <time>2016-12-10T13:17:45Z</time>
      </trkpt>
      <trkpt lat="45.97001" lon="4.78904">
        <ele>206</ele>
        <time>2016-12-10T13:17:46Z</time>
      </trkpt>
      <trkpt lat="45.97004" lon="4.78909">
        <ele>205</ele>
        <time>2016-12-10T13:17:47Z</time>
      </trkpt>
      <trkpt lat="45.97008" lon="4.78913">
        <ele>205</ele>
        <time>2016-12-10T13:17:48Z</time>
      </trkpt>
      <trkpt lat="45.97011" lon="4.78917">
        <ele>204</ele>
        <time>2016-12-10T13:17:49Z</time>
      </trkpt>
      <trkpt lat="45.97015" lon="4.78922">
        <ele>205</ele>
        <time>2016-12-10T13:17:50Z</time>
      </trkpt>
      <trkpt lat="45.97018" lon="4.78927">
        <ele>205</ele>
        <time>2016-12-10T13:17:51Z</time>
      </trkpt>
      <trkpt lat="45.97021" lon="4.78932">
        <ele>205</ele>
        <time>2016-12-10T13:17:52Z</time>
      </trkpt>
      <trkpt lat="45.97024" lon="4.78937">
        <ele>205</ele>
        <time>2016-12-10T13:17:53Z</time>
      </trkpt>
      <trkpt lat="45.97027" lon="4.78942">
        <ele>205</ele>
        <time>2016-12-10T13:17:54Z</time>
      </trkpt>
      <trkpt lat="45.9703" lon="4.78947">
        <ele>205</ele>
        <time>2016-12-10T13:17:55Z</time>
      </trkpt>
      <trkpt lat="45.97034" lon="4.78952">
        <ele>205</ele>
        <time>2016-12-10T13:17:56Z</time>
      </trkpt>
      <trkpt lat="45.97037" lon="4.78957">
        <ele>205</ele>
        <time>2016-12-10T13:17:57Z</time>
      </trkpt>
      <trkpt lat="45.97039" lon="4.78962">
        <ele>205</ele>
        <time>2016-12-10T13:17:58Z</time>
      </trkpt>
      <trkpt lat="45.97042" lon="4.78968">
        <ele>205</ele>
        <time>2016-12-10T13:17:59Z</time>
      </trkpt>
      <trkpt lat="45.97045" lon="4.78973">
        <ele>205</ele>
        <time>2016-12-10T13:18:00Z</time>
      </trkpt>
      <trkpt lat="45.97047" lon="4.78979">
        <ele>205</ele>
        <time>2016-12-10T13:18:01Z</time>
      </trkpt>
      <trkpt lat="45.9705" lon="4.78986">
        <ele>205</ele>
        <time>2016-12-10T13:18:02Z</time>
      </trkpt>
      <trkpt lat="45.97052" lon="4.78992">
        <ele>205</ele>
        <time>2016-12-10T13:18:03Z</time>
      </trkpt>
      <trkpt lat="45.97054" lon="4.79">
        <ele>205</ele>
        <time>2016-12-10T13:18:04Z</time>
      </trkpt>
      <trkpt lat="45.97056" lon="4.79004">
        <ele>203</ele>
        <time>2016-12-10T13:18:05Z</time>
      </trkpt>
      <trkpt lat="45.97059" lon="4.79015">
        <ele>204</ele>
        <time>2016-12-10T13:18:07Z</time>
      </trkpt>
      <trkpt lat="45.97061" lon="4.79021">
        <ele>204</ele>
        <time>2016-12-10T13:18:08Z</time>
      </trkpt>
      <trkpt lat="45.97063" lon="4.79026">
        <ele>203</ele>
        <time>2016-12-10T13:18:09Z</time>
      </trkpt>
      <trkpt lat="45.97065" lon="4.79033">
        <ele>203</ele>
        <time>2016-12-10T13:18:10Z</time>
      </trkpt>
      <trkpt lat="45.97066" lon="4.7904">
        <ele>203</ele>
        <time>2016-12-10T13:18:11Z</time>
      </trkpt>
      <trkpt lat="45.97067" lon="4.79048">
        <ele>203</ele>
        <time>2016-12-10T13:18:12Z</time>
      </trkpt>
      <trkpt lat="45.97069" lon="4.79055">
        <ele>203</ele>
        <time>2016-12-10T13:18:13Z</time>
      </trkpt>
      <trkpt lat="45.97071" lon="4.79061">
        <ele>203</ele>
        <time>2016-12-10T13:18:14Z</time>
      </trkpt>
      <trkpt lat="45.97073" lon="4.79068">
        <ele>204</ele>
        <time>2016-12-10T13:18:15Z</time>
      </trkpt>
      <trkpt lat="45.97075" lon="4.79075">
        <ele>204</ele>
        <time>2016-12-10T13:18:16Z</time>
      </trkpt>
      <trkpt lat="45.97076" lon="4.79081">
        <ele>204</ele>
        <time>2016-12-10T13:18:17Z</time>
      </trkpt>
      <trkpt lat="45.97078" lon="4.79089">
        <ele>204</ele>
        <time>2016-12-10T13:18:18Z</time>
      </trkpt>
      <trkpt lat="45.97079" lon="4.79096">
        <ele>204</ele>
        <time>2016-12-10T13:18:19Z</time>
      </trkpt>
      <trkpt lat="45.97081" lon="4.79102">
        <ele>204</ele>
        <time>2016-12-10T13:18:20Z</time>
      </trkpt>
      <trkpt lat="45.97083" lon="4.79109">
        <ele>204</ele>
        <time>2016-12-10T13:18:21Z</time>
      </trkpt>
      <trkpt lat="45.97085" lon="4.79115">
        <ele>206</ele>
        <time>2016-12-10T13:18:22Z</time>
      </trkpt>
      <trkpt lat="45.97088" lon="4.79121">
        <ele>206</ele>
        <time>2016-12-10T13:18:23Z</time>
      </trkpt>
      <trkpt lat="45.97091" lon="4.79126">
        <ele>206</ele>
        <time>2016-12-10T13:18:24Z</time>
      </trkpt>
      <trkpt lat="45.97094" lon="4.79132">
        <ele>206</ele>
        <time>2016-12-10T13:18:25Z</time>
      </trkpt>
      <trkpt lat="45.97097" lon="4.79138">
        <ele>206</ele>
        <time>2016-12-10T13:18:26Z</time>
      </trkpt>
      <trkpt lat="45.97101" lon="4.79143">
        <ele>206</ele>
        <time>2016-12-10T13:18:27Z</time>
      </trkpt>
      <trkpt lat="45.97104" lon="4.79149">
        <ele>206</ele>
        <time>2016-12-10T13:18:28Z</time>
      </trkpt>
      <trkpt lat="45.97107" lon="4.79155">
        <ele>206</ele>
        <time>2016-12-10T13:18:29Z</time>
      </trkpt>
      <trkpt lat="45.9711" lon="4.79161">
        <ele>206</ele>
        <time>2016-12-10T13:18:30Z</time>
      </trkpt>
      <trkpt lat="45.97113" lon="4.79166">
        <ele>206</ele>
        <time>2016-12-10T13:18:31Z</time>
      </trkpt>
      <trkpt lat="45.97117" lon="4.79172">
        <ele>206</ele>
        <time>2016-12-10T13:18:32Z</time>
      </trkpt>
      <trkpt lat="45.9712" lon="4.79179">
        <ele>206</ele>
        <time>2016-12-10T13:18:33Z</time>
      </trkpt>
      <trkpt lat="45.97123" lon="4.79185">
        <ele>206</ele>
        <time>2016-12-10T13:18:34Z</time>
      </trkpt>
      <trkpt lat="45.97126" lon="4.79191">
        <ele>206</ele>
        <time>2016-12-10T13:18:35Z</time>
      </trkpt>
      <trkpt lat="45.97128" lon="4.79197">
        <ele>206</ele>
        <time>2016-12-10T13:18:36Z</time>
      </trkpt>
      <trkpt lat="45.97131" lon="4.79203">
        <ele>206</ele>
        <time>2016-12-10T13:18:37Z</time>
      </trkpt>
      <trkpt lat="45.97134" lon="4.7921">
        <ele>206</ele>
        <time>2016-12-10T13:18:38Z</time>
      </trkpt>
      <trkpt lat="45.97136" lon="4.79216">
        <ele>206</ele>
        <time>2016-12-10T13:18:39Z</time>
      </trkpt>
      <trkpt lat="45.97139" lon="4.79223">
        <ele>205</ele>
        <time>2016-12-10T13:18:40Z</time>
      </trkpt>
      <trkpt lat="45.97141" lon="4.79229">
        <ele>205</ele>
        <time>2016-12-10T13:18:41Z</time>
      </trkpt>
      <trkpt lat="45.97144" lon="4.79235">
        <ele>205</ele>
        <time>2016-12-10T13:18:42Z</time>
      </trkpt>
      <trkpt lat="45.97146" lon="4.79241">
        <ele>205</ele>
        <time>2016-12-10T13:18:43Z</time>
      </trkpt>
      <trkpt lat="45.97149" lon="4.79247">
        <ele>205</ele>
        <time>2016-12-10T13:18:44Z</time>
      </trkpt>
      <trkpt lat="45.97151" lon="4.79252">
        <ele>205</ele>
        <time>2016-12-10T13:18:45Z</time>
      </trkpt>
      <trkpt lat="45.97154" lon="4.79259">
        <ele>205</ele>
        <time>2016-12-10T13:18:46Z</time>
      </trkpt>
      <trkpt lat="45.97156" lon="4.79265">
        <ele>205</ele>
        <time>2016-12-10T13:18:47Z</time>
      </trkpt>
      <trkpt lat="45.97159" lon="4.7927">
        <ele>204</ele>
        <time>2016-12-10T13:18:48Z</time>
      </trkpt>
      <trkpt lat="45.97161" lon="4.79277">
        <ele>204</ele>
        <time>2016-12-10T13:18:49Z</time>
      </trkpt>
      <trkpt lat="45.97163" lon="4.79283">
        <ele>204</ele>
        <time>2016-12-10T13:18:50Z</time>
      </trkpt>
      <trkpt lat="45.97165" lon="4.79289">
        <ele>204</ele>
        <time>2016-12-10T13:18:51Z</time>
      </trkpt>
      <trkpt lat="45.97167" lon="4.79295">
        <ele>204</ele>
        <time>2016-12-10T13:18:52Z</time>
      </trkpt>
      <trkpt lat="45.97169" lon="4.79301">
        <ele>207</ele>
        <time>2016-12-10T13:18:53Z</time>
      </trkpt>
      <trkpt lat="45.97172" lon="4.79306">
        <ele>207</ele>
        <time>2016-12-10T13:18:54Z</time>
      </trkpt>
      <trkpt lat="45.97174" lon="4.79312">
        <ele>207</ele>
        <time>2016-12-10T13:18:55Z</time>
      </trkpt>
      <trkpt lat="45.97176" lon="4.79318">
        <ele>207</ele>
        <time>2016-12-10T13:18:56Z</time>
      </trkpt>
      <trkpt lat="45.97179" lon="4.79324">
        <ele>207</ele>
        <time>2016-12-10T13:18:57Z</time>
      </trkpt>
      <trkpt lat="45.97181" lon="4.7933">
        <ele>207</ele>
        <time>2016-12-10T13:18:58Z</time>
      </trkpt>
      <trkpt lat="45.97185" lon="4.7934">
        <ele>207</ele>
        <time>2016-12-10T13:19:00Z</time>
      </trkpt>
      <trkpt lat="45.97188" lon="4.79345">
        <ele>207</ele>
        <time>2016-12-10T13:19:01Z</time>
      </trkpt>
      <trkpt lat="45.9719" lon="4.79351">
        <ele>207</ele>
        <time>2016-12-10T13:19:02Z</time>
      </trkpt>
      <trkpt lat="45.97193" lon="4.79357">
        <ele>207</ele>
        <time>2016-12-10T13:19:03Z</time>
      </trkpt>
      <trkpt lat="45.97195" lon="4.79362">
        <ele>207</ele>
        <time>2016-12-10T13:19:04Z</time>
      </trkpt>
      <trkpt lat="45.97197" lon="4.79368">
        <ele>207</ele>
        <time>2016-12-10T13:19:05Z</time>
      </trkpt>
      <trkpt lat="45.972" lon="4.79374">
        <ele>207</ele>
        <time>2016-12-10T13:19:06Z</time>
      </trkpt>
      <trkpt lat="45.97202" lon="4.7938">
        <ele>208</ele>
        <time>2016-12-10T13:19:07Z</time>
      </trkpt>
      <trkpt lat="45.97204" lon="4.79385">
        <ele>208</ele>
        <time>2016-12-10T13:19:08Z</time>
      </trkpt>
      <trkpt lat="45.97207" lon="4.79391">
        <ele>208</ele>
        <time>2016-12-10T13:19:09Z</time>
      </trkpt>
      <trkpt lat="45.97209" lon="4.79397">
        <ele>208</ele>
        <time>2016-12-10T13:19:10Z</time>
      </trkpt>
      <trkpt lat="45.97212" lon="4.79403">
        <ele>208</ele>
        <time>2016-12-10T13:19:11Z</time>
      </trkpt>
      <trkpt lat="45.97214" lon="4.79409">
        <ele>208</ele>
        <time>2016-12-10T13:19:12Z</time>
      </trkpt>
      <trkpt lat="45.97216" lon="4.79415">
        <ele>208</ele>
        <time>2016-12-10T13:19:13Z</time>
      </trkpt>
      <trkpt lat="45.97218" lon="4.7942">
        <ele>208</ele>
        <time>2016-12-10T13:19:14Z</time>
      </trkpt>
      <trkpt lat="45.9722" lon="4.79426">
        <ele>208</ele>
        <time>2016-12-10T13:19:15Z</time>
      </trkpt>
      <trkpt lat="45.97222" lon="4.79432">
        <ele>209</ele>
        <time>2016-12-10T13:19:16Z</time>
      </trkpt>
      <trkpt lat="45.97225" lon="4.79437">
        <ele>209</ele>
        <time>2016-12-10T13:19:17Z</time>
      </trkpt>
      <trkpt lat="45.97228" lon="4.79448">
        <ele>209</ele>
        <time>2016-12-10T13:19:19Z</time>
      </trkpt>
      <trkpt lat="45.9723" lon="4.79454">
        <ele>209</ele>
        <time>2016-12-10T13:19:20Z</time>
      </trkpt>
      <trkpt lat="45.97234" lon="4.79466">
        <ele>209</ele>
        <time>2016-12-10T13:19:22Z</time>
      </trkpt>
      <trkpt lat="45.97235" lon="4.79471">
        <ele>209</ele>
        <time>2016-12-10T13:19:23Z</time>
      </trkpt>
      <trkpt lat="45.97239" lon="4.79482">
        <ele>209</ele>
        <time>2016-12-10T13:19:25Z</time>
      </trkpt>
      <trkpt lat="45.97241" lon="4.79487">
        <ele>210</ele>
        <time>2016-12-10T13:19:26Z</time>
      </trkpt>
      <trkpt lat="45.97243" lon="4.79498">
        <ele>210</ele>
        <time>2016-12-10T13:19:28Z</time>
      </trkpt>
      <trkpt lat="45.97244" lon="4.79504">
        <ele>210</ele>
        <time>2016-12-10T13:19:29Z</time>
      </trkpt>
      <trkpt lat="45.97247" lon="4.79516">
        <ele>210</ele>
        <time>2016-12-10T13:19:31Z</time>
      </trkpt>
      <trkpt lat="45.97248" lon="4.79521">
        <ele>210</ele>
        <time>2016-12-10T13:19:32Z</time>
      </trkpt>
      <trkpt lat="45.97249" lon="4.79528">
        <ele>210</ele>
        <time>2016-12-10T13:19:33Z</time>
      </trkpt>
      <trkpt lat="45.97251" lon="4.79534">
        <ele>214</ele>
        <time>2016-12-10T13:19:34Z</time>
      </trkpt>
      <trkpt lat="45.97253" lon="4.79542">
        <ele>214</ele>
        <time>2016-12-10T13:19:35Z</time>
      </trkpt>
      <trkpt lat="45.97255" lon="4.79549">
        <ele>214</ele>
        <time>2016-12-10T13:19:36Z</time>
      </trkpt>
      <trkpt lat="45.97258" lon="4.79561">
        <ele>213</ele>
        <time>2016-12-10T13:19:38Z</time>
      </trkpt>
      <trkpt lat="45.97259" lon="4.79566">
        <ele>213</ele>
        <time>2016-12-10T13:19:39Z</time>
      </trkpt>
      <trkpt lat="45.9726" lon="4.79573">
        <ele>213</ele>
        <time>2016-12-10T13:19:40Z</time>
      </trkpt>
      <trkpt lat="45.97261" lon="4.79581">
        <ele>212</ele>
        <time>2016-12-10T13:19:41Z</time>
      </trkpt>
      <trkpt lat="45.97262" lon="4.79588">
        <ele>212</ele>
        <time>2016-12-10T13:19:42Z</time>
      </trkpt>
      <trkpt lat="45.97263" lon="4.79595">
        <ele>212</ele>
        <time>2016-12-10T13:19:43Z</time>
      </trkpt>
      <trkpt lat="45.97262" lon="4.79602">
        <ele>213</ele>
        <time>2016-12-10T13:19:44Z</time>
      </trkpt>
      <trkpt lat="45.97262" lon="4.79609">
        <ele>213</ele>
        <time>2016-12-10T13:19:45Z</time>
      </trkpt>
      <trkpt lat="45.97262" lon="4.79615">
        <ele>213</ele>
        <time>2016-12-10T13:19:46Z</time>
      </trkpt>
      <trkpt lat="45.97262" lon="4.79622">
        <ele>213</ele>
        <time>2016-12-10T13:19:47Z</time>
      </trkpt>
      <trkpt lat="45.97262" lon="4.79634">
        <ele>213</ele>
        <time>2016-12-10T13:19:49Z</time>
      </trkpt>
      <trkpt lat="45.97262" lon="4.7964">
        <ele>213</ele>
        <time>2016-12-10T13:19:50Z</time>
      </trkpt>
      <trkpt lat="45.97262" lon="4.79653">
        <ele>212</ele>
        <time>2016-12-10T13:19:52Z</time>
      </trkpt>
      <trkpt lat="45.97262" lon="4.7966">
        <ele>211</ele>
        <time>2016-12-10T13:19:53Z</time>
      </trkpt>
      <trkpt lat="45.97261" lon="4.79666">
        <ele>211</ele>
        <time>2016-12-10T13:19:54Z</time>
      </trkpt>
      <trkpt lat="45.97259" lon="4.79673">
        <ele>210</ele>
        <time>2016-12-10T13:19:55Z</time>
      </trkpt>
      <trkpt lat="45.97259" lon="4.79679">
        <ele>211</ele>
        <time>2016-12-10T13:19:56Z</time>
      </trkpt>
      <trkpt lat="45.97258" lon="4.79686">
        <ele>211</ele>
        <time>2016-12-10T13:19:57Z</time>
      </trkpt>
      <trkpt lat="45.97256" lon="4.79693">
        <ele>212</ele>
        <time>2016-12-10T13:19:58Z</time>
      </trkpt>
      <trkpt lat="45.97255" lon="4.79699">
        <ele>212</ele>
        <time>2016-12-10T13:19:59Z</time>
      </trkpt>
      <trkpt lat="45.97254" lon="4.79705">
        <ele>212</ele>
        <time>2016-12-10T13:20:00Z</time>
      </trkpt>
      <trkpt lat="45.97252" lon="4.79711">
        <ele>212</ele>
        <time>2016-12-10T13:20:01Z</time>
      </trkpt>
      <trkpt lat="45.97249" lon="4.79723">
        <ele>209</ele>
        <time>2016-12-10T13:20:03Z</time>
      </trkpt>
      <trkpt lat="45.97248" lon="4.79729">
        <ele>209</ele>
        <time>2016-12-10T13:20:04Z</time>
      </trkpt>
      <trkpt lat="45.97245" lon="4.79739">
        <ele>209</ele>
        <time>2016-12-10T13:20:06Z</time>
      </trkpt>
      <trkpt lat="45.97244" lon="4.79743">
        <ele>209</ele>
        <time>2016-12-10T13:20:07Z</time>
      </trkpt>
      <trkpt lat="45.97242" lon="4.79755">
        <ele>209</ele>
        <time>2016-12-10T13:20:09Z</time>
      </trkpt>
      <trkpt lat="45.97242" lon="4.79761">
        <ele>209</ele>
        <time>2016-12-10T13:20:10Z</time>
      </trkpt>
      <trkpt lat="45.97242" lon="4.79773">
        <ele>210</ele>
        <time>2016-12-10T13:20:12Z</time>
      </trkpt>
      <trkpt lat="45.97241" lon="4.79779">
        <ele>210</ele>
        <time>2016-12-10T13:20:13Z</time>
      </trkpt>
      <trkpt lat="45.97241" lon="4.79792">
        <ele>210</ele>
        <time>2016-12-10T13:20:15Z</time>
      </trkpt>
      <trkpt lat="45.97241" lon="4.79799">
        <ele>210</ele>
        <time>2016-12-10T13:20:16Z</time>
      </trkpt>
      <trkpt lat="45.97241" lon="4.79805">
        <ele>210</ele>
        <time>2016-12-10T13:20:17Z</time>
      </trkpt>
      <trkpt lat="45.97241" lon="4.79812">
        <ele>211</ele>
        <time>2016-12-10T13:20:18Z</time>
      </trkpt>
      <trkpt lat="45.97241" lon="4.79819">
        <ele>211</ele>
        <time>2016-12-10T13:20:19Z</time>
      </trkpt>
      <trkpt lat="45.97241" lon="4.79826">
        <ele>211</ele>
        <time>2016-12-10T13:20:20Z</time>
      </trkpt>
      <trkpt lat="45.97241" lon="4.79833">
        <ele>211</ele>
        <time>2016-12-10T13:20:21Z</time>
      </trkpt>
      <trkpt lat="45.9724" lon="4.79839">
        <ele>212</ele>
        <time>2016-12-10T13:20:22Z</time>
      </trkpt>
      <trkpt lat="45.97241" lon="4.79852">
        <ele>211</ele>
        <time>2016-12-10T13:20:24Z</time>
      </trkpt>
      <trkpt lat="45.97242" lon="4.79857">
        <ele>211</ele>
        <time>2016-12-10T13:20:25Z</time>
      </trkpt>
      <trkpt lat="45.97245" lon="4.79869">
        <ele>211</ele>
        <time>2016-12-10T13:20:27Z</time>
      </trkpt>
      <trkpt lat="45.97246" lon="4.79874">
        <ele>211</ele>
        <time>2016-12-10T13:20:28Z</time>
      </trkpt>
      <trkpt lat="45.9725" lon="4.79884">
        <ele>211</ele>
        <time>2016-12-10T13:20:30Z</time>
      </trkpt>
      <trkpt lat="45.97251" lon="4.79889">
        <ele>213</ele>
        <time>2016-12-10T13:20:31Z</time>
      </trkpt>
      <trkpt lat="45.97253" lon="4.79899">
        <ele>213</ele>
        <time>2016-12-10T13:20:33Z</time>
      </trkpt>
      <trkpt lat="45.97254" lon="4.79902">
        <ele>213</ele>
        <time>2016-12-10T13:20:34Z</time>
      </trkpt>
      <trkpt lat="45.97254" lon="4.7991">
        <ele>212</ele>
        <time>2016-12-10T13:20:41Z</time>
      </trkpt>
      <trkpt lat="45.97255" lon="4.79913">
        <ele>212</ele>
        <time>2016-12-10T13:20:42Z</time>
      </trkpt>
      <trkpt lat="45.97258" lon="4.79917">
        <ele>212</ele>
        <time>2016-12-10T13:20:44Z</time>
      </trkpt>
      <trkpt lat="45.9726" lon="4.79918">
        <ele>212</ele>
        <time>2016-12-10T13:20:45Z</time>
      </trkpt>
      <trkpt lat="45.97267" lon="4.79916">
        <ele>213</ele>
        <time>2016-12-10T13:20:48Z</time>
      </trkpt>
      <trkpt lat="45.97269" lon="4.79915">
        <ele>213</ele>
        <time>2016-12-10T13:20:49Z</time>
      </trkpt>
      <trkpt lat="45.97276" lon="4.79914">
        <ele>213</ele>
        <time>2016-12-10T13:20:52Z</time>
      </trkpt>
      <trkpt lat="45.9728" lon="4.79913">
        <ele>213</ele>
        <time>2016-12-10T13:20:53Z</time>
      </trkpt>
      <trkpt lat="45.97288" lon="4.79914">
        <ele>213</ele>
        <time>2016-12-10T13:20:55Z</time>
      </trkpt>
      <trkpt lat="45.97292" lon="4.79914">
        <ele>213</ele>
        <time>2016-12-10T13:20:56Z</time>
      </trkpt>
      <trkpt lat="45.973" lon="4.79913">
        <ele>213</ele>
        <time>2016-12-10T13:20:58Z</time>
      </trkpt>
      <trkpt lat="45.97304" lon="4.79913">
        <ele>213</ele>
        <time>2016-12-10T13:20:59Z</time>
      </trkpt>
      <trkpt lat="45.97311" lon="4.79913">
        <ele>213</ele>
        <time>2016-12-10T13:21:01Z</time>
      </trkpt>
      <trkpt lat="45.97315" lon="4.79912">
        <ele>213</ele>
        <time>2016-12-10T13:21:02Z</time>
      </trkpt>
      <trkpt lat="45.97323" lon="4.79909">
        <ele>213</ele>
        <time>2016-12-10T13:21:04Z</time>
      </trkpt>
      <trkpt lat="45.97327" lon="4.79908">
        <ele>213</ele>
        <time>2016-12-10T13:21:05Z</time>
      </trkpt>
      <trkpt lat="45.97335" lon="4.79908">
        <ele>214</ele>
        <time>2016-12-10T13:21:07Z</time>
      </trkpt>
      <trkpt lat="45.97339" lon="4.79908">
        <ele>215</ele>
        <time>2016-12-10T13:21:08Z</time>
      </trkpt>
      <trkpt lat="45.97348" lon="4.79905">
        <ele>215</ele>
        <time>2016-12-10T13:21:10Z</time>
      </trkpt>
      <trkpt lat="45.97352" lon="4.79905">
        <ele>216</ele>
        <time>2016-12-10T13:21:11Z</time>
      </trkpt>
      <trkpt lat="45.97359" lon="4.79903">
        <ele>216</ele>
        <time>2016-12-10T13:21:13Z</time>
      </trkpt>
      <trkpt lat="45.97362" lon="4.79903">
        <ele>216</ele>
        <time>2016-12-10T13:21:14Z</time>
      </trkpt>
      <trkpt lat="45.97369" lon="4.79902">
        <ele>217</ele>
        <time>2016-12-10T13:21:16Z</time>
      </trkpt>
      <trkpt lat="45.97373" lon="4.79901">
        <ele>217</ele>
        <time>2016-12-10T13:21:17Z</time>
      </trkpt>
      <trkpt lat="45.9738" lon="4.79898">
        <ele>217</ele>
        <time>2016-12-10T13:21:19Z</time>
      </trkpt>
      <trkpt lat="45.97384" lon="4.79897">
        <ele>217</ele>
        <time>2016-12-10T13:21:20Z</time>
      </trkpt>
      <trkpt lat="45.97392" lon="4.79897">
        <ele>217</ele>
        <time>2016-12-10T13:21:22Z</time>
      </trkpt>
      <trkpt lat="45.97395" lon="4.79896">
        <ele>217</ele>
        <time>2016-12-10T13:21:23Z</time>
      </trkpt>
      <trkpt lat="45.97402" lon="4.79895">
        <ele>217</ele>
        <time>2016-12-10T13:21:25Z</time>
      </trkpt>
      <trkpt lat="45.97406" lon="4.79894">
        <ele>217</ele>
        <time>2016-12-10T13:21:26Z</time>
      </trkpt>
      <trkpt lat="45.97413" lon="4.79895">
        <ele>217</ele>
        <time>2016-12-10T13:21:28Z</time>
      </trkpt>
      <trkpt lat="45.97417" lon="4.79895">
        <ele>219</ele>
        <time>2016-12-10T13:21:29Z</time>
      </trkpt>
      <trkpt lat="45.97425" lon="4.79895">
        <ele>219</ele>
        <time>2016-12-10T13:21:31Z</time>
      </trkpt>
      <trkpt lat="45.97428" lon="4.79895">
        <ele>219</ele>
        <time>2016-12-10T13:21:32Z</time>
      </trkpt>
      <trkpt lat="45.97436" lon="4.79895">
        <ele>220</ele>
        <time>2016-12-10T13:21:34Z</time>
      </trkpt>
      <trkpt lat="45.9744" lon="4.79896">
        <ele>220</ele>
        <time>2016-12-10T13:21:35Z</time>
      </trkpt>
      <trkpt lat="45.97448" lon="4.79895">
        <ele>220</ele>
        <time>2016-12-10T13:21:37Z</time>
      </trkpt>
      <trkpt lat="45.97452" lon="4.79895">
        <ele>220</ele>
        <time>2016-12-10T13:21:38Z</time>
      </trkpt>
      <trkpt lat="45.9746" lon="4.79894">
        <ele>220</ele>
        <time>2016-12-10T13:21:40Z</time>
      </trkpt>
      <trkpt lat="45.97464" lon="4.79894">
        <ele>221</ele>
        <time>2016-12-10T13:21:41Z</time>
      </trkpt>
      <trkpt lat="45.9747" lon="4.79894">
        <ele>221</ele>
        <time>2016-12-10T13:21:43Z</time>
      </trkpt>
      <trkpt lat="45.97474" lon="4.79894">
        <ele>221</ele>
        <time>2016-12-10T13:21:44Z</time>
      </trkpt>
      <trkpt lat="45.97481" lon="4.79894">
        <ele>221</ele>
        <time>2016-12-10T13:21:46Z</time>
      </trkpt>
      <trkpt lat="45.97484" lon="4.79894">
        <ele>221</ele>
        <time>2016-12-10T13:21:47Z</time>
      </trkpt>
      <trkpt lat="45.97491" lon="4.79893">
        <ele>221</ele>
        <time>2016-12-10T13:21:49Z</time>
      </trkpt>
      <trkpt lat="45.97494" lon="4.79892">
        <ele>221</ele>
        <time>2016-12-10T13:21:50Z</time>
      </trkpt>
      <trkpt lat="45.975" lon="4.79891">
        <ele>221</ele>
        <time>2016-12-10T13:21:52Z</time>
      </trkpt>
      <trkpt lat="45.97504" lon="4.7989">
        <ele>221</ele>
        <time>2016-12-10T13:21:53Z</time>
      </trkpt>
      <trkpt lat="45.97511" lon="4.7989">
        <ele>221</ele>
        <time>2016-12-10T13:21:55Z</time>
      </trkpt>
      <trkpt lat="45.97514" lon="4.7989">
        <ele>221</ele>
        <time>2016-12-10T13:21:56Z</time>
      </trkpt>
      <trkpt lat="45.97522" lon="4.7989">
        <ele>221</ele>
        <time>2016-12-10T13:21:58Z</time>
      </trkpt>
      <trkpt lat="45.97525" lon="4.79889">
        <ele>221</ele>
        <time>2016-12-10T13:21:59Z</time>
      </trkpt>
      <trkpt lat="45.97532" lon="4.79888">
        <ele>221</ele>
        <time>2016-12-10T13:22:01Z</time>
      </trkpt>
      <trkpt lat="45.97535" lon="4.79887">
        <ele>221</ele>
        <time>2016-12-10T13:22:02Z</time>
      </trkpt>
      <trkpt lat="45.97542" lon="4.79886">
        <ele>221</ele>
        <time>2016-12-10T13:22:04Z</time>
      </trkpt>
      <trkpt lat="45.97545" lon="4.79885">
        <ele>221</ele>
        <time>2016-12-10T13:22:05Z</time>
      </trkpt>
      <trkpt lat="45.97552" lon="4.79883">
        <ele>221</ele>
        <time>2016-12-10T13:22:07Z</time>
      </trkpt>
      <trkpt lat="45.97555" lon="4.79882">
        <ele>221</ele>
        <time>2016-12-10T13:22:08Z</time>
      </trkpt>
      <trkpt lat="45.97563" lon="4.79879">
        <ele>221</ele>
        <time>2016-12-10T13:22:10Z</time>
      </trkpt>
      <trkpt lat="45.97566" lon="4.79878">
        <ele>221</ele>
        <time>2016-12-10T13:22:11Z</time>
      </trkpt>
      <trkpt lat="45.97573" lon="4.79876">
        <ele>221</ele>
        <time>2016-12-10T13:22:13Z</time>
      </trkpt>
      <trkpt lat="45.97577" lon="4.79875">
        <ele>221</ele>
        <time>2016-12-10T13:22:14Z</time>
      </trkpt>
      <trkpt lat="45.97584" lon="4.79871">
        <ele>221</ele>
        <time>2016-12-10T13:22:16Z</time>
      </trkpt>
      <trkpt lat="45.97587" lon="4.7987">
        <ele>221</ele>
        <time>2016-12-10T13:22:17Z</time>
      </trkpt>
      <trkpt lat="45.97594" lon="4.79867">
        <ele>221</ele>
        <time>2016-12-10T13:22:19Z</time>
      </trkpt>
      <trkpt lat="45.97597" lon="4.79866">
        <ele>221</ele>
        <time>2016-12-10T13:22:20Z</time>
      </trkpt>
      <trkpt lat="45.97604" lon="4.79864">
        <ele>221</ele>
        <time>2016-12-10T13:22:22Z</time>
      </trkpt>
      <trkpt lat="45.97607" lon="4.79863">
        <ele>221</ele>
        <time>2016-12-10T13:22:23Z</time>
      </trkpt>
      <trkpt lat="45.97613" lon="4.7986">
        <ele>221</ele>
        <time>2016-12-10T13:22:25Z</time>
      </trkpt>
      <trkpt lat="45.97616" lon="4.79859">
        <ele>221</ele>
        <time>2016-12-10T13:22:26Z</time>
      </trkpt>
      <trkpt lat="45.97623" lon="4.79856">
        <ele>221</ele>
        <time>2016-12-10T13:22:28Z</time>
      </trkpt>
      <trkpt lat="45.97626" lon="4.79855">
        <ele>221</ele>
        <time>2016-12-10T13:22:29Z</time>
      </trkpt>
      <trkpt lat="45.97633" lon="4.79853">
        <ele>221</ele>
        <time>2016-12-10T13:22:31Z</time>
      </trkpt>
      <trkpt lat="45.97636" lon="4.79851">
        <ele>221</ele>
        <time>2016-12-10T13:22:32Z</time>
      </trkpt>
      <trkpt lat="45.97643" lon="4.79848">
        <ele>221</ele>
        <time>2016-12-10T13:22:34Z</time>
      </trkpt>
      <trkpt lat="45.97646" lon="4.79847">
        <ele>221</ele>
        <time>2016-12-10T13:22:35Z</time>
      </trkpt>
      <trkpt lat="45.97654" lon="4.79845">
        <ele>221</ele>
        <time>2016-12-10T13:22:37Z</time>
      </trkpt>
      <trkpt lat="45.97658" lon="4.79844">
        <ele>221</ele>
        <time>2016-12-10T13:22:38Z</time>
      </trkpt>
      <trkpt lat="45.97665" lon="4.79841">
        <ele>222</ele>
        <time>2016-12-10T13:22:40Z</time>
      </trkpt>
      <trkpt lat="45.97669" lon="4.7984">
        <ele>221</ele>
        <time>2016-12-10T13:22:41Z</time>
      </trkpt>
      <trkpt lat="45.97677" lon="4.79839">
        <ele>221</ele>
        <time>2016-12-10T13:22:43Z</time>
      </trkpt>
      <trkpt lat="45.97681" lon="4.79838">
        <ele>221</ele>
        <time>2016-12-10T13:22:44Z</time>
      </trkpt>
      <trkpt lat="45.97689" lon="4.79837">
        <ele>221</ele>
        <time>2016-12-10T13:22:46Z</time>
      </trkpt>
      <trkpt lat="45.97693" lon="4.79836">
        <ele>220</ele>
        <time>2016-12-10T13:22:47Z</time>
      </trkpt>
      <trkpt lat="45.97701" lon="4.79834">
        <ele>220</ele>
        <time>2016-12-10T13:22:49Z</time>
      </trkpt>
      <trkpt lat="45.97705" lon="4.79833">
        <ele>223</ele>
        <time>2016-12-10T13:22:50Z</time>
      </trkpt>
      <trkpt lat="45.97713" lon="4.79831">
        <ele>223</ele>
        <time>2016-12-10T13:22:52Z</time>
      </trkpt>
      <trkpt lat="45.97717" lon="4.7983">
        <ele>223</ele>
        <time>2016-12-10T13:22:53Z</time>
      </trkpt>
      <trkpt lat="45.97726" lon="4.79828">
        <ele>223</ele>
        <time>2016-12-10T13:22:55Z</time>
      </trkpt>
      <trkpt lat="45.97731" lon="4.79828">
        <ele>223</ele>
        <time>2016-12-10T13:22:56Z</time>
      </trkpt>
      <trkpt lat="45.97735" lon="4.79827">
        <ele>223</ele>
        <time>2016-12-10T13:22:57Z</time>
      </trkpt>
      <trkpt lat="45.9774" lon="4.79826">
        <ele>223</ele>
        <time>2016-12-10T13:22:58Z</time>
      </trkpt>
      <trkpt lat="45.97745" lon="4.79825">
        <ele>222</ele>
        <time>2016-12-10T13:22:59Z</time>
      </trkpt>
      <trkpt lat="45.97749" lon="4.79824">
        <ele>222</ele>
        <time>2016-12-10T13:23:00Z</time>
      </trkpt>
      <trkpt lat="45.97754" lon="4.79823">
        <ele>222</ele>
        <time>2016-12-10T13:23:01Z</time>
      </trkpt>
      <trkpt lat="45.97759" lon="4.79822">
        <ele>223</ele>
        <time>2016-12-10T13:23:02Z</time>
      </trkpt>
      <trkpt lat="45.97764" lon="4.79821">
        <ele>223</ele>
        <time>2016-12-10T13:23:03Z</time>
      </trkpt>
      <trkpt lat="45.97768" lon="4.7982">
        <ele>223</ele>
        <time>2016-12-10T13:23:04Z</time>
      </trkpt>
      <trkpt lat="45.97773" lon="4.79819">
        <ele>223</ele>
        <time>2016-12-10T13:23:05Z</time>
      </trkpt>
      <trkpt lat="45.97778" lon="4.79818">
        <ele>223</ele>
        <time>2016-12-10T13:23:06Z</time>
      </trkpt>
      <trkpt lat="45.97783" lon="4.79818">
        <ele>223</ele>
        <time>2016-12-10T13:23:07Z</time>
      </trkpt>
      <trkpt lat="45.97788" lon="4.79817">
        <ele>223</ele>
        <time>2016-12-10T13:23:08Z</time>
      </trkpt>
      <trkpt lat="45.97793" lon="4.79816">
        <ele>223</ele>
        <time>2016-12-10T13:23:09Z</time>
      </trkpt>
      <trkpt lat="45.97797" lon="4.79816">
        <ele>223</ele>
        <time>2016-12-10T13:23:10Z</time>
      </trkpt>
      <trkpt lat="45.97802" lon="4.79815">
        <ele>223</ele>
        <time>2016-12-10T13:23:11Z</time>
      </trkpt>
      <trkpt lat="45.97808" lon="4.79815">
        <ele>223</ele>
        <time>2016-12-10T13:23:12Z</time>
      </trkpt>
      <trkpt lat="45.97813" lon="4.79814">
        <ele>223</ele>
        <time>2016-12-10T13:23:13Z</time>
      </trkpt>
      <trkpt lat="45.97818" lon="4.79813">
        <ele>223</ele>
        <time>2016-12-10T13:23:14Z</time>
      </trkpt>
      <trkpt lat="45.97823" lon="4.79812">
        <ele>223</ele>
        <time>2016-12-10T13:23:15Z</time>
      </trkpt>
      <trkpt lat="45.97828" lon="4.79811">
        <ele>223</ele>
        <time>2016-12-10T13:23:16Z</time>
      </trkpt>
      <trkpt lat="45.97832" lon="4.7981">
        <ele>223</ele>
        <time>2016-12-10T13:23:17Z</time>
      </trkpt>
      <trkpt lat="45.97837" lon="4.79809">
        <ele>224</ele>
        <time>2016-12-10T13:23:18Z</time>
      </trkpt>
      <trkpt lat="45.97842" lon="4.79808">
        <ele>224</ele>
        <time>2016-12-10T13:23:19Z</time>
      </trkpt>
      <trkpt lat="45.97847" lon="4.79807">
        <ele>224</ele>
        <time>2016-12-10T13:23:20Z</time>
      </trkpt>
      <trkpt lat="45.97852" lon="4.79806">
        <ele>224</ele>
        <time>2016-12-10T13:23:21Z</time>
      </trkpt>
      <trkpt lat="45.97857" lon="4.79805">
        <ele>224</ele>
        <time>2016-12-10T13:23:22Z</time>
      </trkpt>
      <trkpt lat="45.97861" lon="4.79804">
        <ele>224</ele>
        <time>2016-12-10T13:23:23Z</time>
      </trkpt>
      <trkpt lat="45.97866" lon="4.79803">
        <ele>224</ele>
        <time>2016-12-10T13:23:24Z</time>
      </trkpt>
      <trkpt lat="45.97871" lon="4.79803">
        <ele>224</ele>
        <time>2016-12-10T13:23:25Z</time>
      </trkpt>
      <trkpt lat="45.97876" lon="4.79802">
        <ele>224</ele>
        <time>2016-12-10T13:23:26Z</time>
      </trkpt>
      <trkpt lat="45.97881" lon="4.79801">
        <ele>224</ele>
        <time>2016-12-10T13:23:27Z</time>
      </trkpt>
      <trkpt lat="45.97886" lon="4.79801">
        <ele>224</ele>
        <time>2016-12-10T13:23:28Z</time>
      </trkpt>
      <trkpt lat="45.97891" lon="4.798">
        <ele>224</ele>
        <time>2016-12-10T13:23:29Z</time>
      </trkpt>
      <trkpt lat="45.97896" lon="4.79799">
        <ele>224</ele>
        <time>2016-12-10T13:23:30Z</time>
      </trkpt>
      <trkpt lat="45.979" lon="4.79798">
        <ele>224</ele>
        <time>2016-12-10T13:23:31Z</time>
      </trkpt>
      <trkpt lat="45.97905" lon="4.79797">
        <ele>224</ele>
        <time>2016-12-10T13:23:32Z</time>
      </trkpt>
      <trkpt lat="45.9791" lon="4.79797">
        <ele>224</ele>
        <time>2016-12-10T13:23:33Z</time>
      </trkpt>
      <trkpt lat="45.97915" lon="4.79796">
        <ele>224</ele>
        <time>2016-12-10T13:23:34Z</time>
      </trkpt>
      <trkpt lat="45.9792" lon="4.79795">
        <ele>224</ele>
        <time>2016-12-10T13:23:35Z</time>
      </trkpt>
      <trkpt lat="45.97925" lon="4.79794">
        <ele>224</ele>
        <time>2016-12-10T13:23:36Z</time>
      </trkpt>
      <trkpt lat="45.97929" lon="4.79794">
        <ele>224</ele>
        <time>2016-12-10T13:23:37Z</time>
      </trkpt>
      <trkpt lat="45.97934" lon="4.79793">
        <ele>224</ele>
        <time>2016-12-10T13:23:38Z</time>
      </trkpt>
      <trkpt lat="45.97939" lon="4.79792">
        <ele>224</ele>
        <time>2016-12-10T13:23:39Z</time>
      </trkpt>
      <trkpt lat="45.97943" lon="4.79791">
        <ele>224</ele>
        <time>2016-12-10T13:23:40Z</time>
      </trkpt>
      <trkpt lat="45.97948" lon="4.79791">
        <ele>224</ele>
        <time>2016-12-10T13:23:41Z</time>
      </trkpt>
      <trkpt lat="45.97953" lon="4.79789">
        <ele>224</ele>
        <time>2016-12-10T13:23:42Z</time>
      </trkpt>
      <trkpt lat="45.97957" lon="4.79788">
        <ele>224</ele>
        <time>2016-12-10T13:23:43Z</time>
      </trkpt>
      <trkpt lat="45.97962" lon="4.79788">
        <ele>224</ele>
        <time>2016-12-10T13:23:44Z</time>
      </trkpt>
      <trkpt lat="45.97967" lon="4.79787">
        <ele>224</ele>
        <time>2016-12-10T13:23:45Z</time>
      </trkpt>
      <trkpt lat="45.97971" lon="4.79787">
        <ele>224</ele>
        <time>2016-12-10T13:23:46Z</time>
      </trkpt>
      <trkpt lat="45.97976" lon="4.79786">
        <ele>224</ele>
        <time>2016-12-10T13:23:47Z</time>
      </trkpt>
      <trkpt lat="45.97981" lon="4.79786">
        <ele>224</ele>
        <time>2016-12-10T13:23:48Z</time>
      </trkpt>
      <trkpt lat="45.97985" lon="4.79786">
        <ele>224</ele>
        <time>2016-12-10T13:23:49Z</time>
      </trkpt>
      <trkpt lat="45.9799" lon="4.79785">
        <ele>224</ele>
        <time>2016-12-10T13:23:50Z</time>
      </trkpt>
      <trkpt lat="45.97995" lon="4.79785">
        <ele>224</ele>
        <time>2016-12-10T13:23:51Z</time>
      </trkpt>
      <trkpt lat="45.98" lon="4.79784">
        <ele>224</ele>
        <time>2016-12-10T13:23:52Z</time>
      </trkpt>
      <trkpt lat="45.98005" lon="4.79784">
        <ele>223</ele>
        <time>2016-12-10T13:23:53Z</time>
      </trkpt>
      <trkpt lat="45.98009" lon="4.79783">
        <ele>223</ele>
        <time>2016-12-10T13:23:54Z</time>
      </trkpt>
      <trkpt lat="45.98014" lon="4.79782">
        <ele>223</ele>
        <time>2016-12-10T13:23:55Z</time>
      </trkpt>
      <trkpt lat="45.98019" lon="4.79781">
        <ele>223</ele>
        <time>2016-12-10T13:23:56Z</time>
      </trkpt>
      <trkpt lat="45.98024" lon="4.7978">
        <ele>223</ele>
        <time>2016-12-10T13:23:57Z</time>
      </trkpt>
      <trkpt lat="45.98028" lon="4.79779">
        <ele>223</ele>
        <time>2016-12-10T13:23:58Z</time>
      </trkpt>
      <trkpt lat="45.98033" lon="4.79778">
        <ele>223</ele>
        <time>2016-12-10T13:23:59Z</time>
      </trkpt>
      <trkpt lat="45.98038" lon="4.79777">
        <ele>223</ele>
        <time>2016-12-10T13:24:00Z</time>
      </trkpt>
      <trkpt lat="45.98043" lon="4.79776">
        <ele>223</ele>
        <time>2016-12-10T13:24:01Z</time>
      </trkpt>
      <trkpt lat="45.98048" lon="4.79776">
        <ele>223</ele>
        <time>2016-12-10T13:24:02Z</time>
      </trkpt>
      <trkpt lat="45.98052" lon="4.79776">
        <ele>223</ele>
        <time>2016-12-10T13:24:03Z</time>
      </trkpt>
      <trkpt lat="45.98057" lon="4.79775">
        <ele>223</ele>
        <time>2016-12-10T13:24:04Z</time>
      </trkpt>
      <trkpt lat="45.98061" lon="4.79774">
        <ele>223</ele>
        <time>2016-12-10T13:24:05Z</time>
      </trkpt>
      <trkpt lat="45.98066" lon="4.79774">
        <ele>223</ele>
        <time>2016-12-10T13:24:06Z</time>
      </trkpt>
      <trkpt lat="45.98071" lon="4.79773">
        <ele>223</ele>
        <time>2016-12-10T13:24:07Z</time>
      </trkpt>
      <trkpt lat="45.98075" lon="4.79772">
        <ele>223</ele>
        <time>2016-12-10T13:24:08Z</time>
      </trkpt>
      <trkpt lat="45.9808" lon="4.79771">
        <ele>223</ele>
        <time>2016-12-10T13:24:09Z</time>
      </trkpt>
      <trkpt lat="45.98084" lon="4.7977">
        <ele>223</ele>
        <time>2016-12-10T13:24:10Z</time>
      </trkpt>
      <trkpt lat="45.98089" lon="4.7977">
        <ele>223</ele>
        <time>2016-12-10T13:24:11Z</time>
      </trkpt>
      <trkpt lat="45.98093" lon="4.79769">
        <ele>223</ele>
        <time>2016-12-10T13:24:12Z</time>
      </trkpt>
      <trkpt lat="45.98098" lon="4.79769">
        <ele>223</ele>
        <time>2016-12-10T13:24:13Z</time>
      </trkpt>
      <trkpt lat="45.98102" lon="4.79768">
        <ele>224</ele>
        <time>2016-12-10T13:24:14Z</time>
      </trkpt>
      <trkpt lat="45.98111" lon="4.79767">
        <ele>224</ele>
        <time>2016-12-10T13:24:16Z</time>
      </trkpt>
      <trkpt lat="45.98115" lon="4.79767">
        <ele>224</ele>
        <time>2016-12-10T13:24:17Z</time>
      </trkpt>
      <trkpt lat="45.98124" lon="4.79765">
        <ele>224</ele>
        <time>2016-12-10T13:24:19Z</time>
      </trkpt>
      <trkpt lat="45.98128" lon="4.79765">
        <ele>224</ele>
        <time>2016-12-10T13:24:20Z</time>
      </trkpt>
      <trkpt lat="45.98136" lon="4.79764">
        <ele>224</ele>
        <time>2016-12-10T13:24:22Z</time>
      </trkpt>
      <trkpt lat="45.9814" lon="4.79763">
        <ele>224</ele>
        <time>2016-12-10T13:24:23Z</time>
      </trkpt>
      <trkpt lat="45.98149" lon="4.79763">
        <ele>225</ele>
        <time>2016-12-10T13:24:25Z</time>
      </trkpt>
      <trkpt lat="45.98153" lon="4.79763">
        <ele>225</ele>
        <time>2016-12-10T13:24:26Z</time>
      </trkpt>
      <trkpt lat="45.98161" lon="4.79766">
        <ele>225</ele>
        <time>2016-12-10T13:24:28Z</time>
      </trkpt>
      <trkpt lat="45.98165" lon="4.79768">
        <ele>225</ele>
        <time>2016-12-10T13:24:29Z</time>
      </trkpt>
      <trkpt lat="45.98171" lon="4.79774">
        <ele>226</ele>
        <time>2016-12-10T13:24:31Z</time>
      </trkpt>
      <trkpt lat="45.98174" lon="4.79778">
        <ele>226</ele>
        <time>2016-12-10T13:24:32Z</time>
      </trkpt>
      <trkpt lat="45.98179" lon="4.79788">
        <ele>226</ele>
        <time>2016-12-10T13:24:34Z</time>
      </trkpt>
      <trkpt lat="45.98181" lon="4.79794">
        <ele>226</ele>
        <time>2016-12-10T13:24:35Z</time>
      </trkpt>
      <trkpt lat="45.98183" lon="4.798">
        <ele>226</ele>
        <time>2016-12-10T13:24:36Z</time>
      </trkpt>
      <trkpt lat="45.98185" lon="4.79806">
        <ele>225</ele>
        <time>2016-12-10T13:24:37Z</time>
      </trkpt>
      <trkpt lat="45.98187" lon="4.79813">
        <ele>225</ele>
        <time>2016-12-10T13:24:38Z</time>
      </trkpt>
      <trkpt lat="45.9819" lon="4.7982">
        <ele>225</ele>
        <time>2016-12-10T13:24:39Z</time>
      </trkpt>
      <trkpt lat="45.98192" lon="4.79828">
        <ele>225</ele>
        <time>2016-12-10T13:24:40Z</time>
      </trkpt>
      <trkpt lat="45.98195" lon="4.79835">
        <ele>225</ele>
        <time>2016-12-10T13:24:41Z</time>
      </trkpt>
      <trkpt lat="45.98198" lon="4.79843">
        <ele>225</ele>
        <time>2016-12-10T13:24:42Z</time>
      </trkpt>
      <trkpt lat="45.98201" lon="4.79851">
        <ele>225</ele>
        <time>2016-12-10T13:24:43Z</time>
      </trkpt>
      <trkpt lat="45.98203" lon="4.79859">
        <ele>225</ele>
        <time>2016-12-10T13:24:44Z</time>
      </trkpt>
      <trkpt lat="45.98206" lon="4.79867">
        <ele>225</ele>
        <time>2016-12-10T13:24:45Z</time>
      </trkpt>
      <trkpt lat="45.98209" lon="4.79876">
        <ele>225</ele>
        <time>2016-12-10T13:24:46Z</time>
      </trkpt>
      <trkpt lat="45.98213" lon="4.79883">
        <ele>225</ele>
        <time>2016-12-10T13:24:47Z</time>
      </trkpt>
      <trkpt lat="45.98215" lon="4.79891">
        <ele>225</ele>
        <time>2016-12-10T13:24:48Z</time>
      </trkpt>
      <trkpt lat="45.98217" lon="4.79898">
        <ele>225</ele>
        <time>2016-12-10T13:24:49Z</time>
      </trkpt>
      <trkpt lat="45.9822" lon="4.79905">
        <ele>225</ele>
        <time>2016-12-10T13:24:50Z</time>
      </trkpt>
      <trkpt lat="45.98222" lon="4.79913">
        <ele>225</ele>
        <time>2016-12-10T13:24:51Z</time>
      </trkpt>
      <trkpt lat="45.98225" lon="4.7992">
        <ele>225</ele>
        <time>2016-12-10T13:24:52Z</time>
      </trkpt>
      <trkpt lat="45.98228" lon="4.79927">
        <ele>225</ele>
        <time>2016-12-10T13:24:53Z</time>
      </trkpt>
      <trkpt lat="45.98231" lon="4.79933">
        <ele>225</ele>
        <time>2016-12-10T13:24:54Z</time>
      </trkpt>
      <trkpt lat="45.98233" lon="4.7994">
        <ele>225</ele>
        <time>2016-12-10T13:24:55Z</time>
      </trkpt>
      <trkpt lat="45.98236" lon="4.79946">
        <ele>225</ele>
        <time>2016-12-10T13:24:56Z</time>
      </trkpt>
      <trkpt lat="45.98237" lon="4.79953">
        <ele>225</ele>
        <time>2016-12-10T13:24:57Z</time>
      </trkpt>
      <trkpt lat="45.98239" lon="4.79959">
        <ele>225</ele>
        <time>2016-12-10T13:24:58Z</time>
      </trkpt>
      <trkpt lat="45.98242" lon="4.79966">
        <ele>225</ele>
        <time>2016-12-10T13:24:59Z</time>
      </trkpt>
      <trkpt lat="45.98244" lon="4.79973">
        <ele>225</ele>
        <time>2016-12-10T13:25:00Z</time>
      </trkpt>
      <trkpt lat="45.98246" lon="4.7998">
        <ele>225</ele>
        <time>2016-12-10T13:25:01Z</time>
      </trkpt>
      <trkpt lat="45.98248" lon="4.79987">
        <ele>226</ele>
        <time>2016-12-10T13:25:02Z</time>
      </trkpt>
      <trkpt lat="45.98251" lon="4.79994">
        <ele>227</ele>
        <time>2016-12-10T13:25:03Z</time>
      </trkpt>
      <trkpt lat="45.98253" lon="4.8">
        <ele>226</ele>
        <time>2016-12-10T13:25:04Z</time>
      </trkpt>
      <trkpt lat="45.98255" lon="4.80007">
        <ele>227</ele>
        <time>2016-12-10T13:25:05Z</time>
      </trkpt>
      <trkpt lat="45.98258" lon="4.80013">
        <ele>228</ele>
        <time>2016-12-10T13:25:06Z</time>
      </trkpt>
      <trkpt lat="45.9826" lon="4.80019">
        <ele>228</ele>
        <time>2016-12-10T13:25:07Z</time>
      </trkpt>
      <trkpt lat="45.98262" lon="4.80026">
        <ele>228</ele>
        <time>2016-12-10T13:25:08Z</time>
      </trkpt>
      <trkpt lat="45.98265" lon="4.80032">
        <ele>228</ele>
        <time>2016-12-10T13:25:09Z</time>
      </trkpt>
      <trkpt lat="45.98267" lon="4.80039">
        <ele>229</ele>
        <time>2016-12-10T13:25:10Z</time>
      </trkpt>
      <trkpt lat="45.9827" lon="4.80045">
        <ele>229</ele>
        <time>2016-12-10T13:25:11Z</time>
      </trkpt>
      <trkpt lat="45.98272" lon="4.80052">
        <ele>229</ele>
        <time>2016-12-10T13:25:12Z</time>
      </trkpt>
      <trkpt lat="45.98275" lon="4.80058">
        <ele>229</ele>
        <time>2016-12-10T13:25:13Z</time>
      </trkpt>
      <trkpt lat="45.98277" lon="4.80065">
        <ele>229</ele>
        <time>2016-12-10T13:25:14Z</time>
      </trkpt>
      <trkpt lat="45.98279" lon="4.80071">
        <ele>229</ele>
        <time>2016-12-10T13:25:15Z</time>
      </trkpt>
      <trkpt lat="45.98281" lon="4.80078">
        <ele>229</ele>
        <time>2016-12-10T13:25:16Z</time>
      </trkpt>
      <trkpt lat="45.98283" lon="4.80085">
        <ele>228</ele>
        <time>2016-12-10T13:25:17Z</time>
      </trkpt>
      <trkpt lat="45.98286" lon="4.80096">
        <ele>228</ele>
        <time>2016-12-10T13:25:19Z</time>
      </trkpt>
      <trkpt lat="45.98288" lon="4.80102">
        <ele>228</ele>
        <time>2016-12-10T13:25:20Z</time>
      </trkpt>
      <trkpt lat="45.98292" lon="4.80114">
        <ele>228</ele>
        <time>2016-12-10T13:25:22Z</time>
      </trkpt>
      <trkpt lat="45.98294" lon="4.8012">
        <ele>228</ele>
        <time>2016-12-10T13:25:23Z</time>
      </trkpt>
      <trkpt lat="45.98298" lon="4.80131">
        <ele>228</ele>
        <time>2016-12-10T13:25:25Z</time>
      </trkpt>
      <trkpt lat="45.983" lon="4.80137">
        <ele>228</ele>
        <time>2016-12-10T13:25:26Z</time>
      </trkpt>
      <trkpt lat="45.98303" lon="4.80143">
        <ele>228</ele>
        <time>2016-12-10T13:25:27Z</time>
      </trkpt>
      <trkpt lat="45.98305" lon="4.80149">
        <ele>228</ele>
        <time>2016-12-10T13:25:28Z</time>
      </trkpt>
      <trkpt lat="45.98307" lon="4.80155">
        <ele>228</ele>
        <time>2016-12-10T13:25:29Z</time>
      </trkpt>
      <trkpt lat="45.98309" lon="4.80161">
        <ele>228</ele>
        <time>2016-12-10T13:25:30Z</time>
      </trkpt>
      <trkpt lat="45.98311" lon="4.80167">
        <ele>227</ele>
        <time>2016-12-10T13:25:31Z</time>
      </trkpt>
      <trkpt lat="45.98314" lon="4.80173">
        <ele>227</ele>
        <time>2016-12-10T13:25:32Z</time>
      </trkpt>
      <trkpt lat="45.98316" lon="4.80179">
        <ele>227</ele>
        <time>2016-12-10T13:25:33Z</time>
      </trkpt>
      <trkpt lat="45.98318" lon="4.80185">
        <ele>227</ele>
        <time>2016-12-10T13:25:34Z</time>
      </trkpt>
      <trkpt lat="45.98321" lon="4.80192">
        <ele>227</ele>
        <time>2016-12-10T13:25:35Z</time>
      </trkpt>
      <trkpt lat="45.98323" lon="4.80198">
        <ele>227</ele>
        <time>2016-12-10T13:25:36Z</time>
      </trkpt>
      <trkpt lat="45.98326" lon="4.80203">
        <ele>227</ele>
        <time>2016-12-10T13:25:37Z</time>
      </trkpt>
      <trkpt lat="45.98328" lon="4.80209">
        <ele>227</ele>
        <time>2016-12-10T13:25:38Z</time>
      </trkpt>
      <trkpt lat="45.98329" lon="4.80221">
        <ele>227</ele>
        <time>2016-12-10T13:25:40Z</time>
      </trkpt>
      <trkpt lat="45.98328" lon="4.80227">
        <ele>228</ele>
        <time>2016-12-10T13:25:41Z</time>
      </trkpt>
      <trkpt lat="45.98327" lon="4.80234">
        <ele>228</ele>
        <time>2016-12-10T13:25:42Z</time>
      </trkpt>
      <trkpt lat="45.98326" lon="4.80241">
        <ele>228</ele>
        <time>2016-12-10T13:25:43Z</time>
      </trkpt>
      <trkpt lat="45.98324" lon="4.80248">
        <ele>229</ele>
        <time>2016-12-10T13:25:44Z</time>
      </trkpt>
      <trkpt lat="45.98323" lon="4.80255">
        <ele>228</ele>
        <time>2016-12-10T13:25:45Z</time>
      </trkpt>
      <trkpt lat="45.98321" lon="4.80263">
        <ele>227</ele>
        <time>2016-12-10T13:25:46Z</time>
      </trkpt>
      <trkpt lat="45.98319" lon="4.80271">
        <ele>227</ele>
        <time>2016-12-10T13:25:47Z</time>
      </trkpt>
      <trkpt lat="45.98318" lon="4.8028">
        <ele>227</ele>
        <time>2016-12-10T13:25:48Z</time>
      </trkpt>
      <trkpt lat="45.98315" lon="4.80289">
        <ele>226</ele>
        <time>2016-12-10T13:25:49Z</time>
      </trkpt>
      <trkpt lat="45.98313" lon="4.80298">
        <ele>226</ele>
        <time>2016-12-10T13:25:50Z</time>
      </trkpt>
      <trkpt lat="45.98311" lon="4.80306">
        <ele>226</ele>
        <time>2016-12-10T13:25:51Z</time>
      </trkpt>
      <trkpt lat="45.9831" lon="4.80315">
        <ele>226</ele>
        <time>2016-12-10T13:25:52Z</time>
      </trkpt>
      <trkpt lat="45.98307" lon="4.80325">
        <ele>226</ele>
        <time>2016-12-10T13:25:53Z</time>
      </trkpt>
      <trkpt lat="45.98306" lon="4.80334">
        <ele>226</ele>
        <time>2016-12-10T13:25:54Z</time>
      </trkpt>
      <trkpt lat="45.98304" lon="4.80344">
        <ele>225</ele>
        <time>2016-12-10T13:25:55Z</time>
      </trkpt>
      <trkpt lat="45.98302" lon="4.80353">
        <ele>225</ele>
        <time>2016-12-10T13:25:56Z</time>
      </trkpt>
      <trkpt lat="45.983" lon="4.80364">
        <ele>225</ele>
        <time>2016-12-10T13:25:57Z</time>
      </trkpt>
      <trkpt lat="45.98298" lon="4.80375">
        <ele>225</ele>
        <time>2016-12-10T13:25:58Z</time>
      </trkpt>
      <trkpt lat="45.98295" lon="4.80385">
        <ele>224</ele>
        <time>2016-12-10T13:25:59Z</time>
      </trkpt>
      <trkpt lat="45.98293" lon="4.80395">
        <ele>224</ele>
        <time>2016-12-10T13:26:00Z</time>
      </trkpt>
      <trkpt lat="45.98291" lon="4.80405">
        <ele>224</ele>
        <time>2016-12-10T13:26:01Z</time>
      </trkpt>
      <trkpt lat="45.98289" lon="4.80415">
        <ele>224</ele>
        <time>2016-12-10T13:26:02Z</time>
      </trkpt>
      <trkpt lat="45.98287" lon="4.80426">
        <ele>224</ele>
        <time>2016-12-10T13:26:03Z</time>
      </trkpt>
      <trkpt lat="45.98286" lon="4.80436">
        <ele>223</ele>
        <time>2016-12-10T13:26:04Z</time>
      </trkpt>
      <trkpt lat="45.98283" lon="4.80445">
        <ele>223</ele>
        <time>2016-12-10T13:26:05Z</time>
      </trkpt>
      <trkpt lat="45.98282" lon="4.80455">
        <ele>223</ele>
        <time>2016-12-10T13:26:06Z</time>
      </trkpt>
      <trkpt lat="45.9828" lon="4.80465">
        <ele>223</ele>
        <time>2016-12-10T13:26:07Z</time>
      </trkpt>
      <trkpt lat="45.98278" lon="4.80474">
        <ele>223</ele>
        <time>2016-12-10T13:26:08Z</time>
      </trkpt>
      <trkpt lat="45.98275" lon="4.80482">
        <ele>223</ele>
        <time>2016-12-10T13:26:09Z</time>
      </trkpt>
      <trkpt lat="45.98273" lon="4.80491">
        <ele>223</ele>
        <time>2016-12-10T13:26:10Z</time>
      </trkpt>
      <trkpt lat="45.98271" lon="4.805">
        <ele>223</ele>
        <time>2016-12-10T13:26:11Z</time>
      </trkpt>
      <trkpt lat="45.98268" lon="4.80508">
        <ele>223</ele>
        <time>2016-12-10T13:26:12Z</time>
      </trkpt>
      <trkpt lat="45.98266" lon="4.80515">
        <ele>223</ele>
        <time>2016-12-10T13:26:13Z</time>
      </trkpt>
      <trkpt lat="45.98265" lon="4.80522">
        <ele>223</ele>
        <time>2016-12-10T13:26:14Z</time>
      </trkpt>
      <trkpt lat="45.98263" lon="4.80529">
        <ele>224</ele>
        <time>2016-12-10T13:26:15Z</time>
      </trkpt>
      <trkpt lat="45.9826" lon="4.80536">
        <ele>224</ele>
        <time>2016-12-10T13:26:16Z</time>
      </trkpt>
      <trkpt lat="45.98258" lon="4.80543">
        <ele>224</ele>
        <time>2016-12-10T13:26:17Z</time>
      </trkpt>
      <trkpt lat="45.98256" lon="4.8055">
        <ele>224</ele>
        <time>2016-12-10T13:26:18Z</time>
      </trkpt>
      <trkpt lat="45.98254" lon="4.80557">
        <ele>224</ele>
        <time>2016-12-10T13:26:19Z</time>
      </trkpt>
      <trkpt lat="45.98252" lon="4.80564">
        <ele>224</ele>
        <time>2016-12-10T13:26:20Z</time>
      </trkpt>
      <trkpt lat="45.98251" lon="4.80571">
        <ele>224</ele>
        <time>2016-12-10T13:26:21Z</time>
      </trkpt>
      <trkpt lat="45.98249" lon="4.80578">
        <ele>224</ele>
        <time>2016-12-10T13:26:22Z</time>
      </trkpt>
      <trkpt lat="45.98247" lon="4.80585">
        <ele>224</ele>
        <time>2016-12-10T13:26:23Z</time>
      </trkpt>
      <trkpt lat="45.98245" lon="4.80591">
        <ele>224</ele>
        <time>2016-12-10T13:26:24Z</time>
      </trkpt>
      <trkpt lat="45.98243" lon="4.80597">
        <ele>224</ele>
        <time>2016-12-10T13:26:25Z</time>
      </trkpt>
      <trkpt lat="45.98241" lon="4.80604">
        <ele>224</ele>
        <time>2016-12-10T13:26:26Z</time>
      </trkpt>
      <trkpt lat="45.98239" lon="4.8061">
        <ele>224</ele>
        <time>2016-12-10T13:26:27Z</time>
      </trkpt>
      <trkpt lat="45.98237" lon="4.80616">
        <ele>224</ele>
        <time>2016-12-10T13:26:28Z</time>
      </trkpt>
      <trkpt lat="45.98235" lon="4.80623">
        <ele>224</ele>
        <time>2016-12-10T13:26:29Z</time>
      </trkpt>
      <trkpt lat="45.98233" lon="4.80629">
        <ele>224</ele>
        <time>2016-12-10T13:26:30Z</time>
      </trkpt>
      <trkpt lat="45.98232" lon="4.80635">
        <ele>224</ele>
        <time>2016-12-10T13:26:31Z</time>
      </trkpt>
      <trkpt lat="45.9823" lon="4.80642">
        <ele>224</ele>
        <time>2016-12-10T13:26:32Z</time>
      </trkpt>
      <trkpt lat="45.98227" lon="4.80649">
        <ele>224</ele>
        <time>2016-12-10T13:26:33Z</time>
      </trkpt>
      <trkpt lat="45.98225" lon="4.80654">
        <ele>224</ele>
        <time>2016-12-10T13:26:34Z</time>
      </trkpt>
      <trkpt lat="45.98222" lon="4.8066">
        <ele>224</ele>
        <time>2016-12-10T13:26:35Z</time>
      </trkpt>
      <trkpt lat="45.98217" lon="4.80667">
        <ele>224</ele>
        <time>2016-12-10T13:26:37Z</time>
      </trkpt>
      <trkpt lat="45.98214" lon="4.8067">
        <ele>224</ele>
        <time>2016-12-10T13:26:38Z</time>
      </trkpt>
      <trkpt lat="45.98207" lon="4.80674">
        <ele>224</ele>
        <time>2016-12-10T13:26:40Z</time>
      </trkpt>
      <trkpt lat="45.98204" lon="4.80676">
        <ele>224</ele>
        <time>2016-12-10T13:26:41Z</time>
      </trkpt>
      <trkpt lat="45.98197" lon="4.8068">
        <ele>225</ele>
        <time>2016-12-10T13:26:43Z</time>
      </trkpt>
      <trkpt lat="45.98193" lon="4.80682">
        <ele>225</ele>
        <time>2016-12-10T13:26:44Z</time>
      </trkpt>
      <trkpt lat="45.98185" lon="4.80685">
        <ele>225</ele>
        <time>2016-12-10T13:26:46Z</time>
      </trkpt>
      <trkpt lat="45.98181" lon="4.80685">
        <ele>225</ele>
        <time>2016-12-10T13:26:47Z</time>
      </trkpt>
      <trkpt lat="45.98174" lon="4.80687">
        <ele>225</ele>
        <time>2016-12-10T13:26:49Z</time>
      </trkpt>
      <trkpt lat="45.9817" lon="4.80687">
        <ele>225</ele>
        <time>2016-12-10T13:26:50Z</time>
      </trkpt>
      <trkpt lat="45.98163" lon="4.80686">
        <ele>227</ele>
        <time>2016-12-10T13:26:52Z</time>
      </trkpt>
      <trkpt lat="45.98159" lon="4.80687">
        <ele>227</ele>
        <time>2016-12-10T13:26:53Z</time>
      </trkpt>
      <trkpt lat="45.9815" lon="4.80687">
        <ele>227</ele>
        <time>2016-12-10T13:26:55Z</time>
      </trkpt>
      <trkpt lat="45.98146" lon="4.80688">
        <ele>228</ele>
        <time>2016-12-10T13:26:56Z</time>
      </trkpt>
      <trkpt lat="45.98138" lon="4.80689">
        <ele>228</ele>
        <time>2016-12-10T13:26:58Z</time>
      </trkpt>
      <trkpt lat="45.98134" lon="4.80689">
        <ele>228</ele>
        <time>2016-12-10T13:26:59Z</time>
      </trkpt>
      <trkpt lat="45.98127" lon="4.80689">
        <ele>228</ele>
        <time>2016-12-10T13:27:01Z</time>
      </trkpt>
      <trkpt lat="45.98124" lon="4.8069">
        <ele>228</ele>
        <time>2016-12-10T13:27:02Z</time>
      </trkpt>
      <trkpt lat="45.98116" lon="4.80691">
        <ele>228</ele>
        <time>2016-12-10T13:27:04Z</time>
      </trkpt>
      <trkpt lat="45.98113" lon="4.80691">
        <ele>228</ele>
        <time>2016-12-10T13:27:05Z</time>
      </trkpt>
      <trkpt lat="45.98106" lon="4.80691">
        <ele>228</ele>
        <time>2016-12-10T13:27:07Z</time>
      </trkpt>
      <trkpt lat="45.98103" lon="4.80691">
        <ele>228</ele>
        <time>2016-12-10T13:27:08Z</time>
      </trkpt>
      <trkpt lat="45.98095" lon="4.80692">
        <ele>228</ele>
        <time>2016-12-10T13:27:10Z</time>
      </trkpt>
      <trkpt lat="45.98092" lon="4.80691">
        <ele>228</ele>
        <time>2016-12-10T13:27:11Z</time>
      </trkpt>
      <trkpt lat="45.98085" lon="4.80691">
        <ele>228</ele>
        <time>2016-12-10T13:27:13Z</time>
      </trkpt>
      <trkpt lat="45.98082" lon="4.80691">
        <ele>230</ele>
        <time>2016-12-10T13:27:14Z</time>
      </trkpt>
      <trkpt lat="45.98073" lon="4.80691">
        <ele>230</ele>
        <time>2016-12-10T13:27:17Z</time>
      </trkpt>
      <trkpt lat="45.9807" lon="4.80691">
        <ele>230</ele>
        <time>2016-12-10T13:27:18Z</time>
      </trkpt>
      <trkpt lat="45.98064" lon="4.80692">
        <ele>230</ele>
        <time>2016-12-10T13:27:20Z</time>
      </trkpt>
      <trkpt lat="45.98061" lon="4.80693">
        <ele>230</ele>
        <time>2016-12-10T13:27:21Z</time>
      </trkpt>
      <trkpt lat="45.98054" lon="4.80695">
        <ele>230</ele>
        <time>2016-12-10T13:27:23Z</time>
      </trkpt>
      <trkpt lat="45.98051" lon="4.80696">
        <ele>230</ele>
        <time>2016-12-10T13:27:24Z</time>
      </trkpt>
      <trkpt lat="45.98045" lon="4.80698">
        <ele>230</ele>
        <time>2016-12-10T13:27:26Z</time>
      </trkpt>
      <trkpt lat="45.98041" lon="4.807">
        <ele>230</ele>
        <time>2016-12-10T13:27:27Z</time>
      </trkpt>
      <trkpt lat="45.98035" lon="4.80705">
        <ele>231</ele>
        <time>2016-12-10T13:27:29Z</time>
      </trkpt>
      <trkpt lat="45.98033" lon="4.80709">
        <ele>231</ele>
        <time>2016-12-10T13:27:30Z</time>
      </trkpt>
      <trkpt lat="45.98033" lon="4.8072">
        <ele>231</ele>
        <time>2016-12-10T13:27:33Z</time>
      </trkpt>
      <trkpt lat="45.98033" lon="4.80724">
        <ele>231</ele>
        <time>2016-12-10T13:27:34Z</time>
      </trkpt>
      <trkpt lat="45.98037" lon="4.80734">
        <ele>231</ele>
        <time>2016-12-10T13:27:37Z</time>
      </trkpt>
      <trkpt lat="45.98037" lon="4.80738">
        <ele>231</ele>
        <time>2016-12-10T13:27:38Z</time>
      </trkpt>
      <trkpt lat="45.98039" lon="4.80748">
        <ele>231</ele>
        <time>2016-12-10T13:27:41Z</time>
      </trkpt>
      <trkpt lat="45.9804" lon="4.80751">
        <ele>233</ele>
        <time>2016-12-10T13:27:42Z</time>
      </trkpt>
      <trkpt lat="45.98042" lon="4.8076">
        <ele>233</ele>
        <time>2016-12-10T13:27:45Z</time>
      </trkpt>
      <trkpt lat="45.98043" lon="4.80764">
        <ele>233</ele>
        <time>2016-12-10T13:27:46Z</time>
      </trkpt>
      <trkpt lat="45.98044" lon="4.80774">
        <ele>233</ele>
        <time>2016-12-10T13:27:49Z</time>
      </trkpt>
      <trkpt lat="45.98045" lon="4.80778">
        <ele>233</ele>
        <time>2016-12-10T13:27:50Z</time>
      </trkpt>
      <trkpt lat="45.98047" lon="4.80787">
        <ele>233</ele>
        <time>2016-12-10T13:27:53Z</time>
      </trkpt>
      <trkpt lat="45.98047" lon="4.80791">
        <ele>233</ele>
        <time>2016-12-10T13:27:54Z</time>
      </trkpt>
      <trkpt lat="45.9805" lon="4.80802">
        <ele>234</ele>
        <time>2016-12-10T13:27:57Z</time>
      </trkpt>
      <trkpt lat="45.98051" lon="4.80805">
        <ele>234</ele>
        <time>2016-12-10T13:27:58Z</time>
      </trkpt>
      <trkpt lat="45.98054" lon="4.80816">
        <ele>234</ele>
        <time>2016-12-10T13:28:01Z</time>
      </trkpt>
      <trkpt lat="45.98055" lon="4.80819">
        <ele>234</ele>
        <time>2016-12-10T13:28:02Z</time>
      </trkpt>
      <trkpt lat="45.98058" lon="4.80829">
        <ele>234</ele>
        <time>2016-12-10T13:28:05Z</time>
      </trkpt>
      <trkpt lat="45.98059" lon="4.80832">
        <ele>234</ele>
        <time>2016-12-10T13:28:06Z</time>
      </trkpt>
      <trkpt lat="45.98062" lon="4.80844">
        <ele>236</ele>
        <time>2016-12-10T13:28:09Z</time>
      </trkpt>
      <trkpt lat="45.98063" lon="4.80847">
        <ele>236</ele>
        <time>2016-12-10T13:28:10Z</time>
      </trkpt>
      <trkpt lat="45.98065" lon="4.80858">
        <ele>236</ele>
        <time>2016-12-10T13:28:13Z</time>
      </trkpt>
      <trkpt lat="45.98066" lon="4.80862">
        <ele>237</ele>
        <time>2016-12-10T13:28:14Z</time>
      </trkpt>
      <trkpt lat="45.98068" lon="4.8087">
        <ele>237</ele>
        <time>2016-12-10T13:28:16Z</time>
      </trkpt>
      <trkpt lat="45.98068" lon="4.80874">
        <ele>237</ele>
        <time>2016-12-10T13:28:17Z</time>
      </trkpt>
      <trkpt lat="45.9807" lon="4.80887">
        <ele>237</ele>
        <time>2016-12-10T13:28:20Z</time>
      </trkpt>
      <trkpt lat="45.98071" lon="4.8089">
        <ele>238</ele>
        <time>2016-12-10T13:28:21Z</time>
      </trkpt>
      <trkpt lat="45.98073" lon="4.80899">
        <ele>238</ele>
        <time>2016-12-10T13:28:23Z</time>
      </trkpt>
      <trkpt lat="45.98075" lon="4.80903">
        <ele>238</ele>
        <time>2016-12-10T13:28:24Z</time>
      </trkpt>
      <trkpt lat="45.98078" lon="4.8091">
        <ele>238</ele>
        <time>2016-12-10T13:28:26Z</time>
      </trkpt>
      <trkpt lat="45.98079" lon="4.80914">
        <ele>239</ele>
        <time>2016-12-10T13:28:27Z</time>
      </trkpt>
      <trkpt lat="45.9808" lon="4.80926">
        <ele>240</ele>
        <time>2016-12-10T13:28:30Z</time>
      </trkpt>
      <trkpt lat="45.98081" lon="4.80929">
        <ele>240</ele>
        <time>2016-12-10T13:28:31Z</time>
      </trkpt>
      <trkpt lat="45.98084" lon="4.80941">
        <ele>238</ele>
        <time>2016-12-10T13:28:34Z</time>
      </trkpt>
      <trkpt lat="45.98085" lon="4.80944">
        <ele>238</ele>
        <time>2016-12-10T13:28:35Z</time>
      </trkpt>
      <trkpt lat="45.98088" lon="4.80956">
        <ele>239</ele>
        <time>2016-12-10T13:28:38Z</time>
      </trkpt>
      <trkpt lat="45.9809" lon="4.8096">
        <ele>239</ele>
        <time>2016-12-10T13:28:39Z</time>
      </trkpt>
      <trkpt lat="45.98093" lon="4.8097">
        <ele>239</ele>
        <time>2016-12-10T13:28:42Z</time>
      </trkpt>
      <trkpt lat="45.98094" lon="4.80974">
        <ele>239</ele>
        <time>2016-12-10T13:28:43Z</time>
      </trkpt>
      <trkpt lat="45.98098" lon="4.80983">
        <ele>239</ele>
        <time>2016-12-10T13:28:46Z</time>
      </trkpt>
      <trkpt lat="45.98098" lon="4.80986">
        <ele>240</ele>
        <time>2016-12-10T13:28:47Z</time>
      </trkpt>
      <trkpt lat="45.98101" lon="4.80994">
        <ele>240</ele>
        <time>2016-12-10T13:28:49Z</time>
      </trkpt>
      <trkpt lat="45.98102" lon="4.80999">
        <ele>240</ele>
        <time>2016-12-10T13:28:50Z</time>
      </trkpt>
      <trkpt lat="45.98105" lon="4.81008">
        <ele>242</ele>
        <time>2016-12-10T13:28:52Z</time>
      </trkpt>
      <trkpt lat="45.98106" lon="4.81013">
        <ele>242</ele>
        <time>2016-12-10T13:28:53Z</time>
      </trkpt>
      <trkpt lat="45.9811" lon="4.81023">
        <ele>242</ele>
        <time>2016-12-10T13:28:55Z</time>
      </trkpt>
      <trkpt lat="45.98111" lon="4.81028">
        <ele>242</ele>
        <time>2016-12-10T13:28:56Z</time>
      </trkpt>
      <trkpt lat="45.98114" lon="4.81038">
        <ele>242</ele>
        <time>2016-12-10T13:28:58Z</time>
      </trkpt>
      <trkpt lat="45.98116" lon="4.81044">
        <ele>242</ele>
        <time>2016-12-10T13:28:59Z</time>
      </trkpt>
      <trkpt lat="45.98119" lon="4.81055">
        <ele>243</ele>
        <time>2016-12-10T13:29:01Z</time>
      </trkpt>
      <trkpt lat="45.98121" lon="4.8106">
        <ele>243</ele>
        <time>2016-12-10T13:29:02Z</time>
      </trkpt>
      <trkpt lat="45.98125" lon="4.81069">
        <ele>243</ele>
        <time>2016-12-10T13:29:04Z</time>
      </trkpt>
      <trkpt lat="45.98127" lon="4.81073">
        <ele>243</ele>
        <time>2016-12-10T13:29:05Z</time>
      </trkpt>
      <trkpt lat="45.98131" lon="4.81083">
        <ele>243</ele>
        <time>2016-12-10T13:29:07Z</time>
      </trkpt>
      <trkpt lat="45.98133" lon="4.81087">
        <ele>245</ele>
        <time>2016-12-10T13:29:08Z</time>
      </trkpt>
      <trkpt lat="45.98137" lon="4.81096">
        <ele>245</ele>
        <time>2016-12-10T13:29:10Z</time>
      </trkpt>
      <trkpt lat="45.98138" lon="4.81101">
        <ele>245</ele>
        <time>2016-12-10T13:29:11Z</time>
      </trkpt>
      <trkpt lat="45.98142" lon="4.81109">
        <ele>245</ele>
        <time>2016-12-10T13:29:13Z</time>
      </trkpt>
      <trkpt lat="45.98144" lon="4.81114">
        <ele>245</ele>
        <time>2016-12-10T13:29:14Z</time>
      </trkpt>
      <trkpt lat="45.98148" lon="4.81124">
        <ele>245</ele>
        <time>2016-12-10T13:29:16Z</time>
      </trkpt>
      <trkpt lat="45.9815" lon="4.81128">
        <ele>245</ele>
        <time>2016-12-10T13:29:17Z</time>
      </trkpt>
      <trkpt lat="45.98154" lon="4.81138">
        <ele>245</ele>
        <time>2016-12-10T13:29:19Z</time>
      </trkpt>
      <trkpt lat="45.98156" lon="4.81143">
        <ele>245</ele>
        <time>2016-12-10T13:29:20Z</time>
      </trkpt>
      <trkpt lat="45.9816" lon="4.81153">
        <ele>245</ele>
        <time>2016-12-10T13:29:22Z</time>
      </trkpt>
      <trkpt lat="45.98161" lon="4.81158">
        <ele>245</ele>
        <time>2016-12-10T13:29:23Z</time>
      </trkpt>
      <trkpt lat="45.98165" lon="4.81167">
        <ele>245</ele>
        <time>2016-12-10T13:29:25Z</time>
      </trkpt>
      <trkpt lat="45.98166" lon="4.81171">
        <ele>245</ele>
        <time>2016-12-10T13:29:26Z</time>
      </trkpt>
      <trkpt lat="45.98168" lon="4.81179">
        <ele>245</ele>
        <time>2016-12-10T13:29:28Z</time>
      </trkpt>
      <trkpt lat="45.98169" lon="4.81184">
        <ele>245</ele>
        <time>2016-12-10T13:29:29Z</time>
      </trkpt>
      <trkpt lat="45.98169" lon="4.81193">
        <ele>245</ele>
        <time>2016-12-10T13:29:31Z</time>
      </trkpt>
      <trkpt lat="45.9817" lon="4.81198">
        <ele>245</ele>
        <time>2016-12-10T13:29:32Z</time>
      </trkpt>
      <trkpt lat="45.98171" lon="4.81208">
        <ele>246</ele>
        <time>2016-12-10T13:29:34Z</time>
      </trkpt>
      <trkpt lat="45.98171" lon="4.81214">
        <ele>246</ele>
        <time>2016-12-10T13:29:35Z</time>
      </trkpt>
      <trkpt lat="45.98173" lon="4.81223">
        <ele>246</ele>
        <time>2016-12-10T13:29:37Z</time>
      </trkpt>
      <trkpt lat="45.98174" lon="4.81228">
        <ele>246</ele>
        <time>2016-12-10T13:29:38Z</time>
      </trkpt>
      <trkpt lat="45.98176" lon="4.81238">
        <ele>247</ele>
        <time>2016-12-10T13:29:40Z</time>
      </trkpt>
      <trkpt lat="45.98177" lon="4.81243">
        <ele>247</ele>
        <time>2016-12-10T13:29:41Z</time>
      </trkpt>
      <trkpt lat="45.98178" lon="4.81252">
        <ele>247</ele>
        <time>2016-12-10T13:29:43Z</time>
      </trkpt>
      <trkpt lat="45.98179" lon="4.81258">
        <ele>247</ele>
        <time>2016-12-10T13:29:44Z</time>
      </trkpt>
      <trkpt lat="45.98181" lon="4.81268">
        <ele>247</ele>
        <time>2016-12-10T13:29:46Z</time>
      </trkpt>
      <trkpt lat="45.98182" lon="4.81274">
        <ele>247</ele>
        <time>2016-12-10T13:29:47Z</time>
      </trkpt>
      <trkpt lat="45.98186" lon="4.81284">
        <ele>247</ele>
        <time>2016-12-10T13:29:49Z</time>
      </trkpt>
      <trkpt lat="45.98187" lon="4.81289">
        <ele>247</ele>
        <time>2016-12-10T13:29:50Z</time>
      </trkpt>
      <trkpt lat="45.98189" lon="4.813">
        <ele>247</ele>
        <time>2016-12-10T13:29:52Z</time>
      </trkpt>
      <trkpt lat="45.9819" lon="4.81306">
        <ele>247</ele>
        <time>2016-12-10T13:29:53Z</time>
      </trkpt>
      <trkpt lat="45.98192" lon="4.81317">
        <ele>247</ele>
        <time>2016-12-10T13:29:55Z</time>
      </trkpt>
      <trkpt lat="45.98192" lon="4.81321">
        <ele>247</ele>
        <time>2016-12-10T13:29:56Z</time>
      </trkpt>
      <trkpt lat="45.98194" lon="4.81331">
        <ele>247</ele>
        <time>2016-12-10T13:29:58Z</time>
      </trkpt>
      <trkpt lat="45.98195" lon="4.81336">
        <ele>248</ele>
        <time>2016-12-10T13:29:59Z</time>
      </trkpt>
      <trkpt lat="45.98197" lon="4.81347">
        <ele>248</ele>
        <time>2016-12-10T13:30:01Z</time>
      </trkpt>
      <trkpt lat="45.98198" lon="4.81352">
        <ele>248</ele>
        <time>2016-12-10T13:30:02Z</time>
      </trkpt>
      <trkpt lat="45.982" lon="4.81363">
        <ele>248</ele>
        <time>2016-12-10T13:30:04Z</time>
      </trkpt>
      <trkpt lat="45.98201" lon="4.81368">
        <ele>248</ele>
        <time>2016-12-10T13:30:05Z</time>
      </trkpt>
      <trkpt lat="45.98203" lon="4.8138">
        <ele>248</ele>
        <time>2016-12-10T13:30:07Z</time>
      </trkpt>
      <trkpt lat="45.98204" lon="4.81385">
        <ele>248</ele>
        <time>2016-12-10T13:30:08Z</time>
      </trkpt>
      <trkpt lat="45.98207" lon="4.81396">
        <ele>248</ele>
        <time>2016-12-10T13:30:10Z</time>
      </trkpt>
      <trkpt lat="45.98209" lon="4.81402">
        <ele>248</ele>
        <time>2016-12-10T13:30:11Z</time>
      </trkpt>
      <trkpt lat="45.98212" lon="4.81412">
        <ele>248</ele>
        <time>2016-12-10T13:30:13Z</time>
      </trkpt>
      <trkpt lat="45.98214" lon="4.81418">
        <ele>249</ele>
        <time>2016-12-10T13:30:14Z</time>
      </trkpt>
      <trkpt lat="45.98216" lon="4.81423">
        <ele>249</ele>
        <time>2016-12-10T13:30:15Z</time>
      </trkpt>
      <trkpt lat="45.98218" lon="4.81429">
        <ele>249</ele>
        <time>2016-12-10T13:30:16Z</time>
      </trkpt>
      <trkpt lat="45.98221" lon="4.8144">
        <ele>249</ele>
        <time>2016-12-10T13:30:18Z</time>
      </trkpt>
      <trkpt lat="45.98223" lon="4.81446">
        <ele>249</ele>
        <time>2016-12-10T13:30:19Z</time>
      </trkpt>
      <trkpt lat="45.98225" lon="4.81452">
        <ele>249</ele>
        <time>2016-12-10T13:30:20Z</time>
      </trkpt>
      <trkpt lat="45.98227" lon="4.81458">
        <ele>249</ele>
        <time>2016-12-10T13:30:21Z</time>
      </trkpt>
      <trkpt lat="45.98229" lon="4.81464">
        <ele>249</ele>
        <time>2016-12-10T13:30:22Z</time>
      </trkpt>
      <trkpt lat="45.98231" lon="4.8147">
        <ele>249</ele>
        <time>2016-12-10T13:30:23Z</time>
      </trkpt>
      <trkpt lat="45.98234" lon="4.81477">
        <ele>249</ele>
        <time>2016-12-10T13:30:24Z</time>
      </trkpt>
      <trkpt lat="45.98236" lon="4.81483">
        <ele>249</ele>
        <time>2016-12-10T13:30:25Z</time>
      </trkpt>
      <trkpt lat="45.98238" lon="4.8149">
        <ele>249</ele>
        <time>2016-12-10T13:30:26Z</time>
      </trkpt>
      <trkpt lat="45.98241" lon="4.81497">
        <ele>249</ele>
        <time>2016-12-10T13:30:27Z</time>
      </trkpt>
      <trkpt lat="45.98243" lon="4.81504">
        <ele>249</ele>
        <time>2016-12-10T13:30:28Z</time>
      </trkpt>
      <trkpt lat="45.98245" lon="4.81511">
        <ele>249</ele>
        <time>2016-12-10T13:30:29Z</time>
      </trkpt>
      <trkpt lat="45.98247" lon="4.81519">
        <ele>249</ele>
        <time>2016-12-10T13:30:30Z</time>
      </trkpt>
      <trkpt lat="45.9825" lon="4.81526">
        <ele>249</ele>
        <time>2016-12-10T13:30:31Z</time>
      </trkpt>
      <trkpt lat="45.98252" lon="4.81532">
        <ele>247</ele>
        <time>2016-12-10T13:30:32Z</time>
      </trkpt>
      <trkpt lat="45.98255" lon="4.81539">
        <ele>247</ele>
        <time>2016-12-10T13:30:33Z</time>
      </trkpt>
      <trkpt lat="45.98257" lon="4.81546">
        <ele>247</ele>
        <time>2016-12-10T13:30:34Z</time>
      </trkpt>
      <trkpt lat="45.98259" lon="4.81552">
        <ele>247</ele>
        <time>2016-12-10T13:30:35Z</time>
      </trkpt>
      <trkpt lat="45.98261" lon="4.81558">
        <ele>247</ele>
        <time>2016-12-10T13:30:36Z</time>
      </trkpt>
      <trkpt lat="45.98263" lon="4.81565">
        <ele>247</ele>
        <time>2016-12-10T13:30:37Z</time>
      </trkpt>
      <trkpt lat="45.98265" lon="4.81571">
        <ele>247</ele>
        <time>2016-12-10T13:30:38Z</time>
      </trkpt>
      <trkpt lat="45.98267" lon="4.81578">
        <ele>247</ele>
        <time>2016-12-10T13:30:39Z</time>
      </trkpt>
      <trkpt lat="45.9827" lon="4.81584">
        <ele>247</ele>
        <time>2016-12-10T13:30:40Z</time>
      </trkpt>
      <trkpt lat="45.98272" lon="4.8159">
        <ele>247</ele>
        <time>2016-12-10T13:30:41Z</time>
      </trkpt>
      <trkpt lat="45.98274" lon="4.81597">
        <ele>247</ele>
        <time>2016-12-10T13:30:42Z</time>
      </trkpt>
      <trkpt lat="45.98276" lon="4.81603">
        <ele>247</ele>
        <time>2016-12-10T13:30:43Z</time>
      </trkpt>
      <trkpt lat="45.98279" lon="4.81609">
        <ele>247</ele>
        <time>2016-12-10T13:30:44Z</time>
      </trkpt>
      <trkpt lat="45.98281" lon="4.81614">
        <ele>247</ele>
        <time>2016-12-10T13:30:45Z</time>
      </trkpt>
      <trkpt lat="45.98284" lon="4.8162">
        <ele>247</ele>
        <time>2016-12-10T13:30:46Z</time>
      </trkpt>
      <trkpt lat="45.98288" lon="4.81625">
        <ele>247</ele>
        <time>2016-12-10T13:30:47Z</time>
      </trkpt>
      <trkpt lat="45.98291" lon="4.81629">
        <ele>247</ele>
        <time>2016-12-10T13:30:48Z</time>
      </trkpt>
      <trkpt lat="45.98295" lon="4.81634">
        <ele>247</ele>
        <time>2016-12-10T13:30:49Z</time>
      </trkpt>
      <trkpt lat="45.983" lon="4.81638">
        <ele>246</ele>
        <time>2016-12-10T13:30:50Z</time>
      </trkpt>
      <trkpt lat="45.98304" lon="4.81642">
        <ele>246</ele>
        <time>2016-12-10T13:30:51Z</time>
      </trkpt>
      <trkpt lat="45.98308" lon="4.81646">
        <ele>246</ele>
        <time>2016-12-10T13:30:52Z</time>
      </trkpt>
      <trkpt lat="45.98312" lon="4.8165">
        <ele>246</ele>
        <time>2016-12-10T13:30:53Z</time>
      </trkpt>
      <trkpt lat="45.98316" lon="4.81654">
        <ele>246</ele>
        <time>2016-12-10T13:30:54Z</time>
      </trkpt>
      <trkpt lat="45.9832" lon="4.81657">
        <ele>246</ele>
        <time>2016-12-10T13:30:55Z</time>
      </trkpt>
      <trkpt lat="45.98324" lon="4.81661">
        <ele>246</ele>
        <time>2016-12-10T13:30:56Z</time>
      </trkpt>
      <trkpt lat="45.98328" lon="4.81664">
        <ele>246</ele>
        <time>2016-12-10T13:30:57Z</time>
      </trkpt>
      <trkpt lat="45.98332" lon="4.81667">
        <ele>246</ele>
        <time>2016-12-10T13:30:58Z</time>
      </trkpt>
      <trkpt lat="45.98336" lon="4.81669">
        <ele>246</ele>
        <time>2016-12-10T13:30:59Z</time>
      </trkpt>
      <trkpt lat="45.98341" lon="4.8167">
        <ele>245</ele>
        <time>2016-12-10T13:31:00Z</time>
      </trkpt>
      <trkpt lat="45.98346" lon="4.81672">
        <ele>245</ele>
        <time>2016-12-10T13:31:01Z</time>
      </trkpt>
      <trkpt lat="45.98351" lon="4.81673">
        <ele>245</ele>
        <time>2016-12-10T13:31:02Z</time>
      </trkpt>
      <trkpt lat="45.98356" lon="4.81674">
        <ele>245</ele>
        <time>2016-12-10T13:31:03Z</time>
      </trkpt>
      <trkpt lat="45.98361" lon="4.81675">
        <ele>244</ele>
        <time>2016-12-10T13:31:04Z</time>
      </trkpt>
      <trkpt lat="45.98366" lon="4.81675">
        <ele>244</ele>
        <time>2016-12-10T13:31:05Z</time>
      </trkpt>
      <trkpt lat="45.98371" lon="4.81674">
        <ele>244</ele>
        <time>2016-12-10T13:31:06Z</time>
      </trkpt>
      <trkpt lat="45.98376" lon="4.81673">
        <ele>244</ele>
        <time>2016-12-10T13:31:07Z</time>
      </trkpt>
      <trkpt lat="45.9838" lon="4.81672">
        <ele>244</ele>
        <time>2016-12-10T13:31:08Z</time>
      </trkpt>
      <trkpt lat="45.98385" lon="4.81671">
        <ele>243</ele>
        <time>2016-12-10T13:31:09Z</time>
      </trkpt>
      <trkpt lat="45.9839" lon="4.8167">
        <ele>243</ele>
        <time>2016-12-10T13:31:10Z</time>
      </trkpt>
      <trkpt lat="45.98395" lon="4.81669">
        <ele>243</ele>
        <time>2016-12-10T13:31:11Z</time>
      </trkpt>
      <trkpt lat="45.984" lon="4.81668">
        <ele>243</ele>
        <time>2016-12-10T13:31:12Z</time>
      </trkpt>
      <trkpt lat="45.98404" lon="4.81666">
        <ele>241</ele>
        <time>2016-12-10T13:31:13Z</time>
      </trkpt>
      <trkpt lat="45.98409" lon="4.81665">
        <ele>241</ele>
        <time>2016-12-10T13:31:14Z</time>
      </trkpt>
      <trkpt lat="45.98414" lon="4.81664">
        <ele>241</ele>
        <time>2016-12-10T13:31:15Z</time>
      </trkpt>
      <trkpt lat="45.98419" lon="4.81664">
        <ele>240</ele>
        <time>2016-12-10T13:31:16Z</time>
      </trkpt>
      <trkpt lat="45.98424" lon="4.81664">
        <ele>240</ele>
        <time>2016-12-10T13:31:17Z</time>
      </trkpt>
      <trkpt lat="45.98429" lon="4.81666">
        <ele>239</ele>
        <time>2016-12-10T13:31:18Z</time>
      </trkpt>
      <trkpt lat="45.98434" lon="4.81668">
        <ele>240</ele>
        <time>2016-12-10T13:31:19Z</time>
      </trkpt>
      <trkpt lat="45.98439" lon="4.81672">
        <ele>240</ele>
        <time>2016-12-10T13:31:20Z</time>
      </trkpt>
      <trkpt lat="45.98443" lon="4.81677">
        <ele>239</ele>
        <time>2016-12-10T13:31:21Z</time>
      </trkpt>
      <trkpt lat="45.98447" lon="4.81682">
        <ele>239</ele>
        <time>2016-12-10T13:31:22Z</time>
      </trkpt>
      <trkpt lat="45.9845" lon="4.81688">
        <ele>239</ele>
        <time>2016-12-10T13:31:23Z</time>
      </trkpt>
      <trkpt lat="45.98453" lon="4.81694">
        <ele>239</ele>
        <time>2016-12-10T13:31:24Z</time>
      </trkpt>
      <trkpt lat="45.98457" lon="4.817">
        <ele>239</ele>
        <time>2016-12-10T13:31:25Z</time>
      </trkpt>
      <trkpt lat="45.9846" lon="4.81706">
        <ele>239</ele>
        <time>2016-12-10T13:31:26Z</time>
      </trkpt>
      <trkpt lat="45.98464" lon="4.81712">
        <ele>239</ele>
        <time>2016-12-10T13:31:27Z</time>
      </trkpt>
      <trkpt lat="45.98469" lon="4.81718">
        <ele>239</ele>
        <time>2016-12-10T13:31:28Z</time>
      </trkpt>
      <trkpt lat="45.98474" lon="4.81725">
        <ele>239</ele>
        <time>2016-12-10T13:31:29Z</time>
      </trkpt>
      <trkpt lat="45.98479" lon="4.81731">
        <ele>238</ele>
        <time>2016-12-10T13:31:30Z</time>
      </trkpt>
      <trkpt lat="45.98485" lon="4.81737">
        <ele>238</ele>
        <time>2016-12-10T13:31:31Z</time>
      </trkpt>
      <trkpt lat="45.98491" lon="4.81743">
        <ele>238</ele>
        <time>2016-12-10T13:31:32Z</time>
      </trkpt>
      <trkpt lat="45.98498" lon="4.8175">
        <ele>237</ele>
        <time>2016-12-10T13:31:33Z</time>
      </trkpt>
      <trkpt lat="45.98504" lon="4.81757">
        <ele>237</ele>
        <time>2016-12-10T13:31:34Z</time>
      </trkpt>
      <trkpt lat="45.98509" lon="4.81765">
        <ele>237</ele>
        <time>2016-12-10T13:31:35Z</time>
      </trkpt>
      <trkpt lat="45.98515" lon="4.81772">
        <ele>238</ele>
        <time>2016-12-10T13:31:36Z</time>
      </trkpt>
      <trkpt lat="45.98521" lon="4.8178">
        <ele>238</ele>
        <time>2016-12-10T13:31:37Z</time>
      </trkpt>
      <trkpt lat="45.98526" lon="4.81787">
        <ele>238</ele>
        <time>2016-12-10T13:31:38Z</time>
      </trkpt>
      <trkpt lat="45.98531" lon="4.81794">
        <ele>238</ele>
        <time>2016-12-10T13:31:39Z</time>
      </trkpt>
      <trkpt lat="45.98536" lon="4.81801">
        <ele>238</ele>
        <time>2016-12-10T13:31:40Z</time>
      </trkpt>
      <trkpt lat="45.9854" lon="4.81806">
        <ele>238</ele>
        <time>2016-12-10T13:31:41Z</time>
      </trkpt>
      <trkpt lat="45.98545" lon="4.81809">
        <ele>238</ele>
        <time>2016-12-10T13:31:42Z</time>
      </trkpt>
      <trkpt lat="45.9855" lon="4.8181">
        <ele>238</ele>
        <time>2016-12-10T13:31:43Z</time>
      </trkpt>
      <trkpt lat="45.98555" lon="4.8181">
        <ele>238</ele>
        <time>2016-12-10T13:31:44Z</time>
      </trkpt>
      <trkpt lat="45.9856" lon="4.81807">
        <ele>238</ele>
        <time>2016-12-10T13:31:45Z</time>
      </trkpt>
      <trkpt lat="45.98564" lon="4.81803">
        <ele>238</ele>
        <time>2016-12-10T13:31:46Z</time>
      </trkpt>
      <trkpt lat="45.98568" lon="4.81799">
        <ele>238</ele>
        <time>2016-12-10T13:31:47Z</time>
      </trkpt>
      <trkpt lat="45.98571" lon="4.81793">
        <ele>238</ele>
        <time>2016-12-10T13:31:48Z</time>
      </trkpt>
      <trkpt lat="45.98575" lon="4.81788">
        <ele>238</ele>
        <time>2016-12-10T13:31:49Z</time>
      </trkpt>
      <trkpt lat="45.98578" lon="4.81783">
        <ele>238</ele>
        <time>2016-12-10T13:31:50Z</time>
      </trkpt>
      <trkpt lat="45.98582" lon="4.81779">
        <ele>238</ele>
        <time>2016-12-10T13:31:51Z</time>
      </trkpt>
      <trkpt lat="45.98587" lon="4.81775">
        <ele>238</ele>
        <time>2016-12-10T13:31:52Z</time>
      </trkpt>
      <trkpt lat="45.98591" lon="4.81771">
        <ele>238</ele>
        <time>2016-12-10T13:31:53Z</time>
      </trkpt>
      <trkpt lat="45.98596" lon="4.81767">
        <ele>238</ele>
        <time>2016-12-10T13:31:54Z</time>
      </trkpt>
      <trkpt lat="45.98601" lon="4.81765">
        <ele>238</ele>
        <time>2016-12-10T13:31:55Z</time>
      </trkpt>
      <trkpt lat="45.98606" lon="4.81763">
        <ele>238</ele>
        <time>2016-12-10T13:31:56Z</time>
      </trkpt>
      <trkpt lat="45.98612" lon="4.81762">
        <ele>238</ele>
        <time>2016-12-10T13:31:57Z</time>
      </trkpt>
      <trkpt lat="45.98617" lon="4.81761">
        <ele>238</ele>
        <time>2016-12-10T13:31:58Z</time>
      </trkpt>
      <trkpt lat="45.98623" lon="4.81758">
        <ele>238</ele>
        <time>2016-12-10T13:31:59Z</time>
      </trkpt>
      <trkpt lat="45.98628" lon="4.81757">
        <ele>238</ele>
        <time>2016-12-10T13:32:00Z</time>
      </trkpt>
      <trkpt lat="45.98633" lon="4.81755">
        <ele>238</ele>
        <time>2016-12-10T13:32:01Z</time>
      </trkpt>
      <trkpt lat="45.98639" lon="4.81753">
        <ele>238</ele>
        <time>2016-12-10T13:32:02Z</time>
      </trkpt>
      <trkpt lat="45.98644" lon="4.81751">
        <ele>238</ele>
        <time>2016-12-10T13:32:03Z</time>
      </trkpt>
      <trkpt lat="45.98649" lon="4.8175">
        <ele>237</ele>
        <time>2016-12-10T13:32:04Z</time>
      </trkpt>
      <trkpt lat="45.98654" lon="4.81749">
        <ele>237</ele>
        <time>2016-12-10T13:32:05Z</time>
      </trkpt>
      <trkpt lat="45.98659" lon="4.81748">
        <ele>238</ele>
        <time>2016-12-10T13:32:06Z</time>
      </trkpt>
      <trkpt lat="45.98663" lon="4.81746">
        <ele>238</ele>
        <time>2016-12-10T13:32:07Z</time>
      </trkpt>
      <trkpt lat="45.98668" lon="4.81745">
        <ele>238</ele>
        <time>2016-12-10T13:32:08Z</time>
      </trkpt>
      <trkpt lat="45.98672" lon="4.81743">
        <ele>238</ele>
        <time>2016-12-10T13:32:09Z</time>
      </trkpt>
      <trkpt lat="45.98681" lon="4.8174">
        <ele>238</ele>
        <time>2016-12-10T13:32:11Z</time>
      </trkpt>
      <trkpt lat="45.98685" lon="4.81738">
        <ele>238</ele>
        <time>2016-12-10T13:32:12Z</time>
      </trkpt>
      <trkpt lat="45.98689" lon="4.81736">
        <ele>238</ele>
        <time>2016-12-10T13:32:13Z</time>
      </trkpt>
      <trkpt lat="45.98694" lon="4.81735">
        <ele>238</ele>
        <time>2016-12-10T13:32:14Z</time>
      </trkpt>
      <trkpt lat="45.98699" lon="4.81733">
        <ele>239</ele>
        <time>2016-12-10T13:32:15Z</time>
      </trkpt>
      <trkpt lat="45.98703" lon="4.81732">
        <ele>239</ele>
        <time>2016-12-10T13:32:16Z</time>
      </trkpt>
      <trkpt lat="45.98708" lon="4.81731">
        <ele>239</ele>
        <time>2016-12-10T13:32:17Z</time>
      </trkpt>
      <trkpt lat="45.98713" lon="4.81731">
        <ele>239</ele>
        <time>2016-12-10T13:32:18Z</time>
      </trkpt>
      <trkpt lat="45.98717" lon="4.81731">
        <ele>239</ele>
        <time>2016-12-10T13:32:19Z</time>
      </trkpt>
      <trkpt lat="45.98722" lon="4.81733">
        <ele>239</ele>
        <time>2016-12-10T13:32:20Z</time>
      </trkpt>
      <trkpt lat="45.98726" lon="4.81735">
        <ele>239</ele>
        <time>2016-12-10T13:32:21Z</time>
      </trkpt>
      <trkpt lat="45.9873" lon="4.81738">
        <ele>239</ele>
        <time>2016-12-10T13:32:22Z</time>
      </trkpt>
      <trkpt lat="45.98733" lon="4.81743">
        <ele>240</ele>
        <time>2016-12-10T13:32:23Z</time>
      </trkpt>
      <trkpt lat="45.98736" lon="4.81748">
        <ele>240</ele>
        <time>2016-12-10T13:32:24Z</time>
      </trkpt>
      <trkpt lat="45.98738" lon="4.81754">
        <ele>240</ele>
        <time>2016-12-10T13:32:25Z</time>
      </trkpt>
      <trkpt lat="45.98741" lon="4.81759">
        <ele>240</ele>
        <time>2016-12-10T13:32:26Z</time>
      </trkpt>
      <trkpt lat="45.98746" lon="4.81769">
        <ele>240</ele>
        <time>2016-12-10T13:32:28Z</time>
      </trkpt>
      <trkpt lat="45.98749" lon="4.81775">
        <ele>240</ele>
        <time>2016-12-10T13:32:29Z</time>
      </trkpt>
      <trkpt lat="45.98752" lon="4.8178">
        <ele>241</ele>
        <time>2016-12-10T13:32:30Z</time>
      </trkpt>
      <trkpt lat="45.98754" lon="4.81785">
        <ele>241</ele>
        <time>2016-12-10T13:32:31Z</time>
      </trkpt>
      <trkpt lat="45.98758" lon="4.81791">
        <ele>241</ele>
        <time>2016-12-10T13:32:32Z</time>
      </trkpt>
      <trkpt lat="45.98761" lon="4.81797">
        <ele>240</ele>
        <time>2016-12-10T13:32:33Z</time>
      </trkpt>
      <trkpt lat="45.98764" lon="4.81803">
        <ele>240</ele>
        <time>2016-12-10T13:32:34Z</time>
      </trkpt>
      <trkpt lat="45.98767" lon="4.8181">
        <ele>240</ele>
        <time>2016-12-10T13:32:35Z</time>
      </trkpt>
      <trkpt lat="45.9877" lon="4.81817">
        <ele>240</ele>
        <time>2016-12-10T13:32:36Z</time>
      </trkpt>
      <trkpt lat="45.98774" lon="4.81824">
        <ele>240</ele>
        <time>2016-12-10T13:32:37Z</time>
      </trkpt>
      <trkpt lat="45.98777" lon="4.81831">
        <ele>240</ele>
        <time>2016-12-10T13:32:38Z</time>
      </trkpt>
      <trkpt lat="45.9878" lon="4.81838">
        <ele>239</ele>
        <time>2016-12-10T13:32:39Z</time>
      </trkpt>
      <trkpt lat="45.98783" lon="4.81845">
        <ele>239</ele>
        <time>2016-12-10T13:32:40Z</time>
      </trkpt>
      <trkpt lat="45.98786" lon="4.81852">
        <ele>239</ele>
        <time>2016-12-10T13:32:41Z</time>
      </trkpt>
      <trkpt lat="45.98789" lon="4.81859">
        <ele>239</ele>
        <time>2016-12-10T13:32:42Z</time>
      </trkpt>
      <trkpt lat="45.98793" lon="4.81866">
        <ele>239</ele>
        <time>2016-12-10T13:32:43Z</time>
      </trkpt>
      <trkpt lat="45.98796" lon="4.81874">
        <ele>239</ele>
        <time>2016-12-10T13:32:44Z</time>
      </trkpt>
      <trkpt lat="45.98798" lon="4.81881">
        <ele>239</ele>
        <time>2016-12-10T13:32:45Z</time>
      </trkpt>
      <trkpt lat="45.988" lon="4.81889">
        <ele>239</ele>
        <time>2016-12-10T13:32:46Z</time>
      </trkpt>
      <trkpt lat="45.98802" lon="4.81897">
        <ele>239</ele>
        <time>2016-12-10T13:32:47Z</time>
      </trkpt>
      <trkpt lat="45.98804" lon="4.81905">
        <ele>239</ele>
        <time>2016-12-10T13:32:48Z</time>
      </trkpt>
      <trkpt lat="45.98806" lon="4.81913">
        <ele>239</ele>
        <time>2016-12-10T13:32:49Z</time>
      </trkpt>
      <trkpt lat="45.98808" lon="4.81921">
        <ele>239</ele>
        <time>2016-12-10T13:32:50Z</time>
      </trkpt>
      <trkpt lat="45.98809" lon="4.81929">
        <ele>239</ele>
        <time>2016-12-10T13:32:51Z</time>
      </trkpt>
      <trkpt lat="45.9881" lon="4.81938">
        <ele>239</ele>
        <time>2016-12-10T13:32:52Z</time>
      </trkpt>
      <trkpt lat="45.98811" lon="4.81946">
        <ele>239</ele>
        <time>2016-12-10T13:32:53Z</time>
      </trkpt>
      <trkpt lat="45.98813" lon="4.81954">
        <ele>239</ele>
        <time>2016-12-10T13:32:54Z</time>
      </trkpt>
      <trkpt lat="45.98814" lon="4.81962">
        <ele>239</ele>
        <time>2016-12-10T13:32:55Z</time>
      </trkpt>
      <trkpt lat="45.98815" lon="4.8197">
        <ele>239</ele>
        <time>2016-12-10T13:32:56Z</time>
      </trkpt>
      <trkpt lat="45.98816" lon="4.81978">
        <ele>239</ele>
        <time>2016-12-10T13:32:57Z</time>
      </trkpt>
      <trkpt lat="45.98817" lon="4.81986">
        <ele>238</ele>
        <time>2016-12-10T13:32:58Z</time>
      </trkpt>
      <trkpt lat="45.98819" lon="4.81994">
        <ele>238</ele>
        <time>2016-12-10T13:32:59Z</time>
      </trkpt>
      <trkpt lat="45.9882" lon="4.82002">
        <ele>238</ele>
        <time>2016-12-10T13:33:00Z</time>
      </trkpt>
      <trkpt lat="45.98822" lon="4.82009">
        <ele>238</ele>
        <time>2016-12-10T13:33:01Z</time>
      </trkpt>
      <trkpt lat="45.98823" lon="4.82017">
        <ele>238</ele>
        <time>2016-12-10T13:33:02Z</time>
      </trkpt>
      <trkpt lat="45.98824" lon="4.82024">
        <ele>238</ele>
        <time>2016-12-10T13:33:03Z</time>
      </trkpt>
      <trkpt lat="45.98825" lon="4.82032">
        <ele>238</ele>
        <time>2016-12-10T13:33:04Z</time>
      </trkpt>
      <trkpt lat="45.98827" lon="4.8204">
        <ele>238</ele>
        <time>2016-12-10T13:33:05Z</time>
      </trkpt>
      <trkpt lat="45.98828" lon="4.82048">
        <ele>238</ele>
        <time>2016-12-10T13:33:06Z</time>
      </trkpt>
      <trkpt lat="45.98829" lon="4.82056">
        <ele>237</ele>
        <time>2016-12-10T13:33:07Z</time>
      </trkpt>
      <trkpt lat="45.9883" lon="4.82064">
        <ele>237</ele>
        <time>2016-12-10T13:33:08Z</time>
      </trkpt>
      <trkpt lat="45.98831" lon="4.82071">
        <ele>237</ele>
        <time>2016-12-10T13:33:09Z</time>
      </trkpt>
      <trkpt lat="45.98833" lon="4.82079">
        <ele>236</ele>
        <time>2016-12-10T13:33:10Z</time>
      </trkpt>
      <trkpt lat="45.98834" lon="4.82086">
        <ele>236</ele>
        <time>2016-12-10T13:33:11Z</time>
      </trkpt>
      <trkpt lat="45.98835" lon="4.82094">
        <ele>236</ele>
        <time>2016-12-10T13:33:12Z</time>
      </trkpt>
      <trkpt lat="45.98836" lon="4.82102">
        <ele>236</ele>
        <time>2016-12-10T13:33:13Z</time>
      </trkpt>
      <trkpt lat="45.98837" lon="4.82109">
        <ele>235</ele>
        <time>2016-12-10T13:33:14Z</time>
      </trkpt>
      <trkpt lat="45.98839" lon="4.82117">
        <ele>235</ele>
        <time>2016-12-10T13:33:15Z</time>
      </trkpt>
      <trkpt lat="45.9884" lon="4.82125">
        <ele>236</ele>
        <time>2016-12-10T13:33:16Z</time>
      </trkpt>
      <trkpt lat="45.98842" lon="4.82133">
        <ele>236</ele>
        <time>2016-12-10T13:33:17Z</time>
      </trkpt>
      <trkpt lat="45.98843" lon="4.8214">
        <ele>236</ele>
        <time>2016-12-10T13:33:18Z</time>
      </trkpt>
      <trkpt lat="45.98845" lon="4.82147">
        <ele>236</ele>
        <time>2016-12-10T13:33:19Z</time>
      </trkpt>
      <trkpt lat="45.98847" lon="4.82154">
        <ele>236</ele>
        <time>2016-12-10T13:33:20Z</time>
      </trkpt>
      <trkpt lat="45.98848" lon="4.82162">
        <ele>236</ele>
        <time>2016-12-10T13:33:21Z</time>
      </trkpt>
      <trkpt lat="45.9885" lon="4.82169">
        <ele>236</ele>
        <time>2016-12-10T13:33:22Z</time>
      </trkpt>
      <trkpt lat="45.98853" lon="4.82176">
        <ele>236</ele>
        <time>2016-12-10T13:33:23Z</time>
      </trkpt>
      <trkpt lat="45.98856" lon="4.82184">
        <ele>236</ele>
        <time>2016-12-10T13:33:24Z</time>
      </trkpt>
      <trkpt lat="45.98858" lon="4.82191">
        <ele>236</ele>
        <time>2016-12-10T13:33:25Z</time>
      </trkpt>
      <trkpt lat="45.98861" lon="4.82198">
        <ele>236</ele>
        <time>2016-12-10T13:33:26Z</time>
      </trkpt>
      <trkpt lat="45.98863" lon="4.82205">
        <ele>236</ele>
        <time>2016-12-10T13:33:27Z</time>
      </trkpt>
      <trkpt lat="45.98866" lon="4.82212">
        <ele>236</ele>
        <time>2016-12-10T13:33:28Z</time>
      </trkpt>
      <trkpt lat="45.98869" lon="4.82218">
        <ele>236</ele>
        <time>2016-12-10T13:33:29Z</time>
      </trkpt>
      <trkpt lat="45.98871" lon="4.82225">
        <ele>236</ele>
        <time>2016-12-10T13:33:30Z</time>
      </trkpt>
      <trkpt lat="45.98874" lon="4.82231">
        <ele>236</ele>
        <time>2016-12-10T13:33:31Z</time>
      </trkpt>
      <trkpt lat="45.98877" lon="4.82238">
        <ele>236</ele>
        <time>2016-12-10T13:33:32Z</time>
      </trkpt>
      <trkpt lat="45.98881" lon="4.82245">
        <ele>236</ele>
        <time>2016-12-10T13:33:33Z</time>
      </trkpt>
      <trkpt lat="45.98884" lon="4.82251">
        <ele>236</ele>
        <time>2016-12-10T13:33:34Z</time>
      </trkpt>
      <trkpt lat="45.98887" lon="4.82258">
        <ele>236</ele>
        <time>2016-12-10T13:33:35Z</time>
      </trkpt>
      <trkpt lat="45.9889" lon="4.82264">
        <ele>236</ele>
        <time>2016-12-10T13:33:36Z</time>
      </trkpt>
      <trkpt lat="45.98894" lon="4.8227">
        <ele>236</ele>
        <time>2016-12-10T13:33:37Z</time>
      </trkpt>
      <trkpt lat="45.98898" lon="4.82276">
        <ele>236</ele>
        <time>2016-12-10T13:33:38Z</time>
      </trkpt>
      <trkpt lat="45.98902" lon="4.82281">
        <ele>236</ele>
        <time>2016-12-10T13:33:39Z</time>
      </trkpt>
      <trkpt lat="45.98906" lon="4.82286">
        <ele>236</ele>
        <time>2016-12-10T13:33:40Z</time>
      </trkpt>
      <trkpt lat="45.9891" lon="4.82291">
        <ele>236</ele>
        <time>2016-12-10T13:33:41Z</time>
      </trkpt>
      <trkpt lat="45.98914" lon="4.82296">
        <ele>236</ele>
        <time>2016-12-10T13:33:42Z</time>
      </trkpt>
      <trkpt lat="45.98919" lon="4.823">
        <ele>234</ele>
        <time>2016-12-10T13:33:43Z</time>
      </trkpt>
      <trkpt lat="45.98923" lon="4.82305">
        <ele>234</ele>
        <time>2016-12-10T13:33:44Z</time>
      </trkpt>
      <trkpt lat="45.98927" lon="4.8231">
        <ele>235</ele>
        <time>2016-12-10T13:33:45Z</time>
      </trkpt>
      <trkpt lat="45.98932" lon="4.82315">
        <ele>235</ele>
        <time>2016-12-10T13:33:46Z</time>
      </trkpt>
      <trkpt lat="45.98936" lon="4.8232">
        <ele>235</ele>
        <time>2016-12-10T13:33:47Z</time>
      </trkpt>
      <trkpt lat="45.9894" lon="4.82326">
        <ele>234</ele>
        <time>2016-12-10T13:33:48Z</time>
      </trkpt>
      <trkpt lat="45.98944" lon="4.82331">
        <ele>234</ele>
        <time>2016-12-10T13:33:49Z</time>
      </trkpt>
      <trkpt lat="45.98947" lon="4.82337">
        <ele>235</ele>
        <time>2016-12-10T13:33:50Z</time>
      </trkpt>
      <trkpt lat="45.9895" lon="4.82343">
        <ele>235</ele>
        <time>2016-12-10T13:33:51Z</time>
      </trkpt>
      <trkpt lat="45.98953" lon="4.8235">
        <ele>235</ele>
        <time>2016-12-10T13:33:52Z</time>
      </trkpt>
      <trkpt lat="45.98956" lon="4.82357">
        <ele>235</ele>
        <time>2016-12-10T13:33:53Z</time>
      </trkpt>
      <trkpt lat="45.98959" lon="4.82364">
        <ele>235</ele>
        <time>2016-12-10T13:33:54Z</time>
      </trkpt>
      <trkpt lat="45.98961" lon="4.82371">
        <ele>235</ele>
        <time>2016-12-10T13:33:55Z</time>
      </trkpt>
      <trkpt lat="45.98963" lon="4.82378">
        <ele>235</ele>
        <time>2016-12-10T13:33:56Z</time>
      </trkpt>
      <trkpt lat="45.98965" lon="4.82385">
        <ele>235</ele>
        <time>2016-12-10T13:33:57Z</time>
      </trkpt>
      <trkpt lat="45.98967" lon="4.82392">
        <ele>235</ele>
        <time>2016-12-10T13:33:58Z</time>
      </trkpt>
      <trkpt lat="45.98969" lon="4.824">
        <ele>235</ele>
        <time>2016-12-10T13:33:59Z</time>
      </trkpt>
      <trkpt lat="45.9897" lon="4.82407">
        <ele>235</ele>
        <time>2016-12-10T13:34:00Z</time>
      </trkpt>
      <trkpt lat="45.98972" lon="4.82415">
        <ele>235</ele>
        <time>2016-12-10T13:34:01Z</time>
      </trkpt>
      <trkpt lat="45.98974" lon="4.82422">
        <ele>236</ele>
        <time>2016-12-10T13:34:02Z</time>
      </trkpt>
      <trkpt lat="45.98977" lon="4.8243">
        <ele>236</ele>
        <time>2016-12-10T13:34:03Z</time>
      </trkpt>
      <trkpt lat="45.98979" lon="4.82437">
        <ele>236</ele>
        <time>2016-12-10T13:34:04Z</time>
      </trkpt>
      <trkpt lat="45.98981" lon="4.82445">
        <ele>236</ele>
        <time>2016-12-10T13:34:05Z</time>
      </trkpt>
      <trkpt lat="45.98983" lon="4.82452">
        <ele>236</ele>
        <time>2016-12-10T13:34:06Z</time>
      </trkpt>
      <trkpt lat="45.98985" lon="4.8246">
        <ele>236</ele>
        <time>2016-12-10T13:34:07Z</time>
      </trkpt>
      <trkpt lat="45.98987" lon="4.82467">
        <ele>236</ele>
        <time>2016-12-10T13:34:08Z</time>
      </trkpt>
      <trkpt lat="45.98989" lon="4.82473">
        <ele>236</ele>
        <time>2016-12-10T13:34:09Z</time>
      </trkpt>
      <trkpt lat="45.98992" lon="4.8248">
        <ele>236</ele>
        <time>2016-12-10T13:34:10Z</time>
      </trkpt>
      <trkpt lat="45.98993" lon="4.82487">
        <ele>236</ele>
        <time>2016-12-10T13:34:11Z</time>
      </trkpt>
      <trkpt lat="45.98996" lon="4.82494">
        <ele>235</ele>
        <time>2016-12-10T13:34:12Z</time>
      </trkpt>
      <trkpt lat="45.98998" lon="4.825">
        <ele>235</ele>
        <time>2016-12-10T13:34:13Z</time>
      </trkpt>
      <trkpt lat="45.99001" lon="4.82507">
        <ele>235</ele>
        <time>2016-12-10T13:34:14Z</time>
      </trkpt>
      <trkpt lat="45.99004" lon="4.82513">
        <ele>235</ele>
        <time>2016-12-10T13:34:15Z</time>
      </trkpt>
      <trkpt lat="45.99007" lon="4.8252">
        <ele>235</ele>
        <time>2016-12-10T13:34:16Z</time>
      </trkpt>
      <trkpt lat="45.99011" lon="4.82526">
        <ele>235</ele>
        <time>2016-12-10T13:34:17Z</time>
      </trkpt>
      <trkpt lat="45.99015" lon="4.82532">
        <ele>235</ele>
        <time>2016-12-10T13:34:18Z</time>
      </trkpt>
      <trkpt lat="45.99019" lon="4.82538">
        <ele>235</ele>
        <time>2016-12-10T13:34:19Z</time>
      </trkpt>
      <trkpt lat="45.99023" lon="4.82544">
        <ele>235</ele>
        <time>2016-12-10T13:34:20Z</time>
      </trkpt>
      <trkpt lat="45.99027" lon="4.82549">
        <ele>235</ele>
        <time>2016-12-10T13:34:21Z</time>
      </trkpt>
      <trkpt lat="45.99032" lon="4.82553">
        <ele>235</ele>
        <time>2016-12-10T13:34:22Z</time>
      </trkpt>
      <trkpt lat="45.99037" lon="4.82557">
        <ele>235</ele>
        <time>2016-12-10T13:34:23Z</time>
      </trkpt>
      <trkpt lat="45.99041" lon="4.8256">
        <ele>235</ele>
        <time>2016-12-10T13:34:24Z</time>
      </trkpt>
      <trkpt lat="45.99046" lon="4.82563">
        <ele>235</ele>
        <time>2016-12-10T13:34:25Z</time>
      </trkpt>
      <trkpt lat="45.99051" lon="4.82566">
        <ele>235</ele>
        <time>2016-12-10T13:34:26Z</time>
      </trkpt>
      <trkpt lat="45.99056" lon="4.82568">
        <ele>235</ele>
        <time>2016-12-10T13:34:27Z</time>
      </trkpt>
      <trkpt lat="45.99061" lon="4.82569">
        <ele>235</ele>
        <time>2016-12-10T13:34:28Z</time>
      </trkpt>
      <trkpt lat="45.99065" lon="4.82571">
        <ele>235</ele>
        <time>2016-12-10T13:34:29Z</time>
      </trkpt>
      <trkpt lat="45.99073" lon="4.82577">
        <ele>235</ele>
        <time>2016-12-10T13:34:31Z</time>
      </trkpt>
      <trkpt lat="45.99075" lon="4.8258">
        <ele>235</ele>
        <time>2016-12-10T13:34:32Z</time>
      </trkpt>
      <trkpt lat="45.99076" lon="4.82592">
        <ele>235</ele>
        <time>2016-12-10T13:34:35Z</time>
      </trkpt>
      <trkpt lat="45.99075" lon="4.82595">
        <ele>235</ele>
        <time>2016-12-10T13:34:36Z</time>
      </trkpt>
      <trkpt lat="45.99069" lon="4.82605">
        <ele>236</ele>
        <time>2016-12-10T13:34:39Z</time>
      </trkpt>
      <trkpt lat="45.99067" lon="4.82609">
        <ele>236</ele>
        <time>2016-12-10T13:34:40Z</time>
      </trkpt>
      <trkpt lat="45.99063" lon="4.82616">
        <ele>236</ele>
        <time>2016-12-10T13:34:42Z</time>
      </trkpt>
      <trkpt lat="45.99061" lon="4.8262">
        <ele>236</ele>
        <time>2016-12-10T13:34:43Z</time>
      </trkpt>
      <trkpt lat="45.99057" lon="4.82629">
        <ele>236</ele>
        <time>2016-12-10T13:34:45Z</time>
      </trkpt>
      <trkpt lat="45.99055" lon="4.82633">
        <ele>236</ele>
        <time>2016-12-10T13:34:46Z</time>
      </trkpt>
      <trkpt lat="45.99051" lon="4.82642">
        <ele>236</ele>
        <time>2016-12-10T13:34:48Z</time>
      </trkpt>
      <trkpt lat="45.9905" lon="4.82646">
        <ele>236</ele>
        <time>2016-12-10T13:34:49Z</time>
      </trkpt>
      <trkpt lat="45.99046" lon="4.82654">
        <ele>236</ele>
        <time>2016-12-10T13:34:51Z</time>
      </trkpt>
      <trkpt lat="45.99044" lon="4.82658">
        <ele>236</ele>
        <time>2016-12-10T13:34:52Z</time>
      </trkpt>
      <trkpt lat="45.9904" lon="4.82666">
        <ele>236</ele>
        <time>2016-12-10T13:34:54Z</time>
      </trkpt>
      <trkpt lat="45.99038" lon="4.8267">
        <ele>238</ele>
        <time>2016-12-10T13:34:55Z</time>
      </trkpt>
      <trkpt lat="45.99035" lon="4.82679">
        <ele>238</ele>
        <time>2016-12-10T13:34:57Z</time>
      </trkpt>
      <trkpt lat="45.99033" lon="4.82683">
        <ele>238</ele>
        <time>2016-12-10T13:34:58Z</time>
      </trkpt>
      <trkpt lat="45.9903" lon="4.82691">
        <ele>238</ele>
        <time>2016-12-10T13:35:00Z</time>
      </trkpt>
      <trkpt lat="45.99028" lon="4.82695">
        <ele>238</ele>
        <time>2016-12-10T13:35:01Z</time>
      </trkpt>
      <trkpt lat="45.99025" lon="4.82707">
        <ele>238</ele>
        <time>2016-12-10T13:35:04Z</time>
      </trkpt>
      <trkpt lat="45.99024" lon="4.82711">
        <ele>238</ele>
        <time>2016-12-10T13:35:05Z</time>
      </trkpt>
      <trkpt lat="45.9902" lon="4.82718">
        <ele>239</ele>
        <time>2016-12-10T13:35:07Z</time>
      </trkpt>
      <trkpt lat="45.99018" lon="4.82722">
        <ele>239</ele>
        <time>2016-12-10T13:35:08Z</time>
      </trkpt>
      <trkpt lat="45.99014" lon="4.82728">
        <ele>239</ele>
        <time>2016-12-10T13:35:10Z</time>
      </trkpt>
      <trkpt lat="45.99012" lon="4.82732">
        <ele>239</ele>
        <time>2016-12-10T13:35:11Z</time>
      </trkpt>
      <trkpt lat="45.99008" lon="4.82743">
        <ele>240</ele>
        <time>2016-12-10T13:35:14Z</time>
      </trkpt>
      <trkpt lat="45.99007" lon="4.82747">
        <ele>240</ele>
        <time>2016-12-10T13:35:15Z</time>
      </trkpt>
      <trkpt lat="45.99002" lon="4.82757">
        <ele>241</ele>
        <time>2016-12-10T13:35:18Z</time>
      </trkpt>
      <trkpt lat="45.99001" lon="4.8276">
        <ele>241</ele>
        <time>2016-12-10T13:35:19Z</time>
      </trkpt>
      <trkpt lat="45.98997" lon="4.8277">
        <ele>245</ele>
        <time>2016-12-10T13:35:22Z</time>
      </trkpt>
      <trkpt lat="45.98996" lon="4.82773">
        <ele>245</ele>
        <time>2016-12-10T13:35:23Z</time>
      </trkpt>
      <trkpt lat="45.98991" lon="4.82783">
        <ele>247</ele>
        <time>2016-12-10T13:35:26Z</time>
      </trkpt>
      <trkpt lat="45.9899" lon="4.82786">
        <ele>247</ele>
        <time>2016-12-10T13:35:27Z</time>
      </trkpt>
      <trkpt lat="45.98985" lon="4.82796">
        <ele>248</ele>
        <time>2016-12-10T13:35:30Z</time>
      </trkpt>
      <trkpt lat="45.98984" lon="4.828">
        <ele>248</ele>
        <time>2016-12-10T13:35:31Z</time>
      </trkpt>
      <trkpt lat="45.98981" lon="4.8281">
        <ele>248</ele>
        <time>2016-12-10T13:35:34Z</time>
      </trkpt>
      <trkpt lat="45.9898" lon="4.82813">
        <ele>248</ele>
        <time>2016-12-10T13:35:35Z</time>
      </trkpt>
      <trkpt lat="45.98976" lon="4.82821">
        <ele>248</ele>
        <time>2016-12-10T13:35:38Z</time>
      </trkpt>
      <trkpt lat="45.98975" lon="4.82824">
        <ele>249</ele>
        <time>2016-12-10T13:35:39Z</time>
      </trkpt>
      <trkpt lat="45.98971" lon="4.82836">
        <ele>251</ele>
        <time>2016-12-10T13:35:43Z</time>
      </trkpt>
      <trkpt lat="45.9897" lon="4.82839">
        <ele>251</ele>
        <time>2016-12-10T13:35:44Z</time>
      </trkpt>
      <trkpt lat="45.98965" lon="4.82849">
        <ele>252</ele>
        <time>2016-12-10T13:35:48Z</time>
      </trkpt>
      <trkpt lat="45.98963" lon="4.82852">
        <ele>252</ele>
        <time>2016-12-10T13:35:49Z</time>
      </trkpt>
      <trkpt lat="45.98959" lon="4.82862">
        <ele>252</ele>
        <time>2016-12-10T13:35:53Z</time>
      </trkpt>
      <trkpt lat="45.98958" lon="4.82865">
        <ele>252</ele>
        <time>2016-12-10T13:35:54Z</time>
      </trkpt>
      <trkpt lat="45.98954" lon="4.82874">
        <ele>253</ele>
        <time>2016-12-10T13:35:57Z</time>
      </trkpt>
      <trkpt lat="45.98952" lon="4.82877">
        <ele>253</ele>
        <time>2016-12-10T13:35:58Z</time>
      </trkpt>
      <trkpt lat="45.98948" lon="4.82885">
        <ele>253</ele>
        <time>2016-12-10T13:36:01Z</time>
      </trkpt>
      <trkpt lat="45.98947" lon="4.82888">
        <ele>253</ele>
        <time>2016-12-10T13:36:02Z</time>
      </trkpt>
      <trkpt lat="45.98942" lon="4.82898">
        <ele>253</ele>
        <time>2016-12-10T13:36:06Z</time>
      </trkpt>
      <trkpt lat="45.9894" lon="4.82901">
        <ele>253</ele>
        <time>2016-12-10T13:36:07Z</time>
      </trkpt>
      <trkpt lat="45.98937" lon="4.8291">
        <ele>254</ele>
        <time>2016-12-10T13:36:10Z</time>
      </trkpt>
      <trkpt lat="45.98937" lon="4.82913">
        <ele>254</ele>
        <time>2016-12-10T13:36:11Z</time>
      </trkpt>
      <trkpt lat="45.98933" lon="4.82922">
        <ele>255</ele>
        <time>2016-12-10T13:36:14Z</time>
      </trkpt>
      <trkpt lat="45.98932" lon="4.82924">
        <ele>255</ele>
        <time>2016-12-10T13:36:15Z</time>
      </trkpt>
      <trkpt lat="45.98927" lon="4.82935">
        <ele>255</ele>
        <time>2016-12-10T13:36:19Z</time>
      </trkpt>
      <trkpt lat="45.98926" lon="4.82938">
        <ele>255</ele>
        <time>2016-12-10T13:36:20Z</time>
      </trkpt>
      <trkpt lat="45.98922" lon="4.82948">
        <ele>255</ele>
        <time>2016-12-10T13:36:24Z</time>
      </trkpt>
      <trkpt lat="45.98921" lon="4.8295">
        <ele>255</ele>
        <time>2016-12-10T13:36:25Z</time>
      </trkpt>
      <trkpt lat="45.98915" lon="4.8296">
        <ele>258</ele>
        <time>2016-12-10T13:36:29Z</time>
      </trkpt>
      <trkpt lat="45.98914" lon="4.82962">
        <ele>258</ele>
        <time>2016-12-10T13:36:30Z</time>
      </trkpt>
      <trkpt lat="45.98908" lon="4.82971">
        <ele>259</ele>
        <time>2016-12-10T13:36:34Z</time>
      </trkpt>
      <trkpt lat="45.98906" lon="4.82973">
        <ele>259</ele>
        <time>2016-12-10T13:36:35Z</time>
      </trkpt>
      <trkpt lat="45.98898" lon="4.82978">
        <ele>259</ele>
        <time>2016-12-10T13:36:39Z</time>
      </trkpt>
      <trkpt lat="45.98897" lon="4.82979">
        <ele>259</ele>
        <time>2016-12-10T13:36:40Z</time>
      </trkpt>
      <trkpt lat="45.98889" lon="4.82985">
        <ele>259</ele>
        <time>2016-12-10T13:36:44Z</time>
      </trkpt>
      <trkpt lat="45.98887" lon="4.82986">
        <ele>259</ele>
        <time>2016-12-10T13:36:45Z</time>
      </trkpt>
      <trkpt lat="45.98881" lon="4.8299">
        <ele>260</ele>
        <time>2016-12-10T13:36:48Z</time>
      </trkpt>
      <trkpt lat="45.98879" lon="4.82992">
        <ele>260</ele>
        <time>2016-12-10T13:36:49Z</time>
      </trkpt>
      <trkpt lat="45.98871" lon="4.82997">
        <ele>260</ele>
        <time>2016-12-10T13:36:53Z</time>
      </trkpt>
      <trkpt lat="45.98869" lon="4.82999">
        <ele>260</ele>
        <time>2016-12-10T13:36:54Z</time>
      </trkpt>
      <trkpt lat="45.98861" lon="4.83005">
        <ele>260</ele>
        <time>2016-12-10T13:36:58Z</time>
      </trkpt>
      <trkpt lat="45.9886" lon="4.83006">
        <ele>261</ele>
        <time>2016-12-10T13:36:59Z</time>
      </trkpt>
      <trkpt lat="45.98852" lon="4.8301">
        <ele>261</ele>
        <time>2016-12-10T13:37:02Z</time>
      </trkpt>
      <trkpt lat="45.9885" lon="4.83012">
        <ele>261</ele>
        <time>2016-12-10T13:37:03Z</time>
      </trkpt>
      <trkpt lat="45.98844" lon="4.83016">
        <ele>261</ele>
        <time>2016-12-10T13:37:06Z</time>
      </trkpt>
      <trkpt lat="45.98842" lon="4.83017">
        <ele>261</ele>
        <time>2016-12-10T13:37:07Z</time>
      </trkpt>
      <trkpt lat="45.98836" lon="4.83022">
        <ele>261</ele>
        <time>2016-12-10T13:37:10Z</time>
      </trkpt>
      <trkpt lat="45.98834" lon="4.83023">
        <ele>261</ele>
        <time>2016-12-10T13:37:11Z</time>
      </trkpt>
      <trkpt lat="45.98826" lon="4.83029">
        <ele>264</ele>
        <time>2016-12-10T13:37:14Z</time>
      </trkpt>
      <trkpt lat="45.98824" lon="4.83031">
        <ele>264</ele>
        <time>2016-12-10T13:37:15Z</time>
      </trkpt>
      <trkpt lat="45.98817" lon="4.83037">
        <ele>264</ele>
        <time>2016-12-10T13:37:18Z</time>
      </trkpt>
      <trkpt lat="45.98815" lon="4.83039">
        <ele>264</ele>
        <time>2016-12-10T13:37:19Z</time>
      </trkpt>
      <trkpt lat="45.98807" lon="4.83045">
        <ele>264</ele>
        <time>2016-12-10T13:37:23Z</time>
      </trkpt>
      <trkpt lat="45.98805" lon="4.83046">
        <ele>264</ele>
        <time>2016-12-10T13:37:24Z</time>
      </trkpt>
      <trkpt lat="45.98799" lon="4.83051">
        <ele>264</ele>
        <time>2016-12-10T13:37:27Z</time>
      </trkpt>
      <trkpt lat="45.98797" lon="4.83053">
        <ele>264</ele>
        <time>2016-12-10T13:37:28Z</time>
      </trkpt>
      <trkpt lat="45.98791" lon="4.83059">
        <ele>265</ele>
        <time>2016-12-10T13:37:31Z</time>
      </trkpt>
      <trkpt lat="45.98788" lon="4.83062">
        <ele>265</ele>
        <time>2016-12-10T13:37:32Z</time>
      </trkpt>
      <trkpt lat="45.98781" lon="4.83068">
        <ele>265</ele>
        <time>2016-12-10T13:37:35Z</time>
      </trkpt>
      <trkpt lat="45.98779" lon="4.8307">
        <ele>265</ele>
        <time>2016-12-10T13:37:36Z</time>
      </trkpt>
      <trkpt lat="45.98771" lon="4.83076">
        <ele>266</ele>
        <time>2016-12-10T13:37:39Z</time>
      </trkpt>
      <trkpt lat="45.98768" lon="4.83078">
        <ele>266</ele>
        <time>2016-12-10T13:37:40Z</time>
      </trkpt>
      <trkpt lat="45.98761" lon="4.83084">
        <ele>266</ele>
        <time>2016-12-10T13:37:43Z</time>
      </trkpt>
      <trkpt lat="45.98758" lon="4.83086">
        <ele>266</ele>
        <time>2016-12-10T13:37:44Z</time>
      </trkpt>
      <trkpt lat="45.98753" lon="4.83092">
        <ele>266</ele>
        <time>2016-12-10T13:37:46Z</time>
      </trkpt>
      <trkpt lat="45.98751" lon="4.83094">
        <ele>266</ele>
        <time>2016-12-10T13:37:47Z</time>
      </trkpt>
      <trkpt lat="45.98744" lon="4.83098">
        <ele>267</ele>
        <time>2016-12-10T13:37:49Z</time>
      </trkpt>
      <trkpt lat="45.98741" lon="4.831">
        <ele>267</ele>
        <time>2016-12-10T13:37:50Z</time>
      </trkpt>
      <trkpt lat="45.98736" lon="4.83105">
        <ele>267</ele>
        <time>2016-12-10T13:37:52Z</time>
      </trkpt>
      <trkpt lat="45.98734" lon="4.83107">
        <ele>267</ele>
        <time>2016-12-10T13:37:53Z</time>
      </trkpt>
      <trkpt lat="45.98728" lon="4.83112">
        <ele>267</ele>
        <time>2016-12-10T13:37:55Z</time>
      </trkpt>
      <trkpt lat="45.98725" lon="4.83114">
        <ele>267</ele>
        <time>2016-12-10T13:37:56Z</time>
      </trkpt>
      <trkpt lat="45.98719" lon="4.83119">
        <ele>267</ele>
        <time>2016-12-10T13:37:58Z</time>
      </trkpt>
      <trkpt lat="45.98716" lon="4.83122">
        <ele>266</ele>
        <time>2016-12-10T13:37:59Z</time>
      </trkpt>
      <trkpt lat="45.9871" lon="4.83127">
        <ele>266</ele>
        <time>2016-12-10T13:38:01Z</time>
      </trkpt>
      <trkpt lat="45.98707" lon="4.8313">
        <ele>266</ele>
        <time>2016-12-10T13:38:02Z</time>
      </trkpt>
      <trkpt lat="45.98701" lon="4.83134">
        <ele>266</ele>
        <time>2016-12-10T13:38:04Z</time>
      </trkpt>
      <trkpt lat="45.98698" lon="4.83137">
        <ele>266</ele>
        <time>2016-12-10T13:38:05Z</time>
      </trkpt>
      <trkpt lat="45.98692" lon="4.83141">
        <ele>266</ele>
        <time>2016-12-10T13:38:07Z</time>
      </trkpt>
      <trkpt lat="45.98689" lon="4.83143">
        <ele>266</ele>
        <time>2016-12-10T13:38:08Z</time>
      </trkpt>
      <trkpt lat="45.98683" lon="4.83147">
        <ele>266</ele>
        <time>2016-12-10T13:38:10Z</time>
      </trkpt>
      <trkpt lat="45.9868" lon="4.8315">
        <ele>266</ele>
        <time>2016-12-10T13:38:11Z</time>
      </trkpt>
      <trkpt lat="45.98674" lon="4.83154">
        <ele>266</ele>
        <time>2016-12-10T13:38:13Z</time>
      </trkpt>
      <trkpt lat="45.98671" lon="4.83157">
        <ele>266</ele>
        <time>2016-12-10T13:38:14Z</time>
      </trkpt>
      <trkpt lat="45.98665" lon="4.83162">
        <ele>266</ele>
        <time>2016-12-10T13:38:16Z</time>
      </trkpt>
      <trkpt lat="45.98662" lon="4.83164">
        <ele>266</ele>
        <time>2016-12-10T13:38:17Z</time>
      </trkpt>
      <trkpt lat="45.98655" lon="4.83169">
        <ele>266</ele>
        <time>2016-12-10T13:38:19Z</time>
      </trkpt>
      <trkpt lat="45.98652" lon="4.83172">
        <ele>267</ele>
        <time>2016-12-10T13:38:20Z</time>
      </trkpt>
      <trkpt lat="45.98646" lon="4.83177">
        <ele>267</ele>
        <time>2016-12-10T13:38:22Z</time>
      </trkpt>
      <trkpt lat="45.98643" lon="4.8318">
        <ele>267</ele>
        <time>2016-12-10T13:38:23Z</time>
      </trkpt>
      <trkpt lat="45.98637" lon="4.83185">
        <ele>267</ele>
        <time>2016-12-10T13:38:25Z</time>
      </trkpt>
      <trkpt lat="45.98634" lon="4.83188">
        <ele>267</ele>
        <time>2016-12-10T13:38:26Z</time>
      </trkpt>
      <trkpt lat="45.98628" lon="4.83195">
        <ele>267</ele>
        <time>2016-12-10T13:38:28Z</time>
      </trkpt>
      <trkpt lat="45.98625" lon="4.83198">
        <ele>267</ele>
        <time>2016-12-10T13:38:29Z</time>
      </trkpt>
      <trkpt lat="45.98619" lon="4.83206">
        <ele>267</ele>
        <time>2016-12-10T13:38:31Z</time>
      </trkpt>
      <trkpt lat="45.98616" lon="4.83209">
        <ele>267</ele>
        <time>2016-12-10T13:38:32Z</time>
      </trkpt>
      <trkpt lat="45.98611" lon="4.83217">
        <ele>267</ele>
        <time>2016-12-10T13:38:34Z</time>
      </trkpt>
      <trkpt lat="45.98608" lon="4.8322">
        <ele>267</ele>
        <time>2016-12-10T13:38:35Z</time>
      </trkpt>
      <trkpt lat="45.98603" lon="4.83227">
        <ele>268</ele>
        <time>2016-12-10T13:38:37Z</time>
      </trkpt>
      <trkpt lat="45.986" lon="4.83231">
        <ele>268</ele>
        <time>2016-12-10T13:38:38Z</time>
      </trkpt>
      <trkpt lat="45.98595" lon="4.83238">
        <ele>268</ele>
        <time>2016-12-10T13:38:40Z</time>
      </trkpt>
      <trkpt lat="45.98592" lon="4.83242">
        <ele>268</ele>
        <time>2016-12-10T13:38:41Z</time>
      </trkpt>
      <trkpt lat="45.98586" lon="4.83249">
        <ele>268</ele>
        <time>2016-12-10T13:38:43Z</time>
      </trkpt>
      <trkpt lat="45.98584" lon="4.83253">
        <ele>268</ele>
        <time>2016-12-10T13:38:44Z</time>
      </trkpt>
      <trkpt lat="45.98578" lon="4.8326">
        <ele>268</ele>
        <time>2016-12-10T13:38:46Z</time>
      </trkpt>
      <trkpt lat="45.98575" lon="4.83264">
        <ele>269</ele>
        <time>2016-12-10T13:38:47Z</time>
      </trkpt>
      <trkpt lat="45.9857" lon="4.83272">
        <ele>269</ele>
        <time>2016-12-10T13:38:49Z</time>
      </trkpt>
      <trkpt lat="45.98567" lon="4.83276">
        <ele>269</ele>
        <time>2016-12-10T13:38:50Z</time>
      </trkpt>
      <trkpt lat="45.98561" lon="4.83284">
        <ele>269</ele>
        <time>2016-12-10T13:38:52Z</time>
      </trkpt>
      <trkpt lat="45.98558" lon="4.83288">
        <ele>269</ele>
        <time>2016-12-10T13:38:53Z</time>
      </trkpt>
      <trkpt lat="45.98553" lon="4.83296">
        <ele>269</ele>
        <time>2016-12-10T13:38:55Z</time>
      </trkpt>
      <trkpt lat="45.9855" lon="4.833">
        <ele>269</ele>
        <time>2016-12-10T13:38:56Z</time>
      </trkpt>
      <trkpt lat="45.98544" lon="4.83308">
        <ele>269</ele>
        <time>2016-12-10T13:38:58Z</time>
      </trkpt>
      <trkpt lat="45.98542" lon="4.83312">
        <ele>269</ele>
        <time>2016-12-10T13:38:59Z</time>
      </trkpt>
      <trkpt lat="45.98537" lon="4.83319">
        <ele>269</ele>
        <time>2016-12-10T13:39:01Z</time>
      </trkpt>
      <trkpt lat="45.98534" lon="4.83322">
        <ele>269</ele>
        <time>2016-12-10T13:39:02Z</time>
      </trkpt>
      <trkpt lat="45.98529" lon="4.83329">
        <ele>269</ele>
        <time>2016-12-10T13:39:04Z</time>
      </trkpt>
      <trkpt lat="45.98526" lon="4.83333">
        <ele>270</ele>
        <time>2016-12-10T13:39:05Z</time>
      </trkpt>
      <trkpt lat="45.9852" lon="4.83341">
        <ele>270</ele>
        <time>2016-12-10T13:39:07Z</time>
      </trkpt>
      <trkpt lat="45.98517" lon="4.83344">
        <ele>270</ele>
        <time>2016-12-10T13:39:08Z</time>
      </trkpt>
      <trkpt lat="45.98511" lon="4.83353">
        <ele>270</ele>
        <time>2016-12-10T13:39:10Z</time>
      </trkpt>
      <trkpt lat="45.98508" lon="4.83357">
        <ele>269</ele>
        <time>2016-12-10T13:39:11Z</time>
      </trkpt>
      <trkpt lat="45.98504" lon="4.83362">
        <ele>269</ele>
        <time>2016-12-10T13:39:12Z</time>
      </trkpt>
      <trkpt lat="45.98501" lon="4.83366">
        <ele>269</ele>
        <time>2016-12-10T13:39:13Z</time>
      </trkpt>
      <trkpt lat="45.98497" lon="4.83371">
        <ele>270</ele>
        <time>2016-12-10T13:39:14Z</time>
      </trkpt>
      <trkpt lat="45.98494" lon="4.83376">
        <ele>269</ele>
        <time>2016-12-10T13:39:15Z</time>
      </trkpt>
      <trkpt lat="45.98491" lon="4.8338">
        <ele>269</ele>
        <time>2016-12-10T13:39:16Z</time>
      </trkpt>
      <trkpt lat="45.98487" lon="4.83384">
        <ele>269</ele>
        <time>2016-12-10T13:39:17Z</time>
      </trkpt>
      <trkpt lat="45.98484" lon="4.83389">
        <ele>269</ele>
        <time>2016-12-10T13:39:18Z</time>
      </trkpt>
      <trkpt lat="45.9848" lon="4.83394">
        <ele>269</ele>
        <time>2016-12-10T13:39:19Z</time>
      </trkpt>
      <trkpt lat="45.98474" lon="4.83403">
        <ele>269</ele>
        <time>2016-12-10T13:39:21Z</time>
      </trkpt>
      <trkpt lat="45.98471" lon="4.83407">
        <ele>269</ele>
        <time>2016-12-10T13:39:22Z</time>
      </trkpt>
      <trkpt lat="45.98465" lon="4.83416">
        <ele>269</ele>
        <time>2016-12-10T13:39:24Z</time>
      </trkpt>
      <trkpt lat="45.98462" lon="4.83421">
        <ele>269</ele>
        <time>2016-12-10T13:39:25Z</time>
      </trkpt>
      <trkpt lat="45.98456" lon="4.8343">
        <ele>268</ele>
        <time>2016-12-10T13:39:27Z</time>
      </trkpt>
      <trkpt lat="45.98452" lon="4.83434">
        <ele>268</ele>
        <time>2016-12-10T13:39:28Z</time>
      </trkpt>
      <trkpt lat="45.98449" lon="4.83438">
        <ele>268</ele>
        <time>2016-12-10T13:39:29Z</time>
      </trkpt>
      <trkpt lat="45.98446" lon="4.83443">
        <ele>268</ele>
        <time>2016-12-10T13:39:30Z</time>
      </trkpt>
      <trkpt lat="45.98442" lon="4.83447">
        <ele>268</ele>
        <time>2016-12-10T13:39:31Z</time>
      </trkpt>
      <trkpt lat="45.98439" lon="4.83452">
        <ele>268</ele>
        <time>2016-12-10T13:39:32Z</time>
      </trkpt>
      <trkpt lat="45.98436" lon="4.83457">
        <ele>268</ele>
        <time>2016-12-10T13:39:33Z</time>
      </trkpt>
      <trkpt lat="45.98432" lon="4.83462">
        <ele>268</ele>
        <time>2016-12-10T13:39:34Z</time>
      </trkpt>
      <trkpt lat="45.98429" lon="4.83466">
        <ele>268</ele>
        <time>2016-12-10T13:39:35Z</time>
      </trkpt>
      <trkpt lat="45.98425" lon="4.8347">
        <ele>268</ele>
        <time>2016-12-10T13:39:36Z</time>
      </trkpt>
      <trkpt lat="45.98422" lon="4.83474">
        <ele>268</ele>
        <time>2016-12-10T13:39:37Z</time>
      </trkpt>
      <trkpt lat="45.98418" lon="4.83479">
        <ele>268</ele>
        <time>2016-12-10T13:39:38Z</time>
      </trkpt>
      <trkpt lat="45.98414" lon="4.83483">
        <ele>269</ele>
        <time>2016-12-10T13:39:39Z</time>
      </trkpt>
      <trkpt lat="45.98411" lon="4.83488">
        <ele>269</ele>
        <time>2016-12-10T13:39:40Z</time>
      </trkpt>
      <trkpt lat="45.98407" lon="4.83493">
        <ele>268</ele>
        <time>2016-12-10T13:39:41Z</time>
      </trkpt>
      <trkpt lat="45.98404" lon="4.83497">
        <ele>269</ele>
        <time>2016-12-10T13:39:42Z</time>
      </trkpt>
      <trkpt lat="45.98401" lon="4.83502">
        <ele>268</ele>
        <time>2016-12-10T13:39:43Z</time>
      </trkpt>
      <trkpt lat="45.98397" lon="4.83506">
        <ele>269</ele>
        <time>2016-12-10T13:39:44Z</time>
      </trkpt>
      <trkpt lat="45.98391" lon="4.83515">
        <ele>269</ele>
        <time>2016-12-10T13:39:46Z</time>
      </trkpt>
      <trkpt lat="45.98387" lon="4.83519">
        <ele>269</ele>
        <time>2016-12-10T13:39:47Z</time>
      </trkpt>
      <trkpt lat="45.98381" lon="4.83528">
        <ele>269</ele>
        <time>2016-12-10T13:39:49Z</time>
      </trkpt>
      <trkpt lat="45.98378" lon="4.83533">
        <ele>269</ele>
        <time>2016-12-10T13:39:50Z</time>
      </trkpt>
      <trkpt lat="45.98374" lon="4.83537">
        <ele>269</ele>
        <time>2016-12-10T13:39:51Z</time>
      </trkpt>
      <trkpt lat="45.98371" lon="4.83541">
        <ele>269</ele>
        <time>2016-12-10T13:39:52Z</time>
      </trkpt>
      <trkpt lat="45.98365" lon="4.8355">
        <ele>269</ele>
        <time>2016-12-10T13:39:54Z</time>
      </trkpt>
      <trkpt lat="45.98362" lon="4.83554">
        <ele>269</ele>
        <time>2016-12-10T13:39:55Z</time>
      </trkpt>
      <trkpt lat="45.98355" lon="4.83563">
        <ele>269</ele>
        <time>2016-12-10T13:39:57Z</time>
      </trkpt>
      <trkpt lat="45.98352" lon="4.83567">
        <ele>269</ele>
        <time>2016-12-10T13:39:58Z</time>
      </trkpt>
      <trkpt lat="45.98348" lon="4.83572">
        <ele>269</ele>
        <time>2016-12-10T13:39:59Z</time>
      </trkpt>
      <trkpt lat="45.98345" lon="4.83576">
        <ele>270</ele>
        <time>2016-12-10T13:40:00Z</time>
      </trkpt>
      <trkpt lat="45.98341" lon="4.83581">
        <ele>270</ele>
        <time>2016-12-10T13:40:01Z</time>
      </trkpt>
      <trkpt lat="45.98338" lon="4.83585">
        <ele>270</ele>
        <time>2016-12-10T13:40:02Z</time>
      </trkpt>
      <trkpt lat="45.98332" lon="4.83594">
        <ele>270</ele>
        <time>2016-12-10T13:40:04Z</time>
      </trkpt>
      <trkpt lat="45.98329" lon="4.83598">
        <ele>271</ele>
        <time>2016-12-10T13:40:05Z</time>
      </trkpt>
      <trkpt lat="45.98324" lon="4.83607">
        <ele>271</ele>
        <time>2016-12-10T13:40:07Z</time>
      </trkpt>
      <trkpt lat="45.98321" lon="4.83612">
        <ele>271</ele>
        <time>2016-12-10T13:40:08Z</time>
      </trkpt>
      <trkpt lat="45.98315" lon="4.83621">
        <ele>271</ele>
        <time>2016-12-10T13:40:10Z</time>
      </trkpt>
      <trkpt lat="45.98313" lon="4.83626">
        <ele>271</ele>
        <time>2016-12-10T13:40:11Z</time>
      </trkpt>
      <trkpt lat="45.9831" lon="4.83632">
        <ele>271</ele>
        <time>2016-12-10T13:40:12Z</time>
      </trkpt>
      <trkpt lat="45.98307" lon="4.83637">
        <ele>271</ele>
        <time>2016-12-10T13:40:13Z</time>
      </trkpt>
      <trkpt lat="45.98305" lon="4.83642">
        <ele>271</ele>
        <time>2016-12-10T13:40:14Z</time>
      </trkpt>
      <trkpt lat="45.98302" lon="4.83648">
        <ele>271</ele>
        <time>2016-12-10T13:40:15Z</time>
      </trkpt>
      <trkpt lat="45.98299" lon="4.83654">
        <ele>271</ele>
        <time>2016-12-10T13:40:16Z</time>
      </trkpt>
      <trkpt lat="45.98297" lon="4.83659">
        <ele>271</ele>
        <time>2016-12-10T13:40:17Z</time>
      </trkpt>
      <trkpt lat="45.98293" lon="4.83671">
        <ele>272</ele>
        <time>2016-12-10T13:40:19Z</time>
      </trkpt>
      <trkpt lat="45.98291" lon="4.83677">
        <ele>272</ele>
        <time>2016-12-10T13:40:20Z</time>
      </trkpt>
      <trkpt lat="45.98289" lon="4.83683">
        <ele>272</ele>
        <time>2016-12-10T13:40:21Z</time>
      </trkpt>
      <trkpt lat="45.98286" lon="4.83689">
        <ele>272</ele>
        <time>2016-12-10T13:40:22Z</time>
      </trkpt>
      <trkpt lat="45.98284" lon="4.83695">
        <ele>272</ele>
        <time>2016-12-10T13:40:23Z</time>
      </trkpt>
      <trkpt lat="45.98282" lon="4.83701">
        <ele>272</ele>
        <time>2016-12-10T13:40:24Z</time>
      </trkpt>
      <trkpt lat="45.9828" lon="4.83707">
        <ele>272</ele>
        <time>2016-12-10T13:40:25Z</time>
      </trkpt>
      <trkpt lat="45.98278" lon="4.83713">
        <ele>272</ele>
        <time>2016-12-10T13:40:26Z</time>
      </trkpt>
      <trkpt lat="45.98274" lon="4.83724">
        <ele>272</ele>
        <time>2016-12-10T13:40:28Z</time>
      </trkpt>
      <trkpt lat="45.98272" lon="4.8373">
        <ele>272</ele>
        <time>2016-12-10T13:40:29Z</time>
      </trkpt>
      <trkpt lat="45.9827" lon="4.83736">
        <ele>272</ele>
        <time>2016-12-10T13:40:30Z</time>
      </trkpt>
      <trkpt lat="45.98268" lon="4.83742">
        <ele>272</ele>
        <time>2016-12-10T13:40:31Z</time>
      </trkpt>
      <trkpt lat="45.98265" lon="4.83748">
        <ele>272</ele>
        <time>2016-12-10T13:40:32Z</time>
      </trkpt>
      <trkpt lat="45.98263" lon="4.83753">
        <ele>272</ele>
        <time>2016-12-10T13:40:33Z</time>
      </trkpt>
      <trkpt lat="45.98261" lon="4.83759">
        <ele>272</ele>
        <time>2016-12-10T13:40:34Z</time>
      </trkpt>
      <trkpt lat="45.98259" lon="4.83765">
        <ele>272</ele>
        <time>2016-12-10T13:40:35Z</time>
      </trkpt>
      <trkpt lat="45.98257" lon="4.83771">
        <ele>272</ele>
        <time>2016-12-10T13:40:36Z</time>
      </trkpt>
      <trkpt lat="45.98254" lon="4.83776">
        <ele>272</ele>
        <time>2016-12-10T13:40:37Z</time>
      </trkpt>
      <trkpt lat="45.98252" lon="4.83783">
        <ele>272</ele>
        <time>2016-12-10T13:40:38Z</time>
      </trkpt>
      <trkpt lat="45.9825" lon="4.83789">
        <ele>272</ele>
        <time>2016-12-10T13:40:39Z</time>
      </trkpt>
      <trkpt lat="45.98248" lon="4.83796">
        <ele>272</ele>
        <time>2016-12-10T13:40:40Z</time>
      </trkpt>
      <trkpt lat="45.98246" lon="4.83802">
        <ele>272</ele>
        <time>2016-12-10T13:40:41Z</time>
      </trkpt>
      <trkpt lat="45.98244" lon="4.83808">
        <ele>272</ele>
        <time>2016-12-10T13:40:42Z</time>
      </trkpt>
      <trkpt lat="45.98242" lon="4.83814">
        <ele>272</ele>
        <time>2016-12-10T13:40:43Z</time>
      </trkpt>
      <trkpt lat="45.9824" lon="4.8382">
        <ele>272</ele>
        <time>2016-12-10T13:40:44Z</time>
      </trkpt>
      <trkpt lat="45.98238" lon="4.83826">
        <ele>272</ele>
        <time>2016-12-10T13:40:45Z</time>
      </trkpt>
      <trkpt lat="45.98236" lon="4.83832">
        <ele>272</ele>
        <time>2016-12-10T13:40:46Z</time>
      </trkpt>
      <trkpt lat="45.98234" lon="4.83838">
        <ele>272</ele>
        <time>2016-12-10T13:40:47Z</time>
      </trkpt>
      <trkpt lat="45.98231" lon="4.83844">
        <ele>272</ele>
        <time>2016-12-10T13:40:48Z</time>
      </trkpt>
      <trkpt lat="45.98229" lon="4.8385">
        <ele>272</ele>
        <time>2016-12-10T13:40:49Z</time>
      </trkpt>
      <trkpt lat="45.98226" lon="4.83856">
        <ele>272</ele>
        <time>2016-12-10T13:40:50Z</time>
      </trkpt>
      <trkpt lat="45.98224" lon="4.83862">
        <ele>272</ele>
        <time>2016-12-10T13:40:51Z</time>
      </trkpt>
      <trkpt lat="45.98222" lon="4.83869">
        <ele>272</ele>
        <time>2016-12-10T13:40:52Z</time>
      </trkpt>
      <trkpt lat="45.9822" lon="4.83875">
        <ele>272</ele>
        <time>2016-12-10T13:40:53Z</time>
      </trkpt>
      <trkpt lat="45.98218" lon="4.83882">
        <ele>272</ele>
        <time>2016-12-10T13:40:54Z</time>
      </trkpt>
      <trkpt lat="45.98216" lon="4.83889">
        <ele>273</ele>
        <time>2016-12-10T13:40:55Z</time>
      </trkpt>
      <trkpt lat="45.98214" lon="4.83896">
        <ele>273</ele>
        <time>2016-12-10T13:40:56Z</time>
      </trkpt>
      <trkpt lat="45.98212" lon="4.83902">
        <ele>273</ele>
        <time>2016-12-10T13:40:57Z</time>
      </trkpt>
      <trkpt lat="45.98209" lon="4.83909">
        <ele>273</ele>
        <time>2016-12-10T13:40:58Z</time>
      </trkpt>
      <trkpt lat="45.98207" lon="4.83916">
        <ele>273</ele>
        <time>2016-12-10T13:40:59Z</time>
      </trkpt>
      <trkpt lat="45.98205" lon="4.83922">
        <ele>273</ele>
        <time>2016-12-10T13:41:00Z</time>
      </trkpt>
      <trkpt lat="45.98202" lon="4.83929">
        <ele>273</ele>
        <time>2016-12-10T13:41:01Z</time>
      </trkpt>
      <trkpt lat="45.982" lon="4.83935">
        <ele>273</ele>
        <time>2016-12-10T13:41:02Z</time>
      </trkpt>
      <trkpt lat="45.98198" lon="4.83941">
        <ele>273</ele>
        <time>2016-12-10T13:41:03Z</time>
      </trkpt>
      <trkpt lat="45.98195" lon="4.83948">
        <ele>273</ele>
        <time>2016-12-10T13:41:04Z</time>
      </trkpt>
      <trkpt lat="45.98193" lon="4.83954">
        <ele>273</ele>
        <time>2016-12-10T13:41:05Z</time>
      </trkpt>
      <trkpt lat="45.98191" lon="4.83961">
        <ele>273</ele>
        <time>2016-12-10T13:41:06Z</time>
      </trkpt>
      <trkpt lat="45.98189" lon="4.83967">
        <ele>273</ele>
        <time>2016-12-10T13:41:07Z</time>
      </trkpt>
      <trkpt lat="45.98186" lon="4.83974">
        <ele>273</ele>
        <time>2016-12-10T13:41:08Z</time>
      </trkpt>
      <trkpt lat="45.98184" lon="4.8398">
        <ele>273</ele>
        <time>2016-12-10T13:41:09Z</time>
      </trkpt>
      <trkpt lat="45.98181" lon="4.83987">
        <ele>273</ele>
        <time>2016-12-10T13:41:10Z</time>
      </trkpt>
      <trkpt lat="45.98178" lon="4.83994">
        <ele>273</ele>
        <time>2016-12-10T13:41:11Z</time>
      </trkpt>
      <trkpt lat="45.98175" lon="4.84001">
        <ele>273</ele>
        <time>2016-12-10T13:41:12Z</time>
      </trkpt>
      <trkpt lat="45.98172" lon="4.84008">
        <ele>273</ele>
        <time>2016-12-10T13:41:13Z</time>
      </trkpt>
      <trkpt lat="45.98168" lon="4.84014">
        <ele>273</ele>
        <time>2016-12-10T13:41:14Z</time>
      </trkpt>
      <trkpt lat="45.98165" lon="4.84021">
        <ele>273</ele>
        <time>2016-12-10T13:41:15Z</time>
      </trkpt>
      <trkpt lat="45.98161" lon="4.84027">
        <ele>273</ele>
        <time>2016-12-10T13:41:16Z</time>
      </trkpt>
      <trkpt lat="45.98158" lon="4.84033">
        <ele>273</ele>
        <time>2016-12-10T13:41:17Z</time>
      </trkpt>
      <trkpt lat="45.98155" lon="4.84038">
        <ele>273</ele>
        <time>2016-12-10T13:41:18Z</time>
      </trkpt>
      <trkpt lat="45.98151" lon="4.84044">
        <ele>273</ele>
        <time>2016-12-10T13:41:19Z</time>
      </trkpt>
      <trkpt lat="45.98148" lon="4.84049">
        <ele>273</ele>
        <time>2016-12-10T13:41:20Z</time>
      </trkpt>
      <trkpt lat="45.98144" lon="4.84055">
        <ele>273</ele>
        <time>2016-12-10T13:41:21Z</time>
      </trkpt>
      <trkpt lat="45.98141" lon="4.8406">
        <ele>273</ele>
        <time>2016-12-10T13:41:22Z</time>
      </trkpt>
      <trkpt lat="45.98137" lon="4.84065">
        <ele>273</ele>
        <time>2016-12-10T13:41:23Z</time>
      </trkpt>
      <trkpt lat="45.98133" lon="4.8407">
        <ele>273</ele>
        <time>2016-12-10T13:41:24Z</time>
      </trkpt>
      <trkpt lat="45.98129" lon="4.84074">
        <ele>273</ele>
        <time>2016-12-10T13:41:25Z</time>
      </trkpt>
      <trkpt lat="45.98125" lon="4.84079">
        <ele>273</ele>
        <time>2016-12-10T13:41:26Z</time>
      </trkpt>
      <trkpt lat="45.98121" lon="4.84084">
        <ele>273</ele>
        <time>2016-12-10T13:41:27Z</time>
      </trkpt>
      <trkpt lat="45.98116" lon="4.84088">
        <ele>273</ele>
        <time>2016-12-10T13:41:28Z</time>
      </trkpt>
      <trkpt lat="45.98112" lon="4.84092">
        <ele>273</ele>
        <time>2016-12-10T13:41:29Z</time>
      </trkpt>
      <trkpt lat="45.98108" lon="4.84096">
        <ele>273</ele>
        <time>2016-12-10T13:41:30Z</time>
      </trkpt>
      <trkpt lat="45.98104" lon="4.841">
        <ele>273</ele>
        <time>2016-12-10T13:41:31Z</time>
      </trkpt>
      <trkpt lat="45.981" lon="4.84104">
        <ele>273</ele>
        <time>2016-12-10T13:41:32Z</time>
      </trkpt>
      <trkpt lat="45.98096" lon="4.84108">
        <ele>273</ele>
        <time>2016-12-10T13:41:33Z</time>
      </trkpt>
      <trkpt lat="45.98091" lon="4.84112">
        <ele>273</ele>
        <time>2016-12-10T13:41:34Z</time>
      </trkpt>
      <trkpt lat="45.98087" lon="4.84116">
        <ele>273</ele>
        <time>2016-12-10T13:41:35Z</time>
      </trkpt>
      <trkpt lat="45.98083" lon="4.84119">
        <ele>273</ele>
        <time>2016-12-10T13:41:36Z</time>
      </trkpt>
      <trkpt lat="45.98079" lon="4.84123">
        <ele>273</ele>
        <time>2016-12-10T13:41:37Z</time>
      </trkpt>
      <trkpt lat="45.98075" lon="4.84127">
        <ele>273</ele>
        <time>2016-12-10T13:41:38Z</time>
      </trkpt>
      <trkpt lat="45.98071" lon="4.8413">
        <ele>273</ele>
        <time>2016-12-10T13:41:39Z</time>
      </trkpt>
      <trkpt lat="45.98067" lon="4.84135">
        <ele>273</ele>
        <time>2016-12-10T13:41:40Z</time>
      </trkpt>
      <trkpt lat="45.98063" lon="4.84139">
        <ele>273</ele>
        <time>2016-12-10T13:41:41Z</time>
      </trkpt>
      <trkpt lat="45.98059" lon="4.84143">
        <ele>273</ele>
        <time>2016-12-10T13:41:42Z</time>
      </trkpt>
      <trkpt lat="45.98054" lon="4.84147">
        <ele>273</ele>
        <time>2016-12-10T13:41:43Z</time>
      </trkpt>
      <trkpt lat="45.9805" lon="4.84151">
        <ele>273</ele>
        <time>2016-12-10T13:41:44Z</time>
      </trkpt>
      <trkpt lat="45.98046" lon="4.84155">
        <ele>273</ele>
        <time>2016-12-10T13:41:45Z</time>
      </trkpt>
      <trkpt lat="45.98042" lon="4.84159">
        <ele>273</ele>
        <time>2016-12-10T13:41:46Z</time>
      </trkpt>
      <trkpt lat="45.98037" lon="4.84163">
        <ele>273</ele>
        <time>2016-12-10T13:41:47Z</time>
      </trkpt>
      <trkpt lat="45.98033" lon="4.84166">
        <ele>273</ele>
        <time>2016-12-10T13:41:48Z</time>
      </trkpt>
      <trkpt lat="45.98029" lon="4.8417">
        <ele>274</ele>
        <time>2016-12-10T13:41:49Z</time>
      </trkpt>
      <trkpt lat="45.98022" lon="4.84178">
        <ele>274</ele>
        <time>2016-12-10T13:41:51Z</time>
      </trkpt>
      <trkpt lat="45.98019" lon="4.84182">
        <ele>274</ele>
        <time>2016-12-10T13:41:52Z</time>
      </trkpt>
      <trkpt lat="45.98014" lon="4.84186">
        <ele>274</ele>
        <time>2016-12-10T13:41:53Z</time>
      </trkpt>
      <trkpt lat="45.9801" lon="4.84189">
        <ele>274</ele>
        <time>2016-12-10T13:41:54Z</time>
      </trkpt>
      <trkpt lat="45.98006" lon="4.84193">
        <ele>274</ele>
        <time>2016-12-10T13:41:55Z</time>
      </trkpt>
      <trkpt lat="45.98001" lon="4.84197">
        <ele>274</ele>
        <time>2016-12-10T13:41:56Z</time>
      </trkpt>
      <trkpt lat="45.97996" lon="4.84202">
        <ele>274</ele>
        <time>2016-12-10T13:41:57Z</time>
      </trkpt>
      <trkpt lat="45.97992" lon="4.84206">
        <ele>274</ele>
        <time>2016-12-10T13:41:58Z</time>
      </trkpt>
      <trkpt lat="45.97987" lon="4.84211">
        <ele>274</ele>
        <time>2016-12-10T13:41:59Z</time>
      </trkpt>
      <trkpt lat="45.97983" lon="4.84215">
        <ele>274</ele>
        <time>2016-12-10T13:42:00Z</time>
      </trkpt>
      <trkpt lat="45.97978" lon="4.84219">
        <ele>274</ele>
        <time>2016-12-10T13:42:01Z</time>
      </trkpt>
      <trkpt lat="45.97974" lon="4.84223">
        <ele>274</ele>
        <time>2016-12-10T13:42:02Z</time>
      </trkpt>
      <trkpt lat="45.9797" lon="4.84227">
        <ele>274</ele>
        <time>2016-12-10T13:42:03Z</time>
      </trkpt>
      <trkpt lat="45.97966" lon="4.8423">
        <ele>274</ele>
        <time>2016-12-10T13:42:04Z</time>
      </trkpt>
      <trkpt lat="45.97962" lon="4.84233">
        <ele>274</ele>
        <time>2016-12-10T13:42:05Z</time>
      </trkpt>
      <trkpt lat="45.97958" lon="4.84237">
        <ele>275</ele>
        <time>2016-12-10T13:42:06Z</time>
      </trkpt>
      <trkpt lat="45.9795" lon="4.84244">
        <ele>275</ele>
        <time>2016-12-10T13:42:08Z</time>
      </trkpt>
      <trkpt lat="45.97946" lon="4.84248">
        <ele>275</ele>
        <time>2016-12-10T13:42:09Z</time>
      </trkpt>
      <trkpt lat="45.97943" lon="4.84251">
        <ele>275</ele>
        <time>2016-12-10T13:42:10Z</time>
      </trkpt>
      <trkpt lat="45.97939" lon="4.84255">
        <ele>275</ele>
        <time>2016-12-10T13:42:11Z</time>
      </trkpt>
      <trkpt lat="45.97932" lon="4.84263">
        <ele>275</ele>
        <time>2016-12-10T13:42:13Z</time>
      </trkpt>
      <trkpt lat="45.97929" lon="4.84269">
        <ele>275</ele>
        <time>2016-12-10T13:42:14Z</time>
      </trkpt>
      <trkpt lat="45.97927" lon="4.84275">
        <ele>275</ele>
        <time>2016-12-10T13:42:15Z</time>
      </trkpt>
      <trkpt lat="45.97926" lon="4.84281">
        <ele>275</ele>
        <time>2016-12-10T13:42:16Z</time>
      </trkpt>
      <trkpt lat="45.97925" lon="4.84288">
        <ele>275</ele>
        <time>2016-12-10T13:42:17Z</time>
      </trkpt>
      <trkpt lat="45.97926" lon="4.84295">
        <ele>275</ele>
        <time>2016-12-10T13:42:18Z</time>
      </trkpt>
      <trkpt lat="45.97927" lon="4.84302">
        <ele>275</ele>
        <time>2016-12-10T13:42:19Z</time>
      </trkpt>
      <trkpt lat="45.97928" lon="4.84309">
        <ele>275</ele>
        <time>2016-12-10T13:42:20Z</time>
      </trkpt>
      <trkpt lat="45.97929" lon="4.84316">
        <ele>275</ele>
        <time>2016-12-10T13:42:21Z</time>
      </trkpt>
      <trkpt lat="45.97931" lon="4.84323">
        <ele>275</ele>
        <time>2016-12-10T13:42:22Z</time>
      </trkpt>
      <trkpt lat="45.97932" lon="4.8433">
        <ele>275</ele>
        <time>2016-12-10T13:42:23Z</time>
      </trkpt>
      <trkpt lat="45.97933" lon="4.84337">
        <ele>275</ele>
        <time>2016-12-10T13:42:24Z</time>
      </trkpt>
      <trkpt lat="45.97934" lon="4.84345">
        <ele>275</ele>
        <time>2016-12-10T13:42:25Z</time>
      </trkpt>
      <trkpt lat="45.97935" lon="4.84352">
        <ele>275</ele>
        <time>2016-12-10T13:42:26Z</time>
      </trkpt>
      <trkpt lat="45.97936" lon="4.84358">
        <ele>275</ele>
        <time>2016-12-10T13:42:27Z</time>
      </trkpt>
      <trkpt lat="45.97938" lon="4.84365">
        <ele>275</ele>
        <time>2016-12-10T13:42:28Z</time>
      </trkpt>
      <trkpt lat="45.97939" lon="4.84371">
        <ele>275</ele>
        <time>2016-12-10T13:42:29Z</time>
      </trkpt>
      <trkpt lat="45.9794" lon="4.84378">
        <ele>275</ele>
        <time>2016-12-10T13:42:30Z</time>
      </trkpt>
      <trkpt lat="45.97941" lon="4.84384">
        <ele>275</ele>
        <time>2016-12-10T13:42:31Z</time>
      </trkpt>
      <trkpt lat="45.97942" lon="4.84391">
        <ele>275</ele>
        <time>2016-12-10T13:42:32Z</time>
      </trkpt>
      <trkpt lat="45.97943" lon="4.84397">
        <ele>275</ele>
        <time>2016-12-10T13:42:33Z</time>
      </trkpt>
      <trkpt lat="45.97944" lon="4.84404">
        <ele>275</ele>
        <time>2016-12-10T13:42:34Z</time>
      </trkpt>
      <trkpt lat="45.97945" lon="4.84411">
        <ele>275</ele>
        <time>2016-12-10T13:42:35Z</time>
      </trkpt>
      <trkpt lat="45.97946" lon="4.84417">
        <ele>275</ele>
        <time>2016-12-10T13:42:36Z</time>
      </trkpt>
      <trkpt lat="45.97947" lon="4.84424">
        <ele>275</ele>
        <time>2016-12-10T13:42:37Z</time>
      </trkpt>
      <trkpt lat="45.97949" lon="4.84431">
        <ele>275</ele>
        <time>2016-12-10T13:42:38Z</time>
      </trkpt>
      <trkpt lat="45.9795" lon="4.84438">
        <ele>275</ele>
        <time>2016-12-10T13:42:39Z</time>
      </trkpt>
      <trkpt lat="45.97951" lon="4.84445">
        <ele>275</ele>
        <time>2016-12-10T13:42:40Z</time>
      </trkpt>
      <trkpt lat="45.97952" lon="4.84451">
        <ele>275</ele>
        <time>2016-12-10T13:42:41Z</time>
      </trkpt>
      <trkpt lat="45.97953" lon="4.84458">
        <ele>275</ele>
        <time>2016-12-10T13:42:42Z</time>
      </trkpt>
      <trkpt lat="45.97954" lon="4.84466">
        <ele>275</ele>
        <time>2016-12-10T13:42:43Z</time>
      </trkpt>
      <trkpt lat="45.97955" lon="4.84473">
        <ele>275</ele>
        <time>2016-12-10T13:42:44Z</time>
      </trkpt>
      <trkpt lat="45.97956" lon="4.8448">
        <ele>275</ele>
        <time>2016-12-10T13:42:45Z</time>
      </trkpt>
      <trkpt lat="45.97957" lon="4.84488">
        <ele>275</ele>
        <time>2016-12-10T13:42:46Z</time>
      </trkpt>
      <trkpt lat="45.97959" lon="4.84495">
        <ele>275</ele>
        <time>2016-12-10T13:42:47Z</time>
      </trkpt>
      <trkpt lat="45.9796" lon="4.84502">
        <ele>275</ele>
        <time>2016-12-10T13:42:48Z</time>
      </trkpt>
      <trkpt lat="45.97961" lon="4.84509">
        <ele>275</ele>
        <time>2016-12-10T13:42:49Z</time>
      </trkpt>
      <trkpt lat="45.97963" lon="4.84517">
        <ele>275</ele>
        <time>2016-12-10T13:42:50Z</time>
      </trkpt>
      <trkpt lat="45.97964" lon="4.84525">
        <ele>275</ele>
        <time>2016-12-10T13:42:51Z</time>
      </trkpt>
      <trkpt lat="45.97965" lon="4.84533">
        <ele>275</ele>
        <time>2016-12-10T13:42:52Z</time>
      </trkpt>
      <trkpt lat="45.97966" lon="4.84541">
        <ele>275</ele>
        <time>2016-12-10T13:42:53Z</time>
      </trkpt>
      <trkpt lat="45.97967" lon="4.84548">
        <ele>275</ele>
        <time>2016-12-10T13:42:54Z</time>
      </trkpt>
      <trkpt lat="45.97968" lon="4.84556">
        <ele>275</ele>
        <time>2016-12-10T13:42:55Z</time>
      </trkpt>
      <trkpt lat="45.97969" lon="4.84563">
        <ele>275</ele>
        <time>2016-12-10T13:42:56Z</time>
      </trkpt>
      <trkpt lat="45.97971" lon="4.8457">
        <ele>275</ele>
        <time>2016-12-10T13:42:57Z</time>
      </trkpt>
      <trkpt lat="45.97972" lon="4.84577">
        <ele>275</ele>
        <time>2016-12-10T13:42:58Z</time>
      </trkpt>
      <trkpt lat="45.97973" lon="4.84585">
        <ele>274</ele>
        <time>2016-12-10T13:42:59Z</time>
      </trkpt>
      <trkpt lat="45.97974" lon="4.84592">
        <ele>274</ele>
        <time>2016-12-10T13:43:00Z</time>
      </trkpt>
      <trkpt lat="45.97976" lon="4.84599">
        <ele>275</ele>
        <time>2016-12-10T13:43:01Z</time>
      </trkpt>
      <trkpt lat="45.97977" lon="4.84607">
        <ele>275</ele>
        <time>2016-12-10T13:43:02Z</time>
      </trkpt>
      <trkpt lat="45.97978" lon="4.84615">
        <ele>275</ele>
        <time>2016-12-10T13:43:03Z</time>
      </trkpt>
      <trkpt lat="45.9798" lon="4.84622">
        <ele>275</ele>
        <time>2016-12-10T13:43:04Z</time>
      </trkpt>
      <trkpt lat="45.97981" lon="4.8463">
        <ele>275</ele>
        <time>2016-12-10T13:43:05Z</time>
      </trkpt>
      <trkpt lat="45.97982" lon="4.84637">
        <ele>275</ele>
        <time>2016-12-10T13:43:06Z</time>
      </trkpt>
      <trkpt lat="45.97983" lon="4.84645">
        <ele>275</ele>
        <time>2016-12-10T13:43:07Z</time>
      </trkpt>
      <trkpt lat="45.97984" lon="4.84653">
        <ele>274</ele>
        <time>2016-12-10T13:43:08Z</time>
      </trkpt>
      <trkpt lat="45.97985" lon="4.8466">
        <ele>274</ele>
        <time>2016-12-10T13:43:09Z</time>
      </trkpt>
      <trkpt lat="45.97986" lon="4.84668">
        <ele>275</ele>
        <time>2016-12-10T13:43:10Z</time>
      </trkpt>
      <trkpt lat="45.97987" lon="4.84676">
        <ele>275</ele>
        <time>2016-12-10T13:43:11Z</time>
      </trkpt>
      <trkpt lat="45.97988" lon="4.84683">
        <ele>275</ele>
        <time>2016-12-10T13:43:12Z</time>
      </trkpt>
      <trkpt lat="45.97989" lon="4.84691">
        <ele>275</ele>
        <time>2016-12-10T13:43:13Z</time>
      </trkpt>
      <trkpt lat="45.9799" lon="4.84698">
        <ele>275</ele>
        <time>2016-12-10T13:43:14Z</time>
      </trkpt>
      <trkpt lat="45.9799" lon="4.84706">
        <ele>275</ele>
        <time>2016-12-10T13:43:15Z</time>
      </trkpt>
      <trkpt lat="45.97991" lon="4.84713">
        <ele>275</ele>
        <time>2016-12-10T13:43:16Z</time>
      </trkpt>
      <trkpt lat="45.97991" lon="4.84721">
        <ele>275</ele>
        <time>2016-12-10T13:43:17Z</time>
      </trkpt>
      <trkpt lat="45.97992" lon="4.84727">
        <ele>275</ele>
        <time>2016-12-10T13:43:18Z</time>
      </trkpt>
      <trkpt lat="45.97992" lon="4.84734">
        <ele>275</ele>
        <time>2016-12-10T13:43:19Z</time>
      </trkpt>
      <trkpt lat="45.97993" lon="4.8474">
        <ele>275</ele>
        <time>2016-12-10T13:43:20Z</time>
      </trkpt>
      <trkpt lat="45.97994" lon="4.84747">
        <ele>275</ele>
        <time>2016-12-10T13:43:21Z</time>
      </trkpt>
      <trkpt lat="45.97994" lon="4.84754">
        <ele>275</ele>
        <time>2016-12-10T13:43:22Z</time>
      </trkpt>
      <trkpt lat="45.97995" lon="4.8476">
        <ele>275</ele>
        <time>2016-12-10T13:43:23Z</time>
      </trkpt>
      <trkpt lat="45.97995" lon="4.84767">
        <ele>275</ele>
        <time>2016-12-10T13:43:24Z</time>
      </trkpt>
      <trkpt lat="45.97995" lon="4.84774">
        <ele>274</ele>
        <time>2016-12-10T13:43:25Z</time>
      </trkpt>
      <trkpt lat="45.97996" lon="4.84781">
        <ele>274</ele>
        <time>2016-12-10T13:43:26Z</time>
      </trkpt>
      <trkpt lat="45.97997" lon="4.84788">
        <ele>274</ele>
        <time>2016-12-10T13:43:27Z</time>
      </trkpt>
      <trkpt lat="45.97997" lon="4.84795">
        <ele>274</ele>
        <time>2016-12-10T13:43:28Z</time>
      </trkpt>
      <trkpt lat="45.97998" lon="4.84802">
        <ele>274</ele>
        <time>2016-12-10T13:43:29Z</time>
      </trkpt>
      <trkpt lat="45.97999" lon="4.84809">
        <ele>273</ele>
        <time>2016-12-10T13:43:30Z</time>
      </trkpt>
      <trkpt lat="45.97999" lon="4.84815">
        <ele>273</ele>
        <time>2016-12-10T13:43:31Z</time>
      </trkpt>
      <trkpt lat="45.98" lon="4.84822">
        <ele>273</ele>
        <time>2016-12-10T13:43:32Z</time>
      </trkpt>
      <trkpt lat="45.98001" lon="4.84829">
        <ele>272</ele>
        <time>2016-12-10T13:43:33Z</time>
      </trkpt>
      <trkpt lat="45.98001" lon="4.84836">
        <ele>272</ele>
        <time>2016-12-10T13:43:34Z</time>
      </trkpt>
      <trkpt lat="45.98002" lon="4.84843">
        <ele>272</ele>
        <time>2016-12-10T13:43:35Z</time>
      </trkpt>
      <trkpt lat="45.98003" lon="4.8485">
        <ele>272</ele>
        <time>2016-12-10T13:43:36Z</time>
      </trkpt>
      <trkpt lat="45.98003" lon="4.84857">
        <ele>272</ele>
        <time>2016-12-10T13:43:37Z</time>
      </trkpt>
      <trkpt lat="45.98004" lon="4.84864">
        <ele>272</ele>
        <time>2016-12-10T13:43:38Z</time>
      </trkpt>
      <trkpt lat="45.98005" lon="4.84872">
        <ele>272</ele>
        <time>2016-12-10T13:43:39Z</time>
      </trkpt>
      <trkpt lat="45.98006" lon="4.8488">
        <ele>272</ele>
        <time>2016-12-10T13:43:40Z</time>
      </trkpt>
      <trkpt lat="45.98006" lon="4.84887">
        <ele>272</ele>
        <time>2016-12-10T13:43:41Z</time>
      </trkpt>
      <trkpt lat="45.98007" lon="4.84895">
        <ele>272</ele>
        <time>2016-12-10T13:43:42Z</time>
      </trkpt>
      <trkpt lat="45.98008" lon="4.84903">
        <ele>272</ele>
        <time>2016-12-10T13:43:43Z</time>
      </trkpt>
      <trkpt lat="45.98009" lon="4.8491">
        <ele>272</ele>
        <time>2016-12-10T13:43:44Z</time>
      </trkpt>
      <trkpt lat="45.9801" lon="4.84918">
        <ele>272</ele>
        <time>2016-12-10T13:43:45Z</time>
      </trkpt>
      <trkpt lat="45.98011" lon="4.84925">
        <ele>272</ele>
        <time>2016-12-10T13:43:46Z</time>
      </trkpt>
      <trkpt lat="45.98011" lon="4.84933">
        <ele>272</ele>
        <time>2016-12-10T13:43:47Z</time>
      </trkpt>
      <trkpt lat="45.98012" lon="4.84942">
        <ele>272</ele>
        <time>2016-12-10T13:43:48Z</time>
      </trkpt>
      <trkpt lat="45.98013" lon="4.8495">
        <ele>272</ele>
        <time>2016-12-10T13:43:49Z</time>
      </trkpt>
      <trkpt lat="45.98014" lon="4.84958">
        <ele>272</ele>
        <time>2016-12-10T13:43:50Z</time>
      </trkpt>
      <trkpt lat="45.98014" lon="4.84966">
        <ele>272</ele>
        <time>2016-12-10T13:43:51Z</time>
      </trkpt>
      <trkpt lat="45.98015" lon="4.84975">
        <ele>272</ele>
        <time>2016-12-10T13:43:52Z</time>
      </trkpt>
      <trkpt lat="45.98016" lon="4.84983">
        <ele>272</ele>
        <time>2016-12-10T13:43:53Z</time>
      </trkpt>
      <trkpt lat="45.98017" lon="4.84992">
        <ele>272</ele>
        <time>2016-12-10T13:43:54Z</time>
      </trkpt>
      <trkpt lat="45.98018" lon="4.85">
        <ele>272</ele>
        <time>2016-12-10T13:43:55Z</time>
      </trkpt>
      <trkpt lat="45.98019" lon="4.85009">
        <ele>272</ele>
        <time>2016-12-10T13:43:56Z</time>
      </trkpt>
      <trkpt lat="45.9802" lon="4.85017">
        <ele>273</ele>
        <time>2016-12-10T13:43:57Z</time>
      </trkpt>
      <trkpt lat="45.9802" lon="4.85025">
        <ele>273</ele>
        <time>2016-12-10T13:43:58Z</time>
      </trkpt>
      <trkpt lat="45.9802" lon="4.85032">
        <ele>273</ele>
        <time>2016-12-10T13:43:59Z</time>
      </trkpt>
      <trkpt lat="45.9802" lon="4.8504">
        <ele>273</ele>
        <time>2016-12-10T13:44:00Z</time>
      </trkpt>
      <trkpt lat="45.9802" lon="4.85048">
        <ele>273</ele>
        <time>2016-12-10T13:44:01Z</time>
      </trkpt>
      <trkpt lat="45.9802" lon="4.85056">
        <ele>273</ele>
        <time>2016-12-10T13:44:02Z</time>
      </trkpt>
      <trkpt lat="45.9802" lon="4.85063">
        <ele>273</ele>
        <time>2016-12-10T13:44:03Z</time>
      </trkpt>
      <trkpt lat="45.9802" lon="4.85071">
        <ele>273</ele>
        <time>2016-12-10T13:44:04Z</time>
      </trkpt>
      <trkpt lat="45.9802" lon="4.85078">
        <ele>273</ele>
        <time>2016-12-10T13:44:05Z</time>
      </trkpt>
      <trkpt lat="45.98021" lon="4.85086">
        <ele>274</ele>
        <time>2016-12-10T13:44:06Z</time>
      </trkpt>
      <trkpt lat="45.98022" lon="4.85094">
        <ele>274</ele>
        <time>2016-12-10T13:44:07Z</time>
      </trkpt>
      <trkpt lat="45.98023" lon="4.85102">
        <ele>274</ele>
        <time>2016-12-10T13:44:08Z</time>
      </trkpt>
      <trkpt lat="45.98024" lon="4.8511">
        <ele>274</ele>
        <time>2016-12-10T13:44:09Z</time>
      </trkpt>
      <trkpt lat="45.98026" lon="4.85118">
        <ele>274</ele>
        <time>2016-12-10T13:44:10Z</time>
      </trkpt>
      <trkpt lat="45.98028" lon="4.85126">
        <ele>274</ele>
        <time>2016-12-10T13:44:11Z</time>
      </trkpt>
      <trkpt lat="45.9803" lon="4.85133">
        <ele>274</ele>
        <time>2016-12-10T13:44:12Z</time>
      </trkpt>
      <trkpt lat="45.98032" lon="4.8514">
        <ele>275</ele>
        <time>2016-12-10T13:44:13Z</time>
      </trkpt>
      <trkpt lat="45.98034" lon="4.85146">
        <ele>275</ele>
        <time>2016-12-10T13:44:14Z</time>
      </trkpt>
      <trkpt lat="45.98036" lon="4.85152">
        <ele>275</ele>
        <time>2016-12-10T13:44:15Z</time>
      </trkpt>
      <trkpt lat="45.98038" lon="4.85158">
        <ele>275</ele>
        <time>2016-12-10T13:44:16Z</time>
      </trkpt>
      <trkpt lat="45.9804" lon="4.85163">
        <ele>275</ele>
        <time>2016-12-10T13:44:17Z</time>
      </trkpt>
      <trkpt lat="45.98042" lon="4.85169">
        <ele>275</ele>
        <time>2016-12-10T13:44:18Z</time>
      </trkpt>
      <trkpt lat="45.98045" lon="4.85181">
        <ele>276</ele>
        <time>2016-12-10T13:44:20Z</time>
      </trkpt>
      <trkpt lat="45.98047" lon="4.85187">
        <ele>276</ele>
        <time>2016-12-10T13:44:21Z</time>
      </trkpt>
      <trkpt lat="45.98051" lon="4.85198">
        <ele>276</ele>
        <time>2016-12-10T13:44:23Z</time>
      </trkpt>
      <trkpt lat="45.98052" lon="4.85203">
        <ele>276</ele>
        <time>2016-12-10T13:44:24Z</time>
      </trkpt>
      <trkpt lat="45.98055" lon="4.85212">
        <ele>276</ele>
        <time>2016-12-10T13:44:26Z</time>
      </trkpt>
      <trkpt lat="45.98056" lon="4.85217">
        <ele>276</ele>
        <time>2016-12-10T13:44:27Z</time>
      </trkpt>
      <trkpt lat="45.9806" lon="4.85227">
        <ele>276</ele>
        <time>2016-12-10T13:44:29Z</time>
      </trkpt>
      <trkpt lat="45.98062" lon="4.85231">
        <ele>276</ele>
        <time>2016-12-10T13:44:30Z</time>
      </trkpt>
      <trkpt lat="45.98067" lon="4.85241">
        <ele>276</ele>
        <time>2016-12-10T13:44:32Z</time>
      </trkpt>
      <trkpt lat="45.9807" lon="4.85246">
        <ele>276</ele>
        <time>2016-12-10T13:44:33Z</time>
      </trkpt>
      <trkpt lat="45.98073" lon="4.85251">
        <ele>276</ele>
        <time>2016-12-10T13:44:34Z</time>
      </trkpt>
      <trkpt lat="45.98076" lon="4.85257">
        <ele>276</ele>
        <time>2016-12-10T13:44:35Z</time>
      </trkpt>
      <trkpt lat="45.98079" lon="4.85262">
        <ele>276</ele>
        <time>2016-12-10T13:44:36Z</time>
      </trkpt>
      <trkpt lat="45.98082" lon="4.85268">
        <ele>276</ele>
        <time>2016-12-10T13:44:37Z</time>
      </trkpt>
      <trkpt lat="45.98085" lon="4.85274">
        <ele>276</ele>
        <time>2016-12-10T13:44:38Z</time>
      </trkpt>
      <trkpt lat="45.98088" lon="4.8528">
        <ele>276</ele>
        <time>2016-12-10T13:44:39Z</time>
      </trkpt>
      <trkpt lat="45.98091" lon="4.85286">
        <ele>276</ele>
        <time>2016-12-10T13:44:40Z</time>
      </trkpt>
      <trkpt lat="45.98094" lon="4.85293">
        <ele>276</ele>
        <time>2016-12-10T13:44:41Z</time>
      </trkpt>
      <trkpt lat="45.98096" lon="4.85299">
        <ele>276</ele>
        <time>2016-12-10T13:44:42Z</time>
      </trkpt>
      <trkpt lat="45.98099" lon="4.85306">
        <ele>276</ele>
        <time>2016-12-10T13:44:43Z</time>
      </trkpt>
      <trkpt lat="45.98102" lon="4.85312">
        <ele>276</ele>
        <time>2016-12-10T13:44:44Z</time>
      </trkpt>
      <trkpt lat="45.98105" lon="4.85318">
        <ele>276</ele>
        <time>2016-12-10T13:44:45Z</time>
      </trkpt>
      <trkpt lat="45.98108" lon="4.85324">
        <ele>276</ele>
        <time>2016-12-10T13:44:46Z</time>
      </trkpt>
      <trkpt lat="45.9811" lon="4.8533">
        <ele>276</ele>
        <time>2016-12-10T13:44:47Z</time>
      </trkpt>
      <trkpt lat="45.98113" lon="4.85337">
        <ele>276</ele>
        <time>2016-12-10T13:44:48Z</time>
      </trkpt>
      <trkpt lat="45.98116" lon="4.85344">
        <ele>276</ele>
        <time>2016-12-10T13:44:49Z</time>
      </trkpt>
      <trkpt lat="45.98119" lon="4.8535">
        <ele>276</ele>
        <time>2016-12-10T13:44:50Z</time>
      </trkpt>
      <trkpt lat="45.98122" lon="4.85357">
        <ele>276</ele>
        <time>2016-12-10T13:44:51Z</time>
      </trkpt>
      <trkpt lat="45.98124" lon="4.85364">
        <ele>276</ele>
        <time>2016-12-10T13:44:52Z</time>
      </trkpt>
      <trkpt lat="45.98127" lon="4.85371">
        <ele>276</ele>
        <time>2016-12-10T13:44:53Z</time>
      </trkpt>
      <trkpt lat="45.98129" lon="4.85379">
        <ele>276</ele>
        <time>2016-12-10T13:44:54Z</time>
      </trkpt>
      <trkpt lat="45.98131" lon="4.85386">
        <ele>276</ele>
        <time>2016-12-10T13:44:55Z</time>
      </trkpt>
      <trkpt lat="45.98134" lon="4.85393">
        <ele>276</ele>
        <time>2016-12-10T13:44:56Z</time>
      </trkpt>
      <trkpt lat="45.98137" lon="4.85401">
        <ele>276</ele>
        <time>2016-12-10T13:44:57Z</time>
      </trkpt>
      <trkpt lat="45.98139" lon="4.85408">
        <ele>276</ele>
        <time>2016-12-10T13:44:58Z</time>
      </trkpt>
      <trkpt lat="45.98143" lon="4.85415">
        <ele>276</ele>
        <time>2016-12-10T13:44:59Z</time>
      </trkpt>
      <trkpt lat="45.98146" lon="4.85423">
        <ele>276</ele>
        <time>2016-12-10T13:45:00Z</time>
      </trkpt>
      <trkpt lat="45.98149" lon="4.8543">
        <ele>276</ele>
        <time>2016-12-10T13:45:01Z</time>
      </trkpt>
      <trkpt lat="45.98152" lon="4.85436">
        <ele>276</ele>
        <time>2016-12-10T13:45:02Z</time>
      </trkpt>
      <trkpt lat="45.98154" lon="4.85443">
        <ele>276</ele>
        <time>2016-12-10T13:45:03Z</time>
      </trkpt>
      <trkpt lat="45.98157" lon="4.85449">
        <ele>276</ele>
        <time>2016-12-10T13:45:04Z</time>
      </trkpt>
      <trkpt lat="45.98159" lon="4.85455">
        <ele>276</ele>
        <time>2016-12-10T13:45:05Z</time>
      </trkpt>
      <trkpt lat="45.98161" lon="4.85461">
        <ele>275</ele>
        <time>2016-12-10T13:45:06Z</time>
      </trkpt>
      <trkpt lat="45.98164" lon="4.85467">
        <ele>275</ele>
        <time>2016-12-10T13:45:07Z</time>
      </trkpt>
      <trkpt lat="45.98166" lon="4.85473">
        <ele>275</ele>
        <time>2016-12-10T13:45:08Z</time>
      </trkpt>
      <trkpt lat="45.98169" lon="4.85478">
        <ele>275</ele>
        <time>2016-12-10T13:45:09Z</time>
      </trkpt>
      <trkpt lat="45.98171" lon="4.85484">
        <ele>275</ele>
        <time>2016-12-10T13:45:10Z</time>
      </trkpt>
      <trkpt lat="45.98174" lon="4.8549">
        <ele>275</ele>
        <time>2016-12-10T13:45:11Z</time>
      </trkpt>
      <trkpt lat="45.98176" lon="4.85497">
        <ele>275</ele>
        <time>2016-12-10T13:45:12Z</time>
      </trkpt>
      <trkpt lat="45.98179" lon="4.85504">
        <ele>275</ele>
        <time>2016-12-10T13:45:13Z</time>
      </trkpt>
      <trkpt lat="45.98182" lon="4.85511">
        <ele>275</ele>
        <time>2016-12-10T13:45:14Z</time>
      </trkpt>
      <trkpt lat="45.98185" lon="4.85518">
        <ele>275</ele>
        <time>2016-12-10T13:45:15Z</time>
      </trkpt>
      <trkpt lat="45.98188" lon="4.85525">
        <ele>276</ele>
        <time>2016-12-10T13:45:16Z</time>
      </trkpt>
      <trkpt lat="45.9819" lon="4.85532">
        <ele>276</ele>
        <time>2016-12-10T13:45:17Z</time>
      </trkpt>
      <trkpt lat="45.98193" lon="4.85538">
        <ele>276</ele>
        <time>2016-12-10T13:45:18Z</time>
      </trkpt>
      <trkpt lat="45.98196" lon="4.85545">
        <ele>276</ele>
        <time>2016-12-10T13:45:19Z</time>
      </trkpt>
      <trkpt lat="45.98198" lon="4.8555">
        <ele>276</ele>
        <time>2016-12-10T13:45:20Z</time>
      </trkpt>
      <trkpt lat="45.98201" lon="4.85556">
        <ele>276</ele>
        <time>2016-12-10T13:45:21Z</time>
      </trkpt>
      <trkpt lat="45.98203" lon="4.85562">
        <ele>276</ele>
        <time>2016-12-10T13:45:22Z</time>
      </trkpt>
      <trkpt lat="45.98206" lon="4.85568">
        <ele>276</ele>
        <time>2016-12-10T13:45:23Z</time>
      </trkpt>
      <trkpt lat="45.98208" lon="4.85575">
        <ele>276</ele>
        <time>2016-12-10T13:45:24Z</time>
      </trkpt>
      <trkpt lat="45.98211" lon="4.85581">
        <ele>276</ele>
        <time>2016-12-10T13:45:25Z</time>
      </trkpt>
      <trkpt lat="45.98214" lon="4.85588">
        <ele>277</ele>
        <time>2016-12-10T13:45:26Z</time>
      </trkpt>
      <trkpt lat="45.98217" lon="4.85595">
        <ele>277</ele>
        <time>2016-12-10T13:45:27Z</time>
      </trkpt>
      <trkpt lat="45.9822" lon="4.85601">
        <ele>277</ele>
        <time>2016-12-10T13:45:28Z</time>
      </trkpt>
      <trkpt lat="45.98222" lon="4.85608">
        <ele>277</ele>
        <time>2016-12-10T13:45:29Z</time>
      </trkpt>
      <trkpt lat="45.98225" lon="4.85614">
        <ele>277</ele>
        <time>2016-12-10T13:45:30Z</time>
      </trkpt>
      <trkpt lat="45.98227" lon="4.8562">
        <ele>277</ele>
        <time>2016-12-10T13:45:31Z</time>
      </trkpt>
      <trkpt lat="45.9823" lon="4.85627">
        <ele>277</ele>
        <time>2016-12-10T13:45:32Z</time>
      </trkpt>
      <trkpt lat="45.98232" lon="4.85633">
        <ele>277</ele>
        <time>2016-12-10T13:45:33Z</time>
      </trkpt>
      <trkpt lat="45.98234" lon="4.85639">
        <ele>277</ele>
        <time>2016-12-10T13:45:34Z</time>
      </trkpt>
      <trkpt lat="45.98236" lon="4.85645">
        <ele>277</ele>
        <time>2016-12-10T13:45:35Z</time>
      </trkpt>
      <trkpt lat="45.98239" lon="4.85651">
        <ele>276</ele>
        <time>2016-12-10T13:45:36Z</time>
      </trkpt>
      <trkpt lat="45.98241" lon="4.85657">
        <ele>276</ele>
        <time>2016-12-10T13:45:37Z</time>
      </trkpt>
      <trkpt lat="45.98244" lon="4.85664">
        <ele>276</ele>
        <time>2016-12-10T13:45:38Z</time>
      </trkpt>
      <trkpt lat="45.98247" lon="4.85671">
        <ele>276</ele>
        <time>2016-12-10T13:45:39Z</time>
      </trkpt>
      <trkpt lat="45.98249" lon="4.85677">
        <ele>276</ele>
        <time>2016-12-10T13:45:40Z</time>
      </trkpt>
      <trkpt lat="45.98252" lon="4.85684">
        <ele>275</ele>
        <time>2016-12-10T13:45:41Z</time>
      </trkpt>
      <trkpt lat="45.98254" lon="4.85691">
        <ele>275</ele>
        <time>2016-12-10T13:45:42Z</time>
      </trkpt>
      <trkpt lat="45.98257" lon="4.85697">
        <ele>275</ele>
        <time>2016-12-10T13:45:43Z</time>
      </trkpt>
      <trkpt lat="45.9826" lon="4.85703">
        <ele>275</ele>
        <time>2016-12-10T13:45:44Z</time>
      </trkpt>
      <trkpt lat="45.98263" lon="4.8571">
        <ele>275</ele>
        <time>2016-12-10T13:45:45Z</time>
      </trkpt>
      <trkpt lat="45.98266" lon="4.85717">
        <ele>275</ele>
        <time>2016-12-10T13:45:46Z</time>
      </trkpt>
      <trkpt lat="45.98268" lon="4.85724">
        <ele>275</ele>
        <time>2016-12-10T13:45:47Z</time>
      </trkpt>
      <trkpt lat="45.98271" lon="4.85731">
        <ele>275</ele>
        <time>2016-12-10T13:45:48Z</time>
      </trkpt>
      <trkpt lat="45.98274" lon="4.85737">
        <ele>274</ele>
        <time>2016-12-10T13:45:49Z</time>
      </trkpt>
      <trkpt lat="45.98276" lon="4.85744">
        <ele>274</ele>
        <time>2016-12-10T13:45:50Z</time>
      </trkpt>
      <trkpt lat="45.98279" lon="4.85751">
        <ele>275</ele>
        <time>2016-12-10T13:45:51Z</time>
      </trkpt>
      <trkpt lat="45.98282" lon="4.85758">
        <ele>275</ele>
        <time>2016-12-10T13:45:52Z</time>
      </trkpt>
      <trkpt lat="45.98285" lon="4.85765">
        <ele>275</ele>
        <time>2016-12-10T13:45:53Z</time>
      </trkpt>
      <trkpt lat="45.98288" lon="4.85772">
        <ele>275</ele>
        <time>2016-12-10T13:45:54Z</time>
      </trkpt>
      <trkpt lat="45.98291" lon="4.85779">
        <ele>275</ele>
        <time>2016-12-10T13:45:55Z</time>
      </trkpt>
      <trkpt lat="45.98293" lon="4.85786">
        <ele>275</ele>
        <time>2016-12-10T13:45:56Z</time>
      </trkpt>
      <trkpt lat="45.98296" lon="4.85793">
        <ele>275</ele>
        <time>2016-12-10T13:45:57Z</time>
      </trkpt>
      <trkpt lat="45.98299" lon="4.85799">
        <ele>275</ele>
        <time>2016-12-10T13:45:58Z</time>
      </trkpt>
      <trkpt lat="45.98301" lon="4.85806">
        <ele>275</ele>
        <time>2016-12-10T13:45:59Z</time>
      </trkpt>
      <trkpt lat="45.98304" lon="4.85813">
        <ele>275</ele>
        <time>2016-12-10T13:46:00Z</time>
      </trkpt>
      <trkpt lat="45.98306" lon="4.85819">
        <ele>275</ele>
        <time>2016-12-10T13:46:01Z</time>
      </trkpt>
      <trkpt lat="45.98309" lon="4.85825">
        <ele>275</ele>
        <time>2016-12-10T13:46:02Z</time>
      </trkpt>
      <trkpt lat="45.98311" lon="4.85831">
        <ele>275</ele>
        <time>2016-12-10T13:46:03Z</time>
      </trkpt>
      <trkpt lat="45.98313" lon="4.85837">
        <ele>276</ele>
        <time>2016-12-10T13:46:04Z</time>
      </trkpt>
      <trkpt lat="45.98315" lon="4.85843">
        <ele>276</ele>
        <time>2016-12-10T13:46:05Z</time>
      </trkpt>
      <trkpt lat="45.98318" lon="4.85849">
        <ele>276</ele>
        <time>2016-12-10T13:46:06Z</time>
      </trkpt>
      <trkpt lat="45.9832" lon="4.85854">
        <ele>276</ele>
        <time>2016-12-10T13:46:07Z</time>
      </trkpt>
      <trkpt lat="45.98322" lon="4.85861">
        <ele>276</ele>
        <time>2016-12-10T13:46:08Z</time>
      </trkpt>
      <trkpt lat="45.98325" lon="4.85867">
        <ele>276</ele>
        <time>2016-12-10T13:46:09Z</time>
      </trkpt>
      <trkpt lat="45.98327" lon="4.85873">
        <ele>276</ele>
        <time>2016-12-10T13:46:10Z</time>
      </trkpt>
      <trkpt lat="45.9833" lon="4.85879">
        <ele>276</ele>
        <time>2016-12-10T13:46:11Z</time>
      </trkpt>
      <trkpt lat="45.98332" lon="4.85885">
        <ele>276</ele>
        <time>2016-12-10T13:46:12Z</time>
      </trkpt>
      <trkpt lat="45.98335" lon="4.85891">
        <ele>276</ele>
        <time>2016-12-10T13:46:13Z</time>
      </trkpt>
      <trkpt lat="45.98338" lon="4.85897">
        <ele>276</ele>
        <time>2016-12-10T13:46:14Z</time>
      </trkpt>
      <trkpt lat="45.9834" lon="4.85904">
        <ele>276</ele>
        <time>2016-12-10T13:46:15Z</time>
      </trkpt>
      <trkpt lat="45.98342" lon="4.8591">
        <ele>276</ele>
        <time>2016-12-10T13:46:16Z</time>
      </trkpt>
      <trkpt lat="45.98345" lon="4.85916">
        <ele>276</ele>
        <time>2016-12-10T13:46:17Z</time>
      </trkpt>
      <trkpt lat="45.98347" lon="4.85923">
        <ele>276</ele>
        <time>2016-12-10T13:46:18Z</time>
      </trkpt>
      <trkpt lat="45.9835" lon="4.85929">
        <ele>276</ele>
        <time>2016-12-10T13:46:19Z</time>
      </trkpt>
      <trkpt lat="45.98352" lon="4.85935">
        <ele>276</ele>
        <time>2016-12-10T13:46:20Z</time>
      </trkpt>
      <trkpt lat="45.98355" lon="4.85942">
        <ele>276</ele>
        <time>2016-12-10T13:46:21Z</time>
      </trkpt>
      <trkpt lat="45.98357" lon="4.85948">
        <ele>276</ele>
        <time>2016-12-10T13:46:22Z</time>
      </trkpt>
      <trkpt lat="45.98359" lon="4.85954">
        <ele>276</ele>
        <time>2016-12-10T13:46:23Z</time>
      </trkpt>
      <trkpt lat="45.98361" lon="4.8596">
        <ele>276</ele>
        <time>2016-12-10T13:46:24Z</time>
      </trkpt>
      <trkpt lat="45.98364" lon="4.85966">
        <ele>276</ele>
        <time>2016-12-10T13:46:25Z</time>
      </trkpt>
      <trkpt lat="45.98366" lon="4.85972">
        <ele>276</ele>
        <time>2016-12-10T13:46:26Z</time>
      </trkpt>
      <trkpt lat="45.98369" lon="4.85978">
        <ele>276</ele>
        <time>2016-12-10T13:46:27Z</time>
      </trkpt>
      <trkpt lat="45.98372" lon="4.85984">
        <ele>276</ele>
        <time>2016-12-10T13:46:28Z</time>
      </trkpt>
      <trkpt lat="45.98374" lon="4.8599">
        <ele>276</ele>
        <time>2016-12-10T13:46:29Z</time>
      </trkpt>
      <trkpt lat="45.98377" lon="4.85997">
        <ele>277</ele>
        <time>2016-12-10T13:46:30Z</time>
      </trkpt>
      <trkpt lat="45.98379" lon="4.86003">
        <ele>277</ele>
        <time>2016-12-10T13:46:31Z</time>
      </trkpt>
      <trkpt lat="45.98381" lon="4.8601">
        <ele>277</ele>
        <time>2016-12-10T13:46:32Z</time>
      </trkpt>
      <trkpt lat="45.98384" lon="4.86016">
        <ele>277</ele>
        <time>2016-12-10T13:46:33Z</time>
      </trkpt>
      <trkpt lat="45.98386" lon="4.86022">
        <ele>277</ele>
        <time>2016-12-10T13:46:34Z</time>
      </trkpt>
      <trkpt lat="45.98389" lon="4.86028">
        <ele>277</ele>
        <time>2016-12-10T13:46:35Z</time>
      </trkpt>
      <trkpt lat="45.98391" lon="4.86034">
        <ele>277</ele>
        <time>2016-12-10T13:46:36Z</time>
      </trkpt>
      <trkpt lat="45.98393" lon="4.86041">
        <ele>277</ele>
        <time>2016-12-10T13:46:37Z</time>
      </trkpt>
      <trkpt lat="45.98396" lon="4.86052">
        <ele>277</ele>
        <time>2016-12-10T13:46:39Z</time>
      </trkpt>
      <trkpt lat="45.98398" lon="4.86058">
        <ele>277</ele>
        <time>2016-12-10T13:46:40Z</time>
      </trkpt>
      <trkpt lat="45.98401" lon="4.8607">
        <ele>277</ele>
        <time>2016-12-10T13:46:42Z</time>
      </trkpt>
      <trkpt lat="45.98403" lon="4.86077">
        <ele>277</ele>
        <time>2016-12-10T13:46:43Z</time>
      </trkpt>
      <trkpt lat="45.98405" lon="4.86088">
        <ele>277</ele>
        <time>2016-12-10T13:46:45Z</time>
      </trkpt>
      <trkpt lat="45.98406" lon="4.86094">
        <ele>277</ele>
        <time>2016-12-10T13:46:46Z</time>
      </trkpt>
      <trkpt lat="45.98409" lon="4.86105">
        <ele>277</ele>
        <time>2016-12-10T13:46:48Z</time>
      </trkpt>
      <trkpt lat="45.9841" lon="4.8611">
        <ele>277</ele>
        <time>2016-12-10T13:46:49Z</time>
      </trkpt>
      <trkpt lat="45.98413" lon="4.86122">
        <ele>277</ele>
        <time>2016-12-10T13:46:51Z</time>
      </trkpt>
      <trkpt lat="45.98414" lon="4.86127">
        <ele>276</ele>
        <time>2016-12-10T13:46:52Z</time>
      </trkpt>
      <trkpt lat="45.98415" lon="4.86139">
        <ele>276</ele>
        <time>2016-12-10T13:46:54Z</time>
      </trkpt>
      <trkpt lat="45.98416" lon="4.86145">
        <ele>276</ele>
        <time>2016-12-10T13:46:55Z</time>
      </trkpt>
      <trkpt lat="45.98417" lon="4.86155">
        <ele>276</ele>
        <time>2016-12-10T13:46:57Z</time>
      </trkpt>
      <trkpt lat="45.98418" lon="4.8616">
        <ele>276</ele>
        <time>2016-12-10T13:46:58Z</time>
      </trkpt>
      <trkpt lat="45.98421" lon="4.86171">
        <ele>276</ele>
        <time>2016-12-10T13:47:00Z</time>
      </trkpt>
      <trkpt lat="45.98422" lon="4.86176">
        <ele>276</ele>
        <time>2016-12-10T13:47:01Z</time>
      </trkpt>
      <trkpt lat="45.98423" lon="4.86187">
        <ele>275</ele>
        <time>2016-12-10T13:47:03Z</time>
      </trkpt>
      <trkpt lat="45.98424" lon="4.86193">
        <ele>275</ele>
        <time>2016-12-10T13:47:04Z</time>
      </trkpt>
      <trkpt lat="45.98426" lon="4.86203">
        <ele>275</ele>
        <time>2016-12-10T13:47:06Z</time>
      </trkpt>
      <trkpt lat="45.98427" lon="4.86209">
        <ele>275</ele>
        <time>2016-12-10T13:47:07Z</time>
      </trkpt>
      <trkpt lat="45.98428" lon="4.8622">
        <ele>275</ele>
        <time>2016-12-10T13:47:09Z</time>
      </trkpt>
      <trkpt lat="45.98428" lon="4.86227">
        <ele>275</ele>
        <time>2016-12-10T13:47:10Z</time>
      </trkpt>
      <trkpt lat="45.98429" lon="4.86233">
        <ele>275</ele>
        <time>2016-12-10T13:47:11Z</time>
      </trkpt>
      <trkpt lat="45.9843" lon="4.8624">
        <ele>275</ele>
        <time>2016-12-10T13:47:12Z</time>
      </trkpt>
      <trkpt lat="45.98432" lon="4.86248">
        <ele>275</ele>
        <time>2016-12-10T13:47:13Z</time>
      </trkpt>
      <trkpt lat="45.98433" lon="4.86256">
        <ele>275</ele>
        <time>2016-12-10T13:47:14Z</time>
      </trkpt>
      <trkpt lat="45.98434" lon="4.86264">
        <ele>275</ele>
        <time>2016-12-10T13:47:15Z</time>
      </trkpt>
      <trkpt lat="45.98436" lon="4.86273">
        <ele>276</ele>
        <time>2016-12-10T13:47:16Z</time>
      </trkpt>
      <trkpt lat="45.98437" lon="4.86283">
        <ele>276</ele>
        <time>2016-12-10T13:47:17Z</time>
      </trkpt>
      <trkpt lat="45.98439" lon="4.86293">
        <ele>276</ele>
        <time>2016-12-10T13:47:18Z</time>
      </trkpt>
      <trkpt lat="45.98441" lon="4.86302">
        <ele>276</ele>
        <time>2016-12-10T13:47:19Z</time>
      </trkpt>
      <trkpt lat="45.98443" lon="4.86312">
        <ele>276</ele>
        <time>2016-12-10T13:47:20Z</time>
      </trkpt>
      <trkpt lat="45.98445" lon="4.86322">
        <ele>276</ele>
        <time>2016-12-10T13:47:21Z</time>
      </trkpt>
      <trkpt lat="45.98447" lon="4.86332">
        <ele>276</ele>
        <time>2016-12-10T13:47:22Z</time>
      </trkpt>
      <trkpt lat="45.9845" lon="4.8634">
        <ele>277</ele>
        <time>2016-12-10T13:47:23Z</time>
      </trkpt>
      <trkpt lat="45.98452" lon="4.86349">
        <ele>277</ele>
        <time>2016-12-10T13:47:24Z</time>
      </trkpt>
      <trkpt lat="45.98455" lon="4.86358">
        <ele>277</ele>
        <time>2016-12-10T13:47:25Z</time>
      </trkpt>
      <trkpt lat="45.98458" lon="4.86366">
        <ele>277</ele>
        <time>2016-12-10T13:47:26Z</time>
      </trkpt>
      <trkpt lat="45.9846" lon="4.86374">
        <ele>277</ele>
        <time>2016-12-10T13:47:27Z</time>
      </trkpt>
      <trkpt lat="45.98464" lon="4.86383">
        <ele>277</ele>
        <time>2016-12-10T13:47:28Z</time>
      </trkpt>
      <trkpt lat="45.98467" lon="4.8639">
        <ele>277</ele>
        <time>2016-12-10T13:47:29Z</time>
      </trkpt>
      <trkpt lat="45.98471" lon="4.86398">
        <ele>277</ele>
        <time>2016-12-10T13:47:30Z</time>
      </trkpt>
      <trkpt lat="45.98474" lon="4.86405">
        <ele>277</ele>
        <time>2016-12-10T13:47:31Z</time>
      </trkpt>
      <trkpt lat="45.98477" lon="4.86413">
        <ele>277</ele>
        <time>2016-12-10T13:47:32Z</time>
      </trkpt>
      <trkpt lat="45.9848" lon="4.8642">
        <ele>278</ele>
        <time>2016-12-10T13:47:33Z</time>
      </trkpt>
      <trkpt lat="45.98483" lon="4.86428">
        <ele>278</ele>
        <time>2016-12-10T13:47:34Z</time>
      </trkpt>
      <trkpt lat="45.98487" lon="4.86436">
        <ele>278</ele>
        <time>2016-12-10T13:47:35Z</time>
      </trkpt>
      <trkpt lat="45.9849" lon="4.86443">
        <ele>278</ele>
        <time>2016-12-10T13:47:36Z</time>
      </trkpt>
      <trkpt lat="45.98492" lon="4.8645">
        <ele>278</ele>
        <time>2016-12-10T13:47:37Z</time>
      </trkpt>
      <trkpt lat="45.98495" lon="4.86457">
        <ele>278</ele>
        <time>2016-12-10T13:47:38Z</time>
      </trkpt>
      <trkpt lat="45.98497" lon="4.86464">
        <ele>278</ele>
        <time>2016-12-10T13:47:39Z</time>
      </trkpt>
      <trkpt lat="45.985" lon="4.8647">
        <ele>279</ele>
        <time>2016-12-10T13:47:40Z</time>
      </trkpt>
      <trkpt lat="45.98503" lon="4.86476">
        <ele>278</ele>
        <time>2016-12-10T13:47:41Z</time>
      </trkpt>
      <trkpt lat="45.98506" lon="4.86483">
        <ele>278</ele>
        <time>2016-12-10T13:47:42Z</time>
      </trkpt>
      <trkpt lat="45.98509" lon="4.8649">
        <ele>279</ele>
        <time>2016-12-10T13:47:43Z</time>
      </trkpt>
      <trkpt lat="45.98512" lon="4.86496">
        <ele>279</ele>
        <time>2016-12-10T13:47:44Z</time>
      </trkpt>
      <trkpt lat="45.98515" lon="4.86502">
        <ele>279</ele>
        <time>2016-12-10T13:47:45Z</time>
      </trkpt>
      <trkpt lat="45.98518" lon="4.86509">
        <ele>279</ele>
        <time>2016-12-10T13:47:46Z</time>
      </trkpt>
      <trkpt lat="45.98522" lon="4.86516">
        <ele>279</ele>
        <time>2016-12-10T13:47:47Z</time>
      </trkpt>
      <trkpt lat="45.98526" lon="4.86522">
        <ele>279</ele>
        <time>2016-12-10T13:47:48Z</time>
      </trkpt>
      <trkpt lat="45.98529" lon="4.86529">
        <ele>279</ele>
        <time>2016-12-10T13:47:49Z</time>
      </trkpt>
      <trkpt lat="45.98533" lon="4.86535">
        <ele>278</ele>
        <time>2016-12-10T13:47:50Z</time>
      </trkpt>
      <trkpt lat="45.98537" lon="4.86542">
        <ele>278</ele>
        <time>2016-12-10T13:47:51Z</time>
      </trkpt>
      <trkpt lat="45.98541" lon="4.86549">
        <ele>278</ele>
        <time>2016-12-10T13:47:52Z</time>
      </trkpt>
      <trkpt lat="45.98544" lon="4.86555">
        <ele>278</ele>
        <time>2016-12-10T13:47:53Z</time>
      </trkpt>
      <trkpt lat="45.98547" lon="4.86561">
        <ele>278</ele>
        <time>2016-12-10T13:47:54Z</time>
      </trkpt>
      <trkpt lat="45.98549" lon="4.86568">
        <ele>278</ele>
        <time>2016-12-10T13:47:55Z</time>
      </trkpt>
      <trkpt lat="45.98551" lon="4.86575">
        <ele>278</ele>
        <time>2016-12-10T13:47:56Z</time>
      </trkpt>
      <trkpt lat="45.98552" lon="4.86583">
        <ele>278</ele>
        <time>2016-12-10T13:47:57Z</time>
      </trkpt>
      <trkpt lat="45.98554" lon="4.86589">
        <ele>278</ele>
        <time>2016-12-10T13:47:58Z</time>
      </trkpt>
      <trkpt lat="45.98555" lon="4.86597">
        <ele>278</ele>
        <time>2016-12-10T13:47:59Z</time>
      </trkpt>
      <trkpt lat="45.98557" lon="4.86604">
        <ele>278</ele>
        <time>2016-12-10T13:48:00Z</time>
      </trkpt>
      <trkpt lat="45.98559" lon="4.86611">
        <ele>278</ele>
        <time>2016-12-10T13:48:01Z</time>
      </trkpt>
      <trkpt lat="45.9856" lon="4.86618">
        <ele>278</ele>
        <time>2016-12-10T13:48:02Z</time>
      </trkpt>
      <trkpt lat="45.98561" lon="4.86625">
        <ele>278</ele>
        <time>2016-12-10T13:48:03Z</time>
      </trkpt>
      <trkpt lat="45.98563" lon="4.86633">
        <ele>278</ele>
        <time>2016-12-10T13:48:04Z</time>
      </trkpt>
      <trkpt lat="45.98564" lon="4.8664">
        <ele>277</ele>
        <time>2016-12-10T13:48:05Z</time>
      </trkpt>
      <trkpt lat="45.98565" lon="4.86648">
        <ele>277</ele>
        <time>2016-12-10T13:48:06Z</time>
      </trkpt>
      <trkpt lat="45.98566" lon="4.86655">
        <ele>277</ele>
        <time>2016-12-10T13:48:07Z</time>
      </trkpt>
      <trkpt lat="45.98567" lon="4.86662">
        <ele>277</ele>
        <time>2016-12-10T13:48:08Z</time>
      </trkpt>
      <trkpt lat="45.98567" lon="4.8667">
        <ele>276</ele>
        <time>2016-12-10T13:48:09Z</time>
      </trkpt>
      <trkpt lat="45.98568" lon="4.86677">
        <ele>276</ele>
        <time>2016-12-10T13:48:10Z</time>
      </trkpt>
      <trkpt lat="45.98568" lon="4.86684">
        <ele>277</ele>
        <time>2016-12-10T13:48:11Z</time>
      </trkpt>
      <trkpt lat="45.98569" lon="4.86692">
        <ele>277</ele>
        <time>2016-12-10T13:48:12Z</time>
      </trkpt>
      <trkpt lat="45.98569" lon="4.86699">
        <ele>277</ele>
        <time>2016-12-10T13:48:13Z</time>
      </trkpt>
      <trkpt lat="45.9857" lon="4.86706">
        <ele>277</ele>
        <time>2016-12-10T13:48:14Z</time>
      </trkpt>
      <trkpt lat="45.9857" lon="4.86713">
        <ele>277</ele>
        <time>2016-12-10T13:48:15Z</time>
      </trkpt>
      <trkpt lat="45.9857" lon="4.8672">
        <ele>277</ele>
        <time>2016-12-10T13:48:16Z</time>
      </trkpt>
      <trkpt lat="45.98571" lon="4.86727">
        <ele>277</ele>
        <time>2016-12-10T13:48:17Z</time>
      </trkpt>
      <trkpt lat="45.98572" lon="4.86734">
        <ele>277</ele>
        <time>2016-12-10T13:48:18Z</time>
      </trkpt>
      <trkpt lat="45.98573" lon="4.86741">
        <ele>277</ele>
        <time>2016-12-10T13:48:19Z</time>
      </trkpt>
      <trkpt lat="45.98574" lon="4.86748">
        <ele>276</ele>
        <time>2016-12-10T13:48:20Z</time>
      </trkpt>
      <trkpt lat="45.98575" lon="4.86756">
        <ele>277</ele>
        <time>2016-12-10T13:48:21Z</time>
      </trkpt>
      <trkpt lat="45.98577" lon="4.86763">
        <ele>277</ele>
        <time>2016-12-10T13:48:22Z</time>
      </trkpt>
      <trkpt lat="45.98578" lon="4.86771">
        <ele>277</ele>
        <time>2016-12-10T13:48:23Z</time>
      </trkpt>
      <trkpt lat="45.98579" lon="4.86778">
        <ele>277</ele>
        <time>2016-12-10T13:48:24Z</time>
      </trkpt>
      <trkpt lat="45.9858" lon="4.86785">
        <ele>277</ele>
        <time>2016-12-10T13:48:25Z</time>
      </trkpt>
      <trkpt lat="45.98581" lon="4.86791">
        <ele>277</ele>
        <time>2016-12-10T13:48:26Z</time>
      </trkpt>
      <trkpt lat="45.98583" lon="4.86798">
        <ele>277</ele>
        <time>2016-12-10T13:48:27Z</time>
      </trkpt>
      <trkpt lat="45.98584" lon="4.86805">
        <ele>276</ele>
        <time>2016-12-10T13:48:28Z</time>
      </trkpt>
      <trkpt lat="45.98585" lon="4.86811">
        <ele>276</ele>
        <time>2016-12-10T13:48:29Z</time>
      </trkpt>
      <trkpt lat="45.98586" lon="4.86817">
        <ele>276</ele>
        <time>2016-12-10T13:48:30Z</time>
      </trkpt>
      <trkpt lat="45.98585" lon="4.86825">
        <ele>277</ele>
        <time>2016-12-10T13:48:31Z</time>
      </trkpt>
      <trkpt lat="45.98585" lon="4.86831">
        <ele>277</ele>
        <time>2016-12-10T13:48:32Z</time>
      </trkpt>
      <trkpt lat="45.98586" lon="4.86838">
        <ele>277</ele>
        <time>2016-12-10T13:48:33Z</time>
      </trkpt>
      <trkpt lat="45.98585" lon="4.86845">
        <ele>277</ele>
        <time>2016-12-10T13:48:34Z</time>
      </trkpt>
      <trkpt lat="45.98585" lon="4.86853">
        <ele>277</ele>
        <time>2016-12-10T13:48:35Z</time>
      </trkpt>
      <trkpt lat="45.98585" lon="4.8686">
        <ele>277</ele>
        <time>2016-12-10T13:48:36Z</time>
      </trkpt>
      <trkpt lat="45.98585" lon="4.86868">
        <ele>277</ele>
        <time>2016-12-10T13:48:37Z</time>
      </trkpt>
      <trkpt lat="45.98585" lon="4.86876">
        <ele>277</ele>
        <time>2016-12-10T13:48:38Z</time>
      </trkpt>
      <trkpt lat="45.98585" lon="4.86884">
        <ele>278</ele>
        <time>2016-12-10T13:48:39Z</time>
      </trkpt>
      <trkpt lat="45.98585" lon="4.86891">
        <ele>278</ele>
        <time>2016-12-10T13:48:40Z</time>
      </trkpt>
      <trkpt lat="45.98585" lon="4.86899">
        <ele>278</ele>
        <time>2016-12-10T13:48:41Z</time>
      </trkpt>
      <trkpt lat="45.98585" lon="4.86907">
        <ele>278</ele>
        <time>2016-12-10T13:48:42Z</time>
      </trkpt>
      <trkpt lat="45.98584" lon="4.86914">
        <ele>279</ele>
        <time>2016-12-10T13:48:43Z</time>
      </trkpt>
      <trkpt lat="45.98584" lon="4.86922">
        <ele>279</ele>
        <time>2016-12-10T13:48:44Z</time>
      </trkpt>
      <trkpt lat="45.98584" lon="4.8693">
        <ele>279</ele>
        <time>2016-12-10T13:48:45Z</time>
      </trkpt>
      <trkpt lat="45.98584" lon="4.86938">
        <ele>279</ele>
        <time>2016-12-10T13:48:46Z</time>
      </trkpt>
      <trkpt lat="45.98584" lon="4.86945">
        <ele>279</ele>
        <time>2016-12-10T13:48:47Z</time>
      </trkpt>
      <trkpt lat="45.98584" lon="4.86952">
        <ele>279</ele>
        <time>2016-12-10T13:48:48Z</time>
      </trkpt>
      <trkpt lat="45.98585" lon="4.86961">
        <ele>279</ele>
        <time>2016-12-10T13:48:49Z</time>
      </trkpt>
      <trkpt lat="45.98585" lon="4.86969">
        <ele>279</ele>
        <time>2016-12-10T13:48:50Z</time>
      </trkpt>
      <trkpt lat="45.98586" lon="4.86977">
        <ele>279</ele>
        <time>2016-12-10T13:48:51Z</time>
      </trkpt>
      <trkpt lat="45.98587" lon="4.86985">
        <ele>279</ele>
        <time>2016-12-10T13:48:52Z</time>
      </trkpt>
      <trkpt lat="45.98588" lon="4.86993">
        <ele>279</ele>
        <time>2016-12-10T13:48:53Z</time>
      </trkpt>
      <trkpt lat="45.98589" lon="4.87001">
        <ele>280</ele>
        <time>2016-12-10T13:48:54Z</time>
      </trkpt>
      <trkpt lat="45.98591" lon="4.87009">
        <ele>279</ele>
        <time>2016-12-10T13:48:55Z</time>
      </trkpt>
      <trkpt lat="45.98592" lon="4.87017">
        <ele>279</ele>
        <time>2016-12-10T13:48:56Z</time>
      </trkpt>
      <trkpt lat="45.98594" lon="4.87026">
        <ele>279</ele>
        <time>2016-12-10T13:48:57Z</time>
      </trkpt>
      <trkpt lat="45.98596" lon="4.87034">
        <ele>279</ele>
        <time>2016-12-10T13:48:58Z</time>
      </trkpt>
      <trkpt lat="45.98597" lon="4.87042">
        <ele>279</ele>
        <time>2016-12-10T13:48:59Z</time>
      </trkpt>
      <trkpt lat="45.98599" lon="4.8705">
        <ele>279</ele>
        <time>2016-12-10T13:49:00Z</time>
      </trkpt>
      <trkpt lat="45.986" lon="4.87057">
        <ele>279</ele>
        <time>2016-12-10T13:49:01Z</time>
      </trkpt>
      <trkpt lat="45.98602" lon="4.87064">
        <ele>279</ele>
        <time>2016-12-10T13:49:02Z</time>
      </trkpt>
      <trkpt lat="45.98603" lon="4.87069">
        <ele>279</ele>
        <time>2016-12-10T13:49:03Z</time>
      </trkpt>
      <trkpt lat="45.98604" lon="4.87077">
        <ele>279</ele>
        <time>2016-12-10T13:49:04Z</time>
      </trkpt>
      <trkpt lat="45.98605" lon="4.87085">
        <ele>279</ele>
        <time>2016-12-10T13:49:05Z</time>
      </trkpt>
      <trkpt lat="45.98606" lon="4.87092">
        <ele>279</ele>
        <time>2016-12-10T13:49:06Z</time>
      </trkpt>
      <trkpt lat="45.98607" lon="4.87099">
        <ele>279</ele>
        <time>2016-12-10T13:49:07Z</time>
      </trkpt>
      <trkpt lat="45.98608" lon="4.87108">
        <ele>279</ele>
        <time>2016-12-10T13:49:08Z</time>
      </trkpt>
      <trkpt lat="45.98608" lon="4.87117">
        <ele>279</ele>
        <time>2016-12-10T13:49:09Z</time>
      </trkpt>
      <trkpt lat="45.98609" lon="4.87126">
        <ele>279</ele>
        <time>2016-12-10T13:49:10Z</time>
      </trkpt>
      <trkpt lat="45.98608" lon="4.87134">
        <ele>279</ele>
        <time>2016-12-10T13:49:11Z</time>
      </trkpt>
      <trkpt lat="45.98608" lon="4.87143">
        <ele>278</ele>
        <time>2016-12-10T13:49:12Z</time>
      </trkpt>
      <trkpt lat="45.98608" lon="4.87152">
        <ele>278</ele>
        <time>2016-12-10T13:49:13Z</time>
      </trkpt>
      <trkpt lat="45.98608" lon="4.87161">
        <ele>278</ele>
        <time>2016-12-10T13:49:14Z</time>
      </trkpt>
      <trkpt lat="45.98607" lon="4.87169">
        <ele>277</ele>
        <time>2016-12-10T13:49:15Z</time>
      </trkpt>
      <trkpt lat="45.98607" lon="4.87178">
        <ele>277</ele>
        <time>2016-12-10T13:49:16Z</time>
      </trkpt>
      <trkpt lat="45.98607" lon="4.87186">
        <ele>277</ele>
        <time>2016-12-10T13:49:17Z</time>
      </trkpt>
      <trkpt lat="45.98606" lon="4.87195">
        <ele>277</ele>
        <time>2016-12-10T13:49:18Z</time>
      </trkpt>
      <trkpt lat="45.98606" lon="4.87204">
        <ele>277</ele>
        <time>2016-12-10T13:49:19Z</time>
      </trkpt>
      <trkpt lat="45.98605" lon="4.87213">
        <ele>277</ele>
        <time>2016-12-10T13:49:20Z</time>
      </trkpt>
      <trkpt lat="45.98604" lon="4.87222">
        <ele>277</ele>
        <time>2016-12-10T13:49:21Z</time>
      </trkpt>
      <trkpt lat="45.98604" lon="4.87231">
        <ele>277</ele>
        <time>2016-12-10T13:49:22Z</time>
      </trkpt>
      <trkpt lat="45.98603" lon="4.8724">
        <ele>277</ele>
        <time>2016-12-10T13:49:23Z</time>
      </trkpt>
      <trkpt lat="45.98602" lon="4.8725">
        <ele>277</ele>
        <time>2016-12-10T13:49:24Z</time>
      </trkpt>
      <trkpt lat="45.98601" lon="4.8726">
        <ele>275</ele>
        <time>2016-12-10T13:49:25Z</time>
      </trkpt>
      <trkpt lat="45.98601" lon="4.87269">
        <ele>275</ele>
        <time>2016-12-10T13:49:26Z</time>
      </trkpt>
      <trkpt lat="45.98601" lon="4.87278">
        <ele>275</ele>
        <time>2016-12-10T13:49:27Z</time>
      </trkpt>
      <trkpt lat="45.986" lon="4.87288">
        <ele>275</ele>
        <time>2016-12-10T13:49:28Z</time>
      </trkpt>
      <trkpt lat="45.986" lon="4.87297">
        <ele>275</ele>
        <time>2016-12-10T13:49:29Z</time>
      </trkpt>
      <trkpt lat="45.986" lon="4.87306">
        <ele>274</ele>
        <time>2016-12-10T13:49:30Z</time>
      </trkpt>
      <trkpt lat="45.98601" lon="4.87315">
        <ele>274</ele>
        <time>2016-12-10T13:49:31Z</time>
      </trkpt>
      <trkpt lat="45.98603" lon="4.87325">
        <ele>274</ele>
        <time>2016-12-10T13:49:32Z</time>
      </trkpt>
      <trkpt lat="45.98604" lon="4.87335">
        <ele>272</ele>
        <time>2016-12-10T13:49:33Z</time>
      </trkpt>
      <trkpt lat="45.98604" lon="4.87344">
        <ele>272</ele>
        <time>2016-12-10T13:49:34Z</time>
      </trkpt>
      <trkpt lat="45.98606" lon="4.87354">
        <ele>272</ele>
        <time>2016-12-10T13:49:35Z</time>
      </trkpt>
      <trkpt lat="45.98608" lon="4.87364">
        <ele>272</ele>
        <time>2016-12-10T13:49:36Z</time>
      </trkpt>
      <trkpt lat="45.98611" lon="4.87374">
        <ele>271</ele>
        <time>2016-12-10T13:49:37Z</time>
      </trkpt>
      <trkpt lat="45.98613" lon="4.87384">
        <ele>271</ele>
        <time>2016-12-10T13:49:38Z</time>
      </trkpt>
      <trkpt lat="45.98615" lon="4.87395">
        <ele>271</ele>
        <time>2016-12-10T13:49:39Z</time>
      </trkpt>
      <trkpt lat="45.98617" lon="4.87405">
        <ele>271</ele>
        <time>2016-12-10T13:49:40Z</time>
      </trkpt>
      <trkpt lat="45.98619" lon="4.87415">
        <ele>271</ele>
        <time>2016-12-10T13:49:41Z</time>
      </trkpt>
      <trkpt lat="45.98621" lon="4.87426">
        <ele>269</ele>
        <time>2016-12-10T13:49:42Z</time>
      </trkpt>
      <trkpt lat="45.98623" lon="4.87436">
        <ele>269</ele>
        <time>2016-12-10T13:49:43Z</time>
      </trkpt>
      <trkpt lat="45.98625" lon="4.87446">
        <ele>268</ele>
        <time>2016-12-10T13:49:44Z</time>
      </trkpt>
      <trkpt lat="45.98627" lon="4.87457">
        <ele>268</ele>
        <time>2016-12-10T13:49:45Z</time>
      </trkpt>
      <trkpt lat="45.98629" lon="4.87468">
        <ele>268</ele>
        <time>2016-12-10T13:49:46Z</time>
      </trkpt>
      <trkpt lat="45.98631" lon="4.87479">
        <ele>268</ele>
        <time>2016-12-10T13:49:47Z</time>
      </trkpt>
      <trkpt lat="45.98633" lon="4.87489">
        <ele>268</ele>
        <time>2016-12-10T13:49:48Z</time>
      </trkpt>
      <trkpt lat="45.98635" lon="4.875">
        <ele>267</ele>
        <time>2016-12-10T13:49:49Z</time>
      </trkpt>
      <trkpt lat="45.98637" lon="4.8751">
        <ele>267</ele>
        <time>2016-12-10T13:49:50Z</time>
      </trkpt>
      <trkpt lat="45.98639" lon="4.8752">
        <ele>267</ele>
        <time>2016-12-10T13:49:51Z</time>
      </trkpt>
      <trkpt lat="45.98641" lon="4.8753">
        <ele>267</ele>
        <time>2016-12-10T13:49:52Z</time>
      </trkpt>
      <trkpt lat="45.98643" lon="4.87539">
        <ele>267</ele>
        <time>2016-12-10T13:49:53Z</time>
      </trkpt>
      <trkpt lat="45.98646" lon="4.87547">
        <ele>267</ele>
        <time>2016-12-10T13:49:54Z</time>
      </trkpt>
      <trkpt lat="45.9865" lon="4.87555">
        <ele>267</ele>
        <time>2016-12-10T13:49:55Z</time>
      </trkpt>
      <trkpt lat="45.98654" lon="4.87561">
        <ele>267</ele>
        <time>2016-12-10T13:49:56Z</time>
      </trkpt>
      <trkpt lat="45.9866" lon="4.87565">
        <ele>267</ele>
        <time>2016-12-10T13:49:57Z</time>
      </trkpt>
      <trkpt lat="45.98666" lon="4.87568">
        <ele>267</ele>
        <time>2016-12-10T13:49:58Z</time>
      </trkpt>
      <trkpt lat="45.98672" lon="4.87569">
        <ele>267</ele>
        <time>2016-12-10T13:49:59Z</time>
      </trkpt>
      <trkpt lat="45.98677" lon="4.87568">
        <ele>267</ele>
        <time>2016-12-10T13:50:00Z</time>
      </trkpt>
      <trkpt lat="45.98682" lon="4.87568">
        <ele>267</ele>
        <time>2016-12-10T13:50:01Z</time>
      </trkpt>
      <trkpt lat="45.98686" lon="4.87567">
        <ele>267</ele>
        <time>2016-12-10T13:50:02Z</time>
      </trkpt>
      <trkpt lat="45.98695" lon="4.87565">
        <ele>267</ele>
        <time>2016-12-10T13:50:04Z</time>
      </trkpt>
      <trkpt lat="45.987" lon="4.87565">
        <ele>267</ele>
        <time>2016-12-10T13:50:05Z</time>
      </trkpt>
      <trkpt lat="45.98705" lon="4.87564">
        <ele>267</ele>
        <time>2016-12-10T13:50:06Z</time>
      </trkpt>
      <trkpt lat="45.9871" lon="4.87563">
        <ele>267</ele>
        <time>2016-12-10T13:50:07Z</time>
      </trkpt>
      <trkpt lat="45.98715" lon="4.87562">
        <ele>267</ele>
        <time>2016-12-10T13:50:08Z</time>
      </trkpt>
      <trkpt lat="45.9872" lon="4.87561">
        <ele>267</ele>
        <time>2016-12-10T13:50:09Z</time>
      </trkpt>
      <trkpt lat="45.98725" lon="4.8756">
        <ele>267</ele>
        <time>2016-12-10T13:50:10Z</time>
      </trkpt>
      <trkpt lat="45.98731" lon="4.87559">
        <ele>267</ele>
        <time>2016-12-10T13:50:11Z</time>
      </trkpt>
      <trkpt lat="45.98736" lon="4.87559">
        <ele>267</ele>
        <time>2016-12-10T13:50:12Z</time>
      </trkpt>
      <trkpt lat="45.98741" lon="4.8756">
        <ele>267</ele>
        <time>2016-12-10T13:50:13Z</time>
      </trkpt>
      <trkpt lat="45.98746" lon="4.87561">
        <ele>267</ele>
        <time>2016-12-10T13:50:14Z</time>
      </trkpt>
      <trkpt lat="45.98751" lon="4.87562">
        <ele>269</ele>
        <time>2016-12-10T13:50:15Z</time>
      </trkpt>
      <trkpt lat="45.98755" lon="4.87564">
        <ele>269</ele>
        <time>2016-12-10T13:50:16Z</time>
      </trkpt>
      <trkpt lat="45.9876" lon="4.87566">
        <ele>269</ele>
        <time>2016-12-10T13:50:17Z</time>
      </trkpt>
      <trkpt lat="45.98764" lon="4.87567">
        <ele>269</ele>
        <time>2016-12-10T13:50:18Z</time>
      </trkpt>
      <trkpt lat="45.98769" lon="4.8757">
        <ele>269</ele>
        <time>2016-12-10T13:50:19Z</time>
      </trkpt>
      <trkpt lat="45.98773" lon="4.87574">
        <ele>269</ele>
        <time>2016-12-10T13:50:20Z</time>
      </trkpt>
      <trkpt lat="45.98778" lon="4.87578">
        <ele>269</ele>
        <time>2016-12-10T13:50:21Z</time>
      </trkpt>
      <trkpt lat="45.98782" lon="4.87582">
        <ele>269</ele>
        <time>2016-12-10T13:50:22Z</time>
      </trkpt>
      <trkpt lat="45.98786" lon="4.87587">
        <ele>271</ele>
        <time>2016-12-10T13:50:23Z</time>
      </trkpt>
      <trkpt lat="45.9879" lon="4.87591">
        <ele>271</ele>
        <time>2016-12-10T13:50:24Z</time>
      </trkpt>
      <trkpt lat="45.98794" lon="4.87595">
        <ele>271</ele>
        <time>2016-12-10T13:50:25Z</time>
      </trkpt>
      <trkpt lat="45.98797" lon="4.87599">
        <ele>271</ele>
        <time>2016-12-10T13:50:26Z</time>
      </trkpt>
      <trkpt lat="45.98801" lon="4.87604">
        <ele>271</ele>
        <time>2016-12-10T13:50:27Z</time>
      </trkpt>
      <trkpt lat="45.98806" lon="4.87614">
        <ele>271</ele>
        <time>2016-12-10T13:50:29Z</time>
      </trkpt>
      <trkpt lat="45.98808" lon="4.8762">
        <ele>271</ele>
        <time>2016-12-10T13:50:30Z</time>
      </trkpt>
      <trkpt lat="45.98811" lon="4.87632">
        <ele>271</ele>
        <time>2016-12-10T13:50:32Z</time>
      </trkpt>
      <trkpt lat="45.98813" lon="4.87638">
        <ele>272</ele>
        <time>2016-12-10T13:50:33Z</time>
      </trkpt>
      <trkpt lat="45.98815" lon="4.87645">
        <ele>272</ele>
        <time>2016-12-10T13:50:34Z</time>
      </trkpt>
      <trkpt lat="45.98817" lon="4.87651">
        <ele>272</ele>
        <time>2016-12-10T13:50:35Z</time>
      </trkpt>
      <trkpt lat="45.98818" lon="4.87658">
        <ele>272</ele>
        <time>2016-12-10T13:50:36Z</time>
      </trkpt>
      <trkpt lat="45.9882" lon="4.87663">
        <ele>272</ele>
        <time>2016-12-10T13:50:37Z</time>
      </trkpt>
      <trkpt lat="45.98822" lon="4.87675">
        <ele>273</ele>
        <time>2016-12-10T13:50:39Z</time>
      </trkpt>
      <trkpt lat="45.98824" lon="4.87682">
        <ele>273</ele>
        <time>2016-12-10T13:50:40Z</time>
      </trkpt>
      <trkpt lat="45.98826" lon="4.87689">
        <ele>273</ele>
        <time>2016-12-10T13:50:41Z</time>
      </trkpt>
      <trkpt lat="45.98827" lon="4.87696">
        <ele>273</ele>
        <time>2016-12-10T13:50:42Z</time>
      </trkpt>
      <trkpt lat="45.9883" lon="4.87703">
        <ele>273</ele>
        <time>2016-12-10T13:50:43Z</time>
      </trkpt>
      <trkpt lat="45.98831" lon="4.87709">
        <ele>273</ele>
        <time>2016-12-10T13:50:44Z</time>
      </trkpt>
      <trkpt lat="45.98833" lon="4.87716">
        <ele>273</ele>
        <time>2016-12-10T13:50:45Z</time>
      </trkpt>
      <trkpt lat="45.98834" lon="4.87722">
        <ele>273</ele>
        <time>2016-12-10T13:50:46Z</time>
      </trkpt>
      <trkpt lat="45.98836" lon="4.87728">
        <ele>273</ele>
        <time>2016-12-10T13:50:47Z</time>
      </trkpt>
      <trkpt lat="45.98837" lon="4.87734">
        <ele>273</ele>
        <time>2016-12-10T13:50:48Z</time>
      </trkpt>
      <trkpt lat="45.98839" lon="4.87741">
        <ele>273</ele>
        <time>2016-12-10T13:50:49Z</time>
      </trkpt>
      <trkpt lat="45.98841" lon="4.87748">
        <ele>273</ele>
        <time>2016-12-10T13:50:50Z</time>
      </trkpt>
      <trkpt lat="45.98842" lon="4.87754">
        <ele>273</ele>
        <time>2016-12-10T13:50:51Z</time>
      </trkpt>
      <trkpt lat="45.98843" lon="4.87761">
        <ele>273</ele>
        <time>2016-12-10T13:50:52Z</time>
      </trkpt>
      <trkpt lat="45.98845" lon="4.87768">
        <ele>273</ele>
        <time>2016-12-10T13:50:53Z</time>
      </trkpt>
      <trkpt lat="45.98847" lon="4.87774">
        <ele>273</ele>
        <time>2016-12-10T13:50:54Z</time>
      </trkpt>
      <trkpt lat="45.98848" lon="4.8778">
        <ele>273</ele>
        <time>2016-12-10T13:50:55Z</time>
      </trkpt>
      <trkpt lat="45.9885" lon="4.87786">
        <ele>273</ele>
        <time>2016-12-10T13:50:56Z</time>
      </trkpt>
      <trkpt lat="45.98852" lon="4.87792">
        <ele>273</ele>
        <time>2016-12-10T13:50:57Z</time>
      </trkpt>
      <trkpt lat="45.98854" lon="4.87798">
        <ele>273</ele>
        <time>2016-12-10T13:50:58Z</time>
      </trkpt>
      <trkpt lat="45.98858" lon="4.87809">
        <ele>273</ele>
        <time>2016-12-10T13:51:00Z</time>
      </trkpt>
      <trkpt lat="45.9886" lon="4.87814">
        <ele>273</ele>
        <time>2016-12-10T13:51:01Z</time>
      </trkpt>
      <trkpt lat="45.98865" lon="4.87825">
        <ele>273</ele>
        <time>2016-12-10T13:51:03Z</time>
      </trkpt>
      <trkpt lat="45.98867" lon="4.8783">
        <ele>273</ele>
        <time>2016-12-10T13:51:04Z</time>
      </trkpt>
      <trkpt lat="45.98871" lon="4.87841">
        <ele>273</ele>
        <time>2016-12-10T13:51:06Z</time>
      </trkpt>
      <trkpt lat="45.98873" lon="4.87847">
        <ele>273</ele>
        <time>2016-12-10T13:51:07Z</time>
      </trkpt>
      <trkpt lat="45.98879" lon="4.87856">
        <ele>272</ele>
        <time>2016-12-10T13:51:09Z</time>
      </trkpt>
      <trkpt lat="45.98882" lon="4.87861">
        <ele>272</ele>
        <time>2016-12-10T13:51:10Z</time>
      </trkpt>
      <trkpt lat="45.98887" lon="4.8787">
        <ele>272</ele>
        <time>2016-12-10T13:51:12Z</time>
      </trkpt>
      <trkpt lat="45.9889" lon="4.87875">
        <ele>272</ele>
        <time>2016-12-10T13:51:13Z</time>
      </trkpt>
      <trkpt lat="45.98896" lon="4.87883">
        <ele>272</ele>
        <time>2016-12-10T13:51:15Z</time>
      </trkpt>
      <trkpt lat="45.989" lon="4.87888">
        <ele>272</ele>
        <time>2016-12-10T13:51:16Z</time>
      </trkpt>
      <trkpt lat="45.98906" lon="4.87896">
        <ele>272</ele>
        <time>2016-12-10T13:51:18Z</time>
      </trkpt>
      <trkpt lat="45.9891" lon="4.879">
        <ele>272</ele>
        <time>2016-12-10T13:51:19Z</time>
      </trkpt>
      <trkpt lat="45.98917" lon="4.87906">
        <ele>272</ele>
        <time>2016-12-10T13:51:21Z</time>
      </trkpt>
      <trkpt lat="45.9892" lon="4.87909">
        <ele>272</ele>
        <time>2016-12-10T13:51:22Z</time>
      </trkpt>
      <trkpt lat="45.98927" lon="4.87914">
        <ele>272</ele>
        <time>2016-12-10T13:51:24Z</time>
      </trkpt>
      <trkpt lat="45.9893" lon="4.87916">
        <ele>273</ele>
        <time>2016-12-10T13:51:25Z</time>
      </trkpt>
      <trkpt lat="45.98937" lon="4.87921">
        <ele>272</ele>
        <time>2016-12-10T13:51:27Z</time>
      </trkpt>
      <trkpt lat="45.98941" lon="4.87923">
        <ele>273</ele>
        <time>2016-12-10T13:51:28Z</time>
      </trkpt>
      <trkpt lat="45.98947" lon="4.87927">
        <ele>273</ele>
        <time>2016-12-10T13:51:30Z</time>
      </trkpt>
      <trkpt lat="45.98951" lon="4.87928">
        <ele>273</ele>
        <time>2016-12-10T13:51:31Z</time>
      </trkpt>
      <trkpt lat="45.98958" lon="4.87932">
        <ele>273</ele>
        <time>2016-12-10T13:51:33Z</time>
      </trkpt>
      <trkpt lat="45.98961" lon="4.87933">
        <ele>273</ele>
        <time>2016-12-10T13:51:34Z</time>
      </trkpt>
      <trkpt lat="45.98968" lon="4.87936">
        <ele>274</ele>
        <time>2016-12-10T13:51:36Z</time>
      </trkpt>
      <trkpt lat="45.9897" lon="4.87938">
        <ele>274</ele>
        <time>2016-12-10T13:51:37Z</time>
      </trkpt>
      <trkpt lat="45.98976" lon="4.87942">
        <ele>274</ele>
        <time>2016-12-10T13:51:39Z</time>
      </trkpt>
      <trkpt lat="45.98979" lon="4.87944">
        <ele>274</ele>
        <time>2016-12-10T13:51:40Z</time>
      </trkpt>
      <trkpt lat="45.98986" lon="4.87948">
        <ele>274</ele>
        <time>2016-12-10T13:51:42Z</time>
      </trkpt>
      <trkpt lat="45.98989" lon="4.87949">
        <ele>274</ele>
        <time>2016-12-10T13:51:43Z</time>
      </trkpt>
      <trkpt lat="45.98995" lon="4.87951">
        <ele>274</ele>
        <time>2016-12-10T13:51:45Z</time>
      </trkpt>
      <trkpt lat="45.98998" lon="4.87952">
        <ele>274</ele>
        <time>2016-12-10T13:51:46Z</time>
      </trkpt>
      <trkpt lat="45.99005" lon="4.87956">
        <ele>276</ele>
        <time>2016-12-10T13:51:48Z</time>
      </trkpt>
      <trkpt lat="45.99008" lon="4.87958">
        <ele>276</ele>
        <time>2016-12-10T13:51:49Z</time>
      </trkpt>
      <trkpt lat="45.99015" lon="4.87962">
        <ele>276</ele>
        <time>2016-12-10T13:51:51Z</time>
      </trkpt>
      <trkpt lat="45.99018" lon="4.87965">
        <ele>276</ele>
        <time>2016-12-10T13:51:52Z</time>
      </trkpt>
      <trkpt lat="45.99025" lon="4.8797">
        <ele>276</ele>
        <time>2016-12-10T13:51:54Z</time>
      </trkpt>
      <trkpt lat="45.99028" lon="4.87972">
        <ele>276</ele>
        <time>2016-12-10T13:51:55Z</time>
      </trkpt>
      <trkpt lat="45.99034" lon="4.87976">
        <ele>276</ele>
        <time>2016-12-10T13:51:57Z</time>
      </trkpt>
      <trkpt lat="45.99037" lon="4.87978">
        <ele>276</ele>
        <time>2016-12-10T13:51:58Z</time>
      </trkpt>
      <trkpt lat="45.99044" lon="4.87983">
        <ele>277</ele>
        <time>2016-12-10T13:52:00Z</time>
      </trkpt>
      <trkpt lat="45.99047" lon="4.87985">
        <ele>277</ele>
        <time>2016-12-10T13:52:01Z</time>
      </trkpt>
      <trkpt lat="45.99054" lon="4.87989">
        <ele>277</ele>
        <time>2016-12-10T13:52:03Z</time>
      </trkpt>
      <trkpt lat="45.99057" lon="4.87991">
        <ele>277</ele>
        <time>2016-12-10T13:52:04Z</time>
      </trkpt>
      <trkpt lat="45.99065" lon="4.87995">
        <ele>277</ele>
        <time>2016-12-10T13:52:06Z</time>
      </trkpt>
      <trkpt lat="45.99069" lon="4.87997">
        <ele>277</ele>
        <time>2016-12-10T13:52:07Z</time>
      </trkpt>
      <trkpt lat="45.99076" lon="4.88003">
        <ele>278</ele>
        <time>2016-12-10T13:52:09Z</time>
      </trkpt>
      <trkpt lat="45.9908" lon="4.88004">
        <ele>278</ele>
        <time>2016-12-10T13:52:10Z</time>
      </trkpt>
      <trkpt lat="45.99088" lon="4.88008">
        <ele>278</ele>
        <time>2016-12-10T13:52:12Z</time>
      </trkpt>
      <trkpt lat="45.99091" lon="4.88011">
        <ele>278</ele>
        <time>2016-12-10T13:52:13Z</time>
      </trkpt>
      <trkpt lat="45.99098" lon="4.88015">
        <ele>278</ele>
        <time>2016-12-10T13:52:15Z</time>
      </trkpt>
      <trkpt lat="45.99101" lon="4.88017">
        <ele>278</ele>
        <time>2016-12-10T13:52:16Z</time>
      </trkpt>
      <trkpt lat="45.99108" lon="4.88021">
        <ele>278</ele>
        <time>2016-12-10T13:52:18Z</time>
      </trkpt>
      <trkpt lat="45.99111" lon="4.88023">
        <ele>278</ele>
        <time>2016-12-10T13:52:19Z</time>
      </trkpt>
      <trkpt lat="45.99118" lon="4.88026">
        <ele>278</ele>
        <time>2016-12-10T13:52:21Z</time>
      </trkpt>
      <trkpt lat="45.99122" lon="4.88028">
        <ele>278</ele>
        <time>2016-12-10T13:52:22Z</time>
      </trkpt>
      <trkpt lat="45.99128" lon="4.88032">
        <ele>279</ele>
        <time>2016-12-10T13:52:24Z</time>
      </trkpt>
      <trkpt lat="45.99131" lon="4.88035">
        <ele>279</ele>
        <time>2016-12-10T13:52:25Z</time>
      </trkpt>
      <trkpt lat="45.99138" lon="4.88038">
        <ele>279</ele>
        <time>2016-12-10T13:52:27Z</time>
      </trkpt>
      <trkpt lat="45.99141" lon="4.8804">
        <ele>279</ele>
        <time>2016-12-10T13:52:28Z</time>
      </trkpt>
      <trkpt lat="45.99148" lon="4.88045">
        <ele>279</ele>
        <time>2016-12-10T13:52:30Z</time>
      </trkpt>
      <trkpt lat="45.99152" lon="4.88047">
        <ele>279</ele>
        <time>2016-12-10T13:52:31Z</time>
      </trkpt>
      <trkpt lat="45.99159" lon="4.88052">
        <ele>279</ele>
        <time>2016-12-10T13:52:33Z</time>
      </trkpt>
      <trkpt lat="45.99162" lon="4.88054">
        <ele>279</ele>
        <time>2016-12-10T13:52:34Z</time>
      </trkpt>
      <trkpt lat="45.9917" lon="4.88059">
        <ele>279</ele>
        <time>2016-12-10T13:52:36Z</time>
      </trkpt>
      <trkpt lat="45.99173" lon="4.88061">
        <ele>279</ele>
        <time>2016-12-10T13:52:37Z</time>
      </trkpt>
      <trkpt lat="45.9918" lon="4.88067">
        <ele>279</ele>
        <time>2016-12-10T13:52:39Z</time>
      </trkpt>
      <trkpt lat="45.99184" lon="4.8807">
        <ele>279</ele>
        <time>2016-12-10T13:52:40Z</time>
      </trkpt>
      <trkpt lat="45.99191" lon="4.88075">
        <ele>280</ele>
        <time>2016-12-10T13:52:42Z</time>
      </trkpt>
      <trkpt lat="45.99194" lon="4.88078">
        <ele>280</ele>
        <time>2016-12-10T13:52:43Z</time>
      </trkpt>
      <trkpt lat="45.99201" lon="4.88085">
        <ele>280</ele>
        <time>2016-12-10T13:52:45Z</time>
      </trkpt>
      <trkpt lat="45.99204" lon="4.88088">
        <ele>280</ele>
        <time>2016-12-10T13:52:46Z</time>
      </trkpt>
      <trkpt lat="45.9921" lon="4.88094">
        <ele>280</ele>
        <time>2016-12-10T13:52:48Z</time>
      </trkpt>
      <trkpt lat="45.99213" lon="4.88097">
        <ele>280</ele>
        <time>2016-12-10T13:52:49Z</time>
      </trkpt>
      <trkpt lat="45.9922" lon="4.88103">
        <ele>280</ele>
        <time>2016-12-10T13:52:51Z</time>
      </trkpt>
      <trkpt lat="45.99223" lon="4.88107">
        <ele>280</ele>
        <time>2016-12-10T13:52:52Z</time>
      </trkpt>
      <trkpt lat="45.99231" lon="4.88113">
        <ele>280</ele>
        <time>2016-12-10T13:52:54Z</time>
      </trkpt>
      <trkpt lat="45.99234" lon="4.88116">
        <ele>280</ele>
        <time>2016-12-10T13:52:55Z</time>
      </trkpt>
      <trkpt lat="45.99241" lon="4.88122">
        <ele>280</ele>
        <time>2016-12-10T13:52:57Z</time>
      </trkpt>
      <trkpt lat="45.99244" lon="4.88125">
        <ele>280</ele>
        <time>2016-12-10T13:52:58Z</time>
      </trkpt>
      <trkpt lat="45.99251" lon="4.88131">
        <ele>283</ele>
        <time>2016-12-10T13:53:00Z</time>
      </trkpt>
      <trkpt lat="45.99254" lon="4.88134">
        <ele>283</ele>
        <time>2016-12-10T13:53:01Z</time>
      </trkpt>
      <trkpt lat="45.99261" lon="4.8814">
        <ele>283</ele>
        <time>2016-12-10T13:53:03Z</time>
      </trkpt>
      <trkpt lat="45.99265" lon="4.88143">
        <ele>283</ele>
        <time>2016-12-10T13:53:04Z</time>
      </trkpt>
      <trkpt lat="45.99272" lon="4.88149">
        <ele>283</ele>
        <time>2016-12-10T13:53:06Z</time>
      </trkpt>
      <trkpt lat="45.99275" lon="4.88152">
        <ele>283</ele>
        <time>2016-12-10T13:53:07Z</time>
      </trkpt>
      <trkpt lat="45.99283" lon="4.88158">
        <ele>284</ele>
        <time>2016-12-10T13:53:09Z</time>
      </trkpt>
      <trkpt lat="45.99286" lon="4.88161">
        <ele>284</ele>
        <time>2016-12-10T13:53:10Z</time>
      </trkpt>
      <trkpt lat="45.99293" lon="4.88168">
        <ele>284</ele>
        <time>2016-12-10T13:53:12Z</time>
      </trkpt>
      <trkpt lat="45.99297" lon="4.88172">
        <ele>284</ele>
        <time>2016-12-10T13:53:13Z</time>
      </trkpt>
      <trkpt lat="45.99304" lon="4.88178">
        <ele>285</ele>
        <time>2016-12-10T13:53:15Z</time>
      </trkpt>
      <trkpt lat="45.99308" lon="4.88182">
        <ele>285</ele>
        <time>2016-12-10T13:53:16Z</time>
      </trkpt>
      <trkpt lat="45.99315" lon="4.88188">
        <ele>285</ele>
        <time>2016-12-10T13:53:18Z</time>
      </trkpt>
      <trkpt lat="45.99318" lon="4.88191">
        <ele>285</ele>
        <time>2016-12-10T13:53:19Z</time>
      </trkpt>
      <trkpt lat="45.99325" lon="4.88198">
        <ele>285</ele>
        <time>2016-12-10T13:53:21Z</time>
      </trkpt>
      <trkpt lat="45.99329" lon="4.88201">
        <ele>285</ele>
        <time>2016-12-10T13:53:22Z</time>
      </trkpt>
      <trkpt lat="45.99336" lon="4.88208">
        <ele>287</ele>
        <time>2016-12-10T13:53:24Z</time>
      </trkpt>
      <trkpt lat="45.99339" lon="4.88211">
        <ele>287</ele>
        <time>2016-12-10T13:53:25Z</time>
      </trkpt>
      <trkpt lat="45.99347" lon="4.88217">
        <ele>287</ele>
        <time>2016-12-10T13:53:27Z</time>
      </trkpt>
      <trkpt lat="45.9935" lon="4.88221">
        <ele>287</ele>
        <time>2016-12-10T13:53:28Z</time>
      </trkpt>
      <trkpt lat="45.99357" lon="4.88228">
        <ele>287</ele>
        <time>2016-12-10T13:53:30Z</time>
      </trkpt>
      <trkpt lat="45.99361" lon="4.88232">
        <ele>287</ele>
        <time>2016-12-10T13:53:31Z</time>
      </trkpt>
      <trkpt lat="45.99365" lon="4.88235">
        <ele>287</ele>
        <time>2016-12-10T13:53:32Z</time>
      </trkpt>
      <trkpt lat="45.99369" lon="4.88239">
        <ele>287</ele>
        <time>2016-12-10T13:53:33Z</time>
      </trkpt>
      <trkpt lat="45.99375" lon="4.88247">
        <ele>287</ele>
        <time>2016-12-10T13:53:35Z</time>
      </trkpt>
      <trkpt lat="45.99378" lon="4.88251">
        <ele>285</ele>
        <time>2016-12-10T13:53:36Z</time>
      </trkpt>
      <trkpt lat="45.99383" lon="4.88261">
        <ele>285</ele>
        <time>2016-12-10T13:53:38Z</time>
      </trkpt>
      <trkpt lat="45.99386" lon="4.88266">
        <ele>285</ele>
        <time>2016-12-10T13:53:39Z</time>
      </trkpt>
      <trkpt lat="45.9939" lon="4.88276">
        <ele>284</ele>
        <time>2016-12-10T13:53:41Z</time>
      </trkpt>
      <trkpt lat="45.99392" lon="4.88281">
        <ele>284</ele>
        <time>2016-12-10T13:53:42Z</time>
      </trkpt>
      <trkpt lat="45.99396" lon="4.88292">
        <ele>284</ele>
        <time>2016-12-10T13:53:44Z</time>
      </trkpt>
      <trkpt lat="45.99398" lon="4.88297">
        <ele>284</ele>
        <time>2016-12-10T13:53:45Z</time>
      </trkpt>
      <trkpt lat="45.99403" lon="4.88307">
        <ele>283</ele>
        <time>2016-12-10T13:53:47Z</time>
      </trkpt>
      <trkpt lat="45.99405" lon="4.88312">
        <ele>283</ele>
        <time>2016-12-10T13:53:48Z</time>
      </trkpt>
      <trkpt lat="45.99409" lon="4.88323">
        <ele>283</ele>
        <time>2016-12-10T13:53:50Z</time>
      </trkpt>
      <trkpt lat="45.99411" lon="4.88329">
        <ele>282</ele>
        <time>2016-12-10T13:53:51Z</time>
      </trkpt>
      <trkpt lat="45.99414" lon="4.88334">
        <ele>282</ele>
        <time>2016-12-10T13:53:52Z</time>
      </trkpt>
      <trkpt lat="45.99416" lon="4.8834">
        <ele>282</ele>
        <time>2016-12-10T13:53:53Z</time>
      </trkpt>
      <trkpt lat="45.99418" lon="4.88346">
        <ele>282</ele>
        <time>2016-12-10T13:53:54Z</time>
      </trkpt>
      <trkpt lat="45.9942" lon="4.88352">
        <ele>283</ele>
        <time>2016-12-10T13:53:55Z</time>
      </trkpt>
      <trkpt lat="45.99422" lon="4.88358">
        <ele>283</ele>
        <time>2016-12-10T13:53:56Z</time>
      </trkpt>
      <trkpt lat="45.99424" lon="4.88363">
        <ele>283</ele>
        <time>2016-12-10T13:53:57Z</time>
      </trkpt>
      <trkpt lat="45.99427" lon="4.88369">
        <ele>283</ele>
        <time>2016-12-10T13:53:58Z</time>
      </trkpt>
      <trkpt lat="45.99429" lon="4.88375">
        <ele>283</ele>
        <time>2016-12-10T13:53:59Z</time>
      </trkpt>
      <trkpt lat="45.99432" lon="4.88381">
        <ele>283</ele>
        <time>2016-12-10T13:54:00Z</time>
      </trkpt>
      <trkpt lat="45.99434" lon="4.88387">
        <ele>283</ele>
        <time>2016-12-10T13:54:01Z</time>
      </trkpt>
      <trkpt lat="45.99437" lon="4.88392">
        <ele>283</ele>
        <time>2016-12-10T13:54:02Z</time>
      </trkpt>
      <trkpt lat="45.99441" lon="4.88398">
        <ele>283</ele>
        <time>2016-12-10T13:54:03Z</time>
      </trkpt>
      <trkpt lat="45.99444" lon="4.88402">
        <ele>283</ele>
        <time>2016-12-10T13:54:04Z</time>
      </trkpt>
      <trkpt lat="45.99448" lon="4.88407">
        <ele>283</ele>
        <time>2016-12-10T13:54:05Z</time>
      </trkpt>
      <trkpt lat="45.99452" lon="4.88411">
        <ele>283</ele>
        <time>2016-12-10T13:54:06Z</time>
      </trkpt>
      <trkpt lat="45.99456" lon="4.88415">
        <ele>283</ele>
        <time>2016-12-10T13:54:07Z</time>
      </trkpt>
      <trkpt lat="45.9946" lon="4.88418">
        <ele>284</ele>
        <time>2016-12-10T13:54:08Z</time>
      </trkpt>
      <trkpt lat="45.99465" lon="4.88422">
        <ele>284</ele>
        <time>2016-12-10T13:54:09Z</time>
      </trkpt>
      <trkpt lat="45.99469" lon="4.88426">
        <ele>284</ele>
        <time>2016-12-10T13:54:10Z</time>
      </trkpt>
      <trkpt lat="45.99473" lon="4.8843">
        <ele>284</ele>
        <time>2016-12-10T13:54:11Z</time>
      </trkpt>
      <trkpt lat="45.99476" lon="4.88435">
        <ele>284</ele>
        <time>2016-12-10T13:54:12Z</time>
      </trkpt>
      <trkpt lat="45.9948" lon="4.8844">
        <ele>284</ele>
        <time>2016-12-10T13:54:13Z</time>
      </trkpt>
      <trkpt lat="45.99483" lon="4.88445">
        <ele>284</ele>
        <time>2016-12-10T13:54:14Z</time>
      </trkpt>
      <trkpt lat="45.99487" lon="4.88451">
        <ele>284</ele>
        <time>2016-12-10T13:54:15Z</time>
      </trkpt>
      <trkpt lat="45.9949" lon="4.88456">
        <ele>284</ele>
        <time>2016-12-10T13:54:16Z</time>
      </trkpt>
      <trkpt lat="45.99493" lon="4.88461">
        <ele>284</ele>
        <time>2016-12-10T13:54:17Z</time>
      </trkpt>
      <trkpt lat="45.99496" lon="4.88467">
        <ele>284</ele>
        <time>2016-12-10T13:54:18Z</time>
      </trkpt>
      <trkpt lat="45.99499" lon="4.88472">
        <ele>284</ele>
        <time>2016-12-10T13:54:19Z</time>
      </trkpt>
      <trkpt lat="45.99502" lon="4.88477">
        <ele>284</ele>
        <time>2016-12-10T13:54:20Z</time>
      </trkpt>
      <trkpt lat="45.99505" lon="4.88483">
        <ele>284</ele>
        <time>2016-12-10T13:54:21Z</time>
      </trkpt>
      <trkpt lat="45.99507" lon="4.88488">
        <ele>284</ele>
        <time>2016-12-10T13:54:22Z</time>
      </trkpt>
      <trkpt lat="45.9951" lon="4.88494">
        <ele>284</ele>
        <time>2016-12-10T13:54:23Z</time>
      </trkpt>
      <trkpt lat="45.99513" lon="4.885">
        <ele>284</ele>
        <time>2016-12-10T13:54:24Z</time>
      </trkpt>
      <trkpt lat="45.99516" lon="4.88506">
        <ele>285</ele>
        <time>2016-12-10T13:54:25Z</time>
      </trkpt>
      <trkpt lat="45.99519" lon="4.88511">
        <ele>285</ele>
        <time>2016-12-10T13:54:26Z</time>
      </trkpt>
      <trkpt lat="45.99521" lon="4.88517">
        <ele>285</ele>
        <time>2016-12-10T13:54:27Z</time>
      </trkpt>
      <trkpt lat="45.99524" lon="4.88522">
        <ele>285</ele>
        <time>2016-12-10T13:54:28Z</time>
      </trkpt>
      <trkpt lat="45.99527" lon="4.88528">
        <ele>285</ele>
        <time>2016-12-10T13:54:29Z</time>
      </trkpt>
      <trkpt lat="45.9953" lon="4.88533">
        <ele>285</ele>
        <time>2016-12-10T13:54:30Z</time>
      </trkpt>
      <trkpt lat="45.99533" lon="4.88539">
        <ele>285</ele>
        <time>2016-12-10T13:54:31Z</time>
      </trkpt>
      <trkpt lat="45.99535" lon="4.88545">
        <ele>285</ele>
        <time>2016-12-10T13:54:32Z</time>
      </trkpt>
      <trkpt lat="45.99538" lon="4.88551">
        <ele>285</ele>
        <time>2016-12-10T13:54:33Z</time>
      </trkpt>
      <trkpt lat="45.9954" lon="4.88556">
        <ele>285</ele>
        <time>2016-12-10T13:54:34Z</time>
      </trkpt>
      <trkpt lat="45.99542" lon="4.88562">
        <ele>285</ele>
        <time>2016-12-10T13:54:35Z</time>
      </trkpt>
      <trkpt lat="45.99544" lon="4.88569">
        <ele>286</ele>
        <time>2016-12-10T13:54:36Z</time>
      </trkpt>
      <trkpt lat="45.99546" lon="4.88575">
        <ele>286</ele>
        <time>2016-12-10T13:54:37Z</time>
      </trkpt>
      <trkpt lat="45.99548" lon="4.88581">
        <ele>286</ele>
        <time>2016-12-10T13:54:38Z</time>
      </trkpt>
      <trkpt lat="45.9955" lon="4.88587">
        <ele>286</ele>
        <time>2016-12-10T13:54:39Z</time>
      </trkpt>
      <trkpt lat="45.99551" lon="4.88593">
        <ele>286</ele>
        <time>2016-12-10T13:54:40Z</time>
      </trkpt>
      <trkpt lat="45.99552" lon="4.886">
        <ele>286</ele>
        <time>2016-12-10T13:54:41Z</time>
      </trkpt>
      <trkpt lat="45.99552" lon="4.88606">
        <ele>286</ele>
        <time>2016-12-10T13:54:42Z</time>
      </trkpt>
      <trkpt lat="45.99553" lon="4.88613">
        <ele>286</ele>
        <time>2016-12-10T13:54:43Z</time>
      </trkpt>
      <trkpt lat="45.99554" lon="4.88619">
        <ele>286</ele>
        <time>2016-12-10T13:54:44Z</time>
      </trkpt>
      <trkpt lat="45.99554" lon="4.88626">
        <ele>286</ele>
        <time>2016-12-10T13:54:45Z</time>
      </trkpt>
      <trkpt lat="45.99555" lon="4.88633">
        <ele>286</ele>
        <time>2016-12-10T13:54:46Z</time>
      </trkpt>
      <trkpt lat="45.99556" lon="4.8864">
        <ele>286</ele>
        <time>2016-12-10T13:54:47Z</time>
      </trkpt>
      <trkpt lat="45.99556" lon="4.88647">
        <ele>286</ele>
        <time>2016-12-10T13:54:48Z</time>
      </trkpt>
      <trkpt lat="45.99557" lon="4.88654">
        <ele>286</ele>
        <time>2016-12-10T13:54:49Z</time>
      </trkpt>
      <trkpt lat="45.99557" lon="4.88661">
        <ele>286</ele>
        <time>2016-12-10T13:54:50Z</time>
      </trkpt>
      <trkpt lat="45.99558" lon="4.88668">
        <ele>286</ele>
        <time>2016-12-10T13:54:51Z</time>
      </trkpt>
      <trkpt lat="45.99559" lon="4.88675">
        <ele>286</ele>
        <time>2016-12-10T13:54:52Z</time>
      </trkpt>
      <trkpt lat="45.99559" lon="4.88683">
        <ele>286</ele>
        <time>2016-12-10T13:54:53Z</time>
      </trkpt>
      <trkpt lat="45.9956" lon="4.8869">
        <ele>286</ele>
        <time>2016-12-10T13:54:54Z</time>
      </trkpt>
      <trkpt lat="45.99561" lon="4.88697">
        <ele>286</ele>
        <time>2016-12-10T13:54:55Z</time>
      </trkpt>
      <trkpt lat="45.99562" lon="4.88704">
        <ele>286</ele>
        <time>2016-12-10T13:54:56Z</time>
      </trkpt>
      <trkpt lat="45.99563" lon="4.88712">
        <ele>286</ele>
        <time>2016-12-10T13:54:57Z</time>
      </trkpt>
      <trkpt lat="45.99563" lon="4.88719">
        <ele>286</ele>
        <time>2016-12-10T13:54:58Z</time>
      </trkpt>
      <trkpt lat="45.99564" lon="4.88726">
        <ele>286</ele>
        <time>2016-12-10T13:54:59Z</time>
      </trkpt>
      <trkpt lat="45.99564" lon="4.88733">
        <ele>287</ele>
        <time>2016-12-10T13:55:00Z</time>
      </trkpt>
      <trkpt lat="45.99565" lon="4.8874">
        <ele>287</ele>
        <time>2016-12-10T13:55:01Z</time>
      </trkpt>
      <trkpt lat="45.99566" lon="4.88747">
        <ele>287</ele>
        <time>2016-12-10T13:55:02Z</time>
      </trkpt>
      <trkpt lat="45.99566" lon="4.88754">
        <ele>287</ele>
        <time>2016-12-10T13:55:03Z</time>
      </trkpt>
      <trkpt lat="45.99567" lon="4.88762">
        <ele>287</ele>
        <time>2016-12-10T13:55:04Z</time>
      </trkpt>
      <trkpt lat="45.99568" lon="4.88769">
        <ele>287</ele>
        <time>2016-12-10T13:55:05Z</time>
      </trkpt>
      <trkpt lat="45.99568" lon="4.88777">
        <ele>287</ele>
        <time>2016-12-10T13:55:06Z</time>
      </trkpt>
      <trkpt lat="45.99569" lon="4.88784">
        <ele>287</ele>
        <time>2016-12-10T13:55:07Z</time>
      </trkpt>
      <trkpt lat="45.99569" lon="4.8879">
        <ele>287</ele>
        <time>2016-12-10T13:55:08Z</time>
      </trkpt>
      <trkpt lat="45.9957" lon="4.88797">
        <ele>287</ele>
        <time>2016-12-10T13:55:09Z</time>
      </trkpt>
      <trkpt lat="45.99571" lon="4.88809">
        <ele>287</ele>
        <time>2016-12-10T13:55:11Z</time>
      </trkpt>
      <trkpt lat="45.99571" lon="4.88816">
        <ele>287</ele>
        <time>2016-12-10T13:55:12Z</time>
      </trkpt>
      <trkpt lat="45.99572" lon="4.88822">
        <ele>287</ele>
        <time>2016-12-10T13:55:13Z</time>
      </trkpt>
      <trkpt lat="45.99572" lon="4.88829">
        <ele>287</ele>
        <time>2016-12-10T13:55:14Z</time>
      </trkpt>
      <trkpt lat="45.99573" lon="4.88836">
        <ele>287</ele>
        <time>2016-12-10T13:55:15Z</time>
      </trkpt>
      <trkpt lat="45.99574" lon="4.88843">
        <ele>287</ele>
        <time>2016-12-10T13:55:16Z</time>
      </trkpt>
      <trkpt lat="45.99575" lon="4.8885">
        <ele>287</ele>
        <time>2016-12-10T13:55:17Z</time>
      </trkpt>
      <trkpt lat="45.99576" lon="4.88856">
        <ele>287</ele>
        <time>2016-12-10T13:55:18Z</time>
      </trkpt>
      <trkpt lat="45.99576" lon="4.88863">
        <ele>287</ele>
        <time>2016-12-10T13:55:19Z</time>
      </trkpt>
      <trkpt lat="45.99577" lon="4.8887">
        <ele>287</ele>
        <time>2016-12-10T13:55:20Z</time>
      </trkpt>
      <trkpt lat="45.99578" lon="4.88877">
        <ele>287</ele>
        <time>2016-12-10T13:55:21Z</time>
      </trkpt>
      <trkpt lat="45.99578" lon="4.88883">
        <ele>287</ele>
        <time>2016-12-10T13:55:22Z</time>
      </trkpt>
      <trkpt lat="45.99579" lon="4.88896">
        <ele>287</ele>
        <time>2016-12-10T13:55:24Z</time>
      </trkpt>
      <trkpt lat="45.9958" lon="4.88902">
        <ele>287</ele>
        <time>2016-12-10T13:55:25Z</time>
      </trkpt>
      <trkpt lat="45.9958" lon="4.88909">
        <ele>287</ele>
        <time>2016-12-10T13:55:26Z</time>
      </trkpt>
      <trkpt lat="45.99581" lon="4.88916">
        <ele>287</ele>
        <time>2016-12-10T13:55:27Z</time>
      </trkpt>
      <trkpt lat="45.99581" lon="4.88923">
        <ele>287</ele>
        <time>2016-12-10T13:55:28Z</time>
      </trkpt>
      <trkpt lat="45.99582" lon="4.88929">
        <ele>287</ele>
        <time>2016-12-10T13:55:29Z</time>
      </trkpt>
      <trkpt lat="45.99582" lon="4.88936">
        <ele>287</ele>
        <time>2016-12-10T13:55:30Z</time>
      </trkpt>
      <trkpt lat="45.99583" lon="4.88942">
        <ele>287</ele>
        <time>2016-12-10T13:55:31Z</time>
      </trkpt>
      <trkpt lat="45.99583" lon="4.88949">
        <ele>287</ele>
        <time>2016-12-10T13:55:32Z</time>
      </trkpt>
      <trkpt lat="45.99584" lon="4.88956">
        <ele>287</ele>
        <time>2016-12-10T13:55:33Z</time>
      </trkpt>
      <trkpt lat="45.99585" lon="4.88962">
        <ele>288</ele>
        <time>2016-12-10T13:55:34Z</time>
      </trkpt>
      <trkpt lat="45.99585" lon="4.88969">
        <ele>288</ele>
        <time>2016-12-10T13:55:35Z</time>
      </trkpt>
      <trkpt lat="45.99585" lon="4.88977">
        <ele>288</ele>
        <time>2016-12-10T13:55:36Z</time>
      </trkpt>
      <trkpt lat="45.99586" lon="4.88984">
        <ele>288</ele>
        <time>2016-12-10T13:55:37Z</time>
      </trkpt>
      <trkpt lat="45.99586" lon="4.88991">
        <ele>288</ele>
        <time>2016-12-10T13:55:38Z</time>
      </trkpt>
      <trkpt lat="45.99586" lon="4.88998">
        <ele>288</ele>
        <time>2016-12-10T13:55:39Z</time>
      </trkpt>
      <trkpt lat="45.99586" lon="4.89004">
        <ele>288</ele>
        <time>2016-12-10T13:55:40Z</time>
      </trkpt>
      <trkpt lat="45.99585" lon="4.89011">
        <ele>288</ele>
        <time>2016-12-10T13:55:41Z</time>
      </trkpt>
      <trkpt lat="45.99585" lon="4.89018">
        <ele>288</ele>
        <time>2016-12-10T13:55:42Z</time>
      </trkpt>
      <trkpt lat="45.99585" lon="4.89024">
        <ele>288</ele>
        <time>2016-12-10T13:55:43Z</time>
      </trkpt>
      <trkpt lat="45.99584" lon="4.8903">
        <ele>289</ele>
        <time>2016-12-10T13:55:44Z</time>
      </trkpt>
      <trkpt lat="45.99584" lon="4.89037">
        <ele>289</ele>
        <time>2016-12-10T13:55:45Z</time>
      </trkpt>
      <trkpt lat="45.99583" lon="4.89044">
        <ele>288</ele>
        <time>2016-12-10T13:55:46Z</time>
      </trkpt>
      <trkpt lat="45.99583" lon="4.8905">
        <ele>288</ele>
        <time>2016-12-10T13:55:47Z</time>
      </trkpt>
      <trkpt lat="45.99582" lon="4.89057">
        <ele>289</ele>
        <time>2016-12-10T13:55:48Z</time>
      </trkpt>
      <trkpt lat="45.99581" lon="4.89064">
        <ele>289</ele>
        <time>2016-12-10T13:55:49Z</time>
      </trkpt>
      <trkpt lat="45.99581" lon="4.8907">
        <ele>289</ele>
        <time>2016-12-10T13:55:50Z</time>
      </trkpt>
      <trkpt lat="45.9958" lon="4.89077">
        <ele>289</ele>
        <time>2016-12-10T13:55:51Z</time>
      </trkpt>
      <trkpt lat="45.99579" lon="4.89084">
        <ele>289</ele>
        <time>2016-12-10T13:55:52Z</time>
      </trkpt>
      <trkpt lat="45.99578" lon="4.89091">
        <ele>289</ele>
        <time>2016-12-10T13:55:53Z</time>
      </trkpt>
      <trkpt lat="45.99578" lon="4.89097">
        <ele>289</ele>
        <time>2016-12-10T13:55:54Z</time>
      </trkpt>
      <trkpt lat="45.99577" lon="4.89104">
        <ele>289</ele>
        <time>2016-12-10T13:55:55Z</time>
      </trkpt>
      <trkpt lat="45.99577" lon="4.89111">
        <ele>289</ele>
        <time>2016-12-10T13:55:56Z</time>
      </trkpt>
      <trkpt lat="45.99577" lon="4.89117">
        <ele>289</ele>
        <time>2016-12-10T13:55:57Z</time>
      </trkpt>
      <trkpt lat="45.99577" lon="4.89125">
        <ele>289</ele>
        <time>2016-12-10T13:55:58Z</time>
      </trkpt>
      <trkpt lat="45.99578" lon="4.89131">
        <ele>289</ele>
        <time>2016-12-10T13:55:59Z</time>
      </trkpt>
      <trkpt lat="45.99578" lon="4.89138">
        <ele>289</ele>
        <time>2016-12-10T13:56:00Z</time>
      </trkpt>
      <trkpt lat="45.99577" lon="4.89145">
        <ele>289</ele>
        <time>2016-12-10T13:56:01Z</time>
      </trkpt>
      <trkpt lat="45.99578" lon="4.89152">
        <ele>289</ele>
        <time>2016-12-10T13:56:02Z</time>
      </trkpt>
      <trkpt lat="45.99578" lon="4.89159">
        <ele>288</ele>
        <time>2016-12-10T13:56:03Z</time>
      </trkpt>
      <trkpt lat="45.99579" lon="4.89166">
        <ele>288</ele>
        <time>2016-12-10T13:56:04Z</time>
      </trkpt>
      <trkpt lat="45.99579" lon="4.89174">
        <ele>288</ele>
        <time>2016-12-10T13:56:05Z</time>
      </trkpt>
      <trkpt lat="45.9958" lon="4.89181">
        <ele>288</ele>
        <time>2016-12-10T13:56:06Z</time>
      </trkpt>
      <trkpt lat="45.9958" lon="4.89188">
        <ele>288</ele>
        <time>2016-12-10T13:56:07Z</time>
      </trkpt>
      <trkpt lat="45.99581" lon="4.89195">
        <ele>288</ele>
        <time>2016-12-10T13:56:08Z</time>
      </trkpt>
      <trkpt lat="45.99581" lon="4.89202">
        <ele>288</ele>
        <time>2016-12-10T13:56:09Z</time>
      </trkpt>
      <trkpt lat="45.99582" lon="4.89215">
        <ele>288</ele>
        <time>2016-12-10T13:56:11Z</time>
      </trkpt>
      <trkpt lat="45.99582" lon="4.89221">
        <ele>288</ele>
        <time>2016-12-10T13:56:12Z</time>
      </trkpt>
      <trkpt lat="45.99583" lon="4.89228">
        <ele>288</ele>
        <time>2016-12-10T13:56:13Z</time>
      </trkpt>
      <trkpt lat="45.99583" lon="4.89236">
        <ele>288</ele>
        <time>2016-12-10T13:56:14Z</time>
      </trkpt>
      <trkpt lat="45.99583" lon="4.89243">
        <ele>288</ele>
        <time>2016-12-10T13:56:15Z</time>
      </trkpt>
      <trkpt lat="45.99584" lon="4.89251">
        <ele>288</ele>
        <time>2016-12-10T13:56:16Z</time>
      </trkpt>
      <trkpt lat="45.99585" lon="4.89259">
        <ele>288</ele>
        <time>2016-12-10T13:56:17Z</time>
      </trkpt>
      <trkpt lat="45.99586" lon="4.89266">
        <ele>288</ele>
        <time>2016-12-10T13:56:18Z</time>
      </trkpt>
      <trkpt lat="45.99586" lon="4.89273">
        <ele>288</ele>
        <time>2016-12-10T13:56:19Z</time>
      </trkpt>
      <trkpt lat="45.99586" lon="4.89279">
        <ele>289</ele>
        <time>2016-12-10T13:56:20Z</time>
      </trkpt>
      <trkpt lat="45.99587" lon="4.89292">
        <ele>289</ele>
        <time>2016-12-10T13:56:22Z</time>
      </trkpt>
      <trkpt lat="45.99587" lon="4.89298">
        <ele>289</ele>
        <time>2016-12-10T13:56:23Z</time>
      </trkpt>
      <trkpt lat="45.99588" lon="4.8931">
        <ele>289</ele>
        <time>2016-12-10T13:56:25Z</time>
      </trkpt>
      <trkpt lat="45.99588" lon="4.89316">
        <ele>289</ele>
        <time>2016-12-10T13:56:26Z</time>
      </trkpt>
      <trkpt lat="45.99589" lon="4.89323">
        <ele>289</ele>
        <time>2016-12-10T13:56:27Z</time>
      </trkpt>
      <trkpt lat="45.99589" lon="4.8933">
        <ele>289</ele>
        <time>2016-12-10T13:56:28Z</time>
      </trkpt>
      <trkpt lat="45.9959" lon="4.89337">
        <ele>289</ele>
        <time>2016-12-10T13:56:29Z</time>
      </trkpt>
      <trkpt lat="45.9959" lon="4.89345">
        <ele>289</ele>
        <time>2016-12-10T13:56:30Z</time>
      </trkpt>
      <trkpt lat="45.99591" lon="4.89353">
        <ele>289</ele>
        <time>2016-12-10T13:56:31Z</time>
      </trkpt>
      <trkpt lat="45.99591" lon="4.8936">
        <ele>289</ele>
        <time>2016-12-10T13:56:32Z</time>
      </trkpt>
      <trkpt lat="45.99592" lon="4.89368">
        <ele>289</ele>
        <time>2016-12-10T13:56:33Z</time>
      </trkpt>
      <trkpt lat="45.99592" lon="4.89375">
        <ele>290</ele>
        <time>2016-12-10T13:56:34Z</time>
      </trkpt>
      <trkpt lat="45.99593" lon="4.89382">
        <ele>290</ele>
        <time>2016-12-10T13:56:35Z</time>
      </trkpt>
      <trkpt lat="45.99593" lon="4.89389">
        <ele>290</ele>
        <time>2016-12-10T13:56:36Z</time>
      </trkpt>
      <trkpt lat="45.99594" lon="4.89402">
        <ele>290</ele>
        <time>2016-12-10T13:56:38Z</time>
      </trkpt>
      <trkpt lat="45.99595" lon="4.89408">
        <ele>290</ele>
        <time>2016-12-10T13:56:39Z</time>
      </trkpt>
      <trkpt lat="45.99595" lon="4.8942">
        <ele>290</ele>
        <time>2016-12-10T13:56:41Z</time>
      </trkpt>
      <trkpt lat="45.99595" lon="4.89426">
        <ele>290</ele>
        <time>2016-12-10T13:56:42Z</time>
      </trkpt>
      <trkpt lat="45.99596" lon="4.89439">
        <ele>290</ele>
        <time>2016-12-10T13:56:44Z</time>
      </trkpt>
      <trkpt lat="45.99596" lon="4.89445">
        <ele>290</ele>
        <time>2016-12-10T13:56:45Z</time>
      </trkpt>
      <trkpt lat="45.99596" lon="4.89452">
        <ele>290</ele>
        <time>2016-12-10T13:56:46Z</time>
      </trkpt>
      <trkpt lat="45.99597" lon="4.89459">
        <ele>290</ele>
        <time>2016-12-10T13:56:47Z</time>
      </trkpt>
      <trkpt lat="45.99597" lon="4.89466">
        <ele>290</ele>
        <time>2016-12-10T13:56:48Z</time>
      </trkpt>
      <trkpt lat="45.99597" lon="4.89472">
        <ele>290</ele>
        <time>2016-12-10T13:56:49Z</time>
      </trkpt>
      <trkpt lat="45.99598" lon="4.89479">
        <ele>290</ele>
        <time>2016-12-10T13:56:50Z</time>
      </trkpt>
      <trkpt lat="45.99598" lon="4.89486">
        <ele>290</ele>
        <time>2016-12-10T13:56:51Z</time>
      </trkpt>
      <trkpt lat="45.99599" lon="4.89493">
        <ele>290</ele>
        <time>2016-12-10T13:56:52Z</time>
      </trkpt>
      <trkpt lat="45.99599" lon="4.895">
        <ele>290</ele>
        <time>2016-12-10T13:56:53Z</time>
      </trkpt>
      <trkpt lat="45.996" lon="4.89507">
        <ele>290</ele>
        <time>2016-12-10T13:56:54Z</time>
      </trkpt>
      <trkpt lat="45.996" lon="4.89515">
        <ele>290</ele>
        <time>2016-12-10T13:56:55Z</time>
      </trkpt>
      <trkpt lat="45.996" lon="4.89522">
        <ele>291</ele>
        <time>2016-12-10T13:56:56Z</time>
      </trkpt>
      <trkpt lat="45.99601" lon="4.89529">
        <ele>291</ele>
        <time>2016-12-10T13:56:57Z</time>
      </trkpt>
      <trkpt lat="45.99602" lon="4.89536">
        <ele>291</ele>
        <time>2016-12-10T13:56:58Z</time>
      </trkpt>
      <trkpt lat="45.99602" lon="4.89544">
        <ele>291</ele>
        <time>2016-12-10T13:56:59Z</time>
      </trkpt>
      <trkpt lat="45.99603" lon="4.89551">
        <ele>291</ele>
        <time>2016-12-10T13:57:00Z</time>
      </trkpt>
      <trkpt lat="45.99603" lon="4.89558">
        <ele>291</ele>
        <time>2016-12-10T13:57:01Z</time>
      </trkpt>
      <trkpt lat="45.99604" lon="4.89566">
        <ele>291</ele>
        <time>2016-12-10T13:57:02Z</time>
      </trkpt>
      <trkpt lat="45.99604" lon="4.89573">
        <ele>291</ele>
        <time>2016-12-10T13:57:03Z</time>
      </trkpt>
      <trkpt lat="45.99605" lon="4.89581">
        <ele>291</ele>
        <time>2016-12-10T13:57:04Z</time>
      </trkpt>
      <trkpt lat="45.99605" lon="4.89587">
        <ele>292</ele>
        <time>2016-12-10T13:57:05Z</time>
      </trkpt>
      <trkpt lat="45.99606" lon="4.89593">
        <ele>292</ele>
        <time>2016-12-10T13:57:06Z</time>
      </trkpt>
      <trkpt lat="45.99606" lon="4.896">
        <ele>292</ele>
        <time>2016-12-10T13:57:07Z</time>
      </trkpt>
      <trkpt lat="45.99606" lon="4.89607">
        <ele>291</ele>
        <time>2016-12-10T13:57:08Z</time>
      </trkpt>
      <trkpt lat="45.99607" lon="4.89614">
        <ele>291</ele>
        <time>2016-12-10T13:57:09Z</time>
      </trkpt>
      <trkpt lat="45.99607" lon="4.89621">
        <ele>291</ele>
        <time>2016-12-10T13:57:10Z</time>
      </trkpt>
      <trkpt lat="45.99607" lon="4.89628">
        <ele>291</ele>
        <time>2016-12-10T13:57:11Z</time>
      </trkpt>
      <trkpt lat="45.99607" lon="4.89634">
        <ele>291</ele>
        <time>2016-12-10T13:57:12Z</time>
      </trkpt>
      <trkpt lat="45.99607" lon="4.89641">
        <ele>291</ele>
        <time>2016-12-10T13:57:13Z</time>
      </trkpt>
      <trkpt lat="45.99607" lon="4.89652">
        <ele>291</ele>
        <time>2016-12-10T13:57:15Z</time>
      </trkpt>
      <trkpt lat="45.99607" lon="4.89657">
        <ele>291</ele>
        <time>2016-12-10T13:57:16Z</time>
      </trkpt>
      <trkpt lat="45.99607" lon="4.89669">
        <ele>291</ele>
        <time>2016-12-10T13:57:18Z</time>
      </trkpt>
      <trkpt lat="45.99607" lon="4.89676">
        <ele>291</ele>
        <time>2016-12-10T13:57:19Z</time>
      </trkpt>
      <trkpt lat="45.99607" lon="4.89683">
        <ele>291</ele>
        <time>2016-12-10T13:57:20Z</time>
      </trkpt>
      <trkpt lat="45.99606" lon="4.8969">
        <ele>291</ele>
        <time>2016-12-10T13:57:21Z</time>
      </trkpt>
      <trkpt lat="45.99606" lon="4.89697">
        <ele>291</ele>
        <time>2016-12-10T13:57:22Z</time>
      </trkpt>
      <trkpt lat="45.99606" lon="4.89704">
        <ele>292</ele>
        <time>2016-12-10T13:57:23Z</time>
      </trkpt>
      <trkpt lat="45.99605" lon="4.8971">
        <ele>292</ele>
        <time>2016-12-10T13:57:24Z</time>
      </trkpt>
      <trkpt lat="45.99605" lon="4.89717">
        <ele>292</ele>
        <time>2016-12-10T13:57:25Z</time>
      </trkpt>
      <trkpt lat="45.99604" lon="4.8973">
        <ele>292</ele>
        <time>2016-12-10T13:57:27Z</time>
      </trkpt>
      <trkpt lat="45.99603" lon="4.89736">
        <ele>292</ele>
        <time>2016-12-10T13:57:28Z</time>
      </trkpt>
      <trkpt lat="45.99603" lon="4.89747">
        <ele>292</ele>
        <time>2016-12-10T13:57:30Z</time>
      </trkpt>
      <trkpt lat="45.99604" lon="4.89753">
        <ele>292</ele>
        <time>2016-12-10T13:57:31Z</time>
      </trkpt>
      <trkpt lat="45.99604" lon="4.89764">
        <ele>292</ele>
        <time>2016-12-10T13:57:33Z</time>
      </trkpt>
      <trkpt lat="45.99603" lon="4.89771">
        <ele>292</ele>
        <time>2016-12-10T13:57:34Z</time>
      </trkpt>
      <trkpt lat="45.99603" lon="4.89777">
        <ele>292</ele>
        <time>2016-12-10T13:57:35Z</time>
      </trkpt>
      <trkpt lat="45.99603" lon="4.89784">
        <ele>292</ele>
        <time>2016-12-10T13:57:36Z</time>
      </trkpt>
      <trkpt lat="45.99603" lon="4.89797">
        <ele>292</ele>
        <time>2016-12-10T13:57:38Z</time>
      </trkpt>
      <trkpt lat="45.99603" lon="4.89803">
        <ele>292</ele>
        <time>2016-12-10T13:57:39Z</time>
      </trkpt>
      <trkpt lat="45.99602" lon="4.89816">
        <ele>292</ele>
        <time>2016-12-10T13:57:41Z</time>
      </trkpt>
      <trkpt lat="45.99602" lon="4.89822">
        <ele>292</ele>
        <time>2016-12-10T13:57:42Z</time>
      </trkpt>
      <trkpt lat="45.99602" lon="4.89833">
        <ele>293</ele>
        <time>2016-12-10T13:57:44Z</time>
      </trkpt>
      <trkpt lat="45.99602" lon="4.89839">
        <ele>293</ele>
        <time>2016-12-10T13:57:45Z</time>
      </trkpt>
      <trkpt lat="45.99602" lon="4.89846">
        <ele>293</ele>
        <time>2016-12-10T13:57:46Z</time>
      </trkpt>
      <trkpt lat="45.99602" lon="4.89853">
        <ele>293</ele>
        <time>2016-12-10T13:57:47Z</time>
      </trkpt>
      <trkpt lat="45.99602" lon="4.8986">
        <ele>293</ele>
        <time>2016-12-10T13:57:48Z</time>
      </trkpt>
      <trkpt lat="45.99602" lon="4.89866">
        <ele>293</ele>
        <time>2016-12-10T13:57:49Z</time>
      </trkpt>
      <trkpt lat="45.99601" lon="4.89874">
        <ele>293</ele>
        <time>2016-12-10T13:57:50Z</time>
      </trkpt>
      <trkpt lat="45.99601" lon="4.89881">
        <ele>292</ele>
        <time>2016-12-10T13:57:51Z</time>
      </trkpt>
      <trkpt lat="45.99601" lon="4.89888">
        <ele>292</ele>
        <time>2016-12-10T13:57:52Z</time>
      </trkpt>
      <trkpt lat="45.99601" lon="4.89896">
        <ele>292</ele>
        <time>2016-12-10T13:57:53Z</time>
      </trkpt>
      <trkpt lat="45.996" lon="4.89903">
        <ele>292</ele>
        <time>2016-12-10T13:57:54Z</time>
      </trkpt>
      <trkpt lat="45.996" lon="4.89909">
        <ele>292</ele>
        <time>2016-12-10T13:57:55Z</time>
      </trkpt>
      <trkpt lat="45.99601" lon="4.89921">
        <ele>293</ele>
        <time>2016-12-10T13:57:57Z</time>
      </trkpt>
      <trkpt lat="45.99601" lon="4.89928">
        <ele>293</ele>
        <time>2016-12-10T13:57:58Z</time>
      </trkpt>
      <trkpt lat="45.99602" lon="4.8994">
        <ele>293</ele>
        <time>2016-12-10T13:58:00Z</time>
      </trkpt>
      <trkpt lat="45.99602" lon="4.89946">
        <ele>294</ele>
        <time>2016-12-10T13:58:01Z</time>
      </trkpt>
      <trkpt lat="45.99602" lon="4.89959">
        <ele>294</ele>
        <time>2016-12-10T13:58:03Z</time>
      </trkpt>
      <trkpt lat="45.99603" lon="4.89966">
        <ele>294</ele>
        <time>2016-12-10T13:58:04Z</time>
      </trkpt>
      <trkpt lat="45.99604" lon="4.89973">
        <ele>294</ele>
        <time>2016-12-10T13:58:05Z</time>
      </trkpt>
      <trkpt lat="45.99605" lon="4.8998">
        <ele>294</ele>
        <time>2016-12-10T13:58:06Z</time>
      </trkpt>
      <trkpt lat="45.99606" lon="4.89987">
        <ele>294</ele>
        <time>2016-12-10T13:58:07Z</time>
      </trkpt>
      <trkpt lat="45.99607" lon="4.89993">
        <ele>294</ele>
        <time>2016-12-10T13:58:08Z</time>
      </trkpt>
      <trkpt lat="45.99608" lon="4.9">
        <ele>295</ele>
        <time>2016-12-10T13:58:09Z</time>
      </trkpt>
      <trkpt lat="45.9961" lon="4.90006">
        <ele>296</ele>
        <time>2016-12-10T13:58:10Z</time>
      </trkpt>
      <trkpt lat="45.99611" lon="4.90012">
        <ele>296</ele>
        <time>2016-12-10T13:58:11Z</time>
      </trkpt>
      <trkpt lat="45.99613" lon="4.90019">
        <ele>296</ele>
        <time>2016-12-10T13:58:12Z</time>
      </trkpt>
      <trkpt lat="45.99615" lon="4.90025">
        <ele>296</ele>
        <time>2016-12-10T13:58:13Z</time>
      </trkpt>
      <trkpt lat="45.99617" lon="4.9003">
        <ele>296</ele>
        <time>2016-12-10T13:58:14Z</time>
      </trkpt>
      <trkpt lat="45.99621" lon="4.90042">
        <ele>296</ele>
        <time>2016-12-10T13:58:16Z</time>
      </trkpt>
      <trkpt lat="45.99624" lon="4.90047">
        <ele>297</ele>
        <time>2016-12-10T13:58:17Z</time>
      </trkpt>
      <trkpt lat="45.99626" lon="4.90053">
        <ele>297</ele>
        <time>2016-12-10T13:58:18Z</time>
      </trkpt>
      <trkpt lat="45.99629" lon="4.90058">
        <ele>297</ele>
        <time>2016-12-10T13:58:19Z</time>
      </trkpt>
      <trkpt lat="45.99631" lon="4.90066">
        <ele>297</ele>
        <time>2016-12-10T13:58:20Z</time>
      </trkpt>
      <trkpt lat="45.99634" lon="4.90071">
        <ele>297</ele>
        <time>2016-12-10T13:58:21Z</time>
      </trkpt>
      <trkpt lat="45.99637" lon="4.90078">
        <ele>297</ele>
        <time>2016-12-10T13:58:22Z</time>
      </trkpt>
      <trkpt lat="45.99639" lon="4.90084">
        <ele>298</ele>
        <time>2016-12-10T13:58:23Z</time>
      </trkpt>
      <trkpt lat="45.99642" lon="4.90095">
        <ele>299</ele>
        <time>2016-12-10T13:58:25Z</time>
      </trkpt>
      <trkpt lat="45.99644" lon="4.901">
        <ele>299</ele>
        <time>2016-12-10T13:58:26Z</time>
      </trkpt>
      <trkpt lat="45.99647" lon="4.9011">
        <ele>299</ele>
        <time>2016-12-10T13:58:28Z</time>
      </trkpt>
      <trkpt lat="45.99648" lon="4.90115">
        <ele>299</ele>
        <time>2016-12-10T13:58:29Z</time>
      </trkpt>
      <trkpt lat="45.99651" lon="4.90123">
        <ele>299</ele>
        <time>2016-12-10T13:58:31Z</time>
      </trkpt>
      <trkpt lat="45.99652" lon="4.90127">
        <ele>299</ele>
        <time>2016-12-10T13:58:32Z</time>
      </trkpt>
      <trkpt lat="45.99654" lon="4.90136">
        <ele>299</ele>
        <time>2016-12-10T13:58:34Z</time>
      </trkpt>
      <trkpt lat="45.99655" lon="4.9014">
        <ele>300</ele>
        <time>2016-12-10T13:58:35Z</time>
      </trkpt>
      <trkpt lat="45.99658" lon="4.90149">
        <ele>300</ele>
        <time>2016-12-10T13:58:37Z</time>
      </trkpt>
      <trkpt lat="45.9966" lon="4.90154">
        <ele>300</ele>
        <time>2016-12-10T13:58:38Z</time>
      </trkpt>
      <trkpt lat="45.99662" lon="4.90163">
        <ele>301</ele>
        <time>2016-12-10T13:58:40Z</time>
      </trkpt>
      <trkpt lat="45.99662" lon="4.90168">
        <ele>301</ele>
        <time>2016-12-10T13:58:41Z</time>
      </trkpt>
      <trkpt lat="45.99664" lon="4.90177">
        <ele>301</ele>
        <time>2016-12-10T13:58:43Z</time>
      </trkpt>
      <trkpt lat="45.99665" lon="4.90182">
        <ele>301</ele>
        <time>2016-12-10T13:58:44Z</time>
      </trkpt>
      <trkpt lat="45.99668" lon="4.90192">
        <ele>303</ele>
        <time>2016-12-10T13:58:46Z</time>
      </trkpt>
      <trkpt lat="45.99669" lon="4.90196">
        <ele>303</ele>
        <time>2016-12-10T13:58:47Z</time>
      </trkpt>
      <trkpt lat="45.99671" lon="4.90205">
        <ele>303</ele>
        <time>2016-12-10T13:58:49Z</time>
      </trkpt>
      <trkpt lat="45.99672" lon="4.9021">
        <ele>303</ele>
        <time>2016-12-10T13:58:50Z</time>
      </trkpt>
      <trkpt lat="45.99674" lon="4.9022">
        <ele>303</ele>
        <time>2016-12-10T13:58:52Z</time>
      </trkpt>
      <trkpt lat="45.99675" lon="4.90225">
        <ele>304</ele>
        <time>2016-12-10T13:58:53Z</time>
      </trkpt>
      <trkpt lat="45.99676" lon="4.90235">
        <ele>304</ele>
        <time>2016-12-10T13:58:55Z</time>
      </trkpt>
      <trkpt lat="45.99678" lon="4.9024">
        <ele>304</ele>
        <time>2016-12-10T13:58:56Z</time>
      </trkpt>
      <trkpt lat="45.99679" lon="4.90251">
        <ele>304</ele>
        <time>2016-12-10T13:58:58Z</time>
      </trkpt>
      <trkpt lat="45.99679" lon="4.90256">
        <ele>304</ele>
        <time>2016-12-10T13:58:59Z</time>
      </trkpt>
      <trkpt lat="45.99679" lon="4.90268">
        <ele>304</ele>
        <time>2016-12-10T13:59:02Z</time>
      </trkpt>
      <trkpt lat="45.99679" lon="4.90272">
        <ele>305</ele>
        <time>2016-12-10T13:59:03Z</time>
      </trkpt>
      <trkpt lat="45.99677" lon="4.90282">
        <ele>304</ele>
        <time>2016-12-10T13:59:05Z</time>
      </trkpt>
      <trkpt lat="45.99675" lon="4.90287">
        <ele>304</ele>
        <time>2016-12-10T13:59:06Z</time>
      </trkpt>
      <trkpt lat="45.99673" lon="4.90297">
        <ele>304</ele>
        <time>2016-12-10T13:59:08Z</time>
      </trkpt>
      <trkpt lat="45.99672" lon="4.90304">
        <ele>304</ele>
        <time>2016-12-10T13:59:09Z</time>
      </trkpt>
      <trkpt lat="45.99672" lon="4.90314">
        <ele>304</ele>
        <time>2016-12-10T13:59:11Z</time>
      </trkpt>
      <trkpt lat="45.99672" lon="4.90318">
        <ele>303</ele>
        <time>2016-12-10T13:59:12Z</time>
      </trkpt>
      <trkpt lat="45.99677" lon="4.90327">
        <ele>303</ele>
        <time>2016-12-10T13:59:20Z</time>
      </trkpt>
      <trkpt lat="45.99679" lon="4.90328">
        <ele>303</ele>
        <time>2016-12-10T13:59:21Z</time>
      </trkpt>
      <trkpt lat="45.99686" lon="4.90334">
        <ele>303</ele>
        <time>2016-12-10T13:59:24Z</time>
      </trkpt>
      <trkpt lat="45.99687" lon="4.90337">
        <ele>303</ele>
        <time>2016-12-10T13:59:25Z</time>
      </trkpt>
      <trkpt lat="45.99686" lon="4.9035">
        <ele>303</ele>
        <time>2016-12-10T13:59:28Z</time>
      </trkpt>
      <trkpt lat="45.99685" lon="4.90356">
        <ele>302</ele>
        <time>2016-12-10T13:59:29Z</time>
      </trkpt>
      <trkpt lat="45.99684" lon="4.90362">
        <ele>302</ele>
        <time>2016-12-10T13:59:30Z</time>
      </trkpt>
      <trkpt lat="45.99683" lon="4.90369">
        <ele>302</ele>
        <time>2016-12-10T13:59:31Z</time>
      </trkpt>
      <trkpt lat="45.99682" lon="4.90376">
        <ele>302</ele>
        <time>2016-12-10T13:59:32Z</time>
      </trkpt>
      <trkpt lat="45.99681" lon="4.90384">
        <ele>302</ele>
        <time>2016-12-10T13:59:33Z</time>
      </trkpt>
      <trkpt lat="45.99679" lon="4.90392">
        <ele>302</ele>
        <time>2016-12-10T13:59:34Z</time>
      </trkpt>
      <trkpt lat="45.99676" lon="4.90401">
        <ele>302</ele>
        <time>2016-12-10T13:59:35Z</time>
      </trkpt>
      <trkpt lat="45.99674" lon="4.9041">
        <ele>301</ele>
        <time>2016-12-10T13:59:36Z</time>
      </trkpt>
      <trkpt lat="45.99673" lon="4.90418">
        <ele>301</ele>
        <time>2016-12-10T13:59:37Z</time>
      </trkpt>
      <trkpt lat="45.99668" lon="4.90429">
        <ele>301</ele>
        <time>2016-12-10T13:59:39Z</time>
      </trkpt>
      <trkpt lat="45.99666" lon="4.90432">
        <ele>300</ele>
        <time>2016-12-10T13:59:40Z</time>
      </trkpt>
      <trkpt lat="45.99659" lon="4.90437">
        <ele>300</ele>
        <time>2016-12-10T13:59:42Z</time>
      </trkpt>
      <trkpt lat="45.99655" lon="4.90439">
        <ele>300</ele>
        <time>2016-12-10T13:59:43Z</time>
      </trkpt>
      <trkpt lat="45.99646" lon="4.90443">
        <ele>300</ele>
        <time>2016-12-10T13:59:45Z</time>
      </trkpt>
      <trkpt lat="45.99642" lon="4.90444">
        <ele>300</ele>
        <time>2016-12-10T13:59:46Z</time>
      </trkpt>
      <trkpt lat="45.99634" lon="4.90446">
        <ele>300</ele>
        <time>2016-12-10T13:59:48Z</time>
      </trkpt>
      <trkpt lat="45.9963" lon="4.90447">
        <ele>300</ele>
        <time>2016-12-10T13:59:49Z</time>
      </trkpt>
      <trkpt lat="45.99621" lon="4.90448">
        <ele>300</ele>
        <time>2016-12-10T13:59:51Z</time>
      </trkpt>
      <trkpt lat="45.99616" lon="4.90449">
        <ele>300</ele>
        <time>2016-12-10T13:59:52Z</time>
      </trkpt>
      <trkpt lat="45.9961" lon="4.90449">
        <ele>300</ele>
        <time>2016-12-10T13:59:53Z</time>
      </trkpt>
      <trkpt lat="45.99605" lon="4.9045">
        <ele>300</ele>
        <time>2016-12-10T13:59:54Z</time>
      </trkpt>
      <trkpt lat="45.99599" lon="4.90451">
        <ele>300</ele>
        <time>2016-12-10T13:59:55Z</time>
      </trkpt>
      <trkpt lat="45.99593" lon="4.90452">
        <ele>300</ele>
        <time>2016-12-10T13:59:56Z</time>
      </trkpt>
      <trkpt lat="45.99588" lon="4.90454">
        <ele>300</ele>
        <time>2016-12-10T13:59:57Z</time>
      </trkpt>
      <trkpt lat="45.99583" lon="4.90457">
        <ele>299</ele>
        <time>2016-12-10T13:59:58Z</time>
      </trkpt>
      <trkpt lat="45.99579" lon="4.9046">
        <ele>299</ele>
        <time>2016-12-10T13:59:59Z</time>
      </trkpt>
      <trkpt lat="45.99575" lon="4.90464">
        <ele>299</ele>
        <time>2016-12-10T14:00:00Z</time>
      </trkpt>
      <trkpt lat="45.99568" lon="4.90472">
        <ele>299</ele>
        <time>2016-12-10T14:00:02Z</time>
      </trkpt>
      <trkpt lat="45.99565" lon="4.90476">
        <ele>299</ele>
        <time>2016-12-10T14:00:03Z</time>
      </trkpt>
      <trkpt lat="45.99561" lon="4.9048">
        <ele>299</ele>
        <time>2016-12-10T14:00:04Z</time>
      </trkpt>
      <trkpt lat="45.99558" lon="4.90485">
        <ele>299</ele>
        <time>2016-12-10T14:00:05Z</time>
      </trkpt>
      <trkpt lat="45.99554" lon="4.90489">
        <ele>299</ele>
        <time>2016-12-10T14:00:06Z</time>
      </trkpt>
      <trkpt lat="45.99551" lon="4.90494">
        <ele>299</ele>
        <time>2016-12-10T14:00:07Z</time>
      </trkpt>
      <trkpt lat="45.99547" lon="4.90497">
        <ele>299</ele>
        <time>2016-12-10T14:00:08Z</time>
      </trkpt>
      <trkpt lat="45.99543" lon="4.90501">
        <ele>299</ele>
        <time>2016-12-10T14:00:09Z</time>
      </trkpt>
      <trkpt lat="45.99539" lon="4.90506">
        <ele>299</ele>
        <time>2016-12-10T14:00:10Z</time>
      </trkpt>
      <trkpt lat="45.99536" lon="4.9051">
        <ele>299</ele>
        <time>2016-12-10T14:00:11Z</time>
      </trkpt>
      <trkpt lat="45.99532" lon="4.90514">
        <ele>299</ele>
        <time>2016-12-10T14:00:12Z</time>
      </trkpt>
      <trkpt lat="45.99528" lon="4.90519">
        <ele>299</ele>
        <time>2016-12-10T14:00:13Z</time>
      </trkpt>
      <trkpt lat="45.99524" lon="4.90523">
        <ele>299</ele>
        <time>2016-12-10T14:00:14Z</time>
      </trkpt>
      <trkpt lat="45.9952" lon="4.90528">
        <ele>299</ele>
        <time>2016-12-10T14:00:15Z</time>
      </trkpt>
      <trkpt lat="45.99516" lon="4.90532">
        <ele>299</ele>
        <time>2016-12-10T14:00:16Z</time>
      </trkpt>
      <trkpt lat="45.99512" lon="4.90536">
        <ele>299</ele>
        <time>2016-12-10T14:00:17Z</time>
      </trkpt>
      <trkpt lat="45.99509" lon="4.90541">
        <ele>299</ele>
        <time>2016-12-10T14:00:18Z</time>
      </trkpt>
      <trkpt lat="45.99505" lon="4.90545">
        <ele>299</ele>
        <time>2016-12-10T14:00:19Z</time>
      </trkpt>
      <trkpt lat="45.99498" lon="4.90553">
        <ele>299</ele>
        <time>2016-12-10T14:00:21Z</time>
      </trkpt>
      <trkpt lat="45.99495" lon="4.90557">
        <ele>299</ele>
        <time>2016-12-10T14:00:22Z</time>
      </trkpt>
      <trkpt lat="45.99488" lon="4.90565">
        <ele>299</ele>
        <time>2016-12-10T14:00:24Z</time>
      </trkpt>
      <trkpt lat="45.99485" lon="4.90569">
        <ele>299</ele>
        <time>2016-12-10T14:00:25Z</time>
      </trkpt>
      <trkpt lat="45.99479" lon="4.90579">
        <ele>299</ele>
        <time>2016-12-10T14:00:27Z</time>
      </trkpt>
      <trkpt lat="45.99476" lon="4.90583">
        <ele>299</ele>
        <time>2016-12-10T14:00:28Z</time>
      </trkpt>
      <trkpt lat="45.99473" lon="4.90587">
        <ele>298</ele>
        <time>2016-12-10T14:00:29Z</time>
      </trkpt>
      <trkpt lat="45.99469" lon="4.90592">
        <ele>298</ele>
        <time>2016-12-10T14:00:30Z</time>
      </trkpt>
      <trkpt lat="45.99466" lon="4.90597">
        <ele>298</ele>
        <time>2016-12-10T14:00:31Z</time>
      </trkpt>
      <trkpt lat="45.99462" lon="4.90601">
        <ele>298</ele>
        <time>2016-12-10T14:00:32Z</time>
      </trkpt>
      <trkpt lat="45.99458" lon="4.90605">
        <ele>298</ele>
        <time>2016-12-10T14:00:33Z</time>
      </trkpt>
      <trkpt lat="45.99455" lon="4.90609">
        <ele>298</ele>
        <time>2016-12-10T14:00:34Z</time>
      </trkpt>
      <trkpt lat="45.99451" lon="4.90614">
        <ele>298</ele>
        <time>2016-12-10T14:00:35Z</time>
      </trkpt>
      <trkpt lat="45.99447" lon="4.90618">
        <ele>298</ele>
        <time>2016-12-10T14:00:36Z</time>
      </trkpt>
      <trkpt lat="45.99441" lon="4.90626">
        <ele>298</ele>
        <time>2016-12-10T14:00:38Z</time>
      </trkpt>
      <trkpt lat="45.99437" lon="4.90631">
        <ele>298</ele>
        <time>2016-12-10T14:00:39Z</time>
      </trkpt>
      <trkpt lat="45.99433" lon="4.90635">
        <ele>298</ele>
        <time>2016-12-10T14:00:40Z</time>
      </trkpt>
      <trkpt lat="45.9943" lon="4.90639">
        <ele>298</ele>
        <time>2016-12-10T14:00:41Z</time>
      </trkpt>
      <trkpt lat="45.99426" lon="4.90644">
        <ele>298</ele>
        <time>2016-12-10T14:00:42Z</time>
      </trkpt>
      <trkpt lat="45.99422" lon="4.90648">
        <ele>298</ele>
        <time>2016-12-10T14:00:43Z</time>
      </trkpt>
      <trkpt lat="45.99419" lon="4.90653">
        <ele>298</ele>
        <time>2016-12-10T14:00:44Z</time>
      </trkpt>
      <trkpt lat="45.99415" lon="4.90657">
        <ele>298</ele>
        <time>2016-12-10T14:00:45Z</time>
      </trkpt>
      <trkpt lat="45.99411" lon="4.90661">
        <ele>298</ele>
        <time>2016-12-10T14:00:46Z</time>
      </trkpt>
      <trkpt lat="45.99407" lon="4.90666">
        <ele>298</ele>
        <time>2016-12-10T14:00:47Z</time>
      </trkpt>
      <trkpt lat="45.99404" lon="4.9067">
        <ele>298</ele>
        <time>2016-12-10T14:00:48Z</time>
      </trkpt>
      <trkpt lat="45.994" lon="4.90674">
        <ele>298</ele>
        <time>2016-12-10T14:00:49Z</time>
      </trkpt>
      <trkpt lat="45.99396" lon="4.90679">
        <ele>298</ele>
        <time>2016-12-10T14:00:50Z</time>
      </trkpt>
      <trkpt lat="45.99392" lon="4.90683">
        <ele>298</ele>
        <time>2016-12-10T14:00:51Z</time>
      </trkpt>
      <trkpt lat="45.99389" lon="4.90687">
        <ele>298</ele>
        <time>2016-12-10T14:00:52Z</time>
      </trkpt>
      <trkpt lat="45.99385" lon="4.90692">
        <ele>298</ele>
        <time>2016-12-10T14:00:53Z</time>
      </trkpt>
      <trkpt lat="45.9938" lon="4.90696">
        <ele>298</ele>
        <time>2016-12-10T14:00:54Z</time>
      </trkpt>
      <trkpt lat="45.99377" lon="4.90701">
        <ele>298</ele>
        <time>2016-12-10T14:00:55Z</time>
      </trkpt>
      <trkpt lat="45.99373" lon="4.90706">
        <ele>299</ele>
        <time>2016-12-10T14:00:56Z</time>
      </trkpt>
      <trkpt lat="45.99369" lon="4.9071">
        <ele>299</ele>
        <time>2016-12-10T14:00:57Z</time>
      </trkpt>
      <trkpt lat="45.99365" lon="4.90715">
        <ele>299</ele>
        <time>2016-12-10T14:00:58Z</time>
      </trkpt>
      <trkpt lat="45.99362" lon="4.9072">
        <ele>299</ele>
        <time>2016-12-10T14:00:59Z</time>
      </trkpt>
      <trkpt lat="45.99358" lon="4.90725">
        <ele>299</ele>
        <time>2016-12-10T14:01:00Z</time>
      </trkpt>
      <trkpt lat="45.99354" lon="4.9073">
        <ele>299</ele>
        <time>2016-12-10T14:01:01Z</time>
      </trkpt>
      <trkpt lat="45.99351" lon="4.90735">
        <ele>299</ele>
        <time>2016-12-10T14:01:02Z</time>
      </trkpt>
      <trkpt lat="45.99347" lon="4.9074">
        <ele>299</ele>
        <time>2016-12-10T14:01:03Z</time>
      </trkpt>
      <trkpt lat="45.99343" lon="4.90744">
        <ele>299</ele>
        <time>2016-12-10T14:01:04Z</time>
      </trkpt>
      <trkpt lat="45.99339" lon="4.90749">
        <ele>300</ele>
        <time>2016-12-10T14:01:05Z</time>
      </trkpt>
      <trkpt lat="45.99335" lon="4.90753">
        <ele>300</ele>
        <time>2016-12-10T14:01:06Z</time>
      </trkpt>
      <trkpt lat="45.99331" lon="4.90757">
        <ele>300</ele>
        <time>2016-12-10T14:01:07Z</time>
      </trkpt>
      <trkpt lat="45.99327" lon="4.90763">
        <ele>300</ele>
        <time>2016-12-10T14:01:08Z</time>
      </trkpt>
      <trkpt lat="45.99323" lon="4.90768">
        <ele>300</ele>
        <time>2016-12-10T14:01:09Z</time>
      </trkpt>
      <trkpt lat="45.99319" lon="4.90773">
        <ele>300</ele>
        <time>2016-12-10T14:01:10Z</time>
      </trkpt>
      <trkpt lat="45.99315" lon="4.90778">
        <ele>300</ele>
        <time>2016-12-10T14:01:11Z</time>
      </trkpt>
      <trkpt lat="45.99312" lon="4.90782">
        <ele>300</ele>
        <time>2016-12-10T14:01:12Z</time>
      </trkpt>
      <trkpt lat="45.99308" lon="4.90787">
        <ele>300</ele>
        <time>2016-12-10T14:01:13Z</time>
      </trkpt>
      <trkpt lat="45.99304" lon="4.90791">
        <ele>300</ele>
        <time>2016-12-10T14:01:14Z</time>
      </trkpt>
      <trkpt lat="45.993" lon="4.90794">
        <ele>300</ele>
        <time>2016-12-10T14:01:15Z</time>
      </trkpt>
      <trkpt lat="45.99296" lon="4.90798">
        <ele>300</ele>
        <time>2016-12-10T14:01:16Z</time>
      </trkpt>
      <trkpt lat="45.99292" lon="4.90802">
        <ele>300</ele>
        <time>2016-12-10T14:01:17Z</time>
      </trkpt>
      <trkpt lat="45.99288" lon="4.90806">
        <ele>300</ele>
        <time>2016-12-10T14:01:18Z</time>
      </trkpt>
      <trkpt lat="45.99284" lon="4.90811">
        <ele>300</ele>
        <time>2016-12-10T14:01:19Z</time>
      </trkpt>
      <trkpt lat="45.9928" lon="4.90815">
        <ele>300</ele>
        <time>2016-12-10T14:01:20Z</time>
      </trkpt>
      <trkpt lat="45.99277" lon="4.9082">
        <ele>300</ele>
        <time>2016-12-10T14:01:21Z</time>
      </trkpt>
      <trkpt lat="45.99273" lon="4.90825">
        <ele>300</ele>
        <time>2016-12-10T14:01:22Z</time>
      </trkpt>
      <trkpt lat="45.9927" lon="4.9083">
        <ele>300</ele>
        <time>2016-12-10T14:01:23Z</time>
      </trkpt>
      <trkpt lat="45.99266" lon="4.90835">
        <ele>300</ele>
        <time>2016-12-10T14:01:24Z</time>
      </trkpt>
      <trkpt lat="45.99263" lon="4.9084">
        <ele>300</ele>
        <time>2016-12-10T14:01:25Z</time>
      </trkpt>
      <trkpt lat="45.99259" lon="4.90845">
        <ele>300</ele>
        <time>2016-12-10T14:01:26Z</time>
      </trkpt>
      <trkpt lat="45.99256" lon="4.9085">
        <ele>300</ele>
        <time>2016-12-10T14:01:27Z</time>
      </trkpt>
      <trkpt lat="45.99252" lon="4.90855">
        <ele>300</ele>
        <time>2016-12-10T14:01:28Z</time>
      </trkpt>
      <trkpt lat="45.99248" lon="4.90859">
        <ele>300</ele>
        <time>2016-12-10T14:01:29Z</time>
      </trkpt>
      <trkpt lat="45.99244" lon="4.90864">
        <ele>300</ele>
        <time>2016-12-10T14:01:30Z</time>
      </trkpt>
      <trkpt lat="45.99239" lon="4.90868">
        <ele>300</ele>
        <time>2016-12-10T14:01:31Z</time>
      </trkpt>
      <trkpt lat="45.99235" lon="4.90873">
        <ele>300</ele>
        <time>2016-12-10T14:01:32Z</time>
      </trkpt>
      <trkpt lat="45.99231" lon="4.90877">
        <ele>299</ele>
        <time>2016-12-10T14:01:33Z</time>
      </trkpt>
      <trkpt lat="45.99227" lon="4.90882">
        <ele>299</ele>
        <time>2016-12-10T14:01:34Z</time>
      </trkpt>
      <trkpt lat="45.99223" lon="4.90887">
        <ele>299</ele>
        <time>2016-12-10T14:01:35Z</time>
      </trkpt>
      <trkpt lat="45.99219" lon="4.90891">
        <ele>299</ele>
        <time>2016-12-10T14:01:36Z</time>
      </trkpt>
      <trkpt lat="45.99215" lon="4.90896">
        <ele>299</ele>
        <time>2016-12-10T14:01:37Z</time>
      </trkpt>
      <trkpt lat="45.99212" lon="4.909">
        <ele>299</ele>
        <time>2016-12-10T14:01:38Z</time>
      </trkpt>
      <trkpt lat="45.99208" lon="4.90905">
        <ele>300</ele>
        <time>2016-12-10T14:01:39Z</time>
      </trkpt>
      <trkpt lat="45.99204" lon="4.90909">
        <ele>300</ele>
        <time>2016-12-10T14:01:40Z</time>
      </trkpt>
      <trkpt lat="45.992" lon="4.90914">
        <ele>300</ele>
        <time>2016-12-10T14:01:41Z</time>
      </trkpt>
      <trkpt lat="45.99196" lon="4.90919">
        <ele>300</ele>
        <time>2016-12-10T14:01:42Z</time>
      </trkpt>
      <trkpt lat="45.99192" lon="4.90923">
        <ele>300</ele>
        <time>2016-12-10T14:01:43Z</time>
      </trkpt>
      <trkpt lat="45.99189" lon="4.90928">
        <ele>300</ele>
        <time>2016-12-10T14:01:44Z</time>
      </trkpt>
      <trkpt lat="45.99185" lon="4.90933">
        <ele>300</ele>
        <time>2016-12-10T14:01:45Z</time>
      </trkpt>
      <trkpt lat="45.99181" lon="4.90937">
        <ele>300</ele>
        <time>2016-12-10T14:01:46Z</time>
      </trkpt>
      <trkpt lat="45.99177" lon="4.90942">
        <ele>300</ele>
        <time>2016-12-10T14:01:47Z</time>
      </trkpt>
      <trkpt lat="45.99174" lon="4.90946">
        <ele>300</ele>
        <time>2016-12-10T14:01:48Z</time>
      </trkpt>
      <trkpt lat="45.9917" lon="4.90951">
        <ele>300</ele>
        <time>2016-12-10T14:01:49Z</time>
      </trkpt>
      <trkpt lat="45.99166" lon="4.90955">
        <ele>300</ele>
        <time>2016-12-10T14:01:50Z</time>
      </trkpt>
      <trkpt lat="45.99162" lon="4.9096">
        <ele>300</ele>
        <time>2016-12-10T14:01:51Z</time>
      </trkpt>
      <trkpt lat="45.99159" lon="4.90966">
        <ele>300</ele>
        <time>2016-12-10T14:01:52Z</time>
      </trkpt>
      <trkpt lat="45.99155" lon="4.9097">
        <ele>300</ele>
        <time>2016-12-10T14:01:53Z</time>
      </trkpt>
      <trkpt lat="45.99152" lon="4.90975">
        <ele>300</ele>
        <time>2016-12-10T14:01:54Z</time>
      </trkpt>
      <trkpt lat="45.99148" lon="4.9098">
        <ele>301</ele>
        <time>2016-12-10T14:01:55Z</time>
      </trkpt>
      <trkpt lat="45.99144" lon="4.90984">
        <ele>301</ele>
        <time>2016-12-10T14:01:56Z</time>
      </trkpt>
      <trkpt lat="45.9914" lon="4.90988">
        <ele>301</ele>
        <time>2016-12-10T14:01:57Z</time>
      </trkpt>
      <trkpt lat="45.99137" lon="4.90992">
        <ele>301</ele>
        <time>2016-12-10T14:01:58Z</time>
      </trkpt>
      <trkpt lat="45.99133" lon="4.90997">
        <ele>301</ele>
        <time>2016-12-10T14:01:59Z</time>
      </trkpt>
      <trkpt lat="45.99129" lon="4.91002">
        <ele>301</ele>
        <time>2016-12-10T14:02:00Z</time>
      </trkpt>
      <trkpt lat="45.99125" lon="4.91007">
        <ele>301</ele>
        <time>2016-12-10T14:02:01Z</time>
      </trkpt>
      <trkpt lat="45.99121" lon="4.91011">
        <ele>301</ele>
        <time>2016-12-10T14:02:02Z</time>
      </trkpt>
      <trkpt lat="45.99118" lon="4.91016">
        <ele>301</ele>
        <time>2016-12-10T14:02:03Z</time>
      </trkpt>
      <trkpt lat="45.99114" lon="4.91021">
        <ele>301</ele>
        <time>2016-12-10T14:02:04Z</time>
      </trkpt>
      <trkpt lat="45.9911" lon="4.91026">
        <ele>301</ele>
        <time>2016-12-10T14:02:05Z</time>
      </trkpt>
      <trkpt lat="45.99106" lon="4.91031">
        <ele>301</ele>
        <time>2016-12-10T14:02:06Z</time>
      </trkpt>
      <trkpt lat="45.99102" lon="4.91036">
        <ele>301</ele>
        <time>2016-12-10T14:02:07Z</time>
      </trkpt>
      <trkpt lat="45.99098" lon="4.91041">
        <ele>301</ele>
        <time>2016-12-10T14:02:08Z</time>
      </trkpt>
      <trkpt lat="45.99094" lon="4.91045">
        <ele>301</ele>
        <time>2016-12-10T14:02:09Z</time>
      </trkpt>
      <trkpt lat="45.9909" lon="4.91049">
        <ele>301</ele>
        <time>2016-12-10T14:02:10Z</time>
      </trkpt>
      <trkpt lat="45.99086" lon="4.91054">
        <ele>301</ele>
        <time>2016-12-10T14:02:11Z</time>
      </trkpt>
      <trkpt lat="45.99082" lon="4.91059">
        <ele>300</ele>
        <time>2016-12-10T14:02:12Z</time>
      </trkpt>
      <trkpt lat="45.99078" lon="4.91064">
        <ele>300</ele>
        <time>2016-12-10T14:02:13Z</time>
      </trkpt>
      <trkpt lat="45.99074" lon="4.91069">
        <ele>300</ele>
        <time>2016-12-10T14:02:14Z</time>
      </trkpt>
      <trkpt lat="45.9907" lon="4.91074">
        <ele>300</ele>
        <time>2016-12-10T14:02:15Z</time>
      </trkpt>
      <trkpt lat="45.99066" lon="4.91079">
        <ele>300</ele>
        <time>2016-12-10T14:02:16Z</time>
      </trkpt>
      <trkpt lat="45.99062" lon="4.91084">
        <ele>300</ele>
        <time>2016-12-10T14:02:17Z</time>
      </trkpt>
      <trkpt lat="45.99058" lon="4.91089">
        <ele>299</ele>
        <time>2016-12-10T14:02:18Z</time>
      </trkpt>
      <trkpt lat="45.99054" lon="4.91095">
        <ele>299</ele>
        <time>2016-12-10T14:02:19Z</time>
      </trkpt>
      <trkpt lat="45.99051" lon="4.911">
        <ele>299</ele>
        <time>2016-12-10T14:02:20Z</time>
      </trkpt>
      <trkpt lat="45.99047" lon="4.91104">
        <ele>299</ele>
        <time>2016-12-10T14:02:21Z</time>
      </trkpt>
      <trkpt lat="45.99043" lon="4.91109">
        <ele>299</ele>
        <time>2016-12-10T14:02:22Z</time>
      </trkpt>
      <trkpt lat="45.99039" lon="4.91114">
        <ele>299</ele>
        <time>2016-12-10T14:02:23Z</time>
      </trkpt>
      <trkpt lat="45.99035" lon="4.91118">
        <ele>299</ele>
        <time>2016-12-10T14:02:24Z</time>
      </trkpt>
      <trkpt lat="45.99032" lon="4.91123">
        <ele>299</ele>
        <time>2016-12-10T14:02:25Z</time>
      </trkpt>
      <trkpt lat="45.99028" lon="4.91128">
        <ele>299</ele>
        <time>2016-12-10T14:02:26Z</time>
      </trkpt>
      <trkpt lat="45.99024" lon="4.91133">
        <ele>299</ele>
        <time>2016-12-10T14:02:27Z</time>
      </trkpt>
      <trkpt lat="45.9902" lon="4.91138">
        <ele>299</ele>
        <time>2016-12-10T14:02:28Z</time>
      </trkpt>
      <trkpt lat="45.99016" lon="4.91144">
        <ele>299</ele>
        <time>2016-12-10T14:02:29Z</time>
      </trkpt>
      <trkpt lat="45.99012" lon="4.9115">
        <ele>299</ele>
        <time>2016-12-10T14:02:30Z</time>
      </trkpt>
      <trkpt lat="45.99008" lon="4.91155">
        <ele>299</ele>
        <time>2016-12-10T14:02:31Z</time>
      </trkpt>
      <trkpt lat="45.99004" lon="4.9116">
        <ele>299</ele>
        <time>2016-12-10T14:02:32Z</time>
      </trkpt>
      <trkpt lat="45.99" lon="4.91166">
        <ele>299</ele>
        <time>2016-12-10T14:02:33Z</time>
      </trkpt>
      <trkpt lat="45.98997" lon="4.91171">
        <ele>299</ele>
        <time>2016-12-10T14:02:34Z</time>
      </trkpt>
      <trkpt lat="45.98993" lon="4.91175">
        <ele>299</ele>
        <time>2016-12-10T14:02:35Z</time>
      </trkpt>
      <trkpt lat="45.98989" lon="4.91179">
        <ele>299</ele>
        <time>2016-12-10T14:02:36Z</time>
      </trkpt>
      <trkpt lat="45.98986" lon="4.91184">
        <ele>299</ele>
        <time>2016-12-10T14:02:37Z</time>
      </trkpt>
      <trkpt lat="45.98982" lon="4.91188">
        <ele>299</ele>
        <time>2016-12-10T14:02:38Z</time>
      </trkpt>
      <trkpt lat="45.98978" lon="4.91192">
        <ele>299</ele>
        <time>2016-12-10T14:02:39Z</time>
      </trkpt>
      <trkpt lat="45.98974" lon="4.91197">
        <ele>299</ele>
        <time>2016-12-10T14:02:40Z</time>
      </trkpt>
      <trkpt lat="45.9897" lon="4.91201">
        <ele>299</ele>
        <time>2016-12-10T14:02:41Z</time>
      </trkpt>
      <trkpt lat="45.98967" lon="4.91206">
        <ele>299</ele>
        <time>2016-12-10T14:02:42Z</time>
      </trkpt>
      <trkpt lat="45.98963" lon="4.91211">
        <ele>299</ele>
        <time>2016-12-10T14:02:43Z</time>
      </trkpt>
      <trkpt lat="45.9896" lon="4.91215">
        <ele>299</ele>
        <time>2016-12-10T14:02:44Z</time>
      </trkpt>
      <trkpt lat="45.98956" lon="4.9122">
        <ele>299</ele>
        <time>2016-12-10T14:02:45Z</time>
      </trkpt>
      <trkpt lat="45.98952" lon="4.91224">
        <ele>299</ele>
        <time>2016-12-10T14:02:46Z</time>
      </trkpt>
      <trkpt lat="45.98949" lon="4.91229">
        <ele>299</ele>
        <time>2016-12-10T14:02:47Z</time>
      </trkpt>
      <trkpt lat="45.98945" lon="4.91233">
        <ele>299</ele>
        <time>2016-12-10T14:02:48Z</time>
      </trkpt>
      <trkpt lat="45.98941" lon="4.91238">
        <ele>299</ele>
        <time>2016-12-10T14:02:49Z</time>
      </trkpt>
      <trkpt lat="45.98937" lon="4.91243">
        <ele>299</ele>
        <time>2016-12-10T14:02:50Z</time>
      </trkpt>
      <trkpt lat="45.98934" lon="4.91248">
        <ele>299</ele>
        <time>2016-12-10T14:02:51Z</time>
      </trkpt>
      <trkpt lat="45.9893" lon="4.91253">
        <ele>299</ele>
        <time>2016-12-10T14:02:52Z</time>
      </trkpt>
      <trkpt lat="45.98926" lon="4.91258">
        <ele>299</ele>
        <time>2016-12-10T14:02:53Z</time>
      </trkpt>
      <trkpt lat="45.98922" lon="4.91263">
        <ele>299</ele>
        <time>2016-12-10T14:02:54Z</time>
      </trkpt>
      <trkpt lat="45.98918" lon="4.91268">
        <ele>299</ele>
        <time>2016-12-10T14:02:55Z</time>
      </trkpt>
      <trkpt lat="45.98914" lon="4.91273">
        <ele>299</ele>
        <time>2016-12-10T14:02:56Z</time>
      </trkpt>
      <trkpt lat="45.9891" lon="4.91277">
        <ele>299</ele>
        <time>2016-12-10T14:02:57Z</time>
      </trkpt>
      <trkpt lat="45.98907" lon="4.91282">
        <ele>299</ele>
        <time>2016-12-10T14:02:58Z</time>
      </trkpt>
      <trkpt lat="45.98903" lon="4.91287">
        <ele>299</ele>
        <time>2016-12-10T14:02:59Z</time>
      </trkpt>
      <trkpt lat="45.989" lon="4.91292">
        <ele>299</ele>
        <time>2016-12-10T14:03:00Z</time>
      </trkpt>
      <trkpt lat="45.98896" lon="4.91296">
        <ele>299</ele>
        <time>2016-12-10T14:03:01Z</time>
      </trkpt>
      <trkpt lat="45.98892" lon="4.913">
        <ele>299</ele>
        <time>2016-12-10T14:03:02Z</time>
      </trkpt>
      <trkpt lat="45.98888" lon="4.91305">
        <ele>299</ele>
        <time>2016-12-10T14:03:03Z</time>
      </trkpt>
      <trkpt lat="45.98884" lon="4.9131">
        <ele>299</ele>
        <time>2016-12-10T14:03:04Z</time>
      </trkpt>
      <trkpt lat="45.9888" lon="4.91314">
        <ele>299</ele>
        <time>2016-12-10T14:03:05Z</time>
      </trkpt>
      <trkpt lat="45.98876" lon="4.91319">
        <ele>299</ele>
        <time>2016-12-10T14:03:06Z</time>
      </trkpt>
      <trkpt lat="45.98872" lon="4.91324">
        <ele>298</ele>
        <time>2016-12-10T14:03:07Z</time>
      </trkpt>
      <trkpt lat="45.98868" lon="4.91329">
        <ele>298</ele>
        <time>2016-12-10T14:03:08Z</time>
      </trkpt>
      <trkpt lat="45.98864" lon="4.91334">
        <ele>298</ele>
        <time>2016-12-10T14:03:09Z</time>
      </trkpt>
      <trkpt lat="45.9886" lon="4.91339">
        <ele>298</ele>
        <time>2016-12-10T14:03:10Z</time>
      </trkpt>
      <trkpt lat="45.98856" lon="4.91344">
        <ele>298</ele>
        <time>2016-12-10T14:03:11Z</time>
      </trkpt>
      <trkpt lat="45.98852" lon="4.91348">
        <ele>298</ele>
        <time>2016-12-10T14:03:12Z</time>
      </trkpt>
      <trkpt lat="45.98849" lon="4.91353">
        <ele>298</ele>
        <time>2016-12-10T14:03:13Z</time>
      </trkpt>
      <trkpt lat="45.98845" lon="4.91357">
        <ele>298</ele>
        <time>2016-12-10T14:03:14Z</time>
      </trkpt>
      <trkpt lat="45.98842" lon="4.91362">
        <ele>298</ele>
        <time>2016-12-10T14:03:15Z</time>
      </trkpt>
      <trkpt lat="45.98835" lon="4.9137">
        <ele>298</ele>
        <time>2016-12-10T14:03:17Z</time>
      </trkpt>
      <trkpt lat="45.98832" lon="4.91374">
        <ele>298</ele>
        <time>2016-12-10T14:03:18Z</time>
      </trkpt>
      <trkpt lat="45.98828" lon="4.91379">
        <ele>298</ele>
        <time>2016-12-10T14:03:19Z</time>
      </trkpt>
      <trkpt lat="45.98824" lon="4.91384">
        <ele>298</ele>
        <time>2016-12-10T14:03:20Z</time>
      </trkpt>
      <trkpt lat="45.9882" lon="4.91389">
        <ele>298</ele>
        <time>2016-12-10T14:03:21Z</time>
      </trkpt>
      <trkpt lat="45.98816" lon="4.91394">
        <ele>298</ele>
        <time>2016-12-10T14:03:22Z</time>
      </trkpt>
      <trkpt lat="45.98811" lon="4.91399">
        <ele>298</ele>
        <time>2016-12-10T14:03:23Z</time>
      </trkpt>
      <trkpt lat="45.98807" lon="4.91405">
        <ele>299</ele>
        <time>2016-12-10T14:03:24Z</time>
      </trkpt>
      <trkpt lat="45.98802" lon="4.9141">
        <ele>299</ele>
        <time>2016-12-10T14:03:25Z</time>
      </trkpt>
      <trkpt lat="45.98797" lon="4.91416">
        <ele>299</ele>
        <time>2016-12-10T14:03:26Z</time>
      </trkpt>
      <trkpt lat="45.98793" lon="4.91421">
        <ele>298</ele>
        <time>2016-12-10T14:03:27Z</time>
      </trkpt>
      <trkpt lat="45.98788" lon="4.91427">
        <ele>298</ele>
        <time>2016-12-10T14:03:28Z</time>
      </trkpt>
      <trkpt lat="45.98784" lon="4.91432">
        <ele>298</ele>
        <time>2016-12-10T14:03:29Z</time>
      </trkpt>
      <trkpt lat="45.9878" lon="4.91438">
        <ele>298</ele>
        <time>2016-12-10T14:03:30Z</time>
      </trkpt>
      <trkpt lat="45.98775" lon="4.91443">
        <ele>298</ele>
        <time>2016-12-10T14:03:31Z</time>
      </trkpt>
      <trkpt lat="45.98771" lon="4.91449">
        <ele>298</ele>
        <time>2016-12-10T14:03:32Z</time>
      </trkpt>
      <trkpt lat="45.98766" lon="4.91454">
        <ele>298</ele>
        <time>2016-12-10T14:03:33Z</time>
      </trkpt>
      <trkpt lat="45.98762" lon="4.91459">
        <ele>298</ele>
        <time>2016-12-10T14:03:34Z</time>
      </trkpt>
      <trkpt lat="45.98758" lon="4.91464">
        <ele>298</ele>
        <time>2016-12-10T14:03:35Z</time>
      </trkpt>
      <trkpt lat="45.98754" lon="4.9147">
        <ele>298</ele>
        <time>2016-12-10T14:03:36Z</time>
      </trkpt>
      <trkpt lat="45.9875" lon="4.91475">
        <ele>299</ele>
        <time>2016-12-10T14:03:37Z</time>
      </trkpt>
      <trkpt lat="45.98745" lon="4.9148">
        <ele>299</ele>
        <time>2016-12-10T14:03:38Z</time>
      </trkpt>
      <trkpt lat="45.98742" lon="4.91485">
        <ele>299</ele>
        <time>2016-12-10T14:03:39Z</time>
      </trkpt>
      <trkpt lat="45.98738" lon="4.9149">
        <ele>299</ele>
        <time>2016-12-10T14:03:40Z</time>
      </trkpt>
      <trkpt lat="45.98734" lon="4.91495">
        <ele>299</ele>
        <time>2016-12-10T14:03:41Z</time>
      </trkpt>
      <trkpt lat="45.98729" lon="4.915">
        <ele>298</ele>
        <time>2016-12-10T14:03:42Z</time>
      </trkpt>
      <trkpt lat="45.98725" lon="4.91505">
        <ele>299</ele>
        <time>2016-12-10T14:03:43Z</time>
      </trkpt>
      <trkpt lat="45.98722" lon="4.9151">
        <ele>299</ele>
        <time>2016-12-10T14:03:44Z</time>
      </trkpt>
      <trkpt lat="45.98718" lon="4.91515">
        <ele>299</ele>
        <time>2016-12-10T14:03:45Z</time>
      </trkpt>
      <trkpt lat="45.98715" lon="4.91521">
        <ele>299</ele>
        <time>2016-12-10T14:03:46Z</time>
      </trkpt>
      <trkpt lat="45.98711" lon="4.91526">
        <ele>299</ele>
        <time>2016-12-10T14:03:47Z</time>
      </trkpt>
      <trkpt lat="45.98707" lon="4.91531">
        <ele>299</ele>
        <time>2016-12-10T14:03:48Z</time>
      </trkpt>
      <trkpt lat="45.98704" lon="4.91537">
        <ele>299</ele>
        <time>2016-12-10T14:03:49Z</time>
      </trkpt>
      <trkpt lat="45.987" lon="4.91541">
        <ele>299</ele>
        <time>2016-12-10T14:03:50Z</time>
      </trkpt>
      <trkpt lat="45.98696" lon="4.91546">
        <ele>299</ele>
        <time>2016-12-10T14:03:51Z</time>
      </trkpt>
      <trkpt lat="45.98693" lon="4.91551">
        <ele>299</ele>
        <time>2016-12-10T14:03:52Z</time>
      </trkpt>
      <trkpt lat="45.9869" lon="4.91556">
        <ele>299</ele>
        <time>2016-12-10T14:03:53Z</time>
      </trkpt>
      <trkpt lat="45.98685" lon="4.91562">
        <ele>299</ele>
        <time>2016-12-10T14:03:54Z</time>
      </trkpt>
      <trkpt lat="45.98681" lon="4.91567">
        <ele>299</ele>
        <time>2016-12-10T14:03:55Z</time>
      </trkpt>
      <trkpt lat="45.98677" lon="4.91572">
        <ele>299</ele>
        <time>2016-12-10T14:03:56Z</time>
      </trkpt>
      <trkpt lat="45.98673" lon="4.91577">
        <ele>299</ele>
        <time>2016-12-10T14:03:57Z</time>
      </trkpt>
      <trkpt lat="45.98668" lon="4.91582">
        <ele>299</ele>
        <time>2016-12-10T14:03:58Z</time>
      </trkpt>
      <trkpt lat="45.98664" lon="4.91587">
        <ele>299</ele>
        <time>2016-12-10T14:03:59Z</time>
      </trkpt>
      <trkpt lat="45.9866" lon="4.91592">
        <ele>299</ele>
        <time>2016-12-10T14:04:00Z</time>
      </trkpt>
      <trkpt lat="45.98656" lon="4.91598">
        <ele>299</ele>
        <time>2016-12-10T14:04:01Z</time>
      </trkpt>
      <trkpt lat="45.9865" lon="4.91603">
        <ele>298</ele>
        <time>2016-12-10T14:04:02Z</time>
      </trkpt>
      <trkpt lat="45.98645" lon="4.91609">
        <ele>298</ele>
        <time>2016-12-10T14:04:03Z</time>
      </trkpt>
      <trkpt lat="45.98639" lon="4.91615">
        <ele>298</ele>
        <time>2016-12-10T14:04:04Z</time>
      </trkpt>
      <trkpt lat="45.98635" lon="4.9162">
        <ele>298</ele>
        <time>2016-12-10T14:04:05Z</time>
      </trkpt>
      <trkpt lat="45.98629" lon="4.91626">
        <ele>298</ele>
        <time>2016-12-10T14:04:06Z</time>
      </trkpt>
      <trkpt lat="45.98624" lon="4.91631">
        <ele>298</ele>
        <time>2016-12-10T14:04:07Z</time>
      </trkpt>
      <trkpt lat="45.98619" lon="4.91637">
        <ele>298</ele>
        <time>2016-12-10T14:04:08Z</time>
      </trkpt>
      <trkpt lat="45.98614" lon="4.91643">
        <ele>298</ele>
        <time>2016-12-10T14:04:09Z</time>
      </trkpt>
      <trkpt lat="45.98609" lon="4.91648">
        <ele>298</ele>
        <time>2016-12-10T14:04:10Z</time>
      </trkpt>
      <trkpt lat="45.98604" lon="4.91653">
        <ele>298</ele>
        <time>2016-12-10T14:04:11Z</time>
      </trkpt>
      <trkpt lat="45.98599" lon="4.91659">
        <ele>298</ele>
        <time>2016-12-10T14:04:12Z</time>
      </trkpt>
      <trkpt lat="45.98595" lon="4.91664">
        <ele>298</ele>
        <time>2016-12-10T14:04:13Z</time>
      </trkpt>
      <trkpt lat="45.9859" lon="4.91669">
        <ele>298</ele>
        <time>2016-12-10T14:04:14Z</time>
      </trkpt>
      <trkpt lat="45.98586" lon="4.91675">
        <ele>298</ele>
        <time>2016-12-10T14:04:15Z</time>
      </trkpt>
      <trkpt lat="45.98581" lon="4.9168">
        <ele>298</ele>
        <time>2016-12-10T14:04:16Z</time>
      </trkpt>
      <trkpt lat="45.98577" lon="4.91685">
        <ele>298</ele>
        <time>2016-12-10T14:04:17Z</time>
      </trkpt>
      <trkpt lat="45.98573" lon="4.91691">
        <ele>298</ele>
        <time>2016-12-10T14:04:18Z</time>
      </trkpt>
      <trkpt lat="45.98568" lon="4.91696">
        <ele>298</ele>
        <time>2016-12-10T14:04:19Z</time>
      </trkpt>
      <trkpt lat="45.98564" lon="4.91701">
        <ele>298</ele>
        <time>2016-12-10T14:04:20Z</time>
      </trkpt>
      <trkpt lat="45.9856" lon="4.91706">
        <ele>298</ele>
        <time>2016-12-10T14:04:21Z</time>
      </trkpt>
      <trkpt lat="45.98556" lon="4.91711">
        <ele>298</ele>
        <time>2016-12-10T14:04:22Z</time>
      </trkpt>
      <trkpt lat="45.98552" lon="4.91717">
        <ele>298</ele>
        <time>2016-12-10T14:04:23Z</time>
      </trkpt>
      <trkpt lat="45.98547" lon="4.91722">
        <ele>298</ele>
        <time>2016-12-10T14:04:24Z</time>
      </trkpt>
      <trkpt lat="45.98543" lon="4.91727">
        <ele>298</ele>
        <time>2016-12-10T14:04:25Z</time>
      </trkpt>
      <trkpt lat="45.98539" lon="4.91732">
        <ele>297</ele>
        <time>2016-12-10T14:04:26Z</time>
      </trkpt>
      <trkpt lat="45.98535" lon="4.91738">
        <ele>297</ele>
        <time>2016-12-10T14:04:27Z</time>
      </trkpt>
      <trkpt lat="45.9853" lon="4.91743">
        <ele>297</ele>
        <time>2016-12-10T14:04:28Z</time>
      </trkpt>
      <trkpt lat="45.98526" lon="4.91748">
        <ele>297</ele>
        <time>2016-12-10T14:04:29Z</time>
      </trkpt>
      <trkpt lat="45.98522" lon="4.91753">
        <ele>297</ele>
        <time>2016-12-10T14:04:30Z</time>
      </trkpt>
      <trkpt lat="45.98518" lon="4.91759">
        <ele>297</ele>
        <time>2016-12-10T14:04:31Z</time>
      </trkpt>
      <trkpt lat="45.98514" lon="4.91764">
        <ele>297</ele>
        <time>2016-12-10T14:04:32Z</time>
      </trkpt>
      <trkpt lat="45.9851" lon="4.91769">
        <ele>297</ele>
        <time>2016-12-10T14:04:33Z</time>
      </trkpt>
      <trkpt lat="45.98506" lon="4.91774">
        <ele>297</ele>
        <time>2016-12-10T14:04:34Z</time>
      </trkpt>
      <trkpt lat="45.98502" lon="4.91779">
        <ele>298</ele>
        <time>2016-12-10T14:04:35Z</time>
      </trkpt>
      <trkpt lat="45.98498" lon="4.91784">
        <ele>297</ele>
        <time>2016-12-10T14:04:36Z</time>
      </trkpt>
      <trkpt lat="45.98494" lon="4.91789">
        <ele>297</ele>
        <time>2016-12-10T14:04:37Z</time>
      </trkpt>
      <trkpt lat="45.9849" lon="4.91794">
        <ele>297</ele>
        <time>2016-12-10T14:04:38Z</time>
      </trkpt>
      <trkpt lat="45.98486" lon="4.91799">
        <ele>297</ele>
        <time>2016-12-10T14:04:39Z</time>
      </trkpt>
      <trkpt lat="45.98481" lon="4.91804">
        <ele>297</ele>
        <time>2016-12-10T14:04:40Z</time>
      </trkpt>
      <trkpt lat="45.98477" lon="4.9181">
        <ele>297</ele>
        <time>2016-12-10T14:04:41Z</time>
      </trkpt>
      <trkpt lat="45.98473" lon="4.91815">
        <ele>297</ele>
        <time>2016-12-10T14:04:42Z</time>
      </trkpt>
      <trkpt lat="45.98469" lon="4.9182">
        <ele>297</ele>
        <time>2016-12-10T14:04:43Z</time>
      </trkpt>
      <trkpt lat="45.98465" lon="4.91825">
        <ele>297</ele>
        <time>2016-12-10T14:04:44Z</time>
      </trkpt>
      <trkpt lat="45.98461" lon="4.91829">
        <ele>297</ele>
        <time>2016-12-10T14:04:45Z</time>
      </trkpt>
      <trkpt lat="45.98456" lon="4.91834">
        <ele>297</ele>
        <time>2016-12-10T14:04:46Z</time>
      </trkpt>
      <trkpt lat="45.98452" lon="4.91839">
        <ele>297</ele>
        <time>2016-12-10T14:04:47Z</time>
      </trkpt>
      <trkpt lat="45.98449" lon="4.91844">
        <ele>297</ele>
        <time>2016-12-10T14:04:48Z</time>
      </trkpt>
      <trkpt lat="45.98445" lon="4.91849">
        <ele>297</ele>
        <time>2016-12-10T14:04:49Z</time>
      </trkpt>
      <trkpt lat="45.98441" lon="4.91853">
        <ele>297</ele>
        <time>2016-12-10T14:04:50Z</time>
      </trkpt>
      <trkpt lat="45.98437" lon="4.91858">
        <ele>297</ele>
        <time>2016-12-10T14:04:51Z</time>
      </trkpt>
      <trkpt lat="45.98432" lon="4.91862">
        <ele>297</ele>
        <time>2016-12-10T14:04:52Z</time>
      </trkpt>
      <trkpt lat="45.98428" lon="4.91867">
        <ele>297</ele>
        <time>2016-12-10T14:04:53Z</time>
      </trkpt>
      <trkpt lat="45.98424" lon="4.91872">
        <ele>297</ele>
        <time>2016-12-10T14:04:54Z</time>
      </trkpt>
      <trkpt lat="45.9842" lon="4.91877">
        <ele>297</ele>
        <time>2016-12-10T14:04:55Z</time>
      </trkpt>
      <trkpt lat="45.98416" lon="4.91882">
        <ele>297</ele>
        <time>2016-12-10T14:04:56Z</time>
      </trkpt>
      <trkpt lat="45.98412" lon="4.91887">
        <ele>297</ele>
        <time>2016-12-10T14:04:57Z</time>
      </trkpt>
      <trkpt lat="45.98408" lon="4.91891">
        <ele>297</ele>
        <time>2016-12-10T14:04:58Z</time>
      </trkpt>
      <trkpt lat="45.98404" lon="4.91896">
        <ele>297</ele>
        <time>2016-12-10T14:04:59Z</time>
      </trkpt>
      <trkpt lat="45.984" lon="4.91901">
        <ele>297</ele>
        <time>2016-12-10T14:05:00Z</time>
      </trkpt>
      <trkpt lat="45.98396" lon="4.91906">
        <ele>297</ele>
        <time>2016-12-10T14:05:01Z</time>
      </trkpt>
      <trkpt lat="45.98392" lon="4.91911">
        <ele>297</ele>
        <time>2016-12-10T14:05:02Z</time>
      </trkpt>
      <trkpt lat="45.98388" lon="4.91916">
        <ele>298</ele>
        <time>2016-12-10T14:05:03Z</time>
      </trkpt>
      <trkpt lat="45.98385" lon="4.9192">
        <ele>297</ele>
        <time>2016-12-10T14:05:04Z</time>
      </trkpt>
      <trkpt lat="45.98381" lon="4.91925">
        <ele>297</ele>
        <time>2016-12-10T14:05:05Z</time>
      </trkpt>
      <trkpt lat="45.98377" lon="4.9193">
        <ele>297</ele>
        <time>2016-12-10T14:05:06Z</time>
      </trkpt>
      <trkpt lat="45.98373" lon="4.91935">
        <ele>298</ele>
        <time>2016-12-10T14:05:07Z</time>
      </trkpt>
      <trkpt lat="45.98369" lon="4.9194">
        <ele>298</ele>
        <time>2016-12-10T14:05:08Z</time>
      </trkpt>
      <trkpt lat="45.98365" lon="4.91944">
        <ele>298</ele>
        <time>2016-12-10T14:05:09Z</time>
      </trkpt>
      <trkpt lat="45.98361" lon="4.91949">
        <ele>298</ele>
        <time>2016-12-10T14:05:10Z</time>
      </trkpt>
      <trkpt lat="45.98357" lon="4.91953">
        <ele>298</ele>
        <time>2016-12-10T14:05:11Z</time>
      </trkpt>
      <trkpt lat="45.98353" lon="4.91958">
        <ele>298</ele>
        <time>2016-12-10T14:05:12Z</time>
      </trkpt>
      <trkpt lat="45.98349" lon="4.91963">
        <ele>297</ele>
        <time>2016-12-10T14:05:13Z</time>
      </trkpt>
      <trkpt lat="45.98345" lon="4.91967">
        <ele>297</ele>
        <time>2016-12-10T14:05:14Z</time>
      </trkpt>
      <trkpt lat="45.98341" lon="4.91972">
        <ele>297</ele>
        <time>2016-12-10T14:05:15Z</time>
      </trkpt>
      <trkpt lat="45.98337" lon="4.91976">
        <ele>297</ele>
        <time>2016-12-10T14:05:16Z</time>
      </trkpt>
      <trkpt lat="45.98333" lon="4.9198">
        <ele>298</ele>
        <time>2016-12-10T14:05:17Z</time>
      </trkpt>
      <trkpt lat="45.9833" lon="4.91984">
        <ele>298</ele>
        <time>2016-12-10T14:05:18Z</time>
      </trkpt>
      <trkpt lat="45.98326" lon="4.91989">
        <ele>298</ele>
        <time>2016-12-10T14:05:19Z</time>
      </trkpt>
      <trkpt lat="45.98323" lon="4.91994">
        <ele>298</ele>
        <time>2016-12-10T14:05:20Z</time>
      </trkpt>
      <trkpt lat="45.98319" lon="4.91999">
        <ele>298</ele>
        <time>2016-12-10T14:05:21Z</time>
      </trkpt>
      <trkpt lat="45.98315" lon="4.92003">
        <ele>298</ele>
        <time>2016-12-10T14:05:22Z</time>
      </trkpt>
      <trkpt lat="45.98311" lon="4.92008">
        <ele>298</ele>
        <time>2016-12-10T14:05:23Z</time>
      </trkpt>
      <trkpt lat="45.98308" lon="4.92013">
        <ele>298</ele>
        <time>2016-12-10T14:05:24Z</time>
      </trkpt>
      <trkpt lat="45.98304" lon="4.92017">
        <ele>298</ele>
        <time>2016-12-10T14:05:25Z</time>
      </trkpt>
      <trkpt lat="45.983" lon="4.92022">
        <ele>298</ele>
        <time>2016-12-10T14:05:26Z</time>
      </trkpt>
      <trkpt lat="45.98296" lon="4.92026">
        <ele>298</ele>
        <time>2016-12-10T14:05:27Z</time>
      </trkpt>
      <trkpt lat="45.98292" lon="4.92031">
        <ele>298</ele>
        <time>2016-12-10T14:05:28Z</time>
      </trkpt>
      <trkpt lat="45.98288" lon="4.92036">
        <ele>298</ele>
        <time>2016-12-10T14:05:29Z</time>
      </trkpt>
      <trkpt lat="45.98284" lon="4.92041">
        <ele>298</ele>
        <time>2016-12-10T14:05:30Z</time>
      </trkpt>
      <trkpt lat="45.9828" lon="4.92045">
        <ele>298</ele>
        <time>2016-12-10T14:05:31Z</time>
      </trkpt>
      <trkpt lat="45.98276" lon="4.9205">
        <ele>298</ele>
        <time>2016-12-10T14:05:32Z</time>
      </trkpt>
      <trkpt lat="45.98273" lon="4.92054">
        <ele>298</ele>
        <time>2016-12-10T14:05:33Z</time>
      </trkpt>
      <trkpt lat="45.98269" lon="4.92059">
        <ele>298</ele>
        <time>2016-12-10T14:05:34Z</time>
      </trkpt>
      <trkpt lat="45.98265" lon="4.92063">
        <ele>298</ele>
        <time>2016-12-10T14:05:35Z</time>
      </trkpt>
      <trkpt lat="45.98261" lon="4.92068">
        <ele>298</ele>
        <time>2016-12-10T14:05:36Z</time>
      </trkpt>
      <trkpt lat="45.98257" lon="4.92072">
        <ele>299</ele>
        <time>2016-12-10T14:05:37Z</time>
      </trkpt>
      <trkpt lat="45.98253" lon="4.92077">
        <ele>299</ele>
        <time>2016-12-10T14:05:38Z</time>
      </trkpt>
      <trkpt lat="45.98248" lon="4.92082">
        <ele>299</ele>
        <time>2016-12-10T14:05:39Z</time>
      </trkpt>
      <trkpt lat="45.98244" lon="4.92087">
        <ele>299</ele>
        <time>2016-12-10T14:05:40Z</time>
      </trkpt>
      <trkpt lat="45.9824" lon="4.92092">
        <ele>299</ele>
        <time>2016-12-10T14:05:41Z</time>
      </trkpt>
      <trkpt lat="45.98235" lon="4.92096">
        <ele>299</ele>
        <time>2016-12-10T14:05:42Z</time>
      </trkpt>
      <trkpt lat="45.98231" lon="4.92101">
        <ele>299</ele>
        <time>2016-12-10T14:05:43Z</time>
      </trkpt>
      <trkpt lat="45.98228" lon="4.92106">
        <ele>299</ele>
        <time>2016-12-10T14:05:44Z</time>
      </trkpt>
      <trkpt lat="45.98224" lon="4.9211">
        <ele>299</ele>
        <time>2016-12-10T14:05:45Z</time>
      </trkpt>
      <trkpt lat="45.9822" lon="4.92115">
        <ele>299</ele>
        <time>2016-12-10T14:05:46Z</time>
      </trkpt>
      <trkpt lat="45.98216" lon="4.9212">
        <ele>299</ele>
        <time>2016-12-10T14:05:47Z</time>
      </trkpt>
      <trkpt lat="45.98212" lon="4.92125">
        <ele>299</ele>
        <time>2016-12-10T14:05:48Z</time>
      </trkpt>
      <trkpt lat="45.98208" lon="4.92129">
        <ele>299</ele>
        <time>2016-12-10T14:05:49Z</time>
      </trkpt>
      <trkpt lat="45.98205" lon="4.92134">
        <ele>299</ele>
        <time>2016-12-10T14:05:50Z</time>
      </trkpt>
      <trkpt lat="45.98201" lon="4.92139">
        <ele>299</ele>
        <time>2016-12-10T14:05:51Z</time>
      </trkpt>
      <trkpt lat="45.98197" lon="4.92144">
        <ele>299</ele>
        <time>2016-12-10T14:05:52Z</time>
      </trkpt>
      <trkpt lat="45.98193" lon="4.92149">
        <ele>299</ele>
        <time>2016-12-10T14:05:53Z</time>
      </trkpt>
      <trkpt lat="45.98189" lon="4.92154">
        <ele>299</ele>
        <time>2016-12-10T14:05:54Z</time>
      </trkpt>
      <trkpt lat="45.98185" lon="4.92158">
        <ele>299</ele>
        <time>2016-12-10T14:05:55Z</time>
      </trkpt>
      <trkpt lat="45.98181" lon="4.92163">
        <ele>299</ele>
        <time>2016-12-10T14:05:56Z</time>
      </trkpt>
      <trkpt lat="45.98177" lon="4.92168">
        <ele>299</ele>
        <time>2016-12-10T14:05:57Z</time>
      </trkpt>
      <trkpt lat="45.98173" lon="4.92173">
        <ele>299</ele>
        <time>2016-12-10T14:05:58Z</time>
      </trkpt>
      <trkpt lat="45.98169" lon="4.92178">
        <ele>299</ele>
        <time>2016-12-10T14:05:59Z</time>
      </trkpt>
      <trkpt lat="45.98165" lon="4.92183">
        <ele>299</ele>
        <time>2016-12-10T14:06:00Z</time>
      </trkpt>
      <trkpt lat="45.98161" lon="4.92187">
        <ele>299</ele>
        <time>2016-12-10T14:06:01Z</time>
      </trkpt>
      <trkpt lat="45.98158" lon="4.92192">
        <ele>299</ele>
        <time>2016-12-10T14:06:02Z</time>
      </trkpt>
      <trkpt lat="45.98154" lon="4.92197">
        <ele>299</ele>
        <time>2016-12-10T14:06:03Z</time>
      </trkpt>
      <trkpt lat="45.9815" lon="4.92202">
        <ele>299</ele>
        <time>2016-12-10T14:06:04Z</time>
      </trkpt>
      <trkpt lat="45.98146" lon="4.92207">
        <ele>299</ele>
        <time>2016-12-10T14:06:05Z</time>
      </trkpt>
      <trkpt lat="45.98142" lon="4.92211">
        <ele>299</ele>
        <time>2016-12-10T14:06:06Z</time>
      </trkpt>
      <trkpt lat="45.98139" lon="4.92216">
        <ele>299</ele>
        <time>2016-12-10T14:06:07Z</time>
      </trkpt>
      <trkpt lat="45.98135" lon="4.92221">
        <ele>299</ele>
        <time>2016-12-10T14:06:08Z</time>
      </trkpt>
      <trkpt lat="45.98131" lon="4.92225">
        <ele>299</ele>
        <time>2016-12-10T14:06:09Z</time>
      </trkpt>
      <trkpt lat="45.98127" lon="4.92229">
        <ele>299</ele>
        <time>2016-12-10T14:06:10Z</time>
      </trkpt>
      <trkpt lat="45.98123" lon="4.92234">
        <ele>299</ele>
        <time>2016-12-10T14:06:11Z</time>
      </trkpt>
      <trkpt lat="45.98119" lon="4.92239">
        <ele>299</ele>
        <time>2016-12-10T14:06:12Z</time>
      </trkpt>
      <trkpt lat="45.98115" lon="4.92244">
        <ele>299</ele>
        <time>2016-12-10T14:06:13Z</time>
      </trkpt>
      <trkpt lat="45.98111" lon="4.92248">
        <ele>299</ele>
        <time>2016-12-10T14:06:14Z</time>
      </trkpt>
      <trkpt lat="45.98107" lon="4.92253">
        <ele>300</ele>
        <time>2016-12-10T14:06:15Z</time>
      </trkpt>
      <trkpt lat="45.98103" lon="4.92258">
        <ele>300</ele>
        <time>2016-12-10T14:06:16Z</time>
      </trkpt>
      <trkpt lat="45.98099" lon="4.92262">
        <ele>300</ele>
        <time>2016-12-10T14:06:17Z</time>
      </trkpt>
      <trkpt lat="45.98095" lon="4.92267">
        <ele>300</ele>
        <time>2016-12-10T14:06:18Z</time>
      </trkpt>
      <trkpt lat="45.98091" lon="4.92272">
        <ele>300</ele>
        <time>2016-12-10T14:06:19Z</time>
      </trkpt>
      <trkpt lat="45.98087" lon="4.92276">
        <ele>300</ele>
        <time>2016-12-10T14:06:20Z</time>
      </trkpt>
      <trkpt lat="45.98083" lon="4.92281">
        <ele>299</ele>
        <time>2016-12-10T14:06:21Z</time>
      </trkpt>
      <trkpt lat="45.98079" lon="4.92286">
        <ele>299</ele>
        <time>2016-12-10T14:06:22Z</time>
      </trkpt>
      <trkpt lat="45.98075" lon="4.92291">
        <ele>299</ele>
        <time>2016-12-10T14:06:23Z</time>
      </trkpt>
      <trkpt lat="45.98072" lon="4.92296">
        <ele>299</ele>
        <time>2016-12-10T14:06:24Z</time>
      </trkpt>
      <trkpt lat="45.98068" lon="4.92301">
        <ele>299</ele>
        <time>2016-12-10T14:06:25Z</time>
      </trkpt>
      <trkpt lat="45.98064" lon="4.92306">
        <ele>299</ele>
        <time>2016-12-10T14:06:26Z</time>
      </trkpt>
      <trkpt lat="45.98061" lon="4.9231">
        <ele>299</ele>
        <time>2016-12-10T14:06:27Z</time>
      </trkpt>
      <trkpt lat="45.98057" lon="4.92314">
        <ele>299</ele>
        <time>2016-12-10T14:06:28Z</time>
      </trkpt>
      <trkpt lat="45.98053" lon="4.92318">
        <ele>299</ele>
        <time>2016-12-10T14:06:29Z</time>
      </trkpt>
      <trkpt lat="45.9805" lon="4.92323">
        <ele>299</ele>
        <time>2016-12-10T14:06:30Z</time>
      </trkpt>
      <trkpt lat="45.98046" lon="4.92328">
        <ele>299</ele>
        <time>2016-12-10T14:06:31Z</time>
      </trkpt>
      <trkpt lat="45.98042" lon="4.92334">
        <ele>299</ele>
        <time>2016-12-10T14:06:32Z</time>
      </trkpt>
      <trkpt lat="45.98038" lon="4.9234">
        <ele>299</ele>
        <time>2016-12-10T14:06:33Z</time>
      </trkpt>
      <trkpt lat="45.98035" lon="4.92345">
        <ele>299</ele>
        <time>2016-12-10T14:06:34Z</time>
      </trkpt>
      <trkpt lat="45.98031" lon="4.9235">
        <ele>299</ele>
        <time>2016-12-10T14:06:35Z</time>
      </trkpt>
      <trkpt lat="45.98027" lon="4.92355">
        <ele>298</ele>
        <time>2016-12-10T14:06:36Z</time>
      </trkpt>
      <trkpt lat="45.98024" lon="4.9236">
        <ele>298</ele>
        <time>2016-12-10T14:06:37Z</time>
      </trkpt>
      <trkpt lat="45.9802" lon="4.92365">
        <ele>298</ele>
        <time>2016-12-10T14:06:38Z</time>
      </trkpt>
      <trkpt lat="45.98016" lon="4.9237">
        <ele>298</ele>
        <time>2016-12-10T14:06:39Z</time>
      </trkpt>
      <trkpt lat="45.98012" lon="4.92375">
        <ele>298</ele>
        <time>2016-12-10T14:06:40Z</time>
      </trkpt>
      <trkpt lat="45.98007" lon="4.9238">
        <ele>298</ele>
        <time>2016-12-10T14:06:41Z</time>
      </trkpt>
      <trkpt lat="45.98003" lon="4.92385">
        <ele>298</ele>
        <time>2016-12-10T14:06:42Z</time>
      </trkpt>
      <trkpt lat="45.97998" lon="4.9239">
        <ele>298</ele>
        <time>2016-12-10T14:06:43Z</time>
      </trkpt>
      <trkpt lat="45.97994" lon="4.92396">
        <ele>298</ele>
        <time>2016-12-10T14:06:44Z</time>
      </trkpt>
      <trkpt lat="45.97989" lon="4.92402">
        <ele>298</ele>
        <time>2016-12-10T14:06:45Z</time>
      </trkpt>
      <trkpt lat="45.97985" lon="4.92407">
        <ele>298</ele>
        <time>2016-12-10T14:06:46Z</time>
      </trkpt>
      <trkpt lat="45.9798" lon="4.92412">
        <ele>298</ele>
        <time>2016-12-10T14:06:47Z</time>
      </trkpt>
      <trkpt lat="45.97976" lon="4.92417">
        <ele>298</ele>
        <time>2016-12-10T14:06:48Z</time>
      </trkpt>
      <trkpt lat="45.97972" lon="4.92422">
        <ele>298</ele>
        <time>2016-12-10T14:06:49Z</time>
      </trkpt>
      <trkpt lat="45.97968" lon="4.92427">
        <ele>298</ele>
        <time>2016-12-10T14:06:50Z</time>
      </trkpt>
      <trkpt lat="45.97964" lon="4.92431">
        <ele>298</ele>
        <time>2016-12-10T14:06:51Z</time>
      </trkpt>
      <trkpt lat="45.97961" lon="4.92435">
        <ele>298</ele>
        <time>2016-12-10T14:06:52Z</time>
      </trkpt>
      <trkpt lat="45.97957" lon="4.9244">
        <ele>299</ele>
        <time>2016-12-10T14:06:53Z</time>
      </trkpt>
      <trkpt lat="45.97954" lon="4.92444">
        <ele>299</ele>
        <time>2016-12-10T14:06:54Z</time>
      </trkpt>
      <trkpt lat="45.9795" lon="4.92449">
        <ele>299</ele>
        <time>2016-12-10T14:06:55Z</time>
      </trkpt>
      <trkpt lat="45.97946" lon="4.92454">
        <ele>299</ele>
        <time>2016-12-10T14:06:56Z</time>
      </trkpt>
      <trkpt lat="45.97943" lon="4.92458">
        <ele>299</ele>
        <time>2016-12-10T14:06:57Z</time>
      </trkpt>
      <trkpt lat="45.97939" lon="4.92463">
        <ele>299</ele>
        <time>2016-12-10T14:06:58Z</time>
      </trkpt>
      <trkpt lat="45.97936" lon="4.92468">
        <ele>299</ele>
        <time>2016-12-10T14:06:59Z</time>
      </trkpt>
      <trkpt lat="45.97932" lon="4.92473">
        <ele>299</ele>
        <time>2016-12-10T14:07:00Z</time>
      </trkpt>
      <trkpt lat="45.97928" lon="4.92478">
        <ele>299</ele>
        <time>2016-12-10T14:07:01Z</time>
      </trkpt>
      <trkpt lat="45.97924" lon="4.92483">
        <ele>299</ele>
        <time>2016-12-10T14:07:02Z</time>
      </trkpt>
      <trkpt lat="45.9792" lon="4.92488">
        <ele>299</ele>
        <time>2016-12-10T14:07:03Z</time>
      </trkpt>
      <trkpt lat="45.97916" lon="4.92493">
        <ele>299</ele>
        <time>2016-12-10T14:07:04Z</time>
      </trkpt>
      <trkpt lat="45.97912" lon="4.92498">
        <ele>299</ele>
        <time>2016-12-10T14:07:05Z</time>
      </trkpt>
      <trkpt lat="45.97908" lon="4.92503">
        <ele>299</ele>
        <time>2016-12-10T14:07:06Z</time>
      </trkpt>
      <trkpt lat="45.97904" lon="4.92506">
        <ele>299</ele>
        <time>2016-12-10T14:07:07Z</time>
      </trkpt>
      <trkpt lat="45.979" lon="4.92511">
        <ele>299</ele>
        <time>2016-12-10T14:07:08Z</time>
      </trkpt>
      <trkpt lat="45.97897" lon="4.92516">
        <ele>300</ele>
        <time>2016-12-10T14:07:09Z</time>
      </trkpt>
      <trkpt lat="45.97893" lon="4.9252">
        <ele>300</ele>
        <time>2016-12-10T14:07:10Z</time>
      </trkpt>
      <trkpt lat="45.97889" lon="4.92524">
        <ele>300</ele>
        <time>2016-12-10T14:07:11Z</time>
      </trkpt>
      <trkpt lat="45.97885" lon="4.92528">
        <ele>300</ele>
        <time>2016-12-10T14:07:12Z</time>
      </trkpt>
      <trkpt lat="45.97881" lon="4.92533">
        <ele>300</ele>
        <time>2016-12-10T14:07:13Z</time>
      </trkpt>
      <trkpt lat="45.97878" lon="4.92537">
        <ele>300</ele>
        <time>2016-12-10T14:07:14Z</time>
      </trkpt>
      <trkpt lat="45.97874" lon="4.92542">
        <ele>300</ele>
        <time>2016-12-10T14:07:15Z</time>
      </trkpt>
      <trkpt lat="45.9787" lon="4.92546">
        <ele>300</ele>
        <time>2016-12-10T14:07:16Z</time>
      </trkpt>
      <trkpt lat="45.97866" lon="4.9255">
        <ele>300</ele>
        <time>2016-12-10T14:07:17Z</time>
      </trkpt>
      <trkpt lat="45.97862" lon="4.92554">
        <ele>300</ele>
        <time>2016-12-10T14:07:18Z</time>
      </trkpt>
      <trkpt lat="45.97859" lon="4.92559">
        <ele>300</ele>
        <time>2016-12-10T14:07:19Z</time>
      </trkpt>
      <trkpt lat="45.97856" lon="4.92564">
        <ele>300</ele>
        <time>2016-12-10T14:07:20Z</time>
      </trkpt>
      <trkpt lat="45.97852" lon="4.92568">
        <ele>300</ele>
        <time>2016-12-10T14:07:21Z</time>
      </trkpt>
      <trkpt lat="45.97848" lon="4.92573">
        <ele>300</ele>
        <time>2016-12-10T14:07:22Z</time>
      </trkpt>
      <trkpt lat="45.97844" lon="4.92578">
        <ele>300</ele>
        <time>2016-12-10T14:07:23Z</time>
      </trkpt>
      <trkpt lat="45.9784" lon="4.92582">
        <ele>300</ele>
        <time>2016-12-10T14:07:24Z</time>
      </trkpt>
      <trkpt lat="45.97836" lon="4.92587">
        <ele>300</ele>
        <time>2016-12-10T14:07:25Z</time>
      </trkpt>
      <trkpt lat="45.97832" lon="4.92592">
        <ele>300</ele>
        <time>2016-12-10T14:07:26Z</time>
      </trkpt>
      <trkpt lat="45.97828" lon="4.92598">
        <ele>300</ele>
        <time>2016-12-10T14:07:27Z</time>
      </trkpt>
      <trkpt lat="45.97824" lon="4.92603">
        <ele>300</ele>
        <time>2016-12-10T14:07:28Z</time>
      </trkpt>
      <trkpt lat="45.9782" lon="4.92609">
        <ele>300</ele>
        <time>2016-12-10T14:07:29Z</time>
      </trkpt>
      <trkpt lat="45.97816" lon="4.92614">
        <ele>300</ele>
        <time>2016-12-10T14:07:30Z</time>
      </trkpt>
      <trkpt lat="45.97813" lon="4.92619">
        <ele>300</ele>
        <time>2016-12-10T14:07:31Z</time>
      </trkpt>
      <trkpt lat="45.97808" lon="4.92624">
        <ele>300</ele>
        <time>2016-12-10T14:07:32Z</time>
      </trkpt>
      <trkpt lat="45.97804" lon="4.92629">
        <ele>301</ele>
        <time>2016-12-10T14:07:33Z</time>
      </trkpt>
      <trkpt lat="45.978" lon="4.92634">
        <ele>301</ele>
        <time>2016-12-10T14:07:34Z</time>
      </trkpt>
      <trkpt lat="45.97796" lon="4.92639">
        <ele>301</ele>
        <time>2016-12-10T14:07:35Z</time>
      </trkpt>
      <trkpt lat="45.97792" lon="4.92643">
        <ele>300</ele>
        <time>2016-12-10T14:07:36Z</time>
      </trkpt>
      <trkpt lat="45.97788" lon="4.92647">
        <ele>300</ele>
        <time>2016-12-10T14:07:37Z</time>
      </trkpt>
      <trkpt lat="45.97784" lon="4.92652">
        <ele>300</ele>
        <time>2016-12-10T14:07:38Z</time>
      </trkpt>
      <trkpt lat="45.9778" lon="4.92656">
        <ele>300</ele>
        <time>2016-12-10T14:07:39Z</time>
      </trkpt>
      <trkpt lat="45.97776" lon="4.92661">
        <ele>300</ele>
        <time>2016-12-10T14:07:40Z</time>
      </trkpt>
      <trkpt lat="45.97772" lon="4.92666">
        <ele>300</ele>
        <time>2016-12-10T14:07:41Z</time>
      </trkpt>
      <trkpt lat="45.97769" lon="4.92671">
        <ele>300</ele>
        <time>2016-12-10T14:07:42Z</time>
      </trkpt>
      <trkpt lat="45.97766" lon="4.92676">
        <ele>300</ele>
        <time>2016-12-10T14:07:43Z</time>
      </trkpt>
      <trkpt lat="45.97762" lon="4.92681">
        <ele>300</ele>
        <time>2016-12-10T14:07:44Z</time>
      </trkpt>
      <trkpt lat="45.97758" lon="4.92686">
        <ele>300</ele>
        <time>2016-12-10T14:07:45Z</time>
      </trkpt>
      <trkpt lat="45.97754" lon="4.92691">
        <ele>300</ele>
        <time>2016-12-10T14:07:46Z</time>
      </trkpt>
      <trkpt lat="45.97751" lon="4.92695">
        <ele>300</ele>
        <time>2016-12-10T14:07:47Z</time>
      </trkpt>
      <trkpt lat="45.97747" lon="4.927">
        <ele>301</ele>
        <time>2016-12-10T14:07:48Z</time>
      </trkpt>
      <trkpt lat="45.97743" lon="4.92704">
        <ele>301</ele>
        <time>2016-12-10T14:07:49Z</time>
      </trkpt>
      <trkpt lat="45.97739" lon="4.92709">
        <ele>301</ele>
        <time>2016-12-10T14:07:50Z</time>
      </trkpt>
      <trkpt lat="45.97735" lon="4.92713">
        <ele>301</ele>
        <time>2016-12-10T14:07:51Z</time>
      </trkpt>
      <trkpt lat="45.97731" lon="4.92718">
        <ele>301</ele>
        <time>2016-12-10T14:07:52Z</time>
      </trkpt>
      <trkpt lat="45.97727" lon="4.92723">
        <ele>301</ele>
        <time>2016-12-10T14:07:53Z</time>
      </trkpt>
      <trkpt lat="45.97723" lon="4.92728">
        <ele>301</ele>
        <time>2016-12-10T14:07:54Z</time>
      </trkpt>
      <trkpt lat="45.97719" lon="4.92733">
        <ele>301</ele>
        <time>2016-12-10T14:07:55Z</time>
      </trkpt>
      <trkpt lat="45.97715" lon="4.92737">
        <ele>301</ele>
        <time>2016-12-10T14:07:56Z</time>
      </trkpt>
      <trkpt lat="45.97712" lon="4.92742">
        <ele>301</ele>
        <time>2016-12-10T14:07:57Z</time>
      </trkpt>
      <trkpt lat="45.97708" lon="4.92746">
        <ele>302</ele>
        <time>2016-12-10T14:07:58Z</time>
      </trkpt>
      <trkpt lat="45.97704" lon="4.92751">
        <ele>301</ele>
        <time>2016-12-10T14:07:59Z</time>
      </trkpt>
      <trkpt lat="45.977" lon="4.92756">
        <ele>301</ele>
        <time>2016-12-10T14:08:00Z</time>
      </trkpt>
      <trkpt lat="45.97697" lon="4.92761">
        <ele>301</ele>
        <time>2016-12-10T14:08:01Z</time>
      </trkpt>
      <trkpt lat="45.97693" lon="4.92765">
        <ele>301</ele>
        <time>2016-12-10T14:08:02Z</time>
      </trkpt>
      <trkpt lat="45.97689" lon="4.9277">
        <ele>301</ele>
        <time>2016-12-10T14:08:03Z</time>
      </trkpt>
      <trkpt lat="45.97686" lon="4.92775">
        <ele>301</ele>
        <time>2016-12-10T14:08:04Z</time>
      </trkpt>
      <trkpt lat="45.97682" lon="4.9278">
        <ele>301</ele>
        <time>2016-12-10T14:08:05Z</time>
      </trkpt>
      <trkpt lat="45.97678" lon="4.92784">
        <ele>301</ele>
        <time>2016-12-10T14:08:06Z</time>
      </trkpt>
      <trkpt lat="45.97674" lon="4.92789">
        <ele>301</ele>
        <time>2016-12-10T14:08:07Z</time>
      </trkpt>
      <trkpt lat="45.9767" lon="4.92794">
        <ele>301</ele>
        <time>2016-12-10T14:08:08Z</time>
      </trkpt>
      <trkpt lat="45.97666" lon="4.92799">
        <ele>301</ele>
        <time>2016-12-10T14:08:09Z</time>
      </trkpt>
      <trkpt lat="45.97662" lon="4.92804">
        <ele>300</ele>
        <time>2016-12-10T14:08:10Z</time>
      </trkpt>
      <trkpt lat="45.97657" lon="4.92809">
        <ele>300</ele>
        <time>2016-12-10T14:08:11Z</time>
      </trkpt>
      <trkpt lat="45.97653" lon="4.92815">
        <ele>300</ele>
        <time>2016-12-10T14:08:12Z</time>
      </trkpt>
      <trkpt lat="45.97648" lon="4.92819">
        <ele>300</ele>
        <time>2016-12-10T14:08:13Z</time>
      </trkpt>
      <trkpt lat="45.97644" lon="4.92824">
        <ele>300</ele>
        <time>2016-12-10T14:08:14Z</time>
      </trkpt>
      <trkpt lat="45.9764" lon="4.92828">
        <ele>300</ele>
        <time>2016-12-10T14:08:15Z</time>
      </trkpt>
      <trkpt lat="45.97637" lon="4.92833">
        <ele>300</ele>
        <time>2016-12-10T14:08:16Z</time>
      </trkpt>
      <trkpt lat="45.97633" lon="4.92837">
        <ele>298</ele>
        <time>2016-12-10T14:08:17Z</time>
      </trkpt>
      <trkpt lat="45.9763" lon="4.92842">
        <ele>298</ele>
        <time>2016-12-10T14:08:18Z</time>
      </trkpt>
      <trkpt lat="45.97626" lon="4.92846">
        <ele>298</ele>
        <time>2016-12-10T14:08:19Z</time>
      </trkpt>
      <trkpt lat="45.97622" lon="4.92851">
        <ele>298</ele>
        <time>2016-12-10T14:08:20Z</time>
      </trkpt>
      <trkpt lat="45.97619" lon="4.92855">
        <ele>298</ele>
        <time>2016-12-10T14:08:21Z</time>
      </trkpt>
      <trkpt lat="45.97615" lon="4.9286">
        <ele>298</ele>
        <time>2016-12-10T14:08:22Z</time>
      </trkpt>
      <trkpt lat="45.97612" lon="4.92864">
        <ele>298</ele>
        <time>2016-12-10T14:08:23Z</time>
      </trkpt>
      <trkpt lat="45.97608" lon="4.92869">
        <ele>298</ele>
        <time>2016-12-10T14:08:24Z</time>
      </trkpt>
      <trkpt lat="45.97604" lon="4.92873">
        <ele>298</ele>
        <time>2016-12-10T14:08:25Z</time>
      </trkpt>
      <trkpt lat="45.976" lon="4.92877">
        <ele>298</ele>
        <time>2016-12-10T14:08:26Z</time>
      </trkpt>
      <trkpt lat="45.97596" lon="4.92882">
        <ele>298</ele>
        <time>2016-12-10T14:08:27Z</time>
      </trkpt>
      <trkpt lat="45.97592" lon="4.92886">
        <ele>298</ele>
        <time>2016-12-10T14:08:28Z</time>
      </trkpt>
      <trkpt lat="45.97588" lon="4.92891">
        <ele>298</ele>
        <time>2016-12-10T14:08:29Z</time>
      </trkpt>
      <trkpt lat="45.97584" lon="4.92895">
        <ele>298</ele>
        <time>2016-12-10T14:08:30Z</time>
      </trkpt>
      <trkpt lat="45.9758" lon="4.929">
        <ele>298</ele>
        <time>2016-12-10T14:08:31Z</time>
      </trkpt>
      <trkpt lat="45.97576" lon="4.92905">
        <ele>298</ele>
        <time>2016-12-10T14:08:32Z</time>
      </trkpt>
      <trkpt lat="45.97573" lon="4.9291">
        <ele>298</ele>
        <time>2016-12-10T14:08:33Z</time>
      </trkpt>
      <trkpt lat="45.97569" lon="4.92915">
        <ele>298</ele>
        <time>2016-12-10T14:08:34Z</time>
      </trkpt>
      <trkpt lat="45.97566" lon="4.9292">
        <ele>298</ele>
        <time>2016-12-10T14:08:35Z</time>
      </trkpt>
      <trkpt lat="45.97562" lon="4.92925">
        <ele>298</ele>
        <time>2016-12-10T14:08:36Z</time>
      </trkpt>
      <trkpt lat="45.97558" lon="4.92929">
        <ele>298</ele>
        <time>2016-12-10T14:08:37Z</time>
      </trkpt>
      <trkpt lat="45.97554" lon="4.92934">
        <ele>299</ele>
        <time>2016-12-10T14:08:38Z</time>
      </trkpt>
      <trkpt lat="45.9755" lon="4.92939">
        <ele>299</ele>
        <time>2016-12-10T14:08:39Z</time>
      </trkpt>
      <trkpt lat="45.97546" lon="4.92944">
        <ele>299</ele>
        <time>2016-12-10T14:08:40Z</time>
      </trkpt>
      <trkpt lat="45.97542" lon="4.9295">
        <ele>299</ele>
        <time>2016-12-10T14:08:41Z</time>
      </trkpt>
      <trkpt lat="45.97539" lon="4.92955">
        <ele>299</ele>
        <time>2016-12-10T14:08:42Z</time>
      </trkpt>
      <trkpt lat="45.97535" lon="4.92959">
        <ele>299</ele>
        <time>2016-12-10T14:08:43Z</time>
      </trkpt>
      <trkpt lat="45.97531" lon="4.92964">
        <ele>299</ele>
        <time>2016-12-10T14:08:44Z</time>
      </trkpt>
      <trkpt lat="45.97527" lon="4.92968">
        <ele>299</ele>
        <time>2016-12-10T14:08:45Z</time>
      </trkpt>
      <trkpt lat="45.97523" lon="4.92973">
        <ele>299</ele>
        <time>2016-12-10T14:08:46Z</time>
      </trkpt>
      <trkpt lat="45.97519" lon="4.92977">
        <ele>299</ele>
        <time>2016-12-10T14:08:47Z</time>
      </trkpt>
      <trkpt lat="45.97516" lon="4.92982">
        <ele>299</ele>
        <time>2016-12-10T14:08:48Z</time>
      </trkpt>
      <trkpt lat="45.97512" lon="4.92987">
        <ele>299</ele>
        <time>2016-12-10T14:08:49Z</time>
      </trkpt>
      <trkpt lat="45.97508" lon="4.92992">
        <ele>299</ele>
        <time>2016-12-10T14:08:50Z</time>
      </trkpt>
      <trkpt lat="45.97504" lon="4.92997">
        <ele>299</ele>
        <time>2016-12-10T14:08:51Z</time>
      </trkpt>
      <trkpt lat="45.975" lon="4.93002">
        <ele>299</ele>
        <time>2016-12-10T14:08:52Z</time>
      </trkpt>
      <trkpt lat="45.97497" lon="4.93007">
        <ele>299</ele>
        <time>2016-12-10T14:08:53Z</time>
      </trkpt>
      <trkpt lat="45.97493" lon="4.93012">
        <ele>299</ele>
        <time>2016-12-10T14:08:54Z</time>
      </trkpt>
      <trkpt lat="45.9749" lon="4.93017">
        <ele>299</ele>
        <time>2016-12-10T14:08:55Z</time>
      </trkpt>
      <trkpt lat="45.97486" lon="4.93021">
        <ele>299</ele>
        <time>2016-12-10T14:08:56Z</time>
      </trkpt>
      <trkpt lat="45.97482" lon="4.93025">
        <ele>299</ele>
        <time>2016-12-10T14:08:57Z</time>
      </trkpt>
      <trkpt lat="45.97478" lon="4.93029">
        <ele>299</ele>
        <time>2016-12-10T14:08:58Z</time>
      </trkpt>
      <trkpt lat="45.97474" lon="4.93034">
        <ele>299</ele>
        <time>2016-12-10T14:08:59Z</time>
      </trkpt>
      <trkpt lat="45.9747" lon="4.93038">
        <ele>299</ele>
        <time>2016-12-10T14:09:00Z</time>
      </trkpt>
      <trkpt lat="45.97467" lon="4.93042">
        <ele>299</ele>
        <time>2016-12-10T14:09:01Z</time>
      </trkpt>
      <trkpt lat="45.97463" lon="4.93047">
        <ele>299</ele>
        <time>2016-12-10T14:09:02Z</time>
      </trkpt>
      <trkpt lat="45.97459" lon="4.93051">
        <ele>299</ele>
        <time>2016-12-10T14:09:03Z</time>
      </trkpt>
      <trkpt lat="45.97456" lon="4.93056">
        <ele>299</ele>
        <time>2016-12-10T14:09:04Z</time>
      </trkpt>
      <trkpt lat="45.97452" lon="4.93061">
        <ele>299</ele>
        <time>2016-12-10T14:09:05Z</time>
      </trkpt>
      <trkpt lat="45.97448" lon="4.93065">
        <ele>299</ele>
        <time>2016-12-10T14:09:06Z</time>
      </trkpt>
      <trkpt lat="45.97444" lon="4.93069">
        <ele>299</ele>
        <time>2016-12-10T14:09:07Z</time>
      </trkpt>
      <trkpt lat="45.9744" lon="4.93073">
        <ele>299</ele>
        <time>2016-12-10T14:09:08Z</time>
      </trkpt>
      <trkpt lat="45.97436" lon="4.93078">
        <ele>299</ele>
        <time>2016-12-10T14:09:09Z</time>
      </trkpt>
      <trkpt lat="45.97433" lon="4.93082">
        <ele>299</ele>
        <time>2016-12-10T14:09:10Z</time>
      </trkpt>
      <trkpt lat="45.97429" lon="4.93087">
        <ele>299</ele>
        <time>2016-12-10T14:09:11Z</time>
      </trkpt>
      <trkpt lat="45.97425" lon="4.93092">
        <ele>299</ele>
        <time>2016-12-10T14:09:12Z</time>
      </trkpt>
      <trkpt lat="45.97418" lon="4.93101">
        <ele>299</ele>
        <time>2016-12-10T14:09:14Z</time>
      </trkpt>
      <trkpt lat="45.97415" lon="4.93105">
        <ele>300</ele>
        <time>2016-12-10T14:09:15Z</time>
      </trkpt>
      <trkpt lat="45.97411" lon="4.93109">
        <ele>300</ele>
        <time>2016-12-10T14:09:16Z</time>
      </trkpt>
      <trkpt lat="45.97407" lon="4.93114">
        <ele>300</ele>
        <time>2016-12-10T14:09:17Z</time>
      </trkpt>
      <trkpt lat="45.97404" lon="4.93119">
        <ele>300</ele>
        <time>2016-12-10T14:09:18Z</time>
      </trkpt>
      <trkpt lat="45.97401" lon="4.93123">
        <ele>300</ele>
        <time>2016-12-10T14:09:19Z</time>
      </trkpt>
      <trkpt lat="45.97397" lon="4.93127">
        <ele>300</ele>
        <time>2016-12-10T14:09:20Z</time>
      </trkpt>
      <trkpt lat="45.97394" lon="4.93131">
        <ele>300</ele>
        <time>2016-12-10T14:09:21Z</time>
      </trkpt>
      <trkpt lat="45.9739" lon="4.93135">
        <ele>300</ele>
        <time>2016-12-10T14:09:22Z</time>
      </trkpt>
      <trkpt lat="45.97386" lon="4.9314">
        <ele>300</ele>
        <time>2016-12-10T14:09:23Z</time>
      </trkpt>
      <trkpt lat="45.97383" lon="4.93144">
        <ele>300</ele>
        <time>2016-12-10T14:09:24Z</time>
      </trkpt>
      <trkpt lat="45.9738" lon="4.93149">
        <ele>300</ele>
        <time>2016-12-10T14:09:25Z</time>
      </trkpt>
      <trkpt lat="45.97376" lon="4.93153">
        <ele>300</ele>
        <time>2016-12-10T14:09:26Z</time>
      </trkpt>
      <trkpt lat="45.97372" lon="4.93158">
        <ele>300</ele>
        <time>2016-12-10T14:09:27Z</time>
      </trkpt>
      <trkpt lat="45.97369" lon="4.93162">
        <ele>300</ele>
        <time>2016-12-10T14:09:28Z</time>
      </trkpt>
      <trkpt lat="45.97365" lon="4.93166">
        <ele>300</ele>
        <time>2016-12-10T14:09:29Z</time>
      </trkpt>
      <trkpt lat="45.97361" lon="4.93171">
        <ele>301</ele>
        <time>2016-12-10T14:09:30Z</time>
      </trkpt>
      <trkpt lat="45.97358" lon="4.93175">
        <ele>301</ele>
        <time>2016-12-10T14:09:31Z</time>
      </trkpt>
      <trkpt lat="45.97354" lon="4.9318">
        <ele>301</ele>
        <time>2016-12-10T14:09:32Z</time>
      </trkpt>
      <trkpt lat="45.9735" lon="4.93184">
        <ele>301</ele>
        <time>2016-12-10T14:09:33Z</time>
      </trkpt>
      <trkpt lat="45.97346" lon="4.93188">
        <ele>301</ele>
        <time>2016-12-10T14:09:34Z</time>
      </trkpt>
      <trkpt lat="45.97342" lon="4.93193">
        <ele>301</ele>
        <time>2016-12-10T14:09:35Z</time>
      </trkpt>
      <trkpt lat="45.97338" lon="4.93197">
        <ele>301</ele>
        <time>2016-12-10T14:09:36Z</time>
      </trkpt>
      <trkpt lat="45.97335" lon="4.93202">
        <ele>302</ele>
        <time>2016-12-10T14:09:37Z</time>
      </trkpt>
      <trkpt lat="45.9733" lon="4.93206">
        <ele>301</ele>
        <time>2016-12-10T14:09:38Z</time>
      </trkpt>
      <trkpt lat="45.97327" lon="4.93211">
        <ele>302</ele>
        <time>2016-12-10T14:09:39Z</time>
      </trkpt>
      <trkpt lat="45.97323" lon="4.93215">
        <ele>302</ele>
        <time>2016-12-10T14:09:40Z</time>
      </trkpt>
      <trkpt lat="45.97319" lon="4.93219">
        <ele>302</ele>
        <time>2016-12-10T14:09:41Z</time>
      </trkpt>
      <trkpt lat="45.97314" lon="4.93224">
        <ele>302</ele>
        <time>2016-12-10T14:09:42Z</time>
      </trkpt>
      <trkpt lat="45.9731" lon="4.93229">
        <ele>302</ele>
        <time>2016-12-10T14:09:43Z</time>
      </trkpt>
      <trkpt lat="45.97306" lon="4.93233">
        <ele>302</ele>
        <time>2016-12-10T14:09:44Z</time>
      </trkpt>
      <trkpt lat="45.97302" lon="4.93238">
        <ele>302</ele>
        <time>2016-12-10T14:09:45Z</time>
      </trkpt>
      <trkpt lat="45.97298" lon="4.93242">
        <ele>302</ele>
        <time>2016-12-10T14:09:46Z</time>
      </trkpt>
      <trkpt lat="45.97295" lon="4.93247">
        <ele>301</ele>
        <time>2016-12-10T14:09:47Z</time>
      </trkpt>
      <trkpt lat="45.97291" lon="4.93251">
        <ele>302</ele>
        <time>2016-12-10T14:09:48Z</time>
      </trkpt>
      <trkpt lat="45.97287" lon="4.93255">
        <ele>302</ele>
        <time>2016-12-10T14:09:49Z</time>
      </trkpt>
      <trkpt lat="45.97283" lon="4.9326">
        <ele>302</ele>
        <time>2016-12-10T14:09:50Z</time>
      </trkpt>
      <trkpt lat="45.97279" lon="4.93265">
        <ele>302</ele>
        <time>2016-12-10T14:09:51Z</time>
      </trkpt>
      <trkpt lat="45.97275" lon="4.93269">
        <ele>302</ele>
        <time>2016-12-10T14:09:52Z</time>
      </trkpt>
      <trkpt lat="45.97272" lon="4.93274">
        <ele>302</ele>
        <time>2016-12-10T14:09:53Z</time>
      </trkpt>
      <trkpt lat="45.97268" lon="4.93278">
        <ele>302</ele>
        <time>2016-12-10T14:09:54Z</time>
      </trkpt>
      <trkpt lat="45.97264" lon="4.93282">
        <ele>302</ele>
        <time>2016-12-10T14:09:55Z</time>
      </trkpt>
      <trkpt lat="45.9726" lon="4.93287">
        <ele>302</ele>
        <time>2016-12-10T14:09:56Z</time>
      </trkpt>
      <trkpt lat="45.97256" lon="4.93291">
        <ele>302</ele>
        <time>2016-12-10T14:09:57Z</time>
      </trkpt>
      <trkpt lat="45.97252" lon="4.93295">
        <ele>302</ele>
        <time>2016-12-10T14:09:58Z</time>
      </trkpt>
      <trkpt lat="45.97249" lon="4.933">
        <ele>300</ele>
        <time>2016-12-10T14:09:59Z</time>
      </trkpt>
      <trkpt lat="45.97245" lon="4.93305">
        <ele>300</ele>
        <time>2016-12-10T14:10:00Z</time>
      </trkpt>
      <trkpt lat="45.97241" lon="4.9331">
        <ele>300</ele>
        <time>2016-12-10T14:10:01Z</time>
      </trkpt>
      <trkpt lat="45.97238" lon="4.93316">
        <ele>301</ele>
        <time>2016-12-10T14:10:02Z</time>
      </trkpt>
      <trkpt lat="45.97234" lon="4.93321">
        <ele>301</ele>
        <time>2016-12-10T14:10:03Z</time>
      </trkpt>
      <trkpt lat="45.9723" lon="4.93326">
        <ele>301</ele>
        <time>2016-12-10T14:10:04Z</time>
      </trkpt>
      <trkpt lat="45.97226" lon="4.93331">
        <ele>301</ele>
        <time>2016-12-10T14:10:05Z</time>
      </trkpt>
      <trkpt lat="45.97222" lon="4.93336">
        <ele>301</ele>
        <time>2016-12-10T14:10:06Z</time>
      </trkpt>
      <trkpt lat="45.97218" lon="4.93341">
        <ele>301</ele>
        <time>2016-12-10T14:10:07Z</time>
      </trkpt>
      <trkpt lat="45.97215" lon="4.93346">
        <ele>301</ele>
        <time>2016-12-10T14:10:08Z</time>
      </trkpt>
      <trkpt lat="45.97212" lon="4.9335">
        <ele>301</ele>
        <time>2016-12-10T14:10:09Z</time>
      </trkpt>
      <trkpt lat="45.97208" lon="4.93354">
        <ele>301</ele>
        <time>2016-12-10T14:10:10Z</time>
      </trkpt>
      <trkpt lat="45.97205" lon="4.93358">
        <ele>301</ele>
        <time>2016-12-10T14:10:11Z</time>
      </trkpt>
      <trkpt lat="45.97199" lon="4.93367">
        <ele>301</ele>
        <time>2016-12-10T14:10:13Z</time>
      </trkpt>
      <trkpt lat="45.97195" lon="4.93371">
        <ele>301</ele>
        <time>2016-12-10T14:10:14Z</time>
      </trkpt>
      <trkpt lat="45.97192" lon="4.93376">
        <ele>301</ele>
        <time>2016-12-10T14:10:15Z</time>
      </trkpt>
      <trkpt lat="45.97188" lon="4.9338">
        <ele>301</ele>
        <time>2016-12-10T14:10:16Z</time>
      </trkpt>
      <trkpt lat="45.97185" lon="4.93385">
        <ele>301</ele>
        <time>2016-12-10T14:10:17Z</time>
      </trkpt>
      <trkpt lat="45.97181" lon="4.93389">
        <ele>301</ele>
        <time>2016-12-10T14:10:18Z</time>
      </trkpt>
      <trkpt lat="45.97178" lon="4.93394">
        <ele>301</ele>
        <time>2016-12-10T14:10:19Z</time>
      </trkpt>
      <trkpt lat="45.97174" lon="4.93399">
        <ele>302</ele>
        <time>2016-12-10T14:10:20Z</time>
      </trkpt>
      <trkpt lat="45.9717" lon="4.93403">
        <ele>302</ele>
        <time>2016-12-10T14:10:21Z</time>
      </trkpt>
      <trkpt lat="45.97165" lon="4.93407">
        <ele>301</ele>
        <time>2016-12-10T14:10:22Z</time>
      </trkpt>
      <trkpt lat="45.97161" lon="4.93412">
        <ele>302</ele>
        <time>2016-12-10T14:10:23Z</time>
      </trkpt>
      <trkpt lat="45.97158" lon="4.93416">
        <ele>301</ele>
        <time>2016-12-10T14:10:24Z</time>
      </trkpt>
      <trkpt lat="45.97154" lon="4.93421">
        <ele>302</ele>
        <time>2016-12-10T14:10:25Z</time>
      </trkpt>
      <trkpt lat="45.97151" lon="4.93425">
        <ele>302</ele>
        <time>2016-12-10T14:10:26Z</time>
      </trkpt>
      <trkpt lat="45.97147" lon="4.9343">
        <ele>302</ele>
        <time>2016-12-10T14:10:27Z</time>
      </trkpt>
      <trkpt lat="45.97144" lon="4.93434">
        <ele>301</ele>
        <time>2016-12-10T14:10:28Z</time>
      </trkpt>
      <trkpt lat="45.9714" lon="4.93439">
        <ele>301</ele>
        <time>2016-12-10T14:10:29Z</time>
      </trkpt>
      <trkpt lat="45.97137" lon="4.93443">
        <ele>301</ele>
        <time>2016-12-10T14:10:30Z</time>
      </trkpt>
      <trkpt lat="45.97133" lon="4.93448">
        <ele>301</ele>
        <time>2016-12-10T14:10:31Z</time>
      </trkpt>
      <trkpt lat="45.97129" lon="4.93452">
        <ele>301</ele>
        <time>2016-12-10T14:10:32Z</time>
      </trkpt>
      <trkpt lat="45.97126" lon="4.93456">
        <ele>301</ele>
        <time>2016-12-10T14:10:33Z</time>
      </trkpt>
      <trkpt lat="45.97122" lon="4.93461">
        <ele>301</ele>
        <time>2016-12-10T14:10:34Z</time>
      </trkpt>
      <trkpt lat="45.97118" lon="4.93466">
        <ele>301</ele>
        <time>2016-12-10T14:10:35Z</time>
      </trkpt>
      <trkpt lat="45.97114" lon="4.9347">
        <ele>301</ele>
        <time>2016-12-10T14:10:36Z</time>
      </trkpt>
      <trkpt lat="45.9711" lon="4.93475">
        <ele>301</ele>
        <time>2016-12-10T14:10:37Z</time>
      </trkpt>
      <trkpt lat="45.97105" lon="4.93479">
        <ele>301</ele>
        <time>2016-12-10T14:10:38Z</time>
      </trkpt>
      <trkpt lat="45.97101" lon="4.93484">
        <ele>301</ele>
        <time>2016-12-10T14:10:39Z</time>
      </trkpt>
      <trkpt lat="45.97098" lon="4.93489">
        <ele>301</ele>
        <time>2016-12-10T14:10:40Z</time>
      </trkpt>
      <trkpt lat="45.97094" lon="4.93494">
        <ele>301</ele>
        <time>2016-12-10T14:10:41Z</time>
      </trkpt>
      <trkpt lat="45.97091" lon="4.93499">
        <ele>300</ele>
        <time>2016-12-10T14:10:42Z</time>
      </trkpt>
      <trkpt lat="45.97087" lon="4.93503">
        <ele>300</ele>
        <time>2016-12-10T14:10:43Z</time>
      </trkpt>
      <trkpt lat="45.97083" lon="4.93508">
        <ele>300</ele>
        <time>2016-12-10T14:10:44Z</time>
      </trkpt>
      <trkpt lat="45.97079" lon="4.93513">
        <ele>300</ele>
        <time>2016-12-10T14:10:45Z</time>
      </trkpt>
      <trkpt lat="45.97075" lon="4.93517">
        <ele>299</ele>
        <time>2016-12-10T14:10:46Z</time>
      </trkpt>
      <trkpt lat="45.97072" lon="4.93522">
        <ele>299</ele>
        <time>2016-12-10T14:10:47Z</time>
      </trkpt>
      <trkpt lat="45.97068" lon="4.93527">
        <ele>299</ele>
        <time>2016-12-10T14:10:48Z</time>
      </trkpt>
      <trkpt lat="45.97064" lon="4.93532">
        <ele>299</ele>
        <time>2016-12-10T14:10:49Z</time>
      </trkpt>
      <trkpt lat="45.9706" lon="4.93538">
        <ele>299</ele>
        <time>2016-12-10T14:10:50Z</time>
      </trkpt>
      <trkpt lat="45.97056" lon="4.93543">
        <ele>299</ele>
        <time>2016-12-10T14:10:51Z</time>
      </trkpt>
      <trkpt lat="45.97052" lon="4.93548">
        <ele>299</ele>
        <time>2016-12-10T14:10:52Z</time>
      </trkpt>
      <trkpt lat="45.97048" lon="4.93553">
        <ele>299</ele>
        <time>2016-12-10T14:10:53Z</time>
      </trkpt>
      <trkpt lat="45.97044" lon="4.93558">
        <ele>299</ele>
        <time>2016-12-10T14:10:54Z</time>
      </trkpt>
      <trkpt lat="45.97041" lon="4.93563">
        <ele>299</ele>
        <time>2016-12-10T14:10:55Z</time>
      </trkpt>
      <trkpt lat="45.97037" lon="4.93568">
        <ele>299</ele>
        <time>2016-12-10T14:10:56Z</time>
      </trkpt>
      <trkpt lat="45.97033" lon="4.93572">
        <ele>299</ele>
        <time>2016-12-10T14:10:57Z</time>
      </trkpt>
      <trkpt lat="45.9703" lon="4.93577">
        <ele>299</ele>
        <time>2016-12-10T14:10:58Z</time>
      </trkpt>
      <trkpt lat="45.97026" lon="4.93582">
        <ele>299</ele>
        <time>2016-12-10T14:10:59Z</time>
      </trkpt>
      <trkpt lat="45.97022" lon="4.93587">
        <ele>300</ele>
        <time>2016-12-10T14:11:00Z</time>
      </trkpt>
      <trkpt lat="45.97018" lon="4.93592">
        <ele>300</ele>
        <time>2016-12-10T14:11:01Z</time>
      </trkpt>
      <trkpt lat="45.97013" lon="4.93598">
        <ele>300</ele>
        <time>2016-12-10T14:11:02Z</time>
      </trkpt>
      <trkpt lat="45.97009" lon="4.93603">
        <ele>300</ele>
        <time>2016-12-10T14:11:03Z</time>
      </trkpt>
      <trkpt lat="45.97005" lon="4.93608">
        <ele>300</ele>
        <time>2016-12-10T14:11:04Z</time>
      </trkpt>
      <trkpt lat="45.97" lon="4.93613">
        <ele>300</ele>
        <time>2016-12-10T14:11:05Z</time>
      </trkpt>
      <trkpt lat="45.96996" lon="4.93618">
        <ele>299</ele>
        <time>2016-12-10T14:11:06Z</time>
      </trkpt>
      <trkpt lat="45.96992" lon="4.93623">
        <ele>299</ele>
        <time>2016-12-10T14:11:07Z</time>
      </trkpt>
      <trkpt lat="45.96988" lon="4.93628">
        <ele>299</ele>
        <time>2016-12-10T14:11:08Z</time>
      </trkpt>
      <trkpt lat="45.96985" lon="4.93633">
        <ele>299</ele>
        <time>2016-12-10T14:11:09Z</time>
      </trkpt>
      <trkpt lat="45.96981" lon="4.93637">
        <ele>299</ele>
        <time>2016-12-10T14:11:10Z</time>
      </trkpt>
      <trkpt lat="45.96978" lon="4.93642">
        <ele>299</ele>
        <time>2016-12-10T14:11:11Z</time>
      </trkpt>
      <trkpt lat="45.96974" lon="4.93647">
        <ele>299</ele>
        <time>2016-12-10T14:11:12Z</time>
      </trkpt>
      <trkpt lat="45.9697" lon="4.93652">
        <ele>299</ele>
        <time>2016-12-10T14:11:13Z</time>
      </trkpt>
      <trkpt lat="45.96966" lon="4.93657">
        <ele>299</ele>
        <time>2016-12-10T14:11:14Z</time>
      </trkpt>
      <trkpt lat="45.96963" lon="4.93663">
        <ele>299</ele>
        <time>2016-12-10T14:11:15Z</time>
      </trkpt>
      <trkpt lat="45.96959" lon="4.93668">
        <ele>298</ele>
        <time>2016-12-10T14:11:16Z</time>
      </trkpt>
      <trkpt lat="45.96955" lon="4.93673">
        <ele>298</ele>
        <time>2016-12-10T14:11:17Z</time>
      </trkpt>
      <trkpt lat="45.96951" lon="4.93677">
        <ele>298</ele>
        <time>2016-12-10T14:11:18Z</time>
      </trkpt>
      <trkpt lat="45.96946" lon="4.93682">
        <ele>298</ele>
        <time>2016-12-10T14:11:19Z</time>
      </trkpt>
      <trkpt lat="45.96941" lon="4.93687">
        <ele>298</ele>
        <time>2016-12-10T14:11:20Z</time>
      </trkpt>
      <trkpt lat="45.96936" lon="4.93691">
        <ele>298</ele>
        <time>2016-12-10T14:11:21Z</time>
      </trkpt>
      <trkpt lat="45.96931" lon="4.93696">
        <ele>298</ele>
        <time>2016-12-10T14:11:22Z</time>
      </trkpt>
      <trkpt lat="45.96927" lon="4.93701">
        <ele>298</ele>
        <time>2016-12-10T14:11:23Z</time>
      </trkpt>
      <trkpt lat="45.96922" lon="4.93706">
        <ele>298</ele>
        <time>2016-12-10T14:11:24Z</time>
      </trkpt>
      <trkpt lat="45.96917" lon="4.9371">
        <ele>298</ele>
        <time>2016-12-10T14:11:25Z</time>
      </trkpt>
      <trkpt lat="45.96912" lon="4.93714">
        <ele>297</ele>
        <time>2016-12-10T14:11:26Z</time>
      </trkpt>
      <trkpt lat="45.96907" lon="4.93718">
        <ele>297</ele>
        <time>2016-12-10T14:11:27Z</time>
      </trkpt>
      <trkpt lat="45.96902" lon="4.93721">
        <ele>297</ele>
        <time>2016-12-10T14:11:28Z</time>
      </trkpt>
      <trkpt lat="45.96896" lon="4.93725">
        <ele>297</ele>
        <time>2016-12-10T14:11:29Z</time>
      </trkpt>
      <trkpt lat="45.96891" lon="4.93727">
        <ele>297</ele>
        <time>2016-12-10T14:11:30Z</time>
      </trkpt>
      <trkpt lat="45.96886" lon="4.9373">
        <ele>297</ele>
        <time>2016-12-10T14:11:31Z</time>
      </trkpt>
      <trkpt lat="45.96881" lon="4.93733">
        <ele>297</ele>
        <time>2016-12-10T14:11:32Z</time>
      </trkpt>
      <trkpt lat="45.96876" lon="4.93736">
        <ele>297</ele>
        <time>2016-12-10T14:11:33Z</time>
      </trkpt>
      <trkpt lat="45.9687" lon="4.93739">
        <ele>297</ele>
        <time>2016-12-10T14:11:34Z</time>
      </trkpt>
      <trkpt lat="45.96865" lon="4.93741">
        <ele>297</ele>
        <time>2016-12-10T14:11:35Z</time>
      </trkpt>
      <trkpt lat="45.96859" lon="4.93743">
        <ele>297</ele>
        <time>2016-12-10T14:11:36Z</time>
      </trkpt>
      <trkpt lat="45.96854" lon="4.93746">
        <ele>297</ele>
        <time>2016-12-10T14:11:37Z</time>
      </trkpt>
      <trkpt lat="45.96848" lon="4.93748">
        <ele>296</ele>
        <time>2016-12-10T14:11:38Z</time>
      </trkpt>
      <trkpt lat="45.96842" lon="4.93751">
        <ele>296</ele>
        <time>2016-12-10T14:11:39Z</time>
      </trkpt>
      <trkpt lat="45.96836" lon="4.93753">
        <ele>296</ele>
        <time>2016-12-10T14:11:40Z</time>
      </trkpt>
      <trkpt lat="45.9683" lon="4.93755">
        <ele>296</ele>
        <time>2016-12-10T14:11:41Z</time>
      </trkpt>
      <trkpt lat="45.96824" lon="4.93757">
        <ele>296</ele>
        <time>2016-12-10T14:11:42Z</time>
      </trkpt>
      <trkpt lat="45.96819" lon="4.93759">
        <ele>296</ele>
        <time>2016-12-10T14:11:43Z</time>
      </trkpt>
      <trkpt lat="45.96813" lon="4.93761">
        <ele>295</ele>
        <time>2016-12-10T14:11:44Z</time>
      </trkpt>
      <trkpt lat="45.96807" lon="4.93763">
        <ele>295</ele>
        <time>2016-12-10T14:11:45Z</time>
      </trkpt>
      <trkpt lat="45.96802" lon="4.93764">
        <ele>295</ele>
        <time>2016-12-10T14:11:46Z</time>
      </trkpt>
      <trkpt lat="45.96796" lon="4.93765">
        <ele>295</ele>
        <time>2016-12-10T14:11:47Z</time>
      </trkpt>
      <trkpt lat="45.9679" lon="4.93767">
        <ele>295</ele>
        <time>2016-12-10T14:11:48Z</time>
      </trkpt>
      <trkpt lat="45.96785" lon="4.93769">
        <ele>295</ele>
        <time>2016-12-10T14:11:49Z</time>
      </trkpt>
      <trkpt lat="45.96779" lon="4.93771">
        <ele>295</ele>
        <time>2016-12-10T14:11:50Z</time>
      </trkpt>
      <trkpt lat="45.96774" lon="4.93773">
        <ele>295</ele>
        <time>2016-12-10T14:11:51Z</time>
      </trkpt>
      <trkpt lat="45.96768" lon="4.93775">
        <ele>295</ele>
        <time>2016-12-10T14:11:52Z</time>
      </trkpt>
      <trkpt lat="45.96763" lon="4.93777">
        <ele>295</ele>
        <time>2016-12-10T14:11:53Z</time>
      </trkpt>
      <trkpt lat="45.96758" lon="4.93779">
        <ele>295</ele>
        <time>2016-12-10T14:11:54Z</time>
      </trkpt>
      <trkpt lat="45.96752" lon="4.9378">
        <ele>295</ele>
        <time>2016-12-10T14:11:55Z</time>
      </trkpt>
      <trkpt lat="45.96746" lon="4.93782">
        <ele>295</ele>
        <time>2016-12-10T14:11:56Z</time>
      </trkpt>
      <trkpt lat="45.9674" lon="4.93784">
        <ele>296</ele>
        <time>2016-12-10T14:11:57Z</time>
      </trkpt>
      <trkpt lat="45.96735" lon="4.93786">
        <ele>296</ele>
        <time>2016-12-10T14:11:58Z</time>
      </trkpt>
      <trkpt lat="45.96729" lon="4.93788">
        <ele>296</ele>
        <time>2016-12-10T14:11:59Z</time>
      </trkpt>
      <trkpt lat="45.96724" lon="4.9379">
        <ele>296</ele>
        <time>2016-12-10T14:12:00Z</time>
      </trkpt>
      <trkpt lat="45.96718" lon="4.93792">
        <ele>296</ele>
        <time>2016-12-10T14:12:01Z</time>
      </trkpt>
      <trkpt lat="45.96712" lon="4.93793">
        <ele>296</ele>
        <time>2016-12-10T14:12:02Z</time>
      </trkpt>
      <trkpt lat="45.96707" lon="4.93795">
        <ele>296</ele>
        <time>2016-12-10T14:12:03Z</time>
      </trkpt>
      <trkpt lat="45.96701" lon="4.93797">
        <ele>296</ele>
        <time>2016-12-10T14:12:04Z</time>
      </trkpt>
      <trkpt lat="45.96696" lon="4.93799">
        <ele>297</ele>
        <time>2016-12-10T14:12:05Z</time>
      </trkpt>
      <trkpt lat="45.96689" lon="4.93801">
        <ele>297</ele>
        <time>2016-12-10T14:12:06Z</time>
      </trkpt>
      <trkpt lat="45.96684" lon="4.93803">
        <ele>297</ele>
        <time>2016-12-10T14:12:07Z</time>
      </trkpt>
      <trkpt lat="45.96678" lon="4.93805">
        <ele>297</ele>
        <time>2016-12-10T14:12:08Z</time>
      </trkpt>
      <trkpt lat="45.96672" lon="4.93807">
        <ele>297</ele>
        <time>2016-12-10T14:12:09Z</time>
      </trkpt>
      <trkpt lat="45.96666" lon="4.93809">
        <ele>297</ele>
        <time>2016-12-10T14:12:10Z</time>
      </trkpt>
      <trkpt lat="45.9666" lon="4.93811">
        <ele>297</ele>
        <time>2016-12-10T14:12:11Z</time>
      </trkpt>
      <trkpt lat="45.96655" lon="4.93813">
        <ele>297</ele>
        <time>2016-12-10T14:12:12Z</time>
      </trkpt>
      <trkpt lat="45.96649" lon="4.93815">
        <ele>297</ele>
        <time>2016-12-10T14:12:13Z</time>
      </trkpt>
      <trkpt lat="45.96644" lon="4.93817">
        <ele>297</ele>
        <time>2016-12-10T14:12:14Z</time>
      </trkpt>
      <trkpt lat="45.96639" lon="4.93819">
        <ele>297</ele>
        <time>2016-12-10T14:12:15Z</time>
      </trkpt>
      <trkpt lat="45.96634" lon="4.9382">
        <ele>297</ele>
        <time>2016-12-10T14:12:16Z</time>
      </trkpt>
      <trkpt lat="45.96629" lon="4.93822">
        <ele>297</ele>
        <time>2016-12-10T14:12:17Z</time>
      </trkpt>
      <trkpt lat="45.96625" lon="4.93824">
        <ele>297</ele>
        <time>2016-12-10T14:12:18Z</time>
      </trkpt>
      <trkpt lat="45.96621" lon="4.93826">
        <ele>297</ele>
        <time>2016-12-10T14:12:19Z</time>
      </trkpt>
      <trkpt lat="45.96615" lon="4.93827">
        <ele>297</ele>
        <time>2016-12-10T14:12:20Z</time>
      </trkpt>
      <trkpt lat="45.9661" lon="4.93829">
        <ele>297</ele>
        <time>2016-12-10T14:12:21Z</time>
      </trkpt>
      <trkpt lat="45.96605" lon="4.9383">
        <ele>297</ele>
        <time>2016-12-10T14:12:22Z</time>
      </trkpt>
      <trkpt lat="45.966" lon="4.93833">
        <ele>296</ele>
        <time>2016-12-10T14:12:23Z</time>
      </trkpt>
      <trkpt lat="45.96594" lon="4.93835">
        <ele>296</ele>
        <time>2016-12-10T14:12:24Z</time>
      </trkpt>
      <trkpt lat="45.96588" lon="4.93837">
        <ele>296</ele>
        <time>2016-12-10T14:12:25Z</time>
      </trkpt>
      <trkpt lat="45.96582" lon="4.93838">
        <ele>296</ele>
        <time>2016-12-10T14:12:26Z</time>
      </trkpt>
      <trkpt lat="45.96577" lon="4.9384">
        <ele>296</ele>
        <time>2016-12-10T14:12:27Z</time>
      </trkpt>
      <trkpt lat="45.96571" lon="4.93842">
        <ele>296</ele>
        <time>2016-12-10T14:12:28Z</time>
      </trkpt>
      <trkpt lat="45.96566" lon="4.93844">
        <ele>296</ele>
        <time>2016-12-10T14:12:29Z</time>
      </trkpt>
      <trkpt lat="45.96562" lon="4.93846">
        <ele>296</ele>
        <time>2016-12-10T14:12:30Z</time>
      </trkpt>
      <trkpt lat="45.96557" lon="4.93848">
        <ele>296</ele>
        <time>2016-12-10T14:12:31Z</time>
      </trkpt>
      <trkpt lat="45.96552" lon="4.93849">
        <ele>296</ele>
        <time>2016-12-10T14:12:32Z</time>
      </trkpt>
      <trkpt lat="45.96547" lon="4.93851">
        <ele>296</ele>
        <time>2016-12-10T14:12:33Z</time>
      </trkpt>
      <trkpt lat="45.96542" lon="4.93853">
        <ele>296</ele>
        <time>2016-12-10T14:12:34Z</time>
      </trkpt>
      <trkpt lat="45.96536" lon="4.93854">
        <ele>296</ele>
        <time>2016-12-10T14:12:35Z</time>
      </trkpt>
      <trkpt lat="45.96531" lon="4.93856">
        <ele>296</ele>
        <time>2016-12-10T14:12:36Z</time>
      </trkpt>
      <trkpt lat="45.96526" lon="4.93858">
        <ele>296</ele>
        <time>2016-12-10T14:12:37Z</time>
      </trkpt>
      <trkpt lat="45.96521" lon="4.93859">
        <ele>296</ele>
        <time>2016-12-10T14:12:38Z</time>
      </trkpt>
      <trkpt lat="45.96516" lon="4.93861">
        <ele>296</ele>
        <time>2016-12-10T14:12:39Z</time>
      </trkpt>
      <trkpt lat="45.96511" lon="4.93863">
        <ele>296</ele>
        <time>2016-12-10T14:12:40Z</time>
      </trkpt>
      <trkpt lat="45.96505" lon="4.93865">
        <ele>296</ele>
        <time>2016-12-10T14:12:41Z</time>
      </trkpt>
      <trkpt lat="45.965" lon="4.93867">
        <ele>296</ele>
        <time>2016-12-10T14:12:42Z</time>
      </trkpt>
      <trkpt lat="45.96495" lon="4.93869">
        <ele>296</ele>
        <time>2016-12-10T14:12:43Z</time>
      </trkpt>
      <trkpt lat="45.9649" lon="4.93871">
        <ele>296</ele>
        <time>2016-12-10T14:12:44Z</time>
      </trkpt>
      <trkpt lat="45.96485" lon="4.93872">
        <ele>296</ele>
        <time>2016-12-10T14:12:45Z</time>
      </trkpt>
      <trkpt lat="45.96479" lon="4.93874">
        <ele>296</ele>
        <time>2016-12-10T14:12:46Z</time>
      </trkpt>
      <trkpt lat="45.96474" lon="4.93876">
        <ele>295</ele>
        <time>2016-12-10T14:12:47Z</time>
      </trkpt>
      <trkpt lat="45.96469" lon="4.93878">
        <ele>295</ele>
        <time>2016-12-10T14:12:48Z</time>
      </trkpt>
      <trkpt lat="45.96464" lon="4.9388">
        <ele>295</ele>
        <time>2016-12-10T14:12:49Z</time>
      </trkpt>
      <trkpt lat="45.96458" lon="4.93882">
        <ele>296</ele>
        <time>2016-12-10T14:12:50Z</time>
      </trkpt>
      <trkpt lat="45.96452" lon="4.93884">
        <ele>296</ele>
        <time>2016-12-10T14:12:51Z</time>
      </trkpt>
      <trkpt lat="45.96447" lon="4.93886">
        <ele>296</ele>
        <time>2016-12-10T14:12:52Z</time>
      </trkpt>
      <trkpt lat="45.96441" lon="4.93887">
        <ele>296</ele>
        <time>2016-12-10T14:12:53Z</time>
      </trkpt>
      <trkpt lat="45.96436" lon="4.93889">
        <ele>296</ele>
        <time>2016-12-10T14:12:54Z</time>
      </trkpt>
      <trkpt lat="45.96431" lon="4.93891">
        <ele>296</ele>
        <time>2016-12-10T14:12:55Z</time>
      </trkpt>
      <trkpt lat="45.96425" lon="4.93893">
        <ele>296</ele>
        <time>2016-12-10T14:12:56Z</time>
      </trkpt>
      <trkpt lat="45.9642" lon="4.93895">
        <ele>296</ele>
        <time>2016-12-10T14:12:57Z</time>
      </trkpt>
      <trkpt lat="45.96415" lon="4.93897">
        <ele>295</ele>
        <time>2016-12-10T14:12:58Z</time>
      </trkpt>
      <trkpt lat="45.96409" lon="4.939">
        <ele>295</ele>
        <time>2016-12-10T14:12:59Z</time>
      </trkpt>
      <trkpt lat="45.96403" lon="4.93902">
        <ele>295</ele>
        <time>2016-12-10T14:13:00Z</time>
      </trkpt>
      <trkpt lat="45.96398" lon="4.93904">
        <ele>295</ele>
        <time>2016-12-10T14:13:01Z</time>
      </trkpt>
      <trkpt lat="45.96392" lon="4.93906">
        <ele>294</ele>
        <time>2016-12-10T14:13:02Z</time>
      </trkpt>
      <trkpt lat="45.96386" lon="4.93908">
        <ele>294</ele>
        <time>2016-12-10T14:13:03Z</time>
      </trkpt>
      <trkpt lat="45.96381" lon="4.9391">
        <ele>294</ele>
        <time>2016-12-10T14:13:04Z</time>
      </trkpt>
      <trkpt lat="45.96375" lon="4.93912">
        <ele>294</ele>
        <time>2016-12-10T14:13:05Z</time>
      </trkpt>
      <trkpt lat="45.9637" lon="4.93914">
        <ele>294</ele>
        <time>2016-12-10T14:13:06Z</time>
      </trkpt>
      <trkpt lat="45.96364" lon="4.93916">
        <ele>294</ele>
        <time>2016-12-10T14:13:07Z</time>
      </trkpt>
      <trkpt lat="45.96359" lon="4.93918">
        <ele>294</ele>
        <time>2016-12-10T14:13:08Z</time>
      </trkpt>
      <trkpt lat="45.96354" lon="4.9392">
        <ele>294</ele>
        <time>2016-12-10T14:13:09Z</time>
      </trkpt>
      <trkpt lat="45.96349" lon="4.93922">
        <ele>293</ele>
        <time>2016-12-10T14:13:10Z</time>
      </trkpt>
      <trkpt lat="45.96343" lon="4.93924">
        <ele>293</ele>
        <time>2016-12-10T14:13:11Z</time>
      </trkpt>
      <trkpt lat="45.96338" lon="4.93926">
        <ele>293</ele>
        <time>2016-12-10T14:13:12Z</time>
      </trkpt>
      <trkpt lat="45.96333" lon="4.93928">
        <ele>292</ele>
        <time>2016-12-10T14:13:13Z</time>
      </trkpt>
      <trkpt lat="45.96327" lon="4.9393">
        <ele>292</ele>
        <time>2016-12-10T14:13:14Z</time>
      </trkpt>
      <trkpt lat="45.96322" lon="4.93932">
        <ele>292</ele>
        <time>2016-12-10T14:13:15Z</time>
      </trkpt>
      <trkpt lat="45.96317" lon="4.93933">
        <ele>292</ele>
        <time>2016-12-10T14:13:16Z</time>
      </trkpt>
      <trkpt lat="45.96312" lon="4.93935">
        <ele>292</ele>
        <time>2016-12-10T14:13:17Z</time>
      </trkpt>
      <trkpt lat="45.96306" lon="4.93937">
        <ele>292</ele>
        <time>2016-12-10T14:13:18Z</time>
      </trkpt>
      <trkpt lat="45.96301" lon="4.93938">
        <ele>292</ele>
        <time>2016-12-10T14:13:19Z</time>
      </trkpt>
      <trkpt lat="45.96295" lon="4.9394">
        <ele>292</ele>
        <time>2016-12-10T14:13:20Z</time>
      </trkpt>
      <trkpt lat="45.9629" lon="4.93943">
        <ele>292</ele>
        <time>2016-12-10T14:13:21Z</time>
      </trkpt>
      <trkpt lat="45.96285" lon="4.93945">
        <ele>291</ele>
        <time>2016-12-10T14:13:22Z</time>
      </trkpt>
      <trkpt lat="45.96279" lon="4.93947">
        <ele>291</ele>
        <time>2016-12-10T14:13:23Z</time>
      </trkpt>
      <trkpt lat="45.96273" lon="4.9395">
        <ele>291</ele>
        <time>2016-12-10T14:13:24Z</time>
      </trkpt>
      <trkpt lat="45.96268" lon="4.93952">
        <ele>291</ele>
        <time>2016-12-10T14:13:25Z</time>
      </trkpt>
      <trkpt lat="45.96262" lon="4.93955">
        <ele>291</ele>
        <time>2016-12-10T14:13:26Z</time>
      </trkpt>
      <trkpt lat="45.96256" lon="4.93958">
        <ele>291</ele>
        <time>2016-12-10T14:13:27Z</time>
      </trkpt>
      <trkpt lat="45.96251" lon="4.93961">
        <ele>291</ele>
        <time>2016-12-10T14:13:28Z</time>
      </trkpt>
      <trkpt lat="45.96246" lon="4.93965">
        <ele>290</ele>
        <time>2016-12-10T14:13:29Z</time>
      </trkpt>
      <trkpt lat="45.9624" lon="4.93969">
        <ele>290</ele>
        <time>2016-12-10T14:13:30Z</time>
      </trkpt>
      <trkpt lat="45.96235" lon="4.93973">
        <ele>290</ele>
        <time>2016-12-10T14:13:31Z</time>
      </trkpt>
      <trkpt lat="45.9623" lon="4.93977">
        <ele>290</ele>
        <time>2016-12-10T14:13:32Z</time>
      </trkpt>
      <trkpt lat="45.96225" lon="4.93981">
        <ele>290</ele>
        <time>2016-12-10T14:13:33Z</time>
      </trkpt>
      <trkpt lat="45.9622" lon="4.93985">
        <ele>290</ele>
        <time>2016-12-10T14:13:34Z</time>
      </trkpt>
      <trkpt lat="45.96215" lon="4.93989">
        <ele>290</ele>
        <time>2016-12-10T14:13:35Z</time>
      </trkpt>
      <trkpt lat="45.9621" lon="4.93993">
        <ele>290</ele>
        <time>2016-12-10T14:13:36Z</time>
      </trkpt>
      <trkpt lat="45.96206" lon="4.93997">
        <ele>290</ele>
        <time>2016-12-10T14:13:37Z</time>
      </trkpt>
      <trkpt lat="45.96201" lon="4.94001">
        <ele>290</ele>
        <time>2016-12-10T14:13:38Z</time>
      </trkpt>
      <trkpt lat="45.96196" lon="4.94005">
        <ele>290</ele>
        <time>2016-12-10T14:13:39Z</time>
      </trkpt>
      <trkpt lat="45.96191" lon="4.94009">
        <ele>290</ele>
        <time>2016-12-10T14:13:40Z</time>
      </trkpt>
      <trkpt lat="45.96186" lon="4.94013">
        <ele>290</ele>
        <time>2016-12-10T14:13:41Z</time>
      </trkpt>
      <trkpt lat="45.96181" lon="4.94017">
        <ele>290</ele>
        <time>2016-12-10T14:13:42Z</time>
      </trkpt>
      <trkpt lat="45.96176" lon="4.94022">
        <ele>290</ele>
        <time>2016-12-10T14:13:43Z</time>
      </trkpt>
      <trkpt lat="45.9617" lon="4.94026">
        <ele>290</ele>
        <time>2016-12-10T14:13:44Z</time>
      </trkpt>
      <trkpt lat="45.96165" lon="4.94031">
        <ele>290</ele>
        <time>2016-12-10T14:13:45Z</time>
      </trkpt>
      <trkpt lat="45.96159" lon="4.94035">
        <ele>290</ele>
        <time>2016-12-10T14:13:46Z</time>
      </trkpt>
      <trkpt lat="45.96154" lon="4.9404">
        <ele>290</ele>
        <time>2016-12-10T14:13:47Z</time>
      </trkpt>
      <trkpt lat="45.96149" lon="4.94045">
        <ele>290</ele>
        <time>2016-12-10T14:13:48Z</time>
      </trkpt>
      <trkpt lat="45.96144" lon="4.94049">
        <ele>290</ele>
        <time>2016-12-10T14:13:49Z</time>
      </trkpt>
      <trkpt lat="45.96139" lon="4.94054">
        <ele>290</ele>
        <time>2016-12-10T14:13:50Z</time>
      </trkpt>
      <trkpt lat="45.96133" lon="4.94058">
        <ele>290</ele>
        <time>2016-12-10T14:13:51Z</time>
      </trkpt>
      <trkpt lat="45.96129" lon="4.94061">
        <ele>290</ele>
        <time>2016-12-10T14:13:52Z</time>
      </trkpt>
      <trkpt lat="45.96124" lon="4.94065">
        <ele>290</ele>
        <time>2016-12-10T14:13:53Z</time>
      </trkpt>
      <trkpt lat="45.9612" lon="4.94068">
        <ele>290</ele>
        <time>2016-12-10T14:13:54Z</time>
      </trkpt>
      <trkpt lat="45.96116" lon="4.94072">
        <ele>290</ele>
        <time>2016-12-10T14:13:55Z</time>
      </trkpt>
      <trkpt lat="45.96111" lon="4.94076">
        <ele>291</ele>
        <time>2016-12-10T14:13:56Z</time>
      </trkpt>
      <trkpt lat="45.96107" lon="4.9408">
        <ele>291</ele>
        <time>2016-12-10T14:13:57Z</time>
      </trkpt>
      <trkpt lat="45.96102" lon="4.94084">
        <ele>291</ele>
        <time>2016-12-10T14:13:58Z</time>
      </trkpt>
      <trkpt lat="45.96098" lon="4.94088">
        <ele>291</ele>
        <time>2016-12-10T14:13:59Z</time>
      </trkpt>
      <trkpt lat="45.96093" lon="4.94092">
        <ele>291</ele>
        <time>2016-12-10T14:14:00Z</time>
      </trkpt>
      <trkpt lat="45.96089" lon="4.94096">
        <ele>291</ele>
        <time>2016-12-10T14:14:01Z</time>
      </trkpt>
      <trkpt lat="45.96085" lon="4.941">
        <ele>291</ele>
        <time>2016-12-10T14:14:02Z</time>
      </trkpt>
      <trkpt lat="45.9608" lon="4.94104">
        <ele>291</ele>
        <time>2016-12-10T14:14:03Z</time>
      </trkpt>
      <trkpt lat="45.96076" lon="4.94108">
        <ele>291</ele>
        <time>2016-12-10T14:14:04Z</time>
      </trkpt>
      <trkpt lat="45.96071" lon="4.94111">
        <ele>291</ele>
        <time>2016-12-10T14:14:05Z</time>
      </trkpt>
      <trkpt lat="45.96066" lon="4.94114">
        <ele>291</ele>
        <time>2016-12-10T14:14:06Z</time>
      </trkpt>
      <trkpt lat="45.96061" lon="4.94117">
        <ele>291</ele>
        <time>2016-12-10T14:14:07Z</time>
      </trkpt>
      <trkpt lat="45.96056" lon="4.94119">
        <ele>291</ele>
        <time>2016-12-10T14:14:08Z</time>
      </trkpt>
      <trkpt lat="45.96051" lon="4.94122">
        <ele>291</ele>
        <time>2016-12-10T14:14:09Z</time>
      </trkpt>
      <trkpt lat="45.96045" lon="4.94124">
        <ele>291</ele>
        <time>2016-12-10T14:14:10Z</time>
      </trkpt>
      <trkpt lat="45.9604" lon="4.94125">
        <ele>291</ele>
        <time>2016-12-10T14:14:11Z</time>
      </trkpt>
      <trkpt lat="45.96035" lon="4.94126">
        <ele>291</ele>
        <time>2016-12-10T14:14:12Z</time>
      </trkpt>
      <trkpt lat="45.96029" lon="4.94126">
        <ele>291</ele>
        <time>2016-12-10T14:14:13Z</time>
      </trkpt>
      <trkpt lat="45.96024" lon="4.94126">
        <ele>291</ele>
        <time>2016-12-10T14:14:14Z</time>
      </trkpt>
      <trkpt lat="45.96018" lon="4.94126">
        <ele>291</ele>
        <time>2016-12-10T14:14:15Z</time>
      </trkpt>
      <trkpt lat="45.96012" lon="4.94124">
        <ele>291</ele>
        <time>2016-12-10T14:14:16Z</time>
      </trkpt>
      <trkpt lat="45.96007" lon="4.94122">
        <ele>291</ele>
        <time>2016-12-10T14:14:17Z</time>
      </trkpt>
      <trkpt lat="45.96001" lon="4.9412">
        <ele>291</ele>
        <time>2016-12-10T14:14:18Z</time>
      </trkpt>
      <trkpt lat="45.95996" lon="4.94118">
        <ele>291</ele>
        <time>2016-12-10T14:14:19Z</time>
      </trkpt>
      <trkpt lat="45.9599" lon="4.94117">
        <ele>292</ele>
        <time>2016-12-10T14:14:20Z</time>
      </trkpt>
      <trkpt lat="45.95984" lon="4.94116">
        <ele>292</ele>
        <time>2016-12-10T14:14:21Z</time>
      </trkpt>
      <trkpt lat="45.9598" lon="4.94115">
        <ele>292</ele>
        <time>2016-12-10T14:14:22Z</time>
      </trkpt>
      <trkpt lat="45.95975" lon="4.94113">
        <ele>292</ele>
        <time>2016-12-10T14:14:23Z</time>
      </trkpt>
      <trkpt lat="45.9597" lon="4.94112">
        <ele>292</ele>
        <time>2016-12-10T14:14:24Z</time>
      </trkpt>
      <trkpt lat="45.95966" lon="4.94111">
        <ele>292</ele>
        <time>2016-12-10T14:14:25Z</time>
      </trkpt>
      <trkpt lat="45.95961" lon="4.94109">
        <ele>292</ele>
        <time>2016-12-10T14:14:26Z</time>
      </trkpt>
      <trkpt lat="45.95957" lon="4.94107">
        <ele>292</ele>
        <time>2016-12-10T14:14:27Z</time>
      </trkpt>
      <trkpt lat="45.95952" lon="4.94106">
        <ele>292</ele>
        <time>2016-12-10T14:14:28Z</time>
      </trkpt>
      <trkpt lat="45.95948" lon="4.94104">
        <ele>292</ele>
        <time>2016-12-10T14:14:29Z</time>
      </trkpt>
      <trkpt lat="45.95943" lon="4.94103">
        <ele>292</ele>
        <time>2016-12-10T14:14:30Z</time>
      </trkpt>
      <trkpt lat="45.95938" lon="4.94102">
        <ele>292</ele>
        <time>2016-12-10T14:14:31Z</time>
      </trkpt>
      <trkpt lat="45.95933" lon="4.941">
        <ele>292</ele>
        <time>2016-12-10T14:14:32Z</time>
      </trkpt>
      <trkpt lat="45.95928" lon="4.94099">
        <ele>292</ele>
        <time>2016-12-10T14:14:33Z</time>
      </trkpt>
      <trkpt lat="45.95923" lon="4.94098">
        <ele>292</ele>
        <time>2016-12-10T14:14:34Z</time>
      </trkpt>
      <trkpt lat="45.95918" lon="4.94097">
        <ele>292</ele>
        <time>2016-12-10T14:14:35Z</time>
      </trkpt>
      <trkpt lat="45.95913" lon="4.94096">
        <ele>293</ele>
        <time>2016-12-10T14:14:36Z</time>
      </trkpt>
      <trkpt lat="45.95908" lon="4.94094">
        <ele>293</ele>
        <time>2016-12-10T14:14:37Z</time>
      </trkpt>
      <trkpt lat="45.95903" lon="4.94093">
        <ele>293</ele>
        <time>2016-12-10T14:14:38Z</time>
      </trkpt>
      <trkpt lat="45.95899" lon="4.94092">
        <ele>293</ele>
        <time>2016-12-10T14:14:39Z</time>
      </trkpt>
      <trkpt lat="45.95894" lon="4.94091">
        <ele>293</ele>
        <time>2016-12-10T14:14:40Z</time>
      </trkpt>
      <trkpt lat="45.95885" lon="4.94088">
        <ele>293</ele>
        <time>2016-12-10T14:14:42Z</time>
      </trkpt>
      <trkpt lat="45.95881" lon="4.94087">
        <ele>293</ele>
        <time>2016-12-10T14:14:43Z</time>
      </trkpt>
      <trkpt lat="45.95876" lon="4.94086">
        <ele>293</ele>
        <time>2016-12-10T14:14:44Z</time>
      </trkpt>
      <trkpt lat="45.95871" lon="4.94084">
        <ele>293</ele>
        <time>2016-12-10T14:14:45Z</time>
      </trkpt>
      <trkpt lat="45.95866" lon="4.94083">
        <ele>293</ele>
        <time>2016-12-10T14:14:46Z</time>
      </trkpt>
      <trkpt lat="45.95861" lon="4.94082">
        <ele>293</ele>
        <time>2016-12-10T14:14:47Z</time>
      </trkpt>
      <trkpt lat="45.95856" lon="4.94081">
        <ele>293</ele>
        <time>2016-12-10T14:14:48Z</time>
      </trkpt>
      <trkpt lat="45.95851" lon="4.9408">
        <ele>293</ele>
        <time>2016-12-10T14:14:49Z</time>
      </trkpt>
      <trkpt lat="45.95847" lon="4.94079">
        <ele>293</ele>
        <time>2016-12-10T14:14:50Z</time>
      </trkpt>
      <trkpt lat="45.95842" lon="4.94078">
        <ele>294</ele>
        <time>2016-12-10T14:14:51Z</time>
      </trkpt>
      <trkpt lat="45.95835" lon="4.94077">
        <ele>294</ele>
        <time>2016-12-10T14:14:52Z</time>
      </trkpt>
      <trkpt lat="45.9583" lon="4.94077">
        <ele>294</ele>
        <time>2016-12-10T14:14:53Z</time>
      </trkpt>
      <trkpt lat="45.95824" lon="4.94075">
        <ele>294</ele>
        <time>2016-12-10T14:14:54Z</time>
      </trkpt>
      <trkpt lat="45.9582" lon="4.94074">
        <ele>294</ele>
        <time>2016-12-10T14:14:55Z</time>
      </trkpt>
      <trkpt lat="45.95812" lon="4.94071">
        <ele>294</ele>
        <time>2016-12-10T14:14:57Z</time>
      </trkpt>
      <trkpt lat="45.95808" lon="4.9407">
        <ele>294</ele>
        <time>2016-12-10T14:14:58Z</time>
      </trkpt>
      <trkpt lat="45.958" lon="4.94069">
        <ele>294</ele>
        <time>2016-12-10T14:15:00Z</time>
      </trkpt>
      <trkpt lat="45.95797" lon="4.94067">
        <ele>294</ele>
        <time>2016-12-10T14:15:01Z</time>
      </trkpt>
      <trkpt lat="45.95789" lon="4.94064">
        <ele>294</ele>
        <time>2016-12-10T14:15:03Z</time>
      </trkpt>
      <trkpt lat="45.95785" lon="4.94063">
        <ele>294</ele>
        <time>2016-12-10T14:15:04Z</time>
      </trkpt>
      <trkpt lat="45.95776" lon="4.9406">
        <ele>294</ele>
        <time>2016-12-10T14:15:06Z</time>
      </trkpt>
      <trkpt lat="45.95772" lon="4.94059">
        <ele>294</ele>
        <time>2016-12-10T14:15:07Z</time>
      </trkpt>
      <trkpt lat="45.95764" lon="4.94056">
        <ele>294</ele>
        <time>2016-12-10T14:15:09Z</time>
      </trkpt>
      <trkpt lat="45.9576" lon="4.94055">
        <ele>294</ele>
        <time>2016-12-10T14:15:10Z</time>
      </trkpt>
      <trkpt lat="45.95753" lon="4.94054">
        <ele>294</ele>
        <time>2016-12-10T14:15:12Z</time>
      </trkpt>
      <trkpt lat="45.95749" lon="4.94053">
        <ele>295</ele>
        <time>2016-12-10T14:15:13Z</time>
      </trkpt>
      <trkpt lat="45.95742" lon="4.94051">
        <ele>295</ele>
        <time>2016-12-10T14:15:15Z</time>
      </trkpt>
      <trkpt lat="45.95738" lon="4.9405">
        <ele>295</ele>
        <time>2016-12-10T14:15:16Z</time>
      </trkpt>
      <trkpt lat="45.9573" lon="4.94046">
        <ele>295</ele>
        <time>2016-12-10T14:15:18Z</time>
      </trkpt>
      <trkpt lat="45.95725" lon="4.94045">
        <ele>295</ele>
        <time>2016-12-10T14:15:19Z</time>
      </trkpt>
      <trkpt lat="45.9572" lon="4.94045">
        <ele>295</ele>
        <time>2016-12-10T14:15:20Z</time>
      </trkpt>
      <trkpt lat="45.95715" lon="4.94044">
        <ele>295</ele>
        <time>2016-12-10T14:15:21Z</time>
      </trkpt>
      <trkpt lat="45.95711" lon="4.94042">
        <ele>295</ele>
        <time>2016-12-10T14:15:22Z</time>
      </trkpt>
      <trkpt lat="45.95705" lon="4.94042">
        <ele>295</ele>
        <time>2016-12-10T14:15:23Z</time>
      </trkpt>
      <trkpt lat="45.957" lon="4.94041">
        <ele>295</ele>
        <time>2016-12-10T14:15:24Z</time>
      </trkpt>
      <trkpt lat="45.95696" lon="4.94039">
        <ele>295</ele>
        <time>2016-12-10T14:15:25Z</time>
      </trkpt>
      <trkpt lat="45.95688" lon="4.94037">
        <ele>295</ele>
        <time>2016-12-10T14:15:27Z</time>
      </trkpt>
      <trkpt lat="45.95684" lon="4.94036">
        <ele>295</ele>
        <time>2016-12-10T14:15:28Z</time>
      </trkpt>
      <trkpt lat="45.95677" lon="4.94034">
        <ele>295</ele>
        <time>2016-12-10T14:15:30Z</time>
      </trkpt>
      <trkpt lat="45.95673" lon="4.94031">
        <ele>295</ele>
        <time>2016-12-10T14:15:31Z</time>
      </trkpt>
      <trkpt lat="45.95671" lon="4.94019">
        <ele>295</ele>
        <time>2016-12-10T14:15:34Z</time>
      </trkpt>
      <trkpt lat="45.95671" lon="4.94015">
        <ele>295</ele>
        <time>2016-12-10T14:15:35Z</time>
      </trkpt>
      <trkpt lat="45.95672" lon="4.94003">
        <ele>296</ele>
        <time>2016-12-10T14:15:39Z</time>
      </trkpt>
      <trkpt lat="45.95671" lon="4.94">
        <ele>296</ele>
        <time>2016-12-10T14:15:40Z</time>
      </trkpt>
      <trkpt lat="45.95669" lon="4.93988">
        <ele>295</ele>
        <time>2016-12-10T14:15:44Z</time>
      </trkpt>
      <trkpt lat="45.95667" lon="4.93987">
        <ele>295</ele>
        <time>2016-12-10T14:15:45Z</time>
      </trkpt>
      <trkpt lat="45.95658" lon="4.93986">
        <ele>295</ele>
        <time>2016-12-10T14:15:50Z</time>
      </trkpt>
      <trkpt lat="45.95659" lon="4.93986">
        <ele>295</ele>
        <time>2016-12-10T14:15:51Z</time>
      </trkpt>
      <trkpt lat="45.95659" lon="4.93986">
        <ele>295</ele>
        <time>2016-12-10T14:18:24Z</time>
      </trkpt>
      <trkpt lat="45.95657" lon="4.93982">
        <ele>295</ele>
        <time>2016-12-10T14:18:25Z</time>
      </trkpt>
      <trkpt lat="45.95648" lon="4.9398">
        <ele>294</ele>
        <time>2016-12-10T14:18:48Z</time>
      </trkpt>
      <trkpt lat="45.95647" lon="4.93979">
        <ele>294</ele>
        <time>2016-12-10T14:18:49Z</time>
      </trkpt>
      <trkpt lat="45.95645" lon="4.93968">
        <ele>294</ele>
        <time>2016-12-10T14:18:52Z</time>
      </trkpt>
      <trkpt lat="45.95644" lon="4.93962">
        <ele>294</ele>
        <time>2016-12-10T14:18:53Z</time>
      </trkpt>
      <trkpt lat="45.95643" lon="4.93951">
        <ele>294</ele>
        <time>2016-12-10T14:18:55Z</time>
      </trkpt>
      <trkpt lat="45.95643" lon="4.93944">
        <ele>294</ele>
        <time>2016-12-10T14:18:56Z</time>
      </trkpt>
      <trkpt lat="45.95644" lon="4.93933">
        <ele>294</ele>
        <time>2016-12-10T14:18:58Z</time>
      </trkpt>
      <trkpt lat="45.95644" lon="4.93927">
        <ele>294</ele>
        <time>2016-12-10T14:18:59Z</time>
      </trkpt>
      <trkpt lat="45.95645" lon="4.93921">
        <ele>294</ele>
        <time>2016-12-10T14:19:00Z</time>
      </trkpt>
      <trkpt lat="45.95646" lon="4.93914">
        <ele>292</ele>
        <time>2016-12-10T14:19:01Z</time>
      </trkpt>
      <trkpt lat="45.95649" lon="4.93903">
        <ele>292</ele>
        <time>2016-12-10T14:19:03Z</time>
      </trkpt>
      <trkpt lat="45.9565" lon="4.93896">
        <ele>292</ele>
        <time>2016-12-10T14:19:04Z</time>
      </trkpt>
      <trkpt lat="45.95651" lon="4.93888">
        <ele>291</ele>
        <time>2016-12-10T14:19:05Z</time>
      </trkpt>
      <trkpt lat="45.9565" lon="4.93882">
        <ele>291</ele>
        <time>2016-12-10T14:19:06Z</time>
      </trkpt>
      <trkpt lat="45.95649" lon="4.93876">
        <ele>291</ele>
        <time>2016-12-10T14:19:07Z</time>
      </trkpt>
      <trkpt lat="45.95647" lon="4.9387">
        <ele>291</ele>
        <time>2016-12-10T14:19:08Z</time>
      </trkpt>
      <trkpt lat="45.95644" lon="4.93864">
        <ele>290</ele>
        <time>2016-12-10T14:19:09Z</time>
      </trkpt>
      <trkpt lat="45.95641" lon="4.93858">
        <ele>290</ele>
        <time>2016-12-10T14:19:10Z</time>
      </trkpt>
      <trkpt lat="45.95638" lon="4.93854">
        <ele>290</ele>
        <time>2016-12-10T14:19:11Z</time>
      </trkpt>
      <trkpt lat="45.95633" lon="4.9385">
        <ele>290</ele>
        <time>2016-12-10T14:19:12Z</time>
      </trkpt>
      <trkpt lat="45.95629" lon="4.93847">
        <ele>290</ele>
        <time>2016-12-10T14:19:13Z</time>
      </trkpt>
      <trkpt lat="45.95624" lon="4.93844">
        <ele>290</ele>
        <time>2016-12-10T14:19:14Z</time>
      </trkpt>
      <trkpt lat="45.9562" lon="4.9384">
        <ele>290</ele>
        <time>2016-12-10T14:19:15Z</time>
      </trkpt>
      <trkpt lat="45.95616" lon="4.93837">
        <ele>290</ele>
        <time>2016-12-10T14:19:16Z</time>
      </trkpt>
      <trkpt lat="45.95611" lon="4.93834">
        <ele>290</ele>
        <time>2016-12-10T14:19:17Z</time>
      </trkpt>
      <trkpt lat="45.95608" lon="4.9383">
        <ele>289</ele>
        <time>2016-12-10T14:19:18Z</time>
      </trkpt>
      <trkpt lat="45.95604" lon="4.93827">
        <ele>289</ele>
        <time>2016-12-10T14:19:19Z</time>
      </trkpt>
      <trkpt lat="45.95599" lon="4.93822">
        <ele>289</ele>
        <time>2016-12-10T14:19:20Z</time>
      </trkpt>
      <trkpt lat="45.95595" lon="4.93818">
        <ele>289</ele>
        <time>2016-12-10T14:19:21Z</time>
      </trkpt>
      <trkpt lat="45.95592" lon="4.93814">
        <ele>289</ele>
        <time>2016-12-10T14:19:22Z</time>
      </trkpt>
      <trkpt lat="45.95585" lon="4.93807">
        <ele>289</ele>
        <time>2016-12-10T14:19:24Z</time>
      </trkpt>
      <trkpt lat="45.9558" lon="4.93802">
        <ele>290</ele>
        <time>2016-12-10T14:19:25Z</time>
      </trkpt>
      <trkpt lat="45.95577" lon="4.93798">
        <ele>290</ele>
        <time>2016-12-10T14:19:26Z</time>
      </trkpt>
      <trkpt lat="45.95573" lon="4.93792">
        <ele>290</ele>
        <time>2016-12-10T14:19:27Z</time>
      </trkpt>
      <trkpt lat="45.95571" lon="4.93787">
        <ele>290</ele>
        <time>2016-12-10T14:19:28Z</time>
      </trkpt>
      <trkpt lat="45.95569" lon="4.93781">
        <ele>290</ele>
        <time>2016-12-10T14:19:29Z</time>
      </trkpt>
      <trkpt lat="45.95568" lon="4.93774">
        <ele>290</ele>
        <time>2016-12-10T14:19:30Z</time>
      </trkpt>
      <trkpt lat="45.95567" lon="4.93768">
        <ele>290</ele>
        <time>2016-12-10T14:19:31Z</time>
      </trkpt>
      <trkpt lat="45.95565" lon="4.93757">
        <ele>290</ele>
        <time>2016-12-10T14:19:33Z</time>
      </trkpt>
      <trkpt lat="45.95564" lon="4.93752">
        <ele>290</ele>
        <time>2016-12-10T14:19:34Z</time>
      </trkpt>
      <trkpt lat="45.95563" lon="4.93741">
        <ele>290</ele>
        <time>2016-12-10T14:19:36Z</time>
      </trkpt>
      <trkpt lat="45.95563" lon="4.93735">
        <ele>290</ele>
        <time>2016-12-10T14:19:37Z</time>
      </trkpt>
      <trkpt lat="45.95562" lon="4.93724">
        <ele>290</ele>
        <time>2016-12-10T14:19:39Z</time>
      </trkpt>
      <trkpt lat="45.95562" lon="4.93718">
        <ele>290</ele>
        <time>2016-12-10T14:19:40Z</time>
      </trkpt>
      <trkpt lat="45.95561" lon="4.93707">
        <ele>290</ele>
        <time>2016-12-10T14:19:42Z</time>
      </trkpt>
      <trkpt lat="45.95561" lon="4.93701">
        <ele>290</ele>
        <time>2016-12-10T14:19:43Z</time>
      </trkpt>
      <trkpt lat="45.95561" lon="4.9369">
        <ele>290</ele>
        <time>2016-12-10T14:19:45Z</time>
      </trkpt>
      <trkpt lat="45.95561" lon="4.93684">
        <ele>290</ele>
        <time>2016-12-10T14:19:46Z</time>
      </trkpt>
      <trkpt lat="45.95561" lon="4.93675">
        <ele>289</ele>
        <time>2016-12-10T14:19:48Z</time>
      </trkpt>
      <trkpt lat="45.95562" lon="4.9367">
        <ele>289</ele>
        <time>2016-12-10T14:19:49Z</time>
      </trkpt>
      <trkpt lat="45.95564" lon="4.93658">
        <ele>289</ele>
        <time>2016-12-10T14:19:51Z</time>
      </trkpt>
      <trkpt lat="45.95563" lon="4.93653">
        <ele>289</ele>
        <time>2016-12-10T14:19:52Z</time>
      </trkpt>
      <trkpt lat="45.95563" lon="4.93646">
        <ele>289</ele>
        <time>2016-12-10T14:19:53Z</time>
      </trkpt>
      <trkpt lat="45.95563" lon="4.9364">
        <ele>289</ele>
        <time>2016-12-10T14:19:54Z</time>
      </trkpt>
      <trkpt lat="45.95563" lon="4.93632">
        <ele>289</ele>
        <time>2016-12-10T14:19:55Z</time>
      </trkpt>
      <trkpt lat="45.95563" lon="4.93625">
        <ele>289</ele>
        <time>2016-12-10T14:19:56Z</time>
      </trkpt>
      <trkpt lat="45.95563" lon="4.93612">
        <ele>289</ele>
        <time>2016-12-10T14:19:58Z</time>
      </trkpt>
      <trkpt lat="45.95564" lon="4.93606">
        <ele>289</ele>
        <time>2016-12-10T14:19:59Z</time>
      </trkpt>
      <trkpt lat="45.95565" lon="4.93595">
        <ele>289</ele>
        <time>2016-12-10T14:20:01Z</time>
      </trkpt>
      <trkpt lat="45.95565" lon="4.93589">
        <ele>289</ele>
        <time>2016-12-10T14:20:02Z</time>
      </trkpt>
      <trkpt lat="45.95567" lon="4.93576">
        <ele>289</ele>
        <time>2016-12-10T14:20:04Z</time>
      </trkpt>
      <trkpt lat="45.95567" lon="4.9357">
        <ele>289</ele>
        <time>2016-12-10T14:20:05Z</time>
      </trkpt>
      <trkpt lat="45.95567" lon="4.93558">
        <ele>289</ele>
        <time>2016-12-10T14:20:07Z</time>
      </trkpt>
      <trkpt lat="45.95567" lon="4.93552">
        <ele>289</ele>
        <time>2016-12-10T14:20:08Z</time>
      </trkpt>
      <trkpt lat="45.95566" lon="4.9354">
        <ele>290</ele>
        <time>2016-12-10T14:20:10Z</time>
      </trkpt>
      <trkpt lat="45.95565" lon="4.93534">
        <ele>290</ele>
        <time>2016-12-10T14:20:11Z</time>
      </trkpt>
      <trkpt lat="45.95564" lon="4.93527">
        <ele>290</ele>
        <time>2016-12-10T14:20:12Z</time>
      </trkpt>
      <trkpt lat="45.95563" lon="4.93519">
        <ele>290</ele>
        <time>2016-12-10T14:20:13Z</time>
      </trkpt>
      <trkpt lat="45.95561" lon="4.93511">
        <ele>290</ele>
        <time>2016-12-10T14:20:14Z</time>
      </trkpt>
      <trkpt lat="45.95559" lon="4.93504">
        <ele>290</ele>
        <time>2016-12-10T14:20:15Z</time>
      </trkpt>
      <trkpt lat="45.95557" lon="4.93497">
        <ele>289</ele>
        <time>2016-12-10T14:20:16Z</time>
      </trkpt>
      <trkpt lat="45.95555" lon="4.93491">
        <ele>289</ele>
        <time>2016-12-10T14:20:17Z</time>
      </trkpt>
      <trkpt lat="45.95553" lon="4.93485">
        <ele>289</ele>
        <time>2016-12-10T14:20:18Z</time>
      </trkpt>
      <trkpt lat="45.95551" lon="4.93478">
        <ele>289</ele>
        <time>2016-12-10T14:20:19Z</time>
      </trkpt>
      <trkpt lat="45.95551" lon="4.93471">
        <ele>289</ele>
        <time>2016-12-10T14:20:20Z</time>
      </trkpt>
      <trkpt lat="45.9555" lon="4.93464">
        <ele>289</ele>
        <time>2016-12-10T14:20:21Z</time>
      </trkpt>
      <trkpt lat="45.95549" lon="4.93458">
        <ele>289</ele>
        <time>2016-12-10T14:20:22Z</time>
      </trkpt>
      <trkpt lat="45.95547" lon="4.93452">
        <ele>289</ele>
        <time>2016-12-10T14:20:23Z</time>
      </trkpt>
      <trkpt lat="45.95544" lon="4.93445">
        <ele>289</ele>
        <time>2016-12-10T14:20:24Z</time>
      </trkpt>
      <trkpt lat="45.95542" lon="4.93437">
        <ele>289</ele>
        <time>2016-12-10T14:20:25Z</time>
      </trkpt>
      <trkpt lat="45.95539" lon="4.9343">
        <ele>289</ele>
        <time>2016-12-10T14:20:26Z</time>
      </trkpt>
      <trkpt lat="45.95537" lon="4.93424">
        <ele>289</ele>
        <time>2016-12-10T14:20:27Z</time>
      </trkpt>
      <trkpt lat="45.95534" lon="4.93418">
        <ele>289</ele>
        <time>2016-12-10T14:20:28Z</time>
      </trkpt>
      <trkpt lat="45.95532" lon="4.93412">
        <ele>289</ele>
        <time>2016-12-10T14:20:29Z</time>
      </trkpt>
      <trkpt lat="45.95529" lon="4.93406">
        <ele>289</ele>
        <time>2016-12-10T14:20:30Z</time>
      </trkpt>
      <trkpt lat="45.95527" lon="4.93399">
        <ele>289</ele>
        <time>2016-12-10T14:20:31Z</time>
      </trkpt>
      <trkpt lat="45.95524" lon="4.93392">
        <ele>289</ele>
        <time>2016-12-10T14:20:32Z</time>
      </trkpt>
      <trkpt lat="45.95521" lon="4.93385">
        <ele>289</ele>
        <time>2016-12-10T14:20:33Z</time>
      </trkpt>
      <trkpt lat="45.95518" lon="4.9338">
        <ele>289</ele>
        <time>2016-12-10T14:20:34Z</time>
      </trkpt>
      <trkpt lat="45.95516" lon="4.93374">
        <ele>289</ele>
        <time>2016-12-10T14:20:35Z</time>
      </trkpt>
      <trkpt lat="45.95513" lon="4.93368">
        <ele>289</ele>
        <time>2016-12-10T14:20:36Z</time>
      </trkpt>
      <trkpt lat="45.9551" lon="4.93362">
        <ele>289</ele>
        <time>2016-12-10T14:20:37Z</time>
      </trkpt>
      <trkpt lat="45.95507" lon="4.93356">
        <ele>289</ele>
        <time>2016-12-10T14:20:38Z</time>
      </trkpt>
      <trkpt lat="45.95504" lon="4.9335">
        <ele>289</ele>
        <time>2016-12-10T14:20:39Z</time>
      </trkpt>
      <trkpt lat="45.95501" lon="4.93344">
        <ele>289</ele>
        <time>2016-12-10T14:20:40Z</time>
      </trkpt>
      <trkpt lat="45.95498" lon="4.93337">
        <ele>289</ele>
        <time>2016-12-10T14:20:41Z</time>
      </trkpt>
      <trkpt lat="45.95494" lon="4.9333">
        <ele>289</ele>
        <time>2016-12-10T14:20:42Z</time>
      </trkpt>
      <trkpt lat="45.95491" lon="4.93324">
        <ele>289</ele>
        <time>2016-12-10T14:20:43Z</time>
      </trkpt>
      <trkpt lat="45.95488" lon="4.93317">
        <ele>290</ele>
        <time>2016-12-10T14:20:44Z</time>
      </trkpt>
      <trkpt lat="45.95484" lon="4.9331">
        <ele>290</ele>
        <time>2016-12-10T14:20:45Z</time>
      </trkpt>
      <trkpt lat="45.95482" lon="4.93303">
        <ele>290</ele>
        <time>2016-12-10T14:20:46Z</time>
      </trkpt>
      <trkpt lat="45.95479" lon="4.93296">
        <ele>290</ele>
        <time>2016-12-10T14:20:47Z</time>
      </trkpt>
      <trkpt lat="45.95477" lon="4.93289">
        <ele>290</ele>
        <time>2016-12-10T14:20:48Z</time>
      </trkpt>
      <trkpt lat="45.95475" lon="4.93283">
        <ele>290</ele>
        <time>2016-12-10T14:20:49Z</time>
      </trkpt>
      <trkpt lat="45.95473" lon="4.93276">
        <ele>290</ele>
        <time>2016-12-10T14:20:50Z</time>
      </trkpt>
      <trkpt lat="45.95471" lon="4.93269">
        <ele>290</ele>
        <time>2016-12-10T14:20:51Z</time>
      </trkpt>
      <trkpt lat="45.95469" lon="4.93262">
        <ele>290</ele>
        <time>2016-12-10T14:20:52Z</time>
      </trkpt>
      <trkpt lat="45.95466" lon="4.93256">
        <ele>290</ele>
        <time>2016-12-10T14:20:53Z</time>
      </trkpt>
      <trkpt lat="45.95463" lon="4.93251">
        <ele>290</ele>
        <time>2016-12-10T14:20:54Z</time>
      </trkpt>
      <trkpt lat="45.9546" lon="4.93245">
        <ele>290</ele>
        <time>2016-12-10T14:20:55Z</time>
      </trkpt>
      <trkpt lat="45.95457" lon="4.9324">
        <ele>291</ele>
        <time>2016-12-10T14:20:56Z</time>
      </trkpt>
      <trkpt lat="45.95455" lon="4.93234">
        <ele>291</ele>
        <time>2016-12-10T14:20:57Z</time>
      </trkpt>
      <trkpt lat="45.95453" lon="4.93228">
        <ele>291</ele>
        <time>2016-12-10T14:20:58Z</time>
      </trkpt>
      <trkpt lat="45.9545" lon="4.93222">
        <ele>291</ele>
        <time>2016-12-10T14:20:59Z</time>
      </trkpt>
      <trkpt lat="45.95448" lon="4.93215">
        <ele>291</ele>
        <time>2016-12-10T14:21:00Z</time>
      </trkpt>
      <trkpt lat="45.95447" lon="4.93208">
        <ele>291</ele>
        <time>2016-12-10T14:21:01Z</time>
      </trkpt>
      <trkpt lat="45.95447" lon="4.93201">
        <ele>291</ele>
        <time>2016-12-10T14:21:02Z</time>
      </trkpt>
      <trkpt lat="45.95448" lon="4.93194">
        <ele>291</ele>
        <time>2016-12-10T14:21:03Z</time>
      </trkpt>
      <trkpt lat="45.9545" lon="4.93187">
        <ele>291</ele>
        <time>2016-12-10T14:21:04Z</time>
      </trkpt>
      <trkpt lat="45.95452" lon="4.93181">
        <ele>291</ele>
        <time>2016-12-10T14:21:05Z</time>
      </trkpt>
      <trkpt lat="45.95456" lon="4.93176">
        <ele>291</ele>
        <time>2016-12-10T14:21:06Z</time>
      </trkpt>
      <trkpt lat="45.95459" lon="4.93171">
        <ele>290</ele>
        <time>2016-12-10T14:21:07Z</time>
      </trkpt>
      <trkpt lat="45.95467" lon="4.93166">
        <ele>290</ele>
        <time>2016-12-10T14:21:09Z</time>
      </trkpt>
      <trkpt lat="45.95471" lon="4.93163">
        <ele>290</ele>
        <time>2016-12-10T14:21:10Z</time>
      </trkpt>
      <trkpt lat="45.95475" lon="4.9316">
        <ele>290</ele>
        <time>2016-12-10T14:21:11Z</time>
      </trkpt>
      <trkpt lat="45.95479" lon="4.93156">
        <ele>290</ele>
        <time>2016-12-10T14:21:12Z</time>
      </trkpt>
      <trkpt lat="45.95484" lon="4.93152">
        <ele>290</ele>
        <time>2016-12-10T14:21:13Z</time>
      </trkpt>
      <trkpt lat="45.95488" lon="4.93149">
        <ele>290</ele>
        <time>2016-12-10T14:21:14Z</time>
      </trkpt>
      <trkpt lat="45.95492" lon="4.93145">
        <ele>290</ele>
        <time>2016-12-10T14:21:15Z</time>
      </trkpt>
      <trkpt lat="45.95496" lon="4.93141">
        <ele>290</ele>
        <time>2016-12-10T14:21:16Z</time>
      </trkpt>
      <trkpt lat="45.95501" lon="4.93138">
        <ele>289</ele>
        <time>2016-12-10T14:21:17Z</time>
      </trkpt>
      <trkpt lat="45.95504" lon="4.93135">
        <ele>289</ele>
        <time>2016-12-10T14:21:18Z</time>
      </trkpt>
      <trkpt lat="45.95511" lon="4.9313">
        <ele>289</ele>
        <time>2016-12-10T14:21:20Z</time>
      </trkpt>
      <trkpt lat="45.95515" lon="4.93127">
        <ele>289</ele>
        <time>2016-12-10T14:21:21Z</time>
      </trkpt>
      <trkpt lat="45.95522" lon="4.93121">
        <ele>289</ele>
        <time>2016-12-10T14:21:23Z</time>
      </trkpt>
      <trkpt lat="45.95526" lon="4.93117">
        <ele>289</ele>
        <time>2016-12-10T14:21:24Z</time>
      </trkpt>
      <trkpt lat="45.95529" lon="4.93112">
        <ele>289</ele>
        <time>2016-12-10T14:21:25Z</time>
      </trkpt>
      <trkpt lat="45.95532" lon="4.93107">
        <ele>289</ele>
        <time>2016-12-10T14:21:26Z</time>
      </trkpt>
      <trkpt lat="45.95535" lon="4.93102">
        <ele>289</ele>
        <time>2016-12-10T14:21:27Z</time>
      </trkpt>
      <trkpt lat="45.95537" lon="4.93096">
        <ele>289</ele>
        <time>2016-12-10T14:21:28Z</time>
      </trkpt>
      <trkpt lat="45.95539" lon="4.93091">
        <ele>290</ele>
        <time>2016-12-10T14:21:29Z</time>
      </trkpt>
      <trkpt lat="45.95541" lon="4.93084">
        <ele>290</ele>
        <time>2016-12-10T14:21:30Z</time>
      </trkpt>
      <trkpt lat="45.95543" lon="4.93072">
        <ele>290</ele>
        <time>2016-12-10T14:21:32Z</time>
      </trkpt>
      <trkpt lat="45.95544" lon="4.93066">
        <ele>290</ele>
        <time>2016-12-10T14:21:33Z</time>
      </trkpt>
      <trkpt lat="45.95544" lon="4.93058">
        <ele>290</ele>
        <time>2016-12-10T14:21:34Z</time>
      </trkpt>
      <trkpt lat="45.95545" lon="4.93052">
        <ele>290</ele>
        <time>2016-12-10T14:21:35Z</time>
      </trkpt>
      <trkpt lat="45.95547" lon="4.93043">
        <ele>291</ele>
        <time>2016-12-10T14:21:36Z</time>
      </trkpt>
      <trkpt lat="45.95547" lon="4.93036">
        <ele>291</ele>
        <time>2016-12-10T14:21:37Z</time>
      </trkpt>
      <trkpt lat="45.95548" lon="4.93027">
        <ele>291</ele>
        <time>2016-12-10T14:21:38Z</time>
      </trkpt>
      <trkpt lat="45.95549" lon="4.9302">
        <ele>291</ele>
        <time>2016-12-10T14:21:39Z</time>
      </trkpt>
      <trkpt lat="45.9555" lon="4.93011">
        <ele>291</ele>
        <time>2016-12-10T14:21:40Z</time>
      </trkpt>
      <trkpt lat="45.95551" lon="4.93003">
        <ele>291</ele>
        <time>2016-12-10T14:21:41Z</time>
      </trkpt>
      <trkpt lat="45.95552" lon="4.92997">
        <ele>292</ele>
        <time>2016-12-10T14:21:42Z</time>
      </trkpt>
      <trkpt lat="45.95554" lon="4.9299">
        <ele>292</ele>
        <time>2016-12-10T14:21:43Z</time>
      </trkpt>
      <trkpt lat="45.95555" lon="4.92983">
        <ele>292</ele>
        <time>2016-12-10T14:21:44Z</time>
      </trkpt>
      <trkpt lat="45.95557" lon="4.92975">
        <ele>292</ele>
        <time>2016-12-10T14:21:45Z</time>
      </trkpt>
      <trkpt lat="45.95558" lon="4.92968">
        <ele>292</ele>
        <time>2016-12-10T14:21:46Z</time>
      </trkpt>
      <trkpt lat="45.95559" lon="4.9296">
        <ele>292</ele>
        <time>2016-12-10T14:21:47Z</time>
      </trkpt>
      <trkpt lat="45.9556" lon="4.92953">
        <ele>292</ele>
        <time>2016-12-10T14:21:48Z</time>
      </trkpt>
      <trkpt lat="45.95561" lon="4.92946">
        <ele>292</ele>
        <time>2016-12-10T14:21:49Z</time>
      </trkpt>
      <trkpt lat="45.95562" lon="4.9294">
        <ele>292</ele>
        <time>2016-12-10T14:21:50Z</time>
      </trkpt>
      <trkpt lat="45.95563" lon="4.92933">
        <ele>292</ele>
        <time>2016-12-10T14:21:51Z</time>
      </trkpt>
      <trkpt lat="45.95564" lon="4.92926">
        <ele>293</ele>
        <time>2016-12-10T14:21:52Z</time>
      </trkpt>
      <trkpt lat="45.95564" lon="4.9292">
        <ele>293</ele>
        <time>2016-12-10T14:21:53Z</time>
      </trkpt>
      <trkpt lat="45.95565" lon="4.92913">
        <ele>294</ele>
        <time>2016-12-10T14:21:54Z</time>
      </trkpt>
      <trkpt lat="45.95567" lon="4.92906">
        <ele>294</ele>
        <time>2016-12-10T14:21:55Z</time>
      </trkpt>
      <trkpt lat="45.95567" lon="4.92899">
        <ele>294</ele>
        <time>2016-12-10T14:21:56Z</time>
      </trkpt>
      <trkpt lat="45.95568" lon="4.92892">
        <ele>294</ele>
        <time>2016-12-10T14:21:57Z</time>
      </trkpt>
      <trkpt lat="45.9557" lon="4.92884">
        <ele>294</ele>
        <time>2016-12-10T14:21:58Z</time>
      </trkpt>
      <trkpt lat="45.95571" lon="4.92876">
        <ele>294</ele>
        <time>2016-12-10T14:21:59Z</time>
      </trkpt>
      <trkpt lat="45.95572" lon="4.92869">
        <ele>294</ele>
        <time>2016-12-10T14:22:00Z</time>
      </trkpt>
      <trkpt lat="45.95574" lon="4.92862">
        <ele>294</ele>
        <time>2016-12-10T14:22:01Z</time>
      </trkpt>
      <trkpt lat="45.95575" lon="4.92855">
        <ele>294</ele>
        <time>2016-12-10T14:22:02Z</time>
      </trkpt>
      <trkpt lat="45.95577" lon="4.92848">
        <ele>294</ele>
        <time>2016-12-10T14:22:03Z</time>
      </trkpt>
      <trkpt lat="45.95578" lon="4.92836">
        <ele>295</ele>
        <time>2016-12-10T14:22:05Z</time>
      </trkpt>
      <trkpt lat="45.95579" lon="4.9283">
        <ele>295</ele>
        <time>2016-12-10T14:22:06Z</time>
      </trkpt>
      <trkpt lat="45.95579" lon="4.92824">
        <ele>295</ele>
        <time>2016-12-10T14:22:07Z</time>
      </trkpt>
      <trkpt lat="45.9558" lon="4.92817">
        <ele>295</ele>
        <time>2016-12-10T14:22:08Z</time>
      </trkpt>
      <trkpt lat="45.95581" lon="4.92811">
        <ele>294</ele>
        <time>2016-12-10T14:22:09Z</time>
      </trkpt>
      <trkpt lat="45.95583" lon="4.92804">
        <ele>294</ele>
        <time>2016-12-10T14:22:10Z</time>
      </trkpt>
      <trkpt lat="45.95584" lon="4.92796">
        <ele>295</ele>
        <time>2016-12-10T14:22:11Z</time>
      </trkpt>
      <trkpt lat="45.95586" lon="4.92789">
        <ele>295</ele>
        <time>2016-12-10T14:22:12Z</time>
      </trkpt>
      <trkpt lat="45.95587" lon="4.92781">
        <ele>295</ele>
        <time>2016-12-10T14:22:13Z</time>
      </trkpt>
      <trkpt lat="45.95588" lon="4.92772">
        <ele>295</ele>
        <time>2016-12-10T14:22:14Z</time>
      </trkpt>
      <trkpt lat="45.95589" lon="4.92764">
        <ele>295</ele>
        <time>2016-12-10T14:22:15Z</time>
      </trkpt>
      <trkpt lat="45.95591" lon="4.92755">
        <ele>295</ele>
        <time>2016-12-10T14:22:16Z</time>
      </trkpt>
      <trkpt lat="45.95593" lon="4.92747">
        <ele>295</ele>
        <time>2016-12-10T14:22:17Z</time>
      </trkpt>
      <trkpt lat="45.95594" lon="4.92738">
        <ele>295</ele>
        <time>2016-12-10T14:22:18Z</time>
      </trkpt>
      <trkpt lat="45.95596" lon="4.9273">
        <ele>295</ele>
        <time>2016-12-10T14:22:19Z</time>
      </trkpt>
      <trkpt lat="45.95597" lon="4.92721">
        <ele>295</ele>
        <time>2016-12-10T14:22:20Z</time>
      </trkpt>
      <trkpt lat="45.95599" lon="4.92713">
        <ele>295</ele>
        <time>2016-12-10T14:22:21Z</time>
      </trkpt>
      <trkpt lat="45.956" lon="4.92704">
        <ele>295</ele>
        <time>2016-12-10T14:22:22Z</time>
      </trkpt>
      <trkpt lat="45.95602" lon="4.92696">
        <ele>295</ele>
        <time>2016-12-10T14:22:23Z</time>
      </trkpt>
      <trkpt lat="45.95604" lon="4.92688">
        <ele>295</ele>
        <time>2016-12-10T14:22:24Z</time>
      </trkpt>
      <trkpt lat="45.95607" lon="4.92679">
        <ele>295</ele>
        <time>2016-12-10T14:22:25Z</time>
      </trkpt>
      <trkpt lat="45.95609" lon="4.9267">
        <ele>295</ele>
        <time>2016-12-10T14:22:26Z</time>
      </trkpt>
      <trkpt lat="45.95611" lon="4.92662">
        <ele>294</ele>
        <time>2016-12-10T14:22:27Z</time>
      </trkpt>
      <trkpt lat="45.95612" lon="4.92654">
        <ele>294</ele>
        <time>2016-12-10T14:22:28Z</time>
      </trkpt>
      <trkpt lat="45.95614" lon="4.92646">
        <ele>294</ele>
        <time>2016-12-10T14:22:29Z</time>
      </trkpt>
      <trkpt lat="45.95615" lon="4.92638">
        <ele>294</ele>
        <time>2016-12-10T14:22:30Z</time>
      </trkpt>
      <trkpt lat="45.95617" lon="4.92631">
        <ele>294</ele>
        <time>2016-12-10T14:22:31Z</time>
      </trkpt>
      <trkpt lat="45.95618" lon="4.92624">
        <ele>294</ele>
        <time>2016-12-10T14:22:32Z</time>
      </trkpt>
      <trkpt lat="45.95618" lon="4.92618">
        <ele>294</ele>
        <time>2016-12-10T14:22:33Z</time>
      </trkpt>
      <trkpt lat="45.95619" lon="4.92611">
        <ele>294</ele>
        <time>2016-12-10T14:22:34Z</time>
      </trkpt>
      <trkpt lat="45.9562" lon="4.92604">
        <ele>294</ele>
        <time>2016-12-10T14:22:35Z</time>
      </trkpt>
      <trkpt lat="45.95621" lon="4.92597">
        <ele>294</ele>
        <time>2016-12-10T14:22:36Z</time>
      </trkpt>
      <trkpt lat="45.95622" lon="4.92589">
        <ele>294</ele>
        <time>2016-12-10T14:22:37Z</time>
      </trkpt>
      <trkpt lat="45.95624" lon="4.92581">
        <ele>294</ele>
        <time>2016-12-10T14:22:38Z</time>
      </trkpt>
      <trkpt lat="45.95625" lon="4.92574">
        <ele>294</ele>
        <time>2016-12-10T14:22:39Z</time>
      </trkpt>
      <trkpt lat="45.95626" lon="4.92566">
        <ele>294</ele>
        <time>2016-12-10T14:22:40Z</time>
      </trkpt>
      <trkpt lat="45.95627" lon="4.92558">
        <ele>294</ele>
        <time>2016-12-10T14:22:41Z</time>
      </trkpt>
      <trkpt lat="45.95628" lon="4.9255">
        <ele>294</ele>
        <time>2016-12-10T14:22:42Z</time>
      </trkpt>
      <trkpt lat="45.95628" lon="4.92542">
        <ele>294</ele>
        <time>2016-12-10T14:22:43Z</time>
      </trkpt>
      <trkpt lat="45.95629" lon="4.92534">
        <ele>294</ele>
        <time>2016-12-10T14:22:44Z</time>
      </trkpt>
      <trkpt lat="45.9563" lon="4.92526">
        <ele>294</ele>
        <time>2016-12-10T14:22:45Z</time>
      </trkpt>
      <trkpt lat="45.95632" lon="4.92517">
        <ele>294</ele>
        <time>2016-12-10T14:22:46Z</time>
      </trkpt>
      <trkpt lat="45.95633" lon="4.92509">
        <ele>294</ele>
        <time>2016-12-10T14:22:47Z</time>
      </trkpt>
      <trkpt lat="45.95634" lon="4.92501">
        <ele>294</ele>
        <time>2016-12-10T14:22:48Z</time>
      </trkpt>
      <trkpt lat="45.95635" lon="4.92493">
        <ele>293</ele>
        <time>2016-12-10T14:22:49Z</time>
      </trkpt>
      <trkpt lat="45.95636" lon="4.92485">
        <ele>293</ele>
        <time>2016-12-10T14:22:50Z</time>
      </trkpt>
      <trkpt lat="45.95637" lon="4.92473">
        <ele>293</ele>
        <time>2016-12-10T14:22:52Z</time>
      </trkpt>
      <trkpt lat="45.95637" lon="4.92469">
        <ele>293</ele>
        <time>2016-12-10T14:22:53Z</time>
      </trkpt>
      <trkpt lat="45.95638" lon="4.92467">
        <ele>293</ele>
        <time>2016-12-10T14:22:54Z</time>
      </trkpt>
      <trkpt lat="45.95637" lon="4.92466">
        <ele>293</ele>
        <time>2016-12-10T14:22:55Z</time>
      </trkpt>
      <trkpt lat="45.95637" lon="4.92465">
        <ele>293</ele>
        <time>2016-12-10T14:23:08Z</time>
      </trkpt>
      <trkpt lat="45.95635" lon="4.92465">
        <ele>293</ele>
        <time>2016-12-10T14:23:09Z</time>
      </trkpt>
      <trkpt lat="45.95639" lon="4.92455">
        <ele>293</ele>
        <time>2016-12-10T14:29:04Z</time>
      </trkpt>
      <trkpt lat="45.95639" lon="4.92452">
        <ele>293</ele>
        <time>2016-12-10T14:29:05Z</time>
      </trkpt>
      <trkpt lat="45.9564" lon="4.92442">
        <ele>293</ele>
        <time>2016-12-10T14:29:08Z</time>
      </trkpt>
      <trkpt lat="45.95641" lon="4.92438">
        <ele>293</ele>
        <time>2016-12-10T14:29:09Z</time>
      </trkpt>
      <trkpt lat="45.95642" lon="4.92425">
        <ele>293</ele>
        <time>2016-12-10T14:29:12Z</time>
      </trkpt>
      <trkpt lat="45.95643" lon="4.9242">
        <ele>293</ele>
        <time>2016-12-10T14:29:13Z</time>
      </trkpt>
      <trkpt lat="45.95645" lon="4.9241">
        <ele>293</ele>
        <time>2016-12-10T14:29:15Z</time>
      </trkpt>
      <trkpt lat="45.95646" lon="4.92405">
        <ele>293</ele>
        <time>2016-12-10T14:29:16Z</time>
      </trkpt>
      <trkpt lat="45.95648" lon="4.92394">
        <ele>293</ele>
        <time>2016-12-10T14:29:18Z</time>
      </trkpt>
      <trkpt lat="45.95649" lon="4.92388">
        <ele>293</ele>
        <time>2016-12-10T14:29:19Z</time>
      </trkpt>
      <trkpt lat="45.9565" lon="4.92376">
        <ele>293</ele>
        <time>2016-12-10T14:29:21Z</time>
      </trkpt>
      <trkpt lat="45.9565" lon="4.9237">
        <ele>293</ele>
        <time>2016-12-10T14:29:22Z</time>
      </trkpt>
      <trkpt lat="45.95651" lon="4.92357">
        <ele>293</ele>
        <time>2016-12-10T14:29:24Z</time>
      </trkpt>
      <trkpt lat="45.95652" lon="4.92351">
        <ele>293</ele>
        <time>2016-12-10T14:29:25Z</time>
      </trkpt>
      <trkpt lat="45.95653" lon="4.92338">
        <ele>293</ele>
        <time>2016-12-10T14:29:27Z</time>
      </trkpt>
      <trkpt lat="45.95653" lon="4.92333">
        <ele>293</ele>
        <time>2016-12-10T14:29:28Z</time>
      </trkpt>
      <trkpt lat="45.95655" lon="4.92321">
        <ele>293</ele>
        <time>2016-12-10T14:29:30Z</time>
      </trkpt>
      <trkpt lat="45.95656" lon="4.92315">
        <ele>293</ele>
        <time>2016-12-10T14:29:31Z</time>
      </trkpt>
      <trkpt lat="45.95656" lon="4.92308">
        <ele>293</ele>
        <time>2016-12-10T14:29:32Z</time>
      </trkpt>
      <trkpt lat="45.95657" lon="4.923">
        <ele>293</ele>
        <time>2016-12-10T14:29:33Z</time>
      </trkpt>
      <trkpt lat="45.95657" lon="4.92291">
        <ele>293</ele>
        <time>2016-12-10T14:29:34Z</time>
      </trkpt>
      <trkpt lat="45.95657" lon="4.92284">
        <ele>293</ele>
        <time>2016-12-10T14:29:35Z</time>
      </trkpt>
      <trkpt lat="45.95658" lon="4.92277">
        <ele>293</ele>
        <time>2016-12-10T14:29:36Z</time>
      </trkpt>
      <trkpt lat="45.95658" lon="4.9227">
        <ele>294</ele>
        <time>2016-12-10T14:29:37Z</time>
      </trkpt>
      <trkpt lat="45.95658" lon="4.92263">
        <ele>294</ele>
        <time>2016-12-10T14:29:38Z</time>
      </trkpt>
      <trkpt lat="45.95659" lon="4.92257">
        <ele>294</ele>
        <time>2016-12-10T14:29:39Z</time>
      </trkpt>
      <trkpt lat="45.9566" lon="4.9225">
        <ele>294</ele>
        <time>2016-12-10T14:29:40Z</time>
      </trkpt>
      <trkpt lat="45.9566" lon="4.92243">
        <ele>294</ele>
        <time>2016-12-10T14:29:41Z</time>
      </trkpt>
      <trkpt lat="45.95661" lon="4.92236">
        <ele>294</ele>
        <time>2016-12-10T14:29:42Z</time>
      </trkpt>
      <trkpt lat="45.95661" lon="4.92229">
        <ele>294</ele>
        <time>2016-12-10T14:29:43Z</time>
      </trkpt>
      <trkpt lat="45.9566" lon="4.92222">
        <ele>294</ele>
        <time>2016-12-10T14:29:44Z</time>
      </trkpt>
      <trkpt lat="45.9566" lon="4.92215">
        <ele>294</ele>
        <time>2016-12-10T14:29:45Z</time>
      </trkpt>
      <trkpt lat="45.9566" lon="4.92209">
        <ele>294</ele>
        <time>2016-12-10T14:29:46Z</time>
      </trkpt>
      <trkpt lat="45.9566" lon="4.92202">
        <ele>295</ele>
        <time>2016-12-10T14:29:47Z</time>
      </trkpt>
      <trkpt lat="45.95661" lon="4.92194">
        <ele>295</ele>
        <time>2016-12-10T14:29:48Z</time>
      </trkpt>
      <trkpt lat="45.95661" lon="4.92188">
        <ele>295</ele>
        <time>2016-12-10T14:29:49Z</time>
      </trkpt>
      <trkpt lat="45.95662" lon="4.9218">
        <ele>296</ele>
        <time>2016-12-10T14:29:50Z</time>
      </trkpt>
      <trkpt lat="45.95663" lon="4.92174">
        <ele>296</ele>
        <time>2016-12-10T14:29:51Z</time>
      </trkpt>
      <trkpt lat="45.95663" lon="4.92162">
        <ele>297</ele>
        <time>2016-12-10T14:29:53Z</time>
      </trkpt>
      <trkpt lat="45.95663" lon="4.92157">
        <ele>296</ele>
        <time>2016-12-10T14:29:54Z</time>
      </trkpt>
      <trkpt lat="45.95662" lon="4.92147">
        <ele>296</ele>
        <time>2016-12-10T14:29:56Z</time>
      </trkpt>
      <trkpt lat="45.95662" lon="4.92142">
        <ele>296</ele>
        <time>2016-12-10T14:29:57Z</time>
      </trkpt>
      <trkpt lat="45.95662" lon="4.92132">
        <ele>296</ele>
        <time>2016-12-10T14:29:59Z</time>
      </trkpt>
      <trkpt lat="45.95662" lon="4.92127">
        <ele>296</ele>
        <time>2016-12-10T14:30:00Z</time>
      </trkpt>
      <trkpt lat="45.95661" lon="4.92115">
        <ele>296</ele>
        <time>2016-12-10T14:30:02Z</time>
      </trkpt>
      <trkpt lat="45.95661" lon="4.92108">
        <ele>296</ele>
        <time>2016-12-10T14:30:03Z</time>
      </trkpt>
      <trkpt lat="45.95661" lon="4.92102">
        <ele>297</ele>
        <time>2016-12-10T14:30:04Z</time>
      </trkpt>
      <trkpt lat="45.95662" lon="4.92094">
        <ele>297</ele>
        <time>2016-12-10T14:30:05Z</time>
      </trkpt>
      <trkpt lat="45.95662" lon="4.92088">
        <ele>298</ele>
        <time>2016-12-10T14:30:06Z</time>
      </trkpt>
      <trkpt lat="45.95661" lon="4.92081">
        <ele>298</ele>
        <time>2016-12-10T14:30:07Z</time>
      </trkpt>
      <trkpt lat="45.95662" lon="4.92069">
        <ele>297</ele>
        <time>2016-12-10T14:30:09Z</time>
      </trkpt>
      <trkpt lat="45.95664" lon="4.92061">
        <ele>297</ele>
        <time>2016-12-10T14:30:10Z</time>
      </trkpt>
      <trkpt lat="45.95666" lon="4.92049">
        <ele>297</ele>
        <time>2016-12-10T14:30:12Z</time>
      </trkpt>
      <trkpt lat="45.95667" lon="4.92044">
        <ele>300</ele>
        <time>2016-12-10T14:30:13Z</time>
      </trkpt>
      <trkpt lat="45.95671" lon="4.92034">
        <ele>300</ele>
        <time>2016-12-10T14:30:15Z</time>
      </trkpt>
      <trkpt lat="45.95672" lon="4.9203">
        <ele>300</ele>
        <time>2016-12-10T14:30:16Z</time>
      </trkpt>
      <trkpt lat="45.95677" lon="4.92019">
        <ele>300</ele>
        <time>2016-12-10T14:30:19Z</time>
      </trkpt>
      <trkpt lat="45.95679" lon="4.92015">
        <ele>300</ele>
        <time>2016-12-10T14:30:20Z</time>
      </trkpt>
      <trkpt lat="45.95682" lon="4.92008">
        <ele>300</ele>
        <time>2016-12-10T14:30:22Z</time>
      </trkpt>
      <trkpt lat="45.95685" lon="4.92004">
        <ele>300</ele>
        <time>2016-12-10T14:30:23Z</time>
      </trkpt>
      <trkpt lat="45.95689" lon="4.91996">
        <ele>299</ele>
        <time>2016-12-10T14:30:25Z</time>
      </trkpt>
      <trkpt lat="45.95691" lon="4.91992">
        <ele>299</ele>
        <time>2016-12-10T14:30:26Z</time>
      </trkpt>
      <trkpt lat="45.95696" lon="4.91984">
        <ele>299</ele>
        <time>2016-12-10T14:30:28Z</time>
      </trkpt>
      <trkpt lat="45.95698" lon="4.9198">
        <ele>299</ele>
        <time>2016-12-10T14:30:29Z</time>
      </trkpt>
      <trkpt lat="45.95702" lon="4.91971">
        <ele>299</ele>
        <time>2016-12-10T14:30:31Z</time>
      </trkpt>
      <trkpt lat="45.95704" lon="4.91966">
        <ele>299</ele>
        <time>2016-12-10T14:30:32Z</time>
      </trkpt>
      <trkpt lat="45.95708" lon="4.91957">
        <ele>299</ele>
        <time>2016-12-10T14:30:34Z</time>
      </trkpt>
      <trkpt lat="45.95712" lon="4.91948">
        <ele>299</ele>
        <time>2016-12-10T14:30:35Z</time>
      </trkpt>
      <trkpt lat="45.95717" lon="4.91941">
        <ele>300</ele>
        <time>2016-12-10T14:30:36Z</time>
      </trkpt>
      <trkpt lat="45.95721" lon="4.91935">
        <ele>300</ele>
        <time>2016-12-10T14:30:37Z</time>
      </trkpt>
      <trkpt lat="45.95724" lon="4.9193">
        <ele>300</ele>
        <time>2016-12-10T14:30:38Z</time>
      </trkpt>
      <trkpt lat="45.95727" lon="4.91923">
        <ele>300</ele>
        <time>2016-12-10T14:30:39Z</time>
      </trkpt>
      <trkpt lat="45.95732" lon="4.91913">
        <ele>299</ele>
        <time>2016-12-10T14:30:41Z</time>
      </trkpt>
      <trkpt lat="45.95735" lon="4.91908">
        <ele>299</ele>
        <time>2016-12-10T14:30:42Z</time>
      </trkpt>
      <trkpt lat="45.95738" lon="4.91903">
        <ele>299</ele>
        <time>2016-12-10T14:30:43Z</time>
      </trkpt>
      <trkpt lat="45.95741" lon="4.91896">
        <ele>299</ele>
        <time>2016-12-10T14:30:44Z</time>
      </trkpt>
      <trkpt lat="45.95744" lon="4.91891">
        <ele>298</ele>
        <time>2016-12-10T14:30:45Z</time>
      </trkpt>
      <trkpt lat="45.95747" lon="4.91885">
        <ele>298</ele>
        <time>2016-12-10T14:30:46Z</time>
      </trkpt>
      <trkpt lat="45.9575" lon="4.9188">
        <ele>298</ele>
        <time>2016-12-10T14:30:47Z</time>
      </trkpt>
      <trkpt lat="45.95753" lon="4.91875">
        <ele>300</ele>
        <time>2016-12-10T14:30:48Z</time>
      </trkpt>
      <trkpt lat="45.95756" lon="4.9187">
        <ele>300</ele>
        <time>2016-12-10T14:30:49Z</time>
      </trkpt>
      <trkpt lat="45.95759" lon="4.91865">
        <ele>300</ele>
        <time>2016-12-10T14:30:50Z</time>
      </trkpt>
      <trkpt lat="45.95762" lon="4.91859">
        <ele>300</ele>
        <time>2016-12-10T14:30:51Z</time>
      </trkpt>
      <trkpt lat="45.95766" lon="4.91853">
        <ele>300</ele>
        <time>2016-12-10T14:30:52Z</time>
      </trkpt>
      <trkpt lat="45.95771" lon="4.91844">
        <ele>300</ele>
        <time>2016-12-10T14:30:54Z</time>
      </trkpt>
      <trkpt lat="45.95774" lon="4.9184">
        <ele>300</ele>
        <time>2016-12-10T14:30:55Z</time>
      </trkpt>
      <trkpt lat="45.95779" lon="4.91832">
        <ele>300</ele>
        <time>2016-12-10T14:30:57Z</time>
      </trkpt>
      <trkpt lat="45.95782" lon="4.91828">
        <ele>300</ele>
        <time>2016-12-10T14:30:58Z</time>
      </trkpt>
      <trkpt lat="45.95786" lon="4.91818">
        <ele>300</ele>
        <time>2016-12-10T14:31:00Z</time>
      </trkpt>
      <trkpt lat="45.95788" lon="4.91814">
        <ele>300</ele>
        <time>2016-12-10T14:31:01Z</time>
      </trkpt>
      <trkpt lat="45.95793" lon="4.91804">
        <ele>300</ele>
        <time>2016-12-10T14:31:03Z</time>
      </trkpt>
      <trkpt lat="45.95796" lon="4.91799">
        <ele>300</ele>
        <time>2016-12-10T14:31:04Z</time>
      </trkpt>
      <trkpt lat="45.95798" lon="4.91795">
        <ele>300</ele>
        <time>2016-12-10T14:31:05Z</time>
      </trkpt>
      <trkpt lat="45.95804" lon="4.91781">
        <ele>301</ele>
        <time>2016-12-10T14:31:06Z</time>
      </trkpt>
      <trkpt lat="45.95809" lon="4.91771">
        <ele>301</ele>
        <time>2016-12-10T14:31:08Z</time>
      </trkpt>
      <trkpt lat="45.95811" lon="4.91767">
        <ele>301</ele>
        <time>2016-12-10T14:31:09Z</time>
      </trkpt>
      <trkpt lat="45.95816" lon="4.91759">
        <ele>301</ele>
        <time>2016-12-10T14:31:12Z</time>
      </trkpt>
      <trkpt lat="45.95818" lon="4.91754">
        <ele>302</ele>
        <time>2016-12-10T14:31:13Z</time>
      </trkpt>
      <trkpt lat="45.9582" lon="4.91742">
        <ele>301</ele>
        <time>2016-12-10T14:31:15Z</time>
      </trkpt>
      <trkpt lat="45.95821" lon="4.91735">
        <ele>301</ele>
        <time>2016-12-10T14:31:16Z</time>
      </trkpt>
      <trkpt lat="45.95822" lon="4.91727">
        <ele>301</ele>
        <time>2016-12-10T14:31:17Z</time>
      </trkpt>
      <trkpt lat="45.95823" lon="4.91719">
        <ele>301</ele>
        <time>2016-12-10T14:31:18Z</time>
      </trkpt>
      <trkpt lat="45.95823" lon="4.91711">
        <ele>300</ele>
        <time>2016-12-10T14:31:19Z</time>
      </trkpt>
      <trkpt lat="45.95824" lon="4.91702">
        <ele>300</ele>
        <time>2016-12-10T14:31:20Z</time>
      </trkpt>
      <trkpt lat="45.95824" lon="4.91695">
        <ele>300</ele>
        <time>2016-12-10T14:31:21Z</time>
      </trkpt>
      <trkpt lat="45.95824" lon="4.91689">
        <ele>300</ele>
        <time>2016-12-10T14:31:22Z</time>
      </trkpt>
      <trkpt lat="45.95824" lon="4.91681">
        <ele>300</ele>
        <time>2016-12-10T14:31:23Z</time>
      </trkpt>
      <trkpt lat="45.95825" lon="4.91674">
        <ele>300</ele>
        <time>2016-12-10T14:31:24Z</time>
      </trkpt>
      <trkpt lat="45.95826" lon="4.91664">
        <ele>300</ele>
        <time>2016-12-10T14:31:25Z</time>
      </trkpt>
      <trkpt lat="45.95826" lon="4.91657">
        <ele>300</ele>
        <time>2016-12-10T14:31:26Z</time>
      </trkpt>
      <trkpt lat="45.95827" lon="4.91647">
        <ele>300</ele>
        <time>2016-12-10T14:31:27Z</time>
      </trkpt>
      <trkpt lat="45.95828" lon="4.91639">
        <ele>300</ele>
        <time>2016-12-10T14:31:28Z</time>
      </trkpt>
      <trkpt lat="45.95829" lon="4.91632">
        <ele>300</ele>
        <time>2016-12-10T14:31:29Z</time>
      </trkpt>
      <trkpt lat="45.95828" lon="4.91625">
        <ele>300</ele>
        <time>2016-12-10T14:31:30Z</time>
      </trkpt>
      <trkpt lat="45.95829" lon="4.91618">
        <ele>300</ele>
        <time>2016-12-10T14:31:31Z</time>
      </trkpt>
      <trkpt lat="45.95829" lon="4.91611">
        <ele>300</ele>
        <time>2016-12-10T14:31:32Z</time>
      </trkpt>
      <trkpt lat="45.9583" lon="4.91604">
        <ele>300</ele>
        <time>2016-12-10T14:31:33Z</time>
      </trkpt>
      <trkpt lat="45.9583" lon="4.91596">
        <ele>300</ele>
        <time>2016-12-10T14:31:34Z</time>
      </trkpt>
      <trkpt lat="45.95831" lon="4.91587">
        <ele>300</ele>
        <time>2016-12-10T14:31:35Z</time>
      </trkpt>
      <trkpt lat="45.95831" lon="4.9158">
        <ele>300</ele>
        <time>2016-12-10T14:31:36Z</time>
      </trkpt>
      <trkpt lat="45.95831" lon="4.91573">
        <ele>299</ele>
        <time>2016-12-10T14:31:37Z</time>
      </trkpt>
      <trkpt lat="45.95831" lon="4.91566">
        <ele>299</ele>
        <time>2016-12-10T14:31:38Z</time>
      </trkpt>
      <trkpt lat="45.95831" lon="4.91558">
        <ele>299</ele>
        <time>2016-12-10T14:31:39Z</time>
      </trkpt>
      <trkpt lat="45.95831" lon="4.9155">
        <ele>299</ele>
        <time>2016-12-10T14:31:40Z</time>
      </trkpt>
      <trkpt lat="45.9583" lon="4.91542">
        <ele>298</ele>
        <time>2016-12-10T14:31:41Z</time>
      </trkpt>
      <trkpt lat="45.9583" lon="4.91534">
        <ele>298</ele>
        <time>2016-12-10T14:31:42Z</time>
      </trkpt>
      <trkpt lat="45.9583" lon="4.91526">
        <ele>298</ele>
        <time>2016-12-10T14:31:43Z</time>
      </trkpt>
      <trkpt lat="45.9583" lon="4.91518">
        <ele>298</ele>
        <time>2016-12-10T14:31:44Z</time>
      </trkpt>
      <trkpt lat="45.9583" lon="4.91511">
        <ele>298</ele>
        <time>2016-12-10T14:31:45Z</time>
      </trkpt>
      <trkpt lat="45.9583" lon="4.91504">
        <ele>298</ele>
        <time>2016-12-10T14:31:46Z</time>
      </trkpt>
      <trkpt lat="45.9583" lon="4.91496">
        <ele>298</ele>
        <time>2016-12-10T14:31:47Z</time>
      </trkpt>
      <trkpt lat="45.95829" lon="4.9149">
        <ele>297</ele>
        <time>2016-12-10T14:31:48Z</time>
      </trkpt>
      <trkpt lat="45.95829" lon="4.91481">
        <ele>297</ele>
        <time>2016-12-10T14:31:49Z</time>
      </trkpt>
      <trkpt lat="45.95829" lon="4.91473">
        <ele>297</ele>
        <time>2016-12-10T14:31:50Z</time>
      </trkpt>
      <trkpt lat="45.9583" lon="4.91464">
        <ele>297</ele>
        <time>2016-12-10T14:31:51Z</time>
      </trkpt>
      <trkpt lat="45.9583" lon="4.91456">
        <ele>296</ele>
        <time>2016-12-10T14:31:52Z</time>
      </trkpt>
      <trkpt lat="45.9583" lon="4.91449">
        <ele>296</ele>
        <time>2016-12-10T14:31:53Z</time>
      </trkpt>
      <trkpt lat="45.95831" lon="4.9144">
        <ele>296</ele>
        <time>2016-12-10T14:31:54Z</time>
      </trkpt>
      <trkpt lat="45.95831" lon="4.91433">
        <ele>296</ele>
        <time>2016-12-10T14:31:55Z</time>
      </trkpt>
      <trkpt lat="45.95832" lon="4.91424">
        <ele>296</ele>
        <time>2016-12-10T14:31:56Z</time>
      </trkpt>
      <trkpt lat="45.95832" lon="4.91416">
        <ele>296</ele>
        <time>2016-12-10T14:31:57Z</time>
      </trkpt>
      <trkpt lat="45.95833" lon="4.91409">
        <ele>296</ele>
        <time>2016-12-10T14:31:58Z</time>
      </trkpt>
      <trkpt lat="45.95833" lon="4.91402">
        <ele>296</ele>
        <time>2016-12-10T14:31:59Z</time>
      </trkpt>
      <trkpt lat="45.95833" lon="4.91395">
        <ele>296</ele>
        <time>2016-12-10T14:32:00Z</time>
      </trkpt>
      <trkpt lat="45.95834" lon="4.91388">
        <ele>298</ele>
        <time>2016-12-10T14:32:01Z</time>
      </trkpt>
      <trkpt lat="45.95833" lon="4.91382">
        <ele>296</ele>
        <time>2016-12-10T14:32:02Z</time>
      </trkpt>
      <trkpt lat="45.95834" lon="4.91375">
        <ele>298</ele>
        <time>2016-12-10T14:32:03Z</time>
      </trkpt>
      <trkpt lat="45.95834" lon="4.91367">
        <ele>298</ele>
        <time>2016-12-10T14:32:04Z</time>
      </trkpt>
      <trkpt lat="45.95834" lon="4.9136">
        <ele>298</ele>
        <time>2016-12-10T14:32:05Z</time>
      </trkpt>
      <trkpt lat="45.95834" lon="4.91352">
        <ele>298</ele>
        <time>2016-12-10T14:32:06Z</time>
      </trkpt>
      <trkpt lat="45.95835" lon="4.91344">
        <ele>298</ele>
        <time>2016-12-10T14:32:07Z</time>
      </trkpt>
      <trkpt lat="45.95835" lon="4.91337">
        <ele>297</ele>
        <time>2016-12-10T14:32:08Z</time>
      </trkpt>
      <trkpt lat="45.95836" lon="4.91331">
        <ele>297</ele>
        <time>2016-12-10T14:32:09Z</time>
      </trkpt>
      <trkpt lat="45.95838" lon="4.91322">
        <ele>297</ele>
        <time>2016-12-10T14:32:10Z</time>
      </trkpt>
      <trkpt lat="45.95839" lon="4.91313">
        <ele>298</ele>
        <time>2016-12-10T14:32:11Z</time>
      </trkpt>
      <trkpt lat="45.95841" lon="4.91305">
        <ele>298</ele>
        <time>2016-12-10T14:32:12Z</time>
      </trkpt>
      <trkpt lat="45.95842" lon="4.91298">
        <ele>298</ele>
        <time>2016-12-10T14:32:13Z</time>
      </trkpt>
      <trkpt lat="45.95844" lon="4.91289">
        <ele>297</ele>
        <time>2016-12-10T14:32:14Z</time>
      </trkpt>
      <trkpt lat="45.95845" lon="4.91282">
        <ele>297</ele>
        <time>2016-12-10T14:32:15Z</time>
      </trkpt>
      <trkpt lat="45.95846" lon="4.91273">
        <ele>297</ele>
        <time>2016-12-10T14:32:16Z</time>
      </trkpt>
      <trkpt lat="45.95846" lon="4.91265">
        <ele>297</ele>
        <time>2016-12-10T14:32:17Z</time>
      </trkpt>
      <trkpt lat="45.95845" lon="4.91259">
        <ele>297</ele>
        <time>2016-12-10T14:32:18Z</time>
      </trkpt>
      <trkpt lat="45.95844" lon="4.91252">
        <ele>297</ele>
        <time>2016-12-10T14:32:19Z</time>
      </trkpt>
      <trkpt lat="45.95844" lon="4.91245">
        <ele>296</ele>
        <time>2016-12-10T14:32:20Z</time>
      </trkpt>
      <trkpt lat="45.95846" lon="4.91236">
        <ele>296</ele>
        <time>2016-12-10T14:32:21Z</time>
      </trkpt>
      <trkpt lat="45.95846" lon="4.91229">
        <ele>297</ele>
        <time>2016-12-10T14:32:22Z</time>
      </trkpt>
      <trkpt lat="45.95846" lon="4.91222">
        <ele>297</ele>
        <time>2016-12-10T14:32:23Z</time>
      </trkpt>
      <trkpt lat="45.95846" lon="4.91215">
        <ele>297</ele>
        <time>2016-12-10T14:32:24Z</time>
      </trkpt>
      <trkpt lat="45.95846" lon="4.91208">
        <ele>297</ele>
        <time>2016-12-10T14:32:25Z</time>
      </trkpt>
      <trkpt lat="45.95846" lon="4.91201">
        <ele>296</ele>
        <time>2016-12-10T14:32:26Z</time>
      </trkpt>
      <trkpt lat="45.95845" lon="4.91189">
        <ele>296</ele>
        <time>2016-12-10T14:32:28Z</time>
      </trkpt>
      <trkpt lat="45.95844" lon="4.91183">
        <ele>296</ele>
        <time>2016-12-10T14:32:29Z</time>
      </trkpt>
      <trkpt lat="45.95842" lon="4.9117">
        <ele>296</ele>
        <time>2016-12-10T14:32:31Z</time>
      </trkpt>
      <trkpt lat="45.95842" lon="4.91164">
        <ele>296</ele>
        <time>2016-12-10T14:32:32Z</time>
      </trkpt>
      <trkpt lat="45.95842" lon="4.91157">
        <ele>296</ele>
        <time>2016-12-10T14:32:33Z</time>
      </trkpt>
      <trkpt lat="45.95841" lon="4.9115">
        <ele>296</ele>
        <time>2016-12-10T14:32:34Z</time>
      </trkpt>
      <trkpt lat="45.9584" lon="4.91142">
        <ele>297</ele>
        <time>2016-12-10T14:32:35Z</time>
      </trkpt>
      <trkpt lat="45.95839" lon="4.91135">
        <ele>297</ele>
        <time>2016-12-10T14:32:36Z</time>
      </trkpt>
      <trkpt lat="45.95839" lon="4.91128">
        <ele>297</ele>
        <time>2016-12-10T14:32:37Z</time>
      </trkpt>
      <trkpt lat="45.95839" lon="4.91119">
        <ele>297</ele>
        <time>2016-12-10T14:32:38Z</time>
      </trkpt>
      <trkpt lat="45.95839" lon="4.91111">
        <ele>297</ele>
        <time>2016-12-10T14:32:39Z</time>
      </trkpt>
      <trkpt lat="45.95839" lon="4.91104">
        <ele>297</ele>
        <time>2016-12-10T14:32:40Z</time>
      </trkpt>
      <trkpt lat="45.9584" lon="4.91096">
        <ele>297</ele>
        <time>2016-12-10T14:32:41Z</time>
      </trkpt>
      <trkpt lat="45.95839" lon="4.91089">
        <ele>296</ele>
        <time>2016-12-10T14:32:42Z</time>
      </trkpt>
      <trkpt lat="45.9584" lon="4.9108">
        <ele>296</ele>
        <time>2016-12-10T14:32:43Z</time>
      </trkpt>
      <trkpt lat="45.95841" lon="4.91072">
        <ele>296</ele>
        <time>2016-12-10T14:32:44Z</time>
      </trkpt>
      <trkpt lat="45.95842" lon="4.91063">
        <ele>297</ele>
        <time>2016-12-10T14:32:45Z</time>
      </trkpt>
      <trkpt lat="45.95842" lon="4.91053">
        <ele>297</ele>
        <time>2016-12-10T14:32:46Z</time>
      </trkpt>
      <trkpt lat="45.95843" lon="4.91043">
        <ele>297</ele>
        <time>2016-12-10T14:32:47Z</time>
      </trkpt>
      <trkpt lat="45.95844" lon="4.91033">
        <ele>296</ele>
        <time>2016-12-10T14:32:48Z</time>
      </trkpt>
      <trkpt lat="45.95845" lon="4.91024">
        <ele>296</ele>
        <time>2016-12-10T14:32:49Z</time>
      </trkpt>
      <trkpt lat="45.95847" lon="4.91012">
        <ele>296</ele>
        <time>2016-12-10T14:32:50Z</time>
      </trkpt>
      <trkpt lat="45.95852" lon="4.91001">
        <ele>296</ele>
        <time>2016-12-10T14:32:51Z</time>
      </trkpt>
      <trkpt lat="45.95855" lon="4.9099">
        <ele>295</ele>
        <time>2016-12-10T14:32:52Z</time>
      </trkpt>
      <trkpt lat="45.95858" lon="4.90979">
        <ele>294</ele>
        <time>2016-12-10T14:32:53Z</time>
      </trkpt>
      <trkpt lat="45.95861" lon="4.90968">
        <ele>294</ele>
        <time>2016-12-10T14:32:54Z</time>
      </trkpt>
      <trkpt lat="45.95862" lon="4.90959">
        <ele>294</ele>
        <time>2016-12-10T14:32:55Z</time>
      </trkpt>
      <trkpt lat="45.95863" lon="4.9095">
        <ele>294</ele>
        <time>2016-12-10T14:32:56Z</time>
      </trkpt>
      <trkpt lat="45.95864" lon="4.90941">
        <ele>293</ele>
        <time>2016-12-10T14:32:57Z</time>
      </trkpt>
      <trkpt lat="45.95865" lon="4.90932">
        <ele>293</ele>
        <time>2016-12-10T14:32:58Z</time>
      </trkpt>
      <trkpt lat="45.95866" lon="4.90923">
        <ele>293</ele>
        <time>2016-12-10T14:32:59Z</time>
      </trkpt>
      <trkpt lat="45.95868" lon="4.90909">
        <ele>292</ele>
        <time>2016-12-10T14:33:00Z</time>
      </trkpt>
      <trkpt lat="45.95869" lon="4.90898">
        <ele>292</ele>
        <time>2016-12-10T14:33:01Z</time>
      </trkpt>
      <trkpt lat="45.9587" lon="4.90886">
        <ele>292</ele>
        <time>2016-12-10T14:33:02Z</time>
      </trkpt>
      <trkpt lat="45.95871" lon="4.90876">
        <ele>292</ele>
        <time>2016-12-10T14:33:03Z</time>
      </trkpt>
      <trkpt lat="45.95871" lon="4.90867">
        <ele>292</ele>
        <time>2016-12-10T14:33:04Z</time>
      </trkpt>
      <trkpt lat="45.95871" lon="4.90858">
        <ele>292</ele>
        <time>2016-12-10T14:33:05Z</time>
      </trkpt>
      <trkpt lat="45.95872" lon="4.90849">
        <ele>292</ele>
        <time>2016-12-10T14:33:06Z</time>
      </trkpt>
      <trkpt lat="45.95872" lon="4.9084">
        <ele>292</ele>
        <time>2016-12-10T14:33:07Z</time>
      </trkpt>
      <trkpt lat="45.95873" lon="4.90832">
        <ele>291</ele>
        <time>2016-12-10T14:33:08Z</time>
      </trkpt>
      <trkpt lat="45.95873" lon="4.90823">
        <ele>291</ele>
        <time>2016-12-10T14:33:09Z</time>
      </trkpt>
      <trkpt lat="45.95873" lon="4.90814">
        <ele>291</ele>
        <time>2016-12-10T14:33:10Z</time>
      </trkpt>
      <trkpt lat="45.95873" lon="4.90806">
        <ele>291</ele>
        <time>2016-12-10T14:33:11Z</time>
      </trkpt>
      <trkpt lat="45.95873" lon="4.90798">
        <ele>291</ele>
        <time>2016-12-10T14:33:12Z</time>
      </trkpt>
      <trkpt lat="45.95874" lon="4.90789">
        <ele>291</ele>
        <time>2016-12-10T14:33:13Z</time>
      </trkpt>
      <trkpt lat="45.95874" lon="4.90781">
        <ele>291</ele>
        <time>2016-12-10T14:33:14Z</time>
      </trkpt>
      <trkpt lat="45.95875" lon="4.90773">
        <ele>291</ele>
        <time>2016-12-10T14:33:15Z</time>
      </trkpt>
      <trkpt lat="45.95875" lon="4.90765">
        <ele>291</ele>
        <time>2016-12-10T14:33:16Z</time>
      </trkpt>
      <trkpt lat="45.95875" lon="4.90757">
        <ele>291</ele>
        <time>2016-12-10T14:33:17Z</time>
      </trkpt>
      <trkpt lat="45.95875" lon="4.90749">
        <ele>292</ele>
        <time>2016-12-10T14:33:18Z</time>
      </trkpt>
      <trkpt lat="45.95876" lon="4.90741">
        <ele>292</ele>
        <time>2016-12-10T14:33:19Z</time>
      </trkpt>
      <trkpt lat="45.95876" lon="4.90733">
        <ele>292</ele>
        <time>2016-12-10T14:33:20Z</time>
      </trkpt>
      <trkpt lat="45.95876" lon="4.90725">
        <ele>292</ele>
        <time>2016-12-10T14:33:21Z</time>
      </trkpt>
      <trkpt lat="45.95877" lon="4.90717">
        <ele>292</ele>
        <time>2016-12-10T14:33:22Z</time>
      </trkpt>
      <trkpt lat="45.95877" lon="4.90708">
        <ele>292</ele>
        <time>2016-12-10T14:33:23Z</time>
      </trkpt>
      <trkpt lat="45.95877" lon="4.907">
        <ele>292</ele>
        <time>2016-12-10T14:33:24Z</time>
      </trkpt>
      <trkpt lat="45.95877" lon="4.90691">
        <ele>292</ele>
        <time>2016-12-10T14:33:25Z</time>
      </trkpt>
      <trkpt lat="45.95878" lon="4.90683">
        <ele>292</ele>
        <time>2016-12-10T14:33:26Z</time>
      </trkpt>
      <trkpt lat="45.95878" lon="4.90675">
        <ele>292</ele>
        <time>2016-12-10T14:33:27Z</time>
      </trkpt>
      <trkpt lat="45.95878" lon="4.90667">
        <ele>292</ele>
        <time>2016-12-10T14:33:28Z</time>
      </trkpt>
      <trkpt lat="45.95879" lon="4.90659">
        <ele>293</ele>
        <time>2016-12-10T14:33:29Z</time>
      </trkpt>
      <trkpt lat="45.95879" lon="4.90651">
        <ele>293</ele>
        <time>2016-12-10T14:33:30Z</time>
      </trkpt>
      <trkpt lat="45.95879" lon="4.90643">
        <ele>293</ele>
        <time>2016-12-10T14:33:31Z</time>
      </trkpt>
      <trkpt lat="45.95879" lon="4.90636">
        <ele>293</ele>
        <time>2016-12-10T14:33:32Z</time>
      </trkpt>
      <trkpt lat="45.9588" lon="4.90627">
        <ele>293</ele>
        <time>2016-12-10T14:33:33Z</time>
      </trkpt>
      <trkpt lat="45.9588" lon="4.90619">
        <ele>293</ele>
        <time>2016-12-10T14:33:34Z</time>
      </trkpt>
      <trkpt lat="45.95881" lon="4.9061">
        <ele>293</ele>
        <time>2016-12-10T14:33:35Z</time>
      </trkpt>
      <trkpt lat="45.95881" lon="4.90601">
        <ele>293</ele>
        <time>2016-12-10T14:33:36Z</time>
      </trkpt>
      <trkpt lat="45.95882" lon="4.90593">
        <ele>293</ele>
        <time>2016-12-10T14:33:37Z</time>
      </trkpt>
      <trkpt lat="45.95882" lon="4.90584">
        <ele>293</ele>
        <time>2016-12-10T14:33:38Z</time>
      </trkpt>
      <trkpt lat="45.95882" lon="4.90576">
        <ele>292</ele>
        <time>2016-12-10T14:33:39Z</time>
      </trkpt>
      <trkpt lat="45.95882" lon="4.90568">
        <ele>292</ele>
        <time>2016-12-10T14:33:40Z</time>
      </trkpt>
      <trkpt lat="45.95882" lon="4.9056">
        <ele>292</ele>
        <time>2016-12-10T14:33:41Z</time>
      </trkpt>
      <trkpt lat="45.95882" lon="4.90551">
        <ele>292</ele>
        <time>2016-12-10T14:33:42Z</time>
      </trkpt>
      <trkpt lat="45.95882" lon="4.90543">
        <ele>292</ele>
        <time>2016-12-10T14:33:43Z</time>
      </trkpt>
      <trkpt lat="45.95883" lon="4.90535">
        <ele>292</ele>
        <time>2016-12-10T14:33:44Z</time>
      </trkpt>
      <trkpt lat="45.95883" lon="4.90526">
        <ele>292</ele>
        <time>2016-12-10T14:33:45Z</time>
      </trkpt>
      <trkpt lat="45.95883" lon="4.90518">
        <ele>292</ele>
        <time>2016-12-10T14:33:46Z</time>
      </trkpt>
      <trkpt lat="45.95883" lon="4.9051">
        <ele>292</ele>
        <time>2016-12-10T14:33:47Z</time>
      </trkpt>
      <trkpt lat="45.95884" lon="4.90502">
        <ele>292</ele>
        <time>2016-12-10T14:33:48Z</time>
      </trkpt>
      <trkpt lat="45.95884" lon="4.90494">
        <ele>292</ele>
        <time>2016-12-10T14:33:49Z</time>
      </trkpt>
      <trkpt lat="45.95884" lon="4.90486">
        <ele>292</ele>
        <time>2016-12-10T14:33:50Z</time>
      </trkpt>
      <trkpt lat="45.95884" lon="4.90477">
        <ele>292</ele>
        <time>2016-12-10T14:33:51Z</time>
      </trkpt>
      <trkpt lat="45.95884" lon="4.9047">
        <ele>292</ele>
        <time>2016-12-10T14:33:52Z</time>
      </trkpt>
      <trkpt lat="45.95885" lon="4.90463">
        <ele>292</ele>
        <time>2016-12-10T14:33:53Z</time>
      </trkpt>
      <trkpt lat="45.95885" lon="4.90455">
        <ele>292</ele>
        <time>2016-12-10T14:33:54Z</time>
      </trkpt>
      <trkpt lat="45.95885" lon="4.90447">
        <ele>292</ele>
        <time>2016-12-10T14:33:55Z</time>
      </trkpt>
      <trkpt lat="45.95885" lon="4.9044">
        <ele>292</ele>
        <time>2016-12-10T14:33:56Z</time>
      </trkpt>
      <trkpt lat="45.95885" lon="4.90432">
        <ele>292</ele>
        <time>2016-12-10T14:33:57Z</time>
      </trkpt>
      <trkpt lat="45.95886" lon="4.90425">
        <ele>292</ele>
        <time>2016-12-10T14:33:58Z</time>
      </trkpt>
      <trkpt lat="45.95886" lon="4.90417">
        <ele>292</ele>
        <time>2016-12-10T14:33:59Z</time>
      </trkpt>
      <trkpt lat="45.95886" lon="4.90409">
        <ele>292</ele>
        <time>2016-12-10T14:34:00Z</time>
      </trkpt>
      <trkpt lat="45.95886" lon="4.904">
        <ele>292</ele>
        <time>2016-12-10T14:34:01Z</time>
      </trkpt>
      <trkpt lat="45.95887" lon="4.90391">
        <ele>292</ele>
        <time>2016-12-10T14:34:02Z</time>
      </trkpt>
      <trkpt lat="45.95887" lon="4.90384">
        <ele>292</ele>
        <time>2016-12-10T14:34:03Z</time>
      </trkpt>
      <trkpt lat="45.95888" lon="4.90375">
        <ele>292</ele>
        <time>2016-12-10T14:34:04Z</time>
      </trkpt>
      <trkpt lat="45.95888" lon="4.90366">
        <ele>292</ele>
        <time>2016-12-10T14:34:05Z</time>
      </trkpt>
      <trkpt lat="45.95889" lon="4.90357">
        <ele>292</ele>
        <time>2016-12-10T14:34:06Z</time>
      </trkpt>
      <trkpt lat="45.9589" lon="4.90349">
        <ele>292</ele>
        <time>2016-12-10T14:34:07Z</time>
      </trkpt>
      <trkpt lat="45.95891" lon="4.9034">
        <ele>292</ele>
        <time>2016-12-10T14:34:08Z</time>
      </trkpt>
      <trkpt lat="45.95891" lon="4.90331">
        <ele>292</ele>
        <time>2016-12-10T14:34:09Z</time>
      </trkpt>
      <trkpt lat="45.95892" lon="4.90323">
        <ele>292</ele>
        <time>2016-12-10T14:34:10Z</time>
      </trkpt>
      <trkpt lat="45.95892" lon="4.90315">
        <ele>292</ele>
        <time>2016-12-10T14:34:11Z</time>
      </trkpt>
      <trkpt lat="45.95892" lon="4.90306">
        <ele>292</ele>
        <time>2016-12-10T14:34:12Z</time>
      </trkpt>
      <trkpt lat="45.95892" lon="4.90297">
        <ele>292</ele>
        <time>2016-12-10T14:34:13Z</time>
      </trkpt>
      <trkpt lat="45.95892" lon="4.90289">
        <ele>292</ele>
        <time>2016-12-10T14:34:14Z</time>
      </trkpt>
      <trkpt lat="45.95893" lon="4.9028">
        <ele>292</ele>
        <time>2016-12-10T14:34:15Z</time>
      </trkpt>
      <trkpt lat="45.95893" lon="4.90272">
        <ele>292</ele>
        <time>2016-12-10T14:34:16Z</time>
      </trkpt>
      <trkpt lat="45.95894" lon="4.90263">
        <ele>292</ele>
        <time>2016-12-10T14:34:17Z</time>
      </trkpt>
      <trkpt lat="45.95894" lon="4.90254">
        <ele>292</ele>
        <time>2016-12-10T14:34:18Z</time>
      </trkpt>
      <trkpt lat="45.95893" lon="4.90246">
        <ele>292</ele>
        <time>2016-12-10T14:34:19Z</time>
      </trkpt>
      <trkpt lat="45.95893" lon="4.90238">
        <ele>292</ele>
        <time>2016-12-10T14:34:20Z</time>
      </trkpt>
      <trkpt lat="45.95893" lon="4.9023">
        <ele>292</ele>
        <time>2016-12-10T14:34:21Z</time>
      </trkpt>
      <trkpt lat="45.95893" lon="4.90222">
        <ele>292</ele>
        <time>2016-12-10T14:34:22Z</time>
      </trkpt>
      <trkpt lat="45.95894" lon="4.90215">
        <ele>291</ele>
        <time>2016-12-10T14:34:23Z</time>
      </trkpt>
      <trkpt lat="45.95895" lon="4.90206">
        <ele>291</ele>
        <time>2016-12-10T14:34:24Z</time>
      </trkpt>
      <trkpt lat="45.95895" lon="4.90199">
        <ele>291</ele>
        <time>2016-12-10T14:34:25Z</time>
      </trkpt>
      <trkpt lat="45.95895" lon="4.90191">
        <ele>291</ele>
        <time>2016-12-10T14:34:26Z</time>
      </trkpt>
      <trkpt lat="45.95894" lon="4.90182">
        <ele>291</ele>
        <time>2016-12-10T14:34:27Z</time>
      </trkpt>
      <trkpt lat="45.95894" lon="4.90173">
        <ele>291</ele>
        <time>2016-12-10T14:34:28Z</time>
      </trkpt>
      <trkpt lat="45.95894" lon="4.90163">
        <ele>290</ele>
        <time>2016-12-10T14:34:29Z</time>
      </trkpt>
      <trkpt lat="45.95893" lon="4.90155">
        <ele>290</ele>
        <time>2016-12-10T14:34:30Z</time>
      </trkpt>
      <trkpt lat="45.95893" lon="4.90146">
        <ele>290</ele>
        <time>2016-12-10T14:34:31Z</time>
      </trkpt>
      <trkpt lat="45.95893" lon="4.90138">
        <ele>290</ele>
        <time>2016-12-10T14:34:32Z</time>
      </trkpt>
      <trkpt lat="45.95893" lon="4.90129">
        <ele>290</ele>
        <time>2016-12-10T14:34:33Z</time>
      </trkpt>
      <trkpt lat="45.95893" lon="4.90121">
        <ele>290</ele>
        <time>2016-12-10T14:34:34Z</time>
      </trkpt>
      <trkpt lat="45.95894" lon="4.90112">
        <ele>290</ele>
        <time>2016-12-10T14:34:35Z</time>
      </trkpt>
      <trkpt lat="45.95894" lon="4.90103">
        <ele>290</ele>
        <time>2016-12-10T14:34:36Z</time>
      </trkpt>
      <trkpt lat="45.95895" lon="4.90095">
        <ele>290</ele>
        <time>2016-12-10T14:34:37Z</time>
      </trkpt>
      <trkpt lat="45.95895" lon="4.90087">
        <ele>290</ele>
        <time>2016-12-10T14:34:38Z</time>
      </trkpt>
      <trkpt lat="45.95895" lon="4.9008">
        <ele>290</ele>
        <time>2016-12-10T14:34:39Z</time>
      </trkpt>
      <trkpt lat="45.95895" lon="4.90072">
        <ele>290</ele>
        <time>2016-12-10T14:34:40Z</time>
      </trkpt>
      <trkpt lat="45.95895" lon="4.90064">
        <ele>290</ele>
        <time>2016-12-10T14:34:41Z</time>
      </trkpt>
      <trkpt lat="45.95895" lon="4.90056">
        <ele>290</ele>
        <time>2016-12-10T14:34:42Z</time>
      </trkpt>
      <trkpt lat="45.95894" lon="4.90048">
        <ele>290</ele>
        <time>2016-12-10T14:34:43Z</time>
      </trkpt>
      <trkpt lat="45.95895" lon="4.9004">
        <ele>290</ele>
        <time>2016-12-10T14:34:44Z</time>
      </trkpt>
      <trkpt lat="45.95895" lon="4.90031">
        <ele>290</ele>
        <time>2016-12-10T14:34:45Z</time>
      </trkpt>
      <trkpt lat="45.95895" lon="4.90023">
        <ele>290</ele>
        <time>2016-12-10T14:34:46Z</time>
      </trkpt>
      <trkpt lat="45.95895" lon="4.90014">
        <ele>290</ele>
        <time>2016-12-10T14:34:47Z</time>
      </trkpt>
      <trkpt lat="45.95895" lon="4.90006">
        <ele>290</ele>
        <time>2016-12-10T14:34:48Z</time>
      </trkpt>
      <trkpt lat="45.95895" lon="4.89998">
        <ele>290</ele>
        <time>2016-12-10T14:34:49Z</time>
      </trkpt>
      <trkpt lat="45.95895" lon="4.8999">
        <ele>290</ele>
        <time>2016-12-10T14:34:50Z</time>
      </trkpt>
      <trkpt lat="45.95895" lon="4.89982">
        <ele>290</ele>
        <time>2016-12-10T14:34:51Z</time>
      </trkpt>
      <trkpt lat="45.95895" lon="4.89974">
        <ele>290</ele>
        <time>2016-12-10T14:34:52Z</time>
      </trkpt>
      <trkpt lat="45.95895" lon="4.89967">
        <ele>290</ele>
        <time>2016-12-10T14:34:53Z</time>
      </trkpt>
      <trkpt lat="45.95895" lon="4.89959">
        <ele>290</ele>
        <time>2016-12-10T14:34:54Z</time>
      </trkpt>
      <trkpt lat="45.95895" lon="4.89951">
        <ele>290</ele>
        <time>2016-12-10T14:34:55Z</time>
      </trkpt>
      <trkpt lat="45.95895" lon="4.89943">
        <ele>290</ele>
        <time>2016-12-10T14:34:56Z</time>
      </trkpt>
      <trkpt lat="45.95895" lon="4.89935">
        <ele>290</ele>
        <time>2016-12-10T14:34:57Z</time>
      </trkpt>
      <trkpt lat="45.95895" lon="4.89927">
        <ele>290</ele>
        <time>2016-12-10T14:34:58Z</time>
      </trkpt>
      <trkpt lat="45.95895" lon="4.89918">
        <ele>290</ele>
        <time>2016-12-10T14:34:59Z</time>
      </trkpt>
      <trkpt lat="45.95894" lon="4.89911">
        <ele>290</ele>
        <time>2016-12-10T14:35:00Z</time>
      </trkpt>
      <trkpt lat="45.95894" lon="4.89902">
        <ele>290</ele>
        <time>2016-12-10T14:35:01Z</time>
      </trkpt>
      <trkpt lat="45.95894" lon="4.89894">
        <ele>290</ele>
        <time>2016-12-10T14:35:02Z</time>
      </trkpt>
      <trkpt lat="45.95894" lon="4.89886">
        <ele>290</ele>
        <time>2016-12-10T14:35:03Z</time>
      </trkpt>
      <trkpt lat="45.95893" lon="4.89878">
        <ele>290</ele>
        <time>2016-12-10T14:35:04Z</time>
      </trkpt>
      <trkpt lat="45.95893" lon="4.8987">
        <ele>290</ele>
        <time>2016-12-10T14:35:05Z</time>
      </trkpt>
      <trkpt lat="45.95893" lon="4.89862">
        <ele>290</ele>
        <time>2016-12-10T14:35:06Z</time>
      </trkpt>
      <trkpt lat="45.95893" lon="4.89853">
        <ele>290</ele>
        <time>2016-12-10T14:35:07Z</time>
      </trkpt>
      <trkpt lat="45.95893" lon="4.89845">
        <ele>290</ele>
        <time>2016-12-10T14:35:08Z</time>
      </trkpt>
      <trkpt lat="45.95893" lon="4.89836">
        <ele>290</ele>
        <time>2016-12-10T14:35:09Z</time>
      </trkpt>
      <trkpt lat="45.95892" lon="4.89828">
        <ele>289</ele>
        <time>2016-12-10T14:35:10Z</time>
      </trkpt>
      <trkpt lat="45.95892" lon="4.8982">
        <ele>289</ele>
        <time>2016-12-10T14:35:11Z</time>
      </trkpt>
      <trkpt lat="45.95892" lon="4.89812">
        <ele>289</ele>
        <time>2016-12-10T14:35:12Z</time>
      </trkpt>
      <trkpt lat="45.95892" lon="4.89804">
        <ele>289</ele>
        <time>2016-12-10T14:35:13Z</time>
      </trkpt>
      <trkpt lat="45.95892" lon="4.89795">
        <ele>289</ele>
        <time>2016-12-10T14:35:14Z</time>
      </trkpt>
      <trkpt lat="45.95892" lon="4.89787">
        <ele>289</ele>
        <time>2016-12-10T14:35:15Z</time>
      </trkpt>
      <trkpt lat="45.95892" lon="4.89779">
        <ele>289</ele>
        <time>2016-12-10T14:35:16Z</time>
      </trkpt>
      <trkpt lat="45.95892" lon="4.89771">
        <ele>289</ele>
        <time>2016-12-10T14:35:17Z</time>
      </trkpt>
      <trkpt lat="45.95892" lon="4.89763">
        <ele>289</ele>
        <time>2016-12-10T14:35:18Z</time>
      </trkpt>
      <trkpt lat="45.95892" lon="4.89755">
        <ele>289</ele>
        <time>2016-12-10T14:35:19Z</time>
      </trkpt>
      <trkpt lat="45.95891" lon="4.89747">
        <ele>289</ele>
        <time>2016-12-10T14:35:20Z</time>
      </trkpt>
      <trkpt lat="45.95891" lon="4.89739">
        <ele>289</ele>
        <time>2016-12-10T14:35:21Z</time>
      </trkpt>
      <trkpt lat="45.95891" lon="4.89732">
        <ele>289</ele>
        <time>2016-12-10T14:35:22Z</time>
      </trkpt>
      <trkpt lat="45.95891" lon="4.89724">
        <ele>289</ele>
        <time>2016-12-10T14:35:23Z</time>
      </trkpt>
      <trkpt lat="45.95891" lon="4.89716">
        <ele>289</ele>
        <time>2016-12-10T14:35:24Z</time>
      </trkpt>
      <trkpt lat="45.95891" lon="4.89707">
        <ele>289</ele>
        <time>2016-12-10T14:35:25Z</time>
      </trkpt>
      <trkpt lat="45.95891" lon="4.89699">
        <ele>289</ele>
        <time>2016-12-10T14:35:26Z</time>
      </trkpt>
      <trkpt lat="45.95891" lon="4.89691">
        <ele>289</ele>
        <time>2016-12-10T14:35:27Z</time>
      </trkpt>
      <trkpt lat="45.95891" lon="4.89684">
        <ele>289</ele>
        <time>2016-12-10T14:35:28Z</time>
      </trkpt>
      <trkpt lat="45.95891" lon="4.89676">
        <ele>289</ele>
        <time>2016-12-10T14:35:29Z</time>
      </trkpt>
      <trkpt lat="45.9589" lon="4.89669">
        <ele>289</ele>
        <time>2016-12-10T14:35:30Z</time>
      </trkpt>
      <trkpt lat="45.9589" lon="4.89661">
        <ele>289</ele>
        <time>2016-12-10T14:35:31Z</time>
      </trkpt>
      <trkpt lat="45.9589" lon="4.89653">
        <ele>289</ele>
        <time>2016-12-10T14:35:32Z</time>
      </trkpt>
      <trkpt lat="45.9589" lon="4.89644">
        <ele>289</ele>
        <time>2016-12-10T14:35:33Z</time>
      </trkpt>
      <trkpt lat="45.9589" lon="4.89635">
        <ele>289</ele>
        <time>2016-12-10T14:35:34Z</time>
      </trkpt>
      <trkpt lat="45.9589" lon="4.89626">
        <ele>289</ele>
        <time>2016-12-10T14:35:35Z</time>
      </trkpt>
      <trkpt lat="45.95891" lon="4.89617">
        <ele>289</ele>
        <time>2016-12-10T14:35:36Z</time>
      </trkpt>
      <trkpt lat="45.9589" lon="4.89607">
        <ele>289</ele>
        <time>2016-12-10T14:35:37Z</time>
      </trkpt>
      <trkpt lat="45.9589" lon="4.89598">
        <ele>289</ele>
        <time>2016-12-10T14:35:38Z</time>
      </trkpt>
      <trkpt lat="45.9589" lon="4.89588">
        <ele>289</ele>
        <time>2016-12-10T14:35:39Z</time>
      </trkpt>
      <trkpt lat="45.9589" lon="4.89579">
        <ele>289</ele>
        <time>2016-12-10T14:35:40Z</time>
      </trkpt>
      <trkpt lat="45.9589" lon="4.8957">
        <ele>288</ele>
        <time>2016-12-10T14:35:41Z</time>
      </trkpt>
      <trkpt lat="45.9589" lon="4.89562">
        <ele>288</ele>
        <time>2016-12-10T14:35:42Z</time>
      </trkpt>
      <trkpt lat="45.9589" lon="4.89553">
        <ele>288</ele>
        <time>2016-12-10T14:35:43Z</time>
      </trkpt>
      <trkpt lat="45.9589" lon="4.89545">
        <ele>288</ele>
        <time>2016-12-10T14:35:44Z</time>
      </trkpt>
      <trkpt lat="45.95889" lon="4.89537">
        <ele>288</ele>
        <time>2016-12-10T14:35:45Z</time>
      </trkpt>
      <trkpt lat="45.95889" lon="4.89528">
        <ele>288</ele>
        <time>2016-12-10T14:35:46Z</time>
      </trkpt>
      <trkpt lat="45.95889" lon="4.89519">
        <ele>288</ele>
        <time>2016-12-10T14:35:47Z</time>
      </trkpt>
      <trkpt lat="45.95889" lon="4.89511">
        <ele>288</ele>
        <time>2016-12-10T14:35:48Z</time>
      </trkpt>
      <trkpt lat="45.95889" lon="4.89503">
        <ele>288</ele>
        <time>2016-12-10T14:35:49Z</time>
      </trkpt>
      <trkpt lat="45.95888" lon="4.89494">
        <ele>289</ele>
        <time>2016-12-10T14:35:50Z</time>
      </trkpt>
      <trkpt lat="45.95888" lon="4.89485">
        <ele>289</ele>
        <time>2016-12-10T14:35:51Z</time>
      </trkpt>
      <trkpt lat="45.95888" lon="4.89476">
        <ele>289</ele>
        <time>2016-12-10T14:35:52Z</time>
      </trkpt>
      <trkpt lat="45.95888" lon="4.89467">
        <ele>289</ele>
        <time>2016-12-10T14:35:53Z</time>
      </trkpt>
      <trkpt lat="45.95888" lon="4.89458">
        <ele>289</ele>
        <time>2016-12-10T14:35:54Z</time>
      </trkpt>
      <trkpt lat="45.95888" lon="4.89448">
        <ele>289</ele>
        <time>2016-12-10T14:35:55Z</time>
      </trkpt>
      <trkpt lat="45.95888" lon="4.89439">
        <ele>289</ele>
        <time>2016-12-10T14:35:56Z</time>
      </trkpt>
      <trkpt lat="45.95888" lon="4.89429">
        <ele>289</ele>
        <time>2016-12-10T14:35:57Z</time>
      </trkpt>
      <trkpt lat="45.95888" lon="4.8942">
        <ele>289</ele>
        <time>2016-12-10T14:35:58Z</time>
      </trkpt>
      <trkpt lat="45.95888" lon="4.89411">
        <ele>289</ele>
        <time>2016-12-10T14:35:59Z</time>
      </trkpt>
      <trkpt lat="45.95888" lon="4.89402">
        <ele>289</ele>
        <time>2016-12-10T14:36:00Z</time>
      </trkpt>
      <trkpt lat="45.95888" lon="4.89393">
        <ele>289</ele>
        <time>2016-12-10T14:36:01Z</time>
      </trkpt>
      <trkpt lat="45.95888" lon="4.89384">
        <ele>289</ele>
        <time>2016-12-10T14:36:02Z</time>
      </trkpt>
      <trkpt lat="45.95888" lon="4.89376">
        <ele>289</ele>
        <time>2016-12-10T14:36:03Z</time>
      </trkpt>
      <trkpt lat="45.95888" lon="4.89368">
        <ele>289</ele>
        <time>2016-12-10T14:36:04Z</time>
      </trkpt>
      <trkpt lat="45.95887" lon="4.8936">
        <ele>289</ele>
        <time>2016-12-10T14:36:05Z</time>
      </trkpt>
      <trkpt lat="45.95887" lon="4.89353">
        <ele>289</ele>
        <time>2016-12-10T14:36:06Z</time>
      </trkpt>
      <trkpt lat="45.95887" lon="4.89346">
        <ele>289</ele>
        <time>2016-12-10T14:36:07Z</time>
      </trkpt>
      <trkpt lat="45.95888" lon="4.89338">
        <ele>289</ele>
        <time>2016-12-10T14:36:08Z</time>
      </trkpt>
      <trkpt lat="45.95888" lon="4.89331">
        <ele>289</ele>
        <time>2016-12-10T14:36:09Z</time>
      </trkpt>
      <trkpt lat="45.95888" lon="4.89323">
        <ele>289</ele>
        <time>2016-12-10T14:36:10Z</time>
      </trkpt>
      <trkpt lat="45.95888" lon="4.89315">
        <ele>289</ele>
        <time>2016-12-10T14:36:11Z</time>
      </trkpt>
      <trkpt lat="45.95888" lon="4.89307">
        <ele>289</ele>
        <time>2016-12-10T14:36:12Z</time>
      </trkpt>
      <trkpt lat="45.95888" lon="4.89299">
        <ele>289</ele>
        <time>2016-12-10T14:36:13Z</time>
      </trkpt>
      <trkpt lat="45.95888" lon="4.89291">
        <ele>289</ele>
        <time>2016-12-10T14:36:14Z</time>
      </trkpt>
      <trkpt lat="45.95888" lon="4.89283">
        <ele>289</ele>
        <time>2016-12-10T14:36:15Z</time>
      </trkpt>
      <trkpt lat="45.95888" lon="4.89276">
        <ele>289</ele>
        <time>2016-12-10T14:36:16Z</time>
      </trkpt>
      <trkpt lat="45.95887" lon="4.89269">
        <ele>289</ele>
        <time>2016-12-10T14:36:17Z</time>
      </trkpt>
      <trkpt lat="45.95887" lon="4.89261">
        <ele>289</ele>
        <time>2016-12-10T14:36:18Z</time>
      </trkpt>
      <trkpt lat="45.95887" lon="4.89253">
        <ele>289</ele>
        <time>2016-12-10T14:36:19Z</time>
      </trkpt>
      <trkpt lat="45.95887" lon="4.89245">
        <ele>288</ele>
        <time>2016-12-10T14:36:20Z</time>
      </trkpt>
      <trkpt lat="45.95887" lon="4.89237">
        <ele>288</ele>
        <time>2016-12-10T14:36:21Z</time>
      </trkpt>
      <trkpt lat="45.95887" lon="4.89229">
        <ele>288</ele>
        <time>2016-12-10T14:36:22Z</time>
      </trkpt>
      <trkpt lat="45.95886" lon="4.8922">
        <ele>288</ele>
        <time>2016-12-10T14:36:23Z</time>
      </trkpt>
      <trkpt lat="45.95886" lon="4.89212">
        <ele>288</ele>
        <time>2016-12-10T14:36:24Z</time>
      </trkpt>
      <trkpt lat="45.95886" lon="4.89205">
        <ele>288</ele>
        <time>2016-12-10T14:36:25Z</time>
      </trkpt>
      <trkpt lat="45.95886" lon="4.89197">
        <ele>288</ele>
        <time>2016-12-10T14:36:26Z</time>
      </trkpt>
      <trkpt lat="45.95886" lon="4.89189">
        <ele>288</ele>
        <time>2016-12-10T14:36:27Z</time>
      </trkpt>
      <trkpt lat="45.95885" lon="4.89182">
        <ele>288</ele>
        <time>2016-12-10T14:36:28Z</time>
      </trkpt>
      <trkpt lat="45.95885" lon="4.89174">
        <ele>288</ele>
        <time>2016-12-10T14:36:29Z</time>
      </trkpt>
      <trkpt lat="45.95884" lon="4.89167">
        <ele>288</ele>
        <time>2016-12-10T14:36:30Z</time>
      </trkpt>
      <trkpt lat="45.95884" lon="4.8916">
        <ele>288</ele>
        <time>2016-12-10T14:36:31Z</time>
      </trkpt>
      <trkpt lat="45.95883" lon="4.89153">
        <ele>288</ele>
        <time>2016-12-10T14:36:32Z</time>
      </trkpt>
      <trkpt lat="45.95882" lon="4.89146">
        <ele>288</ele>
        <time>2016-12-10T14:36:33Z</time>
      </trkpt>
      <trkpt lat="45.95882" lon="4.8914">
        <ele>288</ele>
        <time>2016-12-10T14:36:34Z</time>
      </trkpt>
      <trkpt lat="45.95885" lon="4.8913">
        <ele>288</ele>
        <time>2016-12-10T14:36:36Z</time>
      </trkpt>
      <trkpt lat="45.95887" lon="4.89126">
        <ele>288</ele>
        <time>2016-12-10T14:36:37Z</time>
      </trkpt>
      <trkpt lat="45.95891" lon="4.89118">
        <ele>288</ele>
        <time>2016-12-10T14:36:40Z</time>
      </trkpt>
      <trkpt lat="45.95893" lon="4.89116">
        <ele>288</ele>
        <time>2016-12-10T14:36:41Z</time>
      </trkpt>
      <trkpt lat="45.95899" lon="4.89111">
        <ele>288</ele>
        <time>2016-12-10T14:36:44Z</time>
      </trkpt>
      <trkpt lat="45.95901" lon="4.89109">
        <ele>288</ele>
        <time>2016-12-10T14:36:45Z</time>
      </trkpt>
      <trkpt lat="45.95903" lon="4.89101">
        <ele>289</ele>
        <time>2016-12-10T14:36:47Z</time>
      </trkpt>
      <trkpt lat="45.95904" lon="4.89095">
        <ele>289</ele>
        <time>2016-12-10T14:36:48Z</time>
      </trkpt>
      <trkpt lat="45.95904" lon="4.89084">
        <ele>289</ele>
        <time>2016-12-10T14:36:50Z</time>
      </trkpt>
      <trkpt lat="45.95904" lon="4.89078">
        <ele>289</ele>
        <time>2016-12-10T14:36:51Z</time>
      </trkpt>
      <trkpt lat="45.95904" lon="4.89071">
        <ele>289</ele>
        <time>2016-12-10T14:36:52Z</time>
      </trkpt>
      <trkpt lat="45.95904" lon="4.89064">
        <ele>289</ele>
        <time>2016-12-10T14:36:53Z</time>
      </trkpt>
      <trkpt lat="45.95904" lon="4.89057">
        <ele>289</ele>
        <time>2016-12-10T14:36:54Z</time>
      </trkpt>
      <trkpt lat="45.95903" lon="4.89049">
        <ele>289</ele>
        <time>2016-12-10T14:36:55Z</time>
      </trkpt>
      <trkpt lat="45.95901" lon="4.89042">
        <ele>289</ele>
        <time>2016-12-10T14:36:56Z</time>
      </trkpt>
      <trkpt lat="45.95899" lon="4.89035">
        <ele>289</ele>
        <time>2016-12-10T14:36:57Z</time>
      </trkpt>
      <trkpt lat="45.95897" lon="4.89028">
        <ele>289</ele>
        <time>2016-12-10T14:36:58Z</time>
      </trkpt>
      <trkpt lat="45.95896" lon="4.89021">
        <ele>289</ele>
        <time>2016-12-10T14:36:59Z</time>
      </trkpt>
      <trkpt lat="45.95894" lon="4.89014">
        <ele>289</ele>
        <time>2016-12-10T14:37:00Z</time>
      </trkpt>
      <trkpt lat="45.95893" lon="4.89008">
        <ele>289</ele>
        <time>2016-12-10T14:37:01Z</time>
      </trkpt>
      <trkpt lat="45.95891" lon="4.89001">
        <ele>289</ele>
        <time>2016-12-10T14:37:02Z</time>
      </trkpt>
      <trkpt lat="45.9589" lon="4.88994">
        <ele>289</ele>
        <time>2016-12-10T14:37:03Z</time>
      </trkpt>
      <trkpt lat="45.95888" lon="4.88986">
        <ele>289</ele>
        <time>2016-12-10T14:37:04Z</time>
      </trkpt>
      <trkpt lat="45.95887" lon="4.88978">
        <ele>289</ele>
        <time>2016-12-10T14:37:05Z</time>
      </trkpt>
      <trkpt lat="45.95886" lon="4.8897">
        <ele>289</ele>
        <time>2016-12-10T14:37:06Z</time>
      </trkpt>
      <trkpt lat="45.95885" lon="4.88963">
        <ele>289</ele>
        <time>2016-12-10T14:37:07Z</time>
      </trkpt>
      <trkpt lat="45.95885" lon="4.88955">
        <ele>289</ele>
        <time>2016-12-10T14:37:08Z</time>
      </trkpt>
      <trkpt lat="45.95884" lon="4.88948">
        <ele>289</ele>
        <time>2016-12-10T14:37:09Z</time>
      </trkpt>
      <trkpt lat="45.95884" lon="4.8894">
        <ele>289</ele>
        <time>2016-12-10T14:37:10Z</time>
      </trkpt>
      <trkpt lat="45.95883" lon="4.88932">
        <ele>289</ele>
        <time>2016-12-10T14:37:11Z</time>
      </trkpt>
      <trkpt lat="45.95883" lon="4.88924">
        <ele>289</ele>
        <time>2016-12-10T14:37:12Z</time>
      </trkpt>
      <trkpt lat="45.95883" lon="4.88916">
        <ele>289</ele>
        <time>2016-12-10T14:37:13Z</time>
      </trkpt>
      <trkpt lat="45.95883" lon="4.88909">
        <ele>289</ele>
        <time>2016-12-10T14:37:14Z</time>
      </trkpt>
      <trkpt lat="45.95883" lon="4.88901">
        <ele>289</ele>
        <time>2016-12-10T14:37:15Z</time>
      </trkpt>
      <trkpt lat="45.95883" lon="4.88893">
        <ele>289</ele>
        <time>2016-12-10T14:37:16Z</time>
      </trkpt>
      <trkpt lat="45.95883" lon="4.88885">
        <ele>289</ele>
        <time>2016-12-10T14:37:17Z</time>
      </trkpt>
      <trkpt lat="45.95883" lon="4.88877">
        <ele>289</ele>
        <time>2016-12-10T14:37:18Z</time>
      </trkpt>
      <trkpt lat="45.95882" lon="4.88869">
        <ele>289</ele>
        <time>2016-12-10T14:37:19Z</time>
      </trkpt>
      <trkpt lat="45.95882" lon="4.88861">
        <ele>289</ele>
        <time>2016-12-10T14:37:20Z</time>
      </trkpt>
      <trkpt lat="45.95882" lon="4.88854">
        <ele>289</ele>
        <time>2016-12-10T14:37:21Z</time>
      </trkpt>
      <trkpt lat="45.95882" lon="4.88846">
        <ele>289</ele>
        <time>2016-12-10T14:37:22Z</time>
      </trkpt>
      <trkpt lat="45.95882" lon="4.88839">
        <ele>289</ele>
        <time>2016-12-10T14:37:23Z</time>
      </trkpt>
      <trkpt lat="45.95882" lon="4.88831">
        <ele>288</ele>
        <time>2016-12-10T14:37:24Z</time>
      </trkpt>
      <trkpt lat="45.95882" lon="4.88823">
        <ele>288</ele>
        <time>2016-12-10T14:37:25Z</time>
      </trkpt>
      <trkpt lat="45.95881" lon="4.88816">
        <ele>288</ele>
        <time>2016-12-10T14:37:26Z</time>
      </trkpt>
      <trkpt lat="45.95881" lon="4.88808">
        <ele>288</ele>
        <time>2016-12-10T14:37:27Z</time>
      </trkpt>
      <trkpt lat="45.95881" lon="4.88801">
        <ele>288</ele>
        <time>2016-12-10T14:37:28Z</time>
      </trkpt>
      <trkpt lat="45.9588" lon="4.88794">
        <ele>288</ele>
        <time>2016-12-10T14:37:29Z</time>
      </trkpt>
      <trkpt lat="45.9588" lon="4.88787">
        <ele>288</ele>
        <time>2016-12-10T14:37:30Z</time>
      </trkpt>
      <trkpt lat="45.9588" lon="4.8878">
        <ele>288</ele>
        <time>2016-12-10T14:37:31Z</time>
      </trkpt>
      <trkpt lat="45.95879" lon="4.88774">
        <ele>288</ele>
        <time>2016-12-10T14:37:32Z</time>
      </trkpt>
      <trkpt lat="45.95879" lon="4.88767">
        <ele>288</ele>
        <time>2016-12-10T14:37:33Z</time>
      </trkpt>
      <trkpt lat="45.95879" lon="4.8876">
        <ele>288</ele>
        <time>2016-12-10T14:37:34Z</time>
      </trkpt>
      <trkpt lat="45.95879" lon="4.88752">
        <ele>288</ele>
        <time>2016-12-10T14:37:35Z</time>
      </trkpt>
      <trkpt lat="45.95878" lon="4.88743">
        <ele>288</ele>
        <time>2016-12-10T14:37:36Z</time>
      </trkpt>
      <trkpt lat="45.95878" lon="4.88735">
        <ele>288</ele>
        <time>2016-12-10T14:37:37Z</time>
      </trkpt>
      <trkpt lat="45.95878" lon="4.88727">
        <ele>288</ele>
        <time>2016-12-10T14:37:38Z</time>
      </trkpt>
      <trkpt lat="45.95878" lon="4.88718">
        <ele>288</ele>
        <time>2016-12-10T14:37:39Z</time>
      </trkpt>
      <trkpt lat="45.95877" lon="4.8871">
        <ele>288</ele>
        <time>2016-12-10T14:37:40Z</time>
      </trkpt>
      <trkpt lat="45.95877" lon="4.88702">
        <ele>288</ele>
        <time>2016-12-10T14:37:41Z</time>
      </trkpt>
      <trkpt lat="45.95877" lon="4.88695">
        <ele>288</ele>
        <time>2016-12-10T14:37:42Z</time>
      </trkpt>
      <trkpt lat="45.95876" lon="4.88687">
        <ele>288</ele>
        <time>2016-12-10T14:37:43Z</time>
      </trkpt>
      <trkpt lat="45.95876" lon="4.8868">
        <ele>288</ele>
        <time>2016-12-10T14:37:44Z</time>
      </trkpt>
      <trkpt lat="45.95876" lon="4.88672">
        <ele>288</ele>
        <time>2016-12-10T14:37:45Z</time>
      </trkpt>
      <trkpt lat="45.95875" lon="4.88665">
        <ele>288</ele>
        <time>2016-12-10T14:37:46Z</time>
      </trkpt>
      <trkpt lat="45.95875" lon="4.88657">
        <ele>288</ele>
        <time>2016-12-10T14:37:47Z</time>
      </trkpt>
      <trkpt lat="45.95875" lon="4.88649">
        <ele>288</ele>
        <time>2016-12-10T14:37:48Z</time>
      </trkpt>
      <trkpt lat="45.95874" lon="4.88642">
        <ele>288</ele>
        <time>2016-12-10T14:37:49Z</time>
      </trkpt>
      <trkpt lat="45.95874" lon="4.88634">
        <ele>288</ele>
        <time>2016-12-10T14:37:50Z</time>
      </trkpt>
      <trkpt lat="45.95874" lon="4.88627">
        <ele>288</ele>
        <time>2016-12-10T14:37:51Z</time>
      </trkpt>
      <trkpt lat="45.95874" lon="4.88619">
        <ele>288</ele>
        <time>2016-12-10T14:37:52Z</time>
      </trkpt>
      <trkpt lat="45.95874" lon="4.88611">
        <ele>288</ele>
        <time>2016-12-10T14:37:53Z</time>
      </trkpt>
      <trkpt lat="45.95873" lon="4.88603">
        <ele>288</ele>
        <time>2016-12-10T14:37:54Z</time>
      </trkpt>
      <trkpt lat="45.95873" lon="4.88595">
        <ele>288</ele>
        <time>2016-12-10T14:37:55Z</time>
      </trkpt>
      <trkpt lat="45.95872" lon="4.88587">
        <ele>288</ele>
        <time>2016-12-10T14:37:56Z</time>
      </trkpt>
      <trkpt lat="45.95872" lon="4.88579">
        <ele>288</ele>
        <time>2016-12-10T14:37:57Z</time>
      </trkpt>
      <trkpt lat="45.95871" lon="4.88571">
        <ele>288</ele>
        <time>2016-12-10T14:37:58Z</time>
      </trkpt>
      <trkpt lat="45.95871" lon="4.88563">
        <ele>288</ele>
        <time>2016-12-10T14:37:59Z</time>
      </trkpt>
      <trkpt lat="45.95871" lon="4.88555">
        <ele>288</ele>
        <time>2016-12-10T14:38:00Z</time>
      </trkpt>
      <trkpt lat="45.9587" lon="4.88547">
        <ele>288</ele>
        <time>2016-12-10T14:38:01Z</time>
      </trkpt>
      <trkpt lat="45.9587" lon="4.88539">
        <ele>288</ele>
        <time>2016-12-10T14:38:02Z</time>
      </trkpt>
      <trkpt lat="45.9587" lon="4.88531">
        <ele>288</ele>
        <time>2016-12-10T14:38:03Z</time>
      </trkpt>
      <trkpt lat="45.95869" lon="4.88523">
        <ele>288</ele>
        <time>2016-12-10T14:38:04Z</time>
      </trkpt>
      <trkpt lat="45.95869" lon="4.88514">
        <ele>288</ele>
        <time>2016-12-10T14:38:05Z</time>
      </trkpt>
      <trkpt lat="45.95869" lon="4.88506">
        <ele>288</ele>
        <time>2016-12-10T14:38:06Z</time>
      </trkpt>
      <trkpt lat="45.95869" lon="4.88498">
        <ele>288</ele>
        <time>2016-12-10T14:38:07Z</time>
      </trkpt>
      <trkpt lat="45.95868" lon="4.8849">
        <ele>288</ele>
        <time>2016-12-10T14:38:08Z</time>
      </trkpt>
      <trkpt lat="45.95868" lon="4.88482">
        <ele>288</ele>
        <time>2016-12-10T14:38:09Z</time>
      </trkpt>
      <trkpt lat="45.95868" lon="4.88474">
        <ele>287</ele>
        <time>2016-12-10T14:38:10Z</time>
      </trkpt>
      <trkpt lat="45.95868" lon="4.88466">
        <ele>287</ele>
        <time>2016-12-10T14:38:11Z</time>
      </trkpt>
      <trkpt lat="45.95867" lon="4.88459">
        <ele>287</ele>
        <time>2016-12-10T14:38:12Z</time>
      </trkpt>
      <trkpt lat="45.95867" lon="4.88451">
        <ele>287</ele>
        <time>2016-12-10T14:38:13Z</time>
      </trkpt>
      <trkpt lat="45.95867" lon="4.88443">
        <ele>287</ele>
        <time>2016-12-10T14:38:14Z</time>
      </trkpt>
      <trkpt lat="45.95867" lon="4.88435">
        <ele>287</ele>
        <time>2016-12-10T14:38:15Z</time>
      </trkpt>
      <trkpt lat="45.95866" lon="4.88427">
        <ele>287</ele>
        <time>2016-12-10T14:38:16Z</time>
      </trkpt>
      <trkpt lat="45.95866" lon="4.88419">
        <ele>287</ele>
        <time>2016-12-10T14:38:17Z</time>
      </trkpt>
      <trkpt lat="45.95866" lon="4.88412">
        <ele>287</ele>
        <time>2016-12-10T14:38:18Z</time>
      </trkpt>
      <trkpt lat="45.95866" lon="4.88404">
        <ele>287</ele>
        <time>2016-12-10T14:38:19Z</time>
      </trkpt>
      <trkpt lat="45.95865" lon="4.88396">
        <ele>287</ele>
        <time>2016-12-10T14:38:20Z</time>
      </trkpt>
      <trkpt lat="45.95865" lon="4.88389">
        <ele>287</ele>
        <time>2016-12-10T14:38:21Z</time>
      </trkpt>
      <trkpt lat="45.95865" lon="4.88381">
        <ele>287</ele>
        <time>2016-12-10T14:38:22Z</time>
      </trkpt>
      <trkpt lat="45.95864" lon="4.88374">
        <ele>287</ele>
        <time>2016-12-10T14:38:23Z</time>
      </trkpt>
      <trkpt lat="45.95864" lon="4.88366">
        <ele>287</ele>
        <time>2016-12-10T14:38:24Z</time>
      </trkpt>
      <trkpt lat="45.95864" lon="4.88359">
        <ele>287</ele>
        <time>2016-12-10T14:38:25Z</time>
      </trkpt>
      <trkpt lat="45.95863" lon="4.88352">
        <ele>287</ele>
        <time>2016-12-10T14:38:26Z</time>
      </trkpt>
      <trkpt lat="45.95863" lon="4.88344">
        <ele>287</ele>
        <time>2016-12-10T14:38:27Z</time>
      </trkpt>
      <trkpt lat="45.95862" lon="4.88337">
        <ele>287</ele>
        <time>2016-12-10T14:38:28Z</time>
      </trkpt>
      <trkpt lat="45.95862" lon="4.8833">
        <ele>288</ele>
        <time>2016-12-10T14:38:29Z</time>
      </trkpt>
      <trkpt lat="45.95862" lon="4.88323">
        <ele>288</ele>
        <time>2016-12-10T14:38:30Z</time>
      </trkpt>
      <trkpt lat="45.95861" lon="4.88316">
        <ele>288</ele>
        <time>2016-12-10T14:38:31Z</time>
      </trkpt>
      <trkpt lat="45.95861" lon="4.88308">
        <ele>288</ele>
        <time>2016-12-10T14:38:32Z</time>
      </trkpt>
      <trkpt lat="45.9586" lon="4.88301">
        <ele>288</ele>
        <time>2016-12-10T14:38:33Z</time>
      </trkpt>
      <trkpt lat="45.9586" lon="4.88294">
        <ele>288</ele>
        <time>2016-12-10T14:38:34Z</time>
      </trkpt>
      <trkpt lat="45.95859" lon="4.88287">
        <ele>288</ele>
        <time>2016-12-10T14:38:35Z</time>
      </trkpt>
      <trkpt lat="45.95859" lon="4.88279">
        <ele>288</ele>
        <time>2016-12-10T14:38:36Z</time>
      </trkpt>
      <trkpt lat="45.95859" lon="4.88272">
        <ele>288</ele>
        <time>2016-12-10T14:38:37Z</time>
      </trkpt>
      <trkpt lat="45.95859" lon="4.88264">
        <ele>288</ele>
        <time>2016-12-10T14:38:38Z</time>
      </trkpt>
      <trkpt lat="45.95858" lon="4.88257">
        <ele>287</ele>
        <time>2016-12-10T14:38:39Z</time>
      </trkpt>
      <trkpt lat="45.95858" lon="4.8825">
        <ele>288</ele>
        <time>2016-12-10T14:38:40Z</time>
      </trkpt>
      <trkpt lat="45.95858" lon="4.88242">
        <ele>288</ele>
        <time>2016-12-10T14:38:41Z</time>
      </trkpt>
      <trkpt lat="45.95857" lon="4.88235">
        <ele>288</ele>
        <time>2016-12-10T14:38:42Z</time>
      </trkpt>
      <trkpt lat="45.95857" lon="4.88228">
        <ele>288</ele>
        <time>2016-12-10T14:38:43Z</time>
      </trkpt>
      <trkpt lat="45.95857" lon="4.88221">
        <ele>288</ele>
        <time>2016-12-10T14:38:44Z</time>
      </trkpt>
      <trkpt lat="45.95856" lon="4.88214">
        <ele>288</ele>
        <time>2016-12-10T14:38:45Z</time>
      </trkpt>
      <trkpt lat="45.95856" lon="4.88207">
        <ele>288</ele>
        <time>2016-12-10T14:38:46Z</time>
      </trkpt>
      <trkpt lat="45.95856" lon="4.88199">
        <ele>288</ele>
        <time>2016-12-10T14:38:47Z</time>
      </trkpt>
      <trkpt lat="45.95856" lon="4.88192">
        <ele>288</ele>
        <time>2016-12-10T14:38:48Z</time>
      </trkpt>
      <trkpt lat="45.95855" lon="4.88184">
        <ele>288</ele>
        <time>2016-12-10T14:38:49Z</time>
      </trkpt>
      <trkpt lat="45.95855" lon="4.88177">
        <ele>288</ele>
        <time>2016-12-10T14:38:50Z</time>
      </trkpt>
      <trkpt lat="45.95855" lon="4.88169">
        <ele>288</ele>
        <time>2016-12-10T14:38:51Z</time>
      </trkpt>
      <trkpt lat="45.95854" lon="4.8816">
        <ele>288</ele>
        <time>2016-12-10T14:38:52Z</time>
      </trkpt>
      <trkpt lat="45.95854" lon="4.88153">
        <ele>288</ele>
        <time>2016-12-10T14:38:53Z</time>
      </trkpt>
      <trkpt lat="45.95854" lon="4.88145">
        <ele>288</ele>
        <time>2016-12-10T14:38:54Z</time>
      </trkpt>
      <trkpt lat="45.95854" lon="4.88138">
        <ele>289</ele>
        <time>2016-12-10T14:38:55Z</time>
      </trkpt>
      <trkpt lat="45.95853" lon="4.8813">
        <ele>289</ele>
        <time>2016-12-10T14:38:56Z</time>
      </trkpt>
      <trkpt lat="45.95853" lon="4.88123">
        <ele>289</ele>
        <time>2016-12-10T14:38:57Z</time>
      </trkpt>
      <trkpt lat="45.95853" lon="4.88116">
        <ele>289</ele>
        <time>2016-12-10T14:38:58Z</time>
      </trkpt>
      <trkpt lat="45.95853" lon="4.88108">
        <ele>289</ele>
        <time>2016-12-10T14:38:59Z</time>
      </trkpt>
      <trkpt lat="45.95852" lon="4.88101">
        <ele>289</ele>
        <time>2016-12-10T14:39:00Z</time>
      </trkpt>
      <trkpt lat="45.95852" lon="4.88094">
        <ele>288</ele>
        <time>2016-12-10T14:39:01Z</time>
      </trkpt>
      <trkpt lat="45.95851" lon="4.88087">
        <ele>288</ele>
        <time>2016-12-10T14:39:02Z</time>
      </trkpt>
      <trkpt lat="45.95851" lon="4.88079">
        <ele>289</ele>
        <time>2016-12-10T14:39:03Z</time>
      </trkpt>
      <trkpt lat="45.9585" lon="4.88072">
        <ele>289</ele>
        <time>2016-12-10T14:39:04Z</time>
      </trkpt>
      <trkpt lat="45.9585" lon="4.88065">
        <ele>289</ele>
        <time>2016-12-10T14:39:05Z</time>
      </trkpt>
      <trkpt lat="45.9585" lon="4.88056">
        <ele>289</ele>
        <time>2016-12-10T14:39:06Z</time>
      </trkpt>
      <trkpt lat="45.95849" lon="4.88048">
        <ele>289</ele>
        <time>2016-12-10T14:39:07Z</time>
      </trkpt>
      <trkpt lat="45.95849" lon="4.88039">
        <ele>289</ele>
        <time>2016-12-10T14:39:08Z</time>
      </trkpt>
      <trkpt lat="45.95848" lon="4.88031">
        <ele>289</ele>
        <time>2016-12-10T14:39:09Z</time>
      </trkpt>
      <trkpt lat="45.95848" lon="4.88023">
        <ele>289</ele>
        <time>2016-12-10T14:39:10Z</time>
      </trkpt>
      <trkpt lat="45.95848" lon="4.88014">
        <ele>289</ele>
        <time>2016-12-10T14:39:11Z</time>
      </trkpt>
      <trkpt lat="45.95847" lon="4.88006">
        <ele>288</ele>
        <time>2016-12-10T14:39:12Z</time>
      </trkpt>
      <trkpt lat="45.95847" lon="4.87997">
        <ele>289</ele>
        <time>2016-12-10T14:39:13Z</time>
      </trkpt>
      <trkpt lat="45.95847" lon="4.8799">
        <ele>289</ele>
        <time>2016-12-10T14:39:14Z</time>
      </trkpt>
      <trkpt lat="45.95846" lon="4.87982">
        <ele>289</ele>
        <time>2016-12-10T14:39:15Z</time>
      </trkpt>
      <trkpt lat="45.95846" lon="4.87975">
        <ele>289</ele>
        <time>2016-12-10T14:39:16Z</time>
      </trkpt>
      <trkpt lat="45.95846" lon="4.87967">
        <ele>289</ele>
        <time>2016-12-10T14:39:17Z</time>
      </trkpt>
      <trkpt lat="45.95845" lon="4.8796">
        <ele>289</ele>
        <time>2016-12-10T14:39:18Z</time>
      </trkpt>
      <trkpt lat="45.95845" lon="4.87952">
        <ele>289</ele>
        <time>2016-12-10T14:39:19Z</time>
      </trkpt>
      <trkpt lat="45.95845" lon="4.87945">
        <ele>289</ele>
        <time>2016-12-10T14:39:20Z</time>
      </trkpt>
      <trkpt lat="45.95844" lon="4.87938">
        <ele>289</ele>
        <time>2016-12-10T14:39:21Z</time>
      </trkpt>
      <trkpt lat="45.95844" lon="4.8793">
        <ele>289</ele>
        <time>2016-12-10T14:39:22Z</time>
      </trkpt>
      <trkpt lat="45.95843" lon="4.87923">
        <ele>289</ele>
        <time>2016-12-10T14:39:23Z</time>
      </trkpt>
      <trkpt lat="45.95843" lon="4.87916">
        <ele>289</ele>
        <time>2016-12-10T14:39:24Z</time>
      </trkpt>
      <trkpt lat="45.95842" lon="4.87908">
        <ele>289</ele>
        <time>2016-12-10T14:39:25Z</time>
      </trkpt>
      <trkpt lat="45.95842" lon="4.879">
        <ele>289</ele>
        <time>2016-12-10T14:39:26Z</time>
      </trkpt>
      <trkpt lat="45.95841" lon="4.87892">
        <ele>289</ele>
        <time>2016-12-10T14:39:27Z</time>
      </trkpt>
      <trkpt lat="45.9584" lon="4.87884">
        <ele>289</ele>
        <time>2016-12-10T14:39:28Z</time>
      </trkpt>
      <trkpt lat="45.9584" lon="4.87876">
        <ele>289</ele>
        <time>2016-12-10T14:39:29Z</time>
      </trkpt>
      <trkpt lat="45.95839" lon="4.87868">
        <ele>289</ele>
        <time>2016-12-10T14:39:30Z</time>
      </trkpt>
      <trkpt lat="45.95838" lon="4.87859">
        <ele>289</ele>
        <time>2016-12-10T14:39:31Z</time>
      </trkpt>
      <trkpt lat="45.95837" lon="4.8785">
        <ele>288</ele>
        <time>2016-12-10T14:39:32Z</time>
      </trkpt>
      <trkpt lat="45.95837" lon="4.8784">
        <ele>288</ele>
        <time>2016-12-10T14:39:33Z</time>
      </trkpt>
      <trkpt lat="45.95835" lon="4.87831">
        <ele>288</ele>
        <time>2016-12-10T14:39:34Z</time>
      </trkpt>
      <trkpt lat="45.95835" lon="4.87821">
        <ele>288</ele>
        <time>2016-12-10T14:39:35Z</time>
      </trkpt>
      <trkpt lat="45.95834" lon="4.87811">
        <ele>288</ele>
        <time>2016-12-10T14:39:36Z</time>
      </trkpt>
      <trkpt lat="45.95832" lon="4.87802">
        <ele>285</ele>
        <time>2016-12-10T14:39:37Z</time>
      </trkpt>
      <trkpt lat="45.95831" lon="4.87792">
        <ele>285</ele>
        <time>2016-12-10T14:39:38Z</time>
      </trkpt>
      <trkpt lat="45.9583" lon="4.87782">
        <ele>285</ele>
        <time>2016-12-10T14:39:39Z</time>
      </trkpt>
      <trkpt lat="45.95828" lon="4.87773">
        <ele>285</ele>
        <time>2016-12-10T14:39:40Z</time>
      </trkpt>
      <trkpt lat="45.95826" lon="4.87763">
        <ele>285</ele>
        <time>2016-12-10T14:39:41Z</time>
      </trkpt>
      <trkpt lat="45.95825" lon="4.87753">
        <ele>285</ele>
        <time>2016-12-10T14:39:42Z</time>
      </trkpt>
      <trkpt lat="45.95823" lon="4.87743">
        <ele>284</ele>
        <time>2016-12-10T14:39:43Z</time>
      </trkpt>
      <trkpt lat="45.95821" lon="4.87733">
        <ele>284</ele>
        <time>2016-12-10T14:39:44Z</time>
      </trkpt>
      <trkpt lat="45.95819" lon="4.87724">
        <ele>284</ele>
        <time>2016-12-10T14:39:45Z</time>
      </trkpt>
      <trkpt lat="45.95816" lon="4.87714">
        <ele>283</ele>
        <time>2016-12-10T14:39:46Z</time>
      </trkpt>
      <trkpt lat="45.95814" lon="4.87704">
        <ele>283</ele>
        <time>2016-12-10T14:39:47Z</time>
      </trkpt>
      <trkpt lat="45.95812" lon="4.87695">
        <ele>283</ele>
        <time>2016-12-10T14:39:48Z</time>
      </trkpt>
      <trkpt lat="45.95809" lon="4.87685">
        <ele>283</ele>
        <time>2016-12-10T14:39:49Z</time>
      </trkpt>
      <trkpt lat="45.95807" lon="4.87675">
        <ele>283</ele>
        <time>2016-12-10T14:39:50Z</time>
      </trkpt>
      <trkpt lat="45.95804" lon="4.87666">
        <ele>283</ele>
        <time>2016-12-10T14:39:51Z</time>
      </trkpt>
      <trkpt lat="45.95801" lon="4.87657">
        <ele>283</ele>
        <time>2016-12-10T14:39:52Z</time>
      </trkpt>
      <trkpt lat="45.95798" lon="4.87648">
        <ele>283</ele>
        <time>2016-12-10T14:39:53Z</time>
      </trkpt>
      <trkpt lat="45.95794" lon="4.87639">
        <ele>282</ele>
        <time>2016-12-10T14:39:54Z</time>
      </trkpt>
      <trkpt lat="45.9579" lon="4.8763">
        <ele>282</ele>
        <time>2016-12-10T14:39:55Z</time>
      </trkpt>
      <trkpt lat="45.95786" lon="4.87621">
        <ele>282</ele>
        <time>2016-12-10T14:39:56Z</time>
      </trkpt>
      <trkpt lat="45.95781" lon="4.87612">
        <ele>282</ele>
        <time>2016-12-10T14:39:57Z</time>
      </trkpt>
      <trkpt lat="45.95777" lon="4.87603">
        <ele>282</ele>
        <time>2016-12-10T14:39:58Z</time>
      </trkpt>
      <trkpt lat="45.95772" lon="4.87593">
        <ele>281</ele>
        <time>2016-12-10T14:39:59Z</time>
      </trkpt>
      <trkpt lat="45.95767" lon="4.87583">
        <ele>280</ele>
        <time>2016-12-10T14:40:00Z</time>
      </trkpt>
      <trkpt lat="45.95762" lon="4.87573">
        <ele>280</ele>
        <time>2016-12-10T14:40:01Z</time>
      </trkpt>
      <trkpt lat="45.95757" lon="4.87563">
        <ele>280</ele>
        <time>2016-12-10T14:40:02Z</time>
      </trkpt>
      <trkpt lat="45.95752" lon="4.87553">
        <ele>281</ele>
        <time>2016-12-10T14:40:03Z</time>
      </trkpt>
      <trkpt lat="45.95747" lon="4.87543">
        <ele>277</ele>
        <time>2016-12-10T14:40:04Z</time>
      </trkpt>
      <trkpt lat="45.95742" lon="4.87534">
        <ele>277</ele>
        <time>2016-12-10T14:40:05Z</time>
      </trkpt>
      <trkpt lat="45.95737" lon="4.87524">
        <ele>277</ele>
        <time>2016-12-10T14:40:06Z</time>
      </trkpt>
      <trkpt lat="45.95732" lon="4.87514">
        <ele>277</ele>
        <time>2016-12-10T14:40:07Z</time>
      </trkpt>
      <trkpt lat="45.95728" lon="4.87504">
        <ele>277</ele>
        <time>2016-12-10T14:40:08Z</time>
      </trkpt>
      <trkpt lat="45.95723" lon="4.87494">
        <ele>276</ele>
        <time>2016-12-10T14:40:09Z</time>
      </trkpt>
      <trkpt lat="45.95718" lon="4.87484">
        <ele>276</ele>
        <time>2016-12-10T14:40:10Z</time>
      </trkpt>
      <trkpt lat="45.95713" lon="4.87474">
        <ele>276</ele>
        <time>2016-12-10T14:40:11Z</time>
      </trkpt>
      <trkpt lat="45.95709" lon="4.87464">
        <ele>276</ele>
        <time>2016-12-10T14:40:12Z</time>
      </trkpt>
      <trkpt lat="45.95704" lon="4.87454">
        <ele>275</ele>
        <time>2016-12-10T14:40:13Z</time>
      </trkpt>
      <trkpt lat="45.95699" lon="4.87445">
        <ele>275</ele>
        <time>2016-12-10T14:40:14Z</time>
      </trkpt>
      <trkpt lat="45.95695" lon="4.87435">
        <ele>275</ele>
        <time>2016-12-10T14:40:15Z</time>
      </trkpt>
      <trkpt lat="45.95691" lon="4.87427">
        <ele>275</ele>
        <time>2016-12-10T14:40:16Z</time>
      </trkpt>
      <trkpt lat="45.95686" lon="4.87418">
        <ele>274</ele>
        <time>2016-12-10T14:40:17Z</time>
      </trkpt>
      <trkpt lat="45.95682" lon="4.87409">
        <ele>274</ele>
        <time>2016-12-10T14:40:18Z</time>
      </trkpt>
      <trkpt lat="45.95677" lon="4.87401">
        <ele>274</ele>
        <time>2016-12-10T14:40:19Z</time>
      </trkpt>
      <trkpt lat="45.95673" lon="4.87392">
        <ele>274</ele>
        <time>2016-12-10T14:40:20Z</time>
      </trkpt>
      <trkpt lat="45.95669" lon="4.87384">
        <ele>274</ele>
        <time>2016-12-10T14:40:21Z</time>
      </trkpt>
      <trkpt lat="45.95666" lon="4.87376">
        <ele>272</ele>
        <time>2016-12-10T14:40:22Z</time>
      </trkpt>
      <trkpt lat="45.95662" lon="4.87368">
        <ele>272</ele>
        <time>2016-12-10T14:40:23Z</time>
      </trkpt>
      <trkpt lat="45.95658" lon="4.8736">
        <ele>272</ele>
        <time>2016-12-10T14:40:24Z</time>
      </trkpt>
      <trkpt lat="45.95655" lon="4.87353">
        <ele>272</ele>
        <time>2016-12-10T14:40:25Z</time>
      </trkpt>
      <trkpt lat="45.95651" lon="4.87345">
        <ele>272</ele>
        <time>2016-12-10T14:40:26Z</time>
      </trkpt>
      <trkpt lat="45.95647" lon="4.87337">
        <ele>272</ele>
        <time>2016-12-10T14:40:27Z</time>
      </trkpt>
      <trkpt lat="45.95643" lon="4.87328">
        <ele>272</ele>
        <time>2016-12-10T14:40:28Z</time>
      </trkpt>
      <trkpt lat="45.95638" lon="4.8732">
        <ele>272</ele>
        <time>2016-12-10T14:40:29Z</time>
      </trkpt>
      <trkpt lat="45.95634" lon="4.87311">
        <ele>272</ele>
        <time>2016-12-10T14:40:30Z</time>
      </trkpt>
      <trkpt lat="45.9563" lon="4.87303">
        <ele>272</ele>
        <time>2016-12-10T14:40:31Z</time>
      </trkpt>
      <trkpt lat="45.95626" lon="4.87294">
        <ele>272</ele>
        <time>2016-12-10T14:40:32Z</time>
      </trkpt>
      <trkpt lat="45.95621" lon="4.87285">
        <ele>272</ele>
        <time>2016-12-10T14:40:33Z</time>
      </trkpt>
      <trkpt lat="45.95617" lon="4.87277">
        <ele>272</ele>
        <time>2016-12-10T14:40:34Z</time>
      </trkpt>
      <trkpt lat="45.95612" lon="4.87267">
        <ele>272</ele>
        <time>2016-12-10T14:40:35Z</time>
      </trkpt>
      <trkpt lat="45.95608" lon="4.87258">
        <ele>272</ele>
        <time>2016-12-10T14:40:36Z</time>
      </trkpt>
      <trkpt lat="45.95603" lon="4.87249">
        <ele>272</ele>
        <time>2016-12-10T14:40:37Z</time>
      </trkpt>
      <trkpt lat="45.95599" lon="4.8724">
        <ele>272</ele>
        <time>2016-12-10T14:40:38Z</time>
      </trkpt>
      <trkpt lat="45.95594" lon="4.8723">
        <ele>272</ele>
        <time>2016-12-10T14:40:39Z</time>
      </trkpt>
      <trkpt lat="45.95589" lon="4.87221">
        <ele>272</ele>
        <time>2016-12-10T14:40:40Z</time>
      </trkpt>
      <trkpt lat="45.95585" lon="4.87211">
        <ele>272</ele>
        <time>2016-12-10T14:40:41Z</time>
      </trkpt>
      <trkpt lat="45.9558" lon="4.87201">
        <ele>270</ele>
        <time>2016-12-10T14:40:42Z</time>
      </trkpt>
      <trkpt lat="45.95576" lon="4.87192">
        <ele>270</ele>
        <time>2016-12-10T14:40:43Z</time>
      </trkpt>
      <trkpt lat="45.95571" lon="4.87182">
        <ele>270</ele>
        <time>2016-12-10T14:40:44Z</time>
      </trkpt>
      <trkpt lat="45.95567" lon="4.87173">
        <ele>270</ele>
        <time>2016-12-10T14:40:45Z</time>
      </trkpt>
      <trkpt lat="45.95562" lon="4.87164">
        <ele>270</ele>
        <time>2016-12-10T14:40:46Z</time>
      </trkpt>
      <trkpt lat="45.95558" lon="4.87155">
        <ele>270</ele>
        <time>2016-12-10T14:40:47Z</time>
      </trkpt>
      <trkpt lat="45.95554" lon="4.87146">
        <ele>270</ele>
        <time>2016-12-10T14:40:48Z</time>
      </trkpt>
      <trkpt lat="45.95549" lon="4.87137">
        <ele>270</ele>
        <time>2016-12-10T14:40:49Z</time>
      </trkpt>
      <trkpt lat="45.95545" lon="4.87129">
        <ele>270</ele>
        <time>2016-12-10T14:40:50Z</time>
      </trkpt>
      <trkpt lat="45.95542" lon="4.8712">
        <ele>269</ele>
        <time>2016-12-10T14:40:51Z</time>
      </trkpt>
      <trkpt lat="45.95538" lon="4.87112">
        <ele>269</ele>
        <time>2016-12-10T14:40:52Z</time>
      </trkpt>
      <trkpt lat="45.95534" lon="4.87105">
        <ele>269</ele>
        <time>2016-12-10T14:40:53Z</time>
      </trkpt>
      <trkpt lat="45.9553" lon="4.87097">
        <ele>269</ele>
        <time>2016-12-10T14:40:54Z</time>
      </trkpt>
      <trkpt lat="45.95527" lon="4.8709">
        <ele>269</ele>
        <time>2016-12-10T14:40:55Z</time>
      </trkpt>
      <trkpt lat="45.95524" lon="4.87083">
        <ele>268</ele>
        <time>2016-12-10T14:40:56Z</time>
      </trkpt>
      <trkpt lat="45.95521" lon="4.87076">
        <ele>268</ele>
        <time>2016-12-10T14:40:57Z</time>
      </trkpt>
      <trkpt lat="45.95518" lon="4.8707">
        <ele>268</ele>
        <time>2016-12-10T14:40:58Z</time>
      </trkpt>
      <trkpt lat="45.95515" lon="4.87063">
        <ele>268</ele>
        <time>2016-12-10T14:40:59Z</time>
      </trkpt>
      <trkpt lat="45.95511" lon="4.87057">
        <ele>268</ele>
        <time>2016-12-10T14:41:00Z</time>
      </trkpt>
      <trkpt lat="45.95508" lon="4.8705">
        <ele>268</ele>
        <time>2016-12-10T14:41:01Z</time>
      </trkpt>
      <trkpt lat="45.95504" lon="4.87043">
        <ele>268</ele>
        <time>2016-12-10T14:41:02Z</time>
      </trkpt>
      <trkpt lat="45.95501" lon="4.87035">
        <ele>268</ele>
        <time>2016-12-10T14:41:03Z</time>
      </trkpt>
      <trkpt lat="45.95497" lon="4.87029">
        <ele>269</ele>
        <time>2016-12-10T14:41:04Z</time>
      </trkpt>
      <trkpt lat="45.95494" lon="4.87022">
        <ele>269</ele>
        <time>2016-12-10T14:41:05Z</time>
      </trkpt>
      <trkpt lat="45.9549" lon="4.87014">
        <ele>268</ele>
        <time>2016-12-10T14:41:06Z</time>
      </trkpt>
      <trkpt lat="45.95487" lon="4.87007">
        <ele>268</ele>
        <time>2016-12-10T14:41:07Z</time>
      </trkpt>
      <trkpt lat="45.95483" lon="4.87001">
        <ele>269</ele>
        <time>2016-12-10T14:41:08Z</time>
      </trkpt>
      <trkpt lat="45.9548" lon="4.86995">
        <ele>268</ele>
        <time>2016-12-10T14:41:09Z</time>
      </trkpt>
      <trkpt lat="45.95477" lon="4.86989">
        <ele>268</ele>
        <time>2016-12-10T14:41:10Z</time>
      </trkpt>
      <trkpt lat="45.95474" lon="4.86982">
        <ele>268</ele>
        <time>2016-12-10T14:41:11Z</time>
      </trkpt>
      <trkpt lat="45.9547" lon="4.86975">
        <ele>268</ele>
        <time>2016-12-10T14:41:12Z</time>
      </trkpt>
      <trkpt lat="45.95468" lon="4.86968">
        <ele>268</ele>
        <time>2016-12-10T14:41:13Z</time>
      </trkpt>
      <trkpt lat="45.95465" lon="4.8696">
        <ele>268</ele>
        <time>2016-12-10T14:41:14Z</time>
      </trkpt>
      <trkpt lat="45.95462" lon="4.86953">
        <ele>268</ele>
        <time>2016-12-10T14:41:15Z</time>
      </trkpt>
      <trkpt lat="45.95458" lon="4.86945">
        <ele>268</ele>
        <time>2016-12-10T14:41:16Z</time>
      </trkpt>
      <trkpt lat="45.95454" lon="4.86938">
        <ele>268</ele>
        <time>2016-12-10T14:41:17Z</time>
      </trkpt>
      <trkpt lat="45.9545" lon="4.86931">
        <ele>268</ele>
        <time>2016-12-10T14:41:18Z</time>
      </trkpt>
      <trkpt lat="45.95446" lon="4.86924">
        <ele>269</ele>
        <time>2016-12-10T14:41:19Z</time>
      </trkpt>
      <trkpt lat="45.95443" lon="4.86916">
        <ele>268</ele>
        <time>2016-12-10T14:41:20Z</time>
      </trkpt>
      <trkpt lat="45.95439" lon="4.86909">
        <ele>268</ele>
        <time>2016-12-10T14:41:21Z</time>
      </trkpt>
      <trkpt lat="45.95435" lon="4.86901">
        <ele>268</ele>
        <time>2016-12-10T14:41:22Z</time>
      </trkpt>
      <trkpt lat="45.95431" lon="4.86894">
        <ele>268</ele>
        <time>2016-12-10T14:41:23Z</time>
      </trkpt>
      <trkpt lat="45.95427" lon="4.86886">
        <ele>268</ele>
        <time>2016-12-10T14:41:24Z</time>
      </trkpt>
      <trkpt lat="45.95424" lon="4.86879">
        <ele>268</ele>
        <time>2016-12-10T14:41:25Z</time>
      </trkpt>
      <trkpt lat="45.9542" lon="4.86871">
        <ele>268</ele>
        <time>2016-12-10T14:41:26Z</time>
      </trkpt>
      <trkpt lat="45.95416" lon="4.86864">
        <ele>269</ele>
        <time>2016-12-10T14:41:27Z</time>
      </trkpt>
      <trkpt lat="45.95413" lon="4.86858">
        <ele>269</ele>
        <time>2016-12-10T14:41:28Z</time>
      </trkpt>
      <trkpt lat="45.9541" lon="4.86851">
        <ele>269</ele>
        <time>2016-12-10T14:41:29Z</time>
      </trkpt>
      <trkpt lat="45.95406" lon="4.86844">
        <ele>268</ele>
        <time>2016-12-10T14:41:30Z</time>
      </trkpt>
      <trkpt lat="45.95403" lon="4.86838">
        <ele>268</ele>
        <time>2016-12-10T14:41:31Z</time>
      </trkpt>
      <trkpt lat="45.954" lon="4.86831">
        <ele>268</ele>
        <time>2016-12-10T14:41:32Z</time>
      </trkpt>
      <trkpt lat="45.95397" lon="4.86824">
        <ele>268</ele>
        <time>2016-12-10T14:41:33Z</time>
      </trkpt>
      <trkpt lat="45.95394" lon="4.86817">
        <ele>268</ele>
        <time>2016-12-10T14:41:34Z</time>
      </trkpt>
      <trkpt lat="45.9539" lon="4.8681">
        <ele>268</ele>
        <time>2016-12-10T14:41:35Z</time>
      </trkpt>
      <trkpt lat="45.95386" lon="4.86803">
        <ele>268</ele>
        <time>2016-12-10T14:41:36Z</time>
      </trkpt>
      <trkpt lat="45.95383" lon="4.86796">
        <ele>268</ele>
        <time>2016-12-10T14:41:37Z</time>
      </trkpt>
      <trkpt lat="45.95379" lon="4.86788">
        <ele>268</ele>
        <time>2016-12-10T14:41:38Z</time>
      </trkpt>
      <trkpt lat="45.95375" lon="4.8678">
        <ele>268</ele>
        <time>2016-12-10T14:41:39Z</time>
      </trkpt>
      <trkpt lat="45.95371" lon="4.86773">
        <ele>268</ele>
        <time>2016-12-10T14:41:40Z</time>
      </trkpt>
      <trkpt lat="45.95368" lon="4.86765">
        <ele>268</ele>
        <time>2016-12-10T14:41:41Z</time>
      </trkpt>
      <trkpt lat="45.95364" lon="4.86758">
        <ele>268</ele>
        <time>2016-12-10T14:41:42Z</time>
      </trkpt>
      <trkpt lat="45.9536" lon="4.8675">
        <ele>268</ele>
        <time>2016-12-10T14:41:43Z</time>
      </trkpt>
      <trkpt lat="45.95356" lon="4.86743">
        <ele>268</ele>
        <time>2016-12-10T14:41:44Z</time>
      </trkpt>
      <trkpt lat="45.95353" lon="4.86737">
        <ele>268</ele>
        <time>2016-12-10T14:41:45Z</time>
      </trkpt>
      <trkpt lat="45.95349" lon="4.8673">
        <ele>268</ele>
        <time>2016-12-10T14:41:46Z</time>
      </trkpt>
      <trkpt lat="45.95346" lon="4.86724">
        <ele>268</ele>
        <time>2016-12-10T14:41:47Z</time>
      </trkpt>
      <trkpt lat="45.95343" lon="4.86718">
        <ele>268</ele>
        <time>2016-12-10T14:41:48Z</time>
      </trkpt>
      <trkpt lat="45.95341" lon="4.86712">
        <ele>268</ele>
        <time>2016-12-10T14:41:49Z</time>
      </trkpt>
      <trkpt lat="45.95338" lon="4.86705">
        <ele>268</ele>
        <time>2016-12-10T14:41:50Z</time>
      </trkpt>
      <trkpt lat="45.95335" lon="4.86699">
        <ele>268</ele>
        <time>2016-12-10T14:41:51Z</time>
      </trkpt>
      <trkpt lat="45.95332" lon="4.86692">
        <ele>269</ele>
        <time>2016-12-10T14:41:52Z</time>
      </trkpt>
      <trkpt lat="45.95329" lon="4.86686">
        <ele>269</ele>
        <time>2016-12-10T14:41:53Z</time>
      </trkpt>
      <trkpt lat="45.95326" lon="4.8668">
        <ele>269</ele>
        <time>2016-12-10T14:41:54Z</time>
      </trkpt>
      <trkpt lat="45.95323" lon="4.86674">
        <ele>268</ele>
        <time>2016-12-10T14:41:55Z</time>
      </trkpt>
      <trkpt lat="45.95321" lon="4.86667">
        <ele>268</ele>
        <time>2016-12-10T14:41:56Z</time>
      </trkpt>
      <trkpt lat="45.95317" lon="4.86661">
        <ele>268</ele>
        <time>2016-12-10T14:41:57Z</time>
      </trkpt>
      <trkpt lat="45.95314" lon="4.86654">
        <ele>268</ele>
        <time>2016-12-10T14:41:58Z</time>
      </trkpt>
      <trkpt lat="45.95311" lon="4.86648">
        <ele>268</ele>
        <time>2016-12-10T14:41:59Z</time>
      </trkpt>
      <trkpt lat="45.95307" lon="4.86641">
        <ele>268</ele>
        <time>2016-12-10T14:42:00Z</time>
      </trkpt>
      <trkpt lat="45.95304" lon="4.86634">
        <ele>268</ele>
        <time>2016-12-10T14:42:01Z</time>
      </trkpt>
      <trkpt lat="45.953" lon="4.86627">
        <ele>268</ele>
        <time>2016-12-10T14:42:02Z</time>
      </trkpt>
      <trkpt lat="45.95296" lon="4.86619">
        <ele>268</ele>
        <time>2016-12-10T14:42:03Z</time>
      </trkpt>
      <trkpt lat="45.95292" lon="4.86612">
        <ele>268</ele>
        <time>2016-12-10T14:42:04Z</time>
      </trkpt>
      <trkpt lat="45.95288" lon="4.86605">
        <ele>268</ele>
        <time>2016-12-10T14:42:05Z</time>
      </trkpt>
      <trkpt lat="45.95284" lon="4.86598">
        <ele>268</ele>
        <time>2016-12-10T14:42:06Z</time>
      </trkpt>
      <trkpt lat="45.9528" lon="4.8659">
        <ele>268</ele>
        <time>2016-12-10T14:42:07Z</time>
      </trkpt>
      <trkpt lat="45.95276" lon="4.86582">
        <ele>267</ele>
        <time>2016-12-10T14:42:08Z</time>
      </trkpt>
      <trkpt lat="45.95271" lon="4.86575">
        <ele>267</ele>
        <time>2016-12-10T14:42:09Z</time>
      </trkpt>
      <trkpt lat="45.95266" lon="4.86567">
        <ele>267</ele>
        <time>2016-12-10T14:42:10Z</time>
      </trkpt>
      <trkpt lat="45.9526" lon="4.8656">
        <ele>267</ele>
        <time>2016-12-10T14:42:11Z</time>
      </trkpt>
      <trkpt lat="45.95254" lon="4.86554">
        <ele>267</ele>
        <time>2016-12-10T14:42:12Z</time>
      </trkpt>
      <trkpt lat="45.95249" lon="4.86548">
        <ele>268</ele>
        <time>2016-12-10T14:42:13Z</time>
      </trkpt>
      <trkpt lat="45.95244" lon="4.86542">
        <ele>268</ele>
        <time>2016-12-10T14:42:14Z</time>
      </trkpt>
      <trkpt lat="45.95239" lon="4.86536">
        <ele>268</ele>
        <time>2016-12-10T14:42:15Z</time>
      </trkpt>
      <trkpt lat="45.95236" lon="4.86529">
        <ele>268</ele>
        <time>2016-12-10T14:42:16Z</time>
      </trkpt>
      <trkpt lat="45.95231" lon="4.86524">
        <ele>268</ele>
        <time>2016-12-10T14:42:17Z</time>
      </trkpt>
      <trkpt lat="45.95227" lon="4.86519">
        <ele>268</ele>
        <time>2016-12-10T14:42:18Z</time>
      </trkpt>
      <trkpt lat="45.95223" lon="4.86514">
        <ele>268</ele>
        <time>2016-12-10T14:42:19Z</time>
      </trkpt>
      <trkpt lat="45.95219" lon="4.86508">
        <ele>268</ele>
        <time>2016-12-10T14:42:20Z</time>
      </trkpt>
      <trkpt lat="45.95215" lon="4.86502">
        <ele>268</ele>
        <time>2016-12-10T14:42:21Z</time>
      </trkpt>
      <trkpt lat="45.95211" lon="4.86497">
        <ele>268</ele>
        <time>2016-12-10T14:42:22Z</time>
      </trkpt>
      <trkpt lat="45.95206" lon="4.86492">
        <ele>268</ele>
        <time>2016-12-10T14:42:23Z</time>
      </trkpt>
      <trkpt lat="45.95202" lon="4.86486">
        <ele>268</ele>
        <time>2016-12-10T14:42:24Z</time>
      </trkpt>
      <trkpt lat="45.95198" lon="4.86481">
        <ele>268</ele>
        <time>2016-12-10T14:42:25Z</time>
      </trkpt>
      <trkpt lat="45.95194" lon="4.86477">
        <ele>268</ele>
        <time>2016-12-10T14:42:26Z</time>
      </trkpt>
      <trkpt lat="45.9519" lon="4.86472">
        <ele>268</ele>
        <time>2016-12-10T14:42:27Z</time>
      </trkpt>
      <trkpt lat="45.95186" lon="4.86467">
        <ele>268</ele>
        <time>2016-12-10T14:42:28Z</time>
      </trkpt>
      <trkpt lat="45.95182" lon="4.86462">
        <ele>268</ele>
        <time>2016-12-10T14:42:29Z</time>
      </trkpt>
      <trkpt lat="45.95178" lon="4.86458">
        <ele>268</ele>
        <time>2016-12-10T14:42:30Z</time>
      </trkpt>
      <trkpt lat="45.95174" lon="4.86454">
        <ele>268</ele>
        <time>2016-12-10T14:42:31Z</time>
      </trkpt>
      <trkpt lat="45.9517" lon="4.86449">
        <ele>268</ele>
        <time>2016-12-10T14:42:32Z</time>
      </trkpt>
      <trkpt lat="45.95167" lon="4.86444">
        <ele>267</ele>
        <time>2016-12-10T14:42:33Z</time>
      </trkpt>
      <trkpt lat="45.95163" lon="4.86439">
        <ele>268</ele>
        <time>2016-12-10T14:42:34Z</time>
      </trkpt>
      <trkpt lat="45.95159" lon="4.86435">
        <ele>268</ele>
        <time>2016-12-10T14:42:35Z</time>
      </trkpt>
      <trkpt lat="45.95156" lon="4.8643">
        <ele>268</ele>
        <time>2016-12-10T14:42:36Z</time>
      </trkpt>
      <trkpt lat="45.95152" lon="4.86426">
        <ele>268</ele>
        <time>2016-12-10T14:42:37Z</time>
      </trkpt>
      <trkpt lat="45.95148" lon="4.86421">
        <ele>268</ele>
        <time>2016-12-10T14:42:38Z</time>
      </trkpt>
      <trkpt lat="45.95144" lon="4.86416">
        <ele>268</ele>
        <time>2016-12-10T14:42:39Z</time>
      </trkpt>
      <trkpt lat="45.9514" lon="4.86412">
        <ele>268</ele>
        <time>2016-12-10T14:42:40Z</time>
      </trkpt>
      <trkpt lat="45.95136" lon="4.86407">
        <ele>268</ele>
        <time>2016-12-10T14:42:41Z</time>
      </trkpt>
      <trkpt lat="45.95131" lon="4.86402">
        <ele>268</ele>
        <time>2016-12-10T14:42:42Z</time>
      </trkpt>
      <trkpt lat="45.95127" lon="4.86397">
        <ele>268</ele>
        <time>2016-12-10T14:42:43Z</time>
      </trkpt>
      <trkpt lat="45.95124" lon="4.86393">
        <ele>269</ele>
        <time>2016-12-10T14:42:44Z</time>
      </trkpt>
      <trkpt lat="45.9512" lon="4.86388">
        <ele>269</ele>
        <time>2016-12-10T14:42:45Z</time>
      </trkpt>
      <trkpt lat="45.95116" lon="4.86383">
        <ele>269</ele>
        <time>2016-12-10T14:42:46Z</time>
      </trkpt>
      <trkpt lat="45.95113" lon="4.86378">
        <ele>269</ele>
        <time>2016-12-10T14:42:47Z</time>
      </trkpt>
      <trkpt lat="45.95109" lon="4.86374">
        <ele>269</ele>
        <time>2016-12-10T14:42:48Z</time>
      </trkpt>
      <trkpt lat="45.95105" lon="4.86369">
        <ele>269</ele>
        <time>2016-12-10T14:42:49Z</time>
      </trkpt>
      <trkpt lat="45.95102" lon="4.86364">
        <ele>269</ele>
        <time>2016-12-10T14:42:50Z</time>
      </trkpt>
      <trkpt lat="45.95098" lon="4.8636">
        <ele>269</ele>
        <time>2016-12-10T14:42:51Z</time>
      </trkpt>
      <trkpt lat="45.95095" lon="4.86355">
        <ele>269</ele>
        <time>2016-12-10T14:42:52Z</time>
      </trkpt>
      <trkpt lat="45.95091" lon="4.86351">
        <ele>269</ele>
        <time>2016-12-10T14:42:53Z</time>
      </trkpt>
      <trkpt lat="45.95087" lon="4.86347">
        <ele>269</ele>
        <time>2016-12-10T14:42:54Z</time>
      </trkpt>
      <trkpt lat="45.95083" lon="4.86342">
        <ele>270</ele>
        <time>2016-12-10T14:42:55Z</time>
      </trkpt>
      <trkpt lat="45.95079" lon="4.86337">
        <ele>270</ele>
        <time>2016-12-10T14:42:56Z</time>
      </trkpt>
      <trkpt lat="45.95075" lon="4.86333">
        <ele>270</ele>
        <time>2016-12-10T14:42:57Z</time>
      </trkpt>
      <trkpt lat="45.95071" lon="4.86328">
        <ele>270</ele>
        <time>2016-12-10T14:42:58Z</time>
      </trkpt>
      <trkpt lat="45.95068" lon="4.86323">
        <ele>270</ele>
        <time>2016-12-10T14:42:59Z</time>
      </trkpt>
      <trkpt lat="45.95064" lon="4.86318">
        <ele>270</ele>
        <time>2016-12-10T14:43:00Z</time>
      </trkpt>
      <trkpt lat="45.9506" lon="4.86314">
        <ele>271</ele>
        <time>2016-12-10T14:43:01Z</time>
      </trkpt>
      <trkpt lat="45.95056" lon="4.86309">
        <ele>271</ele>
        <time>2016-12-10T14:43:02Z</time>
      </trkpt>
      <trkpt lat="45.95053" lon="4.86304">
        <ele>271</ele>
        <time>2016-12-10T14:43:03Z</time>
      </trkpt>
      <trkpt lat="45.95049" lon="4.863">
        <ele>271</ele>
        <time>2016-12-10T14:43:04Z</time>
      </trkpt>
      <trkpt lat="45.95046" lon="4.86296">
        <ele>271</ele>
        <time>2016-12-10T14:43:05Z</time>
      </trkpt>
      <trkpt lat="45.95042" lon="4.86291">
        <ele>271</ele>
        <time>2016-12-10T14:43:06Z</time>
      </trkpt>
      <trkpt lat="45.95038" lon="4.86287">
        <ele>271</ele>
        <time>2016-12-10T14:43:07Z</time>
      </trkpt>
      <trkpt lat="45.95032" lon="4.86278">
        <ele>271</ele>
        <time>2016-12-10T14:43:09Z</time>
      </trkpt>
      <trkpt lat="45.95028" lon="4.86274">
        <ele>271</ele>
        <time>2016-12-10T14:43:10Z</time>
      </trkpt>
      <trkpt lat="45.95021" lon="4.86266">
        <ele>271</ele>
        <time>2016-12-10T14:43:12Z</time>
      </trkpt>
      <trkpt lat="45.95017" lon="4.86262">
        <ele>271</ele>
        <time>2016-12-10T14:43:13Z</time>
      </trkpt>
      <trkpt lat="45.9501" lon="4.86256">
        <ele>272</ele>
        <time>2016-12-10T14:43:15Z</time>
      </trkpt>
      <trkpt lat="45.95007" lon="4.86253">
        <ele>272</ele>
        <time>2016-12-10T14:43:16Z</time>
      </trkpt>
      <trkpt lat="45.95002" lon="4.86244">
        <ele>272</ele>
        <time>2016-12-10T14:43:18Z</time>
      </trkpt>
      <trkpt lat="45.94999" lon="4.8624">
        <ele>272</ele>
        <time>2016-12-10T14:43:19Z</time>
      </trkpt>
      <trkpt lat="45.94992" lon="4.86232">
        <ele>272</ele>
        <time>2016-12-10T14:43:21Z</time>
      </trkpt>
      <trkpt lat="45.94989" lon="4.86228">
        <ele>272</ele>
        <time>2016-12-10T14:43:22Z</time>
      </trkpt>
      <trkpt lat="45.94982" lon="4.86222">
        <ele>272</ele>
        <time>2016-12-10T14:43:24Z</time>
      </trkpt>
      <trkpt lat="45.94979" lon="4.86218">
        <ele>272</ele>
        <time>2016-12-10T14:43:25Z</time>
      </trkpt>
      <trkpt lat="45.94973" lon="4.8621">
        <ele>272</ele>
        <time>2016-12-10T14:43:27Z</time>
      </trkpt>
      <trkpt lat="45.9497" lon="4.86205">
        <ele>272</ele>
        <time>2016-12-10T14:43:28Z</time>
      </trkpt>
      <trkpt lat="45.94966" lon="4.86201">
        <ele>272</ele>
        <time>2016-12-10T14:43:29Z</time>
      </trkpt>
      <trkpt lat="45.94962" lon="4.86196">
        <ele>272</ele>
        <time>2016-12-10T14:43:30Z</time>
      </trkpt>
      <trkpt lat="45.94959" lon="4.86192">
        <ele>272</ele>
        <time>2016-12-10T14:43:31Z</time>
      </trkpt>
      <trkpt lat="45.94955" lon="4.86188">
        <ele>273</ele>
        <time>2016-12-10T14:43:32Z</time>
      </trkpt>
      <trkpt lat="45.94948" lon="4.8618">
        <ele>273</ele>
        <time>2016-12-10T14:43:34Z</time>
      </trkpt>
      <trkpt lat="45.94945" lon="4.86176">
        <ele>273</ele>
        <time>2016-12-10T14:43:35Z</time>
      </trkpt>
      <trkpt lat="45.94939" lon="4.86167">
        <ele>273</ele>
        <time>2016-12-10T14:43:37Z</time>
      </trkpt>
      <trkpt lat="45.94937" lon="4.86163">
        <ele>273</ele>
        <time>2016-12-10T14:43:38Z</time>
      </trkpt>
      <trkpt lat="45.94931" lon="4.86154">
        <ele>273</ele>
        <time>2016-12-10T14:43:40Z</time>
      </trkpt>
      <trkpt lat="45.94928" lon="4.86149">
        <ele>273</ele>
        <time>2016-12-10T14:43:41Z</time>
      </trkpt>
      <trkpt lat="45.94922" lon="4.8614">
        <ele>273</ele>
        <time>2016-12-10T14:43:43Z</time>
      </trkpt>
      <trkpt lat="45.94919" lon="4.86135">
        <ele>273</ele>
        <time>2016-12-10T14:43:44Z</time>
      </trkpt>
      <trkpt lat="45.94914" lon="4.86125">
        <ele>274</ele>
        <time>2016-12-10T14:43:46Z</time>
      </trkpt>
      <trkpt lat="45.94911" lon="4.8612">
        <ele>274</ele>
        <time>2016-12-10T14:43:47Z</time>
      </trkpt>
      <trkpt lat="45.94906" lon="4.8611">
        <ele>274</ele>
        <time>2016-12-10T14:43:49Z</time>
      </trkpt>
      <trkpt lat="45.94903" lon="4.86105">
        <ele>274</ele>
        <time>2016-12-10T14:43:50Z</time>
      </trkpt>
      <trkpt lat="45.94899" lon="4.86095">
        <ele>274</ele>
        <time>2016-12-10T14:43:52Z</time>
      </trkpt>
      <trkpt lat="45.94898" lon="4.8609">
        <ele>274</ele>
        <time>2016-12-10T14:43:53Z</time>
      </trkpt>
      <trkpt lat="45.94895" lon="4.86079">
        <ele>274</ele>
        <time>2016-12-10T14:43:55Z</time>
      </trkpt>
      <trkpt lat="45.94894" lon="4.86074">
        <ele>274</ele>
        <time>2016-12-10T14:43:56Z</time>
      </trkpt>
      <trkpt lat="45.94891" lon="4.86063">
        <ele>274</ele>
        <time>2016-12-10T14:43:58Z</time>
      </trkpt>
      <trkpt lat="45.94889" lon="4.86058">
        <ele>274</ele>
        <time>2016-12-10T14:43:59Z</time>
      </trkpt>
      <trkpt lat="45.94886" lon="4.86047">
        <ele>274</ele>
        <time>2016-12-10T14:44:01Z</time>
      </trkpt>
      <trkpt lat="45.94884" lon="4.86042">
        <ele>274</ele>
        <time>2016-12-10T14:44:02Z</time>
      </trkpt>
      <trkpt lat="45.94881" lon="4.8603">
        <ele>274</ele>
        <time>2016-12-10T14:44:04Z</time>
      </trkpt>
      <trkpt lat="45.94879" lon="4.86024">
        <ele>274</ele>
        <time>2016-12-10T14:44:05Z</time>
      </trkpt>
      <trkpt lat="45.94876" lon="4.86013">
        <ele>274</ele>
        <time>2016-12-10T14:44:07Z</time>
      </trkpt>
      <trkpt lat="45.94875" lon="4.86007">
        <ele>274</ele>
        <time>2016-12-10T14:44:08Z</time>
      </trkpt>
      <trkpt lat="45.94872" lon="4.85995">
        <ele>275</ele>
        <time>2016-12-10T14:44:10Z</time>
      </trkpt>
      <trkpt lat="45.9487" lon="4.8599">
        <ele>275</ele>
        <time>2016-12-10T14:44:11Z</time>
      </trkpt>
      <trkpt lat="45.94867" lon="4.85978">
        <ele>275</ele>
        <time>2016-12-10T14:44:13Z</time>
      </trkpt>
      <trkpt lat="45.94866" lon="4.85973">
        <ele>275</ele>
        <time>2016-12-10T14:44:14Z</time>
      </trkpt>
      <trkpt lat="45.94863" lon="4.85962">
        <ele>275</ele>
        <time>2016-12-10T14:44:16Z</time>
      </trkpt>
      <trkpt lat="45.94861" lon="4.85956">
        <ele>275</ele>
        <time>2016-12-10T14:44:17Z</time>
      </trkpt>
      <trkpt lat="45.94859" lon="4.85946">
        <ele>275</ele>
        <time>2016-12-10T14:44:19Z</time>
      </trkpt>
      <trkpt lat="45.94857" lon="4.8594">
        <ele>275</ele>
        <time>2016-12-10T14:44:20Z</time>
      </trkpt>
      <trkpt lat="45.94854" lon="4.85929">
        <ele>275</ele>
        <time>2016-12-10T14:44:22Z</time>
      </trkpt>
      <trkpt lat="45.94852" lon="4.85923">
        <ele>275</ele>
        <time>2016-12-10T14:44:23Z</time>
      </trkpt>
      <trkpt lat="45.9485" lon="4.85912">
        <ele>275</ele>
        <time>2016-12-10T14:44:25Z</time>
      </trkpt>
      <trkpt lat="45.94848" lon="4.85906">
        <ele>276</ele>
        <time>2016-12-10T14:44:26Z</time>
      </trkpt>
      <trkpt lat="45.94845" lon="4.85895">
        <ele>276</ele>
        <time>2016-12-10T14:44:28Z</time>
      </trkpt>
      <trkpt lat="45.94844" lon="4.85889">
        <ele>276</ele>
        <time>2016-12-10T14:44:29Z</time>
      </trkpt>
      <trkpt lat="45.9484" lon="4.85878">
        <ele>276</ele>
        <time>2016-12-10T14:44:31Z</time>
      </trkpt>
      <trkpt lat="45.94839" lon="4.85872">
        <ele>276</ele>
        <time>2016-12-10T14:44:32Z</time>
      </trkpt>
      <trkpt lat="45.94836" lon="4.85861">
        <ele>276</ele>
        <time>2016-12-10T14:44:34Z</time>
      </trkpt>
      <trkpt lat="45.94834" lon="4.85855">
        <ele>276</ele>
        <time>2016-12-10T14:44:35Z</time>
      </trkpt>
      <trkpt lat="45.94832" lon="4.85849">
        <ele>277</ele>
        <time>2016-12-10T14:44:36Z</time>
      </trkpt>
      <trkpt lat="45.9483" lon="4.85843">
        <ele>277</ele>
        <time>2016-12-10T14:44:37Z</time>
      </trkpt>
      <trkpt lat="45.94829" lon="4.85837">
        <ele>277</ele>
        <time>2016-12-10T14:44:38Z</time>
      </trkpt>
      <trkpt lat="45.94827" lon="4.85831">
        <ele>277</ele>
        <time>2016-12-10T14:44:39Z</time>
      </trkpt>
      <trkpt lat="45.94825" lon="4.85825">
        <ele>277</ele>
        <time>2016-12-10T14:44:40Z</time>
      </trkpt>
      <trkpt lat="45.94823" lon="4.85819">
        <ele>278</ele>
        <time>2016-12-10T14:44:41Z</time>
      </trkpt>
      <trkpt lat="45.9482" lon="4.85807">
        <ele>278</ele>
        <time>2016-12-10T14:44:43Z</time>
      </trkpt>
      <trkpt lat="45.94819" lon="4.858">
        <ele>278</ele>
        <time>2016-12-10T14:44:44Z</time>
      </trkpt>
      <trkpt lat="45.94816" lon="4.85789">
        <ele>278</ele>
        <time>2016-12-10T14:44:46Z</time>
      </trkpt>
      <trkpt lat="45.94815" lon="4.85783">
        <ele>278</ele>
        <time>2016-12-10T14:44:47Z</time>
      </trkpt>
      <trkpt lat="45.94812" lon="4.85771">
        <ele>278</ele>
        <time>2016-12-10T14:44:49Z</time>
      </trkpt>
      <trkpt lat="45.94811" lon="4.85766">
        <ele>278</ele>
        <time>2016-12-10T14:44:50Z</time>
      </trkpt>
      <trkpt lat="45.94809" lon="4.85754">
        <ele>278</ele>
        <time>2016-12-10T14:44:52Z</time>
      </trkpt>
      <trkpt lat="45.94807" lon="4.85748">
        <ele>279</ele>
        <time>2016-12-10T14:44:53Z</time>
      </trkpt>
      <trkpt lat="45.94804" lon="4.85737">
        <ele>279</ele>
        <time>2016-12-10T14:44:55Z</time>
      </trkpt>
      <trkpt lat="45.94803" lon="4.85731">
        <ele>280</ele>
        <time>2016-12-10T14:44:56Z</time>
      </trkpt>
      <trkpt lat="45.94799" lon="4.85719">
        <ele>280</ele>
        <time>2016-12-10T14:44:58Z</time>
      </trkpt>
      <trkpt lat="45.94798" lon="4.85713">
        <ele>280</ele>
        <time>2016-12-10T14:44:59Z</time>
      </trkpt>
      <trkpt lat="45.94795" lon="4.85701">
        <ele>280</ele>
        <time>2016-12-10T14:45:01Z</time>
      </trkpt>
      <trkpt lat="45.94793" lon="4.85695">
        <ele>280</ele>
        <time>2016-12-10T14:45:02Z</time>
      </trkpt>
      <trkpt lat="45.94791" lon="4.85689">
        <ele>280</ele>
        <time>2016-12-10T14:45:03Z</time>
      </trkpt>
      <trkpt lat="45.9479" lon="4.85683">
        <ele>280</ele>
        <time>2016-12-10T14:45:04Z</time>
      </trkpt>
      <trkpt lat="45.94788" lon="4.85677">
        <ele>280</ele>
        <time>2016-12-10T14:45:05Z</time>
      </trkpt>
      <trkpt lat="45.94787" lon="4.85671">
        <ele>280</ele>
        <time>2016-12-10T14:45:06Z</time>
      </trkpt>
      <trkpt lat="45.94786" lon="4.85664">
        <ele>281</ele>
        <time>2016-12-10T14:45:07Z</time>
      </trkpt>
      <trkpt lat="45.94784" lon="4.85658">
        <ele>281</ele>
        <time>2016-12-10T14:45:08Z</time>
      </trkpt>
      <trkpt lat="45.94782" lon="4.85651">
        <ele>281</ele>
        <time>2016-12-10T14:45:09Z</time>
      </trkpt>
      <trkpt lat="45.94781" lon="4.85645">
        <ele>281</ele>
        <time>2016-12-10T14:45:10Z</time>
      </trkpt>
      <trkpt lat="45.9478" lon="4.85638">
        <ele>281</ele>
        <time>2016-12-10T14:45:11Z</time>
      </trkpt>
      <trkpt lat="45.94778" lon="4.85631">
        <ele>280</ele>
        <time>2016-12-10T14:45:12Z</time>
      </trkpt>
      <trkpt lat="45.94776" lon="4.85624">
        <ele>280</ele>
        <time>2016-12-10T14:45:13Z</time>
      </trkpt>
      <trkpt lat="45.94774" lon="4.85617">
        <ele>280</ele>
        <time>2016-12-10T14:45:14Z</time>
      </trkpt>
      <trkpt lat="45.94773" lon="4.85609">
        <ele>280</ele>
        <time>2016-12-10T14:45:15Z</time>
      </trkpt>
      <trkpt lat="45.94771" lon="4.85602">
        <ele>280</ele>
        <time>2016-12-10T14:45:16Z</time>
      </trkpt>
      <trkpt lat="45.9477" lon="4.85594">
        <ele>280</ele>
        <time>2016-12-10T14:45:17Z</time>
      </trkpt>
      <trkpt lat="45.94768" lon="4.85586">
        <ele>280</ele>
        <time>2016-12-10T14:45:18Z</time>
      </trkpt>
      <trkpt lat="45.94767" lon="4.85578">
        <ele>279</ele>
        <time>2016-12-10T14:45:19Z</time>
      </trkpt>
      <trkpt lat="45.94765" lon="4.85569">
        <ele>279</ele>
        <time>2016-12-10T14:45:20Z</time>
      </trkpt>
      <trkpt lat="45.94763" lon="4.85559">
        <ele>278</ele>
        <time>2016-12-10T14:45:21Z</time>
      </trkpt>
      <trkpt lat="45.94761" lon="4.8555">
        <ele>278</ele>
        <time>2016-12-10T14:45:22Z</time>
      </trkpt>
      <trkpt lat="45.94759" lon="4.8554">
        <ele>278</ele>
        <time>2016-12-10T14:45:23Z</time>
      </trkpt>
      <trkpt lat="45.94757" lon="4.8553">
        <ele>278</ele>
        <time>2016-12-10T14:45:24Z</time>
      </trkpt>
      <trkpt lat="45.94755" lon="4.8552">
        <ele>277</ele>
        <time>2016-12-10T14:45:25Z</time>
      </trkpt>
      <trkpt lat="45.94754" lon="4.85509">
        <ele>277</ele>
        <time>2016-12-10T14:45:26Z</time>
      </trkpt>
      <trkpt lat="45.94752" lon="4.85499">
        <ele>276</ele>
        <time>2016-12-10T14:45:27Z</time>
      </trkpt>
      <trkpt lat="45.94751" lon="4.85488">
        <ele>276</ele>
        <time>2016-12-10T14:45:28Z</time>
      </trkpt>
      <trkpt lat="45.94749" lon="4.85476">
        <ele>275</ele>
        <time>2016-12-10T14:45:29Z</time>
      </trkpt>
      <trkpt lat="45.94748" lon="4.85465">
        <ele>274</ele>
        <time>2016-12-10T14:45:30Z</time>
      </trkpt>
      <trkpt lat="45.94746" lon="4.85454">
        <ele>274</ele>
        <time>2016-12-10T14:45:31Z</time>
      </trkpt>
      <trkpt lat="45.94746" lon="4.85442">
        <ele>274</ele>
        <time>2016-12-10T14:45:32Z</time>
      </trkpt>
      <trkpt lat="45.94744" lon="4.85431">
        <ele>273</ele>
        <time>2016-12-10T14:45:33Z</time>
      </trkpt>
      <trkpt lat="45.94743" lon="4.8542">
        <ele>273</ele>
        <time>2016-12-10T14:45:34Z</time>
      </trkpt>
      <trkpt lat="45.94742" lon="4.85409">
        <ele>272</ele>
        <time>2016-12-10T14:45:35Z</time>
      </trkpt>
      <trkpt lat="45.94741" lon="4.85398">
        <ele>272</ele>
        <time>2016-12-10T14:45:36Z</time>
      </trkpt>
      <trkpt lat="45.9474" lon="4.85387">
        <ele>272</ele>
        <time>2016-12-10T14:45:37Z</time>
      </trkpt>
      <trkpt lat="45.94739" lon="4.85377">
        <ele>271</ele>
        <time>2016-12-10T14:45:38Z</time>
      </trkpt>
      <trkpt lat="45.94737" lon="4.85366">
        <ele>271</ele>
        <time>2016-12-10T14:45:39Z</time>
      </trkpt>
      <trkpt lat="45.94736" lon="4.85356">
        <ele>271</ele>
        <time>2016-12-10T14:45:40Z</time>
      </trkpt>
      <trkpt lat="45.94735" lon="4.85346">
        <ele>271</ele>
        <time>2016-12-10T14:45:41Z</time>
      </trkpt>
      <trkpt lat="45.94734" lon="4.85337">
        <ele>271</ele>
        <time>2016-12-10T14:45:42Z</time>
      </trkpt>
      <trkpt lat="45.94733" lon="4.85327">
        <ele>270</ele>
        <time>2016-12-10T14:45:43Z</time>
      </trkpt>
      <trkpt lat="45.94732" lon="4.85318">
        <ele>270</ele>
        <time>2016-12-10T14:45:44Z</time>
      </trkpt>
      <trkpt lat="45.94731" lon="4.85309">
        <ele>270</ele>
        <time>2016-12-10T14:45:45Z</time>
      </trkpt>
      <trkpt lat="45.9473" lon="4.853">
        <ele>270</ele>
        <time>2016-12-10T14:45:46Z</time>
      </trkpt>
      <trkpt lat="45.94729" lon="4.85291">
        <ele>269</ele>
        <time>2016-12-10T14:45:47Z</time>
      </trkpt>
      <trkpt lat="45.94728" lon="4.85282">
        <ele>269</ele>
        <time>2016-12-10T14:45:48Z</time>
      </trkpt>
      <trkpt lat="45.94726" lon="4.85273">
        <ele>269</ele>
        <time>2016-12-10T14:45:49Z</time>
      </trkpt>
      <trkpt lat="45.94725" lon="4.85264">
        <ele>269</ele>
        <time>2016-12-10T14:45:50Z</time>
      </trkpt>
      <trkpt lat="45.94724" lon="4.85254">
        <ele>269</ele>
        <time>2016-12-10T14:45:51Z</time>
      </trkpt>
      <trkpt lat="45.94723" lon="4.85244">
        <ele>269</ele>
        <time>2016-12-10T14:45:52Z</time>
      </trkpt>
      <trkpt lat="45.94722" lon="4.85235">
        <ele>269</ele>
        <time>2016-12-10T14:45:53Z</time>
      </trkpt>
      <trkpt lat="45.94721" lon="4.85225">
        <ele>269</ele>
        <time>2016-12-10T14:45:54Z</time>
      </trkpt>
      <trkpt lat="45.9472" lon="4.85215">
        <ele>269</ele>
        <time>2016-12-10T14:45:55Z</time>
      </trkpt>
      <trkpt lat="45.94719" lon="4.85206">
        <ele>269</ele>
        <time>2016-12-10T14:45:56Z</time>
      </trkpt>
      <trkpt lat="45.94718" lon="4.85197">
        <ele>269</ele>
        <time>2016-12-10T14:45:57Z</time>
      </trkpt>
      <trkpt lat="45.94717" lon="4.85188">
        <ele>269</ele>
        <time>2016-12-10T14:45:58Z</time>
      </trkpt>
      <trkpt lat="45.94716" lon="4.85179">
        <ele>269</ele>
        <time>2016-12-10T14:45:59Z</time>
      </trkpt>
      <trkpt lat="45.94715" lon="4.85171">
        <ele>269</ele>
        <time>2016-12-10T14:46:00Z</time>
      </trkpt>
      <trkpt lat="45.94714" lon="4.85162">
        <ele>269</ele>
        <time>2016-12-10T14:46:01Z</time>
      </trkpt>
      <trkpt lat="45.94713" lon="4.85153">
        <ele>269</ele>
        <time>2016-12-10T14:46:02Z</time>
      </trkpt>
      <trkpt lat="45.94712" lon="4.85145">
        <ele>269</ele>
        <time>2016-12-10T14:46:03Z</time>
      </trkpt>
      <trkpt lat="45.94711" lon="4.85136">
        <ele>269</ele>
        <time>2016-12-10T14:46:04Z</time>
      </trkpt>
      <trkpt lat="45.9471" lon="4.85128">
        <ele>269</ele>
        <time>2016-12-10T14:46:05Z</time>
      </trkpt>
      <trkpt lat="45.94709" lon="4.85119">
        <ele>269</ele>
        <time>2016-12-10T14:46:06Z</time>
      </trkpt>
      <trkpt lat="45.94708" lon="4.85111">
        <ele>269</ele>
        <time>2016-12-10T14:46:07Z</time>
      </trkpt>
      <trkpt lat="45.94708" lon="4.85103">
        <ele>269</ele>
        <time>2016-12-10T14:46:08Z</time>
      </trkpt>
      <trkpt lat="45.94707" lon="4.85095">
        <ele>269</ele>
        <time>2016-12-10T14:46:09Z</time>
      </trkpt>
      <trkpt lat="45.94706" lon="4.85087">
        <ele>269</ele>
        <time>2016-12-10T14:46:10Z</time>
      </trkpt>
      <trkpt lat="45.94705" lon="4.85079">
        <ele>269</ele>
        <time>2016-12-10T14:46:11Z</time>
      </trkpt>
      <trkpt lat="45.94704" lon="4.85071">
        <ele>269</ele>
        <time>2016-12-10T14:46:12Z</time>
      </trkpt>
      <trkpt lat="45.94703" lon="4.85063">
        <ele>269</ele>
        <time>2016-12-10T14:46:13Z</time>
      </trkpt>
      <trkpt lat="45.94703" lon="4.85054">
        <ele>269</ele>
        <time>2016-12-10T14:46:14Z</time>
      </trkpt>
      <trkpt lat="45.94702" lon="4.85046">
        <ele>269</ele>
        <time>2016-12-10T14:46:15Z</time>
      </trkpt>
      <trkpt lat="45.94701" lon="4.85038">
        <ele>269</ele>
        <time>2016-12-10T14:46:16Z</time>
      </trkpt>
      <trkpt lat="45.947" lon="4.8503">
        <ele>269</ele>
        <time>2016-12-10T14:46:17Z</time>
      </trkpt>
      <trkpt lat="45.94699" lon="4.85021">
        <ele>269</ele>
        <time>2016-12-10T14:46:18Z</time>
      </trkpt>
      <trkpt lat="45.94698" lon="4.85013">
        <ele>269</ele>
        <time>2016-12-10T14:46:19Z</time>
      </trkpt>
      <trkpt lat="45.94697" lon="4.85006">
        <ele>269</ele>
        <time>2016-12-10T14:46:20Z</time>
      </trkpt>
      <trkpt lat="45.94696" lon="4.84997">
        <ele>269</ele>
        <time>2016-12-10T14:46:21Z</time>
      </trkpt>
      <trkpt lat="45.94695" lon="4.84989">
        <ele>269</ele>
        <time>2016-12-10T14:46:22Z</time>
      </trkpt>
      <trkpt lat="45.94695" lon="4.84982">
        <ele>269</ele>
        <time>2016-12-10T14:46:23Z</time>
      </trkpt>
      <trkpt lat="45.94695" lon="4.84973">
        <ele>269</ele>
        <time>2016-12-10T14:46:24Z</time>
      </trkpt>
      <trkpt lat="45.94694" lon="4.84965">
        <ele>269</ele>
        <time>2016-12-10T14:46:25Z</time>
      </trkpt>
      <trkpt lat="45.94694" lon="4.84956">
        <ele>269</ele>
        <time>2016-12-10T14:46:26Z</time>
      </trkpt>
      <trkpt lat="45.94692" lon="4.84947">
        <ele>269</ele>
        <time>2016-12-10T14:46:27Z</time>
      </trkpt>
      <trkpt lat="45.94691" lon="4.84939">
        <ele>269</ele>
        <time>2016-12-10T14:46:28Z</time>
      </trkpt>
      <trkpt lat="45.9469" lon="4.8493">
        <ele>269</ele>
        <time>2016-12-10T14:46:29Z</time>
      </trkpt>
      <trkpt lat="45.94689" lon="4.84921">
        <ele>269</ele>
        <time>2016-12-10T14:46:30Z</time>
      </trkpt>
      <trkpt lat="45.94688" lon="4.84913">
        <ele>269</ele>
        <time>2016-12-10T14:46:31Z</time>
      </trkpt>
      <trkpt lat="45.94687" lon="4.84905">
        <ele>269</ele>
        <time>2016-12-10T14:46:32Z</time>
      </trkpt>
      <trkpt lat="45.94686" lon="4.84898">
        <ele>268</ele>
        <time>2016-12-10T14:46:33Z</time>
      </trkpt>
      <trkpt lat="45.94685" lon="4.8489">
        <ele>268</ele>
        <time>2016-12-10T14:46:34Z</time>
      </trkpt>
      <trkpt lat="45.94684" lon="4.84882">
        <ele>268</ele>
        <time>2016-12-10T14:46:35Z</time>
      </trkpt>
      <trkpt lat="45.94684" lon="4.84875">
        <ele>268</ele>
        <time>2016-12-10T14:46:36Z</time>
      </trkpt>
      <trkpt lat="45.94683" lon="4.84867">
        <ele>268</ele>
        <time>2016-12-10T14:46:37Z</time>
      </trkpt>
      <trkpt lat="45.94682" lon="4.84859">
        <ele>268</ele>
        <time>2016-12-10T14:46:38Z</time>
      </trkpt>
      <trkpt lat="45.94681" lon="4.84851">
        <ele>268</ele>
        <time>2016-12-10T14:46:39Z</time>
      </trkpt>
      <trkpt lat="45.94681" lon="4.84844">
        <ele>268</ele>
        <time>2016-12-10T14:46:40Z</time>
      </trkpt>
      <trkpt lat="45.9468" lon="4.84836">
        <ele>268</ele>
        <time>2016-12-10T14:46:41Z</time>
      </trkpt>
      <trkpt lat="45.9468" lon="4.84828">
        <ele>268</ele>
        <time>2016-12-10T14:46:42Z</time>
      </trkpt>
      <trkpt lat="45.94679" lon="4.84821">
        <ele>268</ele>
        <time>2016-12-10T14:46:43Z</time>
      </trkpt>
      <trkpt lat="45.94678" lon="4.84813">
        <ele>268</ele>
        <time>2016-12-10T14:46:44Z</time>
      </trkpt>
      <trkpt lat="45.94677" lon="4.84805">
        <ele>268</ele>
        <time>2016-12-10T14:46:45Z</time>
      </trkpt>
      <trkpt lat="45.94677" lon="4.84797">
        <ele>268</ele>
        <time>2016-12-10T14:46:46Z</time>
      </trkpt>
      <trkpt lat="45.94676" lon="4.84789">
        <ele>269</ele>
        <time>2016-12-10T14:46:47Z</time>
      </trkpt>
      <trkpt lat="45.94676" lon="4.84782">
        <ele>269</ele>
        <time>2016-12-10T14:46:48Z</time>
      </trkpt>
      <trkpt lat="45.94675" lon="4.84774">
        <ele>269</ele>
        <time>2016-12-10T14:46:49Z</time>
      </trkpt>
      <trkpt lat="45.94674" lon="4.84767">
        <ele>269</ele>
        <time>2016-12-10T14:46:50Z</time>
      </trkpt>
      <trkpt lat="45.94674" lon="4.84759">
        <ele>269</ele>
        <time>2016-12-10T14:46:51Z</time>
      </trkpt>
      <trkpt lat="45.94673" lon="4.84751">
        <ele>269</ele>
        <time>2016-12-10T14:46:52Z</time>
      </trkpt>
      <trkpt lat="45.94673" lon="4.84744">
        <ele>269</ele>
        <time>2016-12-10T14:46:53Z</time>
      </trkpt>
      <trkpt lat="45.94673" lon="4.84736">
        <ele>269</ele>
        <time>2016-12-10T14:46:54Z</time>
      </trkpt>
      <trkpt lat="45.94672" lon="4.84728">
        <ele>269</ele>
        <time>2016-12-10T14:46:55Z</time>
      </trkpt>
      <trkpt lat="45.94672" lon="4.8472">
        <ele>269</ele>
        <time>2016-12-10T14:46:56Z</time>
      </trkpt>
      <trkpt lat="45.94671" lon="4.84712">
        <ele>269</ele>
        <time>2016-12-10T14:46:57Z</time>
      </trkpt>
      <trkpt lat="45.94671" lon="4.84704">
        <ele>269</ele>
        <time>2016-12-10T14:46:58Z</time>
      </trkpt>
      <trkpt lat="45.9467" lon="4.84696">
        <ele>269</ele>
        <time>2016-12-10T14:46:59Z</time>
      </trkpt>
      <trkpt lat="45.9467" lon="4.84687">
        <ele>269</ele>
        <time>2016-12-10T14:47:00Z</time>
      </trkpt>
      <trkpt lat="45.9467" lon="4.84679">
        <ele>269</ele>
        <time>2016-12-10T14:47:01Z</time>
      </trkpt>
      <trkpt lat="45.94669" lon="4.84671">
        <ele>269</ele>
        <time>2016-12-10T14:47:02Z</time>
      </trkpt>
      <trkpt lat="45.94669" lon="4.84663">
        <ele>269</ele>
        <time>2016-12-10T14:47:03Z</time>
      </trkpt>
      <trkpt lat="45.94668" lon="4.84655">
        <ele>268</ele>
        <time>2016-12-10T14:47:04Z</time>
      </trkpt>
      <trkpt lat="45.94667" lon="4.84647">
        <ele>268</ele>
        <time>2016-12-10T14:47:05Z</time>
      </trkpt>
      <trkpt lat="45.94667" lon="4.84639">
        <ele>268</ele>
        <time>2016-12-10T14:47:06Z</time>
      </trkpt>
      <trkpt lat="45.94666" lon="4.84631">
        <ele>268</ele>
        <time>2016-12-10T14:47:07Z</time>
      </trkpt>
      <trkpt lat="45.94666" lon="4.84623">
        <ele>268</ele>
        <time>2016-12-10T14:47:08Z</time>
      </trkpt>
      <trkpt lat="45.94666" lon="4.84616">
        <ele>268</ele>
        <time>2016-12-10T14:47:09Z</time>
      </trkpt>
      <trkpt lat="45.94666" lon="4.84608">
        <ele>268</ele>
        <time>2016-12-10T14:47:10Z</time>
      </trkpt>
      <trkpt lat="45.94666" lon="4.846">
        <ele>268</ele>
        <time>2016-12-10T14:47:11Z</time>
      </trkpt>
      <trkpt lat="45.94666" lon="4.84592">
        <ele>268</ele>
        <time>2016-12-10T14:47:12Z</time>
      </trkpt>
      <trkpt lat="45.94666" lon="4.84585">
        <ele>268</ele>
        <time>2016-12-10T14:47:13Z</time>
      </trkpt>
      <trkpt lat="45.94666" lon="4.84578">
        <ele>268</ele>
        <time>2016-12-10T14:47:14Z</time>
      </trkpt>
      <trkpt lat="45.94666" lon="4.8457">
        <ele>268</ele>
        <time>2016-12-10T14:47:15Z</time>
      </trkpt>
      <trkpt lat="45.94666" lon="4.84563">
        <ele>268</ele>
        <time>2016-12-10T14:47:16Z</time>
      </trkpt>
      <trkpt lat="45.94665" lon="4.84555">
        <ele>268</ele>
        <time>2016-12-10T14:47:17Z</time>
      </trkpt>
      <trkpt lat="45.94665" lon="4.84547">
        <ele>268</ele>
        <time>2016-12-10T14:47:18Z</time>
      </trkpt>
      <trkpt lat="45.94664" lon="4.8454">
        <ele>268</ele>
        <time>2016-12-10T14:47:19Z</time>
      </trkpt>
      <trkpt lat="45.94663" lon="4.84531">
        <ele>268</ele>
        <time>2016-12-10T14:47:20Z</time>
      </trkpt>
      <trkpt lat="45.94663" lon="4.84523">
        <ele>268</ele>
        <time>2016-12-10T14:47:21Z</time>
      </trkpt>
      <trkpt lat="45.94662" lon="4.84514">
        <ele>268</ele>
        <time>2016-12-10T14:47:22Z</time>
      </trkpt>
      <trkpt lat="45.94661" lon="4.84506">
        <ele>268</ele>
        <time>2016-12-10T14:47:23Z</time>
      </trkpt>
      <trkpt lat="45.94661" lon="4.84498">
        <ele>268</ele>
        <time>2016-12-10T14:47:24Z</time>
      </trkpt>
      <trkpt lat="45.9466" lon="4.8449">
        <ele>268</ele>
        <time>2016-12-10T14:47:25Z</time>
      </trkpt>
      <trkpt lat="45.94659" lon="4.84481">
        <ele>268</ele>
        <time>2016-12-10T14:47:26Z</time>
      </trkpt>
      <trkpt lat="45.94658" lon="4.84473">
        <ele>268</ele>
        <time>2016-12-10T14:47:27Z</time>
      </trkpt>
      <trkpt lat="45.94658" lon="4.84465">
        <ele>268</ele>
        <time>2016-12-10T14:47:28Z</time>
      </trkpt>
      <trkpt lat="45.94657" lon="4.84458">
        <ele>268</ele>
        <time>2016-12-10T14:47:29Z</time>
      </trkpt>
      <trkpt lat="45.94656" lon="4.84451">
        <ele>268</ele>
        <time>2016-12-10T14:47:30Z</time>
      </trkpt>
      <trkpt lat="45.94655" lon="4.84443">
        <ele>268</ele>
        <time>2016-12-10T14:47:31Z</time>
      </trkpt>
      <trkpt lat="45.94654" lon="4.84436">
        <ele>268</ele>
        <time>2016-12-10T14:47:32Z</time>
      </trkpt>
      <trkpt lat="45.94653" lon="4.84429">
        <ele>268</ele>
        <time>2016-12-10T14:47:33Z</time>
      </trkpt>
      <trkpt lat="45.94653" lon="4.84422">
        <ele>268</ele>
        <time>2016-12-10T14:47:34Z</time>
      </trkpt>
      <trkpt lat="45.94652" lon="4.84414">
        <ele>268</ele>
        <time>2016-12-10T14:47:35Z</time>
      </trkpt>
      <trkpt lat="45.9465" lon="4.84407">
        <ele>268</ele>
        <time>2016-12-10T14:47:36Z</time>
      </trkpt>
      <trkpt lat="45.94649" lon="4.84399">
        <ele>268</ele>
        <time>2016-12-10T14:47:37Z</time>
      </trkpt>
      <trkpt lat="45.94648" lon="4.84392">
        <ele>268</ele>
        <time>2016-12-10T14:47:38Z</time>
      </trkpt>
      <trkpt lat="45.94647" lon="4.84385">
        <ele>268</ele>
        <time>2016-12-10T14:47:39Z</time>
      </trkpt>
      <trkpt lat="45.94646" lon="4.84377">
        <ele>268</ele>
        <time>2016-12-10T14:47:40Z</time>
      </trkpt>
      <trkpt lat="45.94645" lon="4.84369">
        <ele>268</ele>
        <time>2016-12-10T14:47:41Z</time>
      </trkpt>
      <trkpt lat="45.94644" lon="4.84361">
        <ele>268</ele>
        <time>2016-12-10T14:47:42Z</time>
      </trkpt>
      <trkpt lat="45.94642" lon="4.84353">
        <ele>268</ele>
        <time>2016-12-10T14:47:43Z</time>
      </trkpt>
      <trkpt lat="45.94641" lon="4.84345">
        <ele>268</ele>
        <time>2016-12-10T14:47:44Z</time>
      </trkpt>
      <trkpt lat="45.9464" lon="4.84337">
        <ele>268</ele>
        <time>2016-12-10T14:47:45Z</time>
      </trkpt>
      <trkpt lat="45.94639" lon="4.84329">
        <ele>269</ele>
        <time>2016-12-10T14:47:46Z</time>
      </trkpt>
      <trkpt lat="45.94638" lon="4.84321">
        <ele>269</ele>
        <time>2016-12-10T14:47:47Z</time>
      </trkpt>
      <trkpt lat="45.94637" lon="4.84312">
        <ele>269</ele>
        <time>2016-12-10T14:47:48Z</time>
      </trkpt>
      <trkpt lat="45.94636" lon="4.84304">
        <ele>269</ele>
        <time>2016-12-10T14:47:49Z</time>
      </trkpt>
      <trkpt lat="45.94635" lon="4.84295">
        <ele>269</ele>
        <time>2016-12-10T14:47:50Z</time>
      </trkpt>
      <trkpt lat="45.94634" lon="4.84287">
        <ele>269</ele>
        <time>2016-12-10T14:47:51Z</time>
      </trkpt>
      <trkpt lat="45.94632" lon="4.84278">
        <ele>269</ele>
        <time>2016-12-10T14:47:52Z</time>
      </trkpt>
      <trkpt lat="45.94631" lon="4.84269">
        <ele>269</ele>
        <time>2016-12-10T14:47:53Z</time>
      </trkpt>
      <trkpt lat="45.9463" lon="4.8426">
        <ele>269</ele>
        <time>2016-12-10T14:47:54Z</time>
      </trkpt>
      <trkpt lat="45.94629" lon="4.84252">
        <ele>269</ele>
        <time>2016-12-10T14:47:55Z</time>
      </trkpt>
      <trkpt lat="45.94628" lon="4.84244">
        <ele>269</ele>
        <time>2016-12-10T14:47:56Z</time>
      </trkpt>
      <trkpt lat="45.94628" lon="4.84235">
        <ele>269</ele>
        <time>2016-12-10T14:47:57Z</time>
      </trkpt>
      <trkpt lat="45.94626" lon="4.84227">
        <ele>269</ele>
        <time>2016-12-10T14:47:58Z</time>
      </trkpt>
      <trkpt lat="45.94625" lon="4.84219">
        <ele>269</ele>
        <time>2016-12-10T14:47:59Z</time>
      </trkpt>
      <trkpt lat="45.94624" lon="4.84211">
        <ele>269</ele>
        <time>2016-12-10T14:48:00Z</time>
      </trkpt>
      <trkpt lat="45.94622" lon="4.84203">
        <ele>269</ele>
        <time>2016-12-10T14:48:01Z</time>
      </trkpt>
      <trkpt lat="45.94621" lon="4.84196">
        <ele>269</ele>
        <time>2016-12-10T14:48:02Z</time>
      </trkpt>
      <trkpt lat="45.9462" lon="4.84189">
        <ele>269</ele>
        <time>2016-12-10T14:48:03Z</time>
      </trkpt>
      <trkpt lat="45.94619" lon="4.84182">
        <ele>269</ele>
        <time>2016-12-10T14:48:04Z</time>
      </trkpt>
      <trkpt lat="45.94618" lon="4.84175">
        <ele>269</ele>
        <time>2016-12-10T14:48:05Z</time>
      </trkpt>
      <trkpt lat="45.94617" lon="4.84167">
        <ele>269</ele>
        <time>2016-12-10T14:48:06Z</time>
      </trkpt>
      <trkpt lat="45.94616" lon="4.84158">
        <ele>269</ele>
        <time>2016-12-10T14:48:07Z</time>
      </trkpt>
      <trkpt lat="45.94615" lon="4.8415">
        <ele>269</ele>
        <time>2016-12-10T14:48:08Z</time>
      </trkpt>
      <trkpt lat="45.94614" lon="4.84141">
        <ele>269</ele>
        <time>2016-12-10T14:48:09Z</time>
      </trkpt>
      <trkpt lat="45.94613" lon="4.84132">
        <ele>269</ele>
        <time>2016-12-10T14:48:10Z</time>
      </trkpt>
      <trkpt lat="45.94611" lon="4.84123">
        <ele>269</ele>
        <time>2016-12-10T14:48:11Z</time>
      </trkpt>
      <trkpt lat="45.9461" lon="4.84115">
        <ele>269</ele>
        <time>2016-12-10T14:48:12Z</time>
      </trkpt>
      <trkpt lat="45.94608" lon="4.84106">
        <ele>269</ele>
        <time>2016-12-10T14:48:13Z</time>
      </trkpt>
      <trkpt lat="45.94607" lon="4.84098">
        <ele>269</ele>
        <time>2016-12-10T14:48:14Z</time>
      </trkpt>
      <trkpt lat="45.94606" lon="4.84089">
        <ele>269</ele>
        <time>2016-12-10T14:48:15Z</time>
      </trkpt>
      <trkpt lat="45.94605" lon="4.84081">
        <ele>269</ele>
        <time>2016-12-10T14:48:16Z</time>
      </trkpt>
      <trkpt lat="45.94604" lon="4.84073">
        <ele>269</ele>
        <time>2016-12-10T14:48:17Z</time>
      </trkpt>
      <trkpt lat="45.94603" lon="4.84065">
        <ele>269</ele>
        <time>2016-12-10T14:48:18Z</time>
      </trkpt>
      <trkpt lat="45.94602" lon="4.84057">
        <ele>269</ele>
        <time>2016-12-10T14:48:19Z</time>
      </trkpt>
      <trkpt lat="45.946" lon="4.8405">
        <ele>269</ele>
        <time>2016-12-10T14:48:20Z</time>
      </trkpt>
      <trkpt lat="45.94599" lon="4.84042">
        <ele>269</ele>
        <time>2016-12-10T14:48:21Z</time>
      </trkpt>
      <trkpt lat="45.94598" lon="4.84034">
        <ele>269</ele>
        <time>2016-12-10T14:48:22Z</time>
      </trkpt>
      <trkpt lat="45.94597" lon="4.84026">
        <ele>269</ele>
        <time>2016-12-10T14:48:23Z</time>
      </trkpt>
      <trkpt lat="45.94596" lon="4.84019">
        <ele>269</ele>
        <time>2016-12-10T14:48:24Z</time>
      </trkpt>
      <trkpt lat="45.94594" lon="4.84011">
        <ele>269</ele>
        <time>2016-12-10T14:48:25Z</time>
      </trkpt>
      <trkpt lat="45.94594" lon="4.84003">
        <ele>269</ele>
        <time>2016-12-10T14:48:26Z</time>
      </trkpt>
      <trkpt lat="45.94592" lon="4.83995">
        <ele>269</ele>
        <time>2016-12-10T14:48:27Z</time>
      </trkpt>
      <trkpt lat="45.94591" lon="4.83987">
        <ele>269</ele>
        <time>2016-12-10T14:48:28Z</time>
      </trkpt>
      <trkpt lat="45.9459" lon="4.83979">
        <ele>268</ele>
        <time>2016-12-10T14:48:29Z</time>
      </trkpt>
      <trkpt lat="45.94589" lon="4.83971">
        <ele>268</ele>
        <time>2016-12-10T14:48:30Z</time>
      </trkpt>
      <trkpt lat="45.94587" lon="4.83963">
        <ele>268</ele>
        <time>2016-12-10T14:48:31Z</time>
      </trkpt>
      <trkpt lat="45.94586" lon="4.83954">
        <ele>268</ele>
        <time>2016-12-10T14:48:32Z</time>
      </trkpt>
      <trkpt lat="45.94584" lon="4.83945">
        <ele>268</ele>
        <time>2016-12-10T14:48:33Z</time>
      </trkpt>
      <trkpt lat="45.94583" lon="4.83936">
        <ele>269</ele>
        <time>2016-12-10T14:48:34Z</time>
      </trkpt>
      <trkpt lat="45.94581" lon="4.83927">
        <ele>268</ele>
        <time>2016-12-10T14:48:35Z</time>
      </trkpt>
      <trkpt lat="45.9458" lon="4.83918">
        <ele>268</ele>
        <time>2016-12-10T14:48:36Z</time>
      </trkpt>
      <trkpt lat="45.94579" lon="4.83908">
        <ele>268</ele>
        <time>2016-12-10T14:48:37Z</time>
      </trkpt>
      <trkpt lat="45.94578" lon="4.83898">
        <ele>268</ele>
        <time>2016-12-10T14:48:38Z</time>
      </trkpt>
      <trkpt lat="45.94576" lon="4.83888">
        <ele>267</ele>
        <time>2016-12-10T14:48:39Z</time>
      </trkpt>
      <trkpt lat="45.94574" lon="4.83878">
        <ele>267</ele>
        <time>2016-12-10T14:48:40Z</time>
      </trkpt>
      <trkpt lat="45.94572" lon="4.83867">
        <ele>267</ele>
        <time>2016-12-10T14:48:41Z</time>
      </trkpt>
      <trkpt lat="45.94571" lon="4.83856">
        <ele>266</ele>
        <time>2016-12-10T14:48:42Z</time>
      </trkpt>
      <trkpt lat="45.94569" lon="4.83845">
        <ele>266</ele>
        <time>2016-12-10T14:48:43Z</time>
      </trkpt>
      <trkpt lat="45.94567" lon="4.83833">
        <ele>265</ele>
        <time>2016-12-10T14:48:44Z</time>
      </trkpt>
      <trkpt lat="45.94565" lon="4.83822">
        <ele>264</ele>
        <time>2016-12-10T14:48:45Z</time>
      </trkpt>
      <trkpt lat="45.94564" lon="4.8381">
        <ele>264</ele>
        <time>2016-12-10T14:48:46Z</time>
      </trkpt>
      <trkpt lat="45.94562" lon="4.83799">
        <ele>264</ele>
        <time>2016-12-10T14:48:47Z</time>
      </trkpt>
      <trkpt lat="45.94561" lon="4.83787">
        <ele>264</ele>
        <time>2016-12-10T14:48:48Z</time>
      </trkpt>
      <trkpt lat="45.94559" lon="4.83777">
        <ele>264</ele>
        <time>2016-12-10T14:48:49Z</time>
      </trkpt>
      <trkpt lat="45.94557" lon="4.83766">
        <ele>263</ele>
        <time>2016-12-10T14:48:50Z</time>
      </trkpt>
      <trkpt lat="45.94556" lon="4.83756">
        <ele>263</ele>
        <time>2016-12-10T14:48:51Z</time>
      </trkpt>
      <trkpt lat="45.94554" lon="4.83746">
        <ele>262</ele>
        <time>2016-12-10T14:48:52Z</time>
      </trkpt>
      <trkpt lat="45.94553" lon="4.83736">
        <ele>262</ele>
        <time>2016-12-10T14:48:53Z</time>
      </trkpt>
      <trkpt lat="45.94551" lon="4.83726">
        <ele>262</ele>
        <time>2016-12-10T14:48:54Z</time>
      </trkpt>
      <trkpt lat="45.94549" lon="4.83716">
        <ele>262</ele>
        <time>2016-12-10T14:48:55Z</time>
      </trkpt>
      <trkpt lat="45.94548" lon="4.83707">
        <ele>262</ele>
        <time>2016-12-10T14:48:56Z</time>
      </trkpt>
      <trkpt lat="45.94547" lon="4.83698">
        <ele>262</ele>
        <time>2016-12-10T14:48:57Z</time>
      </trkpt>
      <trkpt lat="45.94545" lon="4.83689">
        <ele>262</ele>
        <time>2016-12-10T14:48:58Z</time>
      </trkpt>
      <trkpt lat="45.94544" lon="4.8368">
        <ele>262</ele>
        <time>2016-12-10T14:48:59Z</time>
      </trkpt>
      <trkpt lat="45.94542" lon="4.83671">
        <ele>262</ele>
        <time>2016-12-10T14:49:00Z</time>
      </trkpt>
      <trkpt lat="45.94541" lon="4.83662">
        <ele>261</ele>
        <time>2016-12-10T14:49:01Z</time>
      </trkpt>
      <trkpt lat="45.94539" lon="4.83654">
        <ele>261</ele>
        <time>2016-12-10T14:49:02Z</time>
      </trkpt>
      <trkpt lat="45.94538" lon="4.83646">
        <ele>261</ele>
        <time>2016-12-10T14:49:03Z</time>
      </trkpt>
      <trkpt lat="45.94536" lon="4.83637">
        <ele>261</ele>
        <time>2016-12-10T14:49:04Z</time>
      </trkpt>
      <trkpt lat="45.94534" lon="4.83628">
        <ele>261</ele>
        <time>2016-12-10T14:49:05Z</time>
      </trkpt>
      <trkpt lat="45.94533" lon="4.83619">
        <ele>261</ele>
        <time>2016-12-10T14:49:06Z</time>
      </trkpt>
      <trkpt lat="45.94531" lon="4.8361">
        <ele>261</ele>
        <time>2016-12-10T14:49:07Z</time>
      </trkpt>
      <trkpt lat="45.94529" lon="4.836">
        <ele>261</ele>
        <time>2016-12-10T14:49:08Z</time>
      </trkpt>
      <trkpt lat="45.94527" lon="4.83591">
        <ele>261</ele>
        <time>2016-12-10T14:49:09Z</time>
      </trkpt>
      <trkpt lat="45.94525" lon="4.83582">
        <ele>261</ele>
        <time>2016-12-10T14:49:10Z</time>
      </trkpt>
      <trkpt lat="45.94522" lon="4.83573">
        <ele>261</ele>
        <time>2016-12-10T14:49:11Z</time>
      </trkpt>
      <trkpt lat="45.94519" lon="4.83565">
        <ele>261</ele>
        <time>2016-12-10T14:49:12Z</time>
      </trkpt>
      <trkpt lat="45.94515" lon="4.83556">
        <ele>261</ele>
        <time>2016-12-10T14:49:13Z</time>
      </trkpt>
      <trkpt lat="45.94511" lon="4.83548">
        <ele>261</ele>
        <time>2016-12-10T14:49:14Z</time>
      </trkpt>
      <trkpt lat="45.94507" lon="4.83541">
        <ele>262</ele>
        <time>2016-12-10T14:49:15Z</time>
      </trkpt>
      <trkpt lat="45.94502" lon="4.83534">
        <ele>262</ele>
        <time>2016-12-10T14:49:16Z</time>
      </trkpt>
      <trkpt lat="45.94498" lon="4.83527">
        <ele>262</ele>
        <time>2016-12-10T14:49:17Z</time>
      </trkpt>
      <trkpt lat="45.94494" lon="4.83521">
        <ele>262</ele>
        <time>2016-12-10T14:49:18Z</time>
      </trkpt>
      <trkpt lat="45.9449" lon="4.83514">
        <ele>262</ele>
        <time>2016-12-10T14:49:19Z</time>
      </trkpt>
      <trkpt lat="45.94487" lon="4.83508">
        <ele>262</ele>
        <time>2016-12-10T14:49:20Z</time>
      </trkpt>
      <trkpt lat="45.94483" lon="4.83501">
        <ele>262</ele>
        <time>2016-12-10T14:49:21Z</time>
      </trkpt>
      <trkpt lat="45.94479" lon="4.83495">
        <ele>263</ele>
        <time>2016-12-10T14:49:22Z</time>
      </trkpt>
      <trkpt lat="45.94475" lon="4.83489">
        <ele>263</ele>
        <time>2016-12-10T14:49:23Z</time>
      </trkpt>
      <trkpt lat="45.94471" lon="4.83482">
        <ele>263</ele>
        <time>2016-12-10T14:49:24Z</time>
      </trkpt>
      <trkpt lat="45.94467" lon="4.83476">
        <ele>263</ele>
        <time>2016-12-10T14:49:25Z</time>
      </trkpt>
      <trkpt lat="45.94464" lon="4.8347">
        <ele>263</ele>
        <time>2016-12-10T14:49:26Z</time>
      </trkpt>
      <trkpt lat="45.9446" lon="4.83463">
        <ele>263</ele>
        <time>2016-12-10T14:49:27Z</time>
      </trkpt>
      <trkpt lat="45.94457" lon="4.83456">
        <ele>263</ele>
        <time>2016-12-10T14:49:28Z</time>
      </trkpt>
      <trkpt lat="45.94454" lon="4.83449">
        <ele>263</ele>
        <time>2016-12-10T14:49:29Z</time>
      </trkpt>
      <trkpt lat="45.94451" lon="4.83442">
        <ele>263</ele>
        <time>2016-12-10T14:49:30Z</time>
      </trkpt>
      <trkpt lat="45.94447" lon="4.83436">
        <ele>263</ele>
        <time>2016-12-10T14:49:31Z</time>
      </trkpt>
      <trkpt lat="45.94444" lon="4.83429">
        <ele>264</ele>
        <time>2016-12-10T14:49:32Z</time>
      </trkpt>
      <trkpt lat="45.9444" lon="4.83422">
        <ele>264</ele>
        <time>2016-12-10T14:49:33Z</time>
      </trkpt>
      <trkpt lat="45.94437" lon="4.83415">
        <ele>264</ele>
        <time>2016-12-10T14:49:34Z</time>
      </trkpt>
      <trkpt lat="45.94434" lon="4.83408">
        <ele>264</ele>
        <time>2016-12-10T14:49:35Z</time>
      </trkpt>
      <trkpt lat="45.9443" lon="4.83401">
        <ele>264</ele>
        <time>2016-12-10T14:49:36Z</time>
      </trkpt>
      <trkpt lat="45.94427" lon="4.83394">
        <ele>264</ele>
        <time>2016-12-10T14:49:37Z</time>
      </trkpt>
      <trkpt lat="45.94424" lon="4.83387">
        <ele>264</ele>
        <time>2016-12-10T14:49:38Z</time>
      </trkpt>
      <trkpt lat="45.9442" lon="4.8338">
        <ele>264</ele>
        <time>2016-12-10T14:49:39Z</time>
      </trkpt>
      <trkpt lat="45.94417" lon="4.83374">
        <ele>264</ele>
        <time>2016-12-10T14:49:40Z</time>
      </trkpt>
      <trkpt lat="45.94414" lon="4.83367">
        <ele>264</ele>
        <time>2016-12-10T14:49:41Z</time>
      </trkpt>
      <trkpt lat="45.94411" lon="4.83361">
        <ele>264</ele>
        <time>2016-12-10T14:49:42Z</time>
      </trkpt>
      <trkpt lat="45.94408" lon="4.83354">
        <ele>263</ele>
        <time>2016-12-10T14:49:43Z</time>
      </trkpt>
      <trkpt lat="45.94406" lon="4.83348">
        <ele>263</ele>
        <time>2016-12-10T14:49:44Z</time>
      </trkpt>
      <trkpt lat="45.94403" lon="4.83341">
        <ele>263</ele>
        <time>2016-12-10T14:49:45Z</time>
      </trkpt>
      <trkpt lat="45.944" lon="4.83334">
        <ele>263</ele>
        <time>2016-12-10T14:49:46Z</time>
      </trkpt>
      <trkpt lat="45.94398" lon="4.83327">
        <ele>264</ele>
        <time>2016-12-10T14:49:47Z</time>
      </trkpt>
      <trkpt lat="45.94395" lon="4.83321">
        <ele>264</ele>
        <time>2016-12-10T14:49:48Z</time>
      </trkpt>
      <trkpt lat="45.94392" lon="4.83314">
        <ele>264</ele>
        <time>2016-12-10T14:49:49Z</time>
      </trkpt>
      <trkpt lat="45.9439" lon="4.83307">
        <ele>264</ele>
        <time>2016-12-10T14:49:50Z</time>
      </trkpt>
      <trkpt lat="45.94388" lon="4.833">
        <ele>264</ele>
        <time>2016-12-10T14:49:51Z</time>
      </trkpt>
      <trkpt lat="45.94385" lon="4.83294">
        <ele>264</ele>
        <time>2016-12-10T14:49:52Z</time>
      </trkpt>
      <trkpt lat="45.94383" lon="4.83287">
        <ele>264</ele>
        <time>2016-12-10T14:49:53Z</time>
      </trkpt>
      <trkpt lat="45.9438" lon="4.8328">
        <ele>264</ele>
        <time>2016-12-10T14:49:54Z</time>
      </trkpt>
      <trkpt lat="45.94378" lon="4.83273">
        <ele>264</ele>
        <time>2016-12-10T14:49:55Z</time>
      </trkpt>
      <trkpt lat="45.94375" lon="4.83267">
        <ele>264</ele>
        <time>2016-12-10T14:49:56Z</time>
      </trkpt>
      <trkpt lat="45.94373" lon="4.8326">
        <ele>265</ele>
        <time>2016-12-10T14:49:57Z</time>
      </trkpt>
      <trkpt lat="45.9437" lon="4.83253">
        <ele>265</ele>
        <time>2016-12-10T14:49:58Z</time>
      </trkpt>
      <trkpt lat="45.94368" lon="4.83246">
        <ele>265</ele>
        <time>2016-12-10T14:49:59Z</time>
      </trkpt>
      <trkpt lat="45.94365" lon="4.83238">
        <ele>265</ele>
        <time>2016-12-10T14:50:00Z</time>
      </trkpt>
      <trkpt lat="45.94363" lon="4.83231">
        <ele>266</ele>
        <time>2016-12-10T14:50:01Z</time>
      </trkpt>
      <trkpt lat="45.94361" lon="4.83224">
        <ele>266</ele>
        <time>2016-12-10T14:50:02Z</time>
      </trkpt>
      <trkpt lat="45.94358" lon="4.83217">
        <ele>266</ele>
        <time>2016-12-10T14:50:03Z</time>
      </trkpt>
      <trkpt lat="45.94356" lon="4.8321">
        <ele>266</ele>
        <time>2016-12-10T14:50:04Z</time>
      </trkpt>
      <trkpt lat="45.94354" lon="4.83204">
        <ele>266</ele>
        <time>2016-12-10T14:50:05Z</time>
      </trkpt>
      <trkpt lat="45.94351" lon="4.83199">
        <ele>266</ele>
        <time>2016-12-10T14:50:06Z</time>
      </trkpt>
      <trkpt lat="45.94347" lon="4.83187">
        <ele>266</ele>
        <time>2016-12-10T14:50:08Z</time>
      </trkpt>
      <trkpt lat="45.94346" lon="4.83181">
        <ele>266</ele>
        <time>2016-12-10T14:50:09Z</time>
      </trkpt>
      <trkpt lat="45.94343" lon="4.83175">
        <ele>266</ele>
        <time>2016-12-10T14:50:10Z</time>
      </trkpt>
      <trkpt lat="45.94341" lon="4.83168">
        <ele>266</ele>
        <time>2016-12-10T14:50:11Z</time>
      </trkpt>
      <trkpt lat="45.94339" lon="4.83162">
        <ele>266</ele>
        <time>2016-12-10T14:50:12Z</time>
      </trkpt>
      <trkpt lat="45.94337" lon="4.83156">
        <ele>266</ele>
        <time>2016-12-10T14:50:13Z</time>
      </trkpt>
      <trkpt lat="45.94335" lon="4.83149">
        <ele>266</ele>
        <time>2016-12-10T14:50:14Z</time>
      </trkpt>
      <trkpt lat="45.94332" lon="4.83143">
        <ele>266</ele>
        <time>2016-12-10T14:50:15Z</time>
      </trkpt>
      <trkpt lat="45.9433" lon="4.83137">
        <ele>266</ele>
        <time>2016-12-10T14:50:16Z</time>
      </trkpt>
      <trkpt lat="45.94327" lon="4.8313">
        <ele>266</ele>
        <time>2016-12-10T14:50:17Z</time>
      </trkpt>
      <trkpt lat="45.94325" lon="4.83124">
        <ele>266</ele>
        <time>2016-12-10T14:50:18Z</time>
      </trkpt>
      <trkpt lat="45.94322" lon="4.83117">
        <ele>266</ele>
        <time>2016-12-10T14:50:19Z</time>
      </trkpt>
      <trkpt lat="45.9432" lon="4.83111">
        <ele>266</ele>
        <time>2016-12-10T14:50:20Z</time>
      </trkpt>
      <trkpt lat="45.94318" lon="4.83104">
        <ele>266</ele>
        <time>2016-12-10T14:50:21Z</time>
      </trkpt>
      <trkpt lat="45.94317" lon="4.83098">
        <ele>266</ele>
        <time>2016-12-10T14:50:22Z</time>
      </trkpt>
      <trkpt lat="45.94315" lon="4.83091">
        <ele>266</ele>
        <time>2016-12-10T14:50:23Z</time>
      </trkpt>
      <trkpt lat="45.94313" lon="4.83085">
        <ele>266</ele>
        <time>2016-12-10T14:50:24Z</time>
      </trkpt>
      <trkpt lat="45.94311" lon="4.83079">
        <ele>266</ele>
        <time>2016-12-10T14:50:25Z</time>
      </trkpt>
      <trkpt lat="45.94308" lon="4.83067">
        <ele>266</ele>
        <time>2016-12-10T14:50:27Z</time>
      </trkpt>
      <trkpt lat="45.94307" lon="4.83061">
        <ele>266</ele>
        <time>2016-12-10T14:50:28Z</time>
      </trkpt>
      <trkpt lat="45.94305" lon="4.83055">
        <ele>266</ele>
        <time>2016-12-10T14:50:29Z</time>
      </trkpt>
      <trkpt lat="45.94304" lon="4.83049">
        <ele>266</ele>
        <time>2016-12-10T14:50:30Z</time>
      </trkpt>
      <trkpt lat="45.94303" lon="4.83042">
        <ele>266</ele>
        <time>2016-12-10T14:50:31Z</time>
      </trkpt>
      <trkpt lat="45.94302" lon="4.83036">
        <ele>266</ele>
        <time>2016-12-10T14:50:32Z</time>
      </trkpt>
      <trkpt lat="45.943" lon="4.83029">
        <ele>266</ele>
        <time>2016-12-10T14:50:33Z</time>
      </trkpt>
      <trkpt lat="45.94299" lon="4.83022">
        <ele>266</ele>
        <time>2016-12-10T14:50:34Z</time>
      </trkpt>
      <trkpt lat="45.94298" lon="4.83016">
        <ele>266</ele>
        <time>2016-12-10T14:50:35Z</time>
      </trkpt>
      <trkpt lat="45.94297" lon="4.83009">
        <ele>266</ele>
        <time>2016-12-10T14:50:36Z</time>
      </trkpt>
      <trkpt lat="45.94295" lon="4.83002">
        <ele>266</ele>
        <time>2016-12-10T14:50:37Z</time>
      </trkpt>
      <trkpt lat="45.94294" lon="4.82996">
        <ele>265</ele>
        <time>2016-12-10T14:50:38Z</time>
      </trkpt>
      <trkpt lat="45.94293" lon="4.82989">
        <ele>265</ele>
        <time>2016-12-10T14:50:39Z</time>
      </trkpt>
      <trkpt lat="45.94291" lon="4.82983">
        <ele>265</ele>
        <time>2016-12-10T14:50:40Z</time>
      </trkpt>
      <trkpt lat="45.94289" lon="4.82976">
        <ele>265</ele>
        <time>2016-12-10T14:50:41Z</time>
      </trkpt>
      <trkpt lat="45.94287" lon="4.8297">
        <ele>265</ele>
        <time>2016-12-10T14:50:42Z</time>
      </trkpt>
      <trkpt lat="45.94284" lon="4.82959">
        <ele>265</ele>
        <time>2016-12-10T14:50:44Z</time>
      </trkpt>
      <trkpt lat="45.94283" lon="4.82953">
        <ele>265</ele>
        <time>2016-12-10T14:50:45Z</time>
      </trkpt>
      <trkpt lat="45.94282" lon="4.82941">
        <ele>265</ele>
        <time>2016-12-10T14:50:47Z</time>
      </trkpt>
      <trkpt lat="45.94283" lon="4.82934">
        <ele>265</ele>
        <time>2016-12-10T14:50:48Z</time>
      </trkpt>
      <trkpt lat="45.94285" lon="4.82927">
        <ele>265</ele>
        <time>2016-12-10T14:50:49Z</time>
      </trkpt>
      <trkpt lat="45.94286" lon="4.8292">
        <ele>265</ele>
        <time>2016-12-10T14:50:50Z</time>
      </trkpt>
      <trkpt lat="45.94288" lon="4.82913">
        <ele>265</ele>
        <time>2016-12-10T14:50:51Z</time>
      </trkpt>
      <trkpt lat="45.94289" lon="4.82906">
        <ele>265</ele>
        <time>2016-12-10T14:50:52Z</time>
      </trkpt>
      <trkpt lat="45.9429" lon="4.82898">
        <ele>265</ele>
        <time>2016-12-10T14:50:53Z</time>
      </trkpt>
      <trkpt lat="45.94291" lon="4.82891">
        <ele>265</ele>
        <time>2016-12-10T14:50:54Z</time>
      </trkpt>
      <trkpt lat="45.94291" lon="4.82883">
        <ele>265</ele>
        <time>2016-12-10T14:50:55Z</time>
      </trkpt>
      <trkpt lat="45.94292" lon="4.82875">
        <ele>265</ele>
        <time>2016-12-10T14:50:56Z</time>
      </trkpt>
      <trkpt lat="45.94292" lon="4.82867">
        <ele>265</ele>
        <time>2016-12-10T14:50:57Z</time>
      </trkpt>
      <trkpt lat="45.94293" lon="4.82859">
        <ele>265</ele>
        <time>2016-12-10T14:50:58Z</time>
      </trkpt>
      <trkpt lat="45.94293" lon="4.82851">
        <ele>265</ele>
        <time>2016-12-10T14:50:59Z</time>
      </trkpt>
      <trkpt lat="45.94293" lon="4.82843">
        <ele>265</ele>
        <time>2016-12-10T14:51:00Z</time>
      </trkpt>
      <trkpt lat="45.94293" lon="4.82836">
        <ele>265</ele>
        <time>2016-12-10T14:51:01Z</time>
      </trkpt>
      <trkpt lat="45.94292" lon="4.82829">
        <ele>265</ele>
        <time>2016-12-10T14:51:02Z</time>
      </trkpt>
      <trkpt lat="45.94293" lon="4.82821">
        <ele>265</ele>
        <time>2016-12-10T14:51:03Z</time>
      </trkpt>
      <trkpt lat="45.94294" lon="4.82814">
        <ele>265</ele>
        <time>2016-12-10T14:51:04Z</time>
      </trkpt>
      <trkpt lat="45.94294" lon="4.82807">
        <ele>265</ele>
        <time>2016-12-10T14:51:05Z</time>
      </trkpt>
      <trkpt lat="45.94295" lon="4.82799">
        <ele>265</ele>
        <time>2016-12-10T14:51:06Z</time>
      </trkpt>
      <trkpt lat="45.94295" lon="4.82792">
        <ele>265</ele>
        <time>2016-12-10T14:51:07Z</time>
      </trkpt>
      <trkpt lat="45.94295" lon="4.82784">
        <ele>265</ele>
        <time>2016-12-10T14:51:08Z</time>
      </trkpt>
      <trkpt lat="45.94295" lon="4.82776">
        <ele>265</ele>
        <time>2016-12-10T14:51:09Z</time>
      </trkpt>
      <trkpt lat="45.94295" lon="4.82768">
        <ele>265</ele>
        <time>2016-12-10T14:51:10Z</time>
      </trkpt>
      <trkpt lat="45.94295" lon="4.82761">
        <ele>265</ele>
        <time>2016-12-10T14:51:11Z</time>
      </trkpt>
      <trkpt lat="45.94295" lon="4.82753">
        <ele>265</ele>
        <time>2016-12-10T14:51:12Z</time>
      </trkpt>
      <trkpt lat="45.94295" lon="4.82745">
        <ele>265</ele>
        <time>2016-12-10T14:51:13Z</time>
      </trkpt>
      <trkpt lat="45.94295" lon="4.82737">
        <ele>265</ele>
        <time>2016-12-10T14:51:14Z</time>
      </trkpt>
      <trkpt lat="45.94295" lon="4.82729">
        <ele>265</ele>
        <time>2016-12-10T14:51:15Z</time>
      </trkpt>
      <trkpt lat="45.94294" lon="4.8272">
        <ele>265</ele>
        <time>2016-12-10T14:51:16Z</time>
      </trkpt>
      <trkpt lat="45.94294" lon="4.82712">
        <ele>265</ele>
        <time>2016-12-10T14:51:17Z</time>
      </trkpt>
      <trkpt lat="45.94295" lon="4.82704">
        <ele>265</ele>
        <time>2016-12-10T14:51:18Z</time>
      </trkpt>
      <trkpt lat="45.94295" lon="4.82696">
        <ele>265</ele>
        <time>2016-12-10T14:51:19Z</time>
      </trkpt>
      <trkpt lat="45.94295" lon="4.82688">
        <ele>265</ele>
        <time>2016-12-10T14:51:20Z</time>
      </trkpt>
      <trkpt lat="45.94295" lon="4.8268">
        <ele>265</ele>
        <time>2016-12-10T14:51:21Z</time>
      </trkpt>
      <trkpt lat="45.94295" lon="4.82672">
        <ele>265</ele>
        <time>2016-12-10T14:51:22Z</time>
      </trkpt>
      <trkpt lat="45.94295" lon="4.82664">
        <ele>265</ele>
        <time>2016-12-10T14:51:23Z</time>
      </trkpt>
      <trkpt lat="45.94295" lon="4.82656">
        <ele>265</ele>
        <time>2016-12-10T14:51:24Z</time>
      </trkpt>
      <trkpt lat="45.94295" lon="4.82648">
        <ele>265</ele>
        <time>2016-12-10T14:51:25Z</time>
      </trkpt>
      <trkpt lat="45.94295" lon="4.8264">
        <ele>265</ele>
        <time>2016-12-10T14:51:26Z</time>
      </trkpt>
      <trkpt lat="45.94295" lon="4.82632">
        <ele>265</ele>
        <time>2016-12-10T14:51:27Z</time>
      </trkpt>
      <trkpt lat="45.94295" lon="4.82624">
        <ele>265</ele>
        <time>2016-12-10T14:51:28Z</time>
      </trkpt>
      <trkpt lat="45.94296" lon="4.82617">
        <ele>265</ele>
        <time>2016-12-10T14:51:29Z</time>
      </trkpt>
      <trkpt lat="45.94296" lon="4.82609">
        <ele>265</ele>
        <time>2016-12-10T14:51:30Z</time>
      </trkpt>
      <trkpt lat="45.94297" lon="4.82601">
        <ele>265</ele>
        <time>2016-12-10T14:51:31Z</time>
      </trkpt>
      <trkpt lat="45.94297" lon="4.82593">
        <ele>265</ele>
        <time>2016-12-10T14:51:32Z</time>
      </trkpt>
      <trkpt lat="45.94297" lon="4.82585">
        <ele>265</ele>
        <time>2016-12-10T14:51:33Z</time>
      </trkpt>
      <trkpt lat="45.94297" lon="4.82577">
        <ele>264</ele>
        <time>2016-12-10T14:51:34Z</time>
      </trkpt>
      <trkpt lat="45.94297" lon="4.82569">
        <ele>264</ele>
        <time>2016-12-10T14:51:35Z</time>
      </trkpt>
      <trkpt lat="45.94297" lon="4.82561">
        <ele>264</ele>
        <time>2016-12-10T14:51:36Z</time>
      </trkpt>
      <trkpt lat="45.94297" lon="4.82553">
        <ele>264</ele>
        <time>2016-12-10T14:51:37Z</time>
      </trkpt>
      <trkpt lat="45.94297" lon="4.82545">
        <ele>264</ele>
        <time>2016-12-10T14:51:38Z</time>
      </trkpt>
      <trkpt lat="45.94297" lon="4.82537">
        <ele>264</ele>
        <time>2016-12-10T14:51:39Z</time>
      </trkpt>
      <trkpt lat="45.94298" lon="4.82528">
        <ele>264</ele>
        <time>2016-12-10T14:51:40Z</time>
      </trkpt>
      <trkpt lat="45.94298" lon="4.8252">
        <ele>264</ele>
        <time>2016-12-10T14:51:41Z</time>
      </trkpt>
      <trkpt lat="45.94298" lon="4.82511">
        <ele>264</ele>
        <time>2016-12-10T14:51:42Z</time>
      </trkpt>
      <trkpt lat="45.94298" lon="4.82503">
        <ele>264</ele>
        <time>2016-12-10T14:51:43Z</time>
      </trkpt>
      <trkpt lat="45.94298" lon="4.82494">
        <ele>264</ele>
        <time>2016-12-10T14:51:44Z</time>
      </trkpt>
      <trkpt lat="45.94297" lon="4.82485">
        <ele>264</ele>
        <time>2016-12-10T14:51:45Z</time>
      </trkpt>
      <trkpt lat="45.94297" lon="4.82477">
        <ele>264</ele>
        <time>2016-12-10T14:51:46Z</time>
      </trkpt>
      <trkpt lat="45.94297" lon="4.82469">
        <ele>264</ele>
        <time>2016-12-10T14:51:47Z</time>
      </trkpt>
      <trkpt lat="45.94296" lon="4.8246">
        <ele>264</ele>
        <time>2016-12-10T14:51:48Z</time>
      </trkpt>
      <trkpt lat="45.94296" lon="4.82451">
        <ele>264</ele>
        <time>2016-12-10T14:51:49Z</time>
      </trkpt>
      <trkpt lat="45.94296" lon="4.82443">
        <ele>264</ele>
        <time>2016-12-10T14:51:50Z</time>
      </trkpt>
      <trkpt lat="45.94295" lon="4.82434">
        <ele>264</ele>
        <time>2016-12-10T14:51:51Z</time>
      </trkpt>
      <trkpt lat="45.94295" lon="4.82425">
        <ele>264</ele>
        <time>2016-12-10T14:51:52Z</time>
      </trkpt>
      <trkpt lat="45.94294" lon="4.82416">
        <ele>264</ele>
        <time>2016-12-10T14:51:53Z</time>
      </trkpt>
      <trkpt lat="45.94294" lon="4.82407">
        <ele>264</ele>
        <time>2016-12-10T14:51:54Z</time>
      </trkpt>
      <trkpt lat="45.94293" lon="4.82398">
        <ele>264</ele>
        <time>2016-12-10T14:51:55Z</time>
      </trkpt>
      <trkpt lat="45.94293" lon="4.82388">
        <ele>264</ele>
        <time>2016-12-10T14:51:56Z</time>
      </trkpt>
      <trkpt lat="45.94292" lon="4.82379">
        <ele>264</ele>
        <time>2016-12-10T14:51:57Z</time>
      </trkpt>
      <trkpt lat="45.94292" lon="4.8237">
        <ele>264</ele>
        <time>2016-12-10T14:51:58Z</time>
      </trkpt>
      <trkpt lat="45.94291" lon="4.82361">
        <ele>264</ele>
        <time>2016-12-10T14:51:59Z</time>
      </trkpt>
      <trkpt lat="45.94291" lon="4.82352">
        <ele>264</ele>
        <time>2016-12-10T14:52:00Z</time>
      </trkpt>
      <trkpt lat="45.9429" lon="4.82344">
        <ele>264</ele>
        <time>2016-12-10T14:52:01Z</time>
      </trkpt>
      <trkpt lat="45.94289" lon="4.82336">
        <ele>264</ele>
        <time>2016-12-10T14:52:02Z</time>
      </trkpt>
      <trkpt lat="45.94289" lon="4.82327">
        <ele>265</ele>
        <time>2016-12-10T14:52:03Z</time>
      </trkpt>
      <trkpt lat="45.94288" lon="4.82318">
        <ele>265</ele>
        <time>2016-12-10T14:52:04Z</time>
      </trkpt>
      <trkpt lat="45.94288" lon="4.82309">
        <ele>265</ele>
        <time>2016-12-10T14:52:05Z</time>
      </trkpt>
      <trkpt lat="45.94287" lon="4.823">
        <ele>265</ele>
        <time>2016-12-10T14:52:06Z</time>
      </trkpt>
      <trkpt lat="45.94287" lon="4.82291">
        <ele>265</ele>
        <time>2016-12-10T14:52:07Z</time>
      </trkpt>
      <trkpt lat="45.94286" lon="4.82281">
        <ele>265</ele>
        <time>2016-12-10T14:52:08Z</time>
      </trkpt>
      <trkpt lat="45.94286" lon="4.82272">
        <ele>265</ele>
        <time>2016-12-10T14:52:09Z</time>
      </trkpt>
      <trkpt lat="45.94285" lon="4.82263">
        <ele>265</ele>
        <time>2016-12-10T14:52:10Z</time>
      </trkpt>
      <trkpt lat="45.94285" lon="4.82254">
        <ele>265</ele>
        <time>2016-12-10T14:52:11Z</time>
      </trkpt>
      <trkpt lat="45.94285" lon="4.82245">
        <ele>264</ele>
        <time>2016-12-10T14:52:12Z</time>
      </trkpt>
      <trkpt lat="45.94284" lon="4.82237">
        <ele>264</ele>
        <time>2016-12-10T14:52:13Z</time>
      </trkpt>
      <trkpt lat="45.94284" lon="4.82228">
        <ele>264</ele>
        <time>2016-12-10T14:52:14Z</time>
      </trkpt>
      <trkpt lat="45.94283" lon="4.8222">
        <ele>264</ele>
        <time>2016-12-10T14:52:15Z</time>
      </trkpt>
      <trkpt lat="45.94282" lon="4.82212">
        <ele>264</ele>
        <time>2016-12-10T14:52:16Z</time>
      </trkpt>
      <trkpt lat="45.94281" lon="4.82204">
        <ele>264</ele>
        <time>2016-12-10T14:52:17Z</time>
      </trkpt>
      <trkpt lat="45.9428" lon="4.82196">
        <ele>264</ele>
        <time>2016-12-10T14:52:18Z</time>
      </trkpt>
      <trkpt lat="45.94279" lon="4.82188">
        <ele>264</ele>
        <time>2016-12-10T14:52:19Z</time>
      </trkpt>
      <trkpt lat="45.94278" lon="4.8218">
        <ele>264</ele>
        <time>2016-12-10T14:52:20Z</time>
      </trkpt>
      <trkpt lat="45.94276" lon="4.82173">
        <ele>264</ele>
        <time>2016-12-10T14:52:21Z</time>
      </trkpt>
      <trkpt lat="45.94275" lon="4.82165">
        <ele>263</ele>
        <time>2016-12-10T14:52:22Z</time>
      </trkpt>
      <trkpt lat="45.94273" lon="4.82157">
        <ele>263</ele>
        <time>2016-12-10T14:52:23Z</time>
      </trkpt>
      <trkpt lat="45.94272" lon="4.82149">
        <ele>263</ele>
        <time>2016-12-10T14:52:24Z</time>
      </trkpt>
      <trkpt lat="45.94271" lon="4.82142">
        <ele>263</ele>
        <time>2016-12-10T14:52:25Z</time>
      </trkpt>
      <trkpt lat="45.9427" lon="4.82134">
        <ele>263</ele>
        <time>2016-12-10T14:52:26Z</time>
      </trkpt>
      <trkpt lat="45.94269" lon="4.82126">
        <ele>263</ele>
        <time>2016-12-10T14:52:27Z</time>
      </trkpt>
      <trkpt lat="45.94267" lon="4.82119">
        <ele>263</ele>
        <time>2016-12-10T14:52:28Z</time>
      </trkpt>
      <trkpt lat="45.94266" lon="4.82111">
        <ele>263</ele>
        <time>2016-12-10T14:52:29Z</time>
      </trkpt>
      <trkpt lat="45.94264" lon="4.82103">
        <ele>262</ele>
        <time>2016-12-10T14:52:30Z</time>
      </trkpt>
      <trkpt lat="45.94262" lon="4.82095">
        <ele>262</ele>
        <time>2016-12-10T14:52:31Z</time>
      </trkpt>
      <trkpt lat="45.9426" lon="4.82087">
        <ele>262</ele>
        <time>2016-12-10T14:52:32Z</time>
      </trkpt>
      <trkpt lat="45.94258" lon="4.82079">
        <ele>262</ele>
        <time>2016-12-10T14:52:33Z</time>
      </trkpt>
      <trkpt lat="45.94256" lon="4.8207">
        <ele>262</ele>
        <time>2016-12-10T14:52:34Z</time>
      </trkpt>
      <trkpt lat="45.94255" lon="4.82062">
        <ele>262</ele>
        <time>2016-12-10T14:52:35Z</time>
      </trkpt>
      <trkpt lat="45.94253" lon="4.82054">
        <ele>262</ele>
        <time>2016-12-10T14:52:36Z</time>
      </trkpt>
      <trkpt lat="45.94252" lon="4.82046">
        <ele>262</ele>
        <time>2016-12-10T14:52:37Z</time>
      </trkpt>
      <trkpt lat="45.94251" lon="4.82038">
        <ele>262</ele>
        <time>2016-12-10T14:52:38Z</time>
      </trkpt>
      <trkpt lat="45.94249" lon="4.82031">
        <ele>263</ele>
        <time>2016-12-10T14:52:39Z</time>
      </trkpt>
      <trkpt lat="45.94247" lon="4.82024">
        <ele>263</ele>
        <time>2016-12-10T14:52:40Z</time>
      </trkpt>
      <trkpt lat="45.94245" lon="4.82017">
        <ele>263</ele>
        <time>2016-12-10T14:52:41Z</time>
      </trkpt>
      <trkpt lat="45.94243" lon="4.8201">
        <ele>263</ele>
        <time>2016-12-10T14:52:42Z</time>
      </trkpt>
      <trkpt lat="45.94241" lon="4.82003">
        <ele>263</ele>
        <time>2016-12-10T14:52:43Z</time>
      </trkpt>
      <trkpt lat="45.9424" lon="4.81995">
        <ele>263</ele>
        <time>2016-12-10T14:52:44Z</time>
      </trkpt>
      <trkpt lat="45.94238" lon="4.81988">
        <ele>263</ele>
        <time>2016-12-10T14:52:45Z</time>
      </trkpt>
      <trkpt lat="45.94237" lon="4.81981">
        <ele>263</ele>
        <time>2016-12-10T14:52:46Z</time>
      </trkpt>
      <trkpt lat="45.94235" lon="4.81974">
        <ele>263</ele>
        <time>2016-12-10T14:52:47Z</time>
      </trkpt>
      <trkpt lat="45.94234" lon="4.81966">
        <ele>264</ele>
        <time>2016-12-10T14:52:48Z</time>
      </trkpt>
      <trkpt lat="45.94232" lon="4.81959">
        <ele>264</ele>
        <time>2016-12-10T14:52:49Z</time>
      </trkpt>
      <trkpt lat="45.94231" lon="4.81951">
        <ele>264</ele>
        <time>2016-12-10T14:52:50Z</time>
      </trkpt>
      <trkpt lat="45.9423" lon="4.81944">
        <ele>264</ele>
        <time>2016-12-10T14:52:51Z</time>
      </trkpt>
      <trkpt lat="45.94228" lon="4.81936">
        <ele>264</ele>
        <time>2016-12-10T14:52:52Z</time>
      </trkpt>
      <trkpt lat="45.94227" lon="4.81929">
        <ele>264</ele>
        <time>2016-12-10T14:52:53Z</time>
      </trkpt>
      <trkpt lat="45.94225" lon="4.81922">
        <ele>264</ele>
        <time>2016-12-10T14:52:54Z</time>
      </trkpt>
      <trkpt lat="45.94224" lon="4.81914">
        <ele>264</ele>
        <time>2016-12-10T14:52:55Z</time>
      </trkpt>
      <trkpt lat="45.94222" lon="4.81907">
        <ele>264</ele>
        <time>2016-12-10T14:52:56Z</time>
      </trkpt>
      <trkpt lat="45.94221" lon="4.81899">
        <ele>265</ele>
        <time>2016-12-10T14:52:57Z</time>
      </trkpt>
      <trkpt lat="45.94219" lon="4.81892">
        <ele>265</ele>
        <time>2016-12-10T14:52:58Z</time>
      </trkpt>
      <trkpt lat="45.94218" lon="4.81884">
        <ele>265</ele>
        <time>2016-12-10T14:52:59Z</time>
      </trkpt>
      <trkpt lat="45.94217" lon="4.81877">
        <ele>265</ele>
        <time>2016-12-10T14:53:00Z</time>
      </trkpt>
      <trkpt lat="45.94216" lon="4.81869">
        <ele>265</ele>
        <time>2016-12-10T14:53:01Z</time>
      </trkpt>
      <trkpt lat="45.94215" lon="4.81862">
        <ele>265</ele>
        <time>2016-12-10T14:53:02Z</time>
      </trkpt>
      <trkpt lat="45.94213" lon="4.81855">
        <ele>265</ele>
        <time>2016-12-10T14:53:03Z</time>
      </trkpt>
      <trkpt lat="45.94212" lon="4.81847">
        <ele>265</ele>
        <time>2016-12-10T14:53:04Z</time>
      </trkpt>
      <trkpt lat="45.9421" lon="4.81839">
        <ele>265</ele>
        <time>2016-12-10T14:53:05Z</time>
      </trkpt>
      <trkpt lat="45.94209" lon="4.81832">
        <ele>266</ele>
        <time>2016-12-10T14:53:06Z</time>
      </trkpt>
      <trkpt lat="45.94208" lon="4.81825">
        <ele>266</ele>
        <time>2016-12-10T14:53:07Z</time>
      </trkpt>
      <trkpt lat="45.94207" lon="4.81818">
        <ele>266</ele>
        <time>2016-12-10T14:53:08Z</time>
      </trkpt>
      <trkpt lat="45.94206" lon="4.81811">
        <ele>266</ele>
        <time>2016-12-10T14:53:09Z</time>
      </trkpt>
      <trkpt lat="45.94206" lon="4.81804">
        <ele>266</ele>
        <time>2016-12-10T14:53:10Z</time>
      </trkpt>
      <trkpt lat="45.94207" lon="4.81797">
        <ele>266</ele>
        <time>2016-12-10T14:53:11Z</time>
      </trkpt>
      <trkpt lat="45.94208" lon="4.8179">
        <ele>266</ele>
        <time>2016-12-10T14:53:12Z</time>
      </trkpt>
      <trkpt lat="45.94209" lon="4.81783">
        <ele>265</ele>
        <time>2016-12-10T14:53:13Z</time>
      </trkpt>
      <trkpt lat="45.9421" lon="4.81776">
        <ele>265</ele>
        <time>2016-12-10T14:53:14Z</time>
      </trkpt>
      <trkpt lat="45.94212" lon="4.8177">
        <ele>265</ele>
        <time>2016-12-10T14:53:15Z</time>
      </trkpt>
      <trkpt lat="45.94214" lon="4.81764">
        <ele>265</ele>
        <time>2016-12-10T14:53:16Z</time>
      </trkpt>
      <trkpt lat="45.94217" lon="4.81757">
        <ele>265</ele>
        <time>2016-12-10T14:53:17Z</time>
      </trkpt>
      <trkpt lat="45.94219" lon="4.81751">
        <ele>265</ele>
        <time>2016-12-10T14:53:18Z</time>
      </trkpt>
      <trkpt lat="45.94221" lon="4.81744">
        <ele>265</ele>
        <time>2016-12-10T14:53:19Z</time>
      </trkpt>
      <trkpt lat="45.94223" lon="4.81738">
        <ele>265</ele>
        <time>2016-12-10T14:53:20Z</time>
      </trkpt>
      <trkpt lat="45.94223" lon="4.81731">
        <ele>265</ele>
        <time>2016-12-10T14:53:21Z</time>
      </trkpt>
      <trkpt lat="45.94222" lon="4.81724">
        <ele>266</ele>
        <time>2016-12-10T14:53:22Z</time>
      </trkpt>
      <trkpt lat="45.9422" lon="4.81718">
        <ele>266</ele>
        <time>2016-12-10T14:53:23Z</time>
      </trkpt>
      <trkpt lat="45.94217" lon="4.81713">
        <ele>266</ele>
        <time>2016-12-10T14:53:24Z</time>
      </trkpt>
      <trkpt lat="45.94213" lon="4.81709">
        <ele>266</ele>
        <time>2016-12-10T14:53:25Z</time>
      </trkpt>
      <trkpt lat="45.94208" lon="4.81706">
        <ele>266</ele>
        <time>2016-12-10T14:53:26Z</time>
      </trkpt>
      <trkpt lat="45.94203" lon="4.81703">
        <ele>266</ele>
        <time>2016-12-10T14:53:27Z</time>
      </trkpt>
      <trkpt lat="45.94199" lon="4.817">
        <ele>267</ele>
        <time>2016-12-10T14:53:28Z</time>
      </trkpt>
      <trkpt lat="45.94194" lon="4.81696">
        <ele>267</ele>
        <time>2016-12-10T14:53:29Z</time>
      </trkpt>
      <trkpt lat="45.94189" lon="4.81691">
        <ele>267</ele>
        <time>2016-12-10T14:53:30Z</time>
      </trkpt>
      <trkpt lat="45.94185" lon="4.81685">
        <ele>267</ele>
        <time>2016-12-10T14:53:31Z</time>
      </trkpt>
      <trkpt lat="45.94182" lon="4.81677">
        <ele>268</ele>
        <time>2016-12-10T14:53:32Z</time>
      </trkpt>
      <trkpt lat="45.9418" lon="4.81668">
        <ele>268</ele>
        <time>2016-12-10T14:53:33Z</time>
      </trkpt>
      <trkpt lat="45.94177" lon="4.81658">
        <ele>268</ele>
        <time>2016-12-10T14:53:34Z</time>
      </trkpt>
      <trkpt lat="45.94175" lon="4.81648">
        <ele>268</ele>
        <time>2016-12-10T14:53:35Z</time>
      </trkpt>
      <trkpt lat="45.94173" lon="4.81638">
        <ele>268</ele>
        <time>2016-12-10T14:53:36Z</time>
      </trkpt>
      <trkpt lat="45.9417" lon="4.81628">
        <ele>267</ele>
        <time>2016-12-10T14:53:37Z</time>
      </trkpt>
      <trkpt lat="45.94167" lon="4.81618">
        <ele>267</ele>
        <time>2016-12-10T14:53:38Z</time>
      </trkpt>
      <trkpt lat="45.94165" lon="4.81608">
        <ele>267</ele>
        <time>2016-12-10T14:53:39Z</time>
      </trkpt>
      <trkpt lat="45.94163" lon="4.81597">
        <ele>267</ele>
        <time>2016-12-10T14:53:40Z</time>
      </trkpt>
      <trkpt lat="45.9416" lon="4.81586">
        <ele>267</ele>
        <time>2016-12-10T14:53:41Z</time>
      </trkpt>
      <trkpt lat="45.94158" lon="4.81575">
        <ele>266</ele>
        <time>2016-12-10T14:53:42Z</time>
      </trkpt>
      <trkpt lat="45.94157" lon="4.81565">
        <ele>265</ele>
        <time>2016-12-10T14:53:43Z</time>
      </trkpt>
      <trkpt lat="45.94155" lon="4.81554">
        <ele>264</ele>
        <time>2016-12-10T14:53:44Z</time>
      </trkpt>
      <trkpt lat="45.94154" lon="4.81542">
        <ele>264</ele>
        <time>2016-12-10T14:53:45Z</time>
      </trkpt>
      <trkpt lat="45.94154" lon="4.8153">
        <ele>264</ele>
        <time>2016-12-10T14:53:46Z</time>
      </trkpt>
      <trkpt lat="45.94155" lon="4.81518">
        <ele>263</ele>
        <time>2016-12-10T14:53:47Z</time>
      </trkpt>
      <trkpt lat="45.94156" lon="4.81505">
        <ele>263</ele>
        <time>2016-12-10T14:53:48Z</time>
      </trkpt>
      <trkpt lat="45.94157" lon="4.81492">
        <ele>260</ele>
        <time>2016-12-10T14:53:49Z</time>
      </trkpt>
      <trkpt lat="45.94158" lon="4.81479">
        <ele>259</ele>
        <time>2016-12-10T14:53:50Z</time>
      </trkpt>
      <trkpt lat="45.94159" lon="4.81466">
        <ele>258</ele>
        <time>2016-12-10T14:53:51Z</time>
      </trkpt>
      <trkpt lat="45.94161" lon="4.81452">
        <ele>257</ele>
        <time>2016-12-10T14:53:52Z</time>
      </trkpt>
      <trkpt lat="45.94162" lon="4.81438">
        <ele>256</ele>
        <time>2016-12-10T14:53:53Z</time>
      </trkpt>
      <trkpt lat="45.94163" lon="4.81425">
        <ele>256</ele>
        <time>2016-12-10T14:53:54Z</time>
      </trkpt>
      <trkpt lat="45.94164" lon="4.81411">
        <ele>255</ele>
        <time>2016-12-10T14:53:55Z</time>
      </trkpt>
      <trkpt lat="45.94166" lon="4.81398">
        <ele>253</ele>
        <time>2016-12-10T14:53:56Z</time>
      </trkpt>
      <trkpt lat="45.94167" lon="4.81383">
        <ele>258</ele>
        <time>2016-12-10T14:53:57Z</time>
      </trkpt>
      <trkpt lat="45.94169" lon="4.81369">
        <ele>257</ele>
        <time>2016-12-10T14:53:58Z</time>
      </trkpt>
      <trkpt lat="45.9417" lon="4.81355">
        <ele>256</ele>
        <time>2016-12-10T14:53:59Z</time>
      </trkpt>
      <trkpt lat="45.94172" lon="4.81339">
        <ele>254</ele>
        <time>2016-12-10T14:54:00Z</time>
      </trkpt>
      <trkpt lat="45.94173" lon="4.81324">
        <ele>254</ele>
        <time>2016-12-10T14:54:01Z</time>
      </trkpt>
      <trkpt lat="45.94173" lon="4.81308">
        <ele>255</ele>
        <time>2016-12-10T14:54:02Z</time>
      </trkpt>
      <trkpt lat="45.94173" lon="4.81293">
        <ele>256</ele>
        <time>2016-12-10T14:54:03Z</time>
      </trkpt>
      <trkpt lat="45.94171" lon="4.81278">
        <ele>255</ele>
        <time>2016-12-10T14:54:04Z</time>
      </trkpt>
      <trkpt lat="45.94169" lon="4.81262">
        <ele>253</ele>
        <time>2016-12-10T14:54:05Z</time>
      </trkpt>
      <trkpt lat="45.94167" lon="4.81246">
        <ele>249</ele>
        <time>2016-12-10T14:54:06Z</time>
      </trkpt>
      <trkpt lat="45.94164" lon="4.8123">
        <ele>246</ele>
        <time>2016-12-10T14:54:07Z</time>
      </trkpt>
      <trkpt lat="45.94161" lon="4.81213">
        <ele>245</ele>
        <time>2016-12-10T14:54:08Z</time>
      </trkpt>
      <trkpt lat="45.94158" lon="4.81197">
        <ele>245</ele>
        <time>2016-12-10T14:54:09Z</time>
      </trkpt>
      <trkpt lat="45.94154" lon="4.81182">
        <ele>245</ele>
        <time>2016-12-10T14:54:10Z</time>
      </trkpt>
      <trkpt lat="45.94149" lon="4.81167">
        <ele>245</ele>
        <time>2016-12-10T14:54:11Z</time>
      </trkpt>
      <trkpt lat="45.94143" lon="4.81152">
        <ele>245</ele>
        <time>2016-12-10T14:54:12Z</time>
      </trkpt>
      <trkpt lat="45.94136" lon="4.81137">
        <ele>244</ele>
        <time>2016-12-10T14:54:13Z</time>
      </trkpt>
      <trkpt lat="45.94129" lon="4.81124">
        <ele>244</ele>
        <time>2016-12-10T14:54:14Z</time>
      </trkpt>
      <trkpt lat="45.94122" lon="4.81111">
        <ele>243</ele>
        <time>2016-12-10T14:54:15Z</time>
      </trkpt>
      <trkpt lat="45.94114" lon="4.81099">
        <ele>242</ele>
        <time>2016-12-10T14:54:16Z</time>
      </trkpt>
      <trkpt lat="45.94106" lon="4.81086">
        <ele>241</ele>
        <time>2016-12-10T14:54:17Z</time>
      </trkpt>
      <trkpt lat="45.94097" lon="4.81072">
        <ele>242</ele>
        <time>2016-12-10T14:54:18Z</time>
      </trkpt>
      <trkpt lat="45.9409" lon="4.81058">
        <ele>243</ele>
        <time>2016-12-10T14:54:19Z</time>
      </trkpt>
      <trkpt lat="45.94084" lon="4.81042">
        <ele>243</ele>
        <time>2016-12-10T14:54:20Z</time>
      </trkpt>
      <trkpt lat="45.9408" lon="4.81026">
        <ele>234</ele>
        <time>2016-12-10T14:54:21Z</time>
      </trkpt>
      <trkpt lat="45.94075" lon="4.81011">
        <ele>236</ele>
        <time>2016-12-10T14:54:22Z</time>
      </trkpt>
      <trkpt lat="45.94073" lon="4.80994">
        <ele>236</ele>
        <time>2016-12-10T14:54:23Z</time>
      </trkpt>
      <trkpt lat="45.94071" lon="4.80978">
        <ele>234</ele>
        <time>2016-12-10T14:54:24Z</time>
      </trkpt>
      <trkpt lat="45.94069" lon="4.80961">
        <ele>232</ele>
        <time>2016-12-10T14:54:25Z</time>
      </trkpt>
      <trkpt lat="45.94068" lon="4.80944">
        <ele>233</ele>
        <time>2016-12-10T14:54:26Z</time>
      </trkpt>
      <trkpt lat="45.94066" lon="4.80927">
        <ele>234</ele>
        <time>2016-12-10T14:54:27Z</time>
      </trkpt>
      <trkpt lat="45.94065" lon="4.80909">
        <ele>233</ele>
        <time>2016-12-10T14:54:28Z</time>
      </trkpt>
      <trkpt lat="45.94063" lon="4.80891">
        <ele>231</ele>
        <time>2016-12-10T14:54:29Z</time>
      </trkpt>
      <trkpt lat="45.9406" lon="4.80874">
        <ele>231</ele>
        <time>2016-12-10T14:54:30Z</time>
      </trkpt>
      <trkpt lat="45.94058" lon="4.80857">
        <ele>231</ele>
        <time>2016-12-10T14:54:31Z</time>
      </trkpt>
      <trkpt lat="45.94057" lon="4.80839">
        <ele>232</ele>
        <time>2016-12-10T14:54:32Z</time>
      </trkpt>
      <trkpt lat="45.94055" lon="4.80822">
        <ele>231</ele>
        <time>2016-12-10T14:54:33Z</time>
      </trkpt>
      <trkpt lat="45.94052" lon="4.80806">
        <ele>230</ele>
        <time>2016-12-10T14:54:34Z</time>
      </trkpt>
      <trkpt lat="45.94051" lon="4.80789">
        <ele>229</ele>
        <time>2016-12-10T14:54:35Z</time>
      </trkpt>
      <trkpt lat="45.94049" lon="4.80773">
        <ele>229</ele>
        <time>2016-12-10T14:54:36Z</time>
      </trkpt>
      <trkpt lat="45.94046" lon="4.80756">
        <ele>229</ele>
        <time>2016-12-10T14:54:37Z</time>
      </trkpt>
      <trkpt lat="45.94044" lon="4.80741">
        <ele>227</ele>
        <time>2016-12-10T14:54:38Z</time>
      </trkpt>
      <trkpt lat="45.94043" lon="4.80724">
        <ele>227</ele>
        <time>2016-12-10T14:54:39Z</time>
      </trkpt>
      <trkpt lat="45.94042" lon="4.80708">
        <ele>227</ele>
        <time>2016-12-10T14:54:40Z</time>
      </trkpt>
      <trkpt lat="45.9404" lon="4.80693">
        <ele>226</ele>
        <time>2016-12-10T14:54:41Z</time>
      </trkpt>
      <trkpt lat="45.94037" lon="4.80676">
        <ele>226</ele>
        <time>2016-12-10T14:54:42Z</time>
      </trkpt>
      <trkpt lat="45.94035" lon="4.80661">
        <ele>225</ele>
        <time>2016-12-10T14:54:43Z</time>
      </trkpt>
      <trkpt lat="45.94033" lon="4.80646">
        <ele>225</ele>
        <time>2016-12-10T14:54:44Z</time>
      </trkpt>
      <trkpt lat="45.94031" lon="4.8063">
        <ele>225</ele>
        <time>2016-12-10T14:54:45Z</time>
      </trkpt>
      <trkpt lat="45.9403" lon="4.80615">
        <ele>225</ele>
        <time>2016-12-10T14:54:46Z</time>
      </trkpt>
      <trkpt lat="45.94029" lon="4.806">
        <ele>225</ele>
        <time>2016-12-10T14:54:47Z</time>
      </trkpt>
      <trkpt lat="45.94027" lon="4.80585">
        <ele>224</ele>
        <time>2016-12-10T14:54:48Z</time>
      </trkpt>
      <trkpt lat="45.94025" lon="4.8057">
        <ele>224</ele>
        <time>2016-12-10T14:54:49Z</time>
      </trkpt>
      <trkpt lat="45.94024" lon="4.80554">
        <ele>225</ele>
        <time>2016-12-10T14:54:50Z</time>
      </trkpt>
      <trkpt lat="45.94023" lon="4.80539">
        <ele>225</ele>
        <time>2016-12-10T14:54:51Z</time>
      </trkpt>
      <trkpt lat="45.94022" lon="4.80525">
        <ele>225</ele>
        <time>2016-12-10T14:54:52Z</time>
      </trkpt>
      <trkpt lat="45.9402" lon="4.80511">
        <ele>224</ele>
        <time>2016-12-10T14:54:53Z</time>
      </trkpt>
      <trkpt lat="45.9402" lon="4.80497">
        <ele>222</ele>
        <time>2016-12-10T14:54:54Z</time>
      </trkpt>
      <trkpt lat="45.9402" lon="4.80483">
        <ele>223</ele>
        <time>2016-12-10T14:54:55Z</time>
      </trkpt>
      <trkpt lat="45.9402" lon="4.80468">
        <ele>223</ele>
        <time>2016-12-10T14:54:56Z</time>
      </trkpt>
      <trkpt lat="45.9402" lon="4.80453">
        <ele>223</ele>
        <time>2016-12-10T14:54:57Z</time>
      </trkpt>
      <trkpt lat="45.94018" lon="4.80439">
        <ele>222</ele>
        <time>2016-12-10T14:54:58Z</time>
      </trkpt>
      <trkpt lat="45.94016" lon="4.80425">
        <ele>221</ele>
        <time>2016-12-10T14:54:59Z</time>
      </trkpt>
      <trkpt lat="45.94013" lon="4.80411">
        <ele>217</ele>
        <time>2016-12-10T14:55:00Z</time>
      </trkpt>
      <trkpt lat="45.94009" lon="4.80398">
        <ele>217</ele>
        <time>2016-12-10T14:55:01Z</time>
      </trkpt>
      <trkpt lat="45.94005" lon="4.80385">
        <ele>217</ele>
        <time>2016-12-10T14:55:02Z</time>
      </trkpt>
      <trkpt lat="45.94001" lon="4.80372">
        <ele>216</ele>
        <time>2016-12-10T14:55:03Z</time>
      </trkpt>
      <trkpt lat="45.93999" lon="4.80357">
        <ele>207</ele>
        <time>2016-12-10T14:55:04Z</time>
      </trkpt>
      <trkpt lat="45.93996" lon="4.80342">
        <ele>206</ele>
        <time>2016-12-10T14:55:05Z</time>
      </trkpt>
      <trkpt lat="45.93993" lon="4.80327">
        <ele>205</ele>
        <time>2016-12-10T14:55:06Z</time>
      </trkpt>
      <trkpt lat="45.93989" lon="4.80313">
        <ele>204</ele>
        <time>2016-12-10T14:55:07Z</time>
      </trkpt>
      <trkpt lat="45.93985" lon="4.80298">
        <ele>203</ele>
        <time>2016-12-10T14:55:08Z</time>
      </trkpt>
      <trkpt lat="45.93981" lon="4.80284">
        <ele>203</ele>
        <time>2016-12-10T14:55:09Z</time>
      </trkpt>
      <trkpt lat="45.93978" lon="4.80269">
        <ele>203</ele>
        <time>2016-12-10T14:55:10Z</time>
      </trkpt>
      <trkpt lat="45.93974" lon="4.80255">
        <ele>203</ele>
        <time>2016-12-10T14:55:11Z</time>
      </trkpt>
      <trkpt lat="45.9397" lon="4.80242">
        <ele>205</ele>
        <time>2016-12-10T14:55:12Z</time>
      </trkpt>
      <trkpt lat="45.93967" lon="4.80229">
        <ele>205</ele>
        <time>2016-12-10T14:55:13Z</time>
      </trkpt>
      <trkpt lat="45.93964" lon="4.80216">
        <ele>205</ele>
        <time>2016-12-10T14:55:14Z</time>
      </trkpt>
      <trkpt lat="45.9396" lon="4.80204">
        <ele>206</ele>
        <time>2016-12-10T14:55:15Z</time>
      </trkpt>
      <trkpt lat="45.93958" lon="4.80191">
        <ele>206</ele>
        <time>2016-12-10T14:55:16Z</time>
      </trkpt>
      <trkpt lat="45.93955" lon="4.8018">
        <ele>206</ele>
        <time>2016-12-10T14:55:17Z</time>
      </trkpt>
      <trkpt lat="45.93953" lon="4.80168">
        <ele>206</ele>
        <time>2016-12-10T14:55:18Z</time>
      </trkpt>
      <trkpt lat="45.93951" lon="4.80158">
        <ele>209</ele>
        <time>2016-12-10T14:55:19Z</time>
      </trkpt>
      <trkpt lat="45.93949" lon="4.80147">
        <ele>209</ele>
        <time>2016-12-10T14:55:20Z</time>
      </trkpt>
      <trkpt lat="45.93948" lon="4.80137">
        <ele>209</ele>
        <time>2016-12-10T14:55:21Z</time>
      </trkpt>
      <trkpt lat="45.93947" lon="4.80128">
        <ele>209</ele>
        <time>2016-12-10T14:55:22Z</time>
      </trkpt>
      <trkpt lat="45.93946" lon="4.80118">
        <ele>209</ele>
        <time>2016-12-10T14:55:23Z</time>
      </trkpt>
      <trkpt lat="45.93945" lon="4.80108">
        <ele>209</ele>
        <time>2016-12-10T14:55:24Z</time>
      </trkpt>
      <trkpt lat="45.93944" lon="4.80099">
        <ele>209</ele>
        <time>2016-12-10T14:55:25Z</time>
      </trkpt>
      <trkpt lat="45.93944" lon="4.80089">
        <ele>208</ele>
        <time>2016-12-10T14:55:26Z</time>
      </trkpt>
      <trkpt lat="45.93943" lon="4.80079">
        <ele>208</ele>
        <time>2016-12-10T14:55:27Z</time>
      </trkpt>
      <trkpt lat="45.93943" lon="4.8007">
        <ele>208</ele>
        <time>2016-12-10T14:55:28Z</time>
      </trkpt>
      <trkpt lat="45.93944" lon="4.80061">
        <ele>208</ele>
        <time>2016-12-10T14:55:29Z</time>
      </trkpt>
      <trkpt lat="45.93944" lon="4.80051">
        <ele>208</ele>
        <time>2016-12-10T14:55:30Z</time>
      </trkpt>
      <trkpt lat="45.93945" lon="4.80041">
        <ele>207</ele>
        <time>2016-12-10T14:55:31Z</time>
      </trkpt>
      <trkpt lat="45.93946" lon="4.80032">
        <ele>207</ele>
        <time>2016-12-10T14:55:32Z</time>
      </trkpt>
      <trkpt lat="45.93947" lon="4.80022">
        <ele>207</ele>
        <time>2016-12-10T14:55:33Z</time>
      </trkpt>
      <trkpt lat="45.93948" lon="4.80013">
        <ele>207</ele>
        <time>2016-12-10T14:55:34Z</time>
      </trkpt>
      <trkpt lat="45.93949" lon="4.80004">
        <ele>207</ele>
        <time>2016-12-10T14:55:35Z</time>
      </trkpt>
      <trkpt lat="45.9395" lon="4.79995">
        <ele>205</ele>
        <time>2016-12-10T14:55:36Z</time>
      </trkpt>
      <trkpt lat="45.93951" lon="4.79985">
        <ele>205</ele>
        <time>2016-12-10T14:55:37Z</time>
      </trkpt>
      <trkpt lat="45.93952" lon="4.79976">
        <ele>205</ele>
        <time>2016-12-10T14:55:38Z</time>
      </trkpt>
      <trkpt lat="45.93954" lon="4.79967">
        <ele>205</ele>
        <time>2016-12-10T14:55:39Z</time>
      </trkpt>
      <trkpt lat="45.93955" lon="4.79958">
        <ele>205</ele>
        <time>2016-12-10T14:55:40Z</time>
      </trkpt>
      <trkpt lat="45.93956" lon="4.79948">
        <ele>205</ele>
        <time>2016-12-10T14:55:41Z</time>
      </trkpt>
      <trkpt lat="45.93957" lon="4.79938">
        <ele>205</ele>
        <time>2016-12-10T14:55:42Z</time>
      </trkpt>
      <trkpt lat="45.93959" lon="4.79928">
        <ele>205</ele>
        <time>2016-12-10T14:55:43Z</time>
      </trkpt>
      <trkpt lat="45.9396" lon="4.79918">
        <ele>205</ele>
        <time>2016-12-10T14:55:44Z</time>
      </trkpt>
      <trkpt lat="45.93962" lon="4.79909">
        <ele>206</ele>
        <time>2016-12-10T14:55:45Z</time>
      </trkpt>
      <trkpt lat="45.93963" lon="4.79899">
        <ele>206</ele>
        <time>2016-12-10T14:55:46Z</time>
      </trkpt>
      <trkpt lat="45.93965" lon="4.79889">
        <ele>206</ele>
        <time>2016-12-10T14:55:47Z</time>
      </trkpt>
      <trkpt lat="45.93966" lon="4.7988">
        <ele>206</ele>
        <time>2016-12-10T14:55:48Z</time>
      </trkpt>
      <trkpt lat="45.93967" lon="4.7987">
        <ele>206</ele>
        <time>2016-12-10T14:55:49Z</time>
      </trkpt>
      <trkpt lat="45.93969" lon="4.79861">
        <ele>206</ele>
        <time>2016-12-10T14:55:50Z</time>
      </trkpt>
      <trkpt lat="45.9397" lon="4.79851">
        <ele>206</ele>
        <time>2016-12-10T14:55:51Z</time>
      </trkpt>
      <trkpt lat="45.93972" lon="4.79843">
        <ele>207</ele>
        <time>2016-12-10T14:55:52Z</time>
      </trkpt>
      <trkpt lat="45.93974" lon="4.79834">
        <ele>207</ele>
        <time>2016-12-10T14:55:53Z</time>
      </trkpt>
      <trkpt lat="45.93975" lon="4.79825">
        <ele>207</ele>
        <time>2016-12-10T14:55:54Z</time>
      </trkpt>
      <trkpt lat="45.93976" lon="4.79816">
        <ele>207</ele>
        <time>2016-12-10T14:55:55Z</time>
      </trkpt>
      <trkpt lat="45.93978" lon="4.79807">
        <ele>207</ele>
        <time>2016-12-10T14:55:56Z</time>
      </trkpt>
      <trkpt lat="45.93979" lon="4.79797">
        <ele>207</ele>
        <time>2016-12-10T14:55:57Z</time>
      </trkpt>
      <trkpt lat="45.93979" lon="4.79789">
        <ele>207</ele>
        <time>2016-12-10T14:55:58Z</time>
      </trkpt>
      <trkpt lat="45.9398" lon="4.7978">
        <ele>207</ele>
        <time>2016-12-10T14:55:59Z</time>
      </trkpt>
      <trkpt lat="45.9398" lon="4.79771">
        <ele>207</ele>
        <time>2016-12-10T14:56:00Z</time>
      </trkpt>
      <trkpt lat="45.93979" lon="4.79762">
        <ele>207</ele>
        <time>2016-12-10T14:56:01Z</time>
      </trkpt>
      <trkpt lat="45.93978" lon="4.79753">
        <ele>207</ele>
        <time>2016-12-10T14:56:02Z</time>
      </trkpt>
      <trkpt lat="45.93977" lon="4.79745">
        <ele>207</ele>
        <time>2016-12-10T14:56:03Z</time>
      </trkpt>
      <trkpt lat="45.93977" lon="4.79736">
        <ele>207</ele>
        <time>2016-12-10T14:56:04Z</time>
      </trkpt>
      <trkpt lat="45.93976" lon="4.79728">
        <ele>207</ele>
        <time>2016-12-10T14:56:05Z</time>
      </trkpt>
      <trkpt lat="45.93975" lon="4.7972">
        <ele>207</ele>
        <time>2016-12-10T14:56:06Z</time>
      </trkpt>
      <trkpt lat="45.93974" lon="4.79711">
        <ele>207</ele>
        <time>2016-12-10T14:56:07Z</time>
      </trkpt>
      <trkpt lat="45.93973" lon="4.79702">
        <ele>207</ele>
        <time>2016-12-10T14:56:08Z</time>
      </trkpt>
      <trkpt lat="45.93972" lon="4.79694">
        <ele>207</ele>
        <time>2016-12-10T14:56:09Z</time>
      </trkpt>
      <trkpt lat="45.93971" lon="4.79685">
        <ele>207</ele>
        <time>2016-12-10T14:56:10Z</time>
      </trkpt>
      <trkpt lat="45.93971" lon="4.79677">
        <ele>208</ele>
        <time>2016-12-10T14:56:11Z</time>
      </trkpt>
      <trkpt lat="45.9397" lon="4.79668">
        <ele>208</ele>
        <time>2016-12-10T14:56:12Z</time>
      </trkpt>
      <trkpt lat="45.93969" lon="4.79659">
        <ele>208</ele>
        <time>2016-12-10T14:56:13Z</time>
      </trkpt>
      <trkpt lat="45.93969" lon="4.79651">
        <ele>208</ele>
        <time>2016-12-10T14:56:14Z</time>
      </trkpt>
      <trkpt lat="45.93968" lon="4.79642">
        <ele>207</ele>
        <time>2016-12-10T14:56:15Z</time>
      </trkpt>
      <trkpt lat="45.93967" lon="4.79633">
        <ele>207</ele>
        <time>2016-12-10T14:56:16Z</time>
      </trkpt>
      <trkpt lat="45.93966" lon="4.79624">
        <ele>207</ele>
        <time>2016-12-10T14:56:17Z</time>
      </trkpt>
      <trkpt lat="45.93966" lon="4.79615">
        <ele>207</ele>
        <time>2016-12-10T14:56:18Z</time>
      </trkpt>
      <trkpt lat="45.93965" lon="4.79606">
        <ele>207</ele>
        <time>2016-12-10T14:56:19Z</time>
      </trkpt>
      <trkpt lat="45.93964" lon="4.79598">
        <ele>207</ele>
        <time>2016-12-10T14:56:20Z</time>
      </trkpt>
      <trkpt lat="45.93963" lon="4.79589">
        <ele>207</ele>
        <time>2016-12-10T14:56:21Z</time>
      </trkpt>
      <trkpt lat="45.93962" lon="4.7958">
        <ele>206</ele>
        <time>2016-12-10T14:56:22Z</time>
      </trkpt>
      <trkpt lat="45.93962" lon="4.79571">
        <ele>206</ele>
        <time>2016-12-10T14:56:23Z</time>
      </trkpt>
      <trkpt lat="45.9396" lon="4.79562">
        <ele>205</ele>
        <time>2016-12-10T14:56:24Z</time>
      </trkpt>
      <trkpt lat="45.93959" lon="4.79553">
        <ele>205</ele>
        <time>2016-12-10T14:56:25Z</time>
      </trkpt>
      <trkpt lat="45.93959" lon="4.79543">
        <ele>205</ele>
        <time>2016-12-10T14:56:26Z</time>
      </trkpt>
      <trkpt lat="45.93959" lon="4.79533">
        <ele>205</ele>
        <time>2016-12-10T14:56:27Z</time>
      </trkpt>
      <trkpt lat="45.93959" lon="4.79524">
        <ele>205</ele>
        <time>2016-12-10T14:56:28Z</time>
      </trkpt>
      <trkpt lat="45.93959" lon="4.79514">
        <ele>205</ele>
        <time>2016-12-10T14:56:29Z</time>
      </trkpt>
      <trkpt lat="45.93959" lon="4.79504">
        <ele>204</ele>
        <time>2016-12-10T14:56:30Z</time>
      </trkpt>
      <trkpt lat="45.93958" lon="4.79493">
        <ele>203</ele>
        <time>2016-12-10T14:56:31Z</time>
      </trkpt>
      <trkpt lat="45.93958" lon="4.79482">
        <ele>203</ele>
        <time>2016-12-10T14:56:32Z</time>
      </trkpt>
      <trkpt lat="45.93958" lon="4.79471">
        <ele>203</ele>
        <time>2016-12-10T14:56:33Z</time>
      </trkpt>
      <trkpt lat="45.93958" lon="4.79461">
        <ele>203</ele>
        <time>2016-12-10T14:56:34Z</time>
      </trkpt>
      <trkpt lat="45.93958" lon="4.7945">
        <ele>203</ele>
        <time>2016-12-10T14:56:35Z</time>
      </trkpt>
      <trkpt lat="45.93958" lon="4.7944">
        <ele>203</ele>
        <time>2016-12-10T14:56:36Z</time>
      </trkpt>
      <trkpt lat="45.93958" lon="4.79428">
        <ele>203</ele>
        <time>2016-12-10T14:56:37Z</time>
      </trkpt>
      <trkpt lat="45.93958" lon="4.79418">
        <ele>203</ele>
        <time>2016-12-10T14:56:38Z</time>
      </trkpt>
      <trkpt lat="45.93958" lon="4.79408">
        <ele>202</ele>
        <time>2016-12-10T14:56:39Z</time>
      </trkpt>
      <trkpt lat="45.93957" lon="4.79398">
        <ele>201</ele>
        <time>2016-12-10T14:56:40Z</time>
      </trkpt>
      <trkpt lat="45.93958" lon="4.79387">
        <ele>201</ele>
        <time>2016-12-10T14:56:41Z</time>
      </trkpt>
      <trkpt lat="45.93958" lon="4.79376">
        <ele>201</ele>
        <time>2016-12-10T14:56:42Z</time>
      </trkpt>
      <trkpt lat="45.93958" lon="4.79365">
        <ele>201</ele>
        <time>2016-12-10T14:56:43Z</time>
      </trkpt>
      <trkpt lat="45.93958" lon="4.79354">
        <ele>201</ele>
        <time>2016-12-10T14:56:44Z</time>
      </trkpt>
      <trkpt lat="45.93958" lon="4.79344">
        <ele>201</ele>
        <time>2016-12-10T14:56:45Z</time>
      </trkpt>
      <trkpt lat="45.93958" lon="4.79334">
        <ele>201</ele>
        <time>2016-12-10T14:56:46Z</time>
      </trkpt>
      <trkpt lat="45.93958" lon="4.79323">
        <ele>199</ele>
        <time>2016-12-10T14:56:47Z</time>
      </trkpt>
      <trkpt lat="45.93958" lon="4.79313">
        <ele>199</ele>
        <time>2016-12-10T14:56:48Z</time>
      </trkpt>
      <trkpt lat="45.93958" lon="4.79302">
        <ele>199</ele>
        <time>2016-12-10T14:56:49Z</time>
      </trkpt>
      <trkpt lat="45.93957" lon="4.79292">
        <ele>199</ele>
        <time>2016-12-10T14:56:50Z</time>
      </trkpt>
      <trkpt lat="45.93957" lon="4.79281">
        <ele>199</ele>
        <time>2016-12-10T14:56:51Z</time>
      </trkpt>
      <trkpt lat="45.93957" lon="4.79271">
        <ele>198</ele>
        <time>2016-12-10T14:56:52Z</time>
      </trkpt>
      <trkpt lat="45.93957" lon="4.7926">
        <ele>198</ele>
        <time>2016-12-10T14:56:53Z</time>
      </trkpt>
      <trkpt lat="45.93956" lon="4.7925">
        <ele>198</ele>
        <time>2016-12-10T14:56:54Z</time>
      </trkpt>
      <trkpt lat="45.93957" lon="4.7924">
        <ele>197</ele>
        <time>2016-12-10T14:56:55Z</time>
      </trkpt>
      <trkpt lat="45.93957" lon="4.7923">
        <ele>197</ele>
        <time>2016-12-10T14:56:56Z</time>
      </trkpt>
      <trkpt lat="45.93957" lon="4.79219">
        <ele>197</ele>
        <time>2016-12-10T14:56:57Z</time>
      </trkpt>
      <trkpt lat="45.93957" lon="4.79209">
        <ele>197</ele>
        <time>2016-12-10T14:56:58Z</time>
      </trkpt>
      <trkpt lat="45.93957" lon="4.79197">
        <ele>197</ele>
        <time>2016-12-10T14:56:59Z</time>
      </trkpt>
      <trkpt lat="45.93957" lon="4.79186">
        <ele>197</ele>
        <time>2016-12-10T14:57:00Z</time>
      </trkpt>
      <trkpt lat="45.93957" lon="4.79176">
        <ele>197</ele>
        <time>2016-12-10T14:57:01Z</time>
      </trkpt>
      <trkpt lat="45.93956" lon="4.79165">
        <ele>197</ele>
        <time>2016-12-10T14:57:02Z</time>
      </trkpt>
      <trkpt lat="45.93955" lon="4.79154">
        <ele>197</ele>
        <time>2016-12-10T14:57:03Z</time>
      </trkpt>
      <trkpt lat="45.93954" lon="4.79144">
        <ele>197</ele>
        <time>2016-12-10T14:57:04Z</time>
      </trkpt>
      <trkpt lat="45.93954" lon="4.79133">
        <ele>197</ele>
        <time>2016-12-10T14:57:05Z</time>
      </trkpt>
      <trkpt lat="45.93954" lon="4.79122">
        <ele>197</ele>
        <time>2016-12-10T14:57:06Z</time>
      </trkpt>
      <trkpt lat="45.93954" lon="4.79111">
        <ele>197</ele>
        <time>2016-12-10T14:57:07Z</time>
      </trkpt>
      <trkpt lat="45.93954" lon="4.791">
        <ele>197</ele>
        <time>2016-12-10T14:57:08Z</time>
      </trkpt>
      <trkpt lat="45.93953" lon="4.79089">
        <ele>197</ele>
        <time>2016-12-10T14:57:09Z</time>
      </trkpt>
      <trkpt lat="45.93953" lon="4.79078">
        <ele>196</ele>
        <time>2016-12-10T14:57:10Z</time>
      </trkpt>
      <trkpt lat="45.93952" lon="4.79068">
        <ele>196</ele>
        <time>2016-12-10T14:57:11Z</time>
      </trkpt>
      <trkpt lat="45.93952" lon="4.79057">
        <ele>196</ele>
        <time>2016-12-10T14:57:12Z</time>
      </trkpt>
      <trkpt lat="45.93952" lon="4.79046">
        <ele>196</ele>
        <time>2016-12-10T14:57:13Z</time>
      </trkpt>
      <trkpt lat="45.93952" lon="4.79036">
        <ele>196</ele>
        <time>2016-12-10T14:57:14Z</time>
      </trkpt>
      <trkpt lat="45.93952" lon="4.79025">
        <ele>196</ele>
        <time>2016-12-10T14:57:15Z</time>
      </trkpt>
      <trkpt lat="45.93951" lon="4.79015">
        <ele>195</ele>
        <time>2016-12-10T14:57:16Z</time>
      </trkpt>
      <trkpt lat="45.93951" lon="4.79004">
        <ele>195</ele>
        <time>2016-12-10T14:57:17Z</time>
      </trkpt>
      <trkpt lat="45.9395" lon="4.78994">
        <ele>194</ele>
        <time>2016-12-10T14:57:18Z</time>
      </trkpt>
      <trkpt lat="45.9395" lon="4.78984">
        <ele>194</ele>
        <time>2016-12-10T14:57:19Z</time>
      </trkpt>
      <trkpt lat="45.9395" lon="4.78973">
        <ele>194</ele>
        <time>2016-12-10T14:57:20Z</time>
      </trkpt>
      <trkpt lat="45.9395" lon="4.78963">
        <ele>194</ele>
        <time>2016-12-10T14:57:21Z</time>
      </trkpt>
      <trkpt lat="45.93949" lon="4.78953">
        <ele>194</ele>
        <time>2016-12-10T14:57:22Z</time>
      </trkpt>
      <trkpt lat="45.93948" lon="4.78942">
        <ele>194</ele>
        <time>2016-12-10T14:57:23Z</time>
      </trkpt>
      <trkpt lat="45.93947" lon="4.78932">
        <ele>194</ele>
        <time>2016-12-10T14:57:24Z</time>
      </trkpt>
      <trkpt lat="45.93946" lon="4.7892">
        <ele>194</ele>
        <time>2016-12-10T14:57:25Z</time>
      </trkpt>
      <trkpt lat="45.93946" lon="4.78909">
        <ele>193</ele>
        <time>2016-12-10T14:57:26Z</time>
      </trkpt>
      <trkpt lat="45.93945" lon="4.78899">
        <ele>194</ele>
        <time>2016-12-10T14:57:27Z</time>
      </trkpt>
      <trkpt lat="45.93945" lon="4.78889">
        <ele>194</ele>
        <time>2016-12-10T14:57:28Z</time>
      </trkpt>
      <trkpt lat="45.93944" lon="4.78879">
        <ele>194</ele>
        <time>2016-12-10T14:57:29Z</time>
      </trkpt>
      <trkpt lat="45.93944" lon="4.78868">
        <ele>194</ele>
        <time>2016-12-10T14:57:30Z</time>
      </trkpt>
      <trkpt lat="45.93943" lon="4.78857">
        <ele>194</ele>
        <time>2016-12-10T14:57:31Z</time>
      </trkpt>
      <trkpt lat="45.93942" lon="4.78847">
        <ele>194</ele>
        <time>2016-12-10T14:57:32Z</time>
      </trkpt>
      <trkpt lat="45.93942" lon="4.78837">
        <ele>193</ele>
        <time>2016-12-10T14:57:33Z</time>
      </trkpt>
      <trkpt lat="45.93942" lon="4.78826">
        <ele>194</ele>
        <time>2016-12-10T14:57:34Z</time>
      </trkpt>
      <trkpt lat="45.93941" lon="4.78816">
        <ele>194</ele>
        <time>2016-12-10T14:57:35Z</time>
      </trkpt>
      <trkpt lat="45.93941" lon="4.78806">
        <ele>194</ele>
        <time>2016-12-10T14:57:36Z</time>
      </trkpt>
      <trkpt lat="45.93941" lon="4.78795">
        <ele>194</ele>
        <time>2016-12-10T14:57:37Z</time>
      </trkpt>
      <trkpt lat="45.93941" lon="4.78785">
        <ele>194</ele>
        <time>2016-12-10T14:57:38Z</time>
      </trkpt>
      <trkpt lat="45.93941" lon="4.78775">
        <ele>194</ele>
        <time>2016-12-10T14:57:39Z</time>
      </trkpt>
      <trkpt lat="45.93941" lon="4.78765">
        <ele>194</ele>
        <time>2016-12-10T14:57:40Z</time>
      </trkpt>
      <trkpt lat="45.93941" lon="4.78756">
        <ele>193</ele>
        <time>2016-12-10T14:57:41Z</time>
      </trkpt>
      <trkpt lat="45.93941" lon="4.78747">
        <ele>193</ele>
        <time>2016-12-10T14:57:42Z</time>
      </trkpt>
      <trkpt lat="45.93941" lon="4.78737">
        <ele>194</ele>
        <time>2016-12-10T14:57:43Z</time>
      </trkpt>
      <trkpt lat="45.9394" lon="4.78727">
        <ele>194</ele>
        <time>2016-12-10T14:57:44Z</time>
      </trkpt>
      <trkpt lat="45.9394" lon="4.78718">
        <ele>194</ele>
        <time>2016-12-10T14:57:45Z</time>
      </trkpt>
      <trkpt lat="45.9394" lon="4.78709">
        <ele>194</ele>
        <time>2016-12-10T14:57:46Z</time>
      </trkpt>
      <trkpt lat="45.9394" lon="4.78701">
        <ele>194</ele>
        <time>2016-12-10T14:57:47Z</time>
      </trkpt>
      <trkpt lat="45.9394" lon="4.78692">
        <ele>194</ele>
        <time>2016-12-10T14:57:48Z</time>
      </trkpt>
      <trkpt lat="45.9394" lon="4.78683">
        <ele>194</ele>
        <time>2016-12-10T14:57:49Z</time>
      </trkpt>
      <trkpt lat="45.9394" lon="4.78674">
        <ele>194</ele>
        <time>2016-12-10T14:57:50Z</time>
      </trkpt>
      <trkpt lat="45.9394" lon="4.78664">
        <ele>194</ele>
        <time>2016-12-10T14:57:51Z</time>
      </trkpt>
      <trkpt lat="45.93941" lon="4.78655">
        <ele>195</ele>
        <time>2016-12-10T14:57:52Z</time>
      </trkpt>
      <trkpt lat="45.93941" lon="4.78646">
        <ele>195</ele>
        <time>2016-12-10T14:57:53Z</time>
      </trkpt>
      <trkpt lat="45.9394" lon="4.78637">
        <ele>195</ele>
        <time>2016-12-10T14:57:54Z</time>
      </trkpt>
      <trkpt lat="45.9394" lon="4.78628">
        <ele>196</ele>
        <time>2016-12-10T14:57:55Z</time>
      </trkpt>
      <trkpt lat="45.9394" lon="4.78619">
        <ele>196</ele>
        <time>2016-12-10T14:57:56Z</time>
      </trkpt>
      <trkpt lat="45.9394" lon="4.78611">
        <ele>196</ele>
        <time>2016-12-10T14:57:57Z</time>
      </trkpt>
      <trkpt lat="45.9394" lon="4.78602">
        <ele>196</ele>
        <time>2016-12-10T14:57:58Z</time>
      </trkpt>
      <trkpt lat="45.9394" lon="4.78595">
        <ele>196</ele>
        <time>2016-12-10T14:57:59Z</time>
      </trkpt>
      <trkpt lat="45.93939" lon="4.78589">
        <ele>196</ele>
        <time>2016-12-10T14:58:00Z</time>
      </trkpt>
      <trkpt lat="45.93938" lon="4.78582">
        <ele>196</ele>
        <time>2016-12-10T14:58:01Z</time>
      </trkpt>
      <trkpt lat="45.93937" lon="4.7857">
        <ele>196</ele>
        <time>2016-12-10T14:58:03Z</time>
      </trkpt>
      <trkpt lat="45.93936" lon="4.78565">
        <ele>197</ele>
        <time>2016-12-10T14:58:04Z</time>
      </trkpt>
      <trkpt lat="45.93935" lon="4.78556">
        <ele>197</ele>
        <time>2016-12-10T14:58:06Z</time>
      </trkpt>
      <trkpt lat="45.93935" lon="4.78551">
        <ele>197</ele>
        <time>2016-12-10T14:58:07Z</time>
      </trkpt>
      <trkpt lat="45.93938" lon="4.78542">
        <ele>197</ele>
        <time>2016-12-10T14:58:09Z</time>
      </trkpt>
      <trkpt lat="45.9394" lon="4.78536">
        <ele>197</ele>
        <time>2016-12-10T14:58:10Z</time>
      </trkpt>
      <trkpt lat="45.93941" lon="4.78524">
        <ele>197</ele>
        <time>2016-12-10T14:58:12Z</time>
      </trkpt>
      <trkpt lat="45.93941" lon="4.78517">
        <ele>197</ele>
        <time>2016-12-10T14:58:13Z</time>
      </trkpt>
      <trkpt lat="45.93941" lon="4.7851">
        <ele>197</ele>
        <time>2016-12-10T14:58:14Z</time>
      </trkpt>
      <trkpt lat="45.93942" lon="4.78504">
        <ele>197</ele>
        <time>2016-12-10T14:58:15Z</time>
      </trkpt>
      <trkpt lat="45.93942" lon="4.78491">
        <ele>197</ele>
        <time>2016-12-10T14:58:17Z</time>
      </trkpt>
      <trkpt lat="45.93944" lon="4.78484">
        <ele>197</ele>
        <time>2016-12-10T14:58:18Z</time>
      </trkpt>
      <trkpt lat="45.93944" lon="4.78477">
        <ele>197</ele>
        <time>2016-12-10T14:58:19Z</time>
      </trkpt>
      <trkpt lat="45.93945" lon="4.7847">
        <ele>197</ele>
        <time>2016-12-10T14:58:20Z</time>
      </trkpt>
      <trkpt lat="45.93946" lon="4.78463">
        <ele>197</ele>
        <time>2016-12-10T14:58:21Z</time>
      </trkpt>
      <trkpt lat="45.93947" lon="4.78456">
        <ele>197</ele>
        <time>2016-12-10T14:58:22Z</time>
      </trkpt>
      <trkpt lat="45.93948" lon="4.78449">
        <ele>197</ele>
        <time>2016-12-10T14:58:23Z</time>
      </trkpt>
      <trkpt lat="45.93948" lon="4.78443">
        <ele>197</ele>
        <time>2016-12-10T14:58:24Z</time>
      </trkpt>
      <trkpt lat="45.9395" lon="4.78435">
        <ele>197</ele>
        <time>2016-12-10T14:58:25Z</time>
      </trkpt>
      <trkpt lat="45.9395" lon="4.78428">
        <ele>197</ele>
        <time>2016-12-10T14:58:26Z</time>
      </trkpt>
      <trkpt lat="45.93951" lon="4.78421">
        <ele>197</ele>
        <time>2016-12-10T14:58:27Z</time>
      </trkpt>
      <trkpt lat="45.93952" lon="4.78414">
        <ele>196</ele>
        <time>2016-12-10T14:58:28Z</time>
      </trkpt>
      <trkpt lat="45.93953" lon="4.78408">
        <ele>196</ele>
        <time>2016-12-10T14:58:29Z</time>
      </trkpt>
      <trkpt lat="45.93954" lon="4.78401">
        <ele>196</ele>
        <time>2016-12-10T14:58:30Z</time>
      </trkpt>
      <trkpt lat="45.93955" lon="4.78393">
        <ele>196</ele>
        <time>2016-12-10T14:58:31Z</time>
      </trkpt>
      <trkpt lat="45.93956" lon="4.78386">
        <ele>196</ele>
        <time>2016-12-10T14:58:32Z</time>
      </trkpt>
      <trkpt lat="45.93957" lon="4.78379">
        <ele>196</ele>
        <time>2016-12-10T14:58:33Z</time>
      </trkpt>
      <trkpt lat="45.93957" lon="4.78372">
        <ele>196</ele>
        <time>2016-12-10T14:58:34Z</time>
      </trkpt>
      <trkpt lat="45.93957" lon="4.78366">
        <ele>196</ele>
        <time>2016-12-10T14:58:35Z</time>
      </trkpt>
      <trkpt lat="45.93958" lon="4.78359">
        <ele>196</ele>
        <time>2016-12-10T14:58:36Z</time>
      </trkpt>
      <trkpt lat="45.93959" lon="4.78348">
        <ele>196</ele>
        <time>2016-12-10T14:58:38Z</time>
      </trkpt>
      <trkpt lat="45.93959" lon="4.78343">
        <ele>196</ele>
        <time>2016-12-10T14:58:39Z</time>
      </trkpt>
      <trkpt lat="45.93961" lon="4.78331">
        <ele>195</ele>
        <time>2016-12-10T14:58:41Z</time>
      </trkpt>
      <trkpt lat="45.93962" lon="4.78325">
        <ele>196</ele>
        <time>2016-12-10T14:58:42Z</time>
      </trkpt>
      <trkpt lat="45.93963" lon="4.78315">
        <ele>196</ele>
        <time>2016-12-10T14:58:44Z</time>
      </trkpt>
      <trkpt lat="45.93965" lon="4.78307">
        <ele>196</ele>
        <time>2016-12-10T14:58:45Z</time>
      </trkpt>
      <trkpt lat="45.93967" lon="4.783">
        <ele>196</ele>
        <time>2016-12-10T14:58:46Z</time>
      </trkpt>
      <trkpt lat="45.93968" lon="4.78292">
        <ele>196</ele>
        <time>2016-12-10T14:58:47Z</time>
      </trkpt>
      <trkpt lat="45.93968" lon="4.78285">
        <ele>196</ele>
        <time>2016-12-10T14:58:48Z</time>
      </trkpt>
      <trkpt lat="45.9397" lon="4.78277">
        <ele>196</ele>
        <time>2016-12-10T14:58:49Z</time>
      </trkpt>
      <trkpt lat="45.93971" lon="4.7827">
        <ele>196</ele>
        <time>2016-12-10T14:58:50Z</time>
      </trkpt>
      <trkpt lat="45.93973" lon="4.78263">
        <ele>196</ele>
        <time>2016-12-10T14:58:51Z</time>
      </trkpt>
      <trkpt lat="45.93974" lon="4.78256">
        <ele>196</ele>
        <time>2016-12-10T14:58:52Z</time>
      </trkpt>
      <trkpt lat="45.93975" lon="4.78248">
        <ele>197</ele>
        <time>2016-12-10T14:58:53Z</time>
      </trkpt>
      <trkpt lat="45.93975" lon="4.78241">
        <ele>197</ele>
        <time>2016-12-10T14:58:54Z</time>
      </trkpt>
      <trkpt lat="45.93975" lon="4.78235">
        <ele>196</ele>
        <time>2016-12-10T14:58:55Z</time>
      </trkpt>
      <trkpt lat="45.93975" lon="4.78227">
        <ele>196</ele>
        <time>2016-12-10T14:58:56Z</time>
      </trkpt>
      <trkpt lat="45.93976" lon="4.78219">
        <ele>197</ele>
        <time>2016-12-10T14:58:57Z</time>
      </trkpt>
      <trkpt lat="45.93978" lon="4.78212">
        <ele>197</ele>
        <time>2016-12-10T14:58:58Z</time>
      </trkpt>
      <trkpt lat="45.93979" lon="4.78205">
        <ele>197</ele>
        <time>2016-12-10T14:58:59Z</time>
      </trkpt>
      <trkpt lat="45.9398" lon="4.78198">
        <ele>197</ele>
        <time>2016-12-10T14:59:00Z</time>
      </trkpt>
      <trkpt lat="45.93983" lon="4.78191">
        <ele>197</ele>
        <time>2016-12-10T14:59:01Z</time>
      </trkpt>
      <trkpt lat="45.93986" lon="4.78184">
        <ele>198</ele>
        <time>2016-12-10T14:59:02Z</time>
      </trkpt>
      <trkpt lat="45.93988" lon="4.78177">
        <ele>199</ele>
        <time>2016-12-10T14:59:03Z</time>
      </trkpt>
      <trkpt lat="45.93991" lon="4.7817">
        <ele>199</ele>
        <time>2016-12-10T14:59:04Z</time>
      </trkpt>
      <trkpt lat="45.93993" lon="4.78165">
        <ele>200</ele>
        <time>2016-12-10T14:59:05Z</time>
      </trkpt>
      <trkpt lat="45.93996" lon="4.78154">
        <ele>199</ele>
        <time>2016-12-10T14:59:07Z</time>
      </trkpt>
      <trkpt lat="45.93997" lon="4.78148">
        <ele>198</ele>
        <time>2016-12-10T14:59:08Z</time>
      </trkpt>
      <trkpt lat="45.93999" lon="4.78136">
        <ele>198</ele>
        <time>2016-12-10T14:59:10Z</time>
      </trkpt>
      <trkpt lat="45.94" lon="4.78131">
        <ele>198</ele>
        <time>2016-12-10T14:59:11Z</time>
      </trkpt>
      <trkpt lat="45.94002" lon="4.78119">
        <ele>203</ele>
        <time>2016-12-10T14:59:13Z</time>
      </trkpt>
      <trkpt lat="45.94003" lon="4.78114">
        <ele>203</ele>
        <time>2016-12-10T14:59:14Z</time>
      </trkpt>
      <trkpt lat="45.94005" lon="4.78102">
        <ele>202</ele>
        <time>2016-12-10T14:59:16Z</time>
      </trkpt>
      <trkpt lat="45.94005" lon="4.78096">
        <ele>201</ele>
        <time>2016-12-10T14:59:17Z</time>
      </trkpt>
      <trkpt lat="45.94005" lon="4.78089">
        <ele>200</ele>
        <time>2016-12-10T14:59:18Z</time>
      </trkpt>
      <trkpt lat="45.94005" lon="4.78082">
        <ele>200</ele>
        <time>2016-12-10T14:59:19Z</time>
      </trkpt>
      <trkpt lat="45.94005" lon="4.7807">
        <ele>201</ele>
        <time>2016-12-10T14:59:21Z</time>
      </trkpt>
      <trkpt lat="45.94007" lon="4.78063">
        <ele>201</ele>
        <time>2016-12-10T14:59:22Z</time>
      </trkpt>
      <trkpt lat="45.94008" lon="4.78056">
        <ele>201</ele>
        <time>2016-12-10T14:59:23Z</time>
      </trkpt>
      <trkpt lat="45.9401" lon="4.7805">
        <ele>201</ele>
        <time>2016-12-10T14:59:24Z</time>
      </trkpt>
      <trkpt lat="45.94013" lon="4.78038">
        <ele>201</ele>
        <time>2016-12-10T14:59:26Z</time>
      </trkpt>
      <trkpt lat="45.94014" lon="4.78033">
        <ele>201</ele>
        <time>2016-12-10T14:59:27Z</time>
      </trkpt>
      <trkpt lat="45.94015" lon="4.7802">
        <ele>200</ele>
        <time>2016-12-10T14:59:29Z</time>
      </trkpt>
      <trkpt lat="45.94016" lon="4.78014">
        <ele>200</ele>
        <time>2016-12-10T14:59:30Z</time>
      </trkpt>
      <trkpt lat="45.94018" lon="4.78008">
        <ele>200</ele>
        <time>2016-12-10T14:59:31Z</time>
      </trkpt>
      <trkpt lat="45.94019" lon="4.78001">
        <ele>200</ele>
        <time>2016-12-10T14:59:32Z</time>
      </trkpt>
      <trkpt lat="45.9402" lon="4.77989">
        <ele>199</ele>
        <time>2016-12-10T14:59:34Z</time>
      </trkpt>
      <trkpt lat="45.9402" lon="4.77983">
        <ele>200</ele>
        <time>2016-12-10T14:59:35Z</time>
      </trkpt>
      <trkpt lat="45.94021" lon="4.77976">
        <ele>200</ele>
        <time>2016-12-10T14:59:36Z</time>
      </trkpt>
      <trkpt lat="45.94022" lon="4.7797">
        <ele>200</ele>
        <time>2016-12-10T14:59:37Z</time>
      </trkpt>
      <trkpt lat="45.94025" lon="4.77959">
        <ele>200</ele>
        <time>2016-12-10T14:59:39Z</time>
      </trkpt>
      <trkpt lat="45.94027" lon="4.77954">
        <ele>200</ele>
        <time>2016-12-10T14:59:40Z</time>
      </trkpt>
      <trkpt lat="45.94029" lon="4.77941">
        <ele>200</ele>
        <time>2016-12-10T14:59:43Z</time>
      </trkpt>
      <trkpt lat="45.94029" lon="4.77935">
        <ele>200</ele>
        <time>2016-12-10T14:59:44Z</time>
      </trkpt>
      <trkpt lat="45.94026" lon="4.77925">
        <ele>199</ele>
        <time>2016-12-10T14:59:46Z</time>
      </trkpt>
      <trkpt lat="45.94021" lon="4.77924">
        <ele>199</ele>
        <time>2016-12-10T14:59:47Z</time>
      </trkpt>
      <trkpt lat="45.94015" lon="4.77924">
        <ele>198</ele>
        <time>2016-12-10T14:59:48Z</time>
      </trkpt>
      <trkpt lat="45.9401" lon="4.77925">
        <ele>197</ele>
        <time>2016-12-10T14:59:49Z</time>
      </trkpt>
      <trkpt lat="45.94003" lon="4.77927">
        <ele>196</ele>
        <time>2016-12-10T14:59:50Z</time>
      </trkpt>
      <trkpt lat="45.93997" lon="4.77929">
        <ele>192</ele>
        <time>2016-12-10T14:59:51Z</time>
      </trkpt>
      <trkpt lat="45.9399" lon="4.77933">
        <ele>192</ele>
        <time>2016-12-10T14:59:52Z</time>
      </trkpt>
      <trkpt lat="45.93982" lon="4.77937">
        <ele>191</ele>
        <time>2016-12-10T14:59:53Z</time>
      </trkpt>
      <trkpt lat="45.93974" lon="4.77943">
        <ele>191</ele>
        <time>2016-12-10T14:59:54Z</time>
      </trkpt>
      <trkpt lat="45.93966" lon="4.77948">
        <ele>190</ele>
        <time>2016-12-10T14:59:55Z</time>
      </trkpt>
      <trkpt lat="45.93958" lon="4.77953">
        <ele>190</ele>
        <time>2016-12-10T14:59:56Z</time>
      </trkpt>
      <trkpt lat="45.9395" lon="4.77959">
        <ele>189</ele>
        <time>2016-12-10T14:59:57Z</time>
      </trkpt>
      <trkpt lat="45.93942" lon="4.77964">
        <ele>189</ele>
        <time>2016-12-10T14:59:58Z</time>
      </trkpt>
      <trkpt lat="45.93933" lon="4.77969">
        <ele>189</ele>
        <time>2016-12-10T14:59:59Z</time>
      </trkpt>
      <trkpt lat="45.93926" lon="4.77975">
        <ele>188</ele>
        <time>2016-12-10T15:00:00Z</time>
      </trkpt>
      <trkpt lat="45.93918" lon="4.7798">
        <ele>188</ele>
        <time>2016-12-10T15:00:01Z</time>
      </trkpt>
      <trkpt lat="45.93911" lon="4.77986">
        <ele>183</ele>
        <time>2016-12-10T15:00:02Z</time>
      </trkpt>
      <trkpt lat="45.93903" lon="4.7799">
        <ele>183</ele>
        <time>2016-12-10T15:00:03Z</time>
      </trkpt>
      <trkpt lat="45.93898" lon="4.77995">
        <ele>182</ele>
        <time>2016-12-10T15:00:04Z</time>
      </trkpt>
      <trkpt lat="45.93892" lon="4.78">
        <ele>184</ele>
        <time>2016-12-10T15:00:05Z</time>
      </trkpt>
      <trkpt lat="45.93888" lon="4.78004">
        <ele>184</ele>
        <time>2016-12-10T15:00:06Z</time>
      </trkpt>
      <trkpt lat="45.93884" lon="4.78007">
        <ele>184</ele>
        <time>2016-12-10T15:00:07Z</time>
      </trkpt>
      <trkpt lat="45.93875" lon="4.78006">
        <ele>183</ele>
        <time>2016-12-10T15:00:09Z</time>
      </trkpt>
      <trkpt lat="45.93871" lon="4.78004">
        <ele>183</ele>
        <time>2016-12-10T15:00:10Z</time>
      </trkpt>
      <trkpt lat="45.93867" lon="4.77999">
        <ele>180</ele>
        <time>2016-12-10T15:00:11Z</time>
      </trkpt>
      <trkpt lat="45.93863" lon="4.77995">
        <ele>179</ele>
        <time>2016-12-10T15:00:12Z</time>
      </trkpt>
      <trkpt lat="45.93858" lon="4.77991">
        <ele>179</ele>
        <time>2016-12-10T15:00:13Z</time>
      </trkpt>
      <trkpt lat="45.93853" lon="4.77987">
        <ele>179</ele>
        <time>2016-12-10T15:00:14Z</time>
      </trkpt>
      <trkpt lat="45.93849" lon="4.77984">
        <ele>179</ele>
        <time>2016-12-10T15:00:15Z</time>
      </trkpt>
      <trkpt lat="45.93845" lon="4.7798">
        <ele>178</ele>
        <time>2016-12-10T15:00:16Z</time>
      </trkpt>
      <trkpt lat="45.93841" lon="4.77976">
        <ele>178</ele>
        <time>2016-12-10T15:00:17Z</time>
      </trkpt>
      <trkpt lat="45.93838" lon="4.77971">
        <ele>178</ele>
        <time>2016-12-10T15:00:18Z</time>
      </trkpt>
      <trkpt lat="45.93834" lon="4.77966">
        <ele>177</ele>
        <time>2016-12-10T15:00:19Z</time>
      </trkpt>
      <trkpt lat="45.93831" lon="4.77961">
        <ele>171</ele>
        <time>2016-12-10T15:00:20Z</time>
      </trkpt>
      <trkpt lat="45.93827" lon="4.77955">
        <ele>170</ele>
        <time>2016-12-10T15:00:21Z</time>
      </trkpt>
      <trkpt lat="45.93823" lon="4.7795">
        <ele>170</ele>
        <time>2016-12-10T15:00:22Z</time>
      </trkpt>
      <trkpt lat="45.93818" lon="4.77944">
        <ele>169</ele>
        <time>2016-12-10T15:00:23Z</time>
      </trkpt>
      <trkpt lat="45.93814" lon="4.77939">
        <ele>169</ele>
        <time>2016-12-10T15:00:24Z</time>
      </trkpt>
      <trkpt lat="45.9381" lon="4.77933">
        <ele>168</ele>
        <time>2016-12-10T15:00:25Z</time>
      </trkpt>
      <trkpt lat="45.93806" lon="4.77928">
        <ele>168</ele>
        <time>2016-12-10T15:00:26Z</time>
      </trkpt>
      <trkpt lat="45.93802" lon="4.77923">
        <ele>168</ele>
        <time>2016-12-10T15:00:27Z</time>
      </trkpt>
      <trkpt lat="45.93797" lon="4.77918">
        <ele>168</ele>
        <time>2016-12-10T15:00:28Z</time>
      </trkpt>
      <trkpt lat="45.93793" lon="4.77913">
        <ele>166</ele>
        <time>2016-12-10T15:00:29Z</time>
      </trkpt>
      <trkpt lat="45.93789" lon="4.77908">
        <ele>166</ele>
        <time>2016-12-10T15:00:30Z</time>
      </trkpt>
      <trkpt lat="45.93785" lon="4.77903">
        <ele>166</ele>
        <time>2016-12-10T15:00:31Z</time>
      </trkpt>
      <trkpt lat="45.93782" lon="4.77899">
        <ele>166</ele>
        <time>2016-12-10T15:00:32Z</time>
      </trkpt>
      <trkpt lat="45.93775" lon="4.7789">
        <ele>166</ele>
        <time>2016-12-10T15:00:34Z</time>
      </trkpt>
      <trkpt lat="45.93771" lon="4.77886">
        <ele>166</ele>
        <time>2016-12-10T15:00:35Z</time>
      </trkpt>
      <trkpt lat="45.93767" lon="4.77882">
        <ele>166</ele>
        <time>2016-12-10T15:00:36Z</time>
      </trkpt>
      <trkpt lat="45.93763" lon="4.77877">
        <ele>166</ele>
        <time>2016-12-10T15:00:37Z</time>
      </trkpt>
      <trkpt lat="45.93759" lon="4.77872">
        <ele>166</ele>
        <time>2016-12-10T15:00:38Z</time>
      </trkpt>
      <trkpt lat="45.93755" lon="4.77867">
        <ele>166</ele>
        <time>2016-12-10T15:00:39Z</time>
      </trkpt>
      <trkpt lat="45.93751" lon="4.77862">
        <ele>166</ele>
        <time>2016-12-10T15:00:40Z</time>
      </trkpt>
      <trkpt lat="45.93747" lon="4.77857">
        <ele>167</ele>
        <time>2016-12-10T15:00:41Z</time>
      </trkpt>
      <trkpt lat="45.93742" lon="4.77851">
        <ele>167</ele>
        <time>2016-12-10T15:00:42Z</time>
      </trkpt>
      <trkpt lat="45.93738" lon="4.77846">
        <ele>167</ele>
        <time>2016-12-10T15:00:43Z</time>
      </trkpt>
      <trkpt lat="45.93734" lon="4.77841">
        <ele>167</ele>
        <time>2016-12-10T15:00:44Z</time>
      </trkpt>
      <trkpt lat="45.9373" lon="4.77836">
        <ele>167</ele>
        <time>2016-12-10T15:00:45Z</time>
      </trkpt>
      <trkpt lat="45.93726" lon="4.77831">
        <ele>168</ele>
        <time>2016-12-10T15:00:46Z</time>
      </trkpt>
      <trkpt lat="45.93721" lon="4.77825">
        <ele>168</ele>
        <time>2016-12-10T15:00:47Z</time>
      </trkpt>
      <trkpt lat="45.93717" lon="4.7782">
        <ele>169</ele>
        <time>2016-12-10T15:00:48Z</time>
      </trkpt>
      <trkpt lat="45.93712" lon="4.77814">
        <ele>169</ele>
        <time>2016-12-10T15:00:49Z</time>
      </trkpt>
      <trkpt lat="45.93708" lon="4.77808">
        <ele>169</ele>
        <time>2016-12-10T15:00:50Z</time>
      </trkpt>
      <trkpt lat="45.93703" lon="4.77802">
        <ele>169</ele>
        <time>2016-12-10T15:00:51Z</time>
      </trkpt>
      <trkpt lat="45.93699" lon="4.77795">
        <ele>169</ele>
        <time>2016-12-10T15:00:52Z</time>
      </trkpt>
      <trkpt lat="45.93694" lon="4.77789">
        <ele>169</ele>
        <time>2016-12-10T15:00:53Z</time>
      </trkpt>
      <trkpt lat="45.9369" lon="4.77783">
        <ele>170</ele>
        <time>2016-12-10T15:00:54Z</time>
      </trkpt>
      <trkpt lat="45.93685" lon="4.77776">
        <ele>170</ele>
        <time>2016-12-10T15:00:55Z</time>
      </trkpt>
      <trkpt lat="45.9368" lon="4.77769">
        <ele>170</ele>
        <time>2016-12-10T15:00:56Z</time>
      </trkpt>
      <trkpt lat="45.93675" lon="4.77761">
        <ele>170</ele>
        <time>2016-12-10T15:00:57Z</time>
      </trkpt>
      <trkpt lat="45.93671" lon="4.77754">
        <ele>171</ele>
        <time>2016-12-10T15:00:58Z</time>
      </trkpt>
      <trkpt lat="45.93666" lon="4.77746">
        <ele>171</ele>
        <time>2016-12-10T15:00:59Z</time>
      </trkpt>
      <trkpt lat="45.93661" lon="4.77737">
        <ele>170</ele>
        <time>2016-12-10T15:01:00Z</time>
      </trkpt>
      <trkpt lat="45.93656" lon="4.77729">
        <ele>170</ele>
        <time>2016-12-10T15:01:01Z</time>
      </trkpt>
      <trkpt lat="45.93651" lon="4.7772">
        <ele>170</ele>
        <time>2016-12-10T15:01:02Z</time>
      </trkpt>
      <trkpt lat="45.93646" lon="4.77711">
        <ele>170</ele>
        <time>2016-12-10T15:01:03Z</time>
      </trkpt>
      <trkpt lat="45.93641" lon="4.77701">
        <ele>170</ele>
        <time>2016-12-10T15:01:04Z</time>
      </trkpt>
      <trkpt lat="45.93636" lon="4.77692">
        <ele>169</ele>
        <time>2016-12-10T15:01:05Z</time>
      </trkpt>
      <trkpt lat="45.93631" lon="4.77682">
        <ele>169</ele>
        <time>2016-12-10T15:01:06Z</time>
      </trkpt>
      <trkpt lat="45.93626" lon="4.77672">
        <ele>169</ele>
        <time>2016-12-10T15:01:07Z</time>
      </trkpt>
      <trkpt lat="45.93621" lon="4.77663">
        <ele>169</ele>
        <time>2016-12-10T15:01:08Z</time>
      </trkpt>
      <trkpt lat="45.93616" lon="4.77653">
        <ele>169</ele>
        <time>2016-12-10T15:01:09Z</time>
      </trkpt>
      <trkpt lat="45.93612" lon="4.77643">
        <ele>169</ele>
        <time>2016-12-10T15:01:10Z</time>
      </trkpt>
      <trkpt lat="45.93608" lon="4.77634">
        <ele>169</ele>
        <time>2016-12-10T15:01:11Z</time>
      </trkpt>
      <trkpt lat="45.93604" lon="4.77625">
        <ele>170</ele>
        <time>2016-12-10T15:01:12Z</time>
      </trkpt>
      <trkpt lat="45.93601" lon="4.77615">
        <ele>170</ele>
        <time>2016-12-10T15:01:13Z</time>
      </trkpt>
      <trkpt lat="45.93598" lon="4.77606">
        <ele>170</ele>
        <time>2016-12-10T15:01:14Z</time>
      </trkpt>
      <trkpt lat="45.93594" lon="4.77597">
        <ele>170</ele>
        <time>2016-12-10T15:01:15Z</time>
      </trkpt>
      <trkpt lat="45.93592" lon="4.77589">
        <ele>170</ele>
        <time>2016-12-10T15:01:16Z</time>
      </trkpt>
      <trkpt lat="45.93589" lon="4.7758">
        <ele>170</ele>
        <time>2016-12-10T15:01:17Z</time>
      </trkpt>
      <trkpt lat="45.93586" lon="4.77572">
        <ele>170</ele>
        <time>2016-12-10T15:01:18Z</time>
      </trkpt>
      <trkpt lat="45.93584" lon="4.77564">
        <ele>170</ele>
        <time>2016-12-10T15:01:19Z</time>
      </trkpt>
      <trkpt lat="45.93581" lon="4.77556">
        <ele>169</ele>
        <time>2016-12-10T15:01:20Z</time>
      </trkpt>
      <trkpt lat="45.93579" lon="4.77549">
        <ele>169</ele>
        <time>2016-12-10T15:01:21Z</time>
      </trkpt>
      <trkpt lat="45.93577" lon="4.77541">
        <ele>169</ele>
        <time>2016-12-10T15:01:22Z</time>
      </trkpt>
      <trkpt lat="45.93575" lon="4.77533">
        <ele>169</ele>
        <time>2016-12-10T15:01:23Z</time>
      </trkpt>
      <trkpt lat="45.93573" lon="4.77525">
        <ele>169</ele>
        <time>2016-12-10T15:01:24Z</time>
      </trkpt>
      <trkpt lat="45.93571" lon="4.77517">
        <ele>169</ele>
        <time>2016-12-10T15:01:25Z</time>
      </trkpt>
      <trkpt lat="45.93569" lon="4.77509">
        <ele>169</ele>
        <time>2016-12-10T15:01:26Z</time>
      </trkpt>
      <trkpt lat="45.93568" lon="4.77501">
        <ele>169</ele>
        <time>2016-12-10T15:01:27Z</time>
      </trkpt>
      <trkpt lat="45.93566" lon="4.77493">
        <ele>169</ele>
        <time>2016-12-10T15:01:28Z</time>
      </trkpt>
      <trkpt lat="45.93564" lon="4.77485">
        <ele>169</ele>
        <time>2016-12-10T15:01:29Z</time>
      </trkpt>
      <trkpt lat="45.93562" lon="4.77477">
        <ele>169</ele>
        <time>2016-12-10T15:01:30Z</time>
      </trkpt>
      <trkpt lat="45.93561" lon="4.77469">
        <ele>169</ele>
        <time>2016-12-10T15:01:31Z</time>
      </trkpt>
      <trkpt lat="45.93559" lon="4.77461">
        <ele>169</ele>
        <time>2016-12-10T15:01:32Z</time>
      </trkpt>
      <trkpt lat="45.93557" lon="4.77452">
        <ele>169</ele>
        <time>2016-12-10T15:01:33Z</time>
      </trkpt>
      <trkpt lat="45.93555" lon="4.77444">
        <ele>169</ele>
        <time>2016-12-10T15:01:34Z</time>
      </trkpt>
      <trkpt lat="45.93553" lon="4.77436">
        <ele>169</ele>
        <time>2016-12-10T15:01:35Z</time>
      </trkpt>
      <trkpt lat="45.93551" lon="4.77428">
        <ele>170</ele>
        <time>2016-12-10T15:01:36Z</time>
      </trkpt>
      <trkpt lat="45.9355" lon="4.7742">
        <ele>170</ele>
        <time>2016-12-10T15:01:37Z</time>
      </trkpt>
      <trkpt lat="45.93548" lon="4.77412">
        <ele>170</ele>
        <time>2016-12-10T15:01:38Z</time>
      </trkpt>
      <trkpt lat="45.93546" lon="4.77404">
        <ele>170</ele>
        <time>2016-12-10T15:01:39Z</time>
      </trkpt>
      <trkpt lat="45.93545" lon="4.77396">
        <ele>170</ele>
        <time>2016-12-10T15:01:40Z</time>
      </trkpt>
      <trkpt lat="45.93543" lon="4.77388">
        <ele>170</ele>
        <time>2016-12-10T15:01:41Z</time>
      </trkpt>
      <trkpt lat="45.93542" lon="4.7738">
        <ele>170</ele>
        <time>2016-12-10T15:01:42Z</time>
      </trkpt>
      <trkpt lat="45.93541" lon="4.77372">
        <ele>170</ele>
        <time>2016-12-10T15:01:43Z</time>
      </trkpt>
      <trkpt lat="45.9354" lon="4.77364">
        <ele>170</ele>
        <time>2016-12-10T15:01:44Z</time>
      </trkpt>
      <trkpt lat="45.93538" lon="4.77356">
        <ele>170</ele>
        <time>2016-12-10T15:01:45Z</time>
      </trkpt>
      <trkpt lat="45.93536" lon="4.77348">
        <ele>170</ele>
        <time>2016-12-10T15:01:46Z</time>
      </trkpt>
      <trkpt lat="45.93535" lon="4.77341">
        <ele>170</ele>
        <time>2016-12-10T15:01:47Z</time>
      </trkpt>
      <trkpt lat="45.93533" lon="4.77333">
        <ele>170</ele>
        <time>2016-12-10T15:01:48Z</time>
      </trkpt>
      <trkpt lat="45.93532" lon="4.77325">
        <ele>170</ele>
        <time>2016-12-10T15:01:49Z</time>
      </trkpt>
      <trkpt lat="45.93531" lon="4.77317">
        <ele>170</ele>
        <time>2016-12-10T15:01:50Z</time>
      </trkpt>
      <trkpt lat="45.93529" lon="4.7731">
        <ele>170</ele>
        <time>2016-12-10T15:01:51Z</time>
      </trkpt>
      <trkpt lat="45.93528" lon="4.77303">
        <ele>170</ele>
        <time>2016-12-10T15:01:52Z</time>
      </trkpt>
      <trkpt lat="45.93527" lon="4.77295">
        <ele>170</ele>
        <time>2016-12-10T15:01:53Z</time>
      </trkpt>
      <trkpt lat="45.93525" lon="4.77288">
        <ele>170</ele>
        <time>2016-12-10T15:01:54Z</time>
      </trkpt>
      <trkpt lat="45.93523" lon="4.7728">
        <ele>170</ele>
        <time>2016-12-10T15:01:55Z</time>
      </trkpt>
      <trkpt lat="45.93521" lon="4.77271">
        <ele>170</ele>
        <time>2016-12-10T15:01:56Z</time>
      </trkpt>
      <trkpt lat="45.93519" lon="4.77263">
        <ele>170</ele>
        <time>2016-12-10T15:01:57Z</time>
      </trkpt>
      <trkpt lat="45.93517" lon="4.77255">
        <ele>170</ele>
        <time>2016-12-10T15:01:58Z</time>
      </trkpt>
      <trkpt lat="45.93516" lon="4.77246">
        <ele>169</ele>
        <time>2016-12-10T15:01:59Z</time>
      </trkpt>
      <trkpt lat="45.93514" lon="4.77238">
        <ele>169</ele>
        <time>2016-12-10T15:02:00Z</time>
      </trkpt>
      <trkpt lat="45.93512" lon="4.7723">
        <ele>169</ele>
        <time>2016-12-10T15:02:01Z</time>
      </trkpt>
      <trkpt lat="45.9351" lon="4.77222">
        <ele>169</ele>
        <time>2016-12-10T15:02:02Z</time>
      </trkpt>
      <trkpt lat="45.93508" lon="4.77215">
        <ele>169</ele>
        <time>2016-12-10T15:02:03Z</time>
      </trkpt>
      <trkpt lat="45.93507" lon="4.77208">
        <ele>169</ele>
        <time>2016-12-10T15:02:04Z</time>
      </trkpt>
      <trkpt lat="45.93505" lon="4.772">
        <ele>169</ele>
        <time>2016-12-10T15:02:05Z</time>
      </trkpt>
      <trkpt lat="45.93504" lon="4.77193">
        <ele>169</ele>
        <time>2016-12-10T15:02:06Z</time>
      </trkpt>
      <trkpt lat="45.93502" lon="4.77186">
        <ele>169</ele>
        <time>2016-12-10T15:02:07Z</time>
      </trkpt>
      <trkpt lat="45.935" lon="4.77178">
        <ele>169</ele>
        <time>2016-12-10T15:02:08Z</time>
      </trkpt>
      <trkpt lat="45.93499" lon="4.77171">
        <ele>169</ele>
        <time>2016-12-10T15:02:09Z</time>
      </trkpt>
      <trkpt lat="45.93497" lon="4.77164">
        <ele>169</ele>
        <time>2016-12-10T15:02:10Z</time>
      </trkpt>
      <trkpt lat="45.93495" lon="4.77157">
        <ele>169</ele>
        <time>2016-12-10T15:02:11Z</time>
      </trkpt>
      <trkpt lat="45.93494" lon="4.77149">
        <ele>169</ele>
        <time>2016-12-10T15:02:12Z</time>
      </trkpt>
      <trkpt lat="45.93492" lon="4.77142">
        <ele>169</ele>
        <time>2016-12-10T15:02:13Z</time>
      </trkpt>
      <trkpt lat="45.9349" lon="4.77135">
        <ele>169</ele>
        <time>2016-12-10T15:02:14Z</time>
      </trkpt>
      <trkpt lat="45.93488" lon="4.77128">
        <ele>169</ele>
        <time>2016-12-10T15:02:15Z</time>
      </trkpt>
      <trkpt lat="45.93487" lon="4.77121">
        <ele>169</ele>
        <time>2016-12-10T15:02:16Z</time>
      </trkpt>
      <trkpt lat="45.93485" lon="4.77114">
        <ele>169</ele>
        <time>2016-12-10T15:02:17Z</time>
      </trkpt>
      <trkpt lat="45.93484" lon="4.77107">
        <ele>169</ele>
        <time>2016-12-10T15:02:18Z</time>
      </trkpt>
      <trkpt lat="45.93483" lon="4.77099">
        <ele>169</ele>
        <time>2016-12-10T15:02:19Z</time>
      </trkpt>
      <trkpt lat="45.93482" lon="4.77092">
        <ele>169</ele>
        <time>2016-12-10T15:02:20Z</time>
      </trkpt>
      <trkpt lat="45.93481" lon="4.77084">
        <ele>169</ele>
        <time>2016-12-10T15:02:21Z</time>
      </trkpt>
      <trkpt lat="45.9348" lon="4.77077">
        <ele>170</ele>
        <time>2016-12-10T15:02:22Z</time>
      </trkpt>
      <trkpt lat="45.93479" lon="4.7707">
        <ele>170</ele>
        <time>2016-12-10T15:02:23Z</time>
      </trkpt>
      <trkpt lat="45.93477" lon="4.77062">
        <ele>170</ele>
        <time>2016-12-10T15:02:24Z</time>
      </trkpt>
      <trkpt lat="45.93476" lon="4.77055">
        <ele>170</ele>
        <time>2016-12-10T15:02:25Z</time>
      </trkpt>
      <trkpt lat="45.93475" lon="4.77048">
        <ele>170</ele>
        <time>2016-12-10T15:02:26Z</time>
      </trkpt>
      <trkpt lat="45.93474" lon="4.7704">
        <ele>170</ele>
        <time>2016-12-10T15:02:27Z</time>
      </trkpt>
      <trkpt lat="45.93473" lon="4.77033">
        <ele>170</ele>
        <time>2016-12-10T15:02:28Z</time>
      </trkpt>
      <trkpt lat="45.93471" lon="4.77025">
        <ele>170</ele>
        <time>2016-12-10T15:02:29Z</time>
      </trkpt>
      <trkpt lat="45.9347" lon="4.77018">
        <ele>170</ele>
        <time>2016-12-10T15:02:30Z</time>
      </trkpt>
      <trkpt lat="45.93469" lon="4.7701">
        <ele>170</ele>
        <time>2016-12-10T15:02:31Z</time>
      </trkpt>
      <trkpt lat="45.93468" lon="4.77003">
        <ele>170</ele>
        <time>2016-12-10T15:02:32Z</time>
      </trkpt>
      <trkpt lat="45.93467" lon="4.76996">
        <ele>170</ele>
        <time>2016-12-10T15:02:33Z</time>
      </trkpt>
      <trkpt lat="45.93466" lon="4.76989">
        <ele>170</ele>
        <time>2016-12-10T15:02:34Z</time>
      </trkpt>
      <trkpt lat="45.93465" lon="4.76981">
        <ele>170</ele>
        <time>2016-12-10T15:02:35Z</time>
      </trkpt>
      <trkpt lat="45.93464" lon="4.76973">
        <ele>170</ele>
        <time>2016-12-10T15:02:36Z</time>
      </trkpt>
      <trkpt lat="45.93462" lon="4.76965">
        <ele>170</ele>
        <time>2016-12-10T15:02:37Z</time>
      </trkpt>
      <trkpt lat="45.93461" lon="4.76957">
        <ele>170</ele>
        <time>2016-12-10T15:02:38Z</time>
      </trkpt>
      <trkpt lat="45.9346" lon="4.7695">
        <ele>170</ele>
        <time>2016-12-10T15:02:39Z</time>
      </trkpt>
      <trkpt lat="45.93459" lon="4.76942">
        <ele>170</ele>
        <time>2016-12-10T15:02:40Z</time>
      </trkpt>
      <trkpt lat="45.93457" lon="4.76935">
        <ele>170</ele>
        <time>2016-12-10T15:02:41Z</time>
      </trkpt>
      <trkpt lat="45.93455" lon="4.76928">
        <ele>170</ele>
        <time>2016-12-10T15:02:42Z</time>
      </trkpt>
      <trkpt lat="45.93454" lon="4.76921">
        <ele>170</ele>
        <time>2016-12-10T15:02:43Z</time>
      </trkpt>
      <trkpt lat="45.93452" lon="4.76914">
        <ele>170</ele>
        <time>2016-12-10T15:02:44Z</time>
      </trkpt>
      <trkpt lat="45.93451" lon="4.76908">
        <ele>170</ele>
        <time>2016-12-10T15:02:45Z</time>
      </trkpt>
      <trkpt lat="45.93449" lon="4.76901">
        <ele>170</ele>
        <time>2016-12-10T15:02:46Z</time>
      </trkpt>
      <trkpt lat="45.93447" lon="4.76895">
        <ele>170</ele>
        <time>2016-12-10T15:02:47Z</time>
      </trkpt>
      <trkpt lat="45.93444" lon="4.76888">
        <ele>170</ele>
        <time>2016-12-10T15:02:48Z</time>
      </trkpt>
      <trkpt lat="45.93442" lon="4.76881">
        <ele>170</ele>
        <time>2016-12-10T15:02:49Z</time>
      </trkpt>
      <trkpt lat="45.93439" lon="4.76873">
        <ele>171</ele>
        <time>2016-12-10T15:02:50Z</time>
      </trkpt>
      <trkpt lat="45.93436" lon="4.76866">
        <ele>171</ele>
        <time>2016-12-10T15:02:51Z</time>
      </trkpt>
      <trkpt lat="45.93432" lon="4.76859">
        <ele>171</ele>
        <time>2016-12-10T15:02:52Z</time>
      </trkpt>
      <trkpt lat="45.93429" lon="4.76852">
        <ele>171</ele>
        <time>2016-12-10T15:02:53Z</time>
      </trkpt>
      <trkpt lat="45.93426" lon="4.76845">
        <ele>171</ele>
        <time>2016-12-10T15:02:54Z</time>
      </trkpt>
      <trkpt lat="45.93422" lon="4.76839">
        <ele>172</ele>
        <time>2016-12-10T15:02:55Z</time>
      </trkpt>
      <trkpt lat="45.93419" lon="4.76833">
        <ele>172</ele>
        <time>2016-12-10T15:02:56Z</time>
      </trkpt>
      <trkpt lat="45.93416" lon="4.76827">
        <ele>172</ele>
        <time>2016-12-10T15:02:57Z</time>
      </trkpt>
      <trkpt lat="45.93412" lon="4.76821">
        <ele>172</ele>
        <time>2016-12-10T15:02:58Z</time>
      </trkpt>
      <trkpt lat="45.93409" lon="4.76816">
        <ele>172</ele>
        <time>2016-12-10T15:02:59Z</time>
      </trkpt>
      <trkpt lat="45.93406" lon="4.76811">
        <ele>172</ele>
        <time>2016-12-10T15:03:00Z</time>
      </trkpt>
      <trkpt lat="45.93402" lon="4.76805">
        <ele>172</ele>
        <time>2016-12-10T15:03:01Z</time>
      </trkpt>
      <trkpt lat="45.93398" lon="4.768">
        <ele>172</ele>
        <time>2016-12-10T15:03:02Z</time>
      </trkpt>
      <trkpt lat="45.93395" lon="4.76795">
        <ele>172</ele>
        <time>2016-12-10T15:03:03Z</time>
      </trkpt>
      <trkpt lat="45.93391" lon="4.7679">
        <ele>172</ele>
        <time>2016-12-10T15:03:04Z</time>
      </trkpt>
      <trkpt lat="45.93387" lon="4.76785">
        <ele>172</ele>
        <time>2016-12-10T15:03:05Z</time>
      </trkpt>
      <trkpt lat="45.93382" lon="4.76781">
        <ele>172</ele>
        <time>2016-12-10T15:03:06Z</time>
      </trkpt>
      <trkpt lat="45.93378" lon="4.76776">
        <ele>172</ele>
        <time>2016-12-10T15:03:07Z</time>
      </trkpt>
      <trkpt lat="45.93374" lon="4.76771">
        <ele>172</ele>
        <time>2016-12-10T15:03:08Z</time>
      </trkpt>
      <trkpt lat="45.93369" lon="4.76766">
        <ele>172</ele>
        <time>2016-12-10T15:03:09Z</time>
      </trkpt>
      <trkpt lat="45.93364" lon="4.76762">
        <ele>172</ele>
        <time>2016-12-10T15:03:10Z</time>
      </trkpt>
      <trkpt lat="45.9336" lon="4.76757">
        <ele>172</ele>
        <time>2016-12-10T15:03:11Z</time>
      </trkpt>
      <trkpt lat="45.93355" lon="4.76753">
        <ele>172</ele>
        <time>2016-12-10T15:03:12Z</time>
      </trkpt>
      <trkpt lat="45.93351" lon="4.76749">
        <ele>172</ele>
        <time>2016-12-10T15:03:13Z</time>
      </trkpt>
      <trkpt lat="45.93346" lon="4.76745">
        <ele>172</ele>
        <time>2016-12-10T15:03:14Z</time>
      </trkpt>
      <trkpt lat="45.93341" lon="4.7674">
        <ele>172</ele>
        <time>2016-12-10T15:03:15Z</time>
      </trkpt>
      <trkpt lat="45.93337" lon="4.76735">
        <ele>172</ele>
        <time>2016-12-10T15:03:16Z</time>
      </trkpt>
      <trkpt lat="45.93332" lon="4.76731">
        <ele>172</ele>
        <time>2016-12-10T15:03:17Z</time>
      </trkpt>
      <trkpt lat="45.93328" lon="4.76727">
        <ele>172</ele>
        <time>2016-12-10T15:03:18Z</time>
      </trkpt>
      <trkpt lat="45.93324" lon="4.76723">
        <ele>172</ele>
        <time>2016-12-10T15:03:19Z</time>
      </trkpt>
      <trkpt lat="45.93319" lon="4.76719">
        <ele>172</ele>
        <time>2016-12-10T15:03:20Z</time>
      </trkpt>
      <trkpt lat="45.93315" lon="4.76715">
        <ele>172</ele>
        <time>2016-12-10T15:03:21Z</time>
      </trkpt>
      <trkpt lat="45.9331" lon="4.76711">
        <ele>172</ele>
        <time>2016-12-10T15:03:22Z</time>
      </trkpt>
      <trkpt lat="45.93306" lon="4.76706">
        <ele>172</ele>
        <time>2016-12-10T15:03:23Z</time>
      </trkpt>
      <trkpt lat="45.93302" lon="4.76702">
        <ele>172</ele>
        <time>2016-12-10T15:03:24Z</time>
      </trkpt>
      <trkpt lat="45.93297" lon="4.76698">
        <ele>172</ele>
        <time>2016-12-10T15:03:25Z</time>
      </trkpt>
      <trkpt lat="45.93293" lon="4.76694">
        <ele>172</ele>
        <time>2016-12-10T15:03:26Z</time>
      </trkpt>
      <trkpt lat="45.93289" lon="4.7669">
        <ele>172</ele>
        <time>2016-12-10T15:03:27Z</time>
      </trkpt>
      <trkpt lat="45.93285" lon="4.76686">
        <ele>172</ele>
        <time>2016-12-10T15:03:28Z</time>
      </trkpt>
      <trkpt lat="45.93281" lon="4.76681">
        <ele>172</ele>
        <time>2016-12-10T15:03:29Z</time>
      </trkpt>
      <trkpt lat="45.93277" lon="4.76677">
        <ele>172</ele>
        <time>2016-12-10T15:03:30Z</time>
      </trkpt>
      <trkpt lat="45.93273" lon="4.76672">
        <ele>172</ele>
        <time>2016-12-10T15:03:31Z</time>
      </trkpt>
      <trkpt lat="45.93268" lon="4.76668">
        <ele>172</ele>
        <time>2016-12-10T15:03:32Z</time>
      </trkpt>
      <trkpt lat="45.93264" lon="4.76664">
        <ele>171</ele>
        <time>2016-12-10T15:03:33Z</time>
      </trkpt>
      <trkpt lat="45.9326" lon="4.76659">
        <ele>171</ele>
        <time>2016-12-10T15:03:34Z</time>
      </trkpt>
      <trkpt lat="45.93256" lon="4.76655">
        <ele>171</ele>
        <time>2016-12-10T15:03:35Z</time>
      </trkpt>
      <trkpt lat="45.93252" lon="4.76651">
        <ele>171</ele>
        <time>2016-12-10T15:03:36Z</time>
      </trkpt>
      <trkpt lat="45.93248" lon="4.76646">
        <ele>171</ele>
        <time>2016-12-10T15:03:37Z</time>
      </trkpt>
      <trkpt lat="45.93244" lon="4.76641">
        <ele>171</ele>
        <time>2016-12-10T15:03:38Z</time>
      </trkpt>
      <trkpt lat="45.93241" lon="4.76637">
        <ele>171</ele>
        <time>2016-12-10T15:03:39Z</time>
      </trkpt>
      <trkpt lat="45.93236" lon="4.76632">
        <ele>170</ele>
        <time>2016-12-10T15:03:40Z</time>
      </trkpt>
      <trkpt lat="45.93232" lon="4.76628">
        <ele>170</ele>
        <time>2016-12-10T15:03:41Z</time>
      </trkpt>
      <trkpt lat="45.93228" lon="4.76623">
        <ele>170</ele>
        <time>2016-12-10T15:03:42Z</time>
      </trkpt>
      <trkpt lat="45.93224" lon="4.76619">
        <ele>170</ele>
        <time>2016-12-10T15:03:43Z</time>
      </trkpt>
      <trkpt lat="45.93219" lon="4.76614">
        <ele>170</ele>
        <time>2016-12-10T15:03:44Z</time>
      </trkpt>
      <trkpt lat="45.93215" lon="4.76609">
        <ele>170</ele>
        <time>2016-12-10T15:03:45Z</time>
      </trkpt>
      <trkpt lat="45.9321" lon="4.76605">
        <ele>170</ele>
        <time>2016-12-10T15:03:46Z</time>
      </trkpt>
      <trkpt lat="45.93206" lon="4.766">
        <ele>170</ele>
        <time>2016-12-10T15:03:47Z</time>
      </trkpt>
      <trkpt lat="45.93201" lon="4.76595">
        <ele>170</ele>
        <time>2016-12-10T15:03:48Z</time>
      </trkpt>
      <trkpt lat="45.93195" lon="4.7659">
        <ele>170</ele>
        <time>2016-12-10T15:03:49Z</time>
      </trkpt>
      <trkpt lat="45.9319" lon="4.76586">
        <ele>170</ele>
        <time>2016-12-10T15:03:50Z</time>
      </trkpt>
      <trkpt lat="45.93186" lon="4.76582">
        <ele>170</ele>
        <time>2016-12-10T15:03:51Z</time>
      </trkpt>
      <trkpt lat="45.93182" lon="4.76577">
        <ele>170</ele>
        <time>2016-12-10T15:03:52Z</time>
      </trkpt>
      <trkpt lat="45.93178" lon="4.76573">
        <ele>170</ele>
        <time>2016-12-10T15:03:53Z</time>
      </trkpt>
      <trkpt lat="45.93173" lon="4.76569">
        <ele>170</ele>
        <time>2016-12-10T15:03:54Z</time>
      </trkpt>
      <trkpt lat="45.93169" lon="4.76564">
        <ele>170</ele>
        <time>2016-12-10T15:03:55Z</time>
      </trkpt>
      <trkpt lat="45.93165" lon="4.7656">
        <ele>170</ele>
        <time>2016-12-10T15:03:56Z</time>
      </trkpt>
      <trkpt lat="45.93161" lon="4.76555">
        <ele>170</ele>
        <time>2016-12-10T15:03:57Z</time>
      </trkpt>
      <trkpt lat="45.93156" lon="4.76551">
        <ele>170</ele>
        <time>2016-12-10T15:03:58Z</time>
      </trkpt>
      <trkpt lat="45.93153" lon="4.76546">
        <ele>170</ele>
        <time>2016-12-10T15:03:59Z</time>
      </trkpt>
      <trkpt lat="45.93148" lon="4.76542">
        <ele>170</ele>
        <time>2016-12-10T15:04:00Z</time>
      </trkpt>
      <trkpt lat="45.93144" lon="4.76538">
        <ele>170</ele>
        <time>2016-12-10T15:04:01Z</time>
      </trkpt>
      <trkpt lat="45.9314" lon="4.76534">
        <ele>170</ele>
        <time>2016-12-10T15:04:02Z</time>
      </trkpt>
      <trkpt lat="45.93136" lon="4.7653">
        <ele>170</ele>
        <time>2016-12-10T15:04:03Z</time>
      </trkpt>
      <trkpt lat="45.93132" lon="4.76525">
        <ele>170</ele>
        <time>2016-12-10T15:04:04Z</time>
      </trkpt>
      <trkpt lat="45.93128" lon="4.76521">
        <ele>170</ele>
        <time>2016-12-10T15:04:05Z</time>
      </trkpt>
      <trkpt lat="45.93124" lon="4.76516">
        <ele>170</ele>
        <time>2016-12-10T15:04:06Z</time>
      </trkpt>
      <trkpt lat="45.9312" lon="4.76512">
        <ele>170</ele>
        <time>2016-12-10T15:04:07Z</time>
      </trkpt>
      <trkpt lat="45.93116" lon="4.76508">
        <ele>170</ele>
        <time>2016-12-10T15:04:08Z</time>
      </trkpt>
      <trkpt lat="45.93112" lon="4.76504">
        <ele>170</ele>
        <time>2016-12-10T15:04:09Z</time>
      </trkpt>
      <trkpt lat="45.93107" lon="4.765">
        <ele>170</ele>
        <time>2016-12-10T15:04:10Z</time>
      </trkpt>
      <trkpt lat="45.93103" lon="4.76497">
        <ele>169</ele>
        <time>2016-12-10T15:04:11Z</time>
      </trkpt>
      <trkpt lat="45.93099" lon="4.76492">
        <ele>170</ele>
        <time>2016-12-10T15:04:12Z</time>
      </trkpt>
      <trkpt lat="45.93095" lon="4.76488">
        <ele>170</ele>
        <time>2016-12-10T15:04:13Z</time>
      </trkpt>
      <trkpt lat="45.9309" lon="4.76484">
        <ele>170</ele>
        <time>2016-12-10T15:04:14Z</time>
      </trkpt>
      <trkpt lat="45.93085" lon="4.7648">
        <ele>169</ele>
        <time>2016-12-10T15:04:15Z</time>
      </trkpt>
      <trkpt lat="45.9308" lon="4.76476">
        <ele>169</ele>
        <time>2016-12-10T15:04:16Z</time>
      </trkpt>
      <trkpt lat="45.93077" lon="4.76473">
        <ele>169</ele>
        <time>2016-12-10T15:04:17Z</time>
      </trkpt>
      <trkpt lat="45.93073" lon="4.76468">
        <ele>169</ele>
        <time>2016-12-10T15:04:18Z</time>
      </trkpt>
      <trkpt lat="45.93069" lon="4.76464">
        <ele>169</ele>
        <time>2016-12-10T15:04:19Z</time>
      </trkpt>
      <trkpt lat="45.93064" lon="4.76459">
        <ele>169</ele>
        <time>2016-12-10T15:04:20Z</time>
      </trkpt>
      <trkpt lat="45.93059" lon="4.76454">
        <ele>169</ele>
        <time>2016-12-10T15:04:21Z</time>
      </trkpt>
      <trkpt lat="45.93055" lon="4.7645">
        <ele>169</ele>
        <time>2016-12-10T15:04:22Z</time>
      </trkpt>
      <trkpt lat="45.9305" lon="4.76446">
        <ele>169</ele>
        <time>2016-12-10T15:04:23Z</time>
      </trkpt>
      <trkpt lat="45.93045" lon="4.76442">
        <ele>169</ele>
        <time>2016-12-10T15:04:24Z</time>
      </trkpt>
      <trkpt lat="45.93041" lon="4.76438">
        <ele>169</ele>
        <time>2016-12-10T15:04:25Z</time>
      </trkpt>
      <trkpt lat="45.93036" lon="4.76433">
        <ele>169</ele>
        <time>2016-12-10T15:04:26Z</time>
      </trkpt>
      <trkpt lat="45.93032" lon="4.76429">
        <ele>169</ele>
        <time>2016-12-10T15:04:27Z</time>
      </trkpt>
      <trkpt lat="45.93028" lon="4.76424">
        <ele>169</ele>
        <time>2016-12-10T15:04:28Z</time>
      </trkpt>
      <trkpt lat="45.93024" lon="4.7642">
        <ele>169</ele>
        <time>2016-12-10T15:04:29Z</time>
      </trkpt>
      <trkpt lat="45.9302" lon="4.76417">
        <ele>169</ele>
        <time>2016-12-10T15:04:30Z</time>
      </trkpt>
      <trkpt lat="45.93016" lon="4.76412">
        <ele>169</ele>
        <time>2016-12-10T15:04:31Z</time>
      </trkpt>
      <trkpt lat="45.93012" lon="4.76408">
        <ele>169</ele>
        <time>2016-12-10T15:04:32Z</time>
      </trkpt>
      <trkpt lat="45.93007" lon="4.76404">
        <ele>169</ele>
        <time>2016-12-10T15:04:33Z</time>
      </trkpt>
      <trkpt lat="45.93003" lon="4.764">
        <ele>169</ele>
        <time>2016-12-10T15:04:34Z</time>
      </trkpt>
      <trkpt lat="45.92999" lon="4.76396">
        <ele>169</ele>
        <time>2016-12-10T15:04:35Z</time>
      </trkpt>
      <trkpt lat="45.92995" lon="4.76392">
        <ele>169</ele>
        <time>2016-12-10T15:04:36Z</time>
      </trkpt>
      <trkpt lat="45.92991" lon="4.76388">
        <ele>169</ele>
        <time>2016-12-10T15:04:37Z</time>
      </trkpt>
      <trkpt lat="45.92987" lon="4.76384">
        <ele>169</ele>
        <time>2016-12-10T15:04:38Z</time>
      </trkpt>
      <trkpt lat="45.92983" lon="4.7638">
        <ele>169</ele>
        <time>2016-12-10T15:04:39Z</time>
      </trkpt>
      <trkpt lat="45.92979" lon="4.76376">
        <ele>169</ele>
        <time>2016-12-10T15:04:40Z</time>
      </trkpt>
      <trkpt lat="45.92975" lon="4.76373">
        <ele>169</ele>
        <time>2016-12-10T15:04:41Z</time>
      </trkpt>
      <trkpt lat="45.92971" lon="4.76369">
        <ele>169</ele>
        <time>2016-12-10T15:04:42Z</time>
      </trkpt>
      <trkpt lat="45.92967" lon="4.76365">
        <ele>169</ele>
        <time>2016-12-10T15:04:43Z</time>
      </trkpt>
      <trkpt lat="45.92962" lon="4.7636">
        <ele>169</ele>
        <time>2016-12-10T15:04:44Z</time>
      </trkpt>
      <trkpt lat="45.92958" lon="4.76356">
        <ele>169</ele>
        <time>2016-12-10T15:04:45Z</time>
      </trkpt>
      <trkpt lat="45.92954" lon="4.76351">
        <ele>169</ele>
        <time>2016-12-10T15:04:46Z</time>
      </trkpt>
      <trkpt lat="45.9295" lon="4.76347">
        <ele>169</ele>
        <time>2016-12-10T15:04:47Z</time>
      </trkpt>
      <trkpt lat="45.92946" lon="4.76342">
        <ele>169</ele>
        <time>2016-12-10T15:04:48Z</time>
      </trkpt>
      <trkpt lat="45.9294" lon="4.76337">
        <ele>169</ele>
        <time>2016-12-10T15:04:49Z</time>
      </trkpt>
      <trkpt lat="45.92935" lon="4.76332">
        <ele>169</ele>
        <time>2016-12-10T15:04:50Z</time>
      </trkpt>
      <trkpt lat="45.92931" lon="4.76328">
        <ele>169</ele>
        <time>2016-12-10T15:04:51Z</time>
      </trkpt>
      <trkpt lat="45.92926" lon="4.76323">
        <ele>169</ele>
        <time>2016-12-10T15:04:52Z</time>
      </trkpt>
      <trkpt lat="45.92922" lon="4.76319">
        <ele>169</ele>
        <time>2016-12-10T15:04:53Z</time>
      </trkpt>
      <trkpt lat="45.92917" lon="4.76316">
        <ele>169</ele>
        <time>2016-12-10T15:04:54Z</time>
      </trkpt>
      <trkpt lat="45.92913" lon="4.76311">
        <ele>169</ele>
        <time>2016-12-10T15:04:55Z</time>
      </trkpt>
      <trkpt lat="45.92909" lon="4.76307">
        <ele>169</ele>
        <time>2016-12-10T15:04:56Z</time>
      </trkpt>
      <trkpt lat="45.92905" lon="4.76303">
        <ele>169</ele>
        <time>2016-12-10T15:04:57Z</time>
      </trkpt>
      <trkpt lat="45.929" lon="4.76299">
        <ele>169</ele>
        <time>2016-12-10T15:04:58Z</time>
      </trkpt>
      <trkpt lat="45.92896" lon="4.76295">
        <ele>169</ele>
        <time>2016-12-10T15:04:59Z</time>
      </trkpt>
      <trkpt lat="45.92891" lon="4.76291">
        <ele>169</ele>
        <time>2016-12-10T15:05:00Z</time>
      </trkpt>
      <trkpt lat="45.92887" lon="4.76287">
        <ele>169</ele>
        <time>2016-12-10T15:05:01Z</time>
      </trkpt>
      <trkpt lat="45.92883" lon="4.76282">
        <ele>169</ele>
        <time>2016-12-10T15:05:02Z</time>
      </trkpt>
      <trkpt lat="45.92878" lon="4.76278">
        <ele>169</ele>
        <time>2016-12-10T15:05:03Z</time>
      </trkpt>
      <trkpt lat="45.92874" lon="4.76274">
        <ele>169</ele>
        <time>2016-12-10T15:05:04Z</time>
      </trkpt>
      <trkpt lat="45.92869" lon="4.76269">
        <ele>169</ele>
        <time>2016-12-10T15:05:05Z</time>
      </trkpt>
      <trkpt lat="45.92865" lon="4.76265">
        <ele>169</ele>
        <time>2016-12-10T15:05:06Z</time>
      </trkpt>
      <trkpt lat="45.92861" lon="4.76261">
        <ele>169</ele>
        <time>2016-12-10T15:05:07Z</time>
      </trkpt>
      <trkpt lat="45.92857" lon="4.76257">
        <ele>169</ele>
        <time>2016-12-10T15:05:08Z</time>
      </trkpt>
      <trkpt lat="45.92853" lon="4.76253">
        <ele>169</ele>
        <time>2016-12-10T15:05:09Z</time>
      </trkpt>
      <trkpt lat="45.92849" lon="4.76249">
        <ele>169</ele>
        <time>2016-12-10T15:05:10Z</time>
      </trkpt>
      <trkpt lat="45.92845" lon="4.76244">
        <ele>169</ele>
        <time>2016-12-10T15:05:11Z</time>
      </trkpt>
      <trkpt lat="45.9284" lon="4.7624">
        <ele>169</ele>
        <time>2016-12-10T15:05:12Z</time>
      </trkpt>
      <trkpt lat="45.92836" lon="4.76235">
        <ele>169</ele>
        <time>2016-12-10T15:05:13Z</time>
      </trkpt>
      <trkpt lat="45.92831" lon="4.76231">
        <ele>168</ele>
        <time>2016-12-10T15:05:14Z</time>
      </trkpt>
      <trkpt lat="45.92827" lon="4.76227">
        <ele>168</ele>
        <time>2016-12-10T15:05:15Z</time>
      </trkpt>
      <trkpt lat="45.92823" lon="4.76222">
        <ele>168</ele>
        <time>2016-12-10T15:05:16Z</time>
      </trkpt>
      <trkpt lat="45.92819" lon="4.76219">
        <ele>168</ele>
        <time>2016-12-10T15:05:17Z</time>
      </trkpt>
      <trkpt lat="45.92815" lon="4.76215">
        <ele>168</ele>
        <time>2016-12-10T15:05:18Z</time>
      </trkpt>
      <trkpt lat="45.92811" lon="4.76211">
        <ele>168</ele>
        <time>2016-12-10T15:05:19Z</time>
      </trkpt>
      <trkpt lat="45.92807" lon="4.76207">
        <ele>168</ele>
        <time>2016-12-10T15:05:20Z</time>
      </trkpt>
      <trkpt lat="45.92802" lon="4.76202">
        <ele>168</ele>
        <time>2016-12-10T15:05:21Z</time>
      </trkpt>
      <trkpt lat="45.92798" lon="4.76197">
        <ele>168</ele>
        <time>2016-12-10T15:05:22Z</time>
      </trkpt>
      <trkpt lat="45.92794" lon="4.76192">
        <ele>168</ele>
        <time>2016-12-10T15:05:23Z</time>
      </trkpt>
      <trkpt lat="45.92789" lon="4.76188">
        <ele>168</ele>
        <time>2016-12-10T15:05:24Z</time>
      </trkpt>
      <trkpt lat="45.92785" lon="4.76184">
        <ele>168</ele>
        <time>2016-12-10T15:05:25Z</time>
      </trkpt>
      <trkpt lat="45.92781" lon="4.7618">
        <ele>167</ele>
        <time>2016-12-10T15:05:26Z</time>
      </trkpt>
      <trkpt lat="45.92776" lon="4.76176">
        <ele>167</ele>
        <time>2016-12-10T15:05:27Z</time>
      </trkpt>
      <trkpt lat="45.92772" lon="4.76172">
        <ele>167</ele>
        <time>2016-12-10T15:05:28Z</time>
      </trkpt>
      <trkpt lat="45.92767" lon="4.76168">
        <ele>167</ele>
        <time>2016-12-10T15:05:29Z</time>
      </trkpt>
      <trkpt lat="45.92762" lon="4.76164">
        <ele>167</ele>
        <time>2016-12-10T15:05:30Z</time>
      </trkpt>
      <trkpt lat="45.92757" lon="4.7616">
        <ele>167</ele>
        <time>2016-12-10T15:05:31Z</time>
      </trkpt>
      <trkpt lat="45.92752" lon="4.76156">
        <ele>167</ele>
        <time>2016-12-10T15:05:32Z</time>
      </trkpt>
      <trkpt lat="45.92747" lon="4.76152">
        <ele>168</ele>
        <time>2016-12-10T15:05:33Z</time>
      </trkpt>
      <trkpt lat="45.92743" lon="4.76149">
        <ele>168</ele>
        <time>2016-12-10T15:05:34Z</time>
      </trkpt>
      <trkpt lat="45.92738" lon="4.76145">
        <ele>168</ele>
        <time>2016-12-10T15:05:35Z</time>
      </trkpt>
      <trkpt lat="45.92733" lon="4.76142">
        <ele>168</ele>
        <time>2016-12-10T15:05:36Z</time>
      </trkpt>
      <trkpt lat="45.92728" lon="4.76138">
        <ele>168</ele>
        <time>2016-12-10T15:05:37Z</time>
      </trkpt>
      <trkpt lat="45.92723" lon="4.76135">
        <ele>168</ele>
        <time>2016-12-10T15:05:38Z</time>
      </trkpt>
      <trkpt lat="45.92719" lon="4.76132">
        <ele>168</ele>
        <time>2016-12-10T15:05:39Z</time>
      </trkpt>
      <trkpt lat="45.92714" lon="4.76129">
        <ele>168</ele>
        <time>2016-12-10T15:05:40Z</time>
      </trkpt>
      <trkpt lat="45.9271" lon="4.76126">
        <ele>168</ele>
        <time>2016-12-10T15:05:41Z</time>
      </trkpt>
      <trkpt lat="45.92705" lon="4.76123">
        <ele>169</ele>
        <time>2016-12-10T15:05:42Z</time>
      </trkpt>
      <trkpt lat="45.927" lon="4.7612">
        <ele>169</ele>
        <time>2016-12-10T15:05:43Z</time>
      </trkpt>
      <trkpt lat="45.92695" lon="4.76116">
        <ele>169</ele>
        <time>2016-12-10T15:05:44Z</time>
      </trkpt>
      <trkpt lat="45.92691" lon="4.76113">
        <ele>169</ele>
        <time>2016-12-10T15:05:45Z</time>
      </trkpt>
      <trkpt lat="45.92687" lon="4.76109">
        <ele>169</ele>
        <time>2016-12-10T15:05:46Z</time>
      </trkpt>
      <trkpt lat="45.92683" lon="4.76105">
        <ele>169</ele>
        <time>2016-12-10T15:05:47Z</time>
      </trkpt>
      <trkpt lat="45.92679" lon="4.76101">
        <ele>169</ele>
        <time>2016-12-10T15:05:48Z</time>
      </trkpt>
      <trkpt lat="45.92674" lon="4.76097">
        <ele>169</ele>
        <time>2016-12-10T15:05:49Z</time>
      </trkpt>
      <trkpt lat="45.92669" lon="4.76094">
        <ele>169</ele>
        <time>2016-12-10T15:05:50Z</time>
      </trkpt>
      <trkpt lat="45.92665" lon="4.76091">
        <ele>170</ele>
        <time>2016-12-10T15:05:51Z</time>
      </trkpt>
      <trkpt lat="45.9266" lon="4.76087">
        <ele>170</ele>
        <time>2016-12-10T15:05:52Z</time>
      </trkpt>
      <trkpt lat="45.92656" lon="4.76084">
        <ele>170</ele>
        <time>2016-12-10T15:05:53Z</time>
      </trkpt>
      <trkpt lat="45.92651" lon="4.7608">
        <ele>170</ele>
        <time>2016-12-10T15:05:54Z</time>
      </trkpt>
      <trkpt lat="45.92647" lon="4.76077">
        <ele>170</ele>
        <time>2016-12-10T15:05:55Z</time>
      </trkpt>
      <trkpt lat="45.92643" lon="4.76074">
        <ele>170</ele>
        <time>2016-12-10T15:05:56Z</time>
      </trkpt>
      <trkpt lat="45.92638" lon="4.76071">
        <ele>170</ele>
        <time>2016-12-10T15:05:57Z</time>
      </trkpt>
      <trkpt lat="45.92634" lon="4.76068">
        <ele>170</ele>
        <time>2016-12-10T15:05:58Z</time>
      </trkpt>
      <trkpt lat="45.9263" lon="4.76065">
        <ele>170</ele>
        <time>2016-12-10T15:05:59Z</time>
      </trkpt>
      <trkpt lat="45.92626" lon="4.76062">
        <ele>170</ele>
        <time>2016-12-10T15:06:00Z</time>
      </trkpt>
      <trkpt lat="45.92622" lon="4.76059">
        <ele>171</ele>
        <time>2016-12-10T15:06:01Z</time>
      </trkpt>
      <trkpt lat="45.92618" lon="4.76056">
        <ele>171</ele>
        <time>2016-12-10T15:06:02Z</time>
      </trkpt>
      <trkpt lat="45.92614" lon="4.76052">
        <ele>171</ele>
        <time>2016-12-10T15:06:03Z</time>
      </trkpt>
      <trkpt lat="45.9261" lon="4.7605">
        <ele>171</ele>
        <time>2016-12-10T15:06:04Z</time>
      </trkpt>
      <trkpt lat="45.92605" lon="4.76047">
        <ele>171</ele>
        <time>2016-12-10T15:06:05Z</time>
      </trkpt>
      <trkpt lat="45.92597" lon="4.76041">
        <ele>171</ele>
        <time>2016-12-10T15:06:07Z</time>
      </trkpt>
      <trkpt lat="45.92593" lon="4.76038">
        <ele>171</ele>
        <time>2016-12-10T15:06:08Z</time>
      </trkpt>
      <trkpt lat="45.92586" lon="4.76032">
        <ele>171</ele>
        <time>2016-12-10T15:06:10Z</time>
      </trkpt>
      <trkpt lat="45.92582" lon="4.76029">
        <ele>172</ele>
        <time>2016-12-10T15:06:11Z</time>
      </trkpt>
      <trkpt lat="45.92574" lon="4.76024">
        <ele>172</ele>
        <time>2016-12-10T15:06:13Z</time>
      </trkpt>
      <trkpt lat="45.92571" lon="4.76021">
        <ele>172</ele>
        <time>2016-12-10T15:06:14Z</time>
      </trkpt>
      <trkpt lat="45.92562" lon="4.76016">
        <ele>172</ele>
        <time>2016-12-10T15:06:16Z</time>
      </trkpt>
      <trkpt lat="45.92558" lon="4.76014">
        <ele>172</ele>
        <time>2016-12-10T15:06:17Z</time>
      </trkpt>
      <trkpt lat="45.92551" lon="4.76008">
        <ele>172</ele>
        <time>2016-12-10T15:06:19Z</time>
      </trkpt>
      <trkpt lat="45.92547" lon="4.76005">
        <ele>172</ele>
        <time>2016-12-10T15:06:20Z</time>
      </trkpt>
      <trkpt lat="45.92541" lon="4.76">
        <ele>172</ele>
        <time>2016-12-10T15:06:22Z</time>
      </trkpt>
      <trkpt lat="45.92537" lon="4.75997">
        <ele>172</ele>
        <time>2016-12-10T15:06:23Z</time>
      </trkpt>
      <trkpt lat="45.92532" lon="4.75994">
        <ele>172</ele>
        <time>2016-12-10T15:06:24Z</time>
      </trkpt>
      <trkpt lat="45.92528" lon="4.75991">
        <ele>172</ele>
        <time>2016-12-10T15:06:25Z</time>
      </trkpt>
      <trkpt lat="45.92524" lon="4.75988">
        <ele>172</ele>
        <time>2016-12-10T15:06:26Z</time>
      </trkpt>
      <trkpt lat="45.9252" lon="4.75985">
        <ele>172</ele>
        <time>2016-12-10T15:06:27Z</time>
      </trkpt>
      <trkpt lat="45.92515" lon="4.75982">
        <ele>172</ele>
        <time>2016-12-10T15:06:28Z</time>
      </trkpt>
      <trkpt lat="45.92511" lon="4.75979">
        <ele>172</ele>
        <time>2016-12-10T15:06:29Z</time>
      </trkpt>
      <trkpt lat="45.92507" lon="4.75977">
        <ele>172</ele>
        <time>2016-12-10T15:06:30Z</time>
      </trkpt>
      <trkpt lat="45.92503" lon="4.75974">
        <ele>172</ele>
        <time>2016-12-10T15:06:31Z</time>
      </trkpt>
      <trkpt lat="45.92498" lon="4.75971">
        <ele>172</ele>
        <time>2016-12-10T15:06:32Z</time>
      </trkpt>
      <trkpt lat="45.92494" lon="4.75968">
        <ele>172</ele>
        <time>2016-12-10T15:06:33Z</time>
      </trkpt>
      <trkpt lat="45.9249" lon="4.75965">
        <ele>172</ele>
        <time>2016-12-10T15:06:34Z</time>
      </trkpt>
      <trkpt lat="45.92485" lon="4.75962">
        <ele>172</ele>
        <time>2016-12-10T15:06:35Z</time>
      </trkpt>
      <trkpt lat="45.9248" lon="4.75959">
        <ele>172</ele>
        <time>2016-12-10T15:06:36Z</time>
      </trkpt>
      <trkpt lat="45.92476" lon="4.75956">
        <ele>172</ele>
        <time>2016-12-10T15:06:37Z</time>
      </trkpt>
      <trkpt lat="45.92471" lon="4.75953">
        <ele>172</ele>
        <time>2016-12-10T15:06:38Z</time>
      </trkpt>
      <trkpt lat="45.92465" lon="4.7595">
        <ele>172</ele>
        <time>2016-12-10T15:06:39Z</time>
      </trkpt>
      <trkpt lat="45.9246" lon="4.75946">
        <ele>172</ele>
        <time>2016-12-10T15:06:40Z</time>
      </trkpt>
      <trkpt lat="45.92455" lon="4.75943">
        <ele>172</ele>
        <time>2016-12-10T15:06:41Z</time>
      </trkpt>
      <trkpt lat="45.92449" lon="4.75939">
        <ele>172</ele>
        <time>2016-12-10T15:06:42Z</time>
      </trkpt>
      <trkpt lat="45.92444" lon="4.75936">
        <ele>172</ele>
        <time>2016-12-10T15:06:43Z</time>
      </trkpt>
      <trkpt lat="45.92439" lon="4.75932">
        <ele>172</ele>
        <time>2016-12-10T15:06:44Z</time>
      </trkpt>
      <trkpt lat="45.92433" lon="4.75928">
        <ele>172</ele>
        <time>2016-12-10T15:06:45Z</time>
      </trkpt>
      <trkpt lat="45.92427" lon="4.75924">
        <ele>172</ele>
        <time>2016-12-10T15:06:46Z</time>
      </trkpt>
      <trkpt lat="45.92421" lon="4.7592">
        <ele>172</ele>
        <time>2016-12-10T15:06:47Z</time>
      </trkpt>
      <trkpt lat="45.92416" lon="4.75916">
        <ele>172</ele>
        <time>2016-12-10T15:06:48Z</time>
      </trkpt>
      <trkpt lat="45.9241" lon="4.75911">
        <ele>172</ele>
        <time>2016-12-10T15:06:49Z</time>
      </trkpt>
      <trkpt lat="45.92404" lon="4.75907">
        <ele>172</ele>
        <time>2016-12-10T15:06:50Z</time>
      </trkpt>
      <trkpt lat="45.92399" lon="4.75903">
        <ele>173</ele>
        <time>2016-12-10T15:06:51Z</time>
      </trkpt>
      <trkpt lat="45.92393" lon="4.75899">
        <ele>173</ele>
        <time>2016-12-10T15:06:52Z</time>
      </trkpt>
      <trkpt lat="45.92387" lon="4.75895">
        <ele>173</ele>
        <time>2016-12-10T15:06:53Z</time>
      </trkpt>
      <trkpt lat="45.92381" lon="4.75892">
        <ele>173</ele>
        <time>2016-12-10T15:06:54Z</time>
      </trkpt>
      <trkpt lat="45.92376" lon="4.75888">
        <ele>173</ele>
        <time>2016-12-10T15:06:55Z</time>
      </trkpt>
      <trkpt lat="45.9237" lon="4.75884">
        <ele>173</ele>
        <time>2016-12-10T15:06:56Z</time>
      </trkpt>
      <trkpt lat="45.92365" lon="4.75881">
        <ele>173</ele>
        <time>2016-12-10T15:06:57Z</time>
      </trkpt>
      <trkpt lat="45.9236" lon="4.75877">
        <ele>173</ele>
        <time>2016-12-10T15:06:58Z</time>
      </trkpt>
      <trkpt lat="45.92355" lon="4.75874">
        <ele>173</ele>
        <time>2016-12-10T15:06:59Z</time>
      </trkpt>
      <trkpt lat="45.92351" lon="4.75871">
        <ele>173</ele>
        <time>2016-12-10T15:07:00Z</time>
      </trkpt>
      <trkpt lat="45.92346" lon="4.75868">
        <ele>173</ele>
        <time>2016-12-10T15:07:01Z</time>
      </trkpt>
      <trkpt lat="45.92341" lon="4.75865">
        <ele>173</ele>
        <time>2016-12-10T15:07:02Z</time>
      </trkpt>
      <trkpt lat="45.92336" lon="4.75862">
        <ele>173</ele>
        <time>2016-12-10T15:07:03Z</time>
      </trkpt>
      <trkpt lat="45.92331" lon="4.75859">
        <ele>174</ele>
        <time>2016-12-10T15:07:04Z</time>
      </trkpt>
      <trkpt lat="45.92326" lon="4.75855">
        <ele>174</ele>
        <time>2016-12-10T15:07:05Z</time>
      </trkpt>
      <trkpt lat="45.92321" lon="4.75851">
        <ele>174</ele>
        <time>2016-12-10T15:07:06Z</time>
      </trkpt>
      <trkpt lat="45.92316" lon="4.75848">
        <ele>174</ele>
        <time>2016-12-10T15:07:07Z</time>
      </trkpt>
      <trkpt lat="45.92311" lon="4.75845">
        <ele>174</ele>
        <time>2016-12-10T15:07:08Z</time>
      </trkpt>
      <trkpt lat="45.92306" lon="4.75841">
        <ele>173</ele>
        <time>2016-12-10T15:07:09Z</time>
      </trkpt>
      <trkpt lat="45.92301" lon="4.75838">
        <ele>173</ele>
        <time>2016-12-10T15:07:10Z</time>
      </trkpt>
      <trkpt lat="45.92296" lon="4.75835">
        <ele>173</ele>
        <time>2016-12-10T15:07:11Z</time>
      </trkpt>
      <trkpt lat="45.9229" lon="4.75832">
        <ele>174</ele>
        <time>2016-12-10T15:07:12Z</time>
      </trkpt>
      <trkpt lat="45.92285" lon="4.75829">
        <ele>174</ele>
        <time>2016-12-10T15:07:13Z</time>
      </trkpt>
      <trkpt lat="45.9228" lon="4.75825">
        <ele>174</ele>
        <time>2016-12-10T15:07:14Z</time>
      </trkpt>
      <trkpt lat="45.92275" lon="4.75821">
        <ele>174</ele>
        <time>2016-12-10T15:07:15Z</time>
      </trkpt>
      <trkpt lat="45.92271" lon="4.75815">
        <ele>174</ele>
        <time>2016-12-10T15:07:16Z</time>
      </trkpt>
      <trkpt lat="45.92267" lon="4.75809">
        <ele>174</ele>
        <time>2016-12-10T15:07:17Z</time>
      </trkpt>
      <trkpt lat="45.92264" lon="4.75802">
        <ele>174</ele>
        <time>2016-12-10T15:07:18Z</time>
      </trkpt>
      <trkpt lat="45.92261" lon="4.75796">
        <ele>174</ele>
        <time>2016-12-10T15:07:19Z</time>
      </trkpt>
      <trkpt lat="45.9226" lon="4.75789">
        <ele>174</ele>
        <time>2016-12-10T15:07:20Z</time>
      </trkpt>
      <trkpt lat="45.92258" lon="4.75783">
        <ele>174</ele>
        <time>2016-12-10T15:07:21Z</time>
      </trkpt>
      <trkpt lat="45.92257" lon="4.75776">
        <ele>174</ele>
        <time>2016-12-10T15:07:22Z</time>
      </trkpt>
      <trkpt lat="45.92256" lon="4.75769">
        <ele>174</ele>
        <time>2016-12-10T15:07:23Z</time>
      </trkpt>
      <trkpt lat="45.92255" lon="4.75763">
        <ele>174</ele>
        <time>2016-12-10T15:07:24Z</time>
      </trkpt>
      <trkpt lat="45.92254" lon="4.75756">
        <ele>174</ele>
        <time>2016-12-10T15:07:25Z</time>
      </trkpt>
      <trkpt lat="45.92253" lon="4.75749">
        <ele>174</ele>
        <time>2016-12-10T15:07:26Z</time>
      </trkpt>
      <trkpt lat="45.92252" lon="4.75741">
        <ele>174</ele>
        <time>2016-12-10T15:07:27Z</time>
      </trkpt>
      <trkpt lat="45.9225" lon="4.75734">
        <ele>174</ele>
        <time>2016-12-10T15:07:28Z</time>
      </trkpt>
      <trkpt lat="45.92249" lon="4.75727">
        <ele>174</ele>
        <time>2016-12-10T15:07:29Z</time>
      </trkpt>
      <trkpt lat="45.92247" lon="4.75719">
        <ele>174</ele>
        <time>2016-12-10T15:07:30Z</time>
      </trkpt>
      <trkpt lat="45.92244" lon="4.75712">
        <ele>174</ele>
        <time>2016-12-10T15:07:31Z</time>
      </trkpt>
      <trkpt lat="45.9224" lon="4.75706">
        <ele>174</ele>
        <time>2016-12-10T15:07:32Z</time>
      </trkpt>
      <trkpt lat="45.92237" lon="4.757">
        <ele>174</ele>
        <time>2016-12-10T15:07:33Z</time>
      </trkpt>
      <trkpt lat="45.92232" lon="4.75695">
        <ele>174</ele>
        <time>2016-12-10T15:07:34Z</time>
      </trkpt>
      <trkpt lat="45.92228" lon="4.7569">
        <ele>174</ele>
        <time>2016-12-10T15:07:35Z</time>
      </trkpt>
      <trkpt lat="45.92223" lon="4.75685">
        <ele>174</ele>
        <time>2016-12-10T15:07:36Z</time>
      </trkpt>
      <trkpt lat="45.92217" lon="4.75681">
        <ele>174</ele>
        <time>2016-12-10T15:07:37Z</time>
      </trkpt>
      <trkpt lat="45.92212" lon="4.75676">
        <ele>174</ele>
        <time>2016-12-10T15:07:38Z</time>
      </trkpt>
      <trkpt lat="45.92207" lon="4.75672">
        <ele>174</ele>
        <time>2016-12-10T15:07:39Z</time>
      </trkpt>
      <trkpt lat="45.92202" lon="4.75667">
        <ele>174</ele>
        <time>2016-12-10T15:07:40Z</time>
      </trkpt>
      <trkpt lat="45.92198" lon="4.75663">
        <ele>174</ele>
        <time>2016-12-10T15:07:41Z</time>
      </trkpt>
      <trkpt lat="45.92193" lon="4.75658">
        <ele>174</ele>
        <time>2016-12-10T15:07:42Z</time>
      </trkpt>
      <trkpt lat="45.92189" lon="4.75654">
        <ele>174</ele>
        <time>2016-12-10T15:07:43Z</time>
      </trkpt>
      <trkpt lat="45.92185" lon="4.75649">
        <ele>174</ele>
        <time>2016-12-10T15:07:44Z</time>
      </trkpt>
      <trkpt lat="45.92181" lon="4.75645">
        <ele>174</ele>
        <time>2016-12-10T15:07:45Z</time>
      </trkpt>
      <trkpt lat="45.92176" lon="4.75641">
        <ele>174</ele>
        <time>2016-12-10T15:07:46Z</time>
      </trkpt>
      <trkpt lat="45.92172" lon="4.75636">
        <ele>174</ele>
        <time>2016-12-10T15:07:47Z</time>
      </trkpt>
      <trkpt lat="45.92167" lon="4.75632">
        <ele>174</ele>
        <time>2016-12-10T15:07:48Z</time>
      </trkpt>
      <trkpt lat="45.92163" lon="4.75628">
        <ele>174</ele>
        <time>2016-12-10T15:07:49Z</time>
      </trkpt>
      <trkpt lat="45.92158" lon="4.75623">
        <ele>174</ele>
        <time>2016-12-10T15:07:50Z</time>
      </trkpt>
      <trkpt lat="45.92154" lon="4.75619">
        <ele>174</ele>
        <time>2016-12-10T15:07:51Z</time>
      </trkpt>
      <trkpt lat="45.9215" lon="4.75614">
        <ele>174</ele>
        <time>2016-12-10T15:07:52Z</time>
      </trkpt>
      <trkpt lat="45.92145" lon="4.7561">
        <ele>174</ele>
        <time>2016-12-10T15:07:53Z</time>
      </trkpt>
      <trkpt lat="45.9214" lon="4.75606">
        <ele>174</ele>
        <time>2016-12-10T15:07:54Z</time>
      </trkpt>
      <trkpt lat="45.92136" lon="4.75601">
        <ele>174</ele>
        <time>2016-12-10T15:07:55Z</time>
      </trkpt>
      <trkpt lat="45.92132" lon="4.75597">
        <ele>174</ele>
        <time>2016-12-10T15:07:56Z</time>
      </trkpt>
      <trkpt lat="45.92128" lon="4.75592">
        <ele>174</ele>
        <time>2016-12-10T15:07:57Z</time>
      </trkpt>
      <trkpt lat="45.92124" lon="4.75588">
        <ele>174</ele>
        <time>2016-12-10T15:07:58Z</time>
      </trkpt>
      <trkpt lat="45.9212" lon="4.75583">
        <ele>174</ele>
        <time>2016-12-10T15:07:59Z</time>
      </trkpt>
      <trkpt lat="45.92116" lon="4.75572">
        <ele>174</ele>
        <time>2016-12-10T15:08:01Z</time>
      </trkpt>
      <trkpt lat="45.92118" lon="4.75566">
        <ele>174</ele>
        <time>2016-12-10T15:08:02Z</time>
      </trkpt>
      <trkpt lat="45.92122" lon="4.75555">
        <ele>174</ele>
        <time>2016-12-10T15:08:04Z</time>
      </trkpt>
      <trkpt lat="45.92124" lon="4.7555">
        <ele>174</ele>
        <time>2016-12-10T15:08:05Z</time>
      </trkpt>
      <trkpt lat="45.92128" lon="4.75544">
        <ele>174</ele>
        <time>2016-12-10T15:08:06Z</time>
      </trkpt>
      <trkpt lat="45.92131" lon="4.75538">
        <ele>174</ele>
        <time>2016-12-10T15:08:07Z</time>
      </trkpt>
      <trkpt lat="45.92134" lon="4.75533">
        <ele>174</ele>
        <time>2016-12-10T15:08:08Z</time>
      </trkpt>
      <trkpt lat="45.92137" lon="4.75527">
        <ele>174</ele>
        <time>2016-12-10T15:08:09Z</time>
      </trkpt>
      <trkpt lat="45.9214" lon="4.7552">
        <ele>174</ele>
        <time>2016-12-10T15:08:10Z</time>
      </trkpt>
      <trkpt lat="45.92143" lon="4.75514">
        <ele>174</ele>
        <time>2016-12-10T15:08:11Z</time>
      </trkpt>
      <trkpt lat="45.92146" lon="4.75507">
        <ele>175</ele>
        <time>2016-12-10T15:08:12Z</time>
      </trkpt>
      <trkpt lat="45.92149" lon="4.755">
        <ele>175</ele>
        <time>2016-12-10T15:08:13Z</time>
      </trkpt>
      <trkpt lat="45.92151" lon="4.75494">
        <ele>175</ele>
        <time>2016-12-10T15:08:14Z</time>
      </trkpt>
      <trkpt lat="45.92154" lon="4.75487">
        <ele>176</ele>
        <time>2016-12-10T15:08:15Z</time>
      </trkpt>
      <trkpt lat="45.92156" lon="4.75482">
        <ele>176</ele>
        <time>2016-12-10T15:08:16Z</time>
      </trkpt>
      <trkpt lat="45.92158" lon="4.75476">
        <ele>176</ele>
        <time>2016-12-10T15:08:17Z</time>
      </trkpt>
      <trkpt lat="45.9216" lon="4.75469">
        <ele>176</ele>
        <time>2016-12-10T15:08:18Z</time>
      </trkpt>
      <trkpt lat="45.92162" lon="4.75463">
        <ele>176</ele>
        <time>2016-12-10T15:08:19Z</time>
      </trkpt>
      <trkpt lat="45.92164" lon="4.75458">
        <ele>176</ele>
        <time>2016-12-10T15:08:20Z</time>
      </trkpt>
      <trkpt lat="45.92167" lon="4.75452">
        <ele>176</ele>
        <time>2016-12-10T15:08:21Z</time>
      </trkpt>
      <trkpt lat="45.92169" lon="4.75446">
        <ele>176</ele>
        <time>2016-12-10T15:08:22Z</time>
      </trkpt>
      <trkpt lat="45.92172" lon="4.7544">
        <ele>177</ele>
        <time>2016-12-10T15:08:23Z</time>
      </trkpt>
      <trkpt lat="45.92174" lon="4.75434">
        <ele>177</ele>
        <time>2016-12-10T15:08:24Z</time>
      </trkpt>
      <trkpt lat="45.92177" lon="4.75426">
        <ele>177</ele>
        <time>2016-12-10T15:08:25Z</time>
      </trkpt>
      <trkpt lat="45.9218" lon="4.75419">
        <ele>177</ele>
        <time>2016-12-10T15:08:26Z</time>
      </trkpt>
      <trkpt lat="45.92183" lon="4.75413">
        <ele>177</ele>
        <time>2016-12-10T15:08:27Z</time>
      </trkpt>
      <trkpt lat="45.92185" lon="4.75406">
        <ele>177</ele>
        <time>2016-12-10T15:08:28Z</time>
      </trkpt>
      <trkpt lat="45.92189" lon="4.754">
        <ele>177</ele>
        <time>2016-12-10T15:08:29Z</time>
      </trkpt>
      <trkpt lat="45.92192" lon="4.75393">
        <ele>177</ele>
        <time>2016-12-10T15:08:30Z</time>
      </trkpt>
      <trkpt lat="45.92195" lon="4.75386">
        <ele>177</ele>
        <time>2016-12-10T15:08:31Z</time>
      </trkpt>
      <trkpt lat="45.92198" lon="4.75379">
        <ele>177</ele>
        <time>2016-12-10T15:08:32Z</time>
      </trkpt>
      <trkpt lat="45.922" lon="4.75373">
        <ele>177</ele>
        <time>2016-12-10T15:08:33Z</time>
      </trkpt>
      <trkpt lat="45.92203" lon="4.75366">
        <ele>177</ele>
        <time>2016-12-10T15:08:34Z</time>
      </trkpt>
      <trkpt lat="45.92205" lon="4.7536">
        <ele>177</ele>
        <time>2016-12-10T15:08:35Z</time>
      </trkpt>
      <trkpt lat="45.92207" lon="4.75354">
        <ele>177</ele>
        <time>2016-12-10T15:08:36Z</time>
      </trkpt>
      <trkpt lat="45.92209" lon="4.75346">
        <ele>177</ele>
        <time>2016-12-10T15:08:37Z</time>
      </trkpt>
      <trkpt lat="45.92211" lon="4.75339">
        <ele>177</ele>
        <time>2016-12-10T15:08:38Z</time>
      </trkpt>
      <trkpt lat="45.92213" lon="4.75331">
        <ele>176</ele>
        <time>2016-12-10T15:08:39Z</time>
      </trkpt>
      <trkpt lat="45.92215" lon="4.75323">
        <ele>176</ele>
        <time>2016-12-10T15:08:40Z</time>
      </trkpt>
      <trkpt lat="45.92215" lon="4.75315">
        <ele>176</ele>
        <time>2016-12-10T15:08:41Z</time>
      </trkpt>
      <trkpt lat="45.92217" lon="4.75307">
        <ele>176</ele>
        <time>2016-12-10T15:08:42Z</time>
      </trkpt>
      <trkpt lat="45.92217" lon="4.75299">
        <ele>176</ele>
        <time>2016-12-10T15:08:43Z</time>
      </trkpt>
      <trkpt lat="45.92217" lon="4.75291">
        <ele>176</ele>
        <time>2016-12-10T15:08:44Z</time>
      </trkpt>
      <trkpt lat="45.92218" lon="4.75283">
        <ele>176</ele>
        <time>2016-12-10T15:08:45Z</time>
      </trkpt>
      <trkpt lat="45.92218" lon="4.75274">
        <ele>176</ele>
        <time>2016-12-10T15:08:46Z</time>
      </trkpt>
      <trkpt lat="45.92217" lon="4.75266">
        <ele>176</ele>
        <time>2016-12-10T15:08:47Z</time>
      </trkpt>
      <trkpt lat="45.92217" lon="4.75258">
        <ele>175</ele>
        <time>2016-12-10T15:08:48Z</time>
      </trkpt>
      <trkpt lat="45.92217" lon="4.75249">
        <ele>175</ele>
        <time>2016-12-10T15:08:49Z</time>
      </trkpt>
      <trkpt lat="45.92218" lon="4.75241">
        <ele>175</ele>
        <time>2016-12-10T15:08:50Z</time>
      </trkpt>
      <trkpt lat="45.92218" lon="4.75232">
        <ele>175</ele>
        <time>2016-12-10T15:08:51Z</time>
      </trkpt>
      <trkpt lat="45.92219" lon="4.75222">
        <ele>175</ele>
        <time>2016-12-10T15:08:52Z</time>
      </trkpt>
      <trkpt lat="45.92219" lon="4.75213">
        <ele>175</ele>
        <time>2016-12-10T15:08:53Z</time>
      </trkpt>
      <trkpt lat="45.92221" lon="4.75203">
        <ele>175</ele>
        <time>2016-12-10T15:08:54Z</time>
      </trkpt>
      <trkpt lat="45.92223" lon="4.75194">
        <ele>175</ele>
        <time>2016-12-10T15:08:55Z</time>
      </trkpt>
      <trkpt lat="45.92224" lon="4.75186">
        <ele>175</ele>
        <time>2016-12-10T15:08:56Z</time>
      </trkpt>
      <trkpt lat="45.92226" lon="4.75177">
        <ele>175</ele>
        <time>2016-12-10T15:08:57Z</time>
      </trkpt>
      <trkpt lat="45.9223" lon="4.75169">
        <ele>175</ele>
        <time>2016-12-10T15:08:58Z</time>
      </trkpt>
      <trkpt lat="45.92233" lon="4.75162">
        <ele>174</ele>
        <time>2016-12-10T15:08:59Z</time>
      </trkpt>
      <trkpt lat="45.92237" lon="4.75154">
        <ele>174</ele>
        <time>2016-12-10T15:09:00Z</time>
      </trkpt>
      <trkpt lat="45.92241" lon="4.75147">
        <ele>174</ele>
        <time>2016-12-10T15:09:01Z</time>
      </trkpt>
      <trkpt lat="45.92245" lon="4.75141">
        <ele>174</ele>
        <time>2016-12-10T15:09:02Z</time>
      </trkpt>
      <trkpt lat="45.92249" lon="4.75134">
        <ele>174</ele>
        <time>2016-12-10T15:09:03Z</time>
      </trkpt>
      <trkpt lat="45.92254" lon="4.75129">
        <ele>174</ele>
        <time>2016-12-10T15:09:04Z</time>
      </trkpt>
      <trkpt lat="45.92258" lon="4.75123">
        <ele>174</ele>
        <time>2016-12-10T15:09:05Z</time>
      </trkpt>
      <trkpt lat="45.92263" lon="4.75118">
        <ele>174</ele>
        <time>2016-12-10T15:09:06Z</time>
      </trkpt>
      <trkpt lat="45.92268" lon="4.75113">
        <ele>174</ele>
        <time>2016-12-10T15:09:07Z</time>
      </trkpt>
      <trkpt lat="45.92273" lon="4.75108">
        <ele>174</ele>
        <time>2016-12-10T15:09:08Z</time>
      </trkpt>
      <trkpt lat="45.92277" lon="4.75102">
        <ele>173</ele>
        <time>2016-12-10T15:09:09Z</time>
      </trkpt>
      <trkpt lat="45.92282" lon="4.75098">
        <ele>173</ele>
        <time>2016-12-10T15:09:10Z</time>
      </trkpt>
      <trkpt lat="45.92287" lon="4.75093">
        <ele>173</ele>
        <time>2016-12-10T15:09:11Z</time>
      </trkpt>
      <trkpt lat="45.92291" lon="4.75088">
        <ele>173</ele>
        <time>2016-12-10T15:09:12Z</time>
      </trkpt>
      <trkpt lat="45.92296" lon="4.75083">
        <ele>172</ele>
        <time>2016-12-10T15:09:13Z</time>
      </trkpt>
      <trkpt lat="45.923" lon="4.75077">
        <ele>172</ele>
        <time>2016-12-10T15:09:14Z</time>
      </trkpt>
      <trkpt lat="45.92305" lon="4.75071">
        <ele>172</ele>
        <time>2016-12-10T15:09:15Z</time>
      </trkpt>
      <trkpt lat="45.9231" lon="4.75065">
        <ele>172</ele>
        <time>2016-12-10T15:09:16Z</time>
      </trkpt>
      <trkpt lat="45.92315" lon="4.75059">
        <ele>172</ele>
        <time>2016-12-10T15:09:17Z</time>
      </trkpt>
      <trkpt lat="45.92319" lon="4.75052">
        <ele>172</ele>
        <time>2016-12-10T15:09:18Z</time>
      </trkpt>
      <trkpt lat="45.92324" lon="4.75045">
        <ele>172</ele>
        <time>2016-12-10T15:09:19Z</time>
      </trkpt>
      <trkpt lat="45.92328" lon="4.75038">
        <ele>171</ele>
        <time>2016-12-10T15:09:20Z</time>
      </trkpt>
      <trkpt lat="45.92331" lon="4.75032">
        <ele>171</ele>
        <time>2016-12-10T15:09:21Z</time>
      </trkpt>
      <trkpt lat="45.92335" lon="4.75025">
        <ele>170</ele>
        <time>2016-12-10T15:09:22Z</time>
      </trkpt>
      <trkpt lat="45.92338" lon="4.75018">
        <ele>170</ele>
        <time>2016-12-10T15:09:23Z</time>
      </trkpt>
      <trkpt lat="45.92341" lon="4.75011">
        <ele>170</ele>
        <time>2016-12-10T15:09:24Z</time>
      </trkpt>
      <trkpt lat="45.92344" lon="4.75004">
        <ele>170</ele>
        <time>2016-12-10T15:09:25Z</time>
      </trkpt>
      <trkpt lat="45.92348" lon="4.74997">
        <ele>170</ele>
        <time>2016-12-10T15:09:26Z</time>
      </trkpt>
      <trkpt lat="45.92351" lon="4.7499">
        <ele>170</ele>
        <time>2016-12-10T15:09:27Z</time>
      </trkpt>
      <trkpt lat="45.92354" lon="4.74983">
        <ele>170</ele>
        <time>2016-12-10T15:09:28Z</time>
      </trkpt>
      <trkpt lat="45.92356" lon="4.74976">
        <ele>170</ele>
        <time>2016-12-10T15:09:29Z</time>
      </trkpt>
      <trkpt lat="45.92359" lon="4.74968">
        <ele>170</ele>
        <time>2016-12-10T15:09:30Z</time>
      </trkpt>
      <trkpt lat="45.92361" lon="4.74961">
        <ele>170</ele>
        <time>2016-12-10T15:09:31Z</time>
      </trkpt>
      <trkpt lat="45.92364" lon="4.74953">
        <ele>170</ele>
        <time>2016-12-10T15:09:32Z</time>
      </trkpt>
      <trkpt lat="45.92366" lon="4.74946">
        <ele>170</ele>
        <time>2016-12-10T15:09:33Z</time>
      </trkpt>
      <trkpt lat="45.92369" lon="4.74938">
        <ele>170</ele>
        <time>2016-12-10T15:09:34Z</time>
      </trkpt>
      <trkpt lat="45.92372" lon="4.74931">
        <ele>170</ele>
        <time>2016-12-10T15:09:35Z</time>
      </trkpt>
      <trkpt lat="45.92374" lon="4.74925">
        <ele>170</ele>
        <time>2016-12-10T15:09:36Z</time>
      </trkpt>
      <trkpt lat="45.92377" lon="4.74918">
        <ele>170</ele>
        <time>2016-12-10T15:09:37Z</time>
      </trkpt>
      <trkpt lat="45.9238" lon="4.74912">
        <ele>171</ele>
        <time>2016-12-10T15:09:38Z</time>
      </trkpt>
      <trkpt lat="45.92382" lon="4.74905">
        <ele>171</ele>
        <time>2016-12-10T15:09:39Z</time>
      </trkpt>
      <trkpt lat="45.92384" lon="4.74898">
        <ele>171</ele>
        <time>2016-12-10T15:09:40Z</time>
      </trkpt>
      <trkpt lat="45.92387" lon="4.74892">
        <ele>171</ele>
        <time>2016-12-10T15:09:41Z</time>
      </trkpt>
      <trkpt lat="45.9239" lon="4.74885">
        <ele>171</ele>
        <time>2016-12-10T15:09:42Z</time>
      </trkpt>
      <trkpt lat="45.92392" lon="4.74878">
        <ele>171</ele>
        <time>2016-12-10T15:09:43Z</time>
      </trkpt>
      <trkpt lat="45.92395" lon="4.74871">
        <ele>171</ele>
        <time>2016-12-10T15:09:44Z</time>
      </trkpt>
      <trkpt lat="45.92398" lon="4.74865">
        <ele>171</ele>
        <time>2016-12-10T15:09:45Z</time>
      </trkpt>
      <trkpt lat="45.924" lon="4.74857">
        <ele>171</ele>
        <time>2016-12-10T15:09:46Z</time>
      </trkpt>
      <trkpt lat="45.92402" lon="4.7485">
        <ele>171</ele>
        <time>2016-12-10T15:09:47Z</time>
      </trkpt>
      <trkpt lat="45.92404" lon="4.74842">
        <ele>171</ele>
        <time>2016-12-10T15:09:48Z</time>
      </trkpt>
      <trkpt lat="45.92406" lon="4.74834">
        <ele>171</ele>
        <time>2016-12-10T15:09:49Z</time>
      </trkpt>
      <trkpt lat="45.92408" lon="4.74826">
        <ele>171</ele>
        <time>2016-12-10T15:09:50Z</time>
      </trkpt>
      <trkpt lat="45.92409" lon="4.74818">
        <ele>171</ele>
        <time>2016-12-10T15:09:51Z</time>
      </trkpt>
      <trkpt lat="45.92411" lon="4.7481">
        <ele>171</ele>
        <time>2016-12-10T15:09:52Z</time>
      </trkpt>
      <trkpt lat="45.92412" lon="4.74803">
        <ele>171</ele>
        <time>2016-12-10T15:09:53Z</time>
      </trkpt>
      <trkpt lat="45.92414" lon="4.74795">
        <ele>171</ele>
        <time>2016-12-10T15:09:54Z</time>
      </trkpt>
      <trkpt lat="45.92415" lon="4.74788">
        <ele>171</ele>
        <time>2016-12-10T15:09:55Z</time>
      </trkpt>
      <trkpt lat="45.92417" lon="4.7478">
        <ele>171</ele>
        <time>2016-12-10T15:09:56Z</time>
      </trkpt>
      <trkpt lat="45.92419" lon="4.74773">
        <ele>171</ele>
        <time>2016-12-10T15:09:57Z</time>
      </trkpt>
      <trkpt lat="45.92421" lon="4.74766">
        <ele>171</ele>
        <time>2016-12-10T15:09:58Z</time>
      </trkpt>
      <trkpt lat="45.92423" lon="4.74759">
        <ele>171</ele>
        <time>2016-12-10T15:09:59Z</time>
      </trkpt>
      <trkpt lat="45.92425" lon="4.74752">
        <ele>172</ele>
        <time>2016-12-10T15:10:00Z</time>
      </trkpt>
      <trkpt lat="45.92427" lon="4.74744">
        <ele>172</ele>
        <time>2016-12-10T15:10:01Z</time>
      </trkpt>
      <trkpt lat="45.92429" lon="4.74737">
        <ele>171</ele>
        <time>2016-12-10T15:10:02Z</time>
      </trkpt>
      <trkpt lat="45.92432" lon="4.7473">
        <ele>171</ele>
        <time>2016-12-10T15:10:03Z</time>
      </trkpt>
      <trkpt lat="45.92434" lon="4.74723">
        <ele>171</ele>
        <time>2016-12-10T15:10:04Z</time>
      </trkpt>
      <trkpt lat="45.92436" lon="4.74716">
        <ele>171</ele>
        <time>2016-12-10T15:10:05Z</time>
      </trkpt>
      <trkpt lat="45.92439" lon="4.7471">
        <ele>171</ele>
        <time>2016-12-10T15:10:06Z</time>
      </trkpt>
      <trkpt lat="45.92442" lon="4.74703">
        <ele>171</ele>
        <time>2016-12-10T15:10:07Z</time>
      </trkpt>
      <trkpt lat="45.92445" lon="4.74696">
        <ele>171</ele>
        <time>2016-12-10T15:10:08Z</time>
      </trkpt>
      <trkpt lat="45.92448" lon="4.74689">
        <ele>171</ele>
        <time>2016-12-10T15:10:09Z</time>
      </trkpt>
      <trkpt lat="45.92451" lon="4.74683">
        <ele>171</ele>
        <time>2016-12-10T15:10:10Z</time>
      </trkpt>
      <trkpt lat="45.92454" lon="4.74677">
        <ele>171</ele>
        <time>2016-12-10T15:10:11Z</time>
      </trkpt>
      <trkpt lat="45.92457" lon="4.74671">
        <ele>171</ele>
        <time>2016-12-10T15:10:12Z</time>
      </trkpt>
      <trkpt lat="45.92461" lon="4.74665">
        <ele>171</ele>
        <time>2016-12-10T15:10:13Z</time>
      </trkpt>
      <trkpt lat="45.92465" lon="4.74658">
        <ele>171</ele>
        <time>2016-12-10T15:10:14Z</time>
      </trkpt>
      <trkpt lat="45.92468" lon="4.74652">
        <ele>171</ele>
        <time>2016-12-10T15:10:15Z</time>
      </trkpt>
      <trkpt lat="45.92471" lon="4.74645">
        <ele>171</ele>
        <time>2016-12-10T15:10:16Z</time>
      </trkpt>
      <trkpt lat="45.92475" lon="4.74638">
        <ele>171</ele>
        <time>2016-12-10T15:10:17Z</time>
      </trkpt>
      <trkpt lat="45.92479" lon="4.74631">
        <ele>171</ele>
        <time>2016-12-10T15:10:18Z</time>
      </trkpt>
      <trkpt lat="45.92484" lon="4.74625">
        <ele>171</ele>
        <time>2016-12-10T15:10:19Z</time>
      </trkpt>
      <trkpt lat="45.92488" lon="4.7462">
        <ele>171</ele>
        <time>2016-12-10T15:10:20Z</time>
      </trkpt>
      <trkpt lat="45.92492" lon="4.74614">
        <ele>171</ele>
        <time>2016-12-10T15:10:21Z</time>
      </trkpt>
      <trkpt lat="45.92496" lon="4.74609">
        <ele>171</ele>
        <time>2016-12-10T15:10:22Z</time>
      </trkpt>
      <trkpt lat="45.925" lon="4.74605">
        <ele>171</ele>
        <time>2016-12-10T15:10:23Z</time>
      </trkpt>
      <trkpt lat="45.92504" lon="4.746">
        <ele>171</ele>
        <time>2016-12-10T15:10:24Z</time>
      </trkpt>
      <trkpt lat="45.92508" lon="4.74595">
        <ele>171</ele>
        <time>2016-12-10T15:10:25Z</time>
      </trkpt>
      <trkpt lat="45.92512" lon="4.74591">
        <ele>171</ele>
        <time>2016-12-10T15:10:26Z</time>
      </trkpt>
      <trkpt lat="45.92516" lon="4.74586">
        <ele>171</ele>
        <time>2016-12-10T15:10:27Z</time>
      </trkpt>
      <trkpt lat="45.9252" lon="4.74582">
        <ele>171</ele>
        <time>2016-12-10T15:10:28Z</time>
      </trkpt>
      <trkpt lat="45.92524" lon="4.74578">
        <ele>171</ele>
        <time>2016-12-10T15:10:29Z</time>
      </trkpt>
      <trkpt lat="45.92528" lon="4.74572">
        <ele>171</ele>
        <time>2016-12-10T15:10:30Z</time>
      </trkpt>
      <trkpt lat="45.92532" lon="4.74567">
        <ele>171</ele>
        <time>2016-12-10T15:10:31Z</time>
      </trkpt>
      <trkpt lat="45.92536" lon="4.74562">
        <ele>171</ele>
        <time>2016-12-10T15:10:32Z</time>
      </trkpt>
      <trkpt lat="45.9254" lon="4.74556">
        <ele>171</ele>
        <time>2016-12-10T15:10:33Z</time>
      </trkpt>
      <trkpt lat="45.92543" lon="4.74551">
        <ele>170</ele>
        <time>2016-12-10T15:10:34Z</time>
      </trkpt>
      <trkpt lat="45.92547" lon="4.74545">
        <ele>170</ele>
        <time>2016-12-10T15:10:35Z</time>
      </trkpt>
      <trkpt lat="45.9255" lon="4.7454">
        <ele>170</ele>
        <time>2016-12-10T15:10:36Z</time>
      </trkpt>
      <trkpt lat="45.92554" lon="4.74534">
        <ele>170</ele>
        <time>2016-12-10T15:10:37Z</time>
      </trkpt>
      <trkpt lat="45.92557" lon="4.74528">
        <ele>170</ele>
        <time>2016-12-10T15:10:38Z</time>
      </trkpt>
      <trkpt lat="45.9256" lon="4.74522">
        <ele>170</ele>
        <time>2016-12-10T15:10:39Z</time>
      </trkpt>
      <trkpt lat="45.92563" lon="4.74516">
        <ele>170</ele>
        <time>2016-12-10T15:10:40Z</time>
      </trkpt>
      <trkpt lat="45.92566" lon="4.7451">
        <ele>170</ele>
        <time>2016-12-10T15:10:41Z</time>
      </trkpt>
      <trkpt lat="45.92569" lon="4.74504">
        <ele>170</ele>
        <time>2016-12-10T15:10:42Z</time>
      </trkpt>
      <trkpt lat="45.92573" lon="4.74499">
        <ele>170</ele>
        <time>2016-12-10T15:10:43Z</time>
      </trkpt>
      <trkpt lat="45.92575" lon="4.74493">
        <ele>170</ele>
        <time>2016-12-10T15:10:44Z</time>
      </trkpt>
      <trkpt lat="45.92578" lon="4.74488">
        <ele>170</ele>
        <time>2016-12-10T15:10:45Z</time>
      </trkpt>
      <trkpt lat="45.92581" lon="4.74482">
        <ele>170</ele>
        <time>2016-12-10T15:10:46Z</time>
      </trkpt>
      <trkpt lat="45.92584" lon="4.74477">
        <ele>170</ele>
        <time>2016-12-10T15:10:47Z</time>
      </trkpt>
      <trkpt lat="45.92587" lon="4.74471">
        <ele>170</ele>
        <time>2016-12-10T15:10:48Z</time>
      </trkpt>
      <trkpt lat="45.9259" lon="4.74465">
        <ele>170</ele>
        <time>2016-12-10T15:10:49Z</time>
      </trkpt>
      <trkpt lat="45.92593" lon="4.74459">
        <ele>170</ele>
        <time>2016-12-10T15:10:50Z</time>
      </trkpt>
      <trkpt lat="45.92596" lon="4.74454">
        <ele>170</ele>
        <time>2016-12-10T15:10:51Z</time>
      </trkpt>
      <trkpt lat="45.926" lon="4.74448">
        <ele>170</ele>
        <time>2016-12-10T15:10:52Z</time>
      </trkpt>
      <trkpt lat="45.92603" lon="4.74442">
        <ele>170</ele>
        <time>2016-12-10T15:10:53Z</time>
      </trkpt>
      <trkpt lat="45.92606" lon="4.74436">
        <ele>170</ele>
        <time>2016-12-10T15:10:54Z</time>
      </trkpt>
      <trkpt lat="45.92609" lon="4.7443">
        <ele>170</ele>
        <time>2016-12-10T15:10:55Z</time>
      </trkpt>
      <trkpt lat="45.92612" lon="4.74424">
        <ele>170</ele>
        <time>2016-12-10T15:10:56Z</time>
      </trkpt>
      <trkpt lat="45.92615" lon="4.74418">
        <ele>170</ele>
        <time>2016-12-10T15:10:57Z</time>
      </trkpt>
      <trkpt lat="45.92618" lon="4.74413">
        <ele>170</ele>
        <time>2016-12-10T15:10:58Z</time>
      </trkpt>
      <trkpt lat="45.92621" lon="4.74407">
        <ele>170</ele>
        <time>2016-12-10T15:10:59Z</time>
      </trkpt>
      <trkpt lat="45.92624" lon="4.74402">
        <ele>170</ele>
        <time>2016-12-10T15:11:00Z</time>
      </trkpt>
      <trkpt lat="45.92627" lon="4.74396">
        <ele>170</ele>
        <time>2016-12-10T15:11:01Z</time>
      </trkpt>
      <trkpt lat="45.9263" lon="4.7439">
        <ele>170</ele>
        <time>2016-12-10T15:11:02Z</time>
      </trkpt>
      <trkpt lat="45.92633" lon="4.74385">
        <ele>170</ele>
        <time>2016-12-10T15:11:03Z</time>
      </trkpt>
      <trkpt lat="45.92636" lon="4.7438">
        <ele>170</ele>
        <time>2016-12-10T15:11:04Z</time>
      </trkpt>
      <trkpt lat="45.92639" lon="4.74374">
        <ele>171</ele>
        <time>2016-12-10T15:11:05Z</time>
      </trkpt>
      <trkpt lat="45.92642" lon="4.74369">
        <ele>171</ele>
        <time>2016-12-10T15:11:06Z</time>
      </trkpt>
      <trkpt lat="45.92645" lon="4.74363">
        <ele>171</ele>
        <time>2016-12-10T15:11:07Z</time>
      </trkpt>
      <trkpt lat="45.92648" lon="4.74358">
        <ele>171</ele>
        <time>2016-12-10T15:11:08Z</time>
      </trkpt>
      <trkpt lat="45.92651" lon="4.74352">
        <ele>171</ele>
        <time>2016-12-10T15:11:09Z</time>
      </trkpt>
      <trkpt lat="45.92654" lon="4.74346">
        <ele>171</ele>
        <time>2016-12-10T15:11:10Z</time>
      </trkpt>
      <trkpt lat="45.92657" lon="4.74341">
        <ele>171</ele>
        <time>2016-12-10T15:11:11Z</time>
      </trkpt>
      <trkpt lat="45.9266" lon="4.74335">
        <ele>171</ele>
        <time>2016-12-10T15:11:12Z</time>
      </trkpt>
      <trkpt lat="45.92664" lon="4.7433">
        <ele>171</ele>
        <time>2016-12-10T15:11:13Z</time>
      </trkpt>
      <trkpt lat="45.92667" lon="4.74324">
        <ele>171</ele>
        <time>2016-12-10T15:11:14Z</time>
      </trkpt>
      <trkpt lat="45.9267" lon="4.74318">
        <ele>171</ele>
        <time>2016-12-10T15:11:15Z</time>
      </trkpt>
      <trkpt lat="45.92673" lon="4.74313">
        <ele>171</ele>
        <time>2016-12-10T15:11:16Z</time>
      </trkpt>
      <trkpt lat="45.92676" lon="4.74307">
        <ele>171</ele>
        <time>2016-12-10T15:11:17Z</time>
      </trkpt>
      <trkpt lat="45.92679" lon="4.74301">
        <ele>171</ele>
        <time>2016-12-10T15:11:18Z</time>
      </trkpt>
      <trkpt lat="45.92682" lon="4.74295">
        <ele>171</ele>
        <time>2016-12-10T15:11:19Z</time>
      </trkpt>
      <trkpt lat="45.92685" lon="4.74289">
        <ele>171</ele>
        <time>2016-12-10T15:11:20Z</time>
      </trkpt>
      <trkpt lat="45.92689" lon="4.74283">
        <ele>171</ele>
        <time>2016-12-10T15:11:21Z</time>
      </trkpt>
      <trkpt lat="45.92692" lon="4.74277">
        <ele>171</ele>
        <time>2016-12-10T15:11:22Z</time>
      </trkpt>
      <trkpt lat="45.92695" lon="4.74272">
        <ele>171</ele>
        <time>2016-12-10T15:11:23Z</time>
      </trkpt>
      <trkpt lat="45.92698" lon="4.74266">
        <ele>171</ele>
        <time>2016-12-10T15:11:24Z</time>
      </trkpt>
      <trkpt lat="45.92701" lon="4.74261">
        <ele>171</ele>
        <time>2016-12-10T15:11:25Z</time>
      </trkpt>
      <trkpt lat="45.92705" lon="4.74255">
        <ele>171</ele>
        <time>2016-12-10T15:11:26Z</time>
      </trkpt>
      <trkpt lat="45.92708" lon="4.7425">
        <ele>171</ele>
        <time>2016-12-10T15:11:27Z</time>
      </trkpt>
      <trkpt lat="45.92711" lon="4.74244">
        <ele>171</ele>
        <time>2016-12-10T15:11:28Z</time>
      </trkpt>
      <trkpt lat="45.92715" lon="4.74239">
        <ele>171</ele>
        <time>2016-12-10T15:11:29Z</time>
      </trkpt>
      <trkpt lat="45.92718" lon="4.74233">
        <ele>171</ele>
        <time>2016-12-10T15:11:30Z</time>
      </trkpt>
      <trkpt lat="45.92722" lon="4.74228">
        <ele>171</ele>
        <time>2016-12-10T15:11:31Z</time>
      </trkpt>
      <trkpt lat="45.92726" lon="4.74222">
        <ele>171</ele>
        <time>2016-12-10T15:11:32Z</time>
      </trkpt>
      <trkpt lat="45.92729" lon="4.74217">
        <ele>171</ele>
        <time>2016-12-10T15:11:33Z</time>
      </trkpt>
      <trkpt lat="45.92733" lon="4.74211">
        <ele>171</ele>
        <time>2016-12-10T15:11:34Z</time>
      </trkpt>
      <trkpt lat="45.92737" lon="4.74206">
        <ele>171</ele>
        <time>2016-12-10T15:11:35Z</time>
      </trkpt>
      <trkpt lat="45.92741" lon="4.742">
        <ele>171</ele>
        <time>2016-12-10T15:11:36Z</time>
      </trkpt>
      <trkpt lat="45.92745" lon="4.74195">
        <ele>171</ele>
        <time>2016-12-10T15:11:37Z</time>
      </trkpt>
      <trkpt lat="45.9275" lon="4.74189">
        <ele>172</ele>
        <time>2016-12-10T15:11:38Z</time>
      </trkpt>
      <trkpt lat="45.92754" lon="4.74184">
        <ele>172</ele>
        <time>2016-12-10T15:11:39Z</time>
      </trkpt>
      <trkpt lat="45.92759" lon="4.74179">
        <ele>172</ele>
        <time>2016-12-10T15:11:40Z</time>
      </trkpt>
      <trkpt lat="45.92763" lon="4.74173">
        <ele>172</ele>
        <time>2016-12-10T15:11:41Z</time>
      </trkpt>
      <trkpt lat="45.92768" lon="4.74169">
        <ele>172</ele>
        <time>2016-12-10T15:11:42Z</time>
      </trkpt>
      <trkpt lat="45.92773" lon="4.74164">
        <ele>172</ele>
        <time>2016-12-10T15:11:43Z</time>
      </trkpt>
      <trkpt lat="45.92777" lon="4.74159">
        <ele>172</ele>
        <time>2016-12-10T15:11:44Z</time>
      </trkpt>
      <trkpt lat="45.92782" lon="4.74154">
        <ele>172</ele>
        <time>2016-12-10T15:11:45Z</time>
      </trkpt>
      <trkpt lat="45.92787" lon="4.74149">
        <ele>172</ele>
        <time>2016-12-10T15:11:46Z</time>
      </trkpt>
      <trkpt lat="45.92791" lon="4.74145">
        <ele>172</ele>
        <time>2016-12-10T15:11:47Z</time>
      </trkpt>
      <trkpt lat="45.92796" lon="4.7414">
        <ele>172</ele>
        <time>2016-12-10T15:11:48Z</time>
      </trkpt>
      <trkpt lat="45.928" lon="4.74135">
        <ele>172</ele>
        <time>2016-12-10T15:11:49Z</time>
      </trkpt>
      <trkpt lat="45.92804" lon="4.74131">
        <ele>172</ele>
        <time>2016-12-10T15:11:50Z</time>
      </trkpt>
      <trkpt lat="45.92809" lon="4.74126">
        <ele>172</ele>
        <time>2016-12-10T15:11:51Z</time>
      </trkpt>
      <trkpt lat="45.92813" lon="4.74122">
        <ele>172</ele>
        <time>2016-12-10T15:11:52Z</time>
      </trkpt>
      <trkpt lat="45.92817" lon="4.74117">
        <ele>172</ele>
        <time>2016-12-10T15:11:53Z</time>
      </trkpt>
      <trkpt lat="45.92822" lon="4.74112">
        <ele>171</ele>
        <time>2016-12-10T15:11:54Z</time>
      </trkpt>
      <trkpt lat="45.92826" lon="4.74108">
        <ele>171</ele>
        <time>2016-12-10T15:11:55Z</time>
      </trkpt>
      <trkpt lat="45.9283" lon="4.74103">
        <ele>171</ele>
        <time>2016-12-10T15:11:56Z</time>
      </trkpt>
      <trkpt lat="45.92835" lon="4.74098">
        <ele>171</ele>
        <time>2016-12-10T15:11:57Z</time>
      </trkpt>
      <trkpt lat="45.92839" lon="4.74094">
        <ele>171</ele>
        <time>2016-12-10T15:11:58Z</time>
      </trkpt>
      <trkpt lat="45.92843" lon="4.74089">
        <ele>171</ele>
        <time>2016-12-10T15:11:59Z</time>
      </trkpt>
      <trkpt lat="45.92847" lon="4.74084">
        <ele>171</ele>
        <time>2016-12-10T15:12:00Z</time>
      </trkpt>
      <trkpt lat="45.92851" lon="4.74079">
        <ele>172</ele>
        <time>2016-12-10T15:12:01Z</time>
      </trkpt>
      <trkpt lat="45.92855" lon="4.74073">
        <ele>172</ele>
        <time>2016-12-10T15:12:02Z</time>
      </trkpt>
      <trkpt lat="45.92859" lon="4.74068">
        <ele>172</ele>
        <time>2016-12-10T15:12:03Z</time>
      </trkpt>
      <trkpt lat="45.92863" lon="4.74062">
        <ele>172</ele>
        <time>2016-12-10T15:12:04Z</time>
      </trkpt>
      <trkpt lat="45.92868" lon="4.74057">
        <ele>172</ele>
        <time>2016-12-10T15:12:05Z</time>
      </trkpt>
      <trkpt lat="45.92872" lon="4.74052">
        <ele>172</ele>
        <time>2016-12-10T15:12:06Z</time>
      </trkpt>
      <trkpt lat="45.92877" lon="4.74048">
        <ele>172</ele>
        <time>2016-12-10T15:12:07Z</time>
      </trkpt>
      <trkpt lat="45.92882" lon="4.74045">
        <ele>172</ele>
        <time>2016-12-10T15:12:08Z</time>
      </trkpt>
      <trkpt lat="45.92887" lon="4.74045">
        <ele>172</ele>
        <time>2016-12-10T15:12:09Z</time>
      </trkpt>
      <trkpt lat="45.92892" lon="4.74045">
        <ele>172</ele>
        <time>2016-12-10T15:12:10Z</time>
      </trkpt>
      <trkpt lat="45.92897" lon="4.74045">
        <ele>172</ele>
        <time>2016-12-10T15:12:11Z</time>
      </trkpt>
      <trkpt lat="45.92902" lon="4.74045">
        <ele>172</ele>
        <time>2016-12-10T15:12:12Z</time>
      </trkpt>
      <trkpt lat="45.92906" lon="4.74043">
        <ele>172</ele>
        <time>2016-12-10T15:12:13Z</time>
      </trkpt>
      <trkpt lat="45.92911" lon="4.7404">
        <ele>172</ele>
        <time>2016-12-10T15:12:14Z</time>
      </trkpt>
      <trkpt lat="45.92914" lon="4.74035">
        <ele>172</ele>
        <time>2016-12-10T15:12:15Z</time>
      </trkpt>
      <trkpt lat="45.92917" lon="4.74028">
        <ele>172</ele>
        <time>2016-12-10T15:12:16Z</time>
      </trkpt>
      <trkpt lat="45.92918" lon="4.74021">
        <ele>172</ele>
        <time>2016-12-10T15:12:17Z</time>
      </trkpt>
      <trkpt lat="45.92918" lon="4.74014">
        <ele>172</ele>
        <time>2016-12-10T15:12:18Z</time>
      </trkpt>
      <trkpt lat="45.92918" lon="4.74007">
        <ele>172</ele>
        <time>2016-12-10T15:12:19Z</time>
      </trkpt>
      <trkpt lat="45.92916" lon="4.74">
        <ele>172</ele>
        <time>2016-12-10T15:12:20Z</time>
      </trkpt>
      <trkpt lat="45.92913" lon="4.73994">
        <ele>172</ele>
        <time>2016-12-10T15:12:21Z</time>
      </trkpt>
      <trkpt lat="45.92909" lon="4.73989">
        <ele>172</ele>
        <time>2016-12-10T15:12:22Z</time>
      </trkpt>
      <trkpt lat="45.92904" lon="4.73985">
        <ele>172</ele>
        <time>2016-12-10T15:12:23Z</time>
      </trkpt>
      <trkpt lat="45.92899" lon="4.7398">
        <ele>172</ele>
        <time>2016-12-10T15:12:24Z</time>
      </trkpt>
      <trkpt lat="45.92895" lon="4.73975">
        <ele>172</ele>
        <time>2016-12-10T15:12:25Z</time>
      </trkpt>
      <trkpt lat="45.92892" lon="4.73968">
        <ele>172</ele>
        <time>2016-12-10T15:12:26Z</time>
      </trkpt>
      <trkpt lat="45.9289" lon="4.7396">
        <ele>172</ele>
        <time>2016-12-10T15:12:27Z</time>
      </trkpt>
      <trkpt lat="45.92889" lon="4.73952">
        <ele>172</ele>
        <time>2016-12-10T15:12:28Z</time>
      </trkpt>
      <trkpt lat="45.92888" lon="4.73943">
        <ele>172</ele>
        <time>2016-12-10T15:12:29Z</time>
      </trkpt>
      <trkpt lat="45.92888" lon="4.73934">
        <ele>172</ele>
        <time>2016-12-10T15:12:30Z</time>
      </trkpt>
      <trkpt lat="45.92888" lon="4.73925">
        <ele>172</ele>
        <time>2016-12-10T15:12:31Z</time>
      </trkpt>
      <trkpt lat="45.92887" lon="4.73915">
        <ele>173</ele>
        <time>2016-12-10T15:12:32Z</time>
      </trkpt>
      <trkpt lat="45.92886" lon="4.73906">
        <ele>173</ele>
        <time>2016-12-10T15:12:33Z</time>
      </trkpt>
      <trkpt lat="45.92885" lon="4.73896">
        <ele>173</ele>
        <time>2016-12-10T15:12:34Z</time>
      </trkpt>
      <trkpt lat="45.92884" lon="4.73888">
        <ele>173</ele>
        <time>2016-12-10T15:12:35Z</time>
      </trkpt>
      <trkpt lat="45.92882" lon="4.73879">
        <ele>173</ele>
        <time>2016-12-10T15:12:36Z</time>
      </trkpt>
      <trkpt lat="45.9288" lon="4.73871">
        <ele>173</ele>
        <time>2016-12-10T15:12:37Z</time>
      </trkpt>
      <trkpt lat="45.92879" lon="4.73863">
        <ele>173</ele>
        <time>2016-12-10T15:12:38Z</time>
      </trkpt>
      <trkpt lat="45.92878" lon="4.73855">
        <ele>173</ele>
        <time>2016-12-10T15:12:39Z</time>
      </trkpt>
      <trkpt lat="45.92876" lon="4.73847">
        <ele>173</ele>
        <time>2016-12-10T15:12:40Z</time>
      </trkpt>
      <trkpt lat="45.92874" lon="4.7384">
        <ele>173</ele>
        <time>2016-12-10T15:12:41Z</time>
      </trkpt>
      <trkpt lat="45.92872" lon="4.73833">
        <ele>173</ele>
        <time>2016-12-10T15:12:42Z</time>
      </trkpt>
      <trkpt lat="45.9287" lon="4.73826">
        <ele>173</ele>
        <time>2016-12-10T15:12:43Z</time>
      </trkpt>
      <trkpt lat="45.92868" lon="4.73818">
        <ele>173</ele>
        <time>2016-12-10T15:12:44Z</time>
      </trkpt>
      <trkpt lat="45.92866" lon="4.73811">
        <ele>173</ele>
        <time>2016-12-10T15:12:45Z</time>
      </trkpt>
      <trkpt lat="45.92865" lon="4.73804">
        <ele>173</ele>
        <time>2016-12-10T15:12:46Z</time>
      </trkpt>
      <trkpt lat="45.92863" lon="4.73798">
        <ele>173</ele>
        <time>2016-12-10T15:12:47Z</time>
      </trkpt>
      <trkpt lat="45.92859" lon="4.73792">
        <ele>173</ele>
        <time>2016-12-10T15:12:48Z</time>
      </trkpt>
      <trkpt lat="45.92855" lon="4.73787">
        <ele>173</ele>
        <time>2016-12-10T15:12:49Z</time>
      </trkpt>
      <trkpt lat="45.92851" lon="4.73783">
        <ele>173</ele>
        <time>2016-12-10T15:12:50Z</time>
      </trkpt>
      <trkpt lat="45.92845" lon="4.7378">
        <ele>172</ele>
        <time>2016-12-10T15:12:51Z</time>
      </trkpt>
      <trkpt lat="45.9284" lon="4.73777">
        <ele>172</ele>
        <time>2016-12-10T15:12:52Z</time>
      </trkpt>
      <trkpt lat="45.92835" lon="4.73775">
        <ele>172</ele>
        <time>2016-12-10T15:12:53Z</time>
      </trkpt>
      <trkpt lat="45.92831" lon="4.73772">
        <ele>173</ele>
        <time>2016-12-10T15:12:54Z</time>
      </trkpt>
      <trkpt lat="45.92827" lon="4.73769">
        <ele>172</ele>
        <time>2016-12-10T15:12:55Z</time>
      </trkpt>
      <trkpt lat="45.92822" lon="4.73767">
        <ele>172</ele>
        <time>2016-12-10T15:12:56Z</time>
      </trkpt>
      <trkpt lat="45.92818" lon="4.73764">
        <ele>172</ele>
        <time>2016-12-10T15:12:57Z</time>
      </trkpt>
      <trkpt lat="45.92809" lon="4.73759">
        <ele>173</ele>
        <time>2016-12-10T15:12:59Z</time>
      </trkpt>
      <trkpt lat="45.92805" lon="4.73756">
        <ele>173</ele>
        <time>2016-12-10T15:13:00Z</time>
      </trkpt>
      <trkpt lat="45.92801" lon="4.73753">
        <ele>173</ele>
        <time>2016-12-10T15:13:01Z</time>
      </trkpt>
      <trkpt lat="45.92797" lon="4.7375">
        <ele>172</ele>
        <time>2016-12-10T15:13:02Z</time>
      </trkpt>
      <trkpt lat="45.9279" lon="4.73742">
        <ele>172</ele>
        <time>2016-12-10T15:13:04Z</time>
      </trkpt>
      <trkpt lat="45.92788" lon="4.73737">
        <ele>172</ele>
        <time>2016-12-10T15:13:05Z</time>
      </trkpt>
      <trkpt lat="45.92783" lon="4.73728">
        <ele>172</ele>
        <time>2016-12-10T15:13:07Z</time>
      </trkpt>
      <trkpt lat="45.92778" lon="4.73725">
        <ele>172</ele>
        <time>2016-12-10T15:13:08Z</time>
      </trkpt>
      <trkpt lat="45.9277" lon="4.73723">
        <ele>172</ele>
        <time>2016-12-10T15:13:10Z</time>
      </trkpt>
      <trkpt lat="45.92765" lon="4.73722">
        <ele>172</ele>
        <time>2016-12-10T15:13:11Z</time>
      </trkpt>
      <trkpt lat="45.9276" lon="4.7372">
        <ele>172</ele>
        <time>2016-12-10T15:13:12Z</time>
      </trkpt>
      <trkpt lat="45.92754" lon="4.73719">
        <ele>172</ele>
        <time>2016-12-10T15:13:13Z</time>
      </trkpt>
      <trkpt lat="45.92747" lon="4.73718">
        <ele>173</ele>
        <time>2016-12-10T15:13:14Z</time>
      </trkpt>
      <trkpt lat="45.92742" lon="4.73717">
        <ele>173</ele>
        <time>2016-12-10T15:13:15Z</time>
      </trkpt>
      <trkpt lat="45.92736" lon="4.73716">
        <ele>173</ele>
        <time>2016-12-10T15:13:16Z</time>
      </trkpt>
      <trkpt lat="45.9273" lon="4.73715">
        <ele>173</ele>
        <time>2016-12-10T15:13:17Z</time>
      </trkpt>
      <trkpt lat="45.92725" lon="4.73714">
        <ele>173</ele>
        <time>2016-12-10T15:13:18Z</time>
      </trkpt>
      <trkpt lat="45.92719" lon="4.73713">
        <ele>173</ele>
        <time>2016-12-10T15:13:19Z</time>
      </trkpt>
      <trkpt lat="45.92714" lon="4.73711">
        <ele>173</ele>
        <time>2016-12-10T15:13:20Z</time>
      </trkpt>
      <trkpt lat="45.92709" lon="4.7371">
        <ele>173</ele>
        <time>2016-12-10T15:13:21Z</time>
      </trkpt>
      <trkpt lat="45.92703" lon="4.73709">
        <ele>173</ele>
        <time>2016-12-10T15:13:22Z</time>
      </trkpt>
      <trkpt lat="45.92698" lon="4.73709">
        <ele>173</ele>
        <time>2016-12-10T15:13:23Z</time>
      </trkpt>
      <trkpt lat="45.92693" lon="4.73707">
        <ele>173</ele>
        <time>2016-12-10T15:13:24Z</time>
      </trkpt>
      <trkpt lat="45.92689" lon="4.73706">
        <ele>173</ele>
        <time>2016-12-10T15:13:25Z</time>
      </trkpt>
      <trkpt lat="45.92684" lon="4.73705">
        <ele>173</ele>
        <time>2016-12-10T15:13:26Z</time>
      </trkpt>
      <trkpt lat="45.92679" lon="4.73703">
        <ele>173</ele>
        <time>2016-12-10T15:13:27Z</time>
      </trkpt>
      <trkpt lat="45.92674" lon="4.737">
        <ele>174</ele>
        <time>2016-12-10T15:13:28Z</time>
      </trkpt>
      <trkpt lat="45.92669" lon="4.73698">
        <ele>174</ele>
        <time>2016-12-10T15:13:29Z</time>
      </trkpt>
      <trkpt lat="45.92664" lon="4.73695">
        <ele>173</ele>
        <time>2016-12-10T15:13:30Z</time>
      </trkpt>
      <trkpt lat="45.9266" lon="4.73692">
        <ele>173</ele>
        <time>2016-12-10T15:13:31Z</time>
      </trkpt>
      <trkpt lat="45.92656" lon="4.73688">
        <ele>173</ele>
        <time>2016-12-10T15:13:32Z</time>
      </trkpt>
      <trkpt lat="45.92652" lon="4.73684">
        <ele>173</ele>
        <time>2016-12-10T15:13:33Z</time>
      </trkpt>
      <trkpt lat="45.92648" lon="4.7368">
        <ele>173</ele>
        <time>2016-12-10T15:13:34Z</time>
      </trkpt>
      <trkpt lat="45.92645" lon="4.73675">
        <ele>173</ele>
        <time>2016-12-10T15:13:35Z</time>
      </trkpt>
      <trkpt lat="45.92642" lon="4.7367">
        <ele>173</ele>
        <time>2016-12-10T15:13:36Z</time>
      </trkpt>
      <trkpt lat="45.92639" lon="4.73664">
        <ele>173</ele>
        <time>2016-12-10T15:13:37Z</time>
      </trkpt>
      <trkpt lat="45.92637" lon="4.73658">
        <ele>173</ele>
        <time>2016-12-10T15:13:38Z</time>
      </trkpt>
      <trkpt lat="45.92634" lon="4.73651">
        <ele>173</ele>
        <time>2016-12-10T15:13:39Z</time>
      </trkpt>
      <trkpt lat="45.92632" lon="4.73645">
        <ele>173</ele>
        <time>2016-12-10T15:13:40Z</time>
      </trkpt>
      <trkpt lat="45.92629" lon="4.73638">
        <ele>173</ele>
        <time>2016-12-10T15:13:41Z</time>
      </trkpt>
      <trkpt lat="45.92625" lon="4.73631">
        <ele>173</ele>
        <time>2016-12-10T15:13:42Z</time>
      </trkpt>
      <trkpt lat="45.92621" lon="4.73626">
        <ele>173</ele>
        <time>2016-12-10T15:13:43Z</time>
      </trkpt>
      <trkpt lat="45.92615" lon="4.73622">
        <ele>173</ele>
        <time>2016-12-10T15:13:44Z</time>
      </trkpt>
      <trkpt lat="45.92609" lon="4.73619">
        <ele>173</ele>
        <time>2016-12-10T15:13:45Z</time>
      </trkpt>
      <trkpt lat="45.92604" lon="4.73618">
        <ele>173</ele>
        <time>2016-12-10T15:13:46Z</time>
      </trkpt>
      <trkpt lat="45.92598" lon="4.73617">
        <ele>173</ele>
        <time>2016-12-10T15:13:47Z</time>
      </trkpt>
      <trkpt lat="45.92594" lon="4.73617">
        <ele>173</ele>
        <time>2016-12-10T15:13:48Z</time>
      </trkpt>
      <trkpt lat="45.92589" lon="4.73617">
        <ele>173</ele>
        <time>2016-12-10T15:13:49Z</time>
      </trkpt>
      <trkpt lat="45.92584" lon="4.73617">
        <ele>173</ele>
        <time>2016-12-10T15:13:50Z</time>
      </trkpt>
      <trkpt lat="45.9258" lon="4.73618">
        <ele>173</ele>
        <time>2016-12-10T15:13:51Z</time>
      </trkpt>
      <trkpt lat="45.92575" lon="4.73619">
        <ele>173</ele>
        <time>2016-12-10T15:13:52Z</time>
      </trkpt>
      <trkpt lat="45.9257" lon="4.73621">
        <ele>173</ele>
        <time>2016-12-10T15:13:53Z</time>
      </trkpt>
      <trkpt lat="45.92566" lon="4.73623">
        <ele>173</ele>
        <time>2016-12-10T15:13:54Z</time>
      </trkpt>
      <trkpt lat="45.92562" lon="4.73625">
        <ele>173</ele>
        <time>2016-12-10T15:13:55Z</time>
      </trkpt>
      <trkpt lat="45.92557" lon="4.73628">
        <ele>173</ele>
        <time>2016-12-10T15:13:56Z</time>
      </trkpt>
      <trkpt lat="45.92552" lon="4.73629">
        <ele>173</ele>
        <time>2016-12-10T15:13:57Z</time>
      </trkpt>
      <trkpt lat="45.92546" lon="4.7363">
        <ele>173</ele>
        <time>2016-12-10T15:13:58Z</time>
      </trkpt>
      <trkpt lat="45.92541" lon="4.73631">
        <ele>173</ele>
        <time>2016-12-10T15:13:59Z</time>
      </trkpt>
      <trkpt lat="45.92537" lon="4.73631">
        <ele>173</ele>
        <time>2016-12-10T15:14:00Z</time>
      </trkpt>
      <trkpt lat="45.92532" lon="4.73632">
        <ele>173</ele>
        <time>2016-12-10T15:14:01Z</time>
      </trkpt>
      <trkpt lat="45.92527" lon="4.73632">
        <ele>173</ele>
        <time>2016-12-10T15:14:02Z</time>
      </trkpt>
      <trkpt lat="45.92523" lon="4.73632">
        <ele>173</ele>
        <time>2016-12-10T15:14:03Z</time>
      </trkpt>
      <trkpt lat="45.92514" lon="4.73633">
        <ele>173</ele>
        <time>2016-12-10T15:14:05Z</time>
      </trkpt>
      <trkpt lat="45.9251" lon="4.73634">
        <ele>173</ele>
        <time>2016-12-10T15:14:06Z</time>
      </trkpt>
      <trkpt lat="45.92505" lon="4.73635">
        <ele>174</ele>
        <time>2016-12-10T15:14:07Z</time>
      </trkpt>
      <trkpt lat="45.92501" lon="4.73635">
        <ele>174</ele>
        <time>2016-12-10T15:14:08Z</time>
      </trkpt>
      <trkpt lat="45.92496" lon="4.73635">
        <ele>174</ele>
        <time>2016-12-10T15:14:09Z</time>
      </trkpt>
      <trkpt lat="45.92492" lon="4.73635">
        <ele>174</ele>
        <time>2016-12-10T15:14:10Z</time>
      </trkpt>
      <trkpt lat="45.92483" lon="4.73635">
        <ele>174</ele>
        <time>2016-12-10T15:14:12Z</time>
      </trkpt>
      <trkpt lat="45.92479" lon="4.73636">
        <ele>174</ele>
        <time>2016-12-10T15:14:13Z</time>
      </trkpt>
      <trkpt lat="45.92471" lon="4.73642">
        <ele>174</ele>
        <time>2016-12-10T15:14:15Z</time>
      </trkpt>
      <trkpt lat="45.92469" lon="4.73647">
        <ele>174</ele>
        <time>2016-12-10T15:14:16Z</time>
      </trkpt>
      <trkpt lat="45.92467" lon="4.73657">
        <ele>174</ele>
        <time>2016-12-10T15:14:18Z</time>
      </trkpt>
      <trkpt lat="45.92467" lon="4.73662">
        <ele>174</ele>
        <time>2016-12-10T15:14:19Z</time>
      </trkpt>
      <trkpt lat="45.92467" lon="4.73672">
        <ele>174</ele>
        <time>2016-12-10T15:14:21Z</time>
      </trkpt>
      <trkpt lat="45.92466" lon="4.73677">
        <ele>174</ele>
        <time>2016-12-10T15:14:22Z</time>
      </trkpt>
      <trkpt lat="45.92465" lon="4.73687">
        <ele>174</ele>
        <time>2016-12-10T15:14:24Z</time>
      </trkpt>
      <trkpt lat="45.92465" lon="4.73692">
        <ele>174</ele>
        <time>2016-12-10T15:14:25Z</time>
      </trkpt>
      <trkpt lat="45.92464" lon="4.737">
        <ele>174</ele>
        <time>2016-12-10T15:14:28Z</time>
      </trkpt>
      <trkpt lat="45.92464" lon="4.73701">
        <ele>174</ele>
        <time>2016-12-10T15:14:29Z</time>
      </trkpt>
      <trkpt lat="45.92464" lon="4.73701">
        <ele>174</ele>
        <time>2016-12-10T15:14:43Z</time>
      </trkpt>
      <trkpt lat="45.92464" lon="4.73701">
        <ele>174</ele>
        <time>2016-12-10T15:14:44Z</time>
      </trkpt>
      <trkpt lat="45.92463" lon="4.73702">
        <ele>174</ele>
        <time>2016-12-10T15:15:40.228Z</time>
      </trkpt>
    </trkseg>
  </trk>
</gpx>